<?xml version='1.0' encoding='UTF-8'?><gpx version="1.1" creator="JPX - https://github.com/jenetics/jpx" xmlns="http://www.topografix.com/GPX/1/1"><trk><trkseg><trkpt lat="43.34842823957767" lon="12.930780494437505"><ele>310.0</ele><time>2026-05-01T09:35:43.999Z</time></trkpt><trkpt lat="43.34840748053988" lon="12.930667545961917"><ele>310.0</ele><time>2026-05-01T09:35:45.999Z</time></trkpt><trkpt lat="43.34838323286355" lon="12.930563859410743"><ele>310.0</ele><time>2026-05-01T09:35:47.999Z</time></trkpt><trkpt lat="43.34834731152905" lon="12.930469651105444"><ele>310.0</ele><time>2026-05-01T09:35:49.999Z</time></trkpt><trkpt lat="43.34820477047989" lon="12.930517135454336"><ele>310.0</ele><time>2026-05-01T09:35:53Z</time></trkpt><trkpt lat="43.34813516303743" lon="12.930580822989901"><ele>310.0</ele><time>2026-05-01T09:35:55Z</time></trkpt><trkpt lat="43.34805898150862" lon="12.930637487072117"><ele>310.0</ele><time>2026-05-01T09:35:57Z</time></trkpt><trkpt lat="43.34799473679104" lon="12.930720115832813"><ele>310.0</ele><time>2026-05-01T09:35:59Z</time></trkpt><trkpt lat="43.34795453301372" lon="12.93083836566506"><ele>310.0</ele><time>2026-05-01T09:36:01Z</time></trkpt><trkpt lat="43.34793212602815" lon="12.930966900842188"><ele>310.0</ele><time>2026-05-01T09:36:03Z</time></trkpt><trkpt lat="43.34791541529786" lon="12.931106250848146"><ele>309.4</ele><time>2026-05-01T09:36:05Z</time></trkpt><trkpt lat="43.34788949816581" lon="12.931248628708074"><ele>308.8</ele><time>2026-05-01T09:36:07Z</time></trkpt><trkpt lat="43.347872810864416" lon="12.931406050595683"><ele>308.2</ele><time>2026-05-01T09:36:09Z</time></trkpt><trkpt lat="43.347846071969215" lon="12.931553441346047"><ele>307.6</ele><time>2026-05-01T09:36:11Z</time></trkpt><trkpt lat="43.347813747525734" lon="12.931693248592195"><ele>307.0</ele><time>2026-05-01T09:36:13Z</time></trkpt><trkpt lat="43.34778729800211" lon="12.931829619632728"><ele>306.8</ele><time>2026-05-01T09:36:15Z</time></trkpt><trkpt lat="43.34775366932427" lon="12.931957476016516"><ele>306.6</ele><time>2026-05-01T09:36:17Z</time></trkpt><trkpt lat="43.3476875470417" lon="12.93206157187796"><ele>306.40000000000003</ele><time>2026-05-01T09:36:19Z</time></trkpt><trkpt lat="43.347596445015625" lon="12.93213165891652"><ele>306.2</ele><time>2026-05-01T09:36:21Z</time></trkpt><trkpt lat="43.34750086454268" lon="12.932184663787373"><ele>306.0</ele><time>2026-05-01T09:36:23Z</time></trkpt><trkpt lat="43.347384228510315" lon="12.93222686175407"><ele>306.0</ele><time>2026-05-01T09:36:25Z</time></trkpt><trkpt lat="43.34731671706501" lon="12.932251643392746"><ele>306.0</ele><time>2026-05-01T09:36:26Z</time></trkpt><trkpt lat="43.34724838294434" lon="12.932288601866842"><ele>306.0</ele><time>2026-05-01T09:36:27Z</time></trkpt><trkpt lat="43.3471859131799" lon="12.932330361294259"><ele>306.0</ele><time>2026-05-01T09:36:28Z</time></trkpt><trkpt lat="43.34707334969905" lon="12.932381188838315"><ele>306.0</ele><time>2026-05-01T09:36:30Z</time></trkpt><trkpt lat="43.34697942956109" lon="12.932413281648481"><ele>306.0</ele><time>2026-05-01T09:36:32Z</time></trkpt><trkpt lat="43.346914870875516" lon="12.932420682457492"><ele>307.6</ele><time>2026-05-01T09:36:34Z</time></trkpt><trkpt lat="43.346867891122194" lon="12.932230877080464"><ele>309.20000000000005</ele><time>2026-05-01T09:36:37Z</time></trkpt><trkpt lat="43.34688509859896" lon="12.932087009424738"><ele>310.79999999999995</ele><time>2026-05-01T09:36:39Z</time></trkpt><trkpt lat="43.346903225414856" lon="12.932003161978908"><ele>312.4</ele><time>2026-05-01T09:36:40Z</time></trkpt><trkpt lat="43.34692693786723" lon="12.931902496092173"><ele>314.0</ele><time>2026-05-01T09:36:41Z</time></trkpt><trkpt lat="43.34695130066497" lon="12.931782969367678"><ele>313.59999999999997</ele><time>2026-05-01T09:36:42Z</time></trkpt><trkpt lat="43.34697278423594" lon="12.931666321131356"><ele>313.2</ele><time>2026-05-01T09:36:43Z</time></trkpt><trkpt lat="43.34699411228255" lon="12.931540625150804"><ele>312.79999999999995</ele><time>2026-05-01T09:36:44Z</time></trkpt><trkpt lat="43.347017870233294" lon="12.931409306882617"><ele>312.4</ele><time>2026-05-01T09:36:45Z</time></trkpt><trkpt lat="43.347037858299025" lon="12.931272145149075"><ele>312.0</ele><time>2026-05-01T09:36:46Z</time></trkpt><trkpt lat="43.34705933723834" lon="12.93113484209402"><ele>312.0</ele><time>2026-05-01T09:36:47Z</time></trkpt><trkpt lat="43.347085561952106" lon="12.93099228943544"><ele>312.0</ele><time>2026-05-01T09:36:48Z</time></trkpt><trkpt lat="43.34711024626923" lon="12.930856122852767"><ele>312.0</ele><time>2026-05-01T09:36:49Z</time></trkpt><trkpt lat="43.34713437706132" lon="12.930719332010453"><ele>312.0</ele><time>2026-05-01T09:36:50Z</time></trkpt><trkpt lat="43.347164271610566" lon="12.930578817459761"><ele>312.0</ele><time>2026-05-01T09:36:51Z</time></trkpt><trkpt lat="43.34718581005294" lon="12.930422610472451"><ele>312.0</ele><time>2026-05-01T09:36:52Z</time></trkpt><trkpt lat="43.347203908206424" lon="12.930257529096867"><ele>312.0</ele><time>2026-05-01T09:36:53Z</time></trkpt><trkpt lat="43.34722718260565" lon="12.930086861252205"><ele>312.0</ele><time>2026-05-01T09:36:54Z</time></trkpt><trkpt lat="43.347255044915755" lon="12.929920782370791"><ele>312.0</ele><time>2026-05-01T09:36:55Z</time></trkpt><trkpt lat="43.34728250037555" lon="12.929748883845528"><ele>311.25</ele><time>2026-05-01T09:36:56Z</time></trkpt><trkpt lat="43.34731075834058" lon="12.929579507530557"><ele>310.5</ele><time>2026-05-01T09:36:57Z</time></trkpt><trkpt lat="43.34736610674528" lon="12.929423433881894"><ele>309.75</ele><time>2026-05-01T09:36:58Z</time></trkpt><trkpt lat="43.34739558289103" lon="12.92926168449759"><ele>309.0</ele><time>2026-05-01T09:36:59Z</time></trkpt><trkpt lat="43.347424230313784" lon="12.929107586542235"><ele>309.0</ele><time>2026-05-01T09:37:00Z</time></trkpt><trkpt lat="43.34745177542006" lon="12.928959465570811"><ele>309.0</ele><time>2026-05-01T09:37:01Z</time></trkpt><trkpt lat="43.34747879457347" lon="12.928814196586822"><ele>309.0</ele><time>2026-05-01T09:37:02Z</time></trkpt><trkpt lat="43.347504966783916" lon="12.928673481211092"><ele>309.0</ele><time>2026-05-01T09:37:03Z</time></trkpt><trkpt lat="43.34752971180245" lon="12.928539579453552"><ele>309.0</ele><time>2026-05-01T09:37:04Z</time></trkpt><trkpt lat="43.34755358776979" lon="12.928411480528563"><ele>309.59999999999997</ele><time>2026-05-01T09:37:05Z</time></trkpt><trkpt lat="43.34757395966405" lon="12.928289104034244"><ele>310.2</ele><time>2026-05-01T09:37:06Z</time></trkpt><trkpt lat="43.34759354979036" lon="12.928169980915081"><ele>310.79999999999995</ele><time>2026-05-01T09:37:07Z</time></trkpt><trkpt lat="43.34761347536253" lon="12.928048936534218"><ele>311.4</ele><time>2026-05-01T09:37:08Z</time></trkpt><trkpt lat="43.347634034268005" lon="12.927923713667136"><ele>312.0</ele><time>2026-05-01T09:37:09Z</time></trkpt><trkpt lat="43.347655432646114" lon="12.927792518893233"><ele>312.0</ele><time>2026-05-01T09:37:10Z</time></trkpt><trkpt lat="43.34767548266465" lon="12.927660524975769"><ele>312.0</ele><time>2026-05-01T09:37:11Z</time></trkpt><trkpt lat="43.34769483590463" lon="12.927527191186721"><ele>312.0</ele><time>2026-05-01T09:37:12Z</time></trkpt><trkpt lat="43.34771853993121" lon="12.92739869370995"><ele>312.0</ele><time>2026-05-01T09:37:13Z</time></trkpt><trkpt lat="43.34774167351041" lon="12.927264519742597"><ele>312.0</ele><time>2026-05-01T09:37:14Z</time></trkpt><trkpt lat="43.34776798681581" lon="12.927139967039443"><ele>312.5</ele><time>2026-05-01T09:37:15Z</time></trkpt><trkpt lat="43.34779183626323" lon="12.927018169570571"><ele>313.0</ele><time>2026-05-01T09:37:16Z</time></trkpt><trkpt lat="43.34781692445617" lon="12.926906952782575"><ele>313.5</ele><time>2026-05-01T09:37:17Z</time></trkpt><trkpt lat="43.34783399881873" lon="12.926800600723467"><ele>314.0</ele><time>2026-05-01T09:37:18Z</time></trkpt><trkpt lat="43.347849478065434" lon="12.926705541885957"><ele>314.5</ele><time>2026-05-01T09:37:19Z</time></trkpt><trkpt lat="43.34787189516583" lon="12.926564483393582"><ele>315.0</ele><time>2026-05-01T09:37:21Z</time></trkpt><trkpt lat="43.34788073512978" lon="12.926447965295951"><ele>315.0</ele><time>2026-05-01T09:37:23Z</time></trkpt><trkpt lat="43.34788589458056" lon="12.926323086527375"><ele>315.0</ele><time>2026-05-01T09:37:25Z</time></trkpt><trkpt lat="43.34790836912743" lon="12.926161165143323"><ele>315.0</ele><time>2026-05-01T09:37:27Z</time></trkpt><trkpt lat="43.34792124741592" lon="12.92606348473673"><ele>315.0</ele><time>2026-05-01T09:37:28Z</time></trkpt><trkpt lat="43.34793789653215" lon="12.925964140926002"><ele>315.0</ele><time>2026-05-01T09:37:29Z</time></trkpt><trkpt lat="43.34795977988392" lon="12.925860848518827"><ele>315.0</ele><time>2026-05-01T09:37:30Z</time></trkpt><trkpt lat="43.347995421109324" lon="12.925770147476355"><ele>314.7142857142857</ele><time>2026-05-01T09:37:31Z</time></trkpt><trkpt lat="43.34803519354598" lon="12.925692217269322"><ele>314.42857142857144</ele><time>2026-05-01T09:37:32Z</time></trkpt><trkpt lat="43.34807813666232" lon="12.925620658090827"><ele>314.1428571428571</ele><time>2026-05-01T09:37:33Z</time></trkpt><trkpt lat="43.348123615491524" lon="12.925542816615947"><ele>313.8571428571429</ele><time>2026-05-01T09:37:34Z</time></trkpt><trkpt lat="43.34817178364797" lon="12.925462282053028"><ele>313.57142857142856</ele><time>2026-05-01T09:37:35Z</time></trkpt><trkpt lat="43.34821772024823" lon="12.925380774800074"><ele>313.2857142857143</ele><time>2026-05-01T09:37:36Z</time></trkpt><trkpt lat="43.348260680329815" lon="12.925304682768358"><ele>313.0</ele><time>2026-05-01T09:37:37Z</time></trkpt><trkpt lat="43.34833392903114" lon="12.925180191664996"><ele>311.4</ele><time>2026-05-01T09:37:39Z</time></trkpt><trkpt lat="43.34837807709559" lon="12.925107852031623"><ele>309.8</ele><time>2026-05-01T09:37:41Z</time></trkpt><trkpt lat="43.34845025429168" lon="12.925023117486258"><ele>308.2</ele><time>2026-05-01T09:37:43.998Z</time></trkpt><trkpt lat="43.3485193746629" lon="12.9249177405003"><ele>306.6</ele><time>2026-05-01T09:37:45.998Z</time></trkpt><trkpt lat="43.348582425788514" lon="12.924877534018787"><ele>305.0</ele><time>2026-05-01T09:37:46.999Z</time></trkpt><trkpt lat="43.34867146129705" lon="12.924751422906528"><ele>304.33333333333337</ele><time>2026-05-01T09:37:48.999Z</time></trkpt><trkpt lat="43.34872545403179" lon="12.924687588971318"><ele>303.6666666666667</ele><time>2026-05-01T09:37:49.999Z</time></trkpt><trkpt lat="43.34879364609881" lon="12.924629418686537"><ele>303.0</ele><time>2026-05-01T09:37:50.999Z</time></trkpt><trkpt lat="43.3488682843021" lon="12.924566008472814"><ele>302.3333333333333</ele><time>2026-05-01T09:37:51.999Z</time></trkpt><trkpt lat="43.34895550201299" lon="12.924498458506587"><ele>301.66666666666663</ele><time>2026-05-01T09:37:52.999Z</time></trkpt><trkpt lat="43.349048515421096" lon="12.924423189814767"><ele>301.0</ele><time>2026-05-01T09:37:53.999Z</time></trkpt><trkpt lat="43.34913832050668" lon="12.92433993929405"><ele>300.8</ele><time>2026-05-01T09:37:54.999Z</time></trkpt><trkpt lat="43.34922541239569" lon="12.924250923702346"><ele>300.6</ele><time>2026-05-01T09:37:55.999Z</time></trkpt><trkpt lat="43.34930095522446" lon="12.924156121802572"><ele>300.4</ele><time>2026-05-01T09:37:56.999Z</time></trkpt><trkpt lat="43.349399609417794" lon="12.924090893709032"><ele>300.2</ele><time>2026-05-01T09:37:57.999Z</time></trkpt><trkpt lat="43.34947551156528" lon="12.924008256833872"><ele>300.0</ele><time>2026-05-01T09:37:58.999Z</time></trkpt><trkpt lat="43.34955594140876" lon="12.923932135034022"><ele>299.8</ele><time>2026-05-01T09:37:59.999Z</time></trkpt><trkpt lat="43.349636312047856" lon="12.923862518564029"><ele>299.6</ele><time>2026-05-01T09:38:00.999Z</time></trkpt><trkpt lat="43.34971500055008" lon="12.923790269310437"><ele>299.4</ele><time>2026-05-01T09:38:01.999Z</time></trkpt><trkpt lat="43.34980025314781" lon="12.923735805027611"><ele>299.2</ele><time>2026-05-01T09:38:02.999Z</time></trkpt><trkpt lat="43.34987592238356" lon="12.923664788258755"><ele>299.0</ele><time>2026-05-01T09:38:03.999Z</time></trkpt><trkpt lat="43.34995561300956" lon="12.923589997542768"><ele>298.8</ele><time>2026-05-01T09:38:04.999Z</time></trkpt><trkpt lat="43.350035042503706" lon="12.923515190430962"><ele>298.59999999999997</ele><time>2026-05-01T09:38:05.999Z</time></trkpt><trkpt lat="43.35012067928589" lon="12.923434612581275"><ele>298.4</ele><time>2026-05-01T09:38:06.999Z</time></trkpt><trkpt lat="43.350203209655106" lon="12.92335695761217"><ele>298.2</ele><time>2026-05-01T09:38:07.999Z</time></trkpt><trkpt lat="43.35027632825146" lon="12.923265772302877"><ele>298.0</ele><time>2026-05-01T09:38:08.999Z</time></trkpt><trkpt lat="43.35035554613954" lon="12.923191252583289"><ele>298.0</ele><time>2026-05-01T09:38:09.999Z</time></trkpt><trkpt lat="43.35042829077503" lon="12.923122133647173"><ele>298.0</ele><time>2026-05-01T09:38:10.999Z</time></trkpt><trkpt lat="43.35049280345587" lon="12.923065377425829"><ele>298.0</ele><time>2026-05-01T09:38:11.999Z</time></trkpt><trkpt lat="43.35055137597586" lon="12.923018406767625"><ele>298.0</ele><time>2026-05-01T09:38:12.999Z</time></trkpt><trkpt lat="43.35061216451336" lon="12.92297068782495"><ele>298.0</ele><time>2026-05-01T09:38:13.999Z</time></trkpt><trkpt lat="43.350674136430435" lon="12.922920532235144"><ele>298.0</ele><time>2026-05-01T09:38:14.999Z</time></trkpt><trkpt lat="43.350733862172774" lon="12.922866980641006"><ele>298.0</ele><time>2026-05-01T09:38:15.999Z</time></trkpt><trkpt lat="43.350794182365306" lon="12.92281106328777"><ele>298.0</ele><time>2026-05-01T09:38:16.999Z</time></trkpt><trkpt lat="43.35085037368754" lon="12.922757963895672"><ele>298.0</ele><time>2026-05-01T09:38:17.999Z</time></trkpt><trkpt lat="43.35092120735842" lon="12.922698671149963"><ele>298.0</ele><time>2026-05-01T09:38:20Z</time></trkpt><trkpt lat="43.35098587064398" lon="12.922676937619581"><ele>298.0</ele><time>2026-05-01T09:38:23Z</time></trkpt><trkpt lat="43.35104909518921" lon="12.922636162374893"><ele>298.0</ele><time>2026-05-01T09:38:25Z</time></trkpt><trkpt lat="43.35109685171706" lon="12.922551393032775"><ele>298.0</ele><time>2026-05-01T09:38:27Z</time></trkpt><trkpt lat="43.351150583856345" lon="12.922454554129269"><ele>298.0</ele><time>2026-05-01T09:38:29Z</time></trkpt><trkpt lat="43.351242757434754" lon="12.922359360883712"><ele>298.0</ele><time>2026-05-01T09:38:31Z</time></trkpt><trkpt lat="43.351296740678485" lon="12.922304381283157"><ele>298.0</ele><time>2026-05-01T09:38:32Z</time></trkpt><trkpt lat="43.351359404596714" lon="12.922241816881746"><ele>298.0</ele><time>2026-05-01T09:38:33Z</time></trkpt><trkpt lat="43.35142320318831" lon="12.922171510098732"><ele>298.0</ele><time>2026-05-01T09:38:34Z</time></trkpt><trkpt lat="43.35149729954723" lon="12.922109130503696"><ele>298.0</ele><time>2026-05-01T09:38:35Z</time></trkpt><trkpt lat="43.35158749064731" lon="12.92204717345374"><ele>298.0</ele><time>2026-05-01T09:38:36Z</time></trkpt><trkpt lat="43.35167754376722" lon="12.921984735968731"><ele>298.0</ele><time>2026-05-01T09:38:37Z</time></trkpt><trkpt lat="43.3517653526681" lon="12.921916231028149"><ele>298.0</ele><time>2026-05-01T09:38:38Z</time></trkpt><trkpt lat="43.35184406437454" lon="12.9218524029288"><ele>298.0</ele><time>2026-05-01T09:38:39Z</time></trkpt><trkpt lat="43.35191238251372" lon="12.921766896863428"><ele>298.0</ele><time>2026-05-01T09:38:40Z</time></trkpt><trkpt lat="43.35199569196492" lon="12.921709174271022"><ele>296.4</ele><time>2026-05-01T09:38:41Z</time></trkpt><trkpt lat="43.35204994151961" lon="12.921577720580874"><ele>294.8</ele><time>2026-05-01T09:38:42Z</time></trkpt><trkpt lat="43.35210992473936" lon="12.921454109710345"><ele>293.2</ele><time>2026-05-01T09:38:43Z</time></trkpt><trkpt lat="43.35216263937437" lon="12.92132502632701"><ele>291.6</ele><time>2026-05-01T09:38:44Z</time></trkpt><trkpt lat="43.35221118510967" lon="12.921199272874746"><ele>290.0</ele><time>2026-05-01T09:38:45Z</time></trkpt><trkpt lat="43.352274977313634" lon="12.921108878320712"><ele>288.83333333333337</ele><time>2026-05-01T09:38:46Z</time></trkpt><trkpt lat="43.35232928013145" lon="12.921012242847405"><ele>287.6666666666667</ele><time>2026-05-01T09:38:47Z</time></trkpt><trkpt lat="43.35238295711902" lon="12.920925186124"><ele>286.5</ele><time>2026-05-01T09:38:48Z</time></trkpt><trkpt lat="43.35243934914392" lon="12.92083443553583"><ele>285.3333333333333</ele><time>2026-05-01T09:38:49Z</time></trkpt><trkpt lat="43.352495661060445" lon="12.920744266768777"><ele>284.16666666666663</ele><time>2026-05-01T09:38:50Z</time></trkpt><trkpt lat="43.35255017766777" lon="12.92065697310981"><ele>283.0</ele><time>2026-05-01T09:38:51Z</time></trkpt><trkpt lat="43.35260405090379" lon="12.920568565457245"><ele>283.0</ele><time>2026-05-01T09:38:52Z</time></trkpt><trkpt lat="43.35265569711119" lon="12.920491094298036"><ele>283.0</ele><time>2026-05-01T09:38:53Z</time></trkpt><trkpt lat="43.352705283430566" lon="12.92041744488132"><ele>283.0</ele><time>2026-05-01T09:38:54Z</time></trkpt><trkpt lat="43.35274413286839" lon="12.920340647970297"><ele>283.0</ele><time>2026-05-01T09:38:55Z</time></trkpt><trkpt lat="43.35281192225767" lon="12.92020021438752"><ele>283.0</ele><time>2026-05-01T09:38:57Z</time></trkpt><trkpt lat="43.35279044210027" lon="12.920086553844577"><ele>283.0</ele><time>2026-05-01T09:38:58Z</time></trkpt><trkpt lat="43.352707677168794" lon="12.92000939502833"><ele>283.16666666666663</ele><time>2026-05-01T09:38:59Z</time></trkpt><trkpt lat="43.35265182717545" lon="12.9199414039826"><ele>283.3333333333333</ele><time>2026-05-01T09:39:00Z</time></trkpt><trkpt lat="43.35258000550385" lon="12.919880322172311"><ele>283.5</ele><time>2026-05-01T09:39:01Z</time></trkpt><trkpt lat="43.35250738338681" lon="12.919824638835243"><ele>283.6666666666667</ele><time>2026-05-01T09:39:02Z</time></trkpt><trkpt lat="43.352440493043574" lon="12.919764659505793"><ele>283.83333333333337</ele><time>2026-05-01T09:39:03Z</time></trkpt><trkpt lat="43.35237488643089" lon="12.91970326519249"><ele>284.0</ele><time>2026-05-01T09:39:04Z</time></trkpt><trkpt lat="43.352306775838215" lon="12.919640795471613"><ele>284.0</ele><time>2026-05-01T09:39:05Z</time></trkpt><trkpt lat="43.35224207322244" lon="12.919563668465"><ele>284.0</ele><time>2026-05-01T09:39:06Z</time></trkpt><trkpt lat="43.35218022095939" lon="12.9194772517153"><ele>284.0</ele><time>2026-05-01T09:39:07Z</time></trkpt><trkpt lat="43.35211617322277" lon="12.919388119795475"><ele>284.0</ele><time>2026-05-01T09:39:08Z</time></trkpt><trkpt lat="43.35204611635432" lon="12.919294935765743"><ele>284.0</ele><time>2026-05-01T09:39:09Z</time></trkpt><trkpt lat="43.35197699828426" lon="12.919191127369691"><ele>284.75</ele><time>2026-05-01T09:39:10Z</time></trkpt><trkpt lat="43.35190590541337" lon="12.919084566636714"><ele>285.5</ele><time>2026-05-01T09:39:11Z</time></trkpt><trkpt lat="43.3518377582171" lon="12.918968609473557"><ele>286.25</ele><time>2026-05-01T09:39:12Z</time></trkpt><trkpt lat="43.35176775038547" lon="12.91883607826337"><ele>287.0</ele><time>2026-05-01T09:39:13Z</time></trkpt><trkpt lat="43.351687677914846" lon="12.918708792250149"><ele>287.0</ele><time>2026-05-01T09:39:14Z</time></trkpt><trkpt lat="43.351604424562844" lon="12.918575639175474"><ele>287.0</ele><time>2026-05-01T09:39:15Z</time></trkpt><trkpt lat="43.351525849284464" lon="12.918429404860012"><ele>287.0</ele><time>2026-05-01T09:39:16Z</time></trkpt><trkpt lat="43.35145789799474" lon="12.918267204850714"><ele>287.0</ele><time>2026-05-01T09:39:17Z</time></trkpt><trkpt lat="43.3514111130246" lon="12.918085391247375"><ele>287.0</ele><time>2026-05-01T09:39:18Z</time></trkpt><trkpt lat="43.35138424010395" lon="12.917891005102955"><ele>287.0</ele><time>2026-05-01T09:39:19Z</time></trkpt><trkpt lat="43.351366274670546" lon="12.917698944647753"><ele>287.0</ele><time>2026-05-01T09:39:20Z</time></trkpt><trkpt lat="43.351342524364824" lon="12.91751570595634"><ele>287.0</ele><time>2026-05-01T09:39:21Z</time></trkpt><trkpt lat="43.3513103069521" lon="12.917340472639413"><ele>287.0</ele><time>2026-05-01T09:39:22Z</time></trkpt><trkpt lat="43.35127323657678" lon="12.917154087243555"><ele>287.0</ele><time>2026-05-01T09:39:23Z</time></trkpt><trkpt lat="43.35120566391626" lon="12.916982922342786"><ele>287.0</ele><time>2026-05-01T09:39:24Z</time></trkpt><trkpt lat="43.3511268308802" lon="12.91683225660039"><ele>287.0</ele><time>2026-05-01T09:39:25Z</time></trkpt><trkpt lat="43.35102240097189" lon="12.916695281814432"><ele>289.0</ele><time>2026-05-01T09:39:26Z</time></trkpt><trkpt lat="43.35089779398703" lon="12.916572000892039"><ele>291.0</ele><time>2026-05-01T09:39:27Z</time></trkpt><trkpt lat="43.35083468751179" lon="12.91643661308465"><ele>293.0</ele><time>2026-05-01T09:39:29Z</time></trkpt><trkpt lat="43.35074120499221" lon="12.916337986881596"><ele>295.0</ele><time>2026-05-01T09:39:30Z</time></trkpt><trkpt lat="43.35065241935621" lon="12.916231998398237"><ele>295.0</ele><time>2026-05-01T09:39:31Z</time></trkpt><trkpt lat="43.35056130235097" lon="12.916117803475984"><ele>295.0</ele><time>2026-05-01T09:39:32Z</time></trkpt><trkpt lat="43.35047135391047" lon="12.915998098762232"><ele>295.0</ele><time>2026-05-01T09:39:33Z</time></trkpt><trkpt lat="43.350383145157075" lon="12.915872749252177"><ele>295.0</ele><time>2026-05-01T09:39:34Z</time></trkpt><trkpt lat="43.3502929399241" lon="12.91574306816845"><ele>296.25</ele><time>2026-05-01T09:39:35Z</time></trkpt><trkpt lat="43.350201452890694" lon="12.915612953138387"><ele>297.5</ele><time>2026-05-01T09:39:36Z</time></trkpt><trkpt lat="43.3501132416962" lon="12.915480506946926"><ele>298.75</ele><time>2026-05-01T09:39:37Z</time></trkpt><trkpt lat="43.350026814366736" lon="12.915345738133675"><ele>300.0</ele><time>2026-05-01T09:39:38Z</time></trkpt><trkpt lat="43.34994302822112" lon="12.915207876263858"><ele>300.5</ele><time>2026-05-01T09:39:39Z</time></trkpt><trkpt lat="43.34986316320879" lon="12.91506862041507"><ele>301.0</ele><time>2026-05-01T09:39:40Z</time></trkpt><trkpt lat="43.34978009008464" lon="12.91493109224859"><ele>301.5</ele><time>2026-05-01T09:39:41.001Z</time></trkpt><trkpt lat="43.34970104986643" lon="12.914795941809531"><ele>302.0</ele><time>2026-05-01T09:39:42.001Z</time></trkpt><trkpt lat="43.349622976222435" lon="12.914665803119458"><ele>301.75</ele><time>2026-05-01T09:39:43.001Z</time></trkpt><trkpt lat="43.34955390127042" lon="12.914526665439963"><ele>301.5</ele><time>2026-05-01T09:39:44.001Z</time></trkpt><trkpt lat="43.34948576849853" lon="12.914386062435995"><ele>301.25</ele><time>2026-05-01T09:39:45.001Z</time></trkpt><trkpt lat="43.34942527784242" lon="12.914230093350774"><ele>301.0</ele><time>2026-05-01T09:39:46.001Z</time></trkpt><trkpt lat="43.34937120146821" lon="12.914074599691205"><ele>301.0</ele><time>2026-05-01T09:39:47.001Z</time></trkpt><trkpt lat="43.34931855549404" lon="12.913907845364113"><ele>301.0</ele><time>2026-05-01T09:39:47.998Z</time></trkpt><trkpt lat="43.349266528447394" lon="12.913745743442123"><ele>301.0</ele><time>2026-05-01T09:39:48.998Z</time></trkpt><trkpt lat="43.3492263161722" lon="12.913579776343488"><ele>301.0</ele><time>2026-05-01T09:39:49.998Z</time></trkpt><trkpt lat="43.349184439251815" lon="12.913422925149135"><ele>301.5</ele><time>2026-05-01T09:39:50.998Z</time></trkpt><trkpt lat="43.349147798408616" lon="12.913263722818707"><ele>302.0</ele><time>2026-05-01T09:39:51.998Z</time></trkpt><trkpt lat="43.349131553912244" lon="12.913100337938738"><ele>302.5</ele><time>2026-05-01T09:39:52.998Z</time></trkpt><trkpt lat="43.34912745628966" lon="12.912928084881402"><ele>303.0</ele><time>2026-05-01T09:39:53.999Z</time></trkpt><trkpt lat="43.349135040034675" lon="12.912753953917663"><ele>303.0</ele><time>2026-05-01T09:39:54.999Z</time></trkpt><trkpt lat="43.3491477083159" lon="12.912573795679004"><ele>303.0</ele><time>2026-05-01T09:39:55.999Z</time></trkpt><trkpt lat="43.34916591167045" lon="12.912404325119612"><ele>303.0</ele><time>2026-05-01T09:39:56.999Z</time></trkpt><trkpt lat="43.349183332460186" lon="12.912237316611662"><ele>303.0</ele><time>2026-05-01T09:39:57.999Z</time></trkpt><trkpt lat="43.34920420625486" lon="12.912087310695696"><ele>303.0</ele><time>2026-05-01T09:39:58.999Z</time></trkpt><trkpt lat="43.34922074919261" lon="12.911950448133892"><ele>303.0</ele><time>2026-05-01T09:39:59.999Z</time></trkpt><trkpt lat="43.34923556116141" lon="12.911828610378311"><ele>303.0</ele><time>2026-05-01T09:40:00.999Z</time></trkpt><trkpt lat="43.3492446696963" lon="12.911715711131798"><ele>303.0</ele><time>2026-05-01T09:40:01.999Z</time></trkpt><trkpt lat="43.34924936694968" lon="12.91160396937107"><ele>303.0</ele><time>2026-05-01T09:40:02.999Z</time></trkpt><trkpt lat="43.34925709521109" lon="12.911493656057086"><ele>303.0</ele><time>2026-05-01T09:40:03.999Z</time></trkpt><trkpt lat="43.34927346991263" lon="12.911380626624087"><ele>303.0</ele><time>2026-05-01T09:40:04.999Z</time></trkpt><trkpt lat="43.34927566326297" lon="12.911257292035305"><ele>303.0</ele><time>2026-05-01T09:40:05.999Z</time></trkpt><trkpt lat="43.34932547956601" lon="12.911132297512179"><ele>303.0</ele><time>2026-05-01T09:40:06.999Z</time></trkpt><trkpt lat="43.34936230623192" lon="12.910996931537984"><ele>303.0</ele><time>2026-05-01T09:40:07.999Z</time></trkpt><trkpt lat="43.3494078273223" lon="12.910860539930873"><ele>303.0</ele><time>2026-05-01T09:40:08.999Z</time></trkpt><trkpt lat="43.34945608081067" lon="12.910728556188102"><ele>303.4</ele><time>2026-05-01T09:40:09.999Z</time></trkpt><trkpt lat="43.34951233134917" lon="12.910601163201063"><ele>303.8</ele><time>2026-05-01T09:40:10.999Z</time></trkpt><trkpt lat="43.34958280373659" lon="12.910490023477362"><ele>304.2</ele><time>2026-05-01T09:40:11.999Z</time></trkpt><trkpt lat="43.34965942005854" lon="12.910387180531405"><ele>304.6</ele><time>2026-05-01T09:40:12.999Z</time></trkpt><trkpt lat="43.34974108207808" lon="12.910288368706643"><ele>305.0</ele><time>2026-05-01T09:40:13.999Z</time></trkpt><trkpt lat="43.349828099480526" lon="12.910190219085306"><ele>305.75</ele><time>2026-05-01T09:40:14.999Z</time></trkpt><trkpt lat="43.349913869317646" lon="12.910096766024068"><ele>306.5</ele><time>2026-05-01T09:40:15.999Z</time></trkpt><trkpt lat="43.35000519537008" lon="12.909998940870635"><ele>307.25</ele><time>2026-05-01T09:40:16.999Z</time></trkpt><trkpt lat="43.35009432846491" lon="12.909892572193963"><ele>308.0</ele><time>2026-05-01T09:40:17.999Z</time></trkpt><trkpt lat="43.350190898445746" lon="12.909793526170665"><ele>308.0</ele><time>2026-05-01T09:40:18.999Z</time></trkpt><trkpt lat="43.35029173838832" lon="12.909692190863668"><ele>308.0</ele><time>2026-05-01T09:40:19.999Z</time></trkpt><trkpt lat="43.35039464927246" lon="12.909593645455338"><ele>308.0</ele><time>2026-05-01T09:40:21Z</time></trkpt><trkpt lat="43.350501774682755" lon="12.909488391106159"><ele>308.0</ele><time>2026-05-01T09:40:22Z</time></trkpt><trkpt lat="43.35062052539955" lon="12.909353640326882"><ele>307.5</ele><time>2026-05-01T09:40:23Z</time></trkpt><trkpt lat="43.350704012727356" lon="12.909213663249908"><ele>307.0</ele><time>2026-05-01T09:40:24Z</time></trkpt><trkpt lat="43.350788602530024" lon="12.909088490555815"><ele>306.5</ele><time>2026-05-01T09:40:25Z</time></trkpt><trkpt lat="43.350865944774114" lon="12.908969663999985"><ele>306.0</ele><time>2026-05-01T09:40:26Z</time></trkpt><trkpt lat="43.35092725807962" lon="12.908846849680499"><ele>306.0</ele><time>2026-05-01T09:40:27Z</time></trkpt><trkpt lat="43.35097863221886" lon="12.908723169083443"><ele>306.0</ele><time>2026-05-01T09:40:28Z</time></trkpt><trkpt lat="43.35101397668296" lon="12.908600874936432"><ele>306.0</ele><time>2026-05-01T09:40:29Z</time></trkpt><trkpt lat="43.35105386544416" lon="12.908490833533492"><ele>306.0</ele><time>2026-05-01T09:40:30Z</time></trkpt><trkpt lat="43.35108897295462" lon="12.908387340154558"><ele>306.0</ele><time>2026-05-01T09:40:31Z</time></trkpt><trkpt lat="43.35113178263453" lon="12.908299465353924"><ele>306.0</ele><time>2026-05-01T09:40:32Z</time></trkpt><trkpt lat="43.351179415379185" lon="12.908221057394247"><ele>305.8333333333333</ele><time>2026-05-01T09:40:33Z</time></trkpt><trkpt lat="43.35122208426641" lon="12.908136150700553"><ele>305.6666666666667</ele><time>2026-05-01T09:40:34Z</time></trkpt><trkpt lat="43.351245858143486" lon="12.908033148570764"><ele>305.5</ele><time>2026-05-01T09:40:35Z</time></trkpt><trkpt lat="43.35124456646174" lon="12.907921693101933"><ele>305.33333333333337</ele><time>2026-05-01T09:40:36Z</time></trkpt><trkpt lat="43.35122750884312" lon="12.907795479440635"><ele>305.1666666666667</ele><time>2026-05-01T09:40:37Z</time></trkpt><trkpt lat="43.3511919716533" lon="12.907661364344351"><ele>305.0</ele><time>2026-05-01T09:40:38Z</time></trkpt><trkpt lat="43.351142762685804" lon="12.907540297237754"><ele>305.0</ele><time>2026-05-01T09:40:39Z</time></trkpt><trkpt lat="43.35107759385921" lon="12.907391852675943"><ele>305.0</ele><time>2026-05-01T09:40:40Z</time></trkpt><trkpt lat="43.35100960979513" lon="12.907259089500803"><ele>305.0</ele><time>2026-05-01T09:40:41Z</time></trkpt><trkpt lat="43.350940469462856" lon="12.907125229661812"><ele>305.0</ele><time>2026-05-01T09:40:42Z</time></trkpt><trkpt lat="43.350869086570974" lon="12.906982736258893"><ele>305.0</ele><time>2026-05-01T09:40:43Z</time></trkpt><trkpt lat="43.350798278098296" lon="12.906834363041648"><ele>305.0</ele><time>2026-05-01T09:40:44Z</time></trkpt><trkpt lat="43.350721419121825" lon="12.906690665724046"><ele>305.0</ele><time>2026-05-01T09:40:45Z</time></trkpt><trkpt lat="43.35063738624162" lon="12.906551821289753"><ele>305.0</ele><time>2026-05-01T09:40:46Z</time></trkpt><trkpt lat="43.35052651158444" lon="12.906443294784188"><ele>305.75</ele><time>2026-05-01T09:40:47Z</time></trkpt><trkpt lat="43.35041633435335" lon="12.906316672316088"><ele>306.5</ele><time>2026-05-01T09:40:48Z</time></trkpt><trkpt lat="43.350300131847554" lon="12.90620647019183"><ele>307.25</ele><time>2026-05-01T09:40:49Z</time></trkpt><trkpt lat="43.35018458865357" lon="12.906076335864777"><ele>308.0</ele><time>2026-05-01T09:40:50Z</time></trkpt><trkpt lat="43.35005951759139" lon="12.905967557691802"><ele>308.25</ele><time>2026-05-01T09:40:51Z</time></trkpt><trkpt lat="43.3499344461791" lon="12.905860064319722"><ele>308.5</ele><time>2026-05-01T09:40:52Z</time></trkpt><trkpt lat="43.34981280582508" lon="12.90575589091157"><ele>308.75</ele><time>2026-05-01T09:40:53Z</time></trkpt><trkpt lat="43.3496936088154" lon="12.905654948467694"><ele>309.0</ele><time>2026-05-01T09:40:54Z</time></trkpt><trkpt lat="43.349580054228895" lon="12.905552405097142"><ele>309.25</ele><time>2026-05-01T09:40:55Z</time></trkpt><trkpt lat="43.34947125156341" lon="12.905447497874192"><ele>309.5</ele><time>2026-05-01T09:40:56Z</time></trkpt><trkpt lat="43.349373157578974" lon="12.905350243207332"><ele>309.75</ele><time>2026-05-01T09:40:57Z</time></trkpt><trkpt lat="43.349278425124226" lon="12.905268576714992"><ele>310.0</ele><time>2026-05-01T09:40:58Z</time></trkpt><trkpt lat="43.34919246111881" lon="12.905198656738884"><ele>310.0</ele><time>2026-05-01T09:40:59Z</time></trkpt><trkpt lat="43.34911834736708" lon="12.90515339671482"><ele>310.0</ele><time>2026-05-01T09:41:00Z</time></trkpt><trkpt lat="43.3490429866057" lon="12.905139609370348"><ele>310.0</ele><time>2026-05-01T09:41:01Z</time></trkpt><trkpt lat="43.34891247392092" lon="12.905223222234259"><ele>310.0</ele><time>2026-05-01T09:41:03Z</time></trkpt><trkpt lat="43.34887730410673" lon="12.90531206877658"><ele>310.0</ele><time>2026-05-01T09:41:04Z</time></trkpt><trkpt lat="43.34882791825274" lon="12.905414021821398"><ele>310.0</ele><time>2026-05-01T09:41:05Z</time></trkpt><trkpt lat="43.348776101257215" lon="12.905529194822686"><ele>310.0</ele><time>2026-05-01T09:41:06Z</time></trkpt><trkpt lat="43.3487168005056" lon="12.905663878868307"><ele>310.0</ele><time>2026-05-01T09:41:07Z</time></trkpt><trkpt lat="43.34865357352915" lon="12.905804485771903"><ele>310.0</ele><time>2026-05-01T09:41:08Z</time></trkpt><trkpt lat="43.348583974811746" lon="12.90594939439375"><ele>310.4</ele><time>2026-05-01T09:41:09Z</time></trkpt><trkpt lat="43.34851364442317" lon="12.90608063256515"><ele>310.8</ele><time>2026-05-01T09:41:10Z</time></trkpt><trkpt lat="43.348454844799875" lon="12.906203260586189"><ele>311.2</ele><time>2026-05-01T09:41:11Z</time></trkpt><trkpt lat="43.34840790429753" lon="12.906315214833329"><ele>311.6</ele><time>2026-05-01T09:41:12Z</time></trkpt><trkpt lat="43.348368439899495" lon="12.906410907420597"><ele>312.0</ele><time>2026-05-01T09:41:13Z</time></trkpt><trkpt lat="43.34834721772336" lon="12.906508945251232"><ele>312.0</ele><time>2026-05-01T09:41:14Z</time></trkpt><trkpt lat="43.348350283791206" lon="12.906599547928234"><ele>312.0</ele><time>2026-05-01T09:41:15Z</time></trkpt><trkpt lat="43.34837230460075" lon="12.906683807210591"><ele>312.0</ele><time>2026-05-01T09:41:16Z</time></trkpt><trkpt lat="43.34841341600232" lon="12.906760633761925"><ele>312.0</ele><time>2026-05-01T09:41:17Z</time></trkpt><trkpt lat="43.348460259289794" lon="12.906850379408306"><ele>312.0</ele><time>2026-05-01T09:41:18.001Z</time></trkpt><trkpt lat="43.34853787045837" lon="12.90694458926469"><ele>312.0</ele><time>2026-05-01T09:41:19.001Z</time></trkpt><trkpt lat="43.34863010152813" lon="12.906997350078456"><ele>312.75</ele><time>2026-05-01T09:41:20.001Z</time></trkpt><trkpt lat="43.34872483438214" lon="12.907081606820016"><ele>313.5</ele><time>2026-05-01T09:41:21.001Z</time></trkpt><trkpt lat="43.34881832498911" lon="12.907169122240155"><ele>314.25</ele><time>2026-05-01T09:41:22.001Z</time></trkpt><trkpt lat="43.348916965882516" lon="12.907250961153567"><ele>315.0</ele><time>2026-05-01T09:41:23.001Z</time></trkpt><trkpt lat="43.349012155568026" lon="12.907329686127056"><ele>313.25</ele><time>2026-05-01T09:41:24.001Z</time></trkpt><trkpt lat="43.34910922426463" lon="12.907410768614588"><ele>311.5</ele><time>2026-05-01T09:41:25.001Z</time></trkpt><trkpt lat="43.34921757478822" lon="12.907477201654185"><ele>309.75</ele><time>2026-05-01T09:41:26.001Z</time></trkpt><trkpt lat="43.34934008044287" lon="12.907522824666913"><ele>308.0</ele><time>2026-05-01T09:41:27.001Z</time></trkpt><trkpt lat="43.349470222774514" lon="12.907561093637279"><ele>308.75</ele><time>2026-05-01T09:41:28.001Z</time></trkpt><trkpt lat="43.34960563339292" lon="12.907599854362307"><ele>309.5</ele><time>2026-05-01T09:41:29.001Z</time></trkpt><trkpt lat="43.349750610446726" lon="12.907645887935908"><ele>310.25</ele><time>2026-05-01T09:41:30.001Z</time></trkpt><trkpt lat="43.34989732837479" lon="12.907688125736948"><ele>311.0</ele><time>2026-05-01T09:41:31.001Z</time></trkpt><trkpt lat="43.35003489680061" lon="12.907722854598273"><ele>309.5</ele><time>2026-05-01T09:41:32.001Z</time></trkpt><trkpt lat="43.35016873343729" lon="12.907754445156604"><ele>308.0</ele><time>2026-05-01T09:41:33.001Z</time></trkpt><trkpt lat="43.35029748514625" lon="12.907786040746968"><ele>306.5</ele><time>2026-05-01T09:41:34.001Z</time></trkpt><trkpt lat="43.350415631076906" lon="12.907823725449877"><ele>305.0</ele><time>2026-05-01T09:41:35.001Z</time></trkpt><trkpt lat="43.35052803253595" lon="12.907860830942782"><ele>305.0</ele><time>2026-05-01T09:41:36.001Z</time></trkpt><trkpt lat="43.35063238038022" lon="12.907884138366132"><ele>305.0</ele><time>2026-05-01T09:41:37.001Z</time></trkpt><trkpt lat="43.350729054376735" lon="12.907914886400285"><ele>305.0</ele><time>2026-05-01T09:41:38.001Z</time></trkpt><trkpt lat="43.350830242642076" lon="12.907946357631735"><ele>305.0</ele><time>2026-05-01T09:41:39.001Z</time></trkpt><trkpt lat="43.35091560835803" lon="12.90799831900095"><ele>305.0</ele><time>2026-05-01T09:41:40.001Z</time></trkpt><trkpt lat="43.35098940926883" lon="12.908059278477428"><ele>305.0</ele><time>2026-05-01T09:41:41.001Z</time></trkpt><trkpt lat="43.351051758992774" lon="12.908117445490017"><ele>305.0</ele><time>2026-05-01T09:41:42.001Z</time></trkpt><trkpt lat="43.35112286085392" lon="12.90815957536057"><ele>305.0</ele><time>2026-05-01T09:41:43.001Z</time></trkpt><trkpt lat="43.35120629708124" lon="12.908161586905386"><ele>305.0</ele><time>2026-05-01T09:41:44.001Z</time></trkpt><trkpt lat="43.351295904988895" lon="12.908168190575925"><ele>305.0</ele><time>2026-05-01T09:41:45.001Z</time></trkpt><trkpt lat="43.351397125337044" lon="12.9081204249387"><ele>305.0</ele><time>2026-05-01T09:41:46.001Z</time></trkpt><trkpt lat="43.35150534571235" lon="12.908153877095316"><ele>303.75</ele><time>2026-05-01T09:41:47.001Z</time></trkpt><trkpt lat="43.35162632499857" lon="12.908167607516088"><ele>302.5</ele><time>2026-05-01T09:41:48.001Z</time></trkpt><trkpt lat="43.35175116696979" lon="12.908210042960796"><ele>301.25</ele><time>2026-05-01T09:41:49.001Z</time></trkpt><trkpt lat="43.351883907073834" lon="12.908245481396966"><ele>300.0</ele><time>2026-05-01T09:41:50.001Z</time></trkpt><trkpt lat="43.3520226263619" lon="12.908286861880418"><ele>300.0</ele><time>2026-05-01T09:41:51.001Z</time></trkpt><trkpt lat="43.352169099937825" lon="12.908335712257028"><ele>300.0</ele><time>2026-05-01T09:41:52.001Z</time></trkpt><trkpt lat="43.35231475111359" lon="12.908376566555102"><ele>300.0</ele><time>2026-05-01T09:41:53.001Z</time></trkpt><trkpt lat="43.35245892029784" lon="12.908410033398718"><ele>300.0</ele><time>2026-05-01T09:41:53.999Z</time></trkpt><trkpt lat="43.352604272226145" lon="12.908440425350625"><ele>299.25</ele><time>2026-05-01T09:41:54.999Z</time></trkpt><trkpt lat="43.35274160627577" lon="12.90846343272307"><ele>298.5</ele><time>2026-05-01T09:41:55.999Z</time></trkpt><trkpt lat="43.35287262914003" lon="12.908475430152015"><ele>297.75</ele><time>2026-05-01T09:41:56.999Z</time></trkpt><trkpt lat="43.35300575413829" lon="12.908479483612362"><ele>297.0</ele><time>2026-05-01T09:41:57.999Z</time></trkpt><trkpt lat="43.35313220862718" lon="12.908447939234545"><ele>296.5</ele><time>2026-05-01T09:41:58.999Z</time></trkpt><trkpt lat="43.35324910335093" lon="12.908382952693245"><ele>296.0</ele><time>2026-05-01T09:41:59.999Z</time></trkpt><trkpt lat="43.35337744287841" lon="12.908321614872262"><ele>295.5</ele><time>2026-05-01T09:42:00.999Z</time></trkpt><trkpt lat="43.353491382865045" lon="12.90824189278941"><ele>295.0</ele><time>2026-05-01T09:42:01.999Z</time></trkpt><trkpt lat="43.35360485040533" lon="12.908158666571634"><ele>295.0</ele><time>2026-05-01T09:42:02.999Z</time></trkpt><trkpt lat="43.35371077256976" lon="12.908048412151587"><ele>295.0</ele><time>2026-05-01T09:42:03.999Z</time></trkpt><trkpt lat="43.35382164874338" lon="12.907963086208948"><ele>295.0</ele><time>2026-05-01T09:42:04.999Z</time></trkpt><trkpt lat="43.353929886201854" lon="12.907875377175516"><ele>295.0</ele><time>2026-05-01T09:42:05.999Z</time></trkpt><trkpt lat="43.354037406069395" lon="12.907789910004574"><ele>296.0</ele><time>2026-05-01T09:42:06.999Z</time></trkpt><trkpt lat="43.35414228571173" lon="12.907708138654035"><ele>297.0</ele><time>2026-05-01T09:42:07.999Z</time></trkpt><trkpt lat="43.35424729245306" lon="12.90763389533771"><ele>298.0</ele><time>2026-05-01T09:42:08.999Z</time></trkpt><trkpt lat="43.354350700060756" lon="12.907568185746754"><ele>299.0</ele><time>2026-05-01T09:42:09.999Z</time></trkpt><trkpt lat="43.35445269677632" lon="12.90750459654447"><ele>299.2</ele><time>2026-05-01T09:42:10.999Z</time></trkpt><trkpt lat="43.354552383997394" lon="12.907443233291364"><ele>299.4</ele><time>2026-05-01T09:42:11.999Z</time></trkpt><trkpt lat="43.3546570315415" lon="12.907402964046716"><ele>299.6</ele><time>2026-05-01T09:42:12.999Z</time></trkpt><trkpt lat="43.354756196130104" lon="12.907346387566237"><ele>299.8</ele><time>2026-05-01T09:42:14Z</time></trkpt><trkpt lat="43.35485489569446" lon="12.907277518138677"><ele>300.0</ele><time>2026-05-01T09:42:15Z</time></trkpt><trkpt lat="43.354949279567776" lon="12.907225865475219"><ele>300.2</ele><time>2026-05-01T09:42:16Z</time></trkpt><trkpt lat="43.35504797207847" lon="12.907175256597414"><ele>300.4</ele><time>2026-05-01T09:42:17Z</time></trkpt><trkpt lat="43.35514384359293" lon="12.907130134764087"><ele>300.6</ele><time>2026-05-01T09:42:18Z</time></trkpt><trkpt lat="43.35524553112638" lon="12.907092167129008"><ele>300.8</ele><time>2026-05-01T09:42:19Z</time></trkpt><trkpt lat="43.355342521481475" lon="12.907062460181352"><ele>301.0</ele><time>2026-05-01T09:42:20Z</time></trkpt><trkpt lat="43.355441536422916" lon="12.907045499766125"><ele>301.0</ele><time>2026-05-01T09:42:21Z</time></trkpt><trkpt lat="43.35552993079815" lon="12.907023825162291"><ele>301.0</ele><time>2026-05-01T09:42:22Z</time></trkpt><trkpt lat="43.35560842015318" lon="12.90700460110411"><ele>301.0</ele><time>2026-05-01T09:42:23Z</time></trkpt><trkpt lat="43.35567768329202" lon="12.907022760301702"><ele>301.0</ele><time>2026-05-01T09:42:24Z</time></trkpt><trkpt lat="43.355756547348165" lon="12.907018560438335"><ele>301.0</ele><time>2026-05-01T09:42:25Z</time></trkpt><trkpt lat="43.35585046177532" lon="12.907014820345525"><ele>301.0</ele><time>2026-05-01T09:42:26Z</time></trkpt><trkpt lat="43.35596727427057" lon="12.907010587356195"><ele>301.0</ele><time>2026-05-01T09:42:27Z</time></trkpt><trkpt lat="43.35610879168763" lon="12.907006804397707"><ele>301.0</ele><time>2026-05-01T09:42:28Z</time></trkpt><trkpt lat="43.35626279563875" lon="12.906991321018241"><ele>301.0</ele><time>2026-05-01T09:42:29Z</time></trkpt><trkpt lat="43.35641599683468" lon="12.906995982277449"><ele>301.0</ele><time>2026-05-01T09:42:30Z</time></trkpt><trkpt lat="43.356582125953054" lon="12.907000826328213"><ele>301.3333333333333</ele><time>2026-05-01T09:42:31Z</time></trkpt><trkpt lat="43.35676130489207" lon="12.907033212873412"><ele>301.6666666666667</ele><time>2026-05-01T09:42:32Z</time></trkpt><trkpt lat="43.35692944232423" lon="12.90707347071261"><ele>302.0</ele><time>2026-05-01T09:42:33Z</time></trkpt><trkpt lat="43.35709796763204" lon="12.90713421426913"><ele>303.0</ele><time>2026-05-01T09:42:34Z</time></trkpt><trkpt lat="43.3572761948467" lon="12.907214418563123"><ele>304.0</ele><time>2026-05-01T09:42:35Z</time></trkpt><trkpt lat="43.35744728741056" lon="12.907273383669608"><ele>305.0</ele><time>2026-05-01T09:42:36Z</time></trkpt><trkpt lat="43.357609257335106" lon="12.907354737797252"><ele>305.0</ele><time>2026-05-01T09:42:37Z</time></trkpt><trkpt lat="43.35776458546733" lon="12.907428297030144"><ele>305.0</ele><time>2026-05-01T09:42:38Z</time></trkpt><trkpt lat="43.3579240540065" lon="12.907469431068211"><ele>305.0</ele><time>2026-05-01T09:42:39Z</time></trkpt><trkpt lat="43.358085502719355" lon="12.907503454518285"><ele>305.33333333333337</ele><time>2026-05-01T09:42:40Z</time></trkpt><trkpt lat="43.35825014617235" lon="12.907528902678848"><ele>305.6666666666667</ele><time>2026-05-01T09:42:41Z</time></trkpt><trkpt lat="43.35841845554027" lon="12.907557236638693"><ele>306.0</ele><time>2026-05-01T09:42:42Z</time></trkpt><trkpt lat="43.358593942253414" lon="12.907586010115585"><ele>306.3333333333333</ele><time>2026-05-01T09:42:43Z</time></trkpt><trkpt lat="43.358775722070256" lon="12.907612666959862"><ele>306.66666666666663</ele><time>2026-05-01T09:42:44Z</time></trkpt><trkpt lat="43.35896211417601" lon="12.907639062606897"><ele>307.0</ele><time>2026-05-01T09:42:45Z</time></trkpt><trkpt lat="43.35914243615301" lon="12.907688980516323"><ele>309.3333333333333</ele><time>2026-05-01T09:42:46Z</time></trkpt><trkpt lat="43.359320956209956" lon="12.907714871454514"><ele>311.6666666666667</ele><time>2026-05-01T09:42:47Z</time></trkpt><trkpt lat="43.35949029830985" lon="12.907737171860523"><ele>314.0</ele><time>2026-05-01T09:42:48Z</time></trkpt><trkpt lat="43.35965080544699" lon="12.907738885722845"><ele>314.5</ele><time>2026-05-01T09:42:49Z</time></trkpt><trkpt lat="43.359799313174925" lon="12.90777235219804"><ele>315.0</ele><time>2026-05-01T09:42:50Z</time></trkpt><trkpt lat="43.359933086195504" lon="12.907833249349482"><ele>315.5</ele><time>2026-05-01T09:42:51Z</time></trkpt><trkpt lat="43.36003535678679" lon="12.90796477322419"><ele>316.0</ele><time>2026-05-01T09:42:52Z</time></trkpt><trkpt lat="43.36013887548711" lon="12.908104825476533"><ele>316.0</ele><time>2026-05-01T09:42:53Z</time></trkpt><trkpt lat="43.360203376266135" lon="12.908312281054275"><ele>316.0</ele><time>2026-05-01T09:42:54Z</time></trkpt><trkpt lat="43.36029214016469" lon="12.908523882227321"><ele>316.0</ele><time>2026-05-01T09:42:55Z</time></trkpt><trkpt lat="43.36037898612103" lon="12.908769969394157"><ele>316.3333333333333</ele><time>2026-05-01T09:42:56Z</time></trkpt><trkpt lat="43.36046580002468" lon="12.909006725115626"><ele>316.6666666666667</ele><time>2026-05-01T09:42:57Z</time></trkpt><trkpt lat="43.36057023746586" lon="12.909226595095443"><ele>317.0</ele><time>2026-05-01T09:42:58.001Z</time></trkpt><trkpt lat="43.36069885241777" lon="12.90942672950977"><ele>318.6666666666667</ele><time>2026-05-01T09:42:59.001Z</time></trkpt><trkpt lat="43.36085514878436" lon="12.909609295205401"><ele>320.3333333333333</ele><time>2026-05-01T09:43:00.001Z</time></trkpt><trkpt lat="43.361030222267935" lon="12.909790965606442"><ele>322.0</ele><time>2026-05-01T09:43:01.001Z</time></trkpt><trkpt lat="43.36121543595196" lon="12.90998738746871"><ele>323.5</ele><time>2026-05-01T09:43:02.001Z</time></trkpt><trkpt lat="43.36139487112869" lon="12.910191859325328"><ele>325.0</ele><time>2026-05-01T09:43:03.001Z</time></trkpt><trkpt lat="43.36157134281919" lon="12.910405066667611"><ele>325.0</ele><time>2026-05-01T09:43:04.001Z</time></trkpt><trkpt lat="43.361745008222414" lon="12.910609874015917"><ele>325.0</ele><time>2026-05-01T09:43:05.001Z</time></trkpt><trkpt lat="43.3619237581936" lon="12.910816265510855"><ele>324.5</ele><time>2026-05-01T09:43:06.001Z</time></trkpt><trkpt lat="43.3621027710006" lon="12.911007477050788"><ele>324.0</ele><time>2026-05-01T09:43:07.001Z</time></trkpt><trkpt lat="43.36228275830977" lon="12.91120948356997"><ele>323.0</ele><time>2026-05-01T09:43:08.001Z</time></trkpt><trkpt lat="43.36246132773246" lon="12.911413897560758"><ele>322.0</ele><time>2026-05-01T09:43:09.001Z</time></trkpt><trkpt lat="43.36264368381977" lon="12.911615736235502"><ele>325.5</ele><time>2026-05-01T09:43:10.001Z</time></trkpt><trkpt lat="43.36282378657596" lon="12.91181702094886"><ele>329.0</ele><time>2026-05-01T09:43:11.001Z</time></trkpt><trkpt lat="43.363002437951" lon="12.91201560504455"><ele>329.6666666666667</ele><time>2026-05-01T09:43:12.001Z</time></trkpt><trkpt lat="43.363176020522054" lon="12.912222310755286"><ele>330.3333333333333</ele><time>2026-05-01T09:43:13.001Z</time></trkpt><trkpt lat="43.363328949565535" lon="12.912419508613494"><ele>331.0</ele><time>2026-05-01T09:43:14.001Z</time></trkpt><trkpt lat="43.36351709564884" lon="12.912575617551902"><ele>331.0</ele><time>2026-05-01T09:43:15.001Z</time></trkpt><trkpt lat="43.363692607348916" lon="12.912734475836244"><ele>331.0</ele><time>2026-05-01T09:43:16.001Z</time></trkpt><trkpt lat="43.363864463804696" lon="12.912896199858892"><ele>331.0</ele><time>2026-05-01T09:43:17.001Z</time></trkpt><trkpt lat="43.36403470142379" lon="12.913044829653046"><ele>331.3333333333333</ele><time>2026-05-01T09:43:18.001Z</time></trkpt><trkpt lat="43.36421296320025" lon="12.913171242212558"><ele>331.6666666666667</ele><time>2026-05-01T09:43:19.001Z</time></trkpt><trkpt lat="43.3644087180933" lon="12.913265094355223"><ele>332.0</ele><time>2026-05-01T09:43:20.001Z</time></trkpt><trkpt lat="43.36461664652421" lon="12.9133239939378"><ele>332.5</ele><time>2026-05-01T09:43:21.001Z</time></trkpt><trkpt lat="43.364842296953945" lon="12.913359220625031"><ele>333.0</ele><time>2026-05-01T09:43:22.001Z</time></trkpt><trkpt lat="43.365073728661436" lon="12.913420478705708"><ele>333.0</ele><time>2026-05-01T09:43:23.001Z</time></trkpt><trkpt lat="43.36529107925456" lon="12.913472839351781"><ele>333.0</ele><time>2026-05-01T09:43:24.001Z</time></trkpt><trkpt lat="43.3654996253604" lon="12.913510932197042"><ele>333.0</ele><time>2026-05-01T09:43:25.001Z</time></trkpt><trkpt lat="43.365691227000774" lon="12.913554213846124"><ele>335.6666666666667</ele><time>2026-05-01T09:43:26.001Z</time></trkpt><trkpt lat="43.36585186822872" lon="12.913661176225798"><ele>338.33333333333337</ele><time>2026-05-01T09:43:27.001Z</time></trkpt><trkpt lat="43.36597680375349" lon="12.913791699696677"><ele>341.0</ele><time>2026-05-01T09:43:28.001Z</time></trkpt><trkpt lat="43.36610372395222" lon="12.91393802960515"><ele>341.0</ele><time>2026-05-01T09:43:29.001Z</time></trkpt><trkpt lat="43.366249659481966" lon="12.914083334479562"><ele>341.0</ele><time>2026-05-01T09:43:30.001Z</time></trkpt><trkpt lat="43.36638548929714" lon="12.914252285237396"><ele>341.0</ele><time>2026-05-01T09:43:31.001Z</time></trkpt><trkpt lat="43.36653022169354" lon="12.91441521018231"><ele>344.0</ele><time>2026-05-01T09:43:32.001Z</time></trkpt><trkpt lat="43.36667790083694" lon="12.914581539685702"><ele>347.0</ele><time>2026-05-01T09:43:33.001Z</time></trkpt><trkpt lat="43.366823764720436" lon="12.914769835189812"><ele>350.0</ele><time>2026-05-01T09:43:34.001Z</time></trkpt><trkpt lat="43.36696849201776" lon="12.914931387141749"><ele>347.6666666666667</ele><time>2026-05-01T09:43:35.001Z</time></trkpt><trkpt lat="43.367114198779284" lon="12.91509590131751"><ele>345.3333333333333</ele><time>2026-05-01T09:43:36.001Z</time></trkpt><trkpt lat="43.367273891622894" lon="12.915240665540837"><ele>343.0</ele><time>2026-05-01T09:43:37.001Z</time></trkpt><trkpt lat="43.3674538445855" lon="12.915352601106294"><ele>348.0</ele><time>2026-05-01T09:43:38.001Z</time></trkpt><trkpt lat="43.36764102252903" lon="12.915440032237072"><ele>353.0</ele><time>2026-05-01T09:43:39.001Z</time></trkpt><trkpt lat="43.36778983381548" lon="12.91559687390592"><ele>358.0</ele><time>2026-05-01T09:43:40.001Z</time></trkpt><trkpt lat="43.3679169150404" lon="12.915769995641309"><ele>355.0</ele><time>2026-05-01T09:43:41.001Z</time></trkpt><trkpt lat="43.36802159972079" lon="12.91596679285829"><ele>352.0</ele><time>2026-05-01T09:43:42.001Z</time></trkpt><trkpt lat="43.368094408934304" lon="12.916193093656757"><ele>349.0</ele><time>2026-05-01T09:43:43.001Z</time></trkpt><trkpt lat="43.36816716024951" lon="12.916399079580868"><ele>351.75</ele><time>2026-05-01T09:43:44.001Z</time></trkpt><trkpt lat="43.3682205283381" lon="12.916593906096132"><ele>354.5</ele><time>2026-05-01T09:43:45.001Z</time></trkpt><trkpt lat="43.36828249523641" lon="12.916748567375532"><ele>357.25</ele><time>2026-05-01T09:43:46.001Z</time></trkpt><trkpt lat="43.36837306141161" lon="12.916861164968209"><ele>360.0</ele><time>2026-05-01T09:43:47.001Z</time></trkpt><trkpt lat="43.36849495617026" lon="12.916901756563062"><ele>360.0</ele><time>2026-05-01T09:43:48.001Z</time></trkpt><trkpt lat="43.36863484184415" lon="12.916902472076082"><ele>360.0</ele><time>2026-05-01T09:43:49.001Z</time></trkpt><trkpt lat="43.36877867251967" lon="12.916857526821902"><ele>360.0</ele><time>2026-05-01T09:43:50.001Z</time></trkpt><trkpt lat="43.36892258099392" lon="12.916788419173752"><ele>360.0</ele><time>2026-05-01T09:43:51.001Z</time></trkpt><trkpt lat="43.36906814096157" lon="12.916693920795181"><ele>365.6666666666667</ele><time>2026-05-01T09:43:52.001Z</time></trkpt><trkpt lat="43.369227068384376" lon="12.91657835240886"><ele>371.33333333333337</ele><time>2026-05-01T09:43:53.001Z</time></trkpt><trkpt lat="43.36939206595676" lon="12.9164786551226"><ele>377.0</ele><time>2026-05-01T09:43:54.001Z</time></trkpt><trkpt lat="43.369564186300885" lon="12.916424753059273"><ele>378.6666666666667</ele><time>2026-05-01T09:43:55.001Z</time></trkpt><trkpt lat="43.369748104973844" lon="12.91639791814412"><ele>380.3333333333333</ele><time>2026-05-01T09:43:56.002Z</time></trkpt><trkpt lat="43.36993686331888" lon="12.916401525599003"><ele>382.0</ele><time>2026-05-01T09:43:57.002Z</time></trkpt><trkpt lat="43.3701312563439" lon="12.91643088763497"><ele>382.0</ele><time>2026-05-01T09:43:58.002Z</time></trkpt><trkpt lat="43.370323354671484" lon="12.916502576064376"><ele>382.0</ele><time>2026-05-01T09:43:59.002Z</time></trkpt><trkpt lat="43.37048164183321" lon="12.916541712721717"><ele>382.0</ele><time>2026-05-01T09:44:00Z</time></trkpt><trkpt lat="43.370645970262764" lon="12.91655373368485"><ele>383.0</ele><time>2026-05-01T09:44:01Z</time></trkpt><trkpt lat="43.37081803123028" lon="12.916524810687942"><ele>384.0</ele><time>2026-05-01T09:44:02Z</time></trkpt><trkpt lat="43.37100165045462" lon="12.916431011164942"><ele>385.0</ele><time>2026-05-01T09:44:03Z</time></trkpt><trkpt lat="43.37118100795269" lon="12.916322494074143"><ele>385.0</ele><time>2026-05-01T09:44:04Z</time></trkpt><trkpt lat="43.37134066231414" lon="12.916218895223913"><ele>385.0</ele><time>2026-05-01T09:44:05Z</time></trkpt><trkpt lat="43.371483050408" lon="12.916113464427601"><ele>385.0</ele><time>2026-05-01T09:44:06Z</time></trkpt><trkpt lat="43.37163121497504" lon="12.916032810282243"><ele>387.6666666666667</ele><time>2026-05-01T09:44:07Z</time></trkpt><trkpt lat="43.37177990422265" lon="12.915981334337454"><ele>390.33333333333337</ele><time>2026-05-01T09:44:08Z</time></trkpt><trkpt lat="43.37193305926953" lon="12.916005350909902"><ele>393.0</ele><time>2026-05-01T09:44:09Z</time></trkpt><trkpt lat="43.372081933338706" lon="12.916046480327635"><ele>396.25</ele><time>2026-05-01T09:44:10Z</time></trkpt><trkpt lat="43.37223309225108" lon="12.916110594339006"><ele>399.5</ele><time>2026-05-01T09:44:11Z</time></trkpt><trkpt lat="43.372366993990546" lon="12.91616702700086"><ele>402.75</ele><time>2026-05-01T09:44:12Z</time></trkpt><trkpt lat="43.37247892157961" lon="12.916253738405295"><ele>406.0</ele><time>2026-05-01T09:44:13Z</time></trkpt><trkpt lat="43.372569148919425" lon="12.9163481841741"><ele>406.0</ele><time>2026-05-01T09:44:14Z</time></trkpt><trkpt lat="43.37264039732447" lon="12.916442568144362"><ele>406.0</ele><time>2026-05-01T09:44:15Z</time></trkpt><trkpt lat="43.372694957149754" lon="12.916553485057731"><ele>406.0</ele><time>2026-05-01T09:44:16Z</time></trkpt><trkpt lat="43.37268813975271" lon="12.91667828792626"><ele>406.0</ele><time>2026-05-01T09:44:17Z</time></trkpt><trkpt lat="43.37268753496942" lon="12.916792562090974"><ele>406.0</ele><time>2026-05-01T09:44:18Z</time></trkpt><trkpt lat="43.37261946671751" lon="12.916903392387248"><ele>407.75</ele><time>2026-05-01T09:44:19Z</time></trkpt><trkpt lat="43.37251187060619" lon="12.916964891091716"><ele>409.5</ele><time>2026-05-01T09:44:20Z</time></trkpt><trkpt lat="43.37240517858664" lon="12.917050975958349"><ele>411.25</ele><time>2026-05-01T09:44:21Z</time></trkpt><trkpt lat="43.37229748646784" lon="12.91710714607246"><ele>413.0</ele><time>2026-05-01T09:44:22Z</time></trkpt><trkpt lat="43.37220450328245" lon="12.917179435375196"><ele>412.59999999999997</ele><time>2026-05-01T09:44:23Z</time></trkpt><trkpt lat="43.37214564786234" lon="12.917254848639661"><ele>412.2</ele><time>2026-05-01T09:44:24Z</time></trkpt><trkpt lat="43.37211262621398" lon="12.917354359096139"><ele>411.8</ele><time>2026-05-01T09:44:25Z</time></trkpt><trkpt lat="43.37211994619285" lon="12.917474727366212"><ele>411.4</ele><time>2026-05-01T09:44:26Z</time></trkpt><trkpt lat="43.37218371779721" lon="12.917580546379108"><ele>411.0</ele><time>2026-05-01T09:44:27Z</time></trkpt><trkpt lat="43.372274539848355" lon="12.917666211594316"><ele>411.0</ele><time>2026-05-01T09:44:28Z</time></trkpt><trkpt lat="43.372387418599" lon="12.917731853272256"><ele>411.0</ele><time>2026-05-01T09:44:29Z</time></trkpt><trkpt lat="43.37249628851126" lon="12.917809766179417"><ele>411.0</ele><time>2026-05-01T09:44:30Z</time></trkpt><trkpt lat="43.372551310388666" lon="12.917946274915398"><ele>411.0</ele><time>2026-05-01T09:44:31Z</time></trkpt><trkpt lat="43.37258369016" lon="12.918085554209236"><ele>411.0</ele><time>2026-05-01T09:44:32Z</time></trkpt><trkpt lat="43.3726400932577" lon="12.918232402083483"><ele>411.0</ele><time>2026-05-01T09:44:33Z</time></trkpt><trkpt lat="43.372696391652966" lon="12.918397027194638"><ele>411.0</ele><time>2026-05-01T09:44:34Z</time></trkpt><trkpt lat="43.37277210091869" lon="12.918542027116127"><ele>411.0</ele><time>2026-05-01T09:44:35Z</time></trkpt><trkpt lat="43.37285525970021" lon="12.91868474484867"><ele>409.75</ele><time>2026-05-01T09:44:36Z</time></trkpt><trkpt lat="43.37294172450738" lon="12.918829840890016"><ele>408.5</ele><time>2026-05-01T09:44:37Z</time></trkpt><trkpt lat="43.37303215627435" lon="12.91896908364018"><ele>407.25</ele><time>2026-05-01T09:44:38Z</time></trkpt><trkpt lat="43.373131482941616" lon="12.919096823908019"><ele>406.0</ele><time>2026-05-01T09:44:39.001Z</time></trkpt><trkpt lat="43.37324482991778" lon="12.919197679685773"><ele>409.25</ele><time>2026-05-01T09:44:40.001Z</time></trkpt><trkpt lat="43.37336772315337" lon="12.919301022341095"><ele>412.5</ele><time>2026-05-01T09:44:41.001Z</time></trkpt><trkpt lat="43.37348994434196" lon="12.919395948688507"><ele>415.75</ele><time>2026-05-01T09:44:42.001Z</time></trkpt><trkpt lat="43.37362379591295" lon="12.919488089567151"><ele>419.0</ele><time>2026-05-01T09:44:43.001Z</time></trkpt><trkpt lat="43.373764787839086" lon="12.919578762430051"><ele>421.0</ele><time>2026-05-01T09:44:44.001Z</time></trkpt><trkpt lat="43.37389258202588" lon="12.919669844779625"><ele>423.0</ele><time>2026-05-01T09:44:45.001Z</time></trkpt><trkpt lat="43.37401448590949" lon="12.919746410998249"><ele>425.0</ele><time>2026-05-01T09:44:46.001Z</time></trkpt><trkpt lat="43.374133008775964" lon="12.919831892226208"><ele>427.0</ele><time>2026-05-01T09:44:47.001Z</time></trkpt><trkpt lat="43.374248425994814" lon="12.919934675597725"><ele>427.0</ele><time>2026-05-01T09:44:48.001Z</time></trkpt><trkpt lat="43.37435858173753" lon="12.920060367987432"><ele>427.0</ele><time>2026-05-01T09:44:49.001Z</time></trkpt><trkpt lat="43.37445874034133" lon="12.920193009114874"><ele>427.0</ele><time>2026-05-01T09:44:50.001Z</time></trkpt><trkpt lat="43.37453628645501" lon="12.920341142195076"><ele>427.0</ele><time>2026-05-01T09:44:51.001Z</time></trkpt><trkpt lat="43.374610065269636" lon="12.920491515398897"><ele>427.8</ele><time>2026-05-01T09:44:52.001Z</time></trkpt><trkpt lat="43.37468093960744" lon="12.92063408171987"><ele>428.6</ele><time>2026-05-01T09:44:53.001Z</time></trkpt><trkpt lat="43.37473912625172" lon="12.920756514034741"><ele>429.40000000000003</ele><time>2026-05-01T09:44:54.001Z</time></trkpt><trkpt lat="43.37479210069244" lon="12.920864329273696"><ele>430.20000000000005</ele><time>2026-05-01T09:44:55.001Z</time></trkpt><trkpt lat="43.37484403092078" lon="12.920952221503466"><ele>431.0</ele><time>2026-05-01T09:44:56.001Z</time></trkpt><trkpt lat="43.374907513159336" lon="12.92101607117646"><ele>432.6</ele><time>2026-05-01T09:44:57.001Z</time></trkpt><trkpt lat="43.374988178239406" lon="12.92104884312479"><ele>434.20000000000005</ele><time>2026-05-01T09:44:58.001Z</time></trkpt><trkpt lat="43.37508981648721" lon="12.921042620616465"><ele>435.79999999999995</ele><time>2026-05-01T09:44:59.001Z</time></trkpt><trkpt lat="43.375199014466645" lon="12.921016768143222"><ele>437.4</ele><time>2026-05-01T09:45:00.001Z</time></trkpt><trkpt lat="43.37532590855525" lon="12.92098210279135"><ele>439.0</ele><time>2026-05-01T09:45:01.001Z</time></trkpt><trkpt lat="43.37546505245276" lon="12.92094140505608"><ele>434.6666666666667</ele><time>2026-05-01T09:45:02.001Z</time></trkpt><trkpt lat="43.37561861112499" lon="12.920901240022374"><ele>430.33333333333337</ele><time>2026-05-01T09:45:03.001Z</time></trkpt><trkpt lat="43.37577944474188" lon="12.920853759434998"><ele>426.0</ele><time>2026-05-01T09:45:04.001Z</time></trkpt><trkpt lat="43.37593846530329" lon="12.920813162806786"><ele>426.0</ele><time>2026-05-01T09:45:05.001Z</time></trkpt><trkpt lat="43.376095446360175" lon="12.920784008748205"><ele>426.0</ele><time>2026-05-01T09:45:06.001Z</time></trkpt><trkpt lat="43.37624383577729" lon="12.920741375708525"><ele>426.0</ele><time>2026-05-01T09:45:07.001Z</time></trkpt><trkpt lat="43.37639116033151" lon="12.92068675432946"><ele>423.0</ele><time>2026-05-01T09:45:08.001Z</time></trkpt><trkpt lat="43.376540092083076" lon="12.920655274722382"><ele>420.0</ele><time>2026-05-01T09:45:09.001Z</time></trkpt><trkpt lat="43.37669074242312" lon="12.920649217124382"><ele>417.0</ele><time>2026-05-01T09:45:10.001Z</time></trkpt><trkpt lat="43.376828283099215" lon="12.920696601147151"><ele>414.0</ele><time>2026-05-01T09:45:11.001Z</time></trkpt><trkpt lat="43.3769680917141" lon="12.920752864577993"><ele>414.0</ele><time>2026-05-01T09:45:12.001Z</time></trkpt><trkpt lat="43.3771006545588" lon="12.920837962846624"><ele>414.0</ele><time>2026-05-01T09:45:13.001Z</time></trkpt><trkpt lat="43.37722658367108" lon="12.920906403522205"><ele>414.0</ele><time>2026-05-01T09:45:14.001Z</time></trkpt><trkpt lat="43.377355620991054" lon="12.920952069765143"><ele>414.0</ele><time>2026-05-01T09:45:15.001Z</time></trkpt><trkpt lat="43.37748530836422" lon="12.920965504181876"><ele>412.5</ele><time>2026-05-01T09:45:16.001Z</time></trkpt><trkpt lat="43.37762076709152" lon="12.920943371082807"><ele>411.0</ele><time>2026-05-01T09:45:17.001Z</time></trkpt><trkpt lat="43.37775619902253" lon="12.92090549189652"><ele>409.5</ele><time>2026-05-01T09:45:18.001Z</time></trkpt><trkpt lat="43.37788914154417" lon="12.92085033191009"><ele>408.0</ele><time>2026-05-01T09:45:19.001Z</time></trkpt><trkpt lat="43.37801562308872" lon="12.920769163394247"><ele>403.33333333333337</ele><time>2026-05-01T09:45:20.001Z</time></trkpt><trkpt lat="43.37814241633881" lon="12.9206698074643"><ele>398.6666666666667</ele><time>2026-05-01T09:45:21.001Z</time></trkpt><trkpt lat="43.37825175314896" lon="12.92052714904052"><ele>394.0</ele><time>2026-05-01T09:45:22.001Z</time></trkpt><trkpt lat="43.37845992789236" lon="12.920256850249181"><ele>394.0</ele><time>2026-05-01T09:45:24.001Z</time></trkpt><trkpt lat="43.37857775596334" lon="12.92017667605264"><ele>394.0</ele><time>2026-05-01T09:45:25.001Z</time></trkpt><trkpt lat="43.37871068335248" lon="12.920123666435575"><ele>394.0</ele><time>2026-05-01T09:45:26.001Z</time></trkpt><trkpt lat="43.378848281675936" lon="12.920091988080198"><ele>394.0</ele><time>2026-05-01T09:45:27.001Z</time></trkpt><trkpt lat="43.37897745554969" lon="12.920101388423705"><ele>392.2</ele><time>2026-05-01T09:45:28.001Z</time></trkpt><trkpt lat="43.37910534473217" lon="12.920097257874753"><ele>390.4</ele><time>2026-05-01T09:45:29.001Z</time></trkpt><trkpt lat="43.379222288596594" lon="12.920083846238306"><ele>388.6</ele><time>2026-05-01T09:45:30.001Z</time></trkpt><trkpt lat="43.3793169794336" lon="12.920059638919323"><ele>386.8</ele><time>2026-05-01T09:45:31.001Z</time></trkpt><trkpt lat="43.37938832653524" lon="12.92002978591305"><ele>385.0</ele><time>2026-05-01T09:45:32.001Z</time></trkpt><trkpt lat="43.379442823899886" lon="12.919979168344462"><ele>385.00000000000006</ele><time>2026-05-01T09:45:33.001Z</time></trkpt><trkpt lat="43.37948974987213" lon="12.919909738341751"><ele>385.0</ele><time>2026-05-01T09:45:34.002Z</time></trkpt><trkpt lat="43.37946064204389" lon="12.919799700582406"><ele>385.0</ele><time>2026-05-01T09:45:35.002Z</time></trkpt><trkpt lat="43.379420388652655" lon="12.919727498051339"><ele>385.0</ele><time>2026-05-01T09:45:36.002Z</time></trkpt><trkpt lat="43.3793493054193" lon="12.91961936483386"><ele>385.00000000000006</ele><time>2026-05-01T09:45:38.002Z</time></trkpt><trkpt lat="43.37940956969664" lon="12.919511474487516"><ele>385.0</ele><time>2026-05-01T09:45:40.002Z</time></trkpt><trkpt lat="43.37952947247836" lon="12.919589785502286"><ele>385.00000000000006</ele><time>2026-05-01T09:45:42.002Z</time></trkpt><trkpt lat="43.37959141357701" lon="12.919671158850873"><ele>385.0</ele><time>2026-05-01T09:45:43.002Z</time></trkpt><trkpt lat="43.37964335346225" lon="12.919778522077127"><ele>385.0</ele><time>2026-05-01T09:45:44.002Z</time></trkpt><trkpt lat="43.3797019124608" lon="12.919874161829032"><ele>385.0</ele><time>2026-05-01T09:45:45.002Z</time></trkpt><trkpt lat="43.379747804756704" lon="12.919963897749916"><ele>385.00000000000006</ele><time>2026-05-01T09:45:46.002Z</time></trkpt><trkpt lat="43.379732246037136" lon="12.920074988344478"><ele>385.0</ele><time>2026-05-01T09:45:47.002Z</time></trkpt><trkpt lat="43.37967063746726" lon="12.92017610755917"><ele>381.5</ele><time>2026-05-01T09:45:48.002Z</time></trkpt><trkpt lat="43.379574803593336" lon="12.920239157645796"><ele>378.0</ele><time>2026-05-01T09:45:49.002Z</time></trkpt><trkpt lat="43.37945439431026" lon="12.920288051488939"><ele>374.5</ele><time>2026-05-01T09:45:50.002Z</time></trkpt><trkpt lat="43.379332417664486" lon="12.92035767251526"><ele>371.0</ele><time>2026-05-01T09:45:51.002Z</time></trkpt><trkpt lat="43.37920904758593" lon="12.920440313324766"><ele>371.0</ele><time>2026-05-01T09:45:52.002Z</time></trkpt><trkpt lat="43.3790815031363" lon="12.9205356071916"><ele>371.0</ele><time>2026-05-01T09:45:53.002Z</time></trkpt><trkpt lat="43.37897703430359" lon="12.920668553116641"><ele>371.0</ele><time>2026-05-01T09:45:54.002Z</time></trkpt><trkpt lat="43.37888069940596" lon="12.920796795956305"><ele>371.0</ele><time>2026-05-01T09:45:55.002Z</time></trkpt><trkpt lat="43.37880211746384" lon="12.920915164004722"><ele>372.83333333333337</ele><time>2026-05-01T09:45:56.002Z</time></trkpt><trkpt lat="43.378744520231216" lon="12.921032976344856"><ele>374.6666666666667</ele><time>2026-05-01T09:45:57.002Z</time></trkpt><trkpt lat="43.37871418840777" lon="12.921168162646609"><ele>376.5</ele><time>2026-05-01T09:45:58.002Z</time></trkpt><trkpt lat="43.378709275405534" lon="12.921294275818013"><ele>378.3333333333333</ele><time>2026-05-01T09:45:59.002Z</time></trkpt><trkpt lat="43.378716122259476" lon="12.921397988609863"><ele>380.16666666666663</ele><time>2026-05-01T09:46:00.002Z</time></trkpt><trkpt lat="43.378734846125774" lon="12.921490103694689"><ele>382.0</ele><time>2026-05-01T09:46:01.002Z</time></trkpt><trkpt lat="43.37878213156453" lon="12.921555991751958"><ele>382.0</ele><time>2026-05-01T09:46:02.002Z</time></trkpt><trkpt lat="43.37884872974379" lon="12.9215877898276"><ele>382.0</ele><time>2026-05-01T09:46:03.002Z</time></trkpt><trkpt lat="43.378931287657466" lon="12.921582037458128"><ele>382.0</ele><time>2026-05-01T09:46:04.002Z</time></trkpt><trkpt lat="43.37900368716585" lon="12.9214896190283"><ele>382.0</ele><time>2026-05-01T09:46:05.002Z</time></trkpt><trkpt lat="43.379037991661825" lon="12.921346115194913"><ele>382.0</ele><time>2026-05-01T09:46:06.001Z</time></trkpt><trkpt lat="43.37905686191041" lon="12.921182111549511"><ele>379.25</ele><time>2026-05-01T09:46:07.001Z</time></trkpt><trkpt lat="43.37907515578672" lon="12.921038146599884"><ele>376.5</ele><time>2026-05-01T09:46:08.001Z</time></trkpt><trkpt lat="43.379150781335994" lon="12.920916318852116"><ele>373.75</ele><time>2026-05-01T09:46:09.001Z</time></trkpt><trkpt lat="43.37926072197022" lon="12.920822018754007"><ele>371.0</ele><time>2026-05-01T09:46:10.001Z</time></trkpt><trkpt lat="43.37941200704852" lon="12.92076293734992"><ele>371.0</ele><time>2026-05-01T09:46:11.001Z</time></trkpt><trkpt lat="43.37956156593833" lon="12.920711673866236"><ele>371.0</ele><time>2026-05-01T09:46:12.001Z</time></trkpt><trkpt lat="43.37972267800415" lon="12.920700693521022"><ele>371.0</ele><time>2026-05-01T09:46:13.001Z</time></trkpt><trkpt lat="43.379890414050855" lon="12.920667754510932"><ele>364.0</ele><time>2026-05-01T09:46:14.001Z</time></trkpt><trkpt lat="43.3800492641723" lon="12.920677717999935"><ele>357.0</ele><time>2026-05-01T09:46:15.001Z</time></trkpt><trkpt lat="43.38020239807865" lon="12.920707353293903"><ele>350.0</ele><time>2026-05-01T09:46:16.001Z</time></trkpt><trkpt lat="43.38035298082614" lon="12.920728376033974"><ele>350.0</ele><time>2026-05-01T09:46:17.001Z</time></trkpt><trkpt lat="43.380502157834876" lon="12.920753015123225"><ele>350.0</ele><time>2026-05-01T09:46:18.001Z</time></trkpt><trkpt lat="43.380646300835856" lon="12.92079464397381"><ele>350.0</ele><time>2026-05-01T09:46:19.001Z</time></trkpt><trkpt lat="43.38079167188658" lon="12.920830300625388"><ele>350.0</ele><time>2026-05-01T09:46:20.001Z</time></trkpt><trkpt lat="43.38093350106041" lon="12.920863548696"><ele>347.25</ele><time>2026-05-01T09:46:21.001Z</time></trkpt><trkpt lat="43.381073400203725" lon="12.920892759767566"><ele>344.5</ele><time>2026-05-01T09:46:22.001Z</time></trkpt><trkpt lat="43.38120654081112" lon="12.920927913134635"><ele>341.75</ele><time>2026-05-01T09:46:23.001Z</time></trkpt><trkpt lat="43.38133036211415" lon="12.920979765361132"><ele>339.0</ele><time>2026-05-01T09:46:24.001Z</time></trkpt><trkpt lat="43.381442798799974" lon="12.92106631778072"><ele>336.3333333333333</ele><time>2026-05-01T09:46:25.001Z</time></trkpt><trkpt lat="43.38152651498048" lon="12.921217174599049"><ele>333.66666666666663</ele><time>2026-05-01T09:46:26.001Z</time></trkpt><trkpt lat="43.381618862917925" lon="12.921402036850564"><ele>331.0</ele><time>2026-05-01T09:46:27.001Z</time></trkpt><trkpt lat="43.38172070089895" lon="12.921616340494028"><ele>328.3333333333333</ele><time>2026-05-01T09:46:28.001Z</time></trkpt><trkpt lat="43.38183391592229" lon="12.921856394347493"><ele>325.6666666666667</ele><time>2026-05-01T09:46:29.001Z</time></trkpt><trkpt lat="43.381960066273294" lon="12.92210480054783"><ele>323.0</ele><time>2026-05-01T09:46:30.001Z</time></trkpt><trkpt lat="43.38209222853134" lon="12.922338059872022"><ele>320.0</ele><time>2026-05-01T09:46:31.001Z</time></trkpt><trkpt lat="43.38223457194629" lon="12.922541924782452"><ele>317.0</ele><time>2026-05-01T09:46:32.001Z</time></trkpt><trkpt lat="43.382357382499684" lon="12.922753977106083"><ele>314.0</ele><time>2026-05-01T09:46:33.001Z</time></trkpt><trkpt lat="43.38246801468103" lon="12.922933574789823"><ele>314.0</ele><time>2026-05-01T09:46:34.001Z</time></trkpt><trkpt lat="43.38256278583727" lon="12.92308920336011"><ele>314.0</ele><time>2026-05-01T09:46:35.001Z</time></trkpt><trkpt lat="43.382664628295416" lon="12.923226601292917"><ele>314.0</ele><time>2026-05-01T09:46:36.001Z</time></trkpt><trkpt lat="43.3827939161818" lon="12.923312781728022"><ele>314.0</ele><time>2026-05-01T09:46:37.001Z</time></trkpt><trkpt lat="43.38296320972774" lon="12.923344385332236"><ele>316.0</ele><time>2026-05-01T09:46:38.001Z</time></trkpt><trkpt lat="43.383161732538696" lon="12.923360970151306"><ele>318.0</ele><time>2026-05-01T09:46:39.001Z</time></trkpt><trkpt lat="43.3833732514217" lon="12.923410384316556"><ele>320.0</ele><time>2026-05-01T09:46:40.001Z</time></trkpt><trkpt lat="43.383614856737715" lon="12.92345632337889"><ele>311.5</ele><time>2026-05-01T09:46:41.001Z</time></trkpt><trkpt lat="43.383860451695796" lon="12.923522022562674"><ele>303.0</ele><time>2026-05-01T09:46:42.001Z</time></trkpt><trkpt lat="43.38411043485849" lon="12.923572511553683"><ele>303.0</ele><time>2026-05-01T09:46:43.001Z</time></trkpt><trkpt lat="43.38436268980221" lon="12.92359732779579"><ele>303.0</ele><time>2026-05-01T09:46:44.001Z</time></trkpt><trkpt lat="43.38462438604936" lon="12.923577766697088"><ele>299.5</ele><time>2026-05-01T09:46:45.001Z</time></trkpt><trkpt lat="43.38489231415512" lon="12.923525018018093"><ele>296.0</ele><time>2026-05-01T09:46:46.001Z</time></trkpt><trkpt lat="43.38514268756662" lon="12.923547793927538"><ele>296.0</ele><time>2026-05-01T09:46:47.001Z</time></trkpt><trkpt lat="43.385392456987276" lon="12.923614682422006"><ele>296.0</ele><time>2026-05-01T09:46:48.001Z</time></trkpt><trkpt lat="43.38565022100928" lon="12.923705651188483"><ele>295.0</ele><time>2026-05-01T09:46:49.001Z</time></trkpt><trkpt lat="43.385911178661416" lon="12.923805499553998"><ele>294.0</ele><time>2026-05-01T09:46:50.001Z</time></trkpt><trkpt lat="43.38616902417152" lon="12.92389743717532"><ele>295.0</ele><time>2026-05-01T09:46:51.001Z</time></trkpt><trkpt lat="43.38640758050042" lon="12.92404236216668"><ele>296.0</ele><time>2026-05-01T09:46:52.001Z</time></trkpt><trkpt lat="43.38665367056912" lon="12.92417692111331"><ele>293.0</ele><time>2026-05-01T09:46:53.001Z</time></trkpt><trkpt lat="43.38689011590806" lon="12.92433448290175"><ele>290.0</ele><time>2026-05-01T09:46:54.001Z</time></trkpt><trkpt lat="43.387126289572315" lon="12.924485019156133"><ele>285.5</ele><time>2026-05-01T09:46:55.001Z</time></trkpt><trkpt lat="43.38735905669848" lon="12.924630737826803"><ele>281.0</ele><time>2026-05-01T09:46:56.001Z</time></trkpt><trkpt lat="43.38757514656296" lon="12.924792708560757"><ele>281.0</ele><time>2026-05-01T09:46:57.001Z</time></trkpt><trkpt lat="43.387772296911464" lon="12.924969488123958"><ele>281.0</ele><time>2026-05-01T09:46:58.001Z</time></trkpt><trkpt lat="43.387937340892115" lon="12.925194382723525"><ele>278.0</ele><time>2026-05-01T09:46:59.001Z</time></trkpt><trkpt lat="43.388112771312045" lon="12.925401616718881"><ele>275.0</ele><time>2026-05-01T09:47:00.001Z</time></trkpt><trkpt lat="43.388278060239294" lon="12.925614327954468"><ele>275.0</ele><time>2026-05-01T09:47:01.001Z</time></trkpt><trkpt lat="43.38843462623736" lon="12.92582073611567"><ele>275.0</ele><time>2026-05-01T09:47:02.001Z</time></trkpt><trkpt lat="43.388585928634946" lon="12.92601389608795"><ele>275.0</ele><time>2026-05-01T09:47:03.001Z</time></trkpt><trkpt lat="43.38872592126311" lon="12.926192915715923"><ele>275.0</ele><time>2026-05-01T09:47:04.001Z</time></trkpt><trkpt lat="43.38887194585473" lon="12.926369917612778"><ele>275.0</ele><time>2026-05-01T09:47:05.001Z</time></trkpt><trkpt lat="43.38902253404065" lon="12.926569051836328"><ele>275.0</ele><time>2026-05-01T09:47:06.001Z</time></trkpt><trkpt lat="43.38916265037278" lon="12.926755355660802"><ele>273.33333333333337</ele><time>2026-05-01T09:47:07.001Z</time></trkpt><trkpt lat="43.3893030835593" lon="12.9269487444559"><ele>271.6666666666667</ele><time>2026-05-01T09:47:08.001Z</time></trkpt><trkpt lat="43.389440648602005" lon="12.927151505219063"><ele>270.0</ele><time>2026-05-01T09:47:09.001Z</time></trkpt><trkpt lat="43.38957911945636" lon="12.927373358476851"><ele>270.6666666666667</ele><time>2026-05-01T09:47:10.001Z</time></trkpt><trkpt lat="43.38971302946702" lon="12.927602099020373"><ele>271.33333333333337</ele><time>2026-05-01T09:47:11.001Z</time></trkpt><trkpt lat="43.38984724026656" lon="12.92784513141283"><ele>272.0</ele><time>2026-05-01T09:47:12.001Z</time></trkpt><trkpt lat="43.38998479865118" lon="12.928087396924406"><ele>272.0</ele><time>2026-05-01T09:47:13.001Z</time></trkpt><trkpt lat="43.39011904291646" lon="12.928327301051802"><ele>272.0</ele><time>2026-05-01T09:47:14.001Z</time></trkpt><trkpt lat="43.39024821975508" lon="12.928556753477594"><ele>272.0</ele><time>2026-05-01T09:47:15.001Z</time></trkpt><trkpt lat="43.390368455477955" lon="12.928768729939753"><ele>272.6666666666667</ele><time>2026-05-01T09:47:16.001Z</time></trkpt><trkpt lat="43.390488842421824" lon="12.928985105109415"><ele>273.3333333333333</ele><time>2026-05-01T09:47:17.001Z</time></trkpt><trkpt lat="43.39060431770917" lon="12.929184204693463"><ele>274.0</ele><time>2026-05-01T09:47:18.001Z</time></trkpt><trkpt lat="43.39071716448199" lon="12.929364298634733"><ele>274.0</ele><time>2026-05-01T09:47:19.001Z</time></trkpt><trkpt lat="43.390817425226714" lon="12.929535681542504"><ele>274.0</ele><time>2026-05-01T09:47:20.001Z</time></trkpt><trkpt lat="43.390927664317466" lon="12.929683191910184"><ele>274.0</ele><time>2026-05-01T09:47:21.001Z</time></trkpt><trkpt lat="43.39106925397442" lon="12.929808086310677"><ele>274.0</ele><time>2026-05-01T09:47:22.001Z</time></trkpt><trkpt lat="43.391229634241256" lon="12.929910014055748"><ele>274.0</ele><time>2026-05-01T09:47:23.001Z</time></trkpt><trkpt lat="43.3914001275155" lon="12.930006797050108"><ele>274.0</ele><time>2026-05-01T09:47:24.001Z</time></trkpt><trkpt lat="43.391573939027936" lon="12.930118037648766"><ele>270.66666666666663</ele><time>2026-05-01T09:47:25.001Z</time></trkpt><trkpt lat="43.391741151742835" lon="12.930231912318632"><ele>267.3333333333333</ele><time>2026-05-01T09:47:26.001Z</time></trkpt><trkpt lat="43.39190645083273" lon="12.930346357311164"><ele>264.0</ele><time>2026-05-01T09:47:27.001Z</time></trkpt><trkpt lat="43.392067540798045" lon="12.930450155667664"><ele>264.0</ele><time>2026-05-01T09:47:28.001Z</time></trkpt><trkpt lat="43.39222427570485" lon="12.930539506425507"><ele>264.0</ele><time>2026-05-01T09:47:29.001Z</time></trkpt><trkpt lat="43.39238551546628" lon="12.930617250760701"><ele>264.0</ele><time>2026-05-01T09:47:30.001Z</time></trkpt><trkpt lat="43.39254860603045" lon="12.930674264848726"><ele>264.0</ele><time>2026-05-01T09:47:31.001Z</time></trkpt><trkpt lat="43.39270920484726" lon="12.930722885646246"><ele>264.0</ele><time>2026-05-01T09:47:32.001Z</time></trkpt><trkpt lat="43.39286654664327" lon="12.930761057196491"><ele>264.0</ele><time>2026-05-01T09:47:33.001Z</time></trkpt><trkpt lat="43.39301768669008" lon="12.930796222698959"><ele>264.0</ele><time>2026-05-01T09:47:34.001Z</time></trkpt><trkpt lat="43.393167236757904" lon="12.930832067457697"><ele>264.0</ele><time>2026-05-01T09:47:35.002Z</time></trkpt><trkpt lat="43.3933129641358" lon="12.93084265825826"><ele>264.0</ele><time>2026-05-01T09:47:36.002Z</time></trkpt><trkpt lat="43.39345807323686" lon="12.930840893926955"><ele>264.0</ele><time>2026-05-01T09:47:37.002Z</time></trkpt><trkpt lat="43.3936014562253" lon="12.930840544602646"><ele>264.0</ele><time>2026-05-01T09:47:38.002Z</time></trkpt><trkpt lat="43.39374244849184" lon="12.930835052488796"><ele>264.0</ele><time>2026-05-01T09:47:39.002Z</time></trkpt><trkpt lat="43.3938834089446" lon="12.930841498112681"><ele>264.0</ele><time>2026-05-01T09:47:40.002Z</time></trkpt><trkpt lat="43.39401830828723" lon="12.930861820221896"><ele>264.0</ele><time>2026-05-01T09:47:41.002Z</time></trkpt><trkpt lat="43.3941440955725" lon="12.930908818661498"><ele>261.0</ele><time>2026-05-01T09:47:42.002Z</time></trkpt><trkpt lat="43.394267951025256" lon="12.930996278309946"><ele>258.0</ele><time>2026-05-01T09:47:43.002Z</time></trkpt><trkpt lat="43.39438098354471" lon="12.931109318009325"><ele>255.0</ele><time>2026-05-01T09:47:44.002Z</time></trkpt><trkpt lat="43.39448708912913" lon="12.931240850166573"><ele>252.0</ele><time>2026-05-01T09:47:45.002Z</time></trkpt><trkpt lat="43.394564690491954" lon="12.931393515141867"><ele>252.0</ele><time>2026-05-01T09:47:46.002Z</time></trkpt><trkpt lat="43.39462857259872" lon="12.93156498537004"><ele>252.0</ele><time>2026-05-01T09:47:47.002Z</time></trkpt><trkpt lat="43.39468603510247" lon="12.931741550234007"><ele>252.0</ele><time>2026-05-01T09:47:48.002Z</time></trkpt><trkpt lat="43.39471715104802" lon="12.931913058479639"><ele>252.0</ele><time>2026-05-01T09:47:49.002Z</time></trkpt><trkpt lat="43.394776544766025" lon="12.932058381161665"><ele>252.75</ele><time>2026-05-01T09:47:50.002Z</time></trkpt><trkpt lat="43.39483411237362" lon="12.932191616990554"><ele>253.5</ele><time>2026-05-01T09:47:51.002Z</time></trkpt><trkpt lat="43.39490441575098" lon="12.93230692719051"><ele>254.25</ele><time>2026-05-01T09:47:52.002Z</time></trkpt><trkpt lat="43.39499232627426" lon="12.932406051341154"><ele>255.0</ele><time>2026-05-01T09:47:53.002Z</time></trkpt><trkpt lat="43.39510912721864" lon="12.93247441206231"><ele>255.0</ele><time>2026-05-01T09:47:54.002Z</time></trkpt><trkpt lat="43.3952354698699" lon="12.932539044052403"><ele>255.0</ele><time>2026-05-01T09:47:55.002Z</time></trkpt><trkpt lat="43.395365140079804" lon="12.93260961035932"><ele>255.0</ele><time>2026-05-01T09:47:56.002Z</time></trkpt><trkpt lat="43.3954975811364" lon="12.932675979927215"><ele>255.0</ele><time>2026-05-01T09:47:57.002Z</time></trkpt><trkpt lat="43.39562992372839" lon="12.932738756233716"><ele>256.25</ele><time>2026-05-01T09:47:58.002Z</time></trkpt><trkpt lat="43.3957672091828" lon="12.932799873637688"><ele>257.5</ele><time>2026-05-01T09:47:59.002Z</time></trkpt><trkpt lat="43.39590368277399" lon="12.932851247924797"><ele>258.75</ele><time>2026-05-01T09:48:00.002Z</time></trkpt><trkpt lat="43.39604412680922" lon="12.93289429770658"><ele>260.0</ele><time>2026-05-01T09:48:01.002Z</time></trkpt><trkpt lat="43.39617790938565" lon="12.932920909841524"><ele>260.0</ele><time>2026-05-01T09:48:02.002Z</time></trkpt><trkpt lat="43.3962999290417" lon="12.932939089370374"><ele>260.0</ele><time>2026-05-01T09:48:03.002Z</time></trkpt><trkpt lat="43.39641559376859" lon="12.9329648560346"><ele>260.0</ele><time>2026-05-01T09:48:04.002Z</time></trkpt><trkpt lat="43.396525396490524" lon="12.932986556132924"><ele>260.0</ele><time>2026-05-01T09:48:05.002Z</time></trkpt><trkpt lat="43.39662150661101" lon="12.93305291612531"><ele>260.25</ele><time>2026-05-01T09:48:06.002Z</time></trkpt><trkpt lat="43.396693445931916" lon="12.933166835901796"><ele>260.5</ele><time>2026-05-01T09:48:07.002Z</time></trkpt><trkpt lat="43.39673864635514" lon="12.933324464429209"><ele>260.75</ele><time>2026-05-01T09:48:08.002Z</time></trkpt><trkpt lat="43.396783776384474" lon="12.9334763844624"><ele>261.0</ele><time>2026-05-01T09:48:09.002Z</time></trkpt><trkpt lat="43.39684279792553" lon="12.933604197139163"><ele>261.0</ele><time>2026-05-01T09:48:10.002Z</time></trkpt><trkpt lat="43.39691810339649" lon="12.933689383599246"><ele>261.0</ele><time>2026-05-01T09:48:11.002Z</time></trkpt><trkpt lat="43.397013605001604" lon="12.933740821916695"><ele>261.0</ele><time>2026-05-01T09:48:12.001Z</time></trkpt><trkpt lat="43.39712813923165" lon="12.933758120845686"><ele>261.0</ele><time>2026-05-01T09:48:13.001Z</time></trkpt><trkpt lat="43.39725355541694" lon="12.933749869356449"><ele>261.0</ele><time>2026-05-01T09:48:14.001Z</time></trkpt><trkpt lat="43.39738286565237" lon="12.93373916353681"><ele>259.75</ele><time>2026-05-01T09:48:15.001Z</time></trkpt><trkpt lat="43.397515173395256" lon="12.933737995433516"><ele>258.5</ele><time>2026-05-01T09:48:16.001Z</time></trkpt><trkpt lat="43.39763624727801" lon="12.933743301151793"><ele>257.25</ele><time>2026-05-01T09:48:17.001Z</time></trkpt><trkpt lat="43.39775909566409" lon="12.93374455815744"><ele>256.0</ele><time>2026-05-01T09:48:18.001Z</time></trkpt><trkpt lat="43.397880411357754" lon="12.933757460406182"><ele>255.0</ele><time>2026-05-01T09:48:19.001Z</time></trkpt><trkpt lat="43.39800314706571" lon="12.93379304655076"><ele>254.0</ele><time>2026-05-01T09:48:20.001Z</time></trkpt><trkpt lat="43.3981313560369" lon="12.933851322009408"><ele>253.0</ele><time>2026-05-01T09:48:21.001Z</time></trkpt><trkpt lat="43.398247776671404" lon="12.93395963429696"><ele>252.0</ele><time>2026-05-01T09:48:22.001Z</time></trkpt><trkpt lat="43.39836212627842" lon="12.9340555757005"><ele>252.0</ele><time>2026-05-01T09:48:23.001Z</time></trkpt><trkpt lat="43.39848913525369" lon="12.934145485415707"><ele>252.0</ele><time>2026-05-01T09:48:24.001Z</time></trkpt><trkpt lat="43.39860780653725" lon="12.934242962941292"><ele>252.0</ele><time>2026-05-01T09:48:25.001Z</time></trkpt><trkpt lat="43.398733203760635" lon="12.934325839854512"><ele>252.0</ele><time>2026-05-01T09:48:26.001Z</time></trkpt><trkpt lat="43.398876639106525" lon="12.934384144255517"><ele>250.66666666666669</ele><time>2026-05-01T09:48:27.001Z</time></trkpt><trkpt lat="43.399028451089706" lon="12.93439363497075"><ele>249.33333333333334</ele><time>2026-05-01T09:48:28.001Z</time></trkpt><trkpt lat="43.3991850261285" lon="12.934392239119079"><ele>248.0</ele><time>2026-05-01T09:48:29.001Z</time></trkpt><trkpt lat="43.39933859035857" lon="12.934430131015047"><ele>248.0</ele><time>2026-05-01T09:48:30.001Z</time></trkpt><trkpt lat="43.39949047295289" lon="12.934476478470307"><ele>248.0</ele><time>2026-05-01T09:48:31.001Z</time></trkpt><trkpt lat="43.399643146617585" lon="12.934552304117808"><ele>248.0</ele><time>2026-05-01T09:48:32.001Z</time></trkpt><trkpt lat="43.39981997818726" lon="12.934650055491893"><ele>247.33333333333334</ele><time>2026-05-01T09:48:33.001Z</time></trkpt><trkpt lat="43.40001040044016" lon="12.93475531971329"><ele>246.66666666666669</ele><time>2026-05-01T09:48:34.001Z</time></trkpt><trkpt lat="43.400191338197885" lon="12.934859830861384"><ele>246.0</ele><time>2026-05-01T09:48:35.001Z</time></trkpt><trkpt lat="43.400372749983696" lon="12.934956284160235"><ele>243.66666666666669</ele><time>2026-05-01T09:48:36.001Z</time></trkpt><trkpt lat="43.400563381567295" lon="12.935031432061367"><ele>241.33333333333334</ele><time>2026-05-01T09:48:37.001Z</time></trkpt><trkpt lat="43.40077297120887" lon="12.935106688537484"><ele>239.0</ele><time>2026-05-01T09:48:38.001Z</time></trkpt><trkpt lat="43.40099519260846" lon="12.9352172040532"><ele>239.0</ele><time>2026-05-01T09:48:39.001Z</time></trkpt><trkpt lat="43.4012318415683" lon="12.935311231557291"><ele>239.0</ele><time>2026-05-01T09:48:40.001Z</time></trkpt><trkpt lat="43.40146178057517" lon="12.935402593004596"><ele>240.5</ele><time>2026-05-01T09:48:41.001Z</time></trkpt><trkpt lat="43.40169343454825" lon="12.935494637632743"><ele>242.0</ele><time>2026-05-01T09:48:42.001Z</time></trkpt><trkpt lat="43.401907612330554" lon="12.935580996584116"><ele>242.0</ele><time>2026-05-01T09:48:43.001Z</time></trkpt><trkpt lat="43.40210881690535" lon="12.935644241373744"><ele>242.0</ele><time>2026-05-01T09:48:44.001Z</time></trkpt><trkpt lat="43.40229119115708" lon="12.93572512267128"><ele>242.0</ele><time>2026-05-01T09:48:45.001Z</time></trkpt><trkpt lat="43.40245944582778" lon="12.935803435712934"><ele>240.0</ele><time>2026-05-01T09:48:46.001Z</time></trkpt><trkpt lat="43.40261866723392" lon="12.935871819241171"><ele>238.0</ele><time>2026-05-01T09:48:47.001Z</time></trkpt><trkpt lat="43.40274683108581" lon="12.935909321547243"><ele>236.0</ele><time>2026-05-01T09:48:48.001Z</time></trkpt><trkpt lat="43.40285611042146" lon="12.935927335922443"><ele>234.0</ele><time>2026-05-01T09:48:49.001Z</time></trkpt><trkpt lat="43.40296952285705" lon="12.935882463791733"><ele>237.66666666666669</ele><time>2026-05-01T09:48:50.001Z</time></trkpt><trkpt lat="43.4030765457681" lon="12.935781139081458"><ele>241.33333333333334</ele><time>2026-05-01T09:48:51.001Z</time></trkpt><trkpt lat="43.40318352488567" lon="12.935629801856964"><ele>245.0</ele><time>2026-05-01T09:48:52.001Z</time></trkpt><trkpt lat="43.40329920924215" lon="12.935435324327958"><ele>245.0</ele><time>2026-05-01T09:48:53.001Z</time></trkpt><trkpt lat="43.40343261526198" lon="12.93524645582061"><ele>245.0</ele><time>2026-05-01T09:48:54.001Z</time></trkpt><trkpt lat="43.40356190784314" lon="12.935042976944125"><ele>245.0</ele><time>2026-05-01T09:48:55.001Z</time></trkpt><trkpt lat="43.403682587821784" lon="12.934821057702775"><ele>246.66666666666669</ele><time>2026-05-01T09:48:56.001Z</time></trkpt><trkpt lat="43.403819457952864" lon="12.934594029788435"><ele>248.33333333333331</ele><time>2026-05-01T09:48:57.001Z</time></trkpt><trkpt lat="43.403977233355796" lon="12.934355107859794"><ele>250.0</ele><time>2026-05-01T09:48:58.001Z</time></trkpt><trkpt lat="43.40413008333354" lon="12.934143054075577"><ele>250.0</ele><time>2026-05-01T09:48:59.001Z</time></trkpt><trkpt lat="43.40429395730076" lon="12.933950487684355"><ele>250.0</ele><time>2026-05-01T09:49:00.001Z</time></trkpt><trkpt lat="43.40447237142521" lon="12.93377296359411"><ele>250.0</ele><time>2026-05-01T09:49:01.001Z</time></trkpt><trkpt lat="43.40464825876745" lon="12.933594957113355"><ele>251.0</ele><time>2026-05-01T09:49:02.001Z</time></trkpt><trkpt lat="43.40483423735411" lon="12.93340743108948"><ele>252.0</ele><time>2026-05-01T09:49:03.001Z</time></trkpt><trkpt lat="43.405015834001816" lon="12.93321272025928"><ele>252.0</ele><time>2026-05-01T09:49:04.001Z</time></trkpt><trkpt lat="43.40521336131827" lon="12.933037542667702"><ele>252.0</ele><time>2026-05-01T09:49:05.001Z</time></trkpt><trkpt lat="43.405395901048344" lon="12.932823718180261"><ele>254.0</ele><time>2026-05-01T09:49:06.001Z</time></trkpt><trkpt lat="43.40558153939323" lon="12.9326361171481"><ele>256.0</ele><time>2026-05-01T09:49:07.001Z</time></trkpt><trkpt lat="43.40576108247584" lon="12.932451022875714"><ele>256.0</ele><time>2026-05-01T09:49:08.001Z</time></trkpt><trkpt lat="43.405922663565555" lon="12.932261915506738"><ele>256.0</ele><time>2026-05-01T09:49:09.001Z</time></trkpt><trkpt lat="43.40607462526221" lon="12.932075625830898"><ele>256.0</ele><time>2026-05-01T09:49:10.001Z</time></trkpt><trkpt lat="43.406256608529524" lon="12.931922273712408"><ele>253.0</ele><time>2026-05-01T09:49:11.001Z</time></trkpt><trkpt lat="43.40644559315009" lon="12.931798471391025"><ele>250.0</ele><time>2026-05-01T09:49:12.001Z</time></trkpt><trkpt lat="43.406643962792096" lon="12.9316927495227"><ele>247.0</ele><time>2026-05-01T09:49:13.001Z</time></trkpt><trkpt lat="43.40684452738076" lon="12.931585379965755"><ele>246.0</ele><time>2026-05-01T09:49:14.001Z</time></trkpt><trkpt lat="43.40705028314784" lon="12.931457285347673"><ele>245.0</ele><time>2026-05-01T09:49:15.001Z</time></trkpt><trkpt lat="43.40726146468241" lon="12.931342897995806"><ele>245.0</ele><time>2026-05-01T09:49:16.001Z</time></trkpt><trkpt lat="43.407476003571226" lon="12.931221481557618"><ele>245.0</ele><time>2026-05-01T09:49:17.001Z</time></trkpt><trkpt lat="43.407692995978664" lon="12.931101844915355"><ele>245.0</ele><time>2026-05-01T09:49:18.001Z</time></trkpt><trkpt lat="43.40791322511257" lon="12.930978231897544"><ele>245.0</ele><time>2026-05-01T09:49:19.001Z</time></trkpt><trkpt lat="43.408129733304115" lon="12.9308394678051"><ele>248.5</ele><time>2026-05-01T09:49:20.001Z</time></trkpt><trkpt lat="43.40833355075564" lon="12.930697181147925"><ele>252.0</ele><time>2026-05-01T09:49:21.001Z</time></trkpt><trkpt lat="43.408535515959855" lon="12.930561115345183"><ele>252.0</ele><time>2026-05-01T09:49:22.001Z</time></trkpt><trkpt lat="43.408731571765856" lon="12.930419831567662"><ele>252.0</ele><time>2026-05-01T09:49:23.001Z</time></trkpt><trkpt lat="43.40892694147685" lon="12.930277875081284"><ele>252.0</ele><time>2026-05-01T09:49:24.001Z</time></trkpt><trkpt lat="43.40913082270469" lon="12.930128281828319"><ele>249.5</ele><time>2026-05-01T09:49:25.001Z</time></trkpt><trkpt lat="43.40933645616214" lon="12.929979723812078"><ele>247.0</ele><time>2026-05-01T09:49:26.001Z</time></trkpt><trkpt lat="43.409544449817346" lon="12.929859167471088"><ele>243.66666666666666</ele><time>2026-05-01T09:49:27.001Z</time></trkpt><trkpt lat="43.40974483821132" lon="12.92972473057023"><ele>240.33333333333331</ele><time>2026-05-01T09:49:28.001Z</time></trkpt><trkpt lat="43.40992490229341" lon="12.929588065438498"><ele>237.0</ele><time>2026-05-01T09:49:29.001Z</time></trkpt><trkpt lat="43.41012572972345" lon="12.929501107178595"><ele>237.0</ele><time>2026-05-01T09:49:30.001Z</time></trkpt><trkpt lat="43.41032268031272" lon="12.929408580584626"><ele>237.0</ele><time>2026-05-01T09:49:31.001Z</time></trkpt><trkpt lat="43.41049304797865" lon="12.92932890182229"><ele>237.0</ele><time>2026-05-01T09:49:32.001Z</time></trkpt><trkpt lat="43.41061516346295" lon="12.92925038519595"><ele>236.16666666666666</ele><time>2026-05-01T09:49:33.001Z</time></trkpt><trkpt lat="43.41070887175872" lon="12.929234983445431"><ele>235.33333333333331</ele><time>2026-05-01T09:49:34.001Z</time></trkpt><trkpt lat="43.41077354588408" lon="12.929198862262583"><ele>234.5</ele><time>2026-05-01T09:49:35.001Z</time></trkpt><trkpt lat="43.41083756572914" lon="12.929242214891548"><ele>233.66666666666666</ele><time>2026-05-01T09:49:36.001Z</time></trkpt><trkpt lat="43.410892294069434" lon="12.929309525998285"><ele>232.83333333333331</ele><time>2026-05-01T09:49:37.001Z</time></trkpt><trkpt lat="43.41095018821009" lon="12.929414946134603"><ele>232.0</ele><time>2026-05-01T09:49:39.001Z</time></trkpt><trkpt lat="43.41108552426812" lon="12.92943296082045"><ele>232.0</ele><time>2026-05-01T09:49:41.001Z</time></trkpt><trkpt lat="43.411181894495435" lon="12.929398073749862"><ele>232.0</ele><time>2026-05-01T09:49:42.001Z</time></trkpt><trkpt lat="43.41130555965847" lon="12.929360734680088"><ele>232.0</ele><time>2026-05-01T09:49:43.001Z</time></trkpt><trkpt lat="43.41145124219188" lon="12.929350679801443"><ele>232.0</ele><time>2026-05-01T09:49:44.001Z</time></trkpt><trkpt lat="43.411607122240696" lon="12.92935738578992"><ele>231.66666666666666</ele><time>2026-05-01T09:49:45.001Z</time></trkpt><trkpt lat="43.411784383865474" lon="12.929375889260026"><ele>231.33333333333331</ele><time>2026-05-01T09:49:46.002Z</time></trkpt><trkpt lat="43.41198168510935" lon="12.929396992743325"><ele>231.0</ele><time>2026-05-01T09:49:47.002Z</time></trkpt><trkpt lat="43.41219248857651" lon="12.929414650104773"><ele>230.66666666666669</ele><time>2026-05-01T09:49:48.002Z</time></trkpt><trkpt lat="43.41240831439344" lon="12.929419165260152"><ele>230.33333333333334</ele><time>2026-05-01T09:49:49.002Z</time></trkpt><trkpt lat="43.41263043488081" lon="12.929430280225807"><ele>230.0</ele><time>2026-05-01T09:49:50.002Z</time></trkpt><trkpt lat="43.41286596606904" lon="12.929445486268698"><ele>230.5</ele><time>2026-05-01T09:49:51.002Z</time></trkpt><trkpt lat="43.413114693158825" lon="12.929464247407662"><ele>231.0</ele><time>2026-05-01T09:49:52.002Z</time></trkpt><trkpt lat="43.413354505482474" lon="12.929485566829536"><ele>231.0</ele><time>2026-05-01T09:49:53.002Z</time></trkpt><trkpt lat="43.41359920940393" lon="12.929515913799506"><ele>231.0</ele><time>2026-05-01T09:49:54.002Z</time></trkpt><trkpt lat="43.41383083148538" lon="12.929574808462293"><ele>233.0</ele><time>2026-05-01T09:49:55.002Z</time></trkpt><trkpt lat="43.41405427046091" lon="12.929654163856402"><ele>235.0</ele><time>2026-05-01T09:49:56.002Z</time></trkpt><trkpt lat="43.414282935410846" lon="12.92974326038881"><ele>235.0</ele><time>2026-05-01T09:49:57.002Z</time></trkpt><trkpt lat="43.41451222452076" lon="12.929810310798803"><ele>235.0</ele><time>2026-05-01T09:49:58.002Z</time></trkpt><trkpt lat="43.4147400554143" lon="12.929876520913993"><ele>237.5</ele><time>2026-05-01T09:49:59.002Z</time></trkpt><trkpt lat="43.4149778683926" lon="12.92993256084512"><ele>240.0</ele><time>2026-05-01T09:50:00.002Z</time></trkpt><trkpt lat="43.415220010916215" lon="12.93001183136138"><ele>235.5</ele><time>2026-05-01T09:50:01.002Z</time></trkpt><trkpt lat="43.415468243566345" lon="12.930100041696084"><ele>231.0</ele><time>2026-05-01T09:50:02.002Z</time></trkpt><trkpt lat="43.41571940523351" lon="12.930175739718756"><ele>231.0</ele><time>2026-05-01T09:50:03.002Z</time></trkpt><trkpt lat="43.41597350112098" lon="12.930236044566142"><ele>231.0</ele><time>2026-05-01T09:50:04.002Z</time></trkpt><trkpt lat="43.41622965397597" lon="12.93030276272394"><ele>231.5</ele><time>2026-05-01T09:50:05.002Z</time></trkpt><trkpt lat="43.41648576111092" lon="12.930362292002075"><ele>232.0</ele><time>2026-05-01T09:50:06.002Z</time></trkpt><trkpt lat="43.416749088104595" lon="12.930419926978097"><ele>232.0</ele><time>2026-05-01T09:50:07.002Z</time></trkpt><trkpt lat="43.41701420049239" lon="12.93047666677594"><ele>232.0</ele><time>2026-05-01T09:50:08.002Z</time></trkpt><trkpt lat="43.41728604318617" lon="12.930528916718105"><ele>233.0</ele><time>2026-05-01T09:50:09.002Z</time></trkpt><trkpt lat="43.417561361570684" lon="12.930584688521103"><ele>234.0</ele><time>2026-05-01T09:50:10.002Z</time></trkpt><trkpt lat="43.41783809538465" lon="12.930638758267802"><ele>236.0</ele><time>2026-05-01T09:50:11.002Z</time></trkpt><trkpt lat="43.41811134204717" lon="12.930701138292504"><ele>238.0</ele><time>2026-05-01T09:50:12.002Z</time></trkpt><trkpt lat="43.41838410814511" lon="12.930763264943842"><ele>238.0</ele><time>2026-05-01T09:50:13.002Z</time></trkpt><trkpt lat="43.4186564391178" lon="12.930814111681203"><ele>238.0</ele><time>2026-05-01T09:50:14.002Z</time></trkpt><trkpt lat="43.418925318196045" lon="12.930859279102512"><ele>234.5</ele><time>2026-05-01T09:50:15.002Z</time></trkpt><trkpt lat="43.41919563973029" lon="12.930898446721798"><ele>231.0</ele><time>2026-05-01T09:50:16.002Z</time></trkpt><trkpt lat="43.41946669131832" lon="12.93093301729211"><ele>231.5</ele><time>2026-05-01T09:50:17.002Z</time></trkpt><trkpt lat="43.419735458892106" lon="12.930972971777864"><ele>232.0</ele><time>2026-05-01T09:50:18.001Z</time></trkpt><trkpt lat="43.42000344335701" lon="12.931016787132968"><ele>232.0</ele><time>2026-05-01T09:50:19.001Z</time></trkpt><trkpt lat="43.42027253000326" lon="12.931061251584207"><ele>232.0</ele><time>2026-05-01T09:50:20.001Z</time></trkpt><trkpt lat="43.420542418895096" lon="12.931104575838324"><ele>233.0</ele><time>2026-05-01T09:50:21.001Z</time></trkpt><trkpt lat="43.420812762267985" lon="12.931148828413475"><ele>234.0</ele><time>2026-05-01T09:50:22.001Z</time></trkpt><trkpt lat="43.42108414997838" lon="12.93119240570916"><ele>236.5</ele><time>2026-05-01T09:50:23.001Z</time></trkpt><trkpt lat="43.42135788151515" lon="12.93123366207773"><ele>239.0</ele><time>2026-05-01T09:50:24.001Z</time></trkpt><trkpt lat="43.42163383176718" lon="12.931279021761284"><ele>239.0</ele><time>2026-05-01T09:50:25.001Z</time></trkpt><trkpt lat="43.42190674783792" lon="12.93132551439187"><ele>239.0</ele><time>2026-05-01T09:50:26.001Z</time></trkpt><trkpt lat="43.422167716463875" lon="12.931373708599967"><ele>240.5</ele><time>2026-05-01T09:50:27.001Z</time></trkpt><trkpt lat="43.42242024512634" lon="12.931427742493826"><ele>242.0</ele><time>2026-05-01T09:50:28.001Z</time></trkpt><trkpt lat="43.42267607718034" lon="12.931522443848424"><ele>242.0</ele><time>2026-05-01T09:50:29.001Z</time></trkpt><trkpt lat="43.42293112088411" lon="12.931639203046911"><ele>242.0</ele><time>2026-05-01T09:50:30.001Z</time></trkpt><trkpt lat="43.423184545831774" lon="12.931751821714482"><ele>238.5</ele><time>2026-05-01T09:50:31.001Z</time></trkpt><trkpt lat="43.42343788060226" lon="12.931864592975028"><ele>235.0</ele><time>2026-05-01T09:50:32.001Z</time></trkpt><trkpt lat="43.423684437925225" lon="12.931985120845214"><ele>239.5</ele><time>2026-05-01T09:50:33.001Z</time></trkpt><trkpt lat="43.42392085370123" lon="12.932114573787034"><ele>244.0</ele><time>2026-05-01T09:50:34.001Z</time></trkpt><trkpt lat="43.42414575169734" lon="12.93224726203357"><ele>244.0</ele><time>2026-05-01T09:50:35.001Z</time></trkpt><trkpt lat="43.42435872474953" lon="12.932377844916148"><ele>244.0</ele><time>2026-05-01T09:50:36.001Z</time></trkpt><trkpt lat="43.42455856636529" lon="12.932498114114841"><ele>242.0</ele><time>2026-05-01T09:50:37.001Z</time></trkpt><trkpt lat="43.42475366173692" lon="12.932605197363738"><ele>240.0</ele><time>2026-05-01T09:50:38.001Z</time></trkpt><trkpt lat="43.42495199286779" lon="12.932659649816594"><ele>238.0</ele><time>2026-05-01T09:50:39.001Z</time></trkpt><trkpt lat="43.42516097872265" lon="12.93266435701788"><ele>238.0</ele><time>2026-05-01T09:50:40.001Z</time></trkpt><trkpt lat="43.42537205913614" lon="12.932739351712804"><ele>238.0</ele><time>2026-05-01T09:50:41.001Z</time></trkpt><trkpt lat="43.42556805850232" lon="12.932704617586026"><ele>238.0</ele><time>2026-05-01T09:50:42.001Z</time></trkpt><trkpt lat="43.42576202881161" lon="12.932632307849175"><ele>242.33333333333331</ele><time>2026-05-01T09:50:43.001Z</time></trkpt><trkpt lat="43.425942065743214" lon="12.93253550697061"><ele>246.66666666666669</ele><time>2026-05-01T09:50:44.001Z</time></trkpt><trkpt lat="43.4260995387378" lon="12.932449141622538"><ele>251.0</ele><time>2026-05-01T09:50:45.001Z</time></trkpt><trkpt lat="43.42624338928036" lon="12.932395383289638"><ele>247.5</ele><time>2026-05-01T09:50:46.001Z</time></trkpt><trkpt lat="43.42637453080232" lon="12.932400271034187"><ele>244.0</ele><time>2026-05-01T09:50:47.001Z</time></trkpt><trkpt lat="43.42650027032885" lon="12.932417956651769"><ele>240.5</ele><time>2026-05-01T09:50:48.001Z</time></trkpt><trkpt lat="43.426625526720535" lon="12.932443245323313"><ele>237.0</ele><time>2026-05-01T09:50:49.001Z</time></trkpt><trkpt lat="43.426741383249876" lon="12.932449419083444"><ele>237.0</ele><time>2026-05-01T09:50:50.001Z</time></trkpt><trkpt lat="43.42685647331075" lon="12.93247333944991"><ele>237.0</ele><time>2026-05-01T09:50:51.001Z</time></trkpt><trkpt lat="43.42696448723517" lon="12.932497427570617"><ele>237.0</ele><time>2026-05-01T09:50:52.001Z</time></trkpt><trkpt lat="43.42707245634565" lon="12.932518259914222"><ele>237.0</ele><time>2026-05-01T09:50:53.001Z</time></trkpt><trkpt lat="43.4271787894895" lon="12.932537148364545"><ele>237.0</ele><time>2026-05-01T09:50:54.001Z</time></trkpt><trkpt lat="43.427279134468215" lon="12.932547972842292"><ele>237.5</ele><time>2026-05-01T09:50:55.001Z</time></trkpt><trkpt lat="43.427382706481104" lon="12.932544140011004"><ele>238.0</ele><time>2026-05-01T09:50:56.001Z</time></trkpt><trkpt lat="43.427478319469905" lon="12.93257284569771"><ele>238.5</ele><time>2026-05-01T09:50:57.001Z</time></trkpt><trkpt lat="43.427597022369135" lon="12.93244734273762"><ele>239.0</ele><time>2026-05-01T09:50:58.001Z</time></trkpt><trkpt lat="43.427707205097434" lon="12.932351272775223"><ele>239.0</ele><time>2026-05-01T09:50:59.001Z</time></trkpt><trkpt lat="43.42781056007902" lon="12.932221906181294"><ele>239.0</ele><time>2026-05-01T09:51:00.001Z</time></trkpt><trkpt lat="43.42790898572401" lon="12.932065616808865"><ele>239.0</ele><time>2026-05-01T09:51:01.001Z</time></trkpt><trkpt lat="43.42798476208925" lon="12.931872446868889"><ele>239.0</ele><time>2026-05-01T09:51:02.001Z</time></trkpt><trkpt lat="43.42804770863761" lon="12.931659293071936"><ele>243.66666666666669</ele><time>2026-05-01T09:51:03.001Z</time></trkpt><trkpt lat="43.42808996086579" lon="12.931368734609745"><ele>248.33333333333331</ele><time>2026-05-01T09:51:04.001Z</time></trkpt><trkpt lat="43.42815775492359" lon="12.931104908186354"><ele>253.0</ele><time>2026-05-01T09:51:05.001Z</time></trkpt><trkpt lat="43.42823746020032" lon="12.930825574504649"><ele>253.0</ele><time>2026-05-01T09:51:06.001Z</time></trkpt><trkpt lat="43.428324921876566" lon="12.93055567417908"><ele>253.0</ele><time>2026-05-01T09:51:07.001Z</time></trkpt><trkpt lat="43.42840322863984" lon="12.93028068664849"><ele>253.0</ele><time>2026-05-01T09:51:08.001Z</time></trkpt><trkpt lat="43.428464264183674" lon="12.930012595749966"><ele>250.66666666666666</ele><time>2026-05-01T09:51:09.001Z</time></trkpt><trkpt lat="43.42850463857681" lon="12.92974972915356"><ele>248.33333333333331</ele><time>2026-05-01T09:51:10.001Z</time></trkpt><trkpt lat="43.42850928386109" lon="12.929475064146974"><ele>246.0</ele><time>2026-05-01T09:51:11.001Z</time></trkpt><trkpt lat="43.42850053333398" lon="12.92919899970258"><ele>245.33333333333331</ele><time>2026-05-01T09:51:12.001Z</time></trkpt><trkpt lat="43.42848091739773" lon="12.928921680487578"><ele>244.66666666666666</ele><time>2026-05-01T09:51:13.001Z</time></trkpt><trkpt lat="43.42846332124021" lon="12.928646484851328"><ele>244.0</ele><time>2026-05-01T09:51:14.001Z</time></trkpt><trkpt lat="43.42845297568525" lon="12.928363360566006"><ele>244.0</ele><time>2026-05-01T09:51:15.001Z</time></trkpt><trkpt lat="43.42844043156176" lon="12.928081998805462"><ele>244.0</ele><time>2026-05-01T09:51:16.001Z</time></trkpt><trkpt lat="43.428426953445744" lon="12.927803680208523"><ele>244.0</ele><time>2026-05-01T09:51:17.001Z</time></trkpt><trkpt lat="43.428413225068354" lon="12.927524079672013"><ele>244.33333333333331</ele><time>2026-05-01T09:51:18.001Z</time></trkpt><trkpt lat="43.42839802825029" lon="12.927246116422122"><ele>244.66666666666669</ele><time>2026-05-01T09:51:19.001Z</time></trkpt><trkpt lat="43.42838799239779" lon="12.926969481409477"><ele>245.0</ele><time>2026-05-01T09:51:20.001Z</time></trkpt><trkpt lat="43.42837626649271" lon="12.926696515239662"><ele>245.66666666666669</ele><time>2026-05-01T09:51:21.001Z</time></trkpt><trkpt lat="43.42836303517037" lon="12.926428291849298"><ele>246.33333333333331</ele><time>2026-05-01T09:51:22.001Z</time></trkpt><trkpt lat="43.428348188686385" lon="12.926161146807528"><ele>247.0</ele><time>2026-05-01T09:51:23.001Z</time></trkpt><trkpt lat="43.42833419961434" lon="12.925894094269388"><ele>247.0</ele><time>2026-05-01T09:51:24.001Z</time></trkpt><trkpt lat="43.428322340189666" lon="12.925619590678918"><ele>247.0</ele><time>2026-05-01T09:51:25.001Z</time></trkpt><trkpt lat="43.42831134465678" lon="12.925337897677222"><ele>247.0</ele><time>2026-05-01T09:51:26.001Z</time></trkpt><trkpt lat="43.428294843135546" lon="12.925032059362145"><ele>247.0</ele><time>2026-05-01T09:51:27.001Z</time></trkpt><trkpt lat="43.42827914081525" lon="12.924701723685564"><ele>247.0</ele><time>2026-05-01T09:51:28.001Z</time></trkpt><trkpt lat="43.42826699258345" lon="12.924362505836472"><ele>248.0</ele><time>2026-05-01T09:51:29.001Z</time></trkpt><trkpt lat="43.4282509992218" lon="12.92401941623331"><ele>249.0</ele><time>2026-05-01T09:51:30.001Z</time></trkpt><trkpt lat="43.428237371210415" lon="12.923687733077314"><ele>251.5</ele><time>2026-05-01T09:51:31.001Z</time></trkpt><trkpt lat="43.428213278344614" lon="12.923351520207724"><ele>254.0</ele><time>2026-05-01T09:51:32.001Z</time></trkpt><trkpt lat="43.42818377899887" lon="12.923018802651299"><ele>254.0</ele><time>2026-05-01T09:51:33.001Z</time></trkpt><trkpt lat="43.428157628279955" lon="12.922685061066355"><ele>254.0</ele><time>2026-05-01T09:51:34.001Z</time></trkpt><trkpt lat="43.428124098490166" lon="12.922361176370757"><ele>257.5</ele><time>2026-05-01T09:51:35.001Z</time></trkpt><trkpt lat="43.428083564904746" lon="12.922045809028175"><ele>261.0</ele><time>2026-05-01T09:51:36.001Z</time></trkpt><trkpt lat="43.428027560280285" lon="12.921740903688265"><ele>251.0</ele><time>2026-05-01T09:51:37.001Z</time></trkpt><trkpt lat="43.427956210643856" lon="12.921444641929241"><ele>241.0</ele><time>2026-05-01T09:51:38.001Z</time></trkpt><trkpt lat="43.42787349451727" lon="12.921154786040036"><ele>245.0</ele><time>2026-05-01T09:51:39.001Z</time></trkpt><trkpt lat="43.42777932933711" lon="12.920863426355615"><ele>249.0</ele><time>2026-05-01T09:51:40.001Z</time></trkpt><trkpt lat="43.4276718542345" lon="12.920580598760196"><ele>249.0</ele><time>2026-05-01T09:51:41.001Z</time></trkpt><trkpt lat="43.42756522200067" lon="12.920294280989078"><ele>249.0</ele><time>2026-05-01T09:51:42.001Z</time></trkpt><trkpt lat="43.42749130058079" lon="12.91999335968791"><ele>251.5</ele><time>2026-05-01T09:51:43.001Z</time></trkpt><trkpt lat="43.427411946662346" lon="12.919696990779848"><ele>254.0</ele><time>2026-05-01T09:51:44.001Z</time></trkpt><trkpt lat="43.427379762235674" lon="12.919383424811315"><ele>255.5</ele><time>2026-05-01T09:51:45.001Z</time></trkpt><trkpt lat="43.427318939721914" lon="12.91909480000443"><ele>257.0</ele><time>2026-05-01T09:51:46.001Z</time></trkpt><trkpt lat="43.427375709777344" lon="12.918751857653104"><ele>257.0</ele><time>2026-05-01T09:51:47.001Z</time></trkpt><trkpt lat="43.427370880270566" lon="12.918435451534899"><ele>257.0</ele><time>2026-05-01T09:51:48.001Z</time></trkpt><trkpt lat="43.42735638834713" lon="12.918112769065436"><ele>261.5</ele><time>2026-05-01T09:51:49.001Z</time></trkpt><trkpt lat="43.42732932892051" lon="12.917793845959183"><ele>266.0</ele><time>2026-05-01T09:51:50.001Z</time></trkpt><trkpt lat="43.42729204631031" lon="12.917479842990192"><ele>269.33333333333337</ele><time>2026-05-01T09:51:51.001Z</time></trkpt><trkpt lat="43.42724680212905" lon="12.917177628677992"><ele>272.6666666666667</ele><time>2026-05-01T09:51:52.001Z</time></trkpt><trkpt lat="43.42720571695096" lon="12.916882647152482"><ele>276.0</ele><time>2026-05-01T09:51:53.001Z</time></trkpt><trkpt lat="43.42717680661205" lon="12.916594754614493"><ele>277.0</ele><time>2026-05-01T09:51:54.001Z</time></trkpt><trkpt lat="43.42717322006557" lon="12.916302456246825"><ele>278.0</ele><time>2026-05-01T09:51:55.001Z</time></trkpt><trkpt lat="43.4271870983267" lon="12.916018793150855"><ele>279.0</ele><time>2026-05-01T09:51:56.001Z</time></trkpt><trkpt lat="43.42723226996846" lon="12.915737900613253"><ele>277.0</ele><time>2026-05-01T09:51:57.001Z</time></trkpt><trkpt lat="43.42730706460641" lon="12.915467470461568"><ele>275.0</ele><time>2026-05-01T09:51:58.001Z</time></trkpt><trkpt lat="43.427418927851264" lon="12.91520997001407"><ele>273.0</ele><time>2026-05-01T09:51:59.001Z</time></trkpt><trkpt lat="43.42755999592139" lon="12.914970048486332"><ele>265.5</ele><time>2026-05-01T09:52:00.001Z</time></trkpt><trkpt lat="43.427726175957716" lon="12.914752797756583"><ele>258.0</ele><time>2026-05-01T09:52:01.001Z</time></trkpt><trkpt lat="43.42791895895283" lon="12.914565982400505"><ele>267.5</ele><time>2026-05-01T09:52:02.001Z</time></trkpt><trkpt lat="43.428117484576056" lon="12.914391096363524"><ele>277.0</ele><time>2026-05-01T09:52:03.001Z</time></trkpt><trkpt lat="43.42833499559505" lon="12.914247715955172"><ele>268.5</ele><time>2026-05-01T09:52:04.001Z</time></trkpt><trkpt lat="43.428559013767185" lon="12.91410922529888"><ele>260.0</ele><time>2026-05-01T09:52:05.001Z</time></trkpt><trkpt lat="43.4287867038676" lon="12.913973744361348"><ele>265.5</ele><time>2026-05-01T09:52:06.001Z</time></trkpt><trkpt lat="43.42901199635868" lon="12.913827280616568"><ele>271.0</ele><time>2026-05-01T09:52:07.001Z</time></trkpt><trkpt lat="43.429236321762545" lon="12.913676613313525"><ele>271.0</ele><time>2026-05-01T09:52:08.001Z</time></trkpt><trkpt lat="43.42945958317852" lon="12.913522269382009"><ele>271.0</ele><time>2026-05-01T09:52:09.001Z</time></trkpt><trkpt lat="43.4296784914168" lon="12.91336275475944"><ele>269.0</ele><time>2026-05-01T09:52:10.002Z</time></trkpt><trkpt lat="43.42989176050888" lon="12.913196842534106"><ele>267.0</ele><time>2026-05-01T09:52:11.002Z</time></trkpt><trkpt lat="43.43009179208866" lon="12.913003110245207"><ele>267.0</ele><time>2026-05-01T09:52:12.002Z</time></trkpt><trkpt lat="43.43027873615428" lon="12.912787633986865"><ele>267.0</ele><time>2026-05-01T09:52:13.002Z</time></trkpt><trkpt lat="43.43045044045274" lon="12.912539389986653"><ele>270.0</ele><time>2026-05-01T09:52:14.002Z</time></trkpt><trkpt lat="43.430606640338766" lon="12.912262870851531"><ele>273.0</ele><time>2026-05-01T09:52:15.002Z</time></trkpt><trkpt lat="43.430753312750156" lon="12.911952809990867"><ele>266.5</ele><time>2026-05-01T09:52:16.002Z</time></trkpt><trkpt lat="43.43089764092825" lon="12.911646423910462"><ele>260.0</ele><time>2026-05-01T09:52:17.002Z</time></trkpt><trkpt lat="43.43103441604187" lon="12.911327847855281"><ele>260.0</ele><time>2026-05-01T09:52:18.002Z</time></trkpt><trkpt lat="43.431165635384154" lon="12.911017809633483"><ele>260.0</ele><time>2026-05-01T09:52:19.002Z</time></trkpt><trkpt lat="43.431292505969736" lon="12.910734263039853"><ele>260.6666666666667</ele><time>2026-05-01T09:52:20.002Z</time></trkpt><trkpt lat="43.4314117342076" lon="12.910475363282725"><ele>261.3333333333333</ele><time>2026-05-01T09:52:21.002Z</time></trkpt><trkpt lat="43.4315254097351" lon="12.910235856665082"><ele>262.0</ele><time>2026-05-01T09:52:22.002Z</time></trkpt><trkpt lat="43.43163474452448" lon="12.910012590222248"><ele>262.0</ele><time>2026-05-01T09:52:23.002Z</time></trkpt><trkpt lat="43.431749901982" lon="12.909806011174274"><ele>262.0</ele><time>2026-05-01T09:52:24.001Z</time></trkpt><trkpt lat="43.43187839423089" lon="12.909624918699894"><ele>262.0</ele><time>2026-05-01T09:52:25.001Z</time></trkpt><trkpt lat="43.43202795413594" lon="12.90947690017161"><ele>262.0</ele><time>2026-05-01T09:52:26.001Z</time></trkpt><trkpt lat="43.43217664834747" lon="12.909349391097305"><ele>262.0</ele><time>2026-05-01T09:52:27.001Z</time></trkpt><trkpt lat="43.432326819718185" lon="12.90923350331174"><ele>262.0</ele><time>2026-05-01T09:52:28.001Z</time></trkpt><trkpt lat="43.432467559471235" lon="12.909114350584844"><ele>262.0</ele><time>2026-05-01T09:52:29.001Z</time></trkpt><trkpt lat="43.4326016294211" lon="12.908994552257504"><ele>262.0</ele><time>2026-05-01T09:52:30.001Z</time></trkpt><trkpt lat="43.43273110600526" lon="12.908882711615393"><ele>262.0</ele><time>2026-05-01T09:52:31.001Z</time></trkpt><trkpt lat="43.43285028736229" lon="12.908780868632672"><ele>262.0</ele><time>2026-05-01T09:52:32.001Z</time></trkpt><trkpt lat="43.43296755930346" lon="12.908679829591158"><ele>262.0</ele><time>2026-05-01T09:52:33.001Z</time></trkpt><trkpt lat="43.43308066953022" lon="12.9085840239707"><ele>262.0</ele><time>2026-05-01T09:52:34.001Z</time></trkpt><trkpt lat="43.43319261391956" lon="12.908492418308965"><ele>262.0</ele><time>2026-05-01T09:52:35.001Z</time></trkpt><trkpt lat="43.4333007926686" lon="12.908400117232349"><ele>261.75</ele><time>2026-05-01T09:52:36.001Z</time></trkpt><trkpt lat="43.43340845385177" lon="12.908305935165028"><ele>261.5</ele><time>2026-05-01T09:52:37.001Z</time></trkpt><trkpt lat="43.433516501525745" lon="12.908211756804425"><ele>261.25</ele><time>2026-05-01T09:52:38.001Z</time></trkpt><trkpt lat="43.43362615935746" lon="12.908114388680959"><ele>261.0</ele><time>2026-05-01T09:52:39.001Z</time></trkpt><trkpt lat="43.43373424945779" lon="12.908015836682317"><ele>261.75</ele><time>2026-05-01T09:52:40.001Z</time></trkpt><trkpt lat="43.43384495354078" lon="12.907920336653916"><ele>262.5</ele><time>2026-05-01T09:52:41.001Z</time></trkpt><trkpt lat="43.43395198585615" lon="12.907817276207911"><ele>263.25</ele><time>2026-05-01T09:52:42.001Z</time></trkpt><trkpt lat="43.43406816981802" lon="12.907711934534799"><ele>264.0</ele><time>2026-05-01T09:52:43.001Z</time></trkpt><trkpt lat="43.434180783742725" lon="12.907604261870958"><ele>264.0</ele><time>2026-05-01T09:52:44.001Z</time></trkpt><trkpt lat="43.43429508527223" lon="12.907497272422585"><ele>264.0</ele><time>2026-05-01T09:52:45.001Z</time></trkpt><trkpt lat="43.4344114749515" lon="12.907390685152196"><ele>264.0</ele><time>2026-05-01T09:52:46.001Z</time></trkpt><trkpt lat="43.434529719917805" lon="12.907282270942984"><ele>264.0</ele><time>2026-05-01T09:52:47.001Z</time></trkpt><trkpt lat="43.434649255077744" lon="12.907167731656049"><ele>264.0</ele><time>2026-05-01T09:52:48.001Z</time></trkpt><trkpt lat="43.434768981901115" lon="12.907047688422953"><ele>264.0</ele><time>2026-05-01T09:52:49.001Z</time></trkpt><trkpt lat="43.43488933688251" lon="12.906929599233619"><ele>264.0</ele><time>2026-05-01T09:52:50.001Z</time></trkpt><trkpt lat="43.43501789693449" lon="12.906820611026411"><ele>264.0</ele><time>2026-05-01T09:52:51.001Z</time></trkpt><trkpt lat="43.435144348856824" lon="12.906704122571991"><ele>264.3333333333333</ele><time>2026-05-01T09:52:52.001Z</time></trkpt><trkpt lat="43.43526831879104" lon="12.906581885661106"><ele>264.66666666666663</ele><time>2026-05-01T09:52:53.001Z</time></trkpt><trkpt lat="43.43539115257833" lon="12.906458068144056"><ele>265.0</ele><time>2026-05-01T09:52:54.001Z</time></trkpt><trkpt lat="43.43551575673326" lon="12.90633784562322"><ele>265.0</ele><time>2026-05-01T09:52:55.001Z</time></trkpt><trkpt lat="43.435642142327296" lon="12.90621308607488"><ele>265.0</ele><time>2026-05-01T09:52:56.001Z</time></trkpt><trkpt lat="43.43576500117192" lon="12.9060856473179"><ele>265.0</ele><time>2026-05-01T09:52:57.001Z</time></trkpt><trkpt lat="43.43588515175727" lon="12.90595222259084"><ele>264.0</ele><time>2026-05-01T09:52:58.001Z</time></trkpt><trkpt lat="43.43600526997852" lon="12.905820231251836"><ele>263.0</ele><time>2026-05-01T09:52:59.001Z</time></trkpt><trkpt lat="43.43612406699764" lon="12.905687064372714"><ele>262.0</ele><time>2026-05-01T09:53:00.001Z</time></trkpt><trkpt lat="43.4362436620546" lon="12.905555872321193"><ele>263.0</ele><time>2026-05-01T09:53:01.001Z</time></trkpt><trkpt lat="43.43635835783971" lon="12.905415374330481"><ele>264.0</ele><time>2026-05-01T09:53:02.001Z</time></trkpt><trkpt lat="43.436473911122164" lon="12.905278258034352"><ele>265.0</ele><time>2026-05-01T09:53:03.001Z</time></trkpt><trkpt lat="43.43659067088841" lon="12.905143352578591"><ele>264.3333333333333</ele><time>2026-05-01T09:53:04.001Z</time></trkpt><trkpt lat="43.43670670002301" lon="12.905010442494293"><ele>263.6666666666667</ele><time>2026-05-01T09:53:05.001Z</time></trkpt><trkpt lat="43.43682392226243" lon="12.904876352070724"><ele>263.0</ele><time>2026-05-01T09:53:06.001Z</time></trkpt><trkpt lat="43.43693958897777" lon="12.904738423589249"><ele>263.0</ele><time>2026-05-01T09:53:07.001Z</time></trkpt><trkpt lat="43.437056576506606" lon="12.904602984610603"><ele>263.0</ele><time>2026-05-01T09:53:08.001Z</time></trkpt><trkpt lat="43.43717364537919" lon="12.904463490227732"><ele>263.0</ele><time>2026-05-01T09:53:09.001Z</time></trkpt><trkpt lat="43.43729160551908" lon="12.904320365877084"><ele>263.0</ele><time>2026-05-01T09:53:10.001Z</time></trkpt><trkpt lat="43.437412705502986" lon="12.9041872458615"><ele>263.0</ele><time>2026-05-01T09:53:11.001Z</time></trkpt><trkpt lat="43.437529855711006" lon="12.904041732896715"><ele>263.0</ele><time>2026-05-01T09:53:12.001Z</time></trkpt><trkpt lat="43.43764895792239" lon="12.903903796562256"><ele>263.0</ele><time>2026-05-01T09:53:13.001Z</time></trkpt><trkpt lat="43.437765642847786" lon="12.903764972433093"><ele>263.0</ele><time>2026-05-01T09:53:14.001Z</time></trkpt><trkpt lat="43.437889163987855" lon="12.903630105234344"><ele>263.0</ele><time>2026-05-01T09:53:15.001Z</time></trkpt><trkpt lat="43.43800252161216" lon="12.90349257815356"><ele>263.33333333333337</ele><time>2026-05-01T09:53:16.001Z</time></trkpt><trkpt lat="43.43811860883013" lon="12.903352414244715"><ele>263.6666666666667</ele><time>2026-05-01T09:53:17.001Z</time></trkpt><trkpt lat="43.43823587132428" lon="12.903218684861873"><ele>264.0</ele><time>2026-05-01T09:53:18.001Z</time></trkpt><trkpt lat="43.43834811281967" lon="12.903077634014043"><ele>264.0</ele><time>2026-05-01T09:53:19.001Z</time></trkpt><trkpt lat="43.43846753582565" lon="12.902943565950745"><ele>264.0</ele><time>2026-05-01T09:53:20.001Z</time></trkpt><trkpt lat="43.43858486174235" lon="12.902808155461242"><ele>264.0</ele><time>2026-05-01T09:53:21.001Z</time></trkpt><trkpt lat="43.43870514790749" lon="12.902673642067256"><ele>263.0</ele><time>2026-05-01T09:53:22.001Z</time></trkpt><trkpt lat="43.43882550801595" lon="12.902537806122673"><ele>262.0</ele><time>2026-05-01T09:53:23.001Z</time></trkpt><trkpt lat="43.438946977783296" lon="12.902403240414728"><ele>261.0</ele><time>2026-05-01T09:53:24.001Z</time></trkpt><trkpt lat="43.439066406797906" lon="12.902265367137911"><ele>261.0</ele><time>2026-05-01T09:53:25.001Z</time></trkpt><trkpt lat="43.43918773590385" lon="12.902120768993617"><ele>261.0</ele><time>2026-05-01T09:53:26.001Z</time></trkpt><trkpt lat="43.4393093888179" lon="12.901981969029102"><ele>261.0</ele><time>2026-05-01T09:53:27.001Z</time></trkpt><trkpt lat="43.43943360826945" lon="12.901847019858435"><ele>260.6666666666667</ele><time>2026-05-01T09:53:28.001Z</time></trkpt><trkpt lat="43.439555166433536" lon="12.901706455953223"><ele>260.33333333333337</ele><time>2026-05-01T09:53:29.001Z</time></trkpt><trkpt lat="43.43966907889596" lon="12.901552771746777"><ele>260.0</ele><time>2026-05-01T09:53:30.001Z</time></trkpt><trkpt lat="43.439769912698786" lon="12.90138200600416"><ele>260.0</ele><time>2026-05-01T09:53:31.001Z</time></trkpt><trkpt lat="43.43986054215238" lon="12.901195519236232"><ele>260.0</ele><time>2026-05-01T09:53:32.001Z</time></trkpt><trkpt lat="43.439947545157246" lon="12.901003842409203"><ele>260.0</ele><time>2026-05-01T09:53:33.001Z</time></trkpt><trkpt lat="43.44003743890911" lon="12.90081303251505"><ele>259.33333333333337</ele><time>2026-05-01T09:53:34.001Z</time></trkpt><trkpt lat="43.440129147243084" lon="12.90061417607233"><ele>258.6666666666667</ele><time>2026-05-01T09:53:35.001Z</time></trkpt><trkpt lat="43.44022994791514" lon="12.90042177757381"><ele>258.0</ele><time>2026-05-01T09:53:36.001Z</time></trkpt><trkpt lat="43.44033917640087" lon="12.900265806027718"><ele>258.0</ele><time>2026-05-01T09:53:37.001Z</time></trkpt><trkpt lat="43.44043767742465" lon="12.900112859916447"><ele>258.0</ele><time>2026-05-01T09:53:38.001Z</time></trkpt><trkpt lat="43.44044812569301" lon="12.899917634135491"><ele>258.0</ele><time>2026-05-01T09:53:39.001Z</time></trkpt><trkpt lat="43.44051294223123" lon="12.899772646992249"><ele>258.0</ele><time>2026-05-01T09:53:40.001Z</time></trkpt><trkpt lat="43.4405750988776" lon="12.899645234743794"><ele>258.75</ele><time>2026-05-01T09:53:41.001Z</time></trkpt><trkpt lat="43.44063587161591" lon="12.899515498895"><ele>259.5</ele><time>2026-05-01T09:53:42.001Z</time></trkpt><trkpt lat="43.44070690828224" lon="12.899382268162915"><ele>260.25</ele><time>2026-05-01T09:53:43.001Z</time></trkpt><trkpt lat="43.440787946219594" lon="12.899250649416766"><ele>261.0</ele><time>2026-05-01T09:53:44.001Z</time></trkpt><trkpt lat="43.44087250703056" lon="12.899118156147587"><ele>261.0</ele><time>2026-05-01T09:53:45.001Z</time></trkpt><trkpt lat="43.440961547893316" lon="12.898974983378517"><ele>261.0</ele><time>2026-05-01T09:53:46.001Z</time></trkpt><trkpt lat="43.44106485114784" lon="12.898828702855258"><ele>261.0</ele><time>2026-05-01T09:53:47.001Z</time></trkpt><trkpt lat="43.44117663291311" lon="12.89866960171323"><ele>261.0</ele><time>2026-05-01T09:53:48.001Z</time></trkpt><trkpt lat="43.44129683631526" lon="12.898496325547084"><ele>262.3333333333333</ele><time>2026-05-01T09:53:49.001Z</time></trkpt><trkpt lat="43.44142635773551" lon="12.898317740257609"><ele>263.66666666666663</ele><time>2026-05-01T09:53:50.001Z</time></trkpt><trkpt lat="43.44156689279274" lon="12.898156535316028"><ele>265.0</ele><time>2026-05-01T09:53:51.001Z</time></trkpt><trkpt lat="43.441707604063104" lon="12.897986888451774"><ele>265.0</ele><time>2026-05-01T09:53:52.001Z</time></trkpt><trkpt lat="43.4418592421283" lon="12.897819307312965"><ele>265.0</ele><time>2026-05-01T09:53:53.001Z</time></trkpt><trkpt lat="43.442025015349586" lon="12.89763808328027"><ele>265.0</ele><time>2026-05-01T09:53:54.001Z</time></trkpt><trkpt lat="43.442190120858804" lon="12.897457589153033"><ele>266.66666666666663</ele><time>2026-05-01T09:53:55.001Z</time></trkpt><trkpt lat="43.44235234680114" lon="12.897280840305054"><ele>268.3333333333333</ele><time>2026-05-01T09:53:56.001Z</time></trkpt><trkpt lat="43.4425182695471" lon="12.897100557759773"><ele>270.0</ele><time>2026-05-01T09:53:57.001Z</time></trkpt><trkpt lat="43.4426863529628" lon="12.896917927530586"><ele>269.3333333333333</ele><time>2026-05-01T09:53:58.001Z</time></trkpt><trkpt lat="43.442842005020495" lon="12.896726185890767"><ele>268.66666666666663</ele><time>2026-05-01T09:53:59.001Z</time></trkpt><trkpt lat="43.44298995522972" lon="12.89655170160515"><ele>268.0</ele><time>2026-05-01T09:54:00.001Z</time></trkpt><trkpt lat="43.44312202752215" lon="12.896385115863831"><ele>269.3333333333333</ele><time>2026-05-01T09:54:01.001Z</time></trkpt><trkpt lat="43.44320090131002" lon="12.896195777964204"><ele>270.6666666666667</ele><time>2026-05-01T09:54:02.001Z</time></trkpt><trkpt lat="43.4432696656459" lon="12.895989951344314"><ele>272.0</ele><time>2026-05-01T09:54:03.001Z</time></trkpt><trkpt lat="43.44332019724204" lon="12.895748716130948"><ele>272.0</ele><time>2026-05-01T09:54:04.001Z</time></trkpt><trkpt lat="43.44334983158748" lon="12.895505713397812"><ele>272.0</ele><time>2026-05-01T09:54:05.001Z</time></trkpt><trkpt lat="43.44336372827287" lon="12.895269398624091"><ele>272.0</ele><time>2026-05-01T09:54:06.001Z</time></trkpt><trkpt lat="43.44338309588561" lon="12.89506208515798"><ele>271.4</ele><time>2026-05-01T09:54:07.001Z</time></trkpt><trkpt lat="43.44339246920876" lon="12.89488068713403"><ele>270.79999999999995</ele><time>2026-05-01T09:54:08.001Z</time></trkpt><trkpt lat="43.44340831510392" lon="12.894729964926714"><ele>270.2</ele><time>2026-05-01T09:54:09.001Z</time></trkpt><trkpt lat="43.4434220780282" lon="12.894597832456329"><ele>269.59999999999997</ele><time>2026-05-01T09:54:10.001Z</time></trkpt><trkpt lat="43.44343536220578" lon="12.894485888917437"><ele>269.0</ele><time>2026-05-01T09:54:11.001Z</time></trkpt><trkpt lat="43.443445617861535" lon="12.894395728736454"><ele>269.0</ele><time>2026-05-01T09:54:12.001Z</time></trkpt><trkpt lat="43.443444040244586" lon="12.894275781646032"><ele>269.0</ele><time>2026-05-01T09:54:14.001Z</time></trkpt><trkpt lat="43.443437922246936" lon="12.894182870800238"><ele>269.0</ele><time>2026-05-01T09:54:17.001Z</time></trkpt><trkpt lat="43.44336171778403" lon="12.894166575759238"><ele>269.0</ele><time>2026-05-01T09:54:18.001Z</time></trkpt><trkpt lat="43.44329373646432" lon="12.894176467576369"><ele>269.0</ele><time>2026-05-01T09:54:21.001Z</time></trkpt><trkpt lat="43.44318555763898" lon="12.894171364727896"><ele>269.0</ele><time>2026-05-01T09:55:35.001Z</time></trkpt><trkpt lat="43.44311005206923" lon="12.894149172222123"><ele>269.0</ele><time>2026-05-01T09:55:36.001Z</time></trkpt><trkpt lat="43.44303256000961" lon="12.894128003459231"><ele>269.0</ele><time>2026-05-01T09:55:37.001Z</time></trkpt><trkpt lat="43.44295302134918" lon="12.894081316199204"><ele>269.0</ele><time>2026-05-01T09:55:38.001Z</time></trkpt><trkpt lat="43.44285818343251" lon="12.894073891552768"><ele>269.0</ele><time>2026-05-01T09:55:39.001Z</time></trkpt><trkpt lat="43.44275016373595" lon="12.894034058433913"><ele>269.0</ele><time>2026-05-01T09:55:40.001Z</time></trkpt><trkpt lat="43.44263341067429" lon="12.893991719880727"><ele>269.0</ele><time>2026-05-01T09:55:41.001Z</time></trkpt><trkpt lat="43.442511672660395" lon="12.893960781644033"><ele>269.0</ele><time>2026-05-01T09:55:42.001Z</time></trkpt><trkpt lat="43.44238842920437" lon="12.893925799255756"><ele>269.0</ele><time>2026-05-01T09:55:43.001Z</time></trkpt><trkpt lat="43.44227169602919" lon="12.893890668971588"><ele>269.0</ele><time>2026-05-01T09:55:44.001Z</time></trkpt><trkpt lat="43.44215881390412" lon="12.893861436596346"><ele>269.5</ele><time>2026-05-01T09:55:45.001Z</time></trkpt><trkpt lat="43.44204776732763" lon="12.893820218251347"><ele>270.0</ele><time>2026-05-01T09:55:46.001Z</time></trkpt><trkpt lat="43.44193500078372" lon="12.893781868159502"><ele>270.5</ele><time>2026-05-01T09:55:47.001Z</time></trkpt><trkpt lat="43.44182315850489" lon="12.893736485442414"><ele>271.0</ele><time>2026-05-01T09:55:48.001Z</time></trkpt><trkpt lat="43.44171524069925" lon="12.893674025575619"><ele>271.0</ele><time>2026-05-01T09:55:49.001Z</time></trkpt><trkpt lat="43.441615117566485" lon="12.89358779503866"><ele>271.0</ele><time>2026-05-01T09:55:50.001Z</time></trkpt><trkpt lat="43.441521301591045" lon="12.893484562654319"><ele>271.0</ele><time>2026-05-01T09:55:51.001Z</time></trkpt><trkpt lat="43.44143461699497" lon="12.893359688452467"><ele>271.0</ele><time>2026-05-01T09:55:52.001Z</time></trkpt><trkpt lat="43.44135385921172" lon="12.893217928157517"><ele>272.5</ele><time>2026-05-01T09:55:53.001Z</time></trkpt><trkpt lat="43.441279139793025" lon="12.893060076673526"><ele>274.0</ele><time>2026-05-01T09:55:54.001Z</time></trkpt><trkpt lat="43.44121228928488" lon="12.892879018116503"><ele>275.5</ele><time>2026-05-01T09:55:55.001Z</time></trkpt><trkpt lat="43.44114809958225" lon="12.892682221242627"><ele>277.0</ele><time>2026-05-01T09:55:56.001Z</time></trkpt><trkpt lat="43.441080317132794" lon="12.892466308239127"><ele>277.0</ele><time>2026-05-01T09:55:57.001Z</time></trkpt><trkpt lat="43.44100271365469" lon="12.892238982225068"><ele>277.0</ele><time>2026-05-01T09:55:58.001Z</time></trkpt><trkpt lat="43.44092124958841" lon="12.892002046145214"><ele>277.0</ele><time>2026-05-01T09:55:59.001Z</time></trkpt><trkpt lat="43.440830504288996" lon="12.891746087096985"><ele>276.0</ele><time>2026-05-01T09:56:00.001Z</time></trkpt><trkpt lat="43.44073456273939" lon="12.891455808230855"><ele>275.0</ele><time>2026-05-01T09:56:01.001Z</time></trkpt><trkpt lat="43.440630484416836" lon="12.891153523105482"><ele>274.5</ele><time>2026-05-01T09:56:02.001Z</time></trkpt><trkpt lat="43.44051829655781" lon="12.890826401321368"><ele>274.0</ele><time>2026-05-01T09:56:03.001Z</time></trkpt><trkpt lat="43.440395040956304" lon="12.890490163921442"><ele>273.5</ele><time>2026-05-01T09:56:04.001Z</time></trkpt><trkpt lat="43.440279772561276" lon="12.89013429913514"><ele>273.0</ele><time>2026-05-01T09:56:05.001Z</time></trkpt><trkpt lat="43.440162120552046" lon="12.889770046544049"><ele>273.0</ele><time>2026-05-01T09:56:06.001Z</time></trkpt><trkpt lat="43.440046986001406" lon="12.889423330588556"><ele>273.0</ele><time>2026-05-01T09:56:07.001Z</time></trkpt><trkpt lat="43.439929625586586" lon="12.889081624593448"><ele>271.5</ele><time>2026-05-01T09:56:08.001Z</time></trkpt><trkpt lat="43.43981651136949" lon="12.888748219649537"><ele>270.0</ele><time>2026-05-01T09:56:09.001Z</time></trkpt><trkpt lat="43.439706314570635" lon="12.88841114825777"><ele>267.5</ele><time>2026-05-01T09:56:10.001Z</time></trkpt><trkpt lat="43.43959283181846" lon="12.8880734080508"><ele>265.0</ele><time>2026-05-01T09:56:11.001Z</time></trkpt><trkpt lat="43.4394784946338" lon="12.887747031002519"><ele>264.5</ele><time>2026-05-01T09:56:12.001Z</time></trkpt><trkpt lat="43.43936658387114" lon="12.887414723279752"><ele>264.0</ele><time>2026-05-01T09:56:13.001Z</time></trkpt><trkpt lat="43.439256737631716" lon="12.8870847940227"><ele>265.0</ele><time>2026-05-01T09:56:14.001Z</time></trkpt><trkpt lat="43.439145959842065" lon="12.886751929309643"><ele>266.0</ele><time>2026-05-01T09:56:15.001Z</time></trkpt><trkpt lat="43.43903556647958" lon="12.886421293413758"><ele>266.0</ele><time>2026-05-01T09:56:16.001Z</time></trkpt><trkpt lat="43.438923715113916" lon="12.88609045836574"><ele>266.0</ele><time>2026-05-01T09:56:17.001Z</time></trkpt><trkpt lat="43.43880975923423" lon="12.885763080284285"><ele>264.0</ele><time>2026-05-01T09:56:18.001Z</time></trkpt><trkpt lat="43.4386969703698" lon="12.88543696810861"><ele>262.0</ele><time>2026-05-01T09:56:19.001Z</time></trkpt><trkpt lat="43.4385868399373" lon="12.885104458634462"><ele>262.5</ele><time>2026-05-01T09:56:20.001Z</time></trkpt><trkpt lat="43.438477212323434" lon="12.884778531420508"><ele>263.0</ele><time>2026-05-01T09:56:21.001Z</time></trkpt><trkpt lat="43.438365006075045" lon="12.884450459683512"><ele>264.0</ele><time>2026-05-01T09:56:22.001Z</time></trkpt><trkpt lat="43.438256511468644" lon="12.884125214683035"><ele>265.0</ele><time>2026-05-01T09:56:23.001Z</time></trkpt><trkpt lat="43.43814806623302" lon="12.883801224358791"><ele>265.0</ele><time>2026-05-01T09:56:24.001Z</time></trkpt><trkpt lat="43.43803918576442" lon="12.883483277058213"><ele>265.0</ele><time>2026-05-01T09:56:25.001Z</time></trkpt><trkpt lat="43.437930789723936" lon="12.883164753370238"><ele>264.5</ele><time>2026-05-01T09:56:26.001Z</time></trkpt><trkpt lat="43.43782088965947" lon="12.882846831786981"><ele>264.0</ele><time>2026-05-01T09:56:27.001Z</time></trkpt><trkpt lat="43.437711572870455" lon="12.882524504850457"><ele>267.0</ele><time>2026-05-01T09:56:28.001Z</time></trkpt><trkpt lat="43.437601543261664" lon="12.882201990280027"><ele>270.0</ele><time>2026-05-01T09:56:29.001Z</time></trkpt><trkpt lat="43.43749180128244" lon="12.8818791914275"><ele>271.0</ele><time>2026-05-01T09:56:30.001Z</time></trkpt><trkpt lat="43.437381423104924" lon="12.881554816337012"><ele>272.0</ele><time>2026-05-01T09:56:31.001Z</time></trkpt><trkpt lat="43.43726928901982" lon="12.88122985148379"><ele>272.5</ele><time>2026-05-01T09:56:32.001Z</time></trkpt><trkpt lat="43.43715770110288" lon="12.88091117677086"><ele>273.0</ele><time>2026-05-01T09:56:33.001Z</time></trkpt><trkpt lat="43.43704992668789" lon="12.880592297127501"><ele>273.0</ele><time>2026-05-01T09:56:34.001Z</time></trkpt><trkpt lat="43.43694653254816" lon="12.880280409332059"><ele>273.0</ele><time>2026-05-01T09:56:35.001Z</time></trkpt><trkpt lat="43.436841013440066" lon="12.879967358931978"><ele>274.0</ele><time>2026-05-01T09:56:36.001Z</time></trkpt><trkpt lat="43.43673423631162" lon="12.879661346523616"><ele>275.0</ele><time>2026-05-01T09:56:37.001Z</time></trkpt><trkpt lat="43.43663009442944" lon="12.879357567350239"><ele>278.0</ele><time>2026-05-01T09:56:38.001Z</time></trkpt><trkpt lat="43.436528563670095" lon="12.879052078705831"><ele>281.0</ele><time>2026-05-01T09:56:39.001Z</time></trkpt><trkpt lat="43.43644415578503" lon="12.878745609103841"><ele>282.5</ele><time>2026-05-01T09:56:40.001Z</time></trkpt><trkpt lat="43.43637502959" lon="12.878430331601647"><ele>284.0</ele><time>2026-05-01T09:56:41.001Z</time></trkpt><trkpt lat="43.43630761051789" lon="12.878125194548314"><ele>284.0</ele><time>2026-05-01T09:56:42.001Z</time></trkpt><trkpt lat="43.43633284823832" lon="12.877772771593262"><ele>284.0</ele><time>2026-05-01T09:56:43.001Z</time></trkpt><trkpt lat="43.436324286011384" lon="12.877448861958882"><ele>286.0</ele><time>2026-05-01T09:56:44.001Z</time></trkpt><trkpt lat="43.43631274373655" lon="12.877132516498516"><ele>288.0</ele><time>2026-05-01T09:56:45.001Z</time></trkpt><trkpt lat="43.436301081602984" lon="12.876818208926302"><ele>281.0</ele><time>2026-05-01T09:56:46.001Z</time></trkpt><trkpt lat="43.43628899720811" lon="12.876506923573581"><ele>274.0</ele><time>2026-05-01T09:56:47.001Z</time></trkpt><trkpt lat="43.43627684256164" lon="12.87619763165637"><ele>275.3333333333333</ele><time>2026-05-01T09:56:48.001Z</time></trkpt><trkpt lat="43.436264616885786" lon="12.87588837734049"><ele>276.6666666666667</ele><time>2026-05-01T09:56:49.001Z</time></trkpt><trkpt lat="43.43625363026043" lon="12.87558109822097"><ele>278.0</ele><time>2026-05-01T09:56:50.001Z</time></trkpt><trkpt lat="43.436238992017856" lon="12.875275637901066"><ele>278.0</ele><time>2026-05-01T09:56:51.001Z</time></trkpt><trkpt lat="43.43621916568144" lon="12.874973781467558"><ele>278.0</ele><time>2026-05-01T09:56:52.001Z</time></trkpt><trkpt lat="43.43619269392784" lon="12.87468100372521"><ele>278.0</ele><time>2026-05-01T09:56:53.001Z</time></trkpt><trkpt lat="43.436153048290684" lon="12.874393429414207"><ele>279.33333333333337</ele><time>2026-05-01T09:56:54.001Z</time></trkpt><trkpt lat="43.43612519366564" lon="12.874093177841006"><ele>280.6666666666667</ele><time>2026-05-01T09:56:55.001Z</time></trkpt><trkpt lat="43.436113223156646" lon="12.873778645271974"><ele>282.0</ele><time>2026-05-01T09:56:56.001Z</time></trkpt><trkpt lat="43.43595082293551" lon="12.873649305732231"><ele>282.0</ele><time>2026-05-01T09:56:57.001Z</time></trkpt><trkpt lat="43.43592025336771" lon="12.873401257624874"><ele>282.0</ele><time>2026-05-01T09:56:58.001Z</time></trkpt><trkpt lat="43.43590252262883" lon="12.873144496734563"><ele>282.0</ele><time>2026-05-01T09:56:59.001Z</time></trkpt><trkpt lat="43.43589429498362" lon="12.872891201528565"><ele>282.0</ele><time>2026-05-01T09:57:00.001Z</time></trkpt><trkpt lat="43.435890265998594" lon="12.872631749488756"><ele>282.0</ele><time>2026-05-01T09:57:01.001Z</time></trkpt><trkpt lat="43.43587725297863" lon="12.872373836541628"><ele>282.0</ele><time>2026-05-01T09:57:02Z</time></trkpt><trkpt lat="43.435859289084036" lon="12.872113837031394"><ele>282.6666666666667</ele><time>2026-05-01T09:57:03Z</time></trkpt><trkpt lat="43.43584487398142" lon="12.87185152851102"><ele>283.33333333333337</ele><time>2026-05-01T09:57:04Z</time></trkpt><trkpt lat="43.43583234398858" lon="12.871586056737303"><ele>284.0</ele><time>2026-05-01T09:57:05Z</time></trkpt><trkpt lat="43.43580960675817" lon="12.871314993284598"><ele>284.0</ele><time>2026-05-01T09:57:06Z</time></trkpt><trkpt lat="43.435782666999216" lon="12.871062047819937"><ele>284.0</ele><time>2026-05-01T09:57:07Z</time></trkpt><trkpt lat="43.43573677426765" lon="12.870804345653506"><ele>284.0</ele><time>2026-05-01T09:57:08Z</time></trkpt><trkpt lat="43.435677725683966" lon="12.870560769387307"><ele>284.6666666666667</ele><time>2026-05-01T09:57:09Z</time></trkpt><trkpt lat="43.435587983653285" lon="12.87033702261706"><ele>285.3333333333333</ele><time>2026-05-01T09:57:10Z</time></trkpt><trkpt lat="43.43548118368969" lon="12.87012783264726"><ele>286.0</ele><time>2026-05-01T09:57:11Z</time></trkpt><trkpt lat="43.43535163554069" lon="12.869941947367845"><ele>284.66666666666663</ele><time>2026-05-01T09:57:12Z</time></trkpt><trkpt lat="43.43520500988258" lon="12.869781197974696"><ele>283.3333333333333</ele><time>2026-05-01T09:57:13Z</time></trkpt><trkpt lat="43.435048791722565" lon="12.86963070805586"><ele>282.0</ele><time>2026-05-01T09:57:14Z</time></trkpt><trkpt lat="43.4348973556007" lon="12.869473412504709"><ele>282.0</ele><time>2026-05-01T09:57:15Z</time></trkpt><trkpt lat="43.4347503724338" lon="12.869309752213475"><ele>282.0</ele><time>2026-05-01T09:57:16Z</time></trkpt><trkpt lat="43.434611978217006" lon="12.86913368515237"><ele>282.0</ele><time>2026-05-01T09:57:17Z</time></trkpt><trkpt lat="43.43448222659586" lon="12.86894893564572"><ele>283.0</ele><time>2026-05-01T09:57:18Z</time></trkpt><trkpt lat="43.43436601239662" lon="12.86874106464426"><ele>284.0</ele><time>2026-05-01T09:57:19Z</time></trkpt><trkpt lat="43.43425825937246" lon="12.868520580791365"><ele>285.0</ele><time>2026-05-01T09:57:20Z</time></trkpt><trkpt lat="43.43415271252236" lon="12.868313253374799"><ele>285.0</ele><time>2026-05-01T09:57:21Z</time></trkpt><trkpt lat="43.4340580780208" lon="12.868103566420524"><ele>285.0</ele><time>2026-05-01T09:57:22Z</time></trkpt><trkpt lat="43.43398170090592" lon="12.86788360371408"><ele>285.0</ele><time>2026-05-01T09:57:23Z</time></trkpt><trkpt lat="43.433922788948124" lon="12.867660901631389"><ele>286.6666666666667</ele><time>2026-05-01T09:57:24Z</time></trkpt><trkpt lat="43.433886750606206" lon="12.867430628050133"><ele>288.33333333333337</ele><time>2026-05-01T09:57:25Z</time></trkpt><trkpt lat="43.43386765639837" lon="12.867198966595783"><ele>290.0</ele><time>2026-05-01T09:57:26Z</time></trkpt><trkpt lat="43.4338708338061" lon="12.866962264710976"><ele>291.33333333333337</ele><time>2026-05-01T09:57:27Z</time></trkpt><trkpt lat="43.433869872515295" lon="12.866734518873423"><ele>292.6666666666667</ele><time>2026-05-01T09:57:28Z</time></trkpt><trkpt lat="43.43386788649388" lon="12.866504267449102"><ele>294.0</ele><time>2026-05-01T09:57:29Z</time></trkpt><trkpt lat="43.43386006489459" lon="12.866282917369087"><ele>294.0</ele><time>2026-05-01T09:57:30Z</time></trkpt><trkpt lat="43.43384896398128" lon="12.866072031769072"><ele>294.0</ele><time>2026-05-01T09:57:31Z</time></trkpt><trkpt lat="43.43384057413961" lon="12.865872832138955"><ele>294.0</ele><time>2026-05-01T09:57:32Z</time></trkpt><trkpt lat="43.43383640047907" lon="12.865666071605016"><ele>294.0</ele><time>2026-05-01T09:57:33Z</time></trkpt><trkpt lat="43.43383420092088" lon="12.865459333467948"><ele>295.5</ele><time>2026-05-01T09:57:34Z</time></trkpt><trkpt lat="43.43383178794943" lon="12.865260444691948"><ele>297.0</ele><time>2026-05-01T09:57:35Z</time></trkpt><trkpt lat="43.43382627476971" lon="12.865067430090985"><ele>298.5</ele><time>2026-05-01T09:57:36Z</time></trkpt><trkpt lat="43.43381711357403" lon="12.864868201790333"><ele>300.0</ele><time>2026-05-01T09:57:37Z</time></trkpt><trkpt lat="43.43380917888269" lon="12.864680295026824"><ele>296.5</ele><time>2026-05-01T09:57:38Z</time></trkpt><trkpt lat="43.433803338857984" lon="12.864491206471948"><ele>293.0</ele><time>2026-05-01T09:57:39Z</time></trkpt><trkpt lat="43.43379815586235" lon="12.864306450360559"><ele>289.5</ele><time>2026-05-01T09:57:40Z</time></trkpt><trkpt lat="43.43379645316475" lon="12.864126440442707"><ele>286.0</ele><time>2026-05-01T09:57:41Z</time></trkpt><trkpt lat="43.43378751128608" lon="12.863959564129951"><ele>285.0</ele><time>2026-05-01T09:57:42Z</time></trkpt><trkpt lat="43.43378138976395" lon="12.863794238427374"><ele>284.0</ele><time>2026-05-01T09:57:43Z</time></trkpt><trkpt lat="43.43377184949425" lon="12.863628495774936"><ele>283.0</ele><time>2026-05-01T09:57:44Z</time></trkpt><trkpt lat="43.43376488274148" lon="12.863458187499315"><ele>282.0</ele><time>2026-05-01T09:57:45Z</time></trkpt><trkpt lat="43.43375785954995" lon="12.86328552873832"><ele>282.0</ele><time>2026-05-01T09:57:46Z</time></trkpt><trkpt lat="43.43375210823476" lon="12.863113184749524"><ele>282.0</ele><time>2026-05-01T09:57:47Z</time></trkpt><trkpt lat="43.43374135744506" lon="12.862940896303616"><ele>282.0</ele><time>2026-05-01T09:57:48Z</time></trkpt><trkpt lat="43.43373658786602" lon="12.86276042029582"><ele>282.0</ele><time>2026-05-01T09:57:49Z</time></trkpt><trkpt lat="43.43373276061734" lon="12.86258183863745"><ele>282.75</ele><time>2026-05-01T09:57:50Z</time></trkpt><trkpt lat="43.4337293166129" lon="12.862395825250596"><ele>283.5</ele><time>2026-05-01T09:57:51Z</time></trkpt><trkpt lat="43.43372519905843" lon="12.862210536480776"><ele>284.25</ele><time>2026-05-01T09:57:52Z</time></trkpt><trkpt lat="43.43372293769186" lon="12.862018912529884"><ele>285.0</ele><time>2026-05-01T09:57:53Z</time></trkpt><trkpt lat="43.4337167410057" lon="12.86183648436195"><ele>285.25</ele><time>2026-05-01T09:57:54Z</time></trkpt><trkpt lat="43.433708269905715" lon="12.8616578245653"><ele>285.5</ele><time>2026-05-01T09:57:55Z</time></trkpt><trkpt lat="43.43369575837724" lon="12.861481905324453"><ele>285.75</ele><time>2026-05-01T09:57:56Z</time></trkpt><trkpt lat="43.43367118797836" lon="12.861313958232962"><ele>286.0</ele><time>2026-05-01T09:57:57Z</time></trkpt><trkpt lat="43.433624991333545" lon="12.86115412853638"><ele>286.0</ele><time>2026-05-01T09:57:58Z</time></trkpt><trkpt lat="43.43357303904721" lon="12.860996217056526"><ele>286.0</ele><time>2026-05-01T09:57:59Z</time></trkpt><trkpt lat="43.4335196383389" lon="12.86084312410152"><ele>286.0</ele><time>2026-05-01T09:58:00Z</time></trkpt><trkpt lat="43.43346564686991" lon="12.860687888817333"><ele>286.0</ele><time>2026-05-01T09:58:01Z</time></trkpt><trkpt lat="43.43340994737353" lon="12.86053337309352"><ele>286.75</ele><time>2026-05-01T09:58:02Z</time></trkpt><trkpt lat="43.433349543445225" lon="12.860383292393129"><ele>287.5</ele><time>2026-05-01T09:58:03Z</time></trkpt><trkpt lat="43.43328308284701" lon="12.860238684345203"><ele>288.25</ele><time>2026-05-01T09:58:04Z</time></trkpt><trkpt lat="43.433205884425085" lon="12.860104414940619"><ele>289.0</ele><time>2026-05-01T09:58:05Z</time></trkpt><trkpt lat="43.43312543143063" lon="12.859976342329775"><ele>288.25</ele><time>2026-05-01T09:58:06Z</time></trkpt><trkpt lat="43.43303916443317" lon="12.859852098443907"><ele>287.5</ele><time>2026-05-01T09:58:07.001Z</time></trkpt><trkpt lat="43.43294686941841" lon="12.85973368094652"><ele>286.75</ele><time>2026-05-01T09:58:08.001Z</time></trkpt><trkpt lat="43.43285244851798" lon="12.85961985964335"><ele>286.0</ele><time>2026-05-01T09:58:09.001Z</time></trkpt><trkpt lat="43.432753562810184" lon="12.859505975642612"><ele>286.0</ele><time>2026-05-01T09:58:10.001Z</time></trkpt><trkpt lat="43.4326501281966" lon="12.859400368110828"><ele>286.0</ele><time>2026-05-01T09:58:11.001Z</time></trkpt><trkpt lat="43.4325470099183" lon="12.85930681572443"><ele>286.0</ele><time>2026-05-01T09:58:12.001Z</time></trkpt><trkpt lat="43.432451107400524" lon="12.859219620460927"><ele>286.0</ele><time>2026-05-01T09:58:13.001Z</time></trkpt><trkpt lat="43.43235478876039" lon="12.859135581846736"><ele>286.8333333333333</ele><time>2026-05-01T09:58:14.001Z</time></trkpt><trkpt lat="43.43226983787574" lon="12.859052114091813"><ele>287.66666666666663</ele><time>2026-05-01T09:58:15.001Z</time></trkpt><trkpt lat="43.43218797677389" lon="12.858972519180718"><ele>288.5</ele><time>2026-05-01T09:58:16.001Z</time></trkpt><trkpt lat="43.43211737162831" lon="12.858889470972242"><ele>289.3333333333333</ele><time>2026-05-01T09:58:17.001Z</time></trkpt><trkpt lat="43.43205515698269" lon="12.858821923665708"><ele>290.1666666666667</ele><time>2026-05-01T09:58:18.001Z</time></trkpt><trkpt lat="43.43200618298497" lon="12.8587666415889"><ele>291.0</ele><time>2026-05-01T09:58:19.001Z</time></trkpt><trkpt lat="43.43193345515893" lon="12.858674809603427"><ele>291.0</ele><time>2026-05-01T09:58:21.001Z</time></trkpt><trkpt lat="43.43187899414976" lon="12.858610624895006"><ele>291.0</ele><time>2026-05-01T09:58:23.001Z</time></trkpt><trkpt lat="43.43182668082919" lon="12.85854332745643"><ele>291.0</ele><time>2026-05-01T09:58:25.001Z</time></trkpt><trkpt lat="43.43180615278207" lon="12.858404409086504"><ele>291.0</ele><time>2026-05-01T09:58:28.001Z</time></trkpt><trkpt lat="43.43179348348485" lon="12.858292924923632"><ele>291.0</ele><time>2026-05-01T09:58:30.001Z</time></trkpt><trkpt lat="43.4318097604285" lon="12.858158107792589"><ele>291.0</ele><time>2026-05-01T09:58:32.001Z</time></trkpt><trkpt lat="43.431817281296176" lon="12.858014486695911"><ele>291.8</ele><time>2026-05-01T09:58:34.001Z</time></trkpt><trkpt lat="43.43183761035358" lon="12.857851605056634"><ele>292.6</ele><time>2026-05-01T09:58:36.001Z</time></trkpt><trkpt lat="43.43185099871769" lon="12.857690861264894"><ele>293.4</ele><time>2026-05-01T09:58:38.001Z</time></trkpt><trkpt lat="43.43188073015643" lon="12.857543538547125"><ele>294.2</ele><time>2026-05-01T09:58:40.001Z</time></trkpt><trkpt lat="43.43188911598224" lon="12.857408998471012"><ele>295.0</ele><time>2026-05-01T09:58:42Z</time></trkpt><trkpt lat="43.431882849882534" lon="12.857290132272071"><ele>295.5</ele><time>2026-05-01T09:58:44Z</time></trkpt><trkpt lat="43.431867948256325" lon="12.85717951128036"><ele>296.0</ele><time>2026-05-01T09:58:46Z</time></trkpt><trkpt lat="43.43185701082372" lon="12.857071938573169"><ele>296.5</ele><time>2026-05-01T09:58:48Z</time></trkpt><trkpt lat="43.43185630396834" lon="12.856965810048818"><ele>297.0</ele><time>2026-05-01T09:58:50Z</time></trkpt><trkpt lat="43.431886489071566" lon="12.856855344005051"><ele>297.5</ele><time>2026-05-01T09:58:52Z</time></trkpt><trkpt lat="43.431944715296844" lon="12.856783378820925"><ele>298.0</ele><time>2026-05-01T09:58:54Z</time></trkpt><trkpt lat="43.4320027268922" lon="12.856725067989938"><ele>298.8333333333333</ele><time>2026-05-01T09:58:56Z</time></trkpt><trkpt lat="43.43206561718617" lon="12.85667832816053"><ele>299.66666666666663</ele><time>2026-05-01T09:58:58Z</time></trkpt><trkpt lat="43.4321296196671" lon="12.856607876514815"><ele>300.5</ele><time>2026-05-01T09:59:01Z</time></trkpt><trkpt lat="43.43218680686318" lon="12.856558580363751"><ele>301.3333333333333</ele><time>2026-05-01T09:59:07Z</time></trkpt><trkpt lat="43.432244193613585" lon="12.856506717469964"><ele>302.1666666666667</ele><time>2026-05-01T09:59:13Z</time></trkpt><trkpt lat="43.43231712273324" lon="12.85643947617365"><ele>303.0</ele><time>2026-05-01T09:59:28Z</time></trkpt><trkpt lat="43.43238608482408" lon="12.856370082330535"><ele>303.0</ele><time>2026-05-01T09:59:30Z</time></trkpt><trkpt lat="43.43245513418491" lon="12.856299320436104"><ele>303.0</ele><time>2026-05-01T09:59:32Z</time></trkpt><trkpt lat="43.43253044169749" lon="12.856222145177888"><ele>303.0</ele><time>2026-05-01T09:59:34Z</time></trkpt><trkpt lat="43.432600261416866" lon="12.856118875996165"><ele>303.0</ele><time>2026-05-01T09:59:36Z</time></trkpt><trkpt lat="43.43268552012883" lon="12.85603219492751"><ele>303.0</ele><time>2026-05-01T09:59:38Z</time></trkpt><trkpt lat="43.4327619777807" lon="12.855956669387181"><ele>303.0</ele><time>2026-05-01T09:59:40Z</time></trkpt><trkpt lat="43.43284347149089" lon="12.855899799922232"><ele>303.0</ele><time>2026-05-01T09:59:42Z</time></trkpt><trkpt lat="43.43287898016145" lon="12.855817814633971"><ele>303.0</ele><time>2026-05-01T09:59:43Z</time></trkpt><trkpt lat="43.43293999818963" lon="12.855761672660696"><ele>303.0</ele><time>2026-05-01T09:59:44Z</time></trkpt><trkpt lat="43.433000366843444" lon="12.855706785439848"><ele>303.0</ele><time>2026-05-01T09:59:45Z</time></trkpt><trkpt lat="43.433065951231846" lon="12.855644793453669"><ele>303.0</ele><time>2026-05-01T09:59:46Z</time></trkpt><trkpt lat="43.433137019002814" lon="12.855570863887921"><ele>303.0</ele><time>2026-05-01T09:59:47Z</time></trkpt><trkpt lat="43.43322573090717" lon="12.855507008485507"><ele>303.0</ele><time>2026-05-01T09:59:48Z</time></trkpt><trkpt lat="43.433302175671514" lon="12.855407291173728"><ele>303.0</ele><time>2026-05-01T09:59:49Z</time></trkpt><trkpt lat="43.433391956018575" lon="12.855343771591489"><ele>303.0</ele><time>2026-05-01T09:59:50Z</time></trkpt><trkpt lat="43.433477027795384" lon="12.85526040439754"><ele>303.0</ele><time>2026-05-01T09:59:51Z</time></trkpt><trkpt lat="43.43356200191116" lon="12.85517713290404"><ele>301.8</ele><time>2026-05-01T09:59:52Z</time></trkpt><trkpt lat="43.433650093381985" lon="12.855093202953498"><ele>300.6</ele><time>2026-05-01T09:59:53Z</time></trkpt><trkpt lat="43.43374183286013" lon="12.855007969941239"><ele>299.4</ele><time>2026-05-01T09:59:54Z</time></trkpt><trkpt lat="43.433835276922224" lon="12.854923289757606"><ele>298.2</ele><time>2026-05-01T09:59:55Z</time></trkpt><trkpt lat="43.433925669865864" lon="12.854835087577356"><ele>297.0</ele><time>2026-05-01T09:59:56Z</time></trkpt><trkpt lat="43.43401024282005" lon="12.854732821432655"><ele>297.0</ele><time>2026-05-01T09:59:57Z</time></trkpt><trkpt lat="43.43409237102" lon="12.854627902308868"><ele>297.0</ele><time>2026-05-01T09:59:58Z</time></trkpt><trkpt lat="43.434176500647176" lon="12.854519623609374"><ele>297.0</ele><time>2026-05-01T09:59:59Z</time></trkpt><trkpt lat="43.43426073280311" lon="12.854410793697673"><ele>297.0</ele><time>2026-05-01T10:00:00Z</time></trkpt><trkpt lat="43.434330284647" lon="12.854292087639639"><ele>296.25</ele><time>2026-05-01T10:00:01Z</time></trkpt><trkpt lat="43.4344219813416" lon="12.854193459711396"><ele>295.5</ele><time>2026-05-01T10:00:02Z</time></trkpt><trkpt lat="43.43451054035477" lon="12.85408792524821"><ele>294.75</ele><time>2026-05-01T10:00:03Z</time></trkpt><trkpt lat="43.43459753190264" lon="12.853982384270001"><ele>294.0</ele><time>2026-05-01T10:00:04Z</time></trkpt><trkpt lat="43.434691392523625" lon="12.853871825928424"><ele>294.0</ele><time>2026-05-01T10:00:05Z</time></trkpt><trkpt lat="43.43477857670828" lon="12.853738448731827"><ele>294.0</ele><time>2026-05-01T10:00:06Z</time></trkpt><trkpt lat="43.43487136881532" lon="12.853614903834602"><ele>294.0</ele><time>2026-05-01T10:00:07Z</time></trkpt><trkpt lat="43.434973041420875" lon="12.853492008571424"><ele>294.0</ele><time>2026-05-01T10:00:08Z</time></trkpt><trkpt lat="43.43507455762759" lon="12.85335801234191"><ele>293.25</ele><time>2026-05-01T10:00:09Z</time></trkpt><trkpt lat="43.43518181418681" lon="12.853222197759855"><ele>292.5</ele><time>2026-05-01T10:00:10Z</time></trkpt><trkpt lat="43.43529078233584" lon="12.853080486238241"><ele>291.75</ele><time>2026-05-01T10:00:11Z</time></trkpt><trkpt lat="43.43539959816984" lon="12.852943013907158"><ele>291.0</ele><time>2026-05-01T10:00:12Z</time></trkpt><trkpt lat="43.4355113253701" lon="12.8528015111209"><ele>290.75</ele><time>2026-05-01T10:00:13Z</time></trkpt><trkpt lat="43.43561980963523" lon="12.85267472807901"><ele>290.5</ele><time>2026-05-01T10:00:14Z</time></trkpt><trkpt lat="43.43573186399201" lon="12.852547753709223"><ele>290.25</ele><time>2026-05-01T10:00:15Z</time></trkpt><trkpt lat="43.43583946585485" lon="12.852422838432771"><ele>290.0</ele><time>2026-05-01T10:00:16Z</time></trkpt><trkpt lat="43.43595253192695" lon="12.852302675048996"><ele>290.0</ele><time>2026-05-01T10:00:17Z</time></trkpt><trkpt lat="43.43606864742796" lon="12.852179204174826"><ele>290.0</ele><time>2026-05-01T10:00:18Z</time></trkpt><trkpt lat="43.43619424893685" lon="12.852062498532645"><ele>290.0</ele><time>2026-05-01T10:00:19Z</time></trkpt><trkpt lat="43.4363234029904" lon="12.851961032760075"><ele>290.0</ele><time>2026-05-01T10:00:20Z</time></trkpt><trkpt lat="43.43645785961001" lon="12.851881796402672"><ele>290.0</ele><time>2026-05-01T10:00:21Z</time></trkpt><trkpt lat="43.43659730481216" lon="12.851813522907417"><ele>290.0</ele><time>2026-05-01T10:00:22Z</time></trkpt><trkpt lat="43.43673384217506" lon="12.85175089813232"><ele>290.0</ele><time>2026-05-01T10:00:23Z</time></trkpt><trkpt lat="43.43687407261556" lon="12.851689164964123"><ele>290.0</ele><time>2026-05-01T10:00:24Z</time></trkpt><trkpt lat="43.4370183287854" lon="12.85162876590639"><ele>294.33333333333337</ele><time>2026-05-01T10:00:25Z</time></trkpt><trkpt lat="43.43716368561471" lon="12.851569053094812"><ele>298.6666666666667</ele><time>2026-05-01T10:00:26Z</time></trkpt><trkpt lat="43.43730806423059" lon="12.851506138553061"><ele>303.0</ele><time>2026-05-01T10:00:27Z</time></trkpt><trkpt lat="43.43744579059074" lon="12.851426506864556"><ele>303.0</ele><time>2026-05-01T10:00:28Z</time></trkpt><trkpt lat="43.43757423989167" lon="12.851327641303643"><ele>303.0</ele><time>2026-05-01T10:00:29Z</time></trkpt><trkpt lat="43.43770705755742" lon="12.851213423996741"><ele>303.0</ele><time>2026-05-01T10:00:30Z</time></trkpt><trkpt lat="43.43783801683868" lon="12.851099508688645"><ele>304.0</ele><time>2026-05-01T10:00:31Z</time></trkpt><trkpt lat="43.43797155469866" lon="12.850985947577502"><ele>305.0</ele><time>2026-05-01T10:00:32Z</time></trkpt><trkpt lat="43.43810714008787" lon="12.850883146096571"><ele>306.0</ele><time>2026-05-01T10:00:33Z</time></trkpt><trkpt lat="43.438244754812864" lon="12.850784277137125"><ele>306.0</ele><time>2026-05-01T10:00:34Z</time></trkpt><trkpt lat="43.43838718256482" lon="12.850694373031489"><ele>306.0</ele><time>2026-05-01T10:00:35Z</time></trkpt><trkpt lat="43.43853370013922" lon="12.850632133254297"><ele>306.0</ele><time>2026-05-01T10:00:36Z</time></trkpt><trkpt lat="43.438688856056245" lon="12.850590242082575"><ele>306.3333333333333</ele><time>2026-05-01T10:00:37Z</time></trkpt><trkpt lat="43.43884765602455" lon="12.850549395221364"><ele>306.66666666666663</ele><time>2026-05-01T10:00:38Z</time></trkpt><trkpt lat="43.43900870155732" lon="12.850496081561454"><ele>307.0</ele><time>2026-05-01T10:00:39Z</time></trkpt><trkpt lat="43.439167501048814" lon="12.850445185236845"><ele>307.0</ele><time>2026-05-01T10:00:40Z</time></trkpt><trkpt lat="43.439330208504025" lon="12.850394202975775"><ele>307.0</ele><time>2026-05-01T10:00:41Z</time></trkpt><trkpt lat="43.43949361166174" lon="12.850344181697647"><ele>307.0</ele><time>2026-05-01T10:00:42Z</time></trkpt><trkpt lat="43.43965990148384" lon="12.850301307920303"><ele>307.0</ele><time>2026-05-01T10:00:43Z</time></trkpt><trkpt lat="43.43982911254984" lon="12.850253875651498"><ele>307.0</ele><time>2026-05-01T10:00:44Z</time></trkpt><trkpt lat="43.439999826464565" lon="12.850205351966775"><ele>307.0</ele><time>2026-05-01T10:00:45Z</time></trkpt><trkpt lat="43.44016923317115" lon="12.850150559111428"><ele>308.66666666666663</ele><time>2026-05-01T10:00:46Z</time></trkpt><trkpt lat="43.44033288984547" lon="12.85008862081722"><ele>310.3333333333333</ele><time>2026-05-01T10:00:47Z</time></trkpt><trkpt lat="43.44049803430309" lon="12.850033119514412"><ele>312.0</ele><time>2026-05-01T10:00:48Z</time></trkpt><trkpt lat="43.44066467928313" lon="12.84998171467772"><ele>312.3333333333333</ele><time>2026-05-01T10:00:49Z</time></trkpt><trkpt lat="43.440825903122246" lon="12.849923907716265"><ele>312.66666666666663</ele><time>2026-05-01T10:00:50Z</time></trkpt><trkpt lat="43.4409938752797" lon="12.849877123853668"><ele>313.0</ele><time>2026-05-01T10:00:51Z</time></trkpt><trkpt lat="43.44115545959533" lon="12.849829029288248"><ele>313.3333333333333</ele><time>2026-05-01T10:00:52Z</time></trkpt><trkpt lat="43.441316738643835" lon="12.849781723269805"><ele>313.6666666666667</ele><time>2026-05-01T10:00:53Z</time></trkpt><trkpt lat="43.441477099831175" lon="12.849731008942902"><ele>314.0</ele><time>2026-05-01T10:00:54Z</time></trkpt><trkpt lat="43.441635682091864" lon="12.849681644867202"><ele>314.0</ele><time>2026-05-01T10:00:55Z</time></trkpt><trkpt lat="43.44179144611149" lon="12.849630465796203"><ele>314.0</ele><time>2026-05-01T10:00:56Z</time></trkpt><trkpt lat="43.44194699174139" lon="12.849580637044488"><ele>314.0</ele><time>2026-05-01T10:00:57Z</time></trkpt><trkpt lat="43.44210399124013" lon="12.849531396472818"><ele>313.6666666666667</ele><time>2026-05-01T10:00:58Z</time></trkpt><trkpt lat="43.44225955984163" lon="12.849479376091502"><ele>313.3333333333333</ele><time>2026-05-01T10:00:59Z</time></trkpt><trkpt lat="43.44241211461075" lon="12.849425208196164"><ele>313.0</ele><time>2026-05-01T10:01:00Z</time></trkpt><trkpt lat="43.44257148485102" lon="12.849381722267207"><ele>313.0</ele><time>2026-05-01T10:01:01Z</time></trkpt><trkpt lat="43.44273010576077" lon="12.849331143255425"><ele>313.0</ele><time>2026-05-01T10:01:02Z</time></trkpt><trkpt lat="43.44289183822258" lon="12.849284785238671"><ele>313.0</ele><time>2026-05-01T10:01:03Z</time></trkpt><trkpt lat="43.443054129352454" lon="12.849230378692226"><ele>313.0</ele><time>2026-05-01T10:01:04Z</time></trkpt><trkpt lat="43.44321331517586" lon="12.849161452089199"><ele>313.0</ele><time>2026-05-01T10:01:05Z</time></trkpt><trkpt lat="43.44336864592286" lon="12.849077103627836"><ele>313.0</ele><time>2026-05-01T10:01:06Z</time></trkpt><trkpt lat="43.44351981428276" lon="12.84897134832917"><ele>313.0</ele><time>2026-05-01T10:01:07Z</time></trkpt><trkpt lat="43.44367270918943" lon="12.848869050233287"><ele>313.0</ele><time>2026-05-01T10:01:08Z</time></trkpt><trkpt lat="43.44381746137838" lon="12.848761030091177"><ele>313.0</ele><time>2026-05-01T10:01:09Z</time></trkpt><trkpt lat="43.4439520143353" lon="12.848641154504174"><ele>314.0</ele><time>2026-05-01T10:01:10Z</time></trkpt><trkpt lat="43.444079614487485" lon="12.848510631475767"><ele>315.0</ele><time>2026-05-01T10:01:11Z</time></trkpt><trkpt lat="43.44420720646767" lon="12.848374144801904"><ele>316.0</ele><time>2026-05-01T10:01:12Z</time></trkpt><trkpt lat="43.444348380220056" lon="12.848268380511804"><ele>316.0</ele><time>2026-05-01T10:01:13Z</time></trkpt><trkpt lat="43.44448423763475" lon="12.848144378918391"><ele>316.0</ele><time>2026-05-01T10:01:14Z</time></trkpt><trkpt lat="43.444617603946234" lon="12.848021213158674"><ele>316.0</ele><time>2026-05-01T10:01:15Z</time></trkpt><trkpt lat="43.444740463031195" lon="12.847906297083773"><ele>316.3333333333333</ele><time>2026-05-01T10:01:16Z</time></trkpt><trkpt lat="43.44485702533514" lon="12.84779727066375"><ele>316.6666666666667</ele><time>2026-05-01T10:01:17Z</time></trkpt><trkpt lat="43.444956784859485" lon="12.847703960810872"><ele>317.0</ele><time>2026-05-01T10:01:18Z</time></trkpt><trkpt lat="43.44519076840016" lon="12.84747139474633"><ele>317.0</ele><time>2026-05-01T10:01:19Z</time></trkpt><trkpt lat="43.44532998549658" lon="12.84739086292134"><ele>317.0</ele><time>2026-05-01T10:01:20Z</time></trkpt><trkpt lat="43.44546275070396" lon="12.847283206480588"><ele>317.0</ele><time>2026-05-01T10:01:21Z</time></trkpt><trkpt lat="43.44561635932044" lon="12.847249535749624"><ele>316.0</ele><time>2026-05-01T10:01:22Z</time></trkpt><trkpt lat="43.44576528695002" lon="12.84723730784798"><ele>315.0</ele><time>2026-05-01T10:01:23Z</time></trkpt><trkpt lat="43.4459157796957" lon="12.847248842296908"><ele>314.0</ele><time>2026-05-01T10:01:24Z</time></trkpt><trkpt lat="43.446059702922035" lon="12.847338254242128"><ele>314.0</ele><time>2026-05-01T10:01:25Z</time></trkpt><trkpt lat="43.44619903415605" lon="12.847409613928313"><ele>314.0</ele><time>2026-05-01T10:01:26Z</time></trkpt><trkpt lat="43.446325406473974" lon="12.847503335512027"><ele>314.0</ele><time>2026-05-01T10:01:27Z</time></trkpt><trkpt lat="43.44644848537919" lon="12.847612713589562"><ele>314.0</ele><time>2026-05-01T10:01:28Z</time></trkpt><trkpt lat="43.446574569102786" lon="12.847707845633622"><ele>316.0</ele><time>2026-05-01T10:01:29Z</time></trkpt><trkpt lat="43.44669822236398" lon="12.847805895287205"><ele>318.0</ele><time>2026-05-01T10:01:30Z</time></trkpt><trkpt lat="43.446829050885825" lon="12.847891637871747"><ele>320.0</ele><time>2026-05-01T10:01:31Z</time></trkpt><trkpt lat="43.44696936411381" lon="12.847944247668543"><ele>322.0</ele><time>2026-05-01T10:01:32Z</time></trkpt><trkpt lat="43.447115800245136" lon="12.847973407190109"><ele>322.66666666666663</ele><time>2026-05-01T10:01:33Z</time></trkpt><trkpt lat="43.447265123391986" lon="12.84798525002707"><ele>323.3333333333333</ele><time>2026-05-01T10:01:34Z</time></trkpt><trkpt lat="43.44741954228569" lon="12.84797445917312"><ele>324.0</ele><time>2026-05-01T10:01:35Z</time></trkpt><trkpt lat="43.44756618012321" lon="12.847942650532723"><ele>324.0</ele><time>2026-05-01T10:01:36Z</time></trkpt><trkpt lat="43.44772390505274" lon="12.847909873196944"><ele>324.0</ele><time>2026-05-01T10:01:37Z</time></trkpt><trkpt lat="43.44787882747552" lon="12.84789097032103"><ele>324.0</ele><time>2026-05-01T10:01:38Z</time></trkpt><trkpt lat="43.44803104902328" lon="12.847869727407877"><ele>324.6666666666667</ele><time>2026-05-01T10:01:39Z</time></trkpt><trkpt lat="43.44818794888457" lon="12.847844474317025"><ele>325.33333333333337</ele><time>2026-05-01T10:01:40Z</time></trkpt><trkpt lat="43.44834508565252" lon="12.847809982921833"><ele>326.0</ele><time>2026-05-01T10:01:41Z</time></trkpt><trkpt lat="43.448500052551736" lon="12.847789038753849"><ele>326.0</ele><time>2026-05-01T10:01:42Z</time></trkpt><trkpt lat="43.448654180179275" lon="12.84779179032512"><ele>326.0</ele><time>2026-05-01T10:01:43Z</time></trkpt><trkpt lat="43.44880311733179" lon="12.847772616504612"><ele>326.0</ele><time>2026-05-01T10:01:44Z</time></trkpt><trkpt lat="43.44895387379592" lon="12.847731542159526"><ele>326.0</ele><time>2026-05-01T10:01:45Z</time></trkpt><trkpt lat="43.44911193416625" lon="12.847734318776688"><ele>326.0</ele><time>2026-05-01T10:01:46Z</time></trkpt><trkpt lat="43.44926732810798" lon="12.847693758912246"><ele>326.0</ele><time>2026-05-01T10:01:47Z</time></trkpt><trkpt lat="43.449415522640024" lon="12.847681074594886"><ele>326.0</ele><time>2026-05-01T10:01:48Z</time></trkpt><trkpt lat="43.44956271921198" lon="12.84766052670314"><ele>326.0</ele><time>2026-05-01T10:01:49Z</time></trkpt><trkpt lat="43.44971664054119" lon="12.847644705585497"><ele>326.0</ele><time>2026-05-01T10:01:50Z</time></trkpt><trkpt lat="43.4498716769467" lon="12.847640858216273"><ele>327.0</ele><time>2026-05-01T10:01:51Z</time></trkpt><trkpt lat="43.45002512991602" lon="12.84760569577649"><ele>328.0</ele><time>2026-05-01T10:01:52Z</time></trkpt><trkpt lat="43.45018410767958" lon="12.847589705606708"><ele>329.0</ele><time>2026-05-01T10:01:53Z</time></trkpt><trkpt lat="43.45034947270705" lon="12.847569723543444"><ele>330.0</ele><time>2026-05-01T10:01:54Z</time></trkpt><trkpt lat="43.450515727878816" lon="12.84754907509548"><ele>331.0</ele><time>2026-05-01T10:01:55Z</time></trkpt><trkpt lat="43.45068386161088" lon="12.8475282125852"><ele>332.0</ele><time>2026-05-01T10:01:56Z</time></trkpt><trkpt lat="43.4508501872022" lon="12.847512581887015"><ele>332.0</ele><time>2026-05-01T10:01:57Z</time></trkpt><trkpt lat="43.4510209645509" lon="12.84748193761828"><ele>332.0</ele><time>2026-05-01T10:01:58Z</time></trkpt><trkpt lat="43.45120061392102" lon="12.847461042365243"><ele>332.0</ele><time>2026-05-01T10:01:59Z</time></trkpt><trkpt lat="43.45137033402897" lon="12.847441391057218"><ele>332.0</ele><time>2026-05-01T10:02:00Z</time></trkpt><trkpt lat="43.451541968217555" lon="12.847433730020668"><ele>332.0</ele><time>2026-05-01T10:02:01Z</time></trkpt><trkpt lat="43.4517150799899" lon="12.847391494900666"><ele>332.0</ele><time>2026-05-01T10:02:02Z</time></trkpt><trkpt lat="43.45188699896353" lon="12.847370011861122"><ele>332.0</ele><time>2026-05-01T10:02:03Z</time></trkpt><trkpt lat="43.45205673613947" lon="12.84734863754695"><ele>332.0</ele><time>2026-05-01T10:02:04Z</time></trkpt><trkpt lat="43.452231803333156" lon="12.847311352075405"><ele>332.0</ele><time>2026-05-01T10:02:05Z</time></trkpt><trkpt lat="43.452407670848274" lon="12.847268519801391"><ele>332.0</ele><time>2026-05-01T10:02:06Z</time></trkpt><trkpt lat="43.45258252081151" lon="12.847216384000411"><ele>332.0</ele><time>2026-05-01T10:02:07Z</time></trkpt><trkpt lat="43.452754585906504" lon="12.84715861532364"><ele>332.0</ele><time>2026-05-01T10:02:08Z</time></trkpt><trkpt lat="43.45292956365851" lon="12.84709065801913"><ele>331.0</ele><time>2026-05-01T10:02:09Z</time></trkpt><trkpt lat="43.453105660775904" lon="12.847021928649843"><ele>330.0</ele><time>2026-05-01T10:02:10Z</time></trkpt><trkpt lat="43.453276926261914" lon="12.846958944842331"><ele>329.0</ele><time>2026-05-01T10:02:11Z</time></trkpt><trkpt lat="43.453447148270655" lon="12.846899733036409"><ele>329.0</ele><time>2026-05-01T10:02:12Z</time></trkpt><trkpt lat="43.45361509969442" lon="12.846831609667772"><ele>329.0</ele><time>2026-05-01T10:02:13Z</time></trkpt><trkpt lat="43.45379090520607" lon="12.84674908774745"><ele>329.0</ele><time>2026-05-01T10:02:14Z</time></trkpt><trkpt lat="43.45396768508391" lon="12.846651772293754"><ele>331.0</ele><time>2026-05-01T10:02:15Z</time></trkpt><trkpt lat="43.45413665634743" lon="12.846546463619898"><ele>333.0</ele><time>2026-05-01T10:02:16Z</time></trkpt><trkpt lat="43.45430523953607" lon="12.846432236718615"><ele>335.0</ele><time>2026-05-01T10:02:17Z</time></trkpt><trkpt lat="43.45447569238421" lon="12.846322840914485"><ele>335.0</ele><time>2026-05-01T10:02:18Z</time></trkpt><trkpt lat="43.45464922849235" lon="12.846202174574948"><ele>335.0</ele><time>2026-05-01T10:02:19Z</time></trkpt><trkpt lat="43.45483371942759" lon="12.846073713263856"><ele>335.0</ele><time>2026-05-01T10:02:20Z</time></trkpt><trkpt lat="43.455025174538925" lon="12.845948121685836"><ele>338.0</ele><time>2026-05-01T10:02:21Z</time></trkpt><trkpt lat="43.45522733062633" lon="12.845813192201257"><ele>341.0</ele><time>2026-05-01T10:02:22Z</time></trkpt><trkpt lat="43.45543039865148" lon="12.845675382940621"><ele>339.0</ele><time>2026-05-01T10:02:23Z</time></trkpt><trkpt lat="43.45564064668925" lon="12.845536602545733"><ele>337.0</ele><time>2026-05-01T10:02:24Z</time></trkpt><trkpt lat="43.45583991524648" lon="12.845398567244466"><ele>337.0</ele><time>2026-05-01T10:02:25Z</time></trkpt><trkpt lat="43.45602243360235" lon="12.845274479255188"><ele>337.0</ele><time>2026-05-01T10:02:26Z</time></trkpt><trkpt lat="43.45619118383663" lon="12.845162718878962"><ele>337.0</ele><time>2026-05-01T10:02:27Z</time></trkpt><trkpt lat="43.45634556790765" lon="12.845048440598674"><ele>337.3333333333333</ele><time>2026-05-01T10:02:28Z</time></trkpt><trkpt lat="43.45649123572041" lon="12.844930807164475"><ele>337.6666666666667</ele><time>2026-05-01T10:02:29Z</time></trkpt><trkpt lat="43.45662605380174" lon="12.844775454847717"><ele>338.0</ele><time>2026-05-01T10:02:30Z</time></trkpt><trkpt lat="43.45674673366328" lon="12.844566196431229"><ele>338.0</ele><time>2026-05-01T10:02:31Z</time></trkpt><trkpt lat="43.45685455919526" lon="12.844329516812305"><ele>338.0</ele><time>2026-05-01T10:02:32Z</time></trkpt><trkpt lat="43.45696084386589" lon="12.844084659025977"><ele>338.0</ele><time>2026-05-01T10:02:33Z</time></trkpt><trkpt lat="43.45710503078923" lon="12.843848749122916"><ele>337.5</ele><time>2026-05-01T10:02:34Z</time></trkpt><trkpt lat="43.4572234217517" lon="12.843579085232266"><ele>337.0</ele><time>2026-05-01T10:02:35Z</time></trkpt><trkpt lat="43.45736220347884" lon="12.8433106172446"><ele>339.0</ele><time>2026-05-01T10:02:36Z</time></trkpt><trkpt lat="43.45750435530809" lon="12.843034953286727"><ele>341.0</ele><time>2026-05-01T10:02:37Z</time></trkpt><trkpt lat="43.45765190293172" lon="12.842739687285697"><ele>340.5</ele><time>2026-05-01T10:02:38Z</time></trkpt><trkpt lat="43.457808940744314" lon="12.84243313761818"><ele>340.0</ele><time>2026-05-01T10:02:39Z</time></trkpt><trkpt lat="43.45796839400007" lon="12.842113647566059"><ele>342.5</ele><time>2026-05-01T10:02:40Z</time></trkpt><trkpt lat="43.45812762317227" lon="12.841796065002631"><ele>345.0</ele><time>2026-05-01T10:02:41Z</time></trkpt><trkpt lat="43.458281576726186" lon="12.841485998485375"><ele>345.0</ele><time>2026-05-01T10:02:42Z</time></trkpt><trkpt lat="43.45843963138609" lon="12.84117179587512"><ele>345.0</ele><time>2026-05-01T10:02:43Z</time></trkpt><trkpt lat="43.45859893332768" lon="12.840856646958622"><ele>346.0</ele><time>2026-05-01T10:02:44Z</time></trkpt><trkpt lat="43.45875620282019" lon="12.840536366858563"><ele>347.0</ele><time>2026-05-01T10:02:45Z</time></trkpt><trkpt lat="43.45892084157025" lon="12.8402176529065"><ele>347.5</ele><time>2026-05-01T10:02:46Z</time></trkpt><trkpt lat="43.45908791986518" lon="12.839903480534408"><ele>348.0</ele><time>2026-05-01T10:02:47Z</time></trkpt><trkpt lat="43.45923914780552" lon="12.839576301543547"><ele>349.0</ele><time>2026-05-01T10:02:48Z</time></trkpt><trkpt lat="43.459390274312874" lon="12.839253938430499"><ele>350.0</ele><time>2026-05-01T10:02:49Z</time></trkpt><trkpt lat="43.45956863117539" lon="12.838913223502553"><ele>350.0</ele><time>2026-05-01T10:02:50Z</time></trkpt><trkpt lat="43.45972877909927" lon="12.838591031036259"><ele>350.0</ele><time>2026-05-01T10:02:51Z</time></trkpt><trkpt lat="43.45988400774468" lon="12.838280125011513"><ele>350.0</ele><time>2026-05-01T10:02:52Z</time></trkpt><trkpt lat="43.460034505072976" lon="12.837998804135065"><ele>350.0</ele><time>2026-05-01T10:02:53Z</time></trkpt><trkpt lat="43.460169869407196" lon="12.837730273058828"><ele>349.6666666666667</ele><time>2026-05-01T10:02:54Z</time></trkpt><trkpt lat="43.460298161620784" lon="12.8374781003174"><ele>349.3333333333333</ele><time>2026-05-01T10:02:55Z</time></trkpt><trkpt lat="43.46041529778532" lon="12.837247891297451"><ele>349.0</ele><time>2026-05-01T10:02:56Z</time></trkpt><trkpt lat="43.46052441612206" lon="12.837023362371673"><ele>349.0</ele><time>2026-05-01T10:02:57Z</time></trkpt><trkpt lat="43.46061730584262" lon="12.83680379818857"><ele>349.0</ele><time>2026-05-01T10:02:58Z</time></trkpt><trkpt lat="43.4606840861698" lon="12.83656769002853"><ele>349.0</ele><time>2026-05-01T10:02:59Z</time></trkpt><trkpt lat="43.46070959219756" lon="12.836298125230403"><ele>350.3333333333333</ele><time>2026-05-01T10:03:00Z</time></trkpt><trkpt lat="43.46070784239962" lon="12.836025505569395"><ele>351.6666666666667</ele><time>2026-05-01T10:03:01Z</time></trkpt><trkpt lat="43.46066603936047" lon="12.835738168227913"><ele>353.0</ele><time>2026-05-01T10:03:02Z</time></trkpt><trkpt lat="43.46061087008217" lon="12.83546005003997"><ele>355.0</ele><time>2026-05-01T10:03:03Z</time></trkpt><trkpt lat="43.46053596678561" lon="12.835161590588635"><ele>357.0</ele><time>2026-05-01T10:03:04Z</time></trkpt><trkpt lat="43.46048305687677" lon="12.834866700234512"><ele>363.5</ele><time>2026-05-01T10:03:05Z</time></trkpt><trkpt lat="43.460438370263375" lon="12.834551256987886"><ele>370.0</ele><time>2026-05-01T10:03:06Z</time></trkpt><trkpt lat="43.46038318342408" lon="12.834234241968817"><ele>370.0</ele><time>2026-05-01T10:03:07Z</time></trkpt><trkpt lat="43.46033115495485" lon="12.833922107385936"><ele>370.0</ele><time>2026-05-01T10:03:08Z</time></trkpt><trkpt lat="43.46027786615099" lon="12.833605004920418"><ele>369.66666666666663</ele><time>2026-05-01T10:03:09Z</time></trkpt><trkpt lat="43.46022985225994" lon="12.833303977814634"><ele>369.3333333333333</ele><time>2026-05-01T10:03:10Z</time></trkpt><trkpt lat="43.46018577184917" lon="12.833003370593943"><ele>369.0</ele><time>2026-05-01T10:03:11Z</time></trkpt><trkpt lat="43.460138579029284" lon="12.832711696346513"><ele>369.0</ele><time>2026-05-01T10:03:12Z</time></trkpt><trkpt lat="43.46008345757855" lon="12.832420850659936"><ele>369.0</ele><time>2026-05-01T10:03:13Z</time></trkpt><trkpt lat="43.46003739620797" lon="12.832119639138332"><ele>369.0</ele><time>2026-05-01T10:03:14Z</time></trkpt><trkpt lat="43.459990371681556" lon="12.831825249703599"><ele>368.6666666666667</ele><time>2026-05-01T10:03:15Z</time></trkpt><trkpt lat="43.45994802833159" lon="12.83153258307512"><ele>368.33333333333337</ele><time>2026-05-01T10:03:16Z</time></trkpt><trkpt lat="43.45990686663289" lon="12.831247036359459"><ele>368.0</ele><time>2026-05-01T10:03:17Z</time></trkpt><trkpt lat="43.45988586840439" lon="12.830956292527173"><ele>366.5</ele><time>2026-05-01T10:03:18Z</time></trkpt><trkpt lat="43.45990016891309" lon="12.83063921745428"><ele>365.0</ele><time>2026-05-01T10:03:19Z</time></trkpt><trkpt lat="43.45993772066508" lon="12.8303168958813"><ele>365.0</ele><time>2026-05-01T10:03:20Z</time></trkpt><trkpt lat="43.46001638001124" lon="12.830005257276873"><ele>365.0</ele><time>2026-05-01T10:03:21Z</time></trkpt><trkpt lat="43.46014077621196" lon="12.829705729714616"><ele>365.0</ele><time>2026-05-01T10:03:22Z</time></trkpt><trkpt lat="43.4602926296213" lon="12.82941625133447"><ele>365.0</ele><time>2026-05-01T10:03:23Z</time></trkpt><trkpt lat="43.46049130326158" lon="12.829149267942615"><ele>366.5</ele><time>2026-05-01T10:03:24Z</time></trkpt><trkpt lat="43.4607115066013" lon="12.828901852594502"><ele>368.0</ele><time>2026-05-01T10:03:25Z</time></trkpt><trkpt lat="43.460948794499394" lon="12.828674148978124"><ele>366.5</ele><time>2026-05-01T10:03:26Z</time></trkpt><trkpt lat="43.46116149599247" lon="12.828455789989198"><ele>365.0</ele><time>2026-05-01T10:03:27Z</time></trkpt><trkpt lat="43.461350051478064" lon="12.828245836041752"><ele>371.5</ele><time>2026-05-01T10:03:28Z</time></trkpt><trkpt lat="43.461523088972825" lon="12.828031791043287"><ele>378.0</ele><time>2026-05-01T10:03:29Z</time></trkpt><trkpt lat="43.46167420252722" lon="12.82779005667678"><ele>374.5</ele><time>2026-05-01T10:03:30Z</time></trkpt><trkpt lat="43.461807099385176" lon="12.827524927299681"><ele>371.0</ele><time>2026-05-01T10:03:31Z</time></trkpt><trkpt lat="43.46192396539746" lon="12.827241368933718"><ele>371.0</ele><time>2026-05-01T10:03:32Z</time></trkpt><trkpt lat="43.462025361488074" lon="12.826941211427535"><ele>371.0</ele><time>2026-05-01T10:03:33Z</time></trkpt><trkpt lat="43.46210034292548" lon="12.826610447680352"><ele>381.5</ele><time>2026-05-01T10:03:34Z</time></trkpt><trkpt lat="43.46214974359385" lon="12.826273241774661"><ele>392.0</ele><time>2026-05-01T10:03:35Z</time></trkpt><trkpt lat="43.46217968292886" lon="12.825919300472291"><ele>392.0</ele><time>2026-05-01T10:03:36Z</time></trkpt><trkpt lat="43.46219831880861" lon="12.825557939200573"><ele>392.0</ele><time>2026-05-01T10:03:37Z</time></trkpt><trkpt lat="43.46218700947623" lon="12.825199267959084"><ele>392.0</ele><time>2026-05-01T10:03:38Z</time></trkpt><trkpt lat="43.46214902577784" lon="12.824856153263084"><ele>392.0</ele><time>2026-05-01T10:03:39Z</time></trkpt><trkpt lat="43.462086350153825" lon="12.824539107727437"><ele>385.66666666666663</ele><time>2026-05-01T10:03:40Z</time></trkpt><trkpt lat="43.46201256069852" lon="12.824252950291058"><ele>379.3333333333333</ele><time>2026-05-01T10:03:41Z</time></trkpt><trkpt lat="43.46194179786582" lon="12.823974745110592"><ele>373.0</ele><time>2026-05-01T10:03:42Z</time></trkpt><trkpt lat="43.46188684410978" lon="12.823694014035713"><ele>374.3333333333333</ele><time>2026-05-01T10:03:43Z</time></trkpt><trkpt lat="43.46183874050305" lon="12.82342279452474"><ele>375.6666666666667</ele><time>2026-05-01T10:03:44Z</time></trkpt><trkpt lat="43.46178870503344" lon="12.823172731342705"><ele>377.0</ele><time>2026-05-01T10:03:45Z</time></trkpt><trkpt lat="43.46173835660536" lon="12.822937868592893"><ele>377.0</ele><time>2026-05-01T10:03:46Z</time></trkpt><trkpt lat="43.46169373785699" lon="12.822712414962439"><ele>377.0</ele><time>2026-05-01T10:03:47Z</time></trkpt><trkpt lat="43.46164967295636" lon="12.822505420355693"><ele>377.0</ele><time>2026-05-01T10:03:48Z</time></trkpt><trkpt lat="43.46161238081451" lon="12.822306689391247"><ele>378.25</ele><time>2026-05-01T10:03:49Z</time></trkpt><trkpt lat="43.46157172106498" lon="12.822119890622156"><ele>379.5</ele><time>2026-05-01T10:03:50Z</time></trkpt><trkpt lat="43.46153234089179" lon="12.821933809031377"><ele>380.75</ele><time>2026-05-01T10:03:51Z</time></trkpt><trkpt lat="43.46149936340674" lon="12.82175600043415"><ele>382.0</ele><time>2026-05-01T10:03:52.002Z</time></trkpt><trkpt lat="43.46146340260578" lon="12.821584755898728"><ele>382.25</ele><time>2026-05-01T10:03:53Z</time></trkpt><trkpt lat="43.46142987284963" lon="12.821418900861692"><ele>382.5</ele><time>2026-05-01T10:03:54Z</time></trkpt><trkpt lat="43.46140030998548" lon="12.821259849580452"><ele>382.75</ele><time>2026-05-01T10:03:55Z</time></trkpt><trkpt lat="43.461367470945554" lon="12.821099870447688"><ele>383.0</ele><time>2026-05-01T10:03:56Z</time></trkpt><trkpt lat="43.46134518018441" lon="12.820949411334992"><ele>382.25</ele><time>2026-05-01T10:03:57Z</time></trkpt><trkpt lat="43.46131744825508" lon="12.820792471177661"><ele>381.5</ele><time>2026-05-01T10:03:58Z</time></trkpt><trkpt lat="43.46128782795557" lon="12.82063876433329"><ele>380.75</ele><time>2026-05-01T10:03:59Z</time></trkpt><trkpt lat="43.461258894446786" lon="12.82049131859906"><ele>380.0</ele><time>2026-05-01T10:04:00Z</time></trkpt><trkpt lat="43.461234980798885" lon="12.820342234930537"><ele>379.6</ele><time>2026-05-01T10:04:01Z</time></trkpt><trkpt lat="43.46121357607538" lon="12.820194238386316"><ele>379.2</ele><time>2026-05-01T10:04:02Z</time></trkpt><trkpt lat="43.461190692228776" lon="12.820050894885277"><ele>378.79999999999995</ele><time>2026-05-01T10:04:03Z</time></trkpt><trkpt lat="43.46116774684076" lon="12.819927468677854"><ele>378.4</ele><time>2026-05-01T10:04:04Z</time></trkpt><trkpt lat="43.46114864859797" lon="12.819812912156422"><ele>378.0</ele><time>2026-05-01T10:04:05Z</time></trkpt><trkpt lat="43.461133576210585" lon="12.819709177754648"><ele>378.0</ele><time>2026-05-01T10:04:06Z</time></trkpt><trkpt lat="43.46111493459582" lon="12.819583079185865"><ele>378.0</ele><time>2026-05-01T10:04:08Z</time></trkpt><trkpt lat="43.46110268697476" lon="12.819448056128456"><ele>378.0</ele><time>2026-05-01T10:04:10Z</time></trkpt><trkpt lat="43.461110017155264" lon="12.819361389520374"><ele>378.0</ele><time>2026-05-01T10:04:11Z</time></trkpt><trkpt lat="43.46113623005162" lon="12.819264333267517"><ele>378.0</ele><time>2026-05-01T10:04:12Z</time></trkpt><trkpt lat="43.461173026753656" lon="12.8191589716455"><ele>378.0</ele><time>2026-05-01T10:04:13Z</time></trkpt><trkpt lat="43.46122302090296" lon="12.819057279866659"><ele>378.79999999999995</ele><time>2026-05-01T10:04:14Z</time></trkpt><trkpt lat="43.46128120433234" lon="12.81896680862446"><ele>379.6</ele><time>2026-05-01T10:04:15Z</time></trkpt><trkpt lat="43.461342738469625" lon="12.818876892312701"><ele>380.4</ele><time>2026-05-01T10:04:16Z</time></trkpt><trkpt lat="43.46141068870514" lon="12.818776090140627"><ele>381.20000000000005</ele><time>2026-05-01T10:04:17Z</time></trkpt><trkpt lat="43.461480097574096" lon="12.81866408253228"><ele>382.0</ele><time>2026-05-01T10:04:18Z</time></trkpt><trkpt lat="43.46156984270706" lon="12.818563041264806"><ele>382.40000000000003</ele><time>2026-05-01T10:04:19Z</time></trkpt><trkpt lat="43.461642727765636" lon="12.818456648163274"><ele>382.8</ele><time>2026-05-01T10:04:20Z</time></trkpt><trkpt lat="43.461714601152515" lon="12.81835227448189"><ele>383.2</ele><time>2026-05-01T10:04:21Z</time></trkpt><trkpt lat="43.461787906370525" lon="12.818253005622573"><ele>383.6</ele><time>2026-05-01T10:04:22Z</time></trkpt><trkpt lat="43.461863138138376" lon="12.818153549672141"><ele>384.0</ele><time>2026-05-01T10:04:23Z</time></trkpt><trkpt lat="43.46195536449912" lon="12.818084279250591"><ele>384.0</ele><time>2026-05-01T10:04:24Z</time></trkpt><trkpt lat="43.46203205725626" lon="12.81798273863698"><ele>384.0</ele><time>2026-05-01T10:04:25Z</time></trkpt><trkpt lat="43.46210719504487" lon="12.81788435612526"><ele>384.0</ele><time>2026-05-01T10:04:26Z</time></trkpt><trkpt lat="43.462182800792085" lon="12.817785360908417"><ele>384.0</ele><time>2026-05-01T10:04:27Z</time></trkpt><trkpt lat="43.46226251379019" lon="12.817681239514961"><ele>384.0</ele><time>2026-05-01T10:04:28Z</time></trkpt><trkpt lat="43.462344421405625" lon="12.817574270848121"><ele>384.0</ele><time>2026-05-01T10:04:29Z</time></trkpt><trkpt lat="43.4624266735626" lon="12.817466619596956"><ele>384.0</ele><time>2026-05-01T10:04:30Z</time></trkpt><trkpt lat="43.4625116927907" lon="12.81735429938399"><ele>384.0</ele><time>2026-05-01T10:04:31Z</time></trkpt><trkpt lat="43.46259382532067" lon="12.817245792863575"><ele>384.0</ele><time>2026-05-01T10:04:32Z</time></trkpt><trkpt lat="43.46268316067442" lon="12.817127603413152"><ele>384.0</ele><time>2026-05-01T10:04:33Z</time></trkpt><trkpt lat="43.46277178963944" lon="12.817009015477534"><ele>384.0</ele><time>2026-05-01T10:04:34Z</time></trkpt><trkpt lat="43.462861651926296" lon="12.816889341086881"><ele>384.0</ele><time>2026-05-01T10:04:35Z</time></trkpt><trkpt lat="43.46295173966972" lon="12.81677161603732"><ele>384.0</ele><time>2026-05-01T10:04:36Z</time></trkpt><trkpt lat="43.46303216088328" lon="12.816637520184173"><ele>384.0</ele><time>2026-05-01T10:04:37Z</time></trkpt><trkpt lat="43.46311815456219" lon="12.816528553922577"><ele>384.0</ele><time>2026-05-01T10:04:38Z</time></trkpt><trkpt lat="43.46319147095429" lon="12.816435685434474"><ele>384.0</ele><time>2026-05-01T10:04:39Z</time></trkpt><trkpt lat="43.46326563384916" lon="12.816338944541712"><ele>384.0</ele><time>2026-05-01T10:04:40Z</time></trkpt><trkpt lat="43.46333840449924" lon="12.816245748011859"><ele>384.0</ele><time>2026-05-01T10:04:41Z</time></trkpt><trkpt lat="43.463413388658054" lon="12.816151984837045"><ele>384.0</ele><time>2026-05-01T10:04:42Z</time></trkpt><trkpt lat="43.46348775485448" lon="12.81605334984738"><ele>384.0</ele><time>2026-05-01T10:04:43Z</time></trkpt><trkpt lat="43.463565359241684" lon="12.81594892478045"><ele>384.0</ele><time>2026-05-01T10:04:44Z</time></trkpt><trkpt lat="43.463646910037326" lon="12.81584339459403"><ele>384.0</ele><time>2026-05-01T10:04:45Z</time></trkpt><trkpt lat="43.4637362168068" lon="12.815729491725916"><ele>384.0</ele><time>2026-05-01T10:04:46Z</time></trkpt><trkpt lat="43.46382761320941" lon="12.81561273116762"><ele>384.5</ele><time>2026-05-01T10:04:47Z</time></trkpt><trkpt lat="43.46393498245083" lon="12.815486352112872"><ele>385.0</ele><time>2026-05-01T10:04:48Z</time></trkpt><trkpt lat="43.46405299971453" lon="12.815372995109072"><ele>385.5</ele><time>2026-05-01T10:04:49Z</time></trkpt><trkpt lat="43.46418961500332" lon="12.815307827776811"><ele>386.0</ele><time>2026-05-01T10:04:50Z</time></trkpt><trkpt lat="43.46432316650038" lon="12.815215337460083"><ele>386.0</ele><time>2026-05-01T10:04:51Z</time></trkpt><trkpt lat="43.464471152045725" lon="12.815162603490021"><ele>386.0</ele><time>2026-05-01T10:04:52Z</time></trkpt><trkpt lat="43.46461683223981" lon="12.8150980293301"><ele>386.0</ele><time>2026-05-01T10:04:53Z</time></trkpt><trkpt lat="43.46476034567744" lon="12.815019637696173"><ele>386.5</ele><time>2026-05-01T10:04:54Z</time></trkpt><trkpt lat="43.46490050908272" lon="12.814960701627264"><ele>387.0</ele><time>2026-05-01T10:04:55Z</time></trkpt><trkpt lat="43.46503439571122" lon="12.81488208785699"><ele>387.5</ele><time>2026-05-01T10:04:56Z</time></trkpt><trkpt lat="43.46517100431012" lon="12.814826209241126"><ele>388.0</ele><time>2026-05-01T10:04:57Z</time></trkpt><trkpt lat="43.4653090399728" lon="12.814780922913245"><ele>388.6666666666667</ele><time>2026-05-01T10:04:58Z</time></trkpt><trkpt lat="43.46545398616521" lon="12.814773730286753"><ele>389.33333333333337</ele><time>2026-05-01T10:04:59Z</time></trkpt><trkpt lat="43.46560713422992" lon="12.814787313447548"><ele>390.0</ele><time>2026-05-01T10:05:00Z</time></trkpt><trkpt lat="43.465761103620636" lon="12.814836202359755"><ele>390.0</ele><time>2026-05-01T10:05:01Z</time></trkpt><trkpt lat="43.46591096069241" lon="12.814892786769978"><ele>390.0</ele><time>2026-05-01T10:05:02Z</time></trkpt><trkpt lat="43.466065766049226" lon="12.81492654003128"><ele>390.0</ele><time>2026-05-01T10:05:03Z</time></trkpt><trkpt lat="43.46622323583473" lon="12.81495525179978"><ele>391.66666666666663</ele><time>2026-05-01T10:05:04Z</time></trkpt><trkpt lat="43.46638583783445" lon="12.814972830116297"><ele>393.3333333333333</ele><time>2026-05-01T10:05:05Z</time></trkpt><trkpt lat="43.46656474825325" lon="12.814965635411"><ele>395.0</ele><time>2026-05-01T10:05:06Z</time></trkpt><trkpt lat="43.466778916749355" lon="12.814918416832768"><ele>395.0</ele><time>2026-05-01T10:05:07Z</time></trkpt><trkpt lat="43.46702084249106" lon="12.814880519047266"><ele>395.0</ele><time>2026-05-01T10:05:08Z</time></trkpt><trkpt lat="43.46727071844923" lon="12.814850079752608"><ele>396.0</ele><time>2026-05-01T10:05:09Z</time></trkpt><trkpt lat="43.46752493916071" lon="12.81480665035645"><ele>397.0</ele><time>2026-05-01T10:05:10Z</time></trkpt><trkpt lat="43.46778331236345" lon="12.81474262274844"><ele>399.0</ele><time>2026-05-01T10:05:11Z</time></trkpt><trkpt lat="43.46804480215743" lon="12.814674495127745"><ele>401.0</ele><time>2026-05-01T10:05:12Z</time></trkpt><trkpt lat="43.46828947477849" lon="12.814610468748517"><ele>401.0</ele><time>2026-05-01T10:05:13Z</time></trkpt><trkpt lat="43.46852643501122" lon="12.814551621945691"><ele>401.0</ele><time>2026-05-01T10:05:14Z</time></trkpt><trkpt lat="43.46874633339209" lon="12.81450160705618"><ele>401.3333333333333</ele><time>2026-05-01T10:05:15Z</time></trkpt><trkpt lat="43.468953686078834" lon="12.814436326208865"><ele>401.66666666666663</ele><time>2026-05-01T10:05:16Z</time></trkpt><trkpt lat="43.46915424544414" lon="12.81433475928728"><ele>402.0</ele><time>2026-05-01T10:05:17Z</time></trkpt><trkpt lat="43.469348791875575" lon="12.81420193531407"><ele>403.0</ele><time>2026-05-01T10:05:18Z</time></trkpt><trkpt lat="43.46953248119966" lon="12.814023771116902"><ele>404.0</ele><time>2026-05-01T10:05:19Z</time></trkpt><trkpt lat="43.469719763873556" lon="12.813839307114097"><ele>404.0</ele><time>2026-05-01T10:05:20Z</time></trkpt><trkpt lat="43.4699127560517" lon="12.813663311818042"><ele>404.0</ele><time>2026-05-01T10:05:21Z</time></trkpt><trkpt lat="43.47011373908307" lon="12.813503514502315"><ele>406.0</ele><time>2026-05-01T10:05:22Z</time></trkpt><trkpt lat="43.4703142933361" lon="12.81336524651782"><ele>408.0</ele><time>2026-05-01T10:05:23Z</time></trkpt><trkpt lat="43.47054458226955" lon="12.813285493870104"><ele>408.0</ele><time>2026-05-01T10:05:24Z</time></trkpt><trkpt lat="43.47078142065611" lon="12.813211188358075"><ele>408.0</ele><time>2026-05-01T10:05:25Z</time></trkpt><trkpt lat="43.471042954631436" lon="12.813170963813043"><ele>409.5</ele><time>2026-05-01T10:05:26Z</time></trkpt><trkpt lat="43.47130801742643" lon="12.813154348660802"><ele>411.0</ele><time>2026-05-01T10:05:27Z</time></trkpt><trkpt lat="43.47158276850188" lon="12.81311972960862"><ele>411.0</ele><time>2026-05-01T10:05:28Z</time></trkpt><trkpt lat="43.4718415440423" lon="12.813095409843655"><ele>411.0</ele><time>2026-05-01T10:05:29Z</time></trkpt><trkpt lat="43.472086036142876" lon="12.813059800576484"><ele>411.5</ele><time>2026-05-01T10:05:30Z</time></trkpt><trkpt lat="43.47232970519708" lon="12.813012539999411"><ele>412.0</ele><time>2026-05-01T10:05:31Z</time></trkpt><trkpt lat="43.47256579423842" lon="12.812967536822182"><ele>412.0</ele><time>2026-05-01T10:05:32Z</time></trkpt><trkpt lat="43.47279491127404" lon="12.812933932432351"><ele>412.0</ele><time>2026-05-01T10:05:33Z</time></trkpt><trkpt lat="43.47301651705948" lon="12.812886392807092"><ele>412.0</ele><time>2026-05-01T10:05:34Z</time></trkpt><trkpt lat="43.473224736110446" lon="12.812834561962756"><ele>412.0</ele><time>2026-05-01T10:05:35Z</time></trkpt><trkpt lat="43.47342258728875" lon="12.81277891908115"><ele>412.0</ele><time>2026-05-01T10:05:36Z</time></trkpt><trkpt lat="43.47360510874743" lon="12.812716015246219"><ele>413.33333333333337</ele><time>2026-05-01T10:05:37Z</time></trkpt><trkpt lat="43.47377804014626" lon="12.81264774492863"><ele>414.66666666666663</ele><time>2026-05-01T10:05:38Z</time></trkpt><trkpt lat="43.47393890773635" lon="12.812556438968974"><ele>416.0</ele><time>2026-05-01T10:05:39Z</time></trkpt><trkpt lat="43.47409320445526" lon="12.812435791846786"><ele>416.0</ele><time>2026-05-01T10:05:40Z</time></trkpt><trkpt lat="43.47425092046553" lon="12.812326653809267"><ele>416.0</ele><time>2026-05-01T10:05:41Z</time></trkpt><trkpt lat="43.47441229349477" lon="12.812184484412722"><ele>416.0</ele><time>2026-05-01T10:05:42Z</time></trkpt><trkpt lat="43.47454789109464" lon="12.8120673429257"><ele>416.0</ele><time>2026-05-01T10:05:43Z</time></trkpt><trkpt lat="43.47467162047033" lon="12.81196529511604"><ele>416.0</ele><time>2026-05-01T10:05:44Z</time></trkpt><trkpt lat="43.474788225808744" lon="12.811873778218027"><ele>416.0</ele><time>2026-05-01T10:05:45Z</time></trkpt><trkpt lat="43.474889971488146" lon="12.811806453178551"><ele>416.0</ele><time>2026-05-01T10:05:46Z</time></trkpt><trkpt lat="43.47496520034642" lon="12.811749351465997"><ele>416.25</ele><time>2026-05-01T10:05:47Z</time></trkpt><trkpt lat="43.47498856693767" lon="12.811568293644449"><ele>416.5</ele><time>2026-05-01T10:05:48Z</time></trkpt><trkpt lat="43.475033815475086" lon="12.81142510980396"><ele>416.75</ele><time>2026-05-01T10:05:49Z</time></trkpt><trkpt lat="43.47511251553724" lon="12.811293831772762"><ele>417.0</ele><time>2026-05-01T10:05:50Z</time></trkpt><trkpt lat="43.47523599738573" lon="12.8111652657057"><ele>417.0</ele><time>2026-05-01T10:05:51Z</time></trkpt><trkpt lat="43.47540047594625" lon="12.811055114762082"><ele>417.0</ele><time>2026-05-01T10:05:52Z</time></trkpt><trkpt lat="43.475577867189024" lon="12.810912149886901"><ele>417.0</ele><time>2026-05-01T10:05:53Z</time></trkpt><trkpt lat="43.47574825348212" lon="12.81077483093821"><ele>417.66666666666663</ele><time>2026-05-01T10:05:54Z</time></trkpt><trkpt lat="43.47591381708741" lon="12.810614719513882"><ele>418.3333333333333</ele><time>2026-05-01T10:05:55Z</time></trkpt><trkpt lat="43.47610599673076" lon="12.810466276836172"><ele>419.0</ele><time>2026-05-01T10:05:56Z</time></trkpt><trkpt lat="43.47631039824127" lon="12.810304041986221"><ele>421.0</ele><time>2026-05-01T10:05:57Z</time></trkpt><trkpt lat="43.476523464529876" lon="12.810127198459575"><ele>423.0</ele><time>2026-05-01T10:05:58Z</time></trkpt><trkpt lat="43.476745834978594" lon="12.809946507055233"><ele>423.0</ele><time>2026-05-01T10:05:59Z</time></trkpt><trkpt lat="43.476953676395595" lon="12.809781976605626"><ele>423.0</ele><time>2026-05-01T10:06:00Z</time></trkpt><trkpt lat="43.47714307059683" lon="12.809632741971505"><ele>424.0</ele><time>2026-05-01T10:06:01Z</time></trkpt><trkpt lat="43.47732493309403" lon="12.809486829283367"><ele>425.0</ele><time>2026-05-01T10:06:02Z</time></trkpt><trkpt lat="43.47750277298193" lon="12.809325847571877"><ele>426.0</ele><time>2026-05-01T10:06:03Z</time></trkpt><trkpt lat="43.477683457824796" lon="12.809105662943272"><ele>427.0</ele><time>2026-05-01T10:06:04Z</time></trkpt><trkpt lat="43.47786629436661" lon="12.808873335391954"><ele>428.0</ele><time>2026-05-01T10:06:05Z</time></trkpt><trkpt lat="43.47805141279545" lon="12.808634221046132"><ele>429.0</ele><time>2026-05-01T10:06:06Z</time></trkpt><trkpt lat="43.478250913942155" lon="12.808409283244387"><ele>430.0</ele><time>2026-05-01T10:06:07Z</time></trkpt><trkpt lat="43.478415960043236" lon="12.808180447125705"><ele>430.0</ele><time>2026-05-01T10:06:08Z</time></trkpt><trkpt lat="43.478584526800326" lon="12.80796337421312"><ele>430.0</ele><time>2026-05-01T10:06:09Z</time></trkpt><trkpt lat="43.4787356873144" lon="12.807719800291968"><ele>430.0</ele><time>2026-05-01T10:06:10Z</time></trkpt><trkpt lat="43.478883639010526" lon="12.807456848749105"><ele>430.0</ele><time>2026-05-01T10:06:11Z</time></trkpt><trkpt lat="43.47902843376224" lon="12.80718432487675"><ele>430.0</ele><time>2026-05-01T10:06:12Z</time></trkpt><trkpt lat="43.47917705884266" lon="12.806908154279043"><ele>430.0</ele><time>2026-05-01T10:06:13Z</time></trkpt><trkpt lat="43.47933242945623" lon="12.806638209245184"><ele>431.33333333333337</ele><time>2026-05-01T10:06:14Z</time></trkpt><trkpt lat="43.479470867752745" lon="12.80639174176317"><ele>432.66666666666663</ele><time>2026-05-01T10:06:15Z</time></trkpt><trkpt lat="43.479590668455224" lon="12.806143721589809"><ele>434.0</ele><time>2026-05-01T10:06:16Z</time></trkpt><trkpt lat="43.479696119386205" lon="12.805866746207911"><ele>437.5</ele><time>2026-05-01T10:06:17Z</time></trkpt><trkpt lat="43.47978518857418" lon="12.805557804295256"><ele>441.0</ele><time>2026-05-01T10:06:18Z</time></trkpt><trkpt lat="43.47987323525246" lon="12.805224794472819"><ele>444.5</ele><time>2026-05-01T10:06:19Z</time></trkpt><trkpt lat="43.47997338359644" lon="12.804896817163103"><ele>448.0</ele><time>2026-05-01T10:06:20Z</time></trkpt><trkpt lat="43.48007489216096" lon="12.804564581324561"><ele>451.5</ele><time>2026-05-01T10:06:21Z</time></trkpt><trkpt lat="43.48018051916673" lon="12.804230105964216"><ele>455.0</ele><time>2026-05-01T10:06:22Z</time></trkpt><trkpt lat="43.48028614544213" lon="12.803900454655446"><ele>455.0</ele><time>2026-05-01T10:06:23Z</time></trkpt><trkpt lat="43.480386408992686" lon="12.803591500537312"><ele>455.0</ele><time>2026-05-01T10:06:24Z</time></trkpt><trkpt lat="43.48048081705151" lon="12.803301193423609"><ele>455.66666666666663</ele><time>2026-05-01T10:06:25Z</time></trkpt><trkpt lat="43.48056040008583" lon="12.803033637255112"><ele>456.33333333333337</ele><time>2026-05-01T10:06:26Z</time></trkpt><trkpt lat="43.480610899322535" lon="12.802783850155501"><ele>457.0</ele><time>2026-05-01T10:06:27Z</time></trkpt><trkpt lat="43.48063568985868" lon="12.802533575005768"><ele>457.6666666666667</ele><time>2026-05-01T10:06:28Z</time></trkpt><trkpt lat="43.480626698693136" lon="12.802264874319553"><ele>458.33333333333337</ele><time>2026-05-01T10:06:29Z</time></trkpt><trkpt lat="43.480593886597894" lon="12.801986244378526"><ele>459.0</ele><time>2026-05-01T10:06:30Z</time></trkpt><trkpt lat="43.48056337090557" lon="12.801693261946921"><ele>460.66666666666663</ele><time>2026-05-01T10:06:31Z</time></trkpt><trkpt lat="43.48053849740216" lon="12.801394085780636"><ele>462.3333333333333</ele><time>2026-05-01T10:06:32Z</time></trkpt><trkpt lat="43.48050902665994" lon="12.801088365045354"><ele>464.0</ele><time>2026-05-01T10:06:33Z</time></trkpt><trkpt lat="43.480490040509885" lon="12.800777655723156"><ele>465.5</ele><time>2026-05-01T10:06:34Z</time></trkpt><trkpt lat="43.48046569480788" lon="12.800458925491496"><ele>467.0</ele><time>2026-05-01T10:06:35Z</time></trkpt><trkpt lat="43.480440150486864" lon="12.80013910880217"><ele>469.0</ele><time>2026-05-01T10:06:36Z</time></trkpt><trkpt lat="43.48041172733087" lon="12.799814623554447"><ele>471.0</ele><time>2026-05-01T10:06:37Z</time></trkpt><trkpt lat="43.48037134837429" lon="12.799484390531688"><ele>471.0</ele><time>2026-05-01T10:06:38Z</time></trkpt><trkpt lat="43.48032617824402" lon="12.799144174430907"><ele>471.0</ele><time>2026-05-01T10:06:39Z</time></trkpt><trkpt lat="43.48028956210533" lon="12.798796632384509"><ele>471.5</ele><time>2026-05-01T10:06:40Z</time></trkpt><trkpt lat="43.48025544585521" lon="12.798446779981981"><ele>472.0</ele><time>2026-05-01T10:06:41Z</time></trkpt><trkpt lat="43.48022944670887" lon="12.798088538338646"><ele>472.0</ele><time>2026-05-01T10:06:42Z</time></trkpt><trkpt lat="43.480198646591795" lon="12.797730929921965"><ele>472.0</ele><time>2026-05-01T10:06:43Z</time></trkpt><trkpt lat="43.48016231347185" lon="12.797405559647428"><ele>472.6666666666667</ele><time>2026-05-01T10:06:44Z</time></trkpt><trkpt lat="43.480136248609696" lon="12.797096265503514"><ele>473.33333333333337</ele><time>2026-05-01T10:06:45Z</time></trkpt><trkpt lat="43.48013613576498" lon="12.796805803447207"><ele>474.0</ele><time>2026-05-01T10:06:46Z</time></trkpt><trkpt lat="43.48017815368052" lon="12.79652575996791"><ele>477.5</ele><time>2026-05-01T10:06:47Z</time></trkpt><trkpt lat="43.480263357052955" lon="12.796243528461211"><ele>481.0</ele><time>2026-05-01T10:06:48Z</time></trkpt><trkpt lat="43.48035475093857" lon="12.795952656968073"><ele>479.0</ele><time>2026-05-01T10:06:49Z</time></trkpt><trkpt lat="43.48044353396499" lon="12.795656091015422"><ele>477.0</ele><time>2026-05-01T10:06:50Z</time></trkpt><trkpt lat="43.48052466052076" lon="12.795340121980479"><ele>479.0</ele><time>2026-05-01T10:06:51Z</time></trkpt><trkpt lat="43.48060586257537" lon="12.795014317779339"><ele>481.0</ele><time>2026-05-01T10:06:52Z</time></trkpt><trkpt lat="43.48069598243596" lon="12.794682849024232"><ele>481.0</ele><time>2026-05-01T10:06:53Z</time></trkpt><trkpt lat="43.480787753782494" lon="12.79434240080643"><ele>481.0</ele><time>2026-05-01T10:06:54Z</time></trkpt><trkpt lat="43.48088103604448" lon="12.793996628817414"><ele>482.5</ele><time>2026-05-01T10:06:55Z</time></trkpt><trkpt lat="43.48097652291055" lon="12.79364713906792"><ele>484.0</ele><time>2026-05-01T10:06:56Z</time></trkpt><trkpt lat="43.4810719183863" lon="12.793287239713745"><ele>484.5</ele><time>2026-05-01T10:06:57Z</time></trkpt><trkpt lat="43.481169467376404" lon="12.792934477132585"><ele>485.0</ele><time>2026-05-01T10:06:58Z</time></trkpt><trkpt lat="43.4812649904247" lon="12.79257591910286"><ele>483.5</ele><time>2026-05-01T10:06:59Z</time></trkpt><trkpt lat="43.4813598174417" lon="12.79220913814225"><ele>482.0</ele><time>2026-05-01T10:07:00Z</time></trkpt><trkpt lat="43.48145397741855" lon="12.79184370420646"><ele>483.0</ele><time>2026-05-01T10:07:01Z</time></trkpt><trkpt lat="43.48154554711787" lon="12.791485255080266"><ele>484.0</ele><time>2026-05-01T10:07:02Z</time></trkpt><trkpt lat="43.481624654437276" lon="12.791160053137444"><ele>485.5</ele><time>2026-05-01T10:07:03Z</time></trkpt><trkpt lat="43.48170052784944" lon="12.790853299303526"><ele>487.0</ele><time>2026-05-01T10:07:04Z</time></trkpt><trkpt lat="43.48177704768802" lon="12.790562334852016"><ele>487.0</ele><time>2026-05-01T10:07:05Z</time></trkpt><trkpt lat="43.481852571681586" lon="12.79029365973142"><ele>487.0</ele><time>2026-05-01T10:07:06Z</time></trkpt><trkpt lat="43.48190785901081" lon="12.790062511260237"><ele>487.0</ele><time>2026-05-01T10:07:07Z</time></trkpt><trkpt lat="43.48195610453689" lon="12.789825299636217"><ele>488.6666666666667</ele><time>2026-05-01T10:07:08Z</time></trkpt><trkpt lat="43.48199551428291" lon="12.789581783019024"><ele>490.33333333333337</ele><time>2026-05-01T10:07:09Z</time></trkpt><trkpt lat="43.48204993393979" lon="12.789337179465747"><ele>492.0</ele><time>2026-05-01T10:07:10Z</time></trkpt><trkpt lat="43.4821004503932" lon="12.789074853043898"><ele>488.66666666666663</ele><time>2026-05-01T10:07:11Z</time></trkpt><trkpt lat="43.482139511171106" lon="12.788822526999736"><ele>485.3333333333333</ele><time>2026-05-01T10:07:12Z</time></trkpt><trkpt lat="43.48217650431436" lon="12.788573339262385"><ele>482.0</ele><time>2026-05-01T10:07:13Z</time></trkpt><trkpt lat="43.48221713064412" lon="12.788344813991685"><ele>481.3333333333333</ele><time>2026-05-01T10:07:14Z</time></trkpt><trkpt lat="43.48227328663894" lon="12.78812920463628"><ele>480.66666666666663</ele><time>2026-05-01T10:07:15Z</time></trkpt><trkpt lat="43.482365246495434" lon="12.787927509114562"><ele>480.0</ele><time>2026-05-01T10:07:16Z</time></trkpt><trkpt lat="43.48249400880601" lon="12.78774923050704"><ele>480.0</ele><time>2026-05-01T10:07:17Z</time></trkpt><trkpt lat="43.48264791129394" lon="12.787588525725692"><ele>480.0</ele><time>2026-05-01T10:07:18Z</time></trkpt><trkpt lat="43.48282323836546" lon="12.78744280877172"><ele>480.0</ele><time>2026-05-01T10:07:19Z</time></trkpt><trkpt lat="43.483010258105864" lon="12.787301492427165"><ele>475.5</ele><time>2026-05-01T10:07:20Z</time></trkpt><trkpt lat="43.4832086747729" lon="12.787157585235525"><ele>471.0</ele><time>2026-05-01T10:07:21Z</time></trkpt><trkpt lat="43.483412460247436" lon="12.78700366305951"><ele>471.0</ele><time>2026-05-01T10:07:22Z</time></trkpt><trkpt lat="43.483617007129425" lon="12.786846429702186"><ele>471.0</ele><time>2026-05-01T10:07:23Z</time></trkpt><trkpt lat="43.48381684735887" lon="12.786696416180442"><ele>468.0</ele><time>2026-05-01T10:07:24Z</time></trkpt><trkpt lat="43.48400093036668" lon="12.786550022859045"><ele>465.0</ele><time>2026-05-01T10:07:25Z</time></trkpt><trkpt lat="43.48416245984386" lon="12.78641011894902"><ele>462.0</ele><time>2026-05-01T10:07:26Z</time></trkpt><trkpt lat="43.484307768084975" lon="12.786290315256979"><ele>462.0</ele><time>2026-05-01T10:07:27Z</time></trkpt><trkpt lat="43.48443269344348" lon="12.786181297936304"><ele>462.0</ele><time>2026-05-01T10:07:28Z</time></trkpt><trkpt lat="43.484537531309954" lon="12.786081771613416"><ele>462.0</ele><time>2026-05-01T10:07:29Z</time></trkpt><trkpt lat="43.48461603649925" lon="12.785960522178815"><ele>462.0</ele><time>2026-05-01T10:07:30Z</time></trkpt><trkpt lat="43.4846622085847" lon="12.785798809106966"><ele>458.33333333333337</ele><time>2026-05-01T10:07:31Z</time></trkpt><trkpt lat="43.48465606338729" lon="12.78559915151639"><ele>454.6666666666667</ele><time>2026-05-01T10:07:32Z</time></trkpt><trkpt lat="43.484618461224436" lon="12.785381960175252"><ele>451.0</ele><time>2026-05-01T10:07:33Z</time></trkpt><trkpt lat="43.48460985015382" lon="12.785144560753777"><ele>450.6666666666667</ele><time>2026-05-01T10:07:34Z</time></trkpt><trkpt lat="43.48464943176948" lon="12.78490434042252"><ele>450.33333333333337</ele><time>2026-05-01T10:07:35Z</time></trkpt><trkpt lat="43.48472388413233" lon="12.784619308482686"><ele>450.0</ele><time>2026-05-01T10:07:36Z</time></trkpt><trkpt lat="43.48480622874614" lon="12.784325126222662"><ele>451.5</ele><time>2026-05-01T10:07:37Z</time></trkpt><trkpt lat="43.48490023231639" lon="12.784036716042042"><ele>453.0</ele><time>2026-05-01T10:07:38Z</time></trkpt><trkpt lat="43.4849936579213" lon="12.783734791469895"><ele>452.0</ele><time>2026-05-01T10:07:39Z</time></trkpt><trkpt lat="43.485091047234114" lon="12.783428983094552"><ele>451.0</ele><time>2026-05-01T10:07:40Z</time></trkpt><trkpt lat="43.48518983200509" lon="12.783136265951505"><ele>451.0</ele><time>2026-05-01T10:07:41Z</time></trkpt><trkpt lat="43.48528617283191" lon="12.782860181742441"><ele>451.0</ele><time>2026-05-01T10:07:42Z</time></trkpt><trkpt lat="43.485379585327074" lon="12.782592350907576"><ele>451.0</ele><time>2026-05-01T10:07:43Z</time></trkpt><trkpt lat="43.48546895232423" lon="12.7823193647719"><ele>449.0</ele><time>2026-05-01T10:07:44Z</time></trkpt><trkpt lat="43.48554907680652" lon="12.782023742591866"><ele>447.0</ele><time>2026-05-01T10:07:45Z</time></trkpt><trkpt lat="43.48561335489723" lon="12.781709607205716"><ele>442.5</ele><time>2026-05-01T10:07:46Z</time></trkpt><trkpt lat="43.48567377508398" lon="12.781393299388627"><ele>438.0</ele><time>2026-05-01T10:07:47Z</time></trkpt><trkpt lat="43.485753630881156" lon="12.781100088350533"><ele>438.0</ele><time>2026-05-01T10:07:48Z</time></trkpt><trkpt lat="43.48580313520046" lon="12.780816652259322"><ele>438.0</ele><time>2026-05-01T10:07:49Z</time></trkpt><trkpt lat="43.48587180701309" lon="12.780553474191636"><ele>438.0</ele><time>2026-05-01T10:07:50Z</time></trkpt><trkpt lat="43.48595514710748" lon="12.780304328815477"><ele>437.0</ele><time>2026-05-01T10:07:51Z</time></trkpt><trkpt lat="43.486037590966745" lon="12.780044524943571"><ele>436.0</ele><time>2026-05-01T10:07:52Z</time></trkpt><trkpt lat="43.48611439857711" lon="12.779770150081323"><ele>435.0</ele><time>2026-05-01T10:07:53Z</time></trkpt><trkpt lat="43.486213624828956" lon="12.779496157034346"><ele>432.0</ele><time>2026-05-01T10:07:54Z</time></trkpt><trkpt lat="43.48631151358511" lon="12.779218335638184"><ele>429.0</ele><time>2026-05-01T10:07:55Z</time></trkpt><trkpt lat="43.48641668247262" lon="12.778943396363593"><ele>429.0</ele><time>2026-05-01T10:07:56Z</time></trkpt><trkpt lat="43.48653995099484" lon="12.778677930344847"><ele>429.0</ele><time>2026-05-01T10:07:57Z</time></trkpt><trkpt lat="43.48668421766068" lon="12.778429578994906"><ele>425.0</ele><time>2026-05-01T10:07:58Z</time></trkpt><trkpt lat="43.48680655253747" lon="12.7781596987304"><ele>421.0</ele><time>2026-05-01T10:07:59Z</time></trkpt><trkpt lat="43.48694993795942" lon="12.77789906967053"><ele>422.0</ele><time>2026-05-01T10:08:00Z</time></trkpt><trkpt lat="43.48709338235461" lon="12.777644007258122"><ele>423.0</ele><time>2026-05-01T10:08:01Z</time></trkpt><trkpt lat="43.48726541420739" lon="12.777439439697991"><ele>426.0</ele><time>2026-05-01T10:08:02Z</time></trkpt><trkpt lat="43.48743400524383" lon="12.777239283205859"><ele>429.0</ele><time>2026-05-01T10:08:03Z</time></trkpt><trkpt lat="43.48760109481862" lon="12.777043126602218"><ele>432.0</ele><time>2026-05-01T10:08:04Z</time></trkpt><trkpt lat="43.48775554605025" lon="12.776842902820386"><ele>435.0</ele><time>2026-05-01T10:08:05Z</time></trkpt><trkpt lat="43.48790484423802" lon="12.77668019121298"><ele>438.0</ele><time>2026-05-01T10:08:06Z</time></trkpt><trkpt lat="43.4880306422623" lon="12.776544072674463"><ele>441.0</ele><time>2026-05-01T10:08:07Z</time></trkpt><trkpt lat="43.48811807889534" lon="12.776446384222357"><ele>442.6666666666667</ele><time>2026-05-01T10:08:08Z</time></trkpt><trkpt lat="43.48816482613379" lon="12.776379281660782"><ele>444.33333333333337</ele><time>2026-05-01T10:08:09Z</time></trkpt><trkpt lat="43.488181404312925" lon="12.776295158804828"><ele>446.0</ele><time>2026-05-01T10:08:10Z</time></trkpt><trkpt lat="43.48814626954961" lon="12.776207810284454"><ele>447.6666666666667</ele><time>2026-05-01T10:08:11Z</time></trkpt><trkpt lat="43.48807863298186" lon="12.776129736653203"><ele>449.33333333333337</ele><time>2026-05-01T10:08:12Z</time></trkpt><trkpt lat="43.48799087438102" lon="12.77604969250848"><ele>451.0</ele><time>2026-05-01T10:08:13Z</time></trkpt><trkpt lat="43.48787064673204" lon="12.775967437612602"><ele>451.0</ele><time>2026-05-01T10:08:14Z</time></trkpt><trkpt lat="43.487743721370286" lon="12.775872070844711"><ele>451.0</ele><time>2026-05-01T10:08:15Z</time></trkpt><trkpt lat="43.48764442017544" lon="12.775764019389275"><ele>451.0</ele><time>2026-05-01T10:08:16Z</time></trkpt><trkpt lat="43.48757691582087" lon="12.775673867040119"><ele>451.0</ele><time>2026-05-01T10:08:17Z</time></trkpt><trkpt lat="43.48754562139901" lon="12.775580689016527"><ele>451.0</ele><time>2026-05-01T10:08:18Z</time></trkpt><trkpt lat="43.487572786739825" lon="12.775455221344396"><ele>451.0</ele><time>2026-05-01T10:08:19Z</time></trkpt><trkpt lat="43.487641473266436" lon="12.775345613096379"><ele>451.0</ele><time>2026-05-01T10:08:20Z</time></trkpt><trkpt lat="43.48774075114314" lon="12.775240008664033"><ele>451.0</ele><time>2026-05-01T10:08:21Z</time></trkpt><trkpt lat="43.48782611421241" lon="12.775119946861045"><ele>451.0</ele><time>2026-05-01T10:08:22Z</time></trkpt><trkpt lat="43.48793265654586" lon="12.774981892389787"><ele>455.0</ele><time>2026-05-01T10:08:23Z</time></trkpt><trkpt lat="43.488068235361794" lon="12.774850007725574"><ele>459.0</ele><time>2026-05-01T10:08:24Z</time></trkpt><trkpt lat="43.48821902930021" lon="12.774727560916771"><ele>463.0</ele><time>2026-05-01T10:08:25Z</time></trkpt><trkpt lat="43.488335528116785" lon="12.774679036290706"><ele>463.0</ele><time>2026-05-01T10:08:26Z</time></trkpt><trkpt lat="43.48850956322528" lon="12.774535360967995"><ele>463.0</ele><time>2026-05-01T10:08:27Z</time></trkpt><trkpt lat="43.48868542473004" lon="12.77438456128384"><ele>463.0</ele><time>2026-05-01T10:08:28Z</time></trkpt><trkpt lat="43.48885522876013" lon="12.774209846063583"><ele>466.33333333333337</ele><time>2026-05-01T10:08:29Z</time></trkpt><trkpt lat="43.48902969123699" lon="12.774047653752639"><ele>469.66666666666663</ele><time>2026-05-01T10:08:30Z</time></trkpt><trkpt lat="43.489174179324614" lon="12.773908927357438"><ele>473.0</ele><time>2026-05-01T10:08:31Z</time></trkpt><trkpt lat="43.489303325761284" lon="12.77377742380699"><ele>473.0</ele><time>2026-05-01T10:08:32Z</time></trkpt><trkpt lat="43.48940948859614" lon="12.77363334620042"><ele>473.0</ele><time>2026-05-01T10:08:33Z</time></trkpt><trkpt lat="43.48951258362921" lon="12.773530939283733"><ele>473.0</ele><time>2026-05-01T10:08:34Z</time></trkpt><trkpt lat="43.48959431665671" lon="12.773449588464487"><ele>473.0</ele><time>2026-05-01T10:08:35Z</time></trkpt><trkpt lat="43.48968800567296" lon="12.773446810377994"><ele>476.25</ele><time>2026-05-01T10:08:36Z</time></trkpt><trkpt lat="43.48976959980715" lon="12.773494426908211"><ele>479.5</ele><time>2026-05-01T10:08:37Z</time></trkpt><trkpt lat="43.489841668751026" lon="12.773587650690395"><ele>482.75</ele><time>2026-05-01T10:08:38Z</time></trkpt><trkpt lat="43.4898941475298" lon="12.773735580982638"><ele>486.0</ele><time>2026-05-01T10:08:39Z</time></trkpt><trkpt lat="43.48991482661962" lon="12.773935660463254"><ele>486.0</ele><time>2026-05-01T10:08:40Z</time></trkpt><trkpt lat="43.4899344518126" lon="12.774175831747748"><ele>486.0</ele><time>2026-05-01T10:08:41Z</time></trkpt><trkpt lat="43.48990575825878" lon="12.774434015930462"><ele>486.0</ele><time>2026-05-01T10:08:42Z</time></trkpt><trkpt lat="43.48986268936178" lon="12.774702275462637"><ele>486.33333333333337</ele><time>2026-05-01T10:08:43Z</time></trkpt><trkpt lat="43.489813734365626" lon="12.774992507700267"><ele>486.6666666666667</ele><time>2026-05-01T10:08:44Z</time></trkpt><trkpt lat="43.48977085217641" lon="12.775239181943803"><ele>487.0</ele><time>2026-05-01T10:08:45Z</time></trkpt><trkpt lat="43.48973177933732" lon="12.775452450607668"><ele>486.50000000000006</ele><time>2026-05-01T10:08:46Z</time></trkpt><trkpt lat="43.48971774700945" lon="12.775627808847627"><ele>486.0</ele><time>2026-05-01T10:08:47Z</time></trkpt><trkpt lat="43.489693890851626" lon="12.775752582271652"><ele>485.5</ele><time>2026-05-01T10:08:48Z</time></trkpt><trkpt lat="43.48969503312957" lon="12.775846212897749"><ele>485.0</ele><time>2026-05-01T10:08:49Z</time></trkpt><trkpt lat="43.48974135416438" lon="12.775909184799884"><ele>484.50000000000006</ele><time>2026-05-01T10:08:50Z</time></trkpt><trkpt lat="43.4898277522007" lon="12.77592221586793"><ele>484.0</ele><time>2026-05-01T10:08:51Z</time></trkpt><trkpt lat="43.48994126574271" lon="12.775890205189217"><ele>484.0</ele><time>2026-05-01T10:08:52Z</time></trkpt><trkpt lat="43.49006740844441" lon="12.775841406438293"><ele>484.0</ele><time>2026-05-01T10:08:53Z</time></trkpt><trkpt lat="43.490205871526584" lon="12.775788954909586"><ele>484.0</ele><time>2026-05-01T10:08:54Z</time></trkpt><trkpt lat="43.49034350409025" lon="12.775743328812757"><ele>484.0</ele><time>2026-05-01T10:08:55Z</time></trkpt><trkpt lat="43.49045256030713" lon="12.775718373957467"><ele>485.6</ele><time>2026-05-01T10:08:56Z</time></trkpt><trkpt lat="43.490545470928424" lon="12.775696823194927"><ele>487.2</ele><time>2026-05-01T10:08:57Z</time></trkpt><trkpt lat="43.49061798072298" lon="12.775650979077973"><ele>488.80000000000007</ele><time>2026-05-01T10:08:58Z</time></trkpt><trkpt lat="43.49063581034587" lon="12.775521510960406"><ele>490.40000000000003</ele><time>2026-05-01T10:08:59Z</time></trkpt><trkpt lat="43.49061331691774" lon="12.77540059840582"><ele>492.0</ele><time>2026-05-01T10:09:00Z</time></trkpt><trkpt lat="43.49054506026751" lon="12.775309836412513"><ele>492.0</ele><time>2026-05-01T10:09:01Z</time></trkpt><trkpt lat="43.49046734740065" lon="12.775234200870598"><ele>492.00000000000006</ele><time>2026-05-01T10:09:02Z</time></trkpt><trkpt lat="43.49042561994603" lon="12.775128591312074"><ele>492.00000000000006</ele><time>2026-05-01T10:09:03Z</time></trkpt><trkpt lat="43.49038349059284" lon="12.775018074486338"><ele>492.0</ele><time>2026-05-01T10:09:04Z</time></trkpt><trkpt lat="43.49039758452083" lon="12.77488349589125"><ele>492.0</ele><time>2026-05-01T10:09:05Z</time></trkpt><trkpt lat="43.490387299829735" lon="12.774752987368203"><ele>490.75</ele><time>2026-05-01T10:09:06Z</time></trkpt><trkpt lat="43.490411871406" lon="12.774615456605794"><ele>489.5</ele><time>2026-05-01T10:09:07Z</time></trkpt><trkpt lat="43.490438856894414" lon="12.774464690880706"><ele>488.25</ele><time>2026-05-01T10:09:08Z</time></trkpt><trkpt lat="43.49045973314298" lon="12.774284031706607"><ele>487.0</ele><time>2026-05-01T10:09:09Z</time></trkpt><trkpt lat="43.49047155913606" lon="12.774069072691475"><ele>492.6666666666667</ele><time>2026-05-01T10:09:10Z</time></trkpt><trkpt lat="43.490479589034905" lon="12.773843804622938"><ele>498.33333333333337</ele><time>2026-05-01T10:09:11Z</time></trkpt><trkpt lat="43.49049344522825" lon="12.773607893919237"><ele>504.0</ele><time>2026-05-01T10:09:12Z</time></trkpt><trkpt lat="43.4905085397759" lon="12.773350475990469"><ele>507.0</ele><time>2026-05-01T10:09:13Z</time></trkpt><trkpt lat="43.49052063620029" lon="12.773078039032203"><ele>510.0</ele><time>2026-05-01T10:09:14Z</time></trkpt><trkpt lat="43.49052448431405" lon="12.772812152532167"><ele>513.0</ele><time>2026-05-01T10:09:15Z</time></trkpt><trkpt lat="43.49053247443065" lon="12.772560584432103"><ele>515.0</ele><time>2026-05-01T10:09:16Z</time></trkpt><trkpt lat="43.490527809343476" lon="12.772308266016612"><ele>517.0</ele><time>2026-05-01T10:09:17Z</time></trkpt><trkpt lat="43.4905006518171" lon="12.772060710288947"><ele>519.0</ele><time>2026-05-01T10:09:18Z</time></trkpt><trkpt lat="43.490460685224704" lon="12.771819086063745"><ele>516.0</ele><time>2026-05-01T10:09:19Z</time></trkpt><trkpt lat="43.49040764164822" lon="12.771581438686061"><ele>513.0</ele><time>2026-05-01T10:09:20Z</time></trkpt><trkpt lat="43.49033913496616" lon="12.771358599311597"><ele>510.0</ele><time>2026-05-01T10:09:21Z</time></trkpt><trkpt lat="43.490273067184035" lon="12.771141017755985"><ele>512.5</ele><time>2026-05-01T10:09:22Z</time></trkpt><trkpt lat="43.49021219013095" lon="12.770945883328368"><ele>515.0</ele><time>2026-05-01T10:09:23Z</time></trkpt><trkpt lat="43.49016470699185" lon="12.770746110535875"><ele>517.5</ele><time>2026-05-01T10:09:24Z</time></trkpt><trkpt lat="43.49013413364897" lon="12.770556223140694"><ele>520.0</ele><time>2026-05-01T10:09:25Z</time></trkpt><trkpt lat="43.49012414039502" lon="12.770369522063602"><ele>519.75</ele><time>2026-05-01T10:09:26Z</time></trkpt><trkpt lat="43.49013173146099" lon="12.770168660133269"><ele>519.5</ele><time>2026-05-01T10:09:27Z</time></trkpt><trkpt lat="43.49015925177452" lon="12.769966054983744"><ele>519.25</ele><time>2026-05-01T10:09:28Z</time></trkpt><trkpt lat="43.49019338393698" lon="12.7697600719069"><ele>519.0</ele><time>2026-05-01T10:09:29Z</time></trkpt><trkpt lat="43.49022404898229" lon="12.769549067675014"><ele>521.0</ele><time>2026-05-01T10:09:30Z</time></trkpt><trkpt lat="43.490257981652654" lon="12.7693268197373"><ele>523.0</ele><time>2026-05-01T10:09:31Z</time></trkpt><trkpt lat="43.49029608261702" lon="12.769097770239567"><ele>525.0</ele><time>2026-05-01T10:09:32Z</time></trkpt><trkpt lat="43.4903380382802" lon="12.76888147621985"><ele>525.0</ele><time>2026-05-01T10:09:33Z</time></trkpt><trkpt lat="43.49037075260709" lon="12.768663091594084"><ele>525.0</ele><time>2026-05-01T10:09:34Z</time></trkpt><trkpt lat="43.4904045105169" lon="12.768458616663471"><ele>525.0</ele><time>2026-05-01T10:09:35Z</time></trkpt><trkpt lat="43.49044876190143" lon="12.768285165257737"><ele>525.0</ele><time>2026-05-01T10:09:36Z</time></trkpt><trkpt lat="43.490500836871696" lon="12.768134467504746"><ele>519.0</ele><time>2026-05-01T10:09:37Z</time></trkpt><trkpt lat="43.49060337473696" lon="12.768060453748884"><ele>513.0</ele><time>2026-05-01T10:09:38Z</time></trkpt><trkpt lat="43.490725980898" lon="12.768012486843"><ele>507.0</ele><time>2026-05-01T10:09:39Z</time></trkpt><trkpt lat="43.49086803269132" lon="12.767955062207296"><ele>501.0</ele><time>2026-05-01T10:09:40Z</time></trkpt><trkpt lat="43.491019525202134" lon="12.767939916284119"><ele>501.0</ele><time>2026-05-01T10:09:41Z</time></trkpt><trkpt lat="43.49118603608566" lon="12.767968824451941"><ele>501.0</ele><time>2026-05-01T10:09:42Z</time></trkpt><trkpt lat="43.491366459681515" lon="12.768025433609159"><ele>501.0</ele><time>2026-05-01T10:09:43Z</time></trkpt><trkpt lat="43.491562613496946" lon="12.768070176690156"><ele>497.5</ele><time>2026-05-01T10:09:44Z</time></trkpt><trkpt lat="43.49177953890228" lon="12.768122113197999"><ele>494.0</ele><time>2026-05-01T10:09:45Z</time></trkpt><trkpt lat="43.49200851931199" lon="12.768169553508416"><ele>493.3333333333333</ele><time>2026-05-01T10:09:46Z</time></trkpt><trkpt lat="43.492235764799496" lon="12.768219164790784"><ele>492.66666666666663</ele><time>2026-05-01T10:09:47Z</time></trkpt><trkpt lat="43.49244293982399" lon="12.76826303274812"><ele>492.0</ele><time>2026-05-01T10:09:48Z</time></trkpt><trkpt lat="43.49263776065698" lon="12.768289067039333"><ele>492.0</ele><time>2026-05-01T10:09:49Z</time></trkpt><trkpt lat="43.49283474276755" lon="12.768288048005758"><ele>492.0</ele><time>2026-05-01T10:09:50Z</time></trkpt><trkpt lat="43.493050499466605" lon="12.768244506402366"><ele>492.0</ele><time>2026-05-01T10:09:51Z</time></trkpt><trkpt lat="43.49326978324612" lon="12.768183797301159"><ele>488.33333333333337</ele><time>2026-05-01T10:09:52Z</time></trkpt><trkpt lat="43.49348934797901" lon="12.768130976696684"><ele>484.6666666666667</ele><time>2026-05-01T10:09:53Z</time></trkpt><trkpt lat="43.49370714120969" lon="12.768117430757451"><ele>481.0</ele><time>2026-05-01T10:09:54Z</time></trkpt><trkpt lat="43.493914477381736" lon="12.768200428278837"><ele>481.0</ele><time>2026-05-01T10:09:55Z</time></trkpt><trkpt lat="43.49411624904926" lon="12.768256489297347"><ele>481.0</ele><time>2026-05-01T10:09:56Z</time></trkpt><trkpt lat="43.494299185962326" lon="12.768326608495698"><ele>481.0</ele><time>2026-05-01T10:09:57Z</time></trkpt><trkpt lat="43.494473949416644" lon="12.768354571868345"><ele>478.6666666666667</ele><time>2026-05-01T10:09:58Z</time></trkpt><trkpt lat="43.49463037298784" lon="12.768326267545326"><ele>476.33333333333337</ele><time>2026-05-01T10:09:59Z</time></trkpt><trkpt lat="43.494776011178345" lon="12.768271445322505"><ele>474.0</ele><time>2026-05-01T10:10:00Z</time></trkpt><trkpt lat="43.49491363273903" lon="12.768171322887252"><ele>474.0</ele><time>2026-05-01T10:10:01Z</time></trkpt><trkpt lat="43.49503600795909" lon="12.768025353117396"><ele>474.0</ele><time>2026-05-01T10:10:02Z</time></trkpt><trkpt lat="43.495150091645755" lon="12.767844107270639"><ele>474.0</ele><time>2026-05-01T10:10:03Z</time></trkpt><trkpt lat="43.49521082976312" lon="12.767575904071645"><ele>473.66666666666663</ele><time>2026-05-01T10:10:04Z</time></trkpt><trkpt lat="43.49528433192979" lon="12.767296578807542"><ele>473.3333333333333</ele><time>2026-05-01T10:10:05Z</time></trkpt><trkpt lat="43.495355946638654" lon="12.767006924055702"><ele>473.0</ele><time>2026-05-01T10:10:06Z</time></trkpt><trkpt lat="43.49544075820688" lon="12.76670194357378"><ele>473.0</ele><time>2026-05-01T10:10:07Z</time></trkpt><trkpt lat="43.495535015350185" lon="12.766384379099742"><ele>473.0</ele><time>2026-05-01T10:10:08Z</time></trkpt><trkpt lat="43.495634970681955" lon="12.766054575182649"><ele>473.0</ele><time>2026-05-01T10:10:09Z</time></trkpt><trkpt lat="43.49573729512018" lon="12.765722867582214"><ele>473.0</ele><time>2026-05-01T10:10:10Z</time></trkpt><trkpt lat="43.49584882751161" lon="12.76543725695909"><ele>474.5</ele><time>2026-05-01T10:10:11Z</time></trkpt><trkpt lat="43.49600922398068" lon="12.765182123385939"><ele>476.0</ele><time>2026-05-01T10:10:12Z</time></trkpt><trkpt lat="43.49614875956101" lon="12.764908300686413"><ele>474.0</ele><time>2026-05-01T10:10:13Z</time></trkpt><trkpt lat="43.49630334107323" lon="12.764641144484804"><ele>472.0</ele><time>2026-05-01T10:10:14Z</time></trkpt><trkpt lat="43.49645691539322" lon="12.764361540017132"><ele>470.5</ele><time>2026-05-01T10:10:15Z</time></trkpt><trkpt lat="43.49661548210289" lon="12.764083293399294"><ele>469.0</ele><time>2026-05-01T10:10:16Z</time></trkpt><trkpt lat="43.49677438637536" lon="12.76380367933975"><ele>470.0</ele><time>2026-05-01T10:10:17Z</time></trkpt><trkpt lat="43.49693074465103" lon="12.763521850232252"><ele>471.0</ele><time>2026-05-01T10:10:18Z</time></trkpt><trkpt lat="43.49708519571045" lon="12.763244995091103"><ele>466.0</ele><time>2026-05-01T10:10:19Z</time></trkpt><trkpt lat="43.49723392897866" lon="12.762980125813435"><ele>461.0</ele><time>2026-05-01T10:10:20Z</time></trkpt><trkpt lat="43.497382614749505" lon="12.762726995126275"><ele>464.0</ele><time>2026-05-01T10:10:21Z</time></trkpt><trkpt lat="43.49754067299909" lon="12.762501199767469"><ele>467.0</ele><time>2026-05-01T10:10:22Z</time></trkpt><trkpt lat="43.49773613624961" lon="12.762348797085291"><ele>464.0</ele><time>2026-05-01T10:10:23Z</time></trkpt><trkpt lat="43.49794122808987" lon="12.762197693648503"><ele>461.0</ele><time>2026-05-01T10:10:24Z</time></trkpt><trkpt lat="43.498146854096916" lon="12.762025966016502"><ele>461.0</ele><time>2026-05-01T10:10:25Z</time></trkpt><trkpt lat="43.49836518186926" lon="12.761885975898242"><ele>461.0</ele><time>2026-05-01T10:10:26Z</time></trkpt><trkpt lat="43.498573803382804" lon="12.761737530072294"><ele>459.5</ele><time>2026-05-01T10:10:27Z</time></trkpt><trkpt lat="43.49877102577687" lon="12.761571957847892"><ele>458.0</ele><time>2026-05-01T10:10:28Z</time></trkpt><trkpt lat="43.498959189875464" lon="12.761394221830272"><ele>458.0</ele><time>2026-05-01T10:10:29Z</time></trkpt><trkpt lat="43.49913892427661" lon="12.761211739278036"><ele>458.0</ele><time>2026-05-01T10:10:30Z</time></trkpt><trkpt lat="43.4993115438167" lon="12.761028727744494"><ele>458.0</ele><time>2026-05-01T10:10:31Z</time></trkpt><trkpt lat="43.499493263582195" lon="12.760874005421783"><ele>457.3333333333333</ele><time>2026-05-01T10:10:32Z</time></trkpt><trkpt lat="43.49966109873143" lon="12.760702717703625"><ele>456.66666666666663</ele><time>2026-05-01T10:10:33Z</time></trkpt><trkpt lat="43.4997662891536" lon="12.760447184364711"><ele>456.0</ele><time>2026-05-01T10:10:34Z</time></trkpt><trkpt lat="43.49989248718022" lon="12.760257434695607"><ele>456.66666666666663</ele><time>2026-05-01T10:10:35Z</time></trkpt><trkpt lat="43.500010816108166" lon="12.76008237432626"><ele>457.3333333333333</ele><time>2026-05-01T10:10:36Z</time></trkpt><trkpt lat="43.50012344111958" lon="12.759912491786201"><ele>458.0</ele><time>2026-05-01T10:10:37Z</time></trkpt><trkpt lat="43.500223915657" lon="12.759741614931567"><ele>458.0</ele><time>2026-05-01T10:10:38Z</time></trkpt><trkpt lat="43.500311618826615" lon="12.759563689352516"><ele>458.0</ele><time>2026-05-01T10:10:39Z</time></trkpt><trkpt lat="43.500385009616046" lon="12.759381712838783"><ele>458.0</ele><time>2026-05-01T10:10:40Z</time></trkpt><trkpt lat="43.500450363662566" lon="12.759192686043374"><ele>457.75</ele><time>2026-05-01T10:10:41Z</time></trkpt><trkpt lat="43.500516047651914" lon="12.759011171563172"><ele>457.5</ele><time>2026-05-01T10:10:42Z</time></trkpt><trkpt lat="43.500587967007064" lon="12.758850050050086"><ele>457.25</ele><time>2026-05-01T10:10:43Z</time></trkpt><trkpt lat="43.500657136025346" lon="12.758689491769283"><ele>457.0</ele><time>2026-05-01T10:10:44Z</time></trkpt><trkpt lat="43.50072486584331" lon="12.758525025120171"><ele>457.5</ele><time>2026-05-01T10:10:45Z</time></trkpt><trkpt lat="43.50080548828542" lon="12.758370455364412"><ele>458.0</ele><time>2026-05-01T10:10:46Z</time></trkpt><trkpt lat="43.50089727874243" lon="12.758254193901335"><ele>458.5</ele><time>2026-05-01T10:10:47Z</time></trkpt><trkpt lat="43.50099434668076" lon="12.758135216509865"><ele>459.0</ele><time>2026-05-01T10:10:48Z</time></trkpt><trkpt lat="43.50110551705695" lon="12.758037359743492"><ele>459.0</ele><time>2026-05-01T10:10:49Z</time></trkpt><trkpt lat="43.50122461955908" lon="12.757950497166728"><ele>459.0</ele><time>2026-05-01T10:10:50Z</time></trkpt><trkpt lat="43.50134906280683" lon="12.757872786310609"><ele>459.0</ele><time>2026-05-01T10:10:51Z</time></trkpt><trkpt lat="43.501471382910445" lon="12.757789840600193"><ele>459.0</ele><time>2026-05-01T10:10:52Z</time></trkpt><trkpt lat="43.50159900664862" lon="12.757698308388392"><ele>462.66666666666663</ele><time>2026-05-01T10:10:53Z</time></trkpt><trkpt lat="43.50173137854915" lon="12.757597472191698"><ele>466.3333333333333</ele><time>2026-05-01T10:10:54Z</time></trkpt><trkpt lat="43.501866220494854" lon="12.757495784817422"><ele>470.0</ele><time>2026-05-01T10:10:55Z</time></trkpt><trkpt lat="43.50199737678074" lon="12.757391595948857"><ele>471.0</ele><time>2026-05-01T10:10:56Z</time></trkpt><trkpt lat="43.502116851627" lon="12.757275153575597"><ele>472.0</ele><time>2026-05-01T10:10:57Z</time></trkpt><trkpt lat="43.502223998763455" lon="12.757139786649041"><ele>473.0</ele><time>2026-05-01T10:10:58Z</time></trkpt><trkpt lat="43.50231441430449" lon="12.756990766718753"><ele>474.0</ele><time>2026-05-01T10:10:59Z</time></trkpt><trkpt lat="43.50240076015752" lon="12.756836784769554"><ele>474.0</ele><time>2026-05-01T10:11:00Z</time></trkpt><trkpt lat="43.502486988991215" lon="12.756678264937618"><ele>474.0</ele><time>2026-05-01T10:11:01Z</time></trkpt><trkpt lat="43.50257353760098" lon="12.756521939277118"><ele>474.0</ele><time>2026-05-01T10:11:02Z</time></trkpt><trkpt lat="43.50265947315424" lon="12.756373370833616"><ele>474.0</ele><time>2026-05-01T10:11:03Z</time></trkpt><trkpt lat="43.5027463049298" lon="12.756223372281255"><ele>474.0</ele><time>2026-05-01T10:11:04Z</time></trkpt><trkpt lat="43.5028305069271" lon="12.75607195477456"><ele>474.0</ele><time>2026-05-01T10:11:05Z</time></trkpt><trkpt lat="43.502911836372974" lon="12.755926951689771"><ele>474.0</ele><time>2026-05-01T10:11:06Z</time></trkpt><trkpt lat="43.50299128286812" lon="12.75578439389272"><ele>474.0</ele><time>2026-05-01T10:11:07Z</time></trkpt><trkpt lat="43.503069847270105" lon="12.755642732108525"><ele>475.5</ele><time>2026-05-01T10:11:08Z</time></trkpt><trkpt lat="43.503142866204165" lon="12.755506355324606"><ele>477.0</ele><time>2026-05-01T10:11:09Z</time></trkpt><trkpt lat="43.50321160790825" lon="12.755364000129202"><ele>478.5</ele><time>2026-05-01T10:11:10Z</time></trkpt><trkpt lat="43.50326499978577" lon="12.755208919981305"><ele>480.0</ele><time>2026-05-01T10:11:11Z</time></trkpt><trkpt lat="43.503313212170355" lon="12.75505280849532"><ele>480.0</ele><time>2026-05-01T10:11:12Z</time></trkpt><trkpt lat="43.50336357848861" lon="12.754894843055181"><ele>480.0</ele><time>2026-05-01T10:11:13Z</time></trkpt><trkpt lat="43.503408680599584" lon="12.754738376116727"><ele>480.0</ele><time>2026-05-01T10:11:14Z</time></trkpt><trkpt lat="43.50345397562255" lon="12.75458337985004"><ele>480.0</ele><time>2026-05-01T10:11:15Z</time></trkpt><trkpt lat="43.50349748966874" lon="12.75443493873394"><ele>480.0</ele><time>2026-05-01T10:11:16Z</time></trkpt><trkpt lat="43.50354302239567" lon="12.754288440719991"><ele>480.0</ele><time>2026-05-01T10:11:17Z</time></trkpt><trkpt lat="43.50358680032844" lon="12.754137302846093"><ele>480.0</ele><time>2026-05-01T10:11:18Z</time></trkpt><trkpt lat="43.503633360470495" lon="12.753982501236598"><ele>480.0</ele><time>2026-05-01T10:11:19Z</time></trkpt><trkpt lat="43.50368341901813" lon="12.753826990209518"><ele>480.0</ele><time>2026-05-01T10:11:20Z</time></trkpt><trkpt lat="43.50374343648493" lon="12.753675030806162"><ele>480.0</ele><time>2026-05-01T10:11:21Z</time></trkpt><trkpt lat="43.50381287562743" lon="12.753525783652432"><ele>480.0</ele><time>2026-05-01T10:11:22Z</time></trkpt><trkpt lat="43.50389137758322" lon="12.753386023656285"><ele>480.0</ele><time>2026-05-01T10:11:23Z</time></trkpt><trkpt lat="43.50398394735085" lon="12.75325411363493"><ele>476.75</ele><time>2026-05-01T10:11:24Z</time></trkpt><trkpt lat="43.50408918301162" lon="12.75313809640448"><ele>473.5</ele><time>2026-05-01T10:11:25Z</time></trkpt><trkpt lat="43.50420367916663" lon="12.753038820541281"><ele>470.25</ele><time>2026-05-01T10:11:26Z</time></trkpt><trkpt lat="43.5043295398706" lon="12.752961529637851"><ele>467.0</ele><time>2026-05-01T10:11:27Z</time></trkpt><trkpt lat="43.50446591877262" lon="12.752910043842022"><ele>465.0</ele><time>2026-05-01T10:11:28Z</time></trkpt><trkpt lat="43.50462723435147" lon="12.752903497232518"><ele>463.0</ele><time>2026-05-01T10:11:29Z</time></trkpt><trkpt lat="43.50479041570977" lon="12.752913932975574"><ele>461.0</ele><time>2026-05-01T10:11:30Z</time></trkpt><trkpt lat="43.50495146740444" lon="12.752944839246792"><ele>461.0</ele><time>2026-05-01T10:11:31Z</time></trkpt><trkpt lat="43.505131241586305" lon="12.753006128457486"><ele>461.0</ele><time>2026-05-01T10:11:32Z</time></trkpt><trkpt lat="43.50514843787887" lon="12.752768874483888"><ele>461.0</ele><time>2026-05-01T10:11:33Z</time></trkpt><trkpt lat="43.50527411150664" lon="12.752722723451239"><ele>462.5</ele><time>2026-05-01T10:11:34Z</time></trkpt><trkpt lat="43.50536260055219" lon="12.75265197452699"><ele>464.0</ele><time>2026-05-01T10:11:35Z</time></trkpt><trkpt lat="43.50547732349457" lon="12.752525013222561"><ele>465.5</ele><time>2026-05-01T10:11:36Z</time></trkpt><trkpt lat="43.50555746216317" lon="12.752380037046073"><ele>467.0</ele><time>2026-05-01T10:11:37Z</time></trkpt><trkpt lat="43.505627610894706" lon="12.752206629193495"><ele>463.0</ele><time>2026-05-01T10:11:38Z</time></trkpt><trkpt lat="43.505686227039185" lon="12.752002501850276"><ele>459.0</ele><time>2026-05-01T10:11:39Z</time></trkpt><trkpt lat="43.505734915425116" lon="12.751783437870966"><ele>455.0</ele><time>2026-05-01T10:11:40Z</time></trkpt><trkpt lat="43.50578462332173" lon="12.751574483311119"><ele>455.0</ele><time>2026-05-01T10:11:41Z</time></trkpt><trkpt lat="43.505847169477434" lon="12.751376594651648"><ele>455.0</ele><time>2026-05-01T10:11:42Z</time></trkpt><trkpt lat="43.50591345984889" lon="12.751185289183777"><ele>455.0</ele><time>2026-05-01T10:11:43Z</time></trkpt><trkpt lat="43.50598381353935" lon="12.750996886732203"><ele>455.0</ele><time>2026-05-01T10:11:44Z</time></trkpt><trkpt lat="43.506055819138574" lon="12.75082884856651"><ele>455.0</ele><time>2026-05-01T10:11:45Z</time></trkpt><trkpt lat="43.506145980767286" lon="12.750673738674248"><ele>455.0</ele><time>2026-05-01T10:11:46Z</time></trkpt><trkpt lat="43.506217319624334" lon="12.750493241167295"><ele>455.0</ele><time>2026-05-01T10:11:47Z</time></trkpt><trkpt lat="43.50629673395836" lon="12.75033003829503"><ele>452.5</ele><time>2026-05-01T10:11:48Z</time></trkpt><trkpt lat="43.50638482472501" lon="12.750188914078949"><ele>450.0</ele><time>2026-05-01T10:11:49Z</time></trkpt><trkpt lat="43.50646434714197" lon="12.750020226102615"><ele>447.5</ele><time>2026-05-01T10:11:50Z</time></trkpt><trkpt lat="43.50654850511847" lon="12.749846444611261"><ele>445.0</ele><time>2026-05-01T10:11:51Z</time></trkpt><trkpt lat="43.50663313987294" lon="12.749669518707352"><ele>445.0</ele><time>2026-05-01T10:11:52Z</time></trkpt><trkpt lat="43.5067207829865" lon="12.749490620929835"><ele>445.0</ele><time>2026-05-01T10:11:53Z</time></trkpt><trkpt lat="43.50680435769857" lon="12.749320995220376"><ele>445.0</ele><time>2026-05-01T10:11:54Z</time></trkpt><trkpt lat="43.506873754966165" lon="12.74916285298954"><ele>445.0</ele><time>2026-05-01T10:11:55Z</time></trkpt><trkpt lat="43.50693885167409" lon="12.748999818510523"><ele>444.25</ele><time>2026-05-01T10:11:56Z</time></trkpt><trkpt lat="43.50700315204246" lon="12.748824579222251"><ele>443.5</ele><time>2026-05-01T10:11:57Z</time></trkpt><trkpt lat="43.50705601475822" lon="12.748636543340885"><ele>442.75</ele><time>2026-05-01T10:11:58Z</time></trkpt><trkpt lat="43.50710236530459" lon="12.74844394558172"><ele>442.0</ele><time>2026-05-01T10:11:59Z</time></trkpt><trkpt lat="43.507139946166355" lon="12.7482467806936"><ele>439.25</ele><time>2026-05-01T10:12:00Z</time></trkpt><trkpt lat="43.507166893920925" lon="12.748053296389775"><ele>436.5</ele><time>2026-05-01T10:12:01Z</time></trkpt><trkpt lat="43.50718090270152" lon="12.747862563468255"><ele>433.75</ele><time>2026-05-01T10:12:02Z</time></trkpt><trkpt lat="43.50718930246822" lon="12.747671871561838"><ele>431.0</ele><time>2026-05-01T10:12:03Z</time></trkpt><trkpt lat="43.5071927832882" lon="12.747481655009473"><ele>431.0</ele><time>2026-05-01T10:12:04Z</time></trkpt><trkpt lat="43.50719310388637" lon="12.747297954341796"><ele>431.0</ele><time>2026-05-01T10:12:05Z</time></trkpt><trkpt lat="43.50719302121805" lon="12.747126486255574"><ele>431.0</ele><time>2026-05-01T10:12:06Z</time></trkpt><trkpt lat="43.50718476049671" lon="12.746951345489403"><ele>431.0</ele><time>2026-05-01T10:12:07Z</time></trkpt><trkpt lat="43.50717404405013" lon="12.74678212070447"><ele>431.0</ele><time>2026-05-01T10:12:08Z</time></trkpt><trkpt lat="43.5071770676225" lon="12.746620835367686"><ele>431.0</ele><time>2026-05-01T10:12:09Z</time></trkpt><trkpt lat="43.50717150980832" lon="12.746472318572104"><ele>431.0</ele><time>2026-05-01T10:12:10Z</time></trkpt><trkpt lat="43.507159963339355" lon="12.74632917544384"><ele>431.0</ele><time>2026-05-01T10:12:11Z</time></trkpt><trkpt lat="43.50714232013323" lon="12.746178107212632"><ele>431.0</ele><time>2026-05-01T10:12:12Z</time></trkpt><trkpt lat="43.50711089955548" lon="12.746030315538908"><ele>435.5</ele><time>2026-05-01T10:12:13Z</time></trkpt><trkpt lat="43.50707640484694" lon="12.745875461655979"><ele>440.0</ele><time>2026-05-01T10:12:14Z</time></trkpt><trkpt lat="43.507034472631204" lon="12.7457297238894"><ele>444.5</ele><time>2026-05-01T10:12:15Z</time></trkpt><trkpt lat="43.50699758713658" lon="12.745577580551615"><ele>449.0</ele><time>2026-05-01T10:12:16Z</time></trkpt><trkpt lat="43.50696621054641" lon="12.745430788431786"><ele>449.0</ele><time>2026-05-01T10:12:17Z</time></trkpt><trkpt lat="43.50694429532093" lon="12.745285410778507"><ele>449.0</ele><time>2026-05-01T10:12:18Z</time></trkpt><trkpt lat="43.506942225676305" lon="12.745135689448194"><ele>449.0</ele><time>2026-05-01T10:12:19Z</time></trkpt><trkpt lat="43.506990055940044" lon="12.74500887701533"><ele>449.0</ele><time>2026-05-01T10:12:20Z</time></trkpt><trkpt lat="43.5070526749192" lon="12.744910582437976"><ele>449.0</ele><time>2026-05-01T10:12:21Z</time></trkpt><trkpt lat="43.50713588536213" lon="12.744813706508076"><ele>446.0</ele><time>2026-05-01T10:12:22Z</time></trkpt><trkpt lat="43.50721743220473" lon="12.744719250221818"><ele>443.0</ele><time>2026-05-01T10:12:23Z</time></trkpt><trkpt lat="43.50729759752474" lon="12.744638727404737"><ele>440.0</ele><time>2026-05-01T10:12:24Z</time></trkpt><trkpt lat="43.507362675436674" lon="12.744570047548468"><ele>437.0</ele><time>2026-05-01T10:12:25Z</time></trkpt><trkpt lat="43.507469908141225" lon="12.744589512748844"><ele>434.0</ele><time>2026-05-01T10:12:27Z</time></trkpt><trkpt lat="43.50757496425518" lon="12.744602156765845"><ele>433.99999999999994</ele><time>2026-05-01T10:12:29Z</time></trkpt><trkpt lat="43.50762835451383" lon="12.744666129512263"><ele>434.0</ele><time>2026-05-01T10:12:30Z</time></trkpt><trkpt lat="43.50770358803879" lon="12.744700586179997"><ele>434.0</ele><time>2026-05-01T10:12:31Z</time></trkpt><trkpt lat="43.507779537215974" lon="12.744761715360177"><ele>434.0</ele><time>2026-05-01T10:12:32Z</time></trkpt><trkpt lat="43.507862339687975" lon="12.744830981175971"><ele>433.99999999999994</ele><time>2026-05-01T10:12:33Z</time></trkpt><trkpt lat="43.50795346018333" lon="12.744904406478996"><ele>434.0</ele><time>2026-05-01T10:12:34Z</time></trkpt><trkpt lat="43.50804624988414" lon="12.744979151452203"><ele>432.75</ele><time>2026-05-01T10:12:35Z</time></trkpt><trkpt lat="43.50814328293323" lon="12.745054885032712"><ele>431.5</ele><time>2026-05-01T10:12:36Z</time></trkpt><trkpt lat="43.50824385732908" lon="12.745133642577155"><ele>430.25</ele><time>2026-05-01T10:12:37Z</time></trkpt><trkpt lat="43.508342100167305" lon="12.745212735033752"><ele>429.0</ele><time>2026-05-01T10:12:38Z</time></trkpt><trkpt lat="43.50851603240868" lon="12.745369742950345"><ele>429.0</ele><time>2026-05-01T10:12:40Z</time></trkpt><trkpt lat="43.508606125322174" lon="12.745442483448597"><ele>429.0</ele><time>2026-05-01T10:12:41Z</time></trkpt><trkpt lat="43.50870813709201" lon="12.745524847171865"><ele>429.0</ele><time>2026-05-01T10:12:42Z</time></trkpt><trkpt lat="43.508815743634585" lon="12.745610205959679"><ele>429.0</ele><time>2026-05-01T10:12:43Z</time></trkpt><trkpt lat="43.50892861634821" lon="12.745675019895128"><ele>429.0</ele><time>2026-05-01T10:12:44Z</time></trkpt><trkpt lat="43.50903538546779" lon="12.745766010698267"><ele>429.0</ele><time>2026-05-01T10:12:45Z</time></trkpt><trkpt lat="43.50914980850387" lon="12.7458602138812"><ele>429.0</ele><time>2026-05-01T10:12:46Z</time></trkpt><trkpt lat="43.50927467864093" lon="12.745953986668697"><ele>429.0</ele><time>2026-05-01T10:12:47Z</time></trkpt><trkpt lat="43.50940184858583" lon="12.746059188016545"><ele>429.0</ele><time>2026-05-01T10:12:48Z</time></trkpt><trkpt lat="43.50953695549095" lon="12.746169684285382"><ele>429.0</ele><time>2026-05-01T10:12:49Z</time></trkpt><trkpt lat="43.50967182501243" lon="12.74628186855326"><ele>429.0</ele><time>2026-05-01T10:12:50Z</time></trkpt><trkpt lat="43.50981902507975" lon="12.746393540394987"><ele>431.66666666666663</ele><time>2026-05-01T10:12:51Z</time></trkpt><trkpt lat="43.50997300746997" lon="12.746507933162665"><ele>434.3333333333333</ele><time>2026-05-01T10:12:52Z</time></trkpt><trkpt lat="43.51015154084382" lon="12.746591471773229"><ele>437.0</ele><time>2026-05-01T10:12:53Z</time></trkpt><trkpt lat="43.51032869074211" lon="12.746657665244628"><ele>440.66666666666663</ele><time>2026-05-01T10:12:54Z</time></trkpt><trkpt lat="43.51050941762859" lon="12.746704602799793"><ele>444.33333333333337</ele><time>2026-05-01T10:12:55Z</time></trkpt><trkpt lat="43.510694629360536" lon="12.746762061107617"><ele>448.0</ele><time>2026-05-01T10:12:56Z</time></trkpt><trkpt lat="43.51088237015083" lon="12.746828272711134"><ele>449.33333333333337</ele><time>2026-05-01T10:12:57Z</time></trkpt><trkpt lat="43.511061478616185" lon="12.746898992585747"><ele>450.66666666666663</ele><time>2026-05-01T10:12:58Z</time></trkpt><trkpt lat="43.5112344920761" lon="12.746960743129641"><ele>452.0</ele><time>2026-05-01T10:12:59Z</time></trkpt><trkpt lat="43.51139315614002" lon="12.747016472300475"><ele>452.0</ele><time>2026-05-01T10:13:00Z</time></trkpt><trkpt lat="43.51154570787203" lon="12.7470672276841"><ele>452.0</ele><time>2026-05-01T10:13:01Z</time></trkpt><trkpt lat="43.511682037270454" lon="12.747118001931836"><ele>452.0</ele><time>2026-05-01T10:13:02Z</time></trkpt><trkpt lat="43.51180680113012" lon="12.747146975142531"><ele>452.0</ele><time>2026-05-01T10:13:03Z</time></trkpt><trkpt lat="43.511922316688" lon="12.747136720352156"><ele>452.0</ele><time>2026-05-01T10:13:04Z</time></trkpt><trkpt lat="43.512035264686" lon="12.747089004841518"><ele>452.0</ele><time>2026-05-01T10:13:05Z</time></trkpt><trkpt lat="43.512144668663915" lon="12.747020447053087"><ele>452.0</ele><time>2026-05-01T10:13:06Z</time></trkpt><trkpt lat="43.5122627038996" lon="12.746932195071953"><ele>452.0</ele><time>2026-05-01T10:13:07Z</time></trkpt><trkpt lat="43.512383687905675" lon="12.746845297814723"><ele>454.25</ele><time>2026-05-01T10:13:08Z</time></trkpt><trkpt lat="43.5125063962798" lon="12.74675032234138"><ele>456.5</ele><time>2026-05-01T10:13:09Z</time></trkpt><trkpt lat="43.5126125592269" lon="12.746628075531001"><ele>458.75</ele><time>2026-05-01T10:13:10Z</time></trkpt><trkpt lat="43.512704712035415" lon="12.74647799229406"><ele>461.0</ele><time>2026-05-01T10:13:11Z</time></trkpt><trkpt lat="43.51276422298566" lon="12.746285918263935"><ele>461.0</ele><time>2026-05-01T10:13:12Z</time></trkpt><trkpt lat="43.51281508628214" lon="12.746075270020377"><ele>461.0</ele><time>2026-05-01T10:13:13Z</time></trkpt><trkpt lat="43.51286035779005" lon="12.745861221662903"><ele>461.0</ele><time>2026-05-01T10:13:14Z</time></trkpt><trkpt lat="43.51289924347865" lon="12.745635990663374"><ele>459.3333333333333</ele><time>2026-05-01T10:13:15Z</time></trkpt><trkpt lat="43.51297510970509" lon="12.745430148453568"><ele>457.66666666666663</ele><time>2026-05-01T10:13:16Z</time></trkpt><trkpt lat="43.51304426736504" lon="12.745223025785393"><ele>456.0</ele><time>2026-05-01T10:13:17Z</time></trkpt><trkpt lat="43.513121777330845" lon="12.745014156765468"><ele>448.0</ele><time>2026-05-01T10:13:18Z</time></trkpt><trkpt lat="43.513188198675735" lon="12.74479165053345"><ele>440.0</ele><time>2026-05-01T10:13:19Z</time></trkpt><trkpt lat="43.51335444310298" lon="12.74436116825168"><ele>438.66666666666663</ele><time>2026-05-01T10:13:21Z</time></trkpt><trkpt lat="43.51343243635849" lon="12.744143857445918"><ele>437.33333333333337</ele><time>2026-05-01T10:13:22Z</time></trkpt><trkpt lat="43.513525205092726" lon="12.743934830220018"><ele>436.0</ele><time>2026-05-01T10:13:23Z</time></trkpt><trkpt lat="43.51358894499973" lon="12.743730494863884"><ele>436.0</ele><time>2026-05-01T10:13:24Z</time></trkpt><trkpt lat="43.51365665874749" lon="12.74353844036901"><ele>436.0</ele><time>2026-05-01T10:13:25Z</time></trkpt><trkpt lat="43.51374132475818" lon="12.743360445084617"><ele>436.0</ele><time>2026-05-01T10:13:26Z</time></trkpt><trkpt lat="43.51381187543968" lon="12.743172941486042"><ele>432.0</ele><time>2026-05-01T10:13:27Z</time></trkpt><trkpt lat="43.513881328719805" lon="12.742985948342437"><ele>428.0</ele><time>2026-05-01T10:13:28Z</time></trkpt><trkpt lat="43.513945637471565" lon="12.742812253092213"><ele>424.0</ele><time>2026-05-01T10:13:29Z</time></trkpt><trkpt lat="43.514012212763554" lon="12.742630019435204"><ele>420.0</ele><time>2026-05-01T10:13:30Z</time></trkpt><trkpt lat="43.51407467242286" lon="12.74245568139187"><ele>419.75</ele><time>2026-05-01T10:13:31Z</time></trkpt><trkpt lat="43.51411898112005" lon="12.742270632437043"><ele>419.5</ele><time>2026-05-01T10:13:32Z</time></trkpt><trkpt lat="43.514165747069356" lon="12.742091836757668"><ele>419.25</ele><time>2026-05-01T10:13:33Z</time></trkpt><trkpt lat="43.51419580147786" lon="12.74190410228627"><ele>419.0</ele><time>2026-05-01T10:13:34Z</time></trkpt><trkpt lat="43.51419488473908" lon="12.741698435412879"><ele>418.66666666666663</ele><time>2026-05-01T10:13:35Z</time></trkpt><trkpt lat="43.51418567080881" lon="12.741490294816682"><ele>418.33333333333337</ele><time>2026-05-01T10:13:36Z</time></trkpt><trkpt lat="43.51416520292895" lon="12.741280604176625"><ele>418.0</ele><time>2026-05-01T10:13:37Z</time></trkpt><trkpt lat="43.51415467408765" lon="12.741068011925753"><ele>418.0</ele><time>2026-05-01T10:13:38Z</time></trkpt><trkpt lat="43.514123021268425" lon="12.740861644024275"><ele>418.0</ele><time>2026-05-01T10:13:39Z</time></trkpt><trkpt lat="43.51410534862494" lon="12.74065397311243"><ele>418.0</ele><time>2026-05-01T10:13:40Z</time></trkpt><trkpt lat="43.51409072701398" lon="12.740447389663514"><ele>418.0</ele><time>2026-05-01T10:13:41Z</time></trkpt><trkpt lat="43.51407310079672" lon="12.740248842971596"><ele>418.0</ele><time>2026-05-01T10:13:42Z</time></trkpt><trkpt lat="43.514067485530084" lon="12.740065670099558"><ele>418.0</ele><time>2026-05-01T10:13:43Z</time></trkpt><trkpt lat="43.514035464349725" lon="12.739886267986577"><ele>418.0</ele><time>2026-05-01T10:13:44Z</time></trkpt><trkpt lat="43.514023189394116" lon="12.739707124379562"><ele>417.5</ele><time>2026-05-01T10:13:45Z</time></trkpt><trkpt lat="43.51401292523505" lon="12.739532284322276"><ele>417.0</ele><time>2026-05-01T10:13:46Z</time></trkpt><trkpt lat="43.51399406364202" lon="12.739371924529381"><ele>416.5</ele><time>2026-05-01T10:13:47Z</time></trkpt><trkpt lat="43.513980914189716" lon="12.739224902434861"><ele>416.0</ele><time>2026-05-01T10:13:48Z</time></trkpt><trkpt lat="43.5139705403678" lon="12.73908915116035"><ele>415.49999999999994</ele><time>2026-05-01T10:13:49Z</time></trkpt><trkpt lat="43.51395979592909" lon="12.738961302448933"><ele>415.0</ele><time>2026-05-01T10:13:50Z</time></trkpt><trkpt lat="43.513952624701844" lon="12.738839565460555"><ele>414.5</ele><time>2026-05-01T10:13:51Z</time></trkpt><trkpt lat="43.51394455972332" lon="12.738725403859217"><ele>414.0</ele><time>2026-05-01T10:13:52Z</time></trkpt><trkpt lat="43.513941430281434" lon="12.738615842982233"><ele>413.49999999999994</ele><time>2026-05-01T10:13:53Z</time></trkpt><trkpt lat="43.51393017338194" lon="12.738521049860244"><ele>413.0</ele><time>2026-05-01T10:13:54Z</time></trkpt><trkpt lat="43.51393745305418" lon="12.738370789175207"><ele>413.0</ele><time>2026-05-01T10:13:56Z</time></trkpt><trkpt lat="43.513970317358364" lon="12.738266433992171"><ele>413.0</ele><time>2026-05-01T10:13:58Z</time></trkpt><trkpt lat="43.514016377220706" lon="12.73820363648068"><ele>413.0</ele><time>2026-05-01T10:14:00Z</time></trkpt><trkpt lat="43.51407683351923" lon="12.738133463388943"><ele>413.0</ele><time>2026-05-01T10:14:02Z</time></trkpt><trkpt lat="43.51407858522834" lon="12.738019206443335"><ele>413.0</ele><time>2026-05-01T10:14:05Z</time></trkpt><trkpt lat="43.51402217879197" lon="12.73795422584019"><ele>413.0</ele><time>2026-05-01T10:14:08Z</time></trkpt><trkpt lat="43.51397464279752" lon="12.737897235512229"><ele>413.0</ele><time>2026-05-01T10:14:10Z</time></trkpt><trkpt lat="43.51398516372115" lon="12.737793792311324"><ele>413.0</ele><time>2026-05-01T10:14:12Z</time></trkpt><trkpt lat="43.513956355842964" lon="12.737709654073212"><ele>413.0</ele><time>2026-05-01T10:14:14Z</time></trkpt><trkpt lat="43.513760756523084" lon="12.737814535650893"><ele>413.0</ele><time>2026-05-01T10:15:40Z</time></trkpt><trkpt lat="43.51421558767884" lon="12.73784497753972"><ele>411.0</ele><time>2026-05-01T10:18:08Z</time></trkpt><trkpt lat="43.51390653581399" lon="12.737716542509977"><ele>409.0</ele><time>2026-05-01T10:18:11Z</time></trkpt><trkpt lat="43.51363248231183" lon="12.738292534767744"><ele>411.0</ele><time>2026-05-01T10:18:12Z</time></trkpt><trkpt lat="43.513765123332085" lon="12.737786356958928"><ele>413.0</ele><time>2026-05-01T10:18:17Z</time></trkpt><trkpt lat="43.513840266488494" lon="12.737723954960211"><ele>412.2</ele><time>2026-05-01T10:31:24Z</time></trkpt><trkpt lat="43.51383971619605" lon="12.73760164090811"><ele>411.4</ele><time>2026-05-01T10:32:56Z</time></trkpt><trkpt lat="43.51382546045183" lon="12.73748362982665"><ele>410.59999999999997</ele><time>2026-05-01T10:32:58Z</time></trkpt><trkpt lat="43.51376953438613" lon="12.73726471887004"><ele>409.79999999999995</ele><time>2026-05-01T10:33:00Z</time></trkpt><trkpt lat="43.51374746589795" lon="12.737173142965617"><ele>409.0</ele><time>2026-05-01T10:33:01Z</time></trkpt><trkpt lat="43.5137638775641" lon="12.737076748516095"><ele>409.0</ele><time>2026-05-01T10:33:02Z</time></trkpt><trkpt lat="43.5137432734641" lon="12.736993663340368"><ele>409.0</ele><time>2026-05-01T10:33:03Z</time></trkpt><trkpt lat="43.51372141894341" lon="12.736905535853788"><ele>409.0</ele><time>2026-05-01T10:33:04Z</time></trkpt><trkpt lat="43.513697627808384" lon="12.736809599163653"><ele>409.0</ele><time>2026-05-01T10:33:05Z</time></trkpt><trkpt lat="43.51367352656807" lon="12.73671241286022"><ele>409.0</ele><time>2026-05-01T10:33:06Z</time></trkpt><trkpt lat="43.51364772391591" lon="12.736613310691277"><ele>409.0</ele><time>2026-05-01T10:33:07Z</time></trkpt><trkpt lat="43.51362136939669" lon="12.736510531816172"><ele>409.0</ele><time>2026-05-01T10:33:08Z</time></trkpt><trkpt lat="43.51359458342002" lon="12.736406071438557"><ele>411.2</ele><time>2026-05-01T10:33:09Z</time></trkpt><trkpt lat="43.51356622825133" lon="12.736295036762554"><ele>413.4</ele><time>2026-05-01T10:33:10Z</time></trkpt><trkpt lat="43.51353736845072" lon="12.73618337461387"><ele>415.6</ele><time>2026-05-01T10:33:11Z</time></trkpt><trkpt lat="43.513506343652864" lon="12.73606782943743"><ele>417.8</ele><time>2026-05-01T10:33:12Z</time></trkpt><trkpt lat="43.513470326844406" lon="12.735948856831904"><ele>420.0</ele><time>2026-05-01T10:33:13Z</time></trkpt><trkpt lat="43.51342735576498" lon="12.73583017707716"><ele>420.0</ele><time>2026-05-01T10:33:14Z</time></trkpt><trkpt lat="43.51338158370869" lon="12.735717218783048"><ele>420.0</ele><time>2026-05-01T10:33:15Z</time></trkpt><trkpt lat="43.51333356556301" lon="12.73561119538768"><ele>420.0</ele><time>2026-05-01T10:33:16Z</time></trkpt><trkpt lat="43.513281095157474" lon="12.735503142899145"><ele>420.0</ele><time>2026-05-01T10:33:17Z</time></trkpt><trkpt lat="43.51321824112439" lon="12.735413986466975"><ele>420.0</ele><time>2026-05-01T10:33:18Z</time></trkpt><trkpt lat="43.5131600418026" lon="12.735309226537929"><ele>419.2</ele><time>2026-05-01T10:33:19Z</time></trkpt><trkpt lat="43.5130955317812" lon="12.735207062832918"><ele>418.4</ele><time>2026-05-01T10:33:20Z</time></trkpt><trkpt lat="43.51303456319305" lon="12.735102987578315"><ele>417.6</ele><time>2026-05-01T10:33:21Z</time></trkpt><trkpt lat="43.51297229941201" lon="12.734996629283469"><ele>416.8</ele><time>2026-05-01T10:33:22Z</time></trkpt><trkpt lat="43.51290947252769" lon="12.734886378671053"><ele>416.0</ele><time>2026-05-01T10:33:23Z</time></trkpt><trkpt lat="43.512845345426896" lon="12.734784673134314"><ele>416.8</ele><time>2026-05-01T10:33:24Z</time></trkpt><trkpt lat="43.51278652015509" lon="12.734681433246266"><ele>417.6</ele><time>2026-05-01T10:33:25Z</time></trkpt><trkpt lat="43.512726618869436" lon="12.734581882325216"><ele>418.4</ele><time>2026-05-01T10:33:26Z</time></trkpt><trkpt lat="43.512667537432044" lon="12.734480012129085"><ele>419.2</ele><time>2026-05-01T10:33:27Z</time></trkpt><trkpt lat="43.512609511554075" lon="12.734374338789973"><ele>420.0</ele><time>2026-05-01T10:33:28Z</time></trkpt><trkpt lat="43.51254986242028" lon="12.734274956116623"><ele>420.0</ele><time>2026-05-01T10:33:29Z</time></trkpt><trkpt lat="43.51249804627539" lon="12.734179269752198"><ele>420.0</ele><time>2026-05-01T10:33:30Z</time></trkpt><trkpt lat="43.512462703405994" lon="12.73407004574496"><ele>420.0</ele><time>2026-05-01T10:33:31Z</time></trkpt><trkpt lat="43.51245545303126" lon="12.733955428420641"><ele>420.0</ele><time>2026-05-01T10:33:32Z</time></trkpt><trkpt lat="43.51247488702127" lon="12.733847471805234"><ele>420.0</ele><time>2026-05-01T10:33:33Z</time></trkpt><trkpt lat="43.51250472986996" lon="12.733742614032716"><ele>420.0</ele><time>2026-05-01T10:33:34Z</time></trkpt><trkpt lat="43.51253351323462" lon="12.733622867394033"><ele>420.2</ele><time>2026-05-01T10:33:35Z</time></trkpt><trkpt lat="43.512561950023425" lon="12.733503902769339"><ele>420.4</ele><time>2026-05-01T10:33:36Z</time></trkpt><trkpt lat="43.5125852765682" lon="12.733381304403986"><ele>420.6</ele><time>2026-05-01T10:33:37Z</time></trkpt><trkpt lat="43.51260354068612" lon="12.733254791402354"><ele>420.8</ele><time>2026-05-01T10:33:38Z</time></trkpt><trkpt lat="43.51263994183084" lon="12.733127759317869"><ele>421.0</ele><time>2026-05-01T10:33:39Z</time></trkpt><trkpt lat="43.512650447645754" lon="12.732985980672463"><ele>421.0</ele><time>2026-05-01T10:33:40Z</time></trkpt><trkpt lat="43.512639939145274" lon="12.732840607546786"><ele>421.0</ele><time>2026-05-01T10:33:41Z</time></trkpt><trkpt lat="43.51264197276377" lon="12.732689650804334"><ele>421.0</ele><time>2026-05-01T10:33:42Z</time></trkpt><trkpt lat="43.512639171096275" lon="12.73253887086618"><ele>421.0</ele><time>2026-05-01T10:33:43Z</time></trkpt><trkpt lat="43.51264604454825" lon="12.732383806430102"><ele>421.0</ele><time>2026-05-01T10:33:44Z</time></trkpt><trkpt lat="43.51265227613792" lon="12.732233201775157"><ele>420.75</ele><time>2026-05-01T10:33:45Z</time></trkpt><trkpt lat="43.51266646639076" lon="12.732069332853962"><ele>420.5</ele><time>2026-05-01T10:33:46Z</time></trkpt><trkpt lat="43.51268450623098" lon="12.731908960363512"><ele>420.25</ele><time>2026-05-01T10:33:47Z</time></trkpt><trkpt lat="43.51270946738279" lon="12.731747309797594"><ele>420.0</ele><time>2026-05-01T10:33:48Z</time></trkpt><trkpt lat="43.51273431037994" lon="12.731584732137351"><ele>420.0</ele><time>2026-05-01T10:33:49Z</time></trkpt><trkpt lat="43.51277493815026" lon="12.73141813830139"><ele>420.0</ele><time>2026-05-01T10:33:50Z</time></trkpt><trkpt lat="43.51281791035417" lon="12.731253647861001"><ele>420.0</ele><time>2026-05-01T10:33:51Z</time></trkpt><trkpt lat="43.51286458093644" lon="12.73109145209119"><ele>420.0</ele><time>2026-05-01T10:33:52Z</time></trkpt><trkpt lat="43.51292898624726" lon="12.730945489245059"><ele>419.8</ele><time>2026-05-01T10:33:53Z</time></trkpt><trkpt lat="43.5129696686115" lon="12.730795276857874"><ele>419.6</ele><time>2026-05-01T10:33:54Z</time></trkpt><trkpt lat="43.51303257033827" lon="12.730666147047888"><ele>419.4</ele><time>2026-05-01T10:33:55Z</time></trkpt><trkpt lat="43.513079937143274" lon="12.730544977057217"><ele>419.2</ele><time>2026-05-01T10:33:56Z</time></trkpt><trkpt lat="43.51313276182221" lon="12.730431615135247"><ele>419.0</ele><time>2026-05-01T10:33:57Z</time></trkpt><trkpt lat="43.51319310202861" lon="12.730364050943656"><ele>419.0</ele><time>2026-05-01T10:33:58Z</time></trkpt><trkpt lat="43.51327756323056" lon="12.730331195461638"><ele>419.0</ele><time>2026-05-01T10:34:00Z</time></trkpt><trkpt lat="43.513348227309244" lon="12.730366256136584"><ele>419.0</ele><time>2026-05-01T10:34:02Z</time></trkpt><trkpt lat="43.513463780326575" lon="12.730372904412764"><ele>419.0</ele><time>2026-05-01T10:34:04Z</time></trkpt><trkpt lat="43.51357526785522" lon="12.730363648811714"><ele>419.0</ele><time>2026-05-01T10:34:06Z</time></trkpt><trkpt lat="43.51368465553487" lon="12.730294194098214"><ele>419.8333333333333</ele><time>2026-05-01T10:34:08Z</time></trkpt><trkpt lat="43.51371592451136" lon="12.73019846134719"><ele>420.66666666666663</ele><time>2026-05-01T10:34:09Z</time></trkpt><trkpt lat="43.513744229956124" lon="12.730101565959634"><ele>421.5</ele><time>2026-05-01T10:34:10Z</time></trkpt><trkpt lat="43.513773013673074" lon="12.729989545849927"><ele>422.33333333333337</ele><time>2026-05-01T10:34:11Z</time></trkpt><trkpt lat="43.51380337004739" lon="12.729865808270603"><ele>423.1666666666667</ele><time>2026-05-01T10:34:12Z</time></trkpt><trkpt lat="43.513840323119624" lon="12.729730787793546"><ele>424.0</ele><time>2026-05-01T10:34:13Z</time></trkpt><trkpt lat="43.513881252617345" lon="12.729578639657806"><ele>426.75</ele><time>2026-05-01T10:34:14Z</time></trkpt><trkpt lat="43.5139277438054" lon="12.729414019956613"><ele>429.5</ele><time>2026-05-01T10:34:15Z</time></trkpt><trkpt lat="43.51397190605002" lon="12.72925362223355"><ele>432.25</ele><time>2026-05-01T10:34:16Z</time></trkpt><trkpt lat="43.51400938070979" lon="12.729090127132544"><ele>435.0</ele><time>2026-05-01T10:34:17Z</time></trkpt><trkpt lat="43.51404585357788" lon="12.728919717788697"><ele>435.5</ele><time>2026-05-01T10:34:18Z</time></trkpt><trkpt lat="43.51408971941755" lon="12.728751881985355"><ele>436.0</ele><time>2026-05-01T10:34:19Z</time></trkpt><trkpt lat="43.51412954622597" lon="12.728567196429024"><ele>436.5</ele><time>2026-05-01T10:34:20Z</time></trkpt><trkpt lat="43.514170680227316" lon="12.728391883856903"><ele>437.0</ele><time>2026-05-01T10:34:21Z</time></trkpt><trkpt lat="43.514231227061615" lon="12.728226151435468"><ele>434.3333333333333</ele><time>2026-05-01T10:34:22Z</time></trkpt><trkpt lat="43.51434006596531" lon="12.728102621443991"><ele>431.66666666666663</ele><time>2026-05-01T10:34:23Z</time></trkpt><trkpt lat="43.51445028911973" lon="12.727956403342482"><ele>429.0</ele><time>2026-05-01T10:34:23.999Z</time></trkpt><trkpt lat="43.51456673109666" lon="12.727781500910018"><ele>434.66666666666663</ele><time>2026-05-01T10:34:24.999Z</time></trkpt><trkpt lat="43.51470507525927" lon="12.727597436937264"><ele>440.3333333333333</ele><time>2026-05-01T10:34:25.999Z</time></trkpt><trkpt lat="43.5148594778667" lon="12.727398389130084"><ele>446.0</ele><time>2026-05-01T10:34:26.999Z</time></trkpt><trkpt lat="43.51502032878103" lon="12.727187953372798"><ele>446.0</ele><time>2026-05-01T10:34:27.999Z</time></trkpt><trkpt lat="43.51516607286662" lon="12.726968765029975"><ele>446.0</ele><time>2026-05-01T10:34:28.999Z</time></trkpt><trkpt lat="43.51530407632162" lon="12.72676549504803"><ele>446.0</ele><time>2026-05-01T10:34:29.999Z</time></trkpt><trkpt lat="43.5154333560585" lon="12.726547311048176"><ele>445.0</ele><time>2026-05-01T10:34:30.999Z</time></trkpt><trkpt lat="43.51554066054622" lon="12.726320338913094"><ele>444.0</ele><time>2026-05-01T10:34:31.999Z</time></trkpt><trkpt lat="43.515649153499055" lon="12.726085905019405"><ele>443.0</ele><time>2026-05-01T10:34:32.999Z</time></trkpt><trkpt lat="43.51582074755245" lon="12.725879413366455"><ele>443.0</ele><time>2026-05-01T10:34:33.999Z</time></trkpt><trkpt lat="43.51599130127644" lon="12.725669656863289"><ele>443.0</ele><time>2026-05-01T10:34:34.999Z</time></trkpt><trkpt lat="43.51615705668501" lon="12.725465986913571"><ele>447.66666666666663</ele><time>2026-05-01T10:34:35.999Z</time></trkpt><trkpt lat="43.51631591088613" lon="12.72527734235055"><ele>452.33333333333337</ele><time>2026-05-01T10:34:36.999Z</time></trkpt><trkpt lat="43.51643571806394" lon="12.725060300347394"><ele>457.0</ele><time>2026-05-01T10:34:37.999Z</time></trkpt><trkpt lat="43.51655010517276" lon="12.724842012323617"><ele>457.0</ele><time>2026-05-01T10:34:38.999Z</time></trkpt><trkpt lat="43.516639943674754" lon="12.724619430259557"><ele>457.0</ele><time>2026-05-01T10:34:40Z</time></trkpt><trkpt lat="43.516721437759344" lon="12.72440109891501"><ele>457.0</ele><time>2026-05-01T10:34:41Z</time></trkpt><trkpt lat="43.51679512595295" lon="12.724192982434449"><ele>452.33333333333337</ele><time>2026-05-01T10:34:42Z</time></trkpt><trkpt lat="43.51685278936732" lon="12.723989254494224"><ele>447.66666666666663</ele><time>2026-05-01T10:34:43Z</time></trkpt><trkpt lat="43.51692698878175" lon="12.723797984794007"><ele>443.0</ele><time>2026-05-01T10:34:44Z</time></trkpt><trkpt lat="43.51697744431852" lon="12.723624408240406"><ele>441.0</ele><time>2026-05-01T10:34:45Z</time></trkpt><trkpt lat="43.51699653237918" lon="12.723466619899328"><ele>439.0</ele><time>2026-05-01T10:34:46Z</time></trkpt><trkpt lat="43.51699033655645" lon="12.723303557469237"><ele>437.0</ele><time>2026-05-01T10:34:47Z</time></trkpt><trkpt lat="43.51694988908643" lon="12.723126030870706"><ele>435.0</ele><time>2026-05-01T10:34:48Z</time></trkpt><trkpt lat="43.51688546693259" lon="12.722942397505184"><ele>435.0</ele><time>2026-05-01T10:34:49Z</time></trkpt><trkpt lat="43.516830958898076" lon="12.722744418372335"><ele>435.0</ele><time>2026-05-01T10:34:50Z</time></trkpt><trkpt lat="43.516815556151265" lon="12.722528783274281"><ele>435.0</ele><time>2026-05-01T10:34:51Z</time></trkpt><trkpt lat="43.516823316134094" lon="12.722306563005088"><ele>436.25</ele><time>2026-05-01T10:34:52Z</time></trkpt><trkpt lat="43.5168184148742" lon="12.722105201273335"><ele>437.5</ele><time>2026-05-01T10:34:53Z</time></trkpt><trkpt lat="43.51677608435434" lon="12.7219246398657"><ele>438.75</ele><time>2026-05-01T10:34:54Z</time></trkpt><trkpt lat="43.51668736887663" lon="12.721749574351946"><ele>440.0</ele><time>2026-05-01T10:34:55Z</time></trkpt><trkpt lat="43.51658499424285" lon="12.72158102283153"><ele>441.25</ele><time>2026-05-01T10:34:56Z</time></trkpt><trkpt lat="43.516493359834115" lon="12.721417423364022"><ele>442.5</ele><time>2026-05-01T10:34:57Z</time></trkpt><trkpt lat="43.516441874252735" lon="12.721257137798716"><ele>443.75</ele><time>2026-05-01T10:34:58Z</time></trkpt><trkpt lat="43.51639488563902" lon="12.721104634783217"><ele>445.0</ele><time>2026-05-01T10:34:59Z</time></trkpt><trkpt lat="43.51636910754729" lon="12.720936267055306"><ele>448.33333333333337</ele><time>2026-05-01T10:35:00Z</time></trkpt><trkpt lat="43.51637448544822" lon="12.720746834162151"><ele>451.66666666666663</ele><time>2026-05-01T10:35:01Z</time></trkpt><trkpt lat="43.516358380597374" lon="12.72053843748017"><ele>455.0</ele><time>2026-05-01T10:35:02Z</time></trkpt><trkpt lat="43.51637283600076" lon="12.720312651230003"><ele>457.0</ele><time>2026-05-01T10:35:03Z</time></trkpt><trkpt lat="43.51640265007162" lon="12.720092406330567"><ele>459.0</ele><time>2026-05-01T10:35:04Z</time></trkpt><trkpt lat="43.51638294328781" lon="12.719875049203928"><ele>461.0</ele><time>2026-05-01T10:35:05Z</time></trkpt><trkpt lat="43.51632643900599" lon="12.719640020741227"><ele>461.0</ele><time>2026-05-01T10:35:06Z</time></trkpt><trkpt lat="43.51625870468804" lon="12.719401744247232"><ele>461.0</ele><time>2026-05-01T10:35:07Z</time></trkpt><trkpt lat="43.516201887352764" lon="12.719176417174275"><ele>461.0</ele><time>2026-05-01T10:35:08Z</time></trkpt><trkpt lat="43.51615211788635" lon="12.718968786432379"><ele>459.75</ele><time>2026-05-01T10:35:09Z</time></trkpt><trkpt lat="43.516102450078115" lon="12.718768452327707"><ele>458.5</ele><time>2026-05-01T10:35:10Z</time></trkpt><trkpt lat="43.516076162474604" lon="12.718574890213079"><ele>457.25</ele><time>2026-05-01T10:35:11Z</time></trkpt><trkpt lat="43.51606366023898" lon="12.71838276361188"><ele>456.0</ele><time>2026-05-01T10:35:12Z</time></trkpt><trkpt lat="43.5160419465194" lon="12.718172572505475"><ele>456.0</ele><time>2026-05-01T10:35:13Z</time></trkpt><trkpt lat="43.516035395187565" lon="12.71795213508896"><ele>456.0</ele><time>2026-05-01T10:35:14Z</time></trkpt><trkpt lat="43.516026257661146" lon="12.717724336098383"><ele>456.0</ele><time>2026-05-01T10:35:15Z</time></trkpt><trkpt lat="43.516001624807785" lon="12.717494996868023"><ele>457.25</ele><time>2026-05-01T10:35:16Z</time></trkpt><trkpt lat="43.515976630538766" lon="12.717275459999291"><ele>458.5</ele><time>2026-05-01T10:35:17Z</time></trkpt><trkpt lat="43.51598735004403" lon="12.717066573525257"><ele>459.75</ele><time>2026-05-01T10:35:18Z</time></trkpt><trkpt lat="43.51597861695118" lon="12.716882111492854"><ele>461.0</ele><time>2026-05-01T10:35:19Z</time></trkpt><trkpt lat="43.51598692227325" lon="12.71670618423598"><ele>461.0</ele><time>2026-05-01T10:35:20Z</time></trkpt><trkpt lat="43.515989865438456" lon="12.716535175727687"><ele>461.0</ele><time>2026-05-01T10:35:21Z</time></trkpt><trkpt lat="43.51598632623307" lon="12.716371505784252"><ele>461.0</ele><time>2026-05-01T10:35:22Z</time></trkpt><trkpt lat="43.51599227642698" lon="12.716203616939218"><ele>461.0</ele><time>2026-05-01T10:35:23Z</time></trkpt><trkpt lat="43.515996004778444" lon="12.716041678578929"><ele>460.6</ele><time>2026-05-01T10:35:24Z</time></trkpt><trkpt lat="43.51598984274156" lon="12.715893238017896"><ele>460.20000000000005</ele><time>2026-05-01T10:35:25Z</time></trkpt><trkpt lat="43.5159811946075" lon="12.715754459107254"><ele>459.79999999999995</ele><time>2026-05-01T10:35:26Z</time></trkpt><trkpt lat="43.5159647243544" lon="12.715616565892221"><ele>459.4</ele><time>2026-05-01T10:35:27Z</time></trkpt><trkpt lat="43.515937098438506" lon="12.715477750963078"><ele>459.0</ele><time>2026-05-01T10:35:28Z</time></trkpt><trkpt lat="43.51590426446054" lon="12.715336834976197"><ele>458.5</ele><time>2026-05-01T10:35:29Z</time></trkpt><trkpt lat="43.51586659923604" lon="12.715187332422436"><ele>458.0</ele><time>2026-05-01T10:35:30Z</time></trkpt><trkpt lat="43.515826007011455" lon="12.715022774340122"><ele>457.5</ele><time>2026-05-01T10:35:31Z</time></trkpt><trkpt lat="43.515778635081595" lon="12.714845046592691"><ele>457.0</ele><time>2026-05-01T10:35:32Z</time></trkpt><trkpt lat="43.515729249092566" lon="12.714649374105548"><ele>457.0</ele><time>2026-05-01T10:35:33Z</time></trkpt><trkpt lat="43.51568525945851" lon="12.714455285375376"><ele>457.0</ele><time>2026-05-01T10:35:34Z</time></trkpt><trkpt lat="43.515653144495424" lon="12.714243189252707"><ele>457.0</ele><time>2026-05-01T10:35:35Z</time></trkpt><trkpt lat="43.51563222106681" lon="12.714011041648854"><ele>456.6666666666667</ele><time>2026-05-01T10:35:36Z</time></trkpt><trkpt lat="43.51561282651087" lon="12.713765337386123"><ele>456.33333333333337</ele><time>2026-05-01T10:35:37Z</time></trkpt><trkpt lat="43.51559612530944" lon="12.713500113848559"><ele>456.0</ele><time>2026-05-01T10:35:38Z</time></trkpt><trkpt lat="43.515580177279936" lon="12.713228222635868"><ele>454.0</ele><time>2026-05-01T10:35:39Z</time></trkpt><trkpt lat="43.51557274312131" lon="12.712966017357491"><ele>452.0</ele><time>2026-05-01T10:35:40Z</time></trkpt><trkpt lat="43.515535392096396" lon="12.712704468261473"><ele>450.0</ele><time>2026-05-01T10:35:41Z</time></trkpt><trkpt lat="43.515519620799196" lon="12.712432469083057"><ele>449.33333333333337</ele><time>2026-05-01T10:35:42Z</time></trkpt><trkpt lat="43.515491425040295" lon="12.712174435527984"><ele>448.6666666666667</ele><time>2026-05-01T10:35:43Z</time></trkpt><trkpt lat="43.51546668012744" lon="12.711926685816247"><ele>448.0</ele><time>2026-05-01T10:35:44Z</time></trkpt><trkpt lat="43.51543174869694" lon="12.711690780631594"><ele>442.33333333333337</ele><time>2026-05-01T10:35:45Z</time></trkpt><trkpt lat="43.51538788861006" lon="12.711459718342129"><ele>436.66666666666663</ele><time>2026-05-01T10:35:46Z</time></trkpt><trkpt lat="43.51532582001821" lon="12.711231308484184"><ele>431.0</ele><time>2026-05-01T10:35:47Z</time></trkpt><trkpt lat="43.51524618797189" lon="12.711001022281891"><ele>430.3333333333333</ele><time>2026-05-01T10:35:48Z</time></trkpt><trkpt lat="43.51515403816376" lon="12.710763263015652"><ele>429.66666666666663</ele><time>2026-05-01T10:35:49Z</time></trkpt><trkpt lat="43.515061796725156" lon="12.710520448346974"><ele>429.0</ele><time>2026-05-01T10:35:50Z</time></trkpt><trkpt lat="43.5149682199659" lon="12.710274607792526"><ele>428.66666666666663</ele><time>2026-05-01T10:35:51Z</time></trkpt><trkpt lat="43.51488152565398" lon="12.710029495031307"><ele>428.3333333333333</ele><time>2026-05-01T10:35:52Z</time></trkpt><trkpt lat="43.51479639055014" lon="12.709789014472843"><ele>428.0</ele><time>2026-05-01T10:35:53Z</time></trkpt><trkpt lat="43.51471976173459" lon="12.709560821247072"><ele>430.3333333333333</ele><time>2026-05-01T10:35:54Z</time></trkpt><trkpt lat="43.51465490246079" lon="12.709314699540345"><ele>432.66666666666663</ele><time>2026-05-01T10:35:55Z</time></trkpt><trkpt lat="43.514597272385146" lon="12.709062871268213"><ele>435.0</ele><time>2026-05-01T10:35:56Z</time></trkpt><trkpt lat="43.51455587104744" lon="12.708793740070432"><ele>428.66666666666663</ele><time>2026-05-01T10:35:57Z</time></trkpt><trkpt lat="43.51450613825449" lon="12.708528099363834"><ele>422.3333333333333</ele><time>2026-05-01T10:35:58Z</time></trkpt><trkpt lat="43.51445778269462" lon="12.70827685122227"><ele>416.0</ele><time>2026-05-01T10:35:59Z</time></trkpt><trkpt lat="43.51441903174257" lon="12.70803698410142"><ele>416.0</ele><time>2026-05-01T10:36:00Z</time></trkpt><trkpt lat="43.514379485938" lon="12.707828422158737"><ele>416.0</ele><time>2026-05-01T10:36:01Z</time></trkpt><trkpt lat="43.51435269105648" lon="12.70762870284168"><ele>416.0</ele><time>2026-05-01T10:36:02Z</time></trkpt><trkpt lat="43.514345003438784" lon="12.707425288100504"><ele>415.0</ele><time>2026-05-01T10:36:03Z</time></trkpt><trkpt lat="43.51438755592511" lon="12.707221780310672"><ele>414.0</ele><time>2026-05-01T10:36:04Z</time></trkpt><trkpt lat="43.51442080599474" lon="12.707004960868924"><ele>413.0</ele><time>2026-05-01T10:36:05Z</time></trkpt><trkpt lat="43.51447671499853" lon="12.706791761132122"><ele>411.5</ele><time>2026-05-01T10:36:06Z</time></trkpt><trkpt lat="43.51453115347259" lon="12.706572510618237"><ele>410.0</ele><time>2026-05-01T10:36:07Z</time></trkpt><trkpt lat="43.51464175532812" lon="12.706163162616262"><ele>408.3333333333333</ele><time>2026-05-01T10:36:09Z</time></trkpt><trkpt lat="43.51472003977972" lon="12.705983556255255"><ele>406.66666666666663</ele><time>2026-05-01T10:36:10Z</time></trkpt><trkpt lat="43.51484233655929" lon="12.705862511769247"><ele>405.0</ele><time>2026-05-01T10:36:11Z</time></trkpt><trkpt lat="43.51496560045247" lon="12.70573183465538"><ele>405.0</ele><time>2026-05-01T10:36:12Z</time></trkpt><trkpt lat="43.5150829108745" lon="12.705583993600678"><ele>405.0</ele><time>2026-05-01T10:36:13Z</time></trkpt><trkpt lat="43.515216709135565" lon="12.705457067984977"><ele>405.0</ele><time>2026-05-01T10:36:14Z</time></trkpt><trkpt lat="43.515347180355626" lon="12.705321634258624"><ele>403.66666666666663</ele><time>2026-05-01T10:36:15Z</time></trkpt><trkpt lat="43.51548103207014" lon="12.705189517304094"><ele>402.3333333333333</ele><time>2026-05-01T10:36:16Z</time></trkpt><trkpt lat="43.51561831175624" lon="12.705063832192575"><ele>401.0</ele><time>2026-05-01T10:36:17Z</time></trkpt><trkpt lat="43.51578147880447" lon="12.705002006190538"><ele>401.0</ele><time>2026-05-01T10:36:18Z</time></trkpt><trkpt lat="43.51594732704846" lon="12.704927323667889"><ele>401.0</ele><time>2026-05-01T10:36:19Z</time></trkpt><trkpt lat="43.516112499859624" lon="12.70484231734366"><ele>401.0</ele><time>2026-05-01T10:36:20Z</time></trkpt><trkpt lat="43.516279122188195" lon="12.704775855812356"><ele>397.66666666666663</ele><time>2026-05-01T10:36:21Z</time></trkpt><trkpt lat="43.516439502228074" lon="12.704705822427133"><ele>394.33333333333337</ele><time>2026-05-01T10:36:22Z</time></trkpt><trkpt lat="43.516588856183546" lon="12.70460870459928"><ele>391.0</ele><time>2026-05-01T10:36:23Z</time></trkpt><trkpt lat="43.51671854942419" lon="12.704480216068132"><ele>392.6666666666667</ele><time>2026-05-01T10:36:24Z</time></trkpt><trkpt lat="43.51683621644731" lon="12.704317168392524"><ele>394.33333333333337</ele><time>2026-05-01T10:36:25Z</time></trkpt><trkpt lat="43.51693116821417" lon="12.704105038135001"><ele>396.0</ele><time>2026-05-01T10:36:26Z</time></trkpt><trkpt lat="43.51700598268291" lon="12.703860059153852"><ele>393.33333333333337</ele><time>2026-05-01T10:36:27Z</time></trkpt><trkpt lat="43.517091219147844" lon="12.703616923566692"><ele>390.6666666666667</ele><time>2026-05-01T10:36:28Z</time></trkpt><trkpt lat="43.51718088392289" lon="12.703355416716638"><ele>388.0</ele><time>2026-05-01T10:36:29Z</time></trkpt><trkpt lat="43.517273831730186" lon="12.703089902095247"><ele>388.0</ele><time>2026-05-01T10:36:29.999Z</time></trkpt><trkpt lat="43.51736384474132" lon="12.702829417917513"><ele>388.0</ele><time>2026-05-01T10:36:30.999Z</time></trkpt><trkpt lat="43.51744722262842" lon="12.702568008694419"><ele>388.0</ele><time>2026-05-01T10:36:31.999Z</time></trkpt><trkpt lat="43.51753203810232" lon="12.702307490470766"><ele>388.6666666666667</ele><time>2026-05-01T10:36:32.999Z</time></trkpt><trkpt lat="43.51760367896518" lon="12.702043896967897"><ele>389.33333333333337</ele><time>2026-05-01T10:36:33.999Z</time></trkpt><trkpt lat="43.51765849292655" lon="12.70177697599584"><ele>390.0</ele><time>2026-05-01T10:36:34.999Z</time></trkpt><trkpt lat="43.517729732585586" lon="12.701522190484763"><ele>391.0</ele><time>2026-05-01T10:36:35.999Z</time></trkpt><trkpt lat="43.517798785326534" lon="12.701270932307416"><ele>392.0</ele><time>2026-05-01T10:36:36.999Z</time></trkpt><trkpt lat="43.5178672559266" lon="12.70102195308893"><ele>393.0</ele><time>2026-05-01T10:36:37.999Z</time></trkpt><trkpt lat="43.5179345899178" lon="12.700774791467765"><ele>394.33333333333337</ele><time>2026-05-01T10:36:38.999Z</time></trkpt><trkpt lat="43.51800108386455" lon="12.7005294540724"><ele>395.6666666666667</ele><time>2026-05-01T10:36:39.999Z</time></trkpt><trkpt lat="43.518082971423894" lon="12.700295355645716"><ele>397.0</ele><time>2026-05-01T10:36:40.999Z</time></trkpt><trkpt lat="43.51814924440274" lon="12.700064105029648"><ele>397.6666666666667</ele><time>2026-05-01T10:36:41.999Z</time></trkpt><trkpt lat="43.51820941235576" lon="12.699847385714724"><ele>398.33333333333337</ele><time>2026-05-01T10:36:42.999Z</time></trkpt><trkpt lat="43.51826547245433" lon="12.699645462663796"><ele>399.0</ele><time>2026-05-01T10:36:43.999Z</time></trkpt><trkpt lat="43.518322629826606" lon="12.699470106494061"><ele>400.0</ele><time>2026-05-01T10:36:44.999Z</time></trkpt><trkpt lat="43.518380076086956" lon="12.699345188624118"><ele>401.0</ele><time>2026-05-01T10:36:45.999Z</time></trkpt><trkpt lat="43.51861203282688" lon="12.698889216669967"><ele>401.0</ele><time>2026-05-01T10:36:46.999Z</time></trkpt><trkpt lat="43.518726359278965" lon="12.698661907875927"><ele>401.0</ele><time>2026-05-01T10:36:47.999Z</time></trkpt><trkpt lat="43.51883745317419" lon="12.69843746479186"><ele>401.0</ele><time>2026-05-01T10:36:48.999Z</time></trkpt><trkpt lat="43.51894729518698" lon="12.69821169035146"><ele>402.3333333333333</ele><time>2026-05-01T10:36:49.999Z</time></trkpt><trkpt lat="43.51905462029997" lon="12.697990371157191"><ele>403.66666666666663</ele><time>2026-05-01T10:36:50.999Z</time></trkpt><trkpt lat="43.51915108796484" lon="12.697777655296006"><ele>405.0</ele><time>2026-05-01T10:36:51.999Z</time></trkpt><trkpt lat="43.51924254142051" lon="12.697563313968471"><ele>405.66666666666663</ele><time>2026-05-01T10:36:52.999Z</time></trkpt><trkpt lat="43.51931786597116" lon="12.69735974016819"><ele>406.3333333333333</ele><time>2026-05-01T10:36:53.999Z</time></trkpt><trkpt lat="43.519365374284334" lon="12.697140626148292"><ele>407.0</ele><time>2026-05-01T10:36:55Z</time></trkpt><trkpt lat="43.51938890263768" lon="12.696910682033575"><ele>407.3333333333333</ele><time>2026-05-01T10:36:56Z</time></trkpt><trkpt lat="43.519399207253734" lon="12.696675728327035"><ele>407.66666666666663</ele><time>2026-05-01T10:36:57Z</time></trkpt><trkpt lat="43.519415922977934" lon="12.69643333140538"><ele>408.0</ele><time>2026-05-01T10:36:58Z</time></trkpt><trkpt lat="43.51943338557517" lon="12.696182239304227"><ele>409.0</ele><time>2026-05-01T10:36:59Z</time></trkpt><trkpt lat="43.51945091373931" lon="12.695931165533676"><ele>410.0</ele><time>2026-05-01T10:37:00Z</time></trkpt><trkpt lat="43.51946879763755" lon="12.69568432293766"><ele>411.0</ele><time>2026-05-01T10:37:01Z</time></trkpt><trkpt lat="43.519495823721634" lon="12.695432820544987"><ele>411.33333333333337</ele><time>2026-05-01T10:37:02Z</time></trkpt><trkpt lat="43.519523571203116" lon="12.695177610811832"><ele>411.6666666666667</ele><time>2026-05-01T10:37:03Z</time></trkpt><trkpt lat="43.519545924930284" lon="12.694914990855631"><ele>412.0</ele><time>2026-05-01T10:37:04Z</time></trkpt><trkpt lat="43.51956931583114" lon="12.694653978643725"><ele>406.0</ele><time>2026-05-01T10:37:05Z</time></trkpt><trkpt lat="43.51959269588954" lon="12.694397389007474"><ele>400.0</ele><time>2026-05-01T10:37:06Z</time></trkpt><trkpt lat="43.51961119614767" lon="12.694144566284734"><ele>394.0</ele><time>2026-05-01T10:37:07Z</time></trkpt><trkpt lat="43.51963284526805" lon="12.693908823252734"><ele>394.0</ele><time>2026-05-01T10:37:08Z</time></trkpt><trkpt lat="43.51966706951041" lon="12.693706531699029"><ele>394.0</ele><time>2026-05-01T10:37:09Z</time></trkpt><trkpt lat="43.51970120730637" lon="12.693526310379005"><ele>394.0</ele><time>2026-05-01T10:37:10Z</time></trkpt><trkpt lat="43.51976024467532" lon="12.69335821164551"><ele>394.0</ele><time>2026-05-01T10:37:11Z</time></trkpt><trkpt lat="43.51990017866781" lon="12.693204314139223"><ele>395.6666666666667</ele><time>2026-05-01T10:37:12Z</time></trkpt><trkpt lat="43.520060056961114" lon="12.693122348617138"><ele>397.33333333333337</ele><time>2026-05-01T10:37:13Z</time></trkpt><trkpt lat="43.52024846763267" lon="12.693109184342685"><ele>399.0</ele><time>2026-05-01T10:37:14Z</time></trkpt><trkpt lat="43.52038128730001" lon="12.693057859475829"><ele>398.66666666666663</ele><time>2026-05-01T10:37:15Z</time></trkpt><trkpt lat="43.52058227542361" lon="12.6930454634464"><ele>398.3333333333333</ele><time>2026-05-01T10:37:16Z</time></trkpt><trkpt lat="43.520743792352775" lon="12.692872891455366"><ele>398.0</ele><time>2026-05-01T10:37:17Z</time></trkpt><trkpt lat="43.5208938919487" lon="12.69269634882688"><ele>398.0</ele><time>2026-05-01T10:37:18Z</time></trkpt><trkpt lat="43.52091005099848" lon="12.692570932838699"><ele>398.0</ele><time>2026-05-01T10:37:19Z</time></trkpt><trkpt lat="43.521033522627846" lon="12.692374124685712"><ele>398.0</ele><time>2026-05-01T10:37:20Z</time></trkpt><trkpt lat="43.52119812375723" lon="12.69226753789396"><ele>395.3333333333333</ele><time>2026-05-01T10:37:21Z</time></trkpt><trkpt lat="43.52136654452664" lon="12.692204546382198"><ele>392.66666666666663</ele><time>2026-05-01T10:37:22Z</time></trkpt><trkpt lat="43.521542255550806" lon="12.692154180768098"><ele>390.0</ele><time>2026-05-01T10:37:23Z</time></trkpt><trkpt lat="43.52172970407577" lon="12.69210222073331"><ele>390.0</ele><time>2026-05-01T10:37:24Z</time></trkpt><trkpt lat="43.52191823180464" lon="12.69204996156121"><ele>390.0</ele><time>2026-05-01T10:37:25Z</time></trkpt><trkpt lat="43.52211343154323" lon="12.691995852933156"><ele>390.0</ele><time>2026-05-01T10:37:26Z</time></trkpt><trkpt lat="43.522307605266114" lon="12.691944215133384"><ele>389.66666666666663</ele><time>2026-05-01T10:37:27Z</time></trkpt><trkpt lat="43.522504991743396" lon="12.691899410272413"><ele>389.3333333333333</ele><time>2026-05-01T10:37:28Z</time></trkpt><trkpt lat="43.522700523229545" lon="12.69187937443434"><ele>389.0</ele><time>2026-05-01T10:37:29Z</time></trkpt><trkpt lat="43.522899374460216" lon="12.691875354261294"><ele>389.0</ele><time>2026-05-01T10:37:30Z</time></trkpt><trkpt lat="43.52310038215009" lon="12.691872347326726"><ele>389.0</ele><time>2026-05-01T10:37:31Z</time></trkpt><trkpt lat="43.52329949486716" lon="12.691868100772144"><ele>389.0</ele><time>2026-05-01T10:37:32Z</time></trkpt><trkpt lat="43.523492853017956" lon="12.69186397695205"><ele>389.0</ele><time>2026-05-01T10:37:33Z</time></trkpt><trkpt lat="43.523685659834925" lon="12.69186037625811"><ele>389.0</ele><time>2026-05-01T10:37:34Z</time></trkpt><trkpt lat="43.52387792500059" lon="12.691858568962136"><ele>389.0</ele><time>2026-05-01T10:37:35Z</time></trkpt><trkpt lat="43.52406488912387" lon="12.691856811498848"><ele>388.0</ele><time>2026-05-01T10:37:36Z</time></trkpt><trkpt lat="43.52425054857753" lon="12.691855066303269"><ele>387.0</ele><time>2026-05-01T10:37:37Z</time></trkpt><trkpt lat="43.52443210483706" lon="12.691831171844932"><ele>386.0</ele><time>2026-05-01T10:37:38Z</time></trkpt><trkpt lat="43.52460164838919" lon="12.691827235936318"><ele>385.0</ele><time>2026-05-01T10:37:39Z</time></trkpt><trkpt lat="43.52476582045601" lon="12.691820960475463"><ele>384.0</ele><time>2026-05-01T10:37:40Z</time></trkpt><trkpt lat="43.52491908828509" lon="12.691804217771805"><ele>383.0</ele><time>2026-05-01T10:37:41Z</time></trkpt><trkpt lat="43.525072665276724" lon="12.69176431250681"><ele>383.0</ele><time>2026-05-01T10:37:42Z</time></trkpt><trkpt lat="43.52522727304861" lon="12.691702523441544"><ele>383.0</ele><time>2026-05-01T10:37:43Z</time></trkpt><trkpt lat="43.525379118856556" lon="12.691611032323479"><ele>383.0</ele><time>2026-05-01T10:37:44Z</time></trkpt><trkpt lat="43.52552322682348" lon="12.691483854144632"><ele>381.6666666666667</ele><time>2026-05-01T10:37:45Z</time></trkpt><trkpt lat="43.52566598435274" lon="12.691334639377173"><ele>380.3333333333333</ele><time>2026-05-01T10:37:46Z</time></trkpt><trkpt lat="43.52580226198608" lon="12.691164885535356"><ele>379.0</ele><time>2026-05-01T10:37:47Z</time></trkpt><trkpt lat="43.525927085489016" lon="12.690938014280354"><ele>378.66666666666663</ele><time>2026-05-01T10:37:48Z</time></trkpt><trkpt lat="43.52604958408173" lon="12.69075409628253"><ele>378.3333333333333</ele><time>2026-05-01T10:37:49Z</time></trkpt><trkpt lat="43.52617385442313" lon="12.690568073574415"><ele>378.0</ele><time>2026-05-01T10:37:50Z</time></trkpt><trkpt lat="43.526338739395044" lon="12.690324966144507"><ele>377.3333333333333</ele><time>2026-05-01T10:37:51Z</time></trkpt><trkpt lat="43.52648722050054" lon="12.69010369243206"><ele>376.66666666666663</ele><time>2026-05-01T10:37:52Z</time></trkpt><trkpt lat="43.52661810639198" lon="12.689908639797883"><ele>376.0</ele><time>2026-05-01T10:37:53Z</time></trkpt><trkpt lat="43.526751980150294" lon="12.689710865320855"><ele>376.0</ele><time>2026-05-01T10:37:54Z</time></trkpt><trkpt lat="43.526876670505104" lon="12.689506089998577"><ele>376.0</ele><time>2026-05-01T10:37:55Z</time></trkpt><trkpt lat="43.52701282419982" lon="12.689311268897747"><ele>376.0</ele><time>2026-05-01T10:37:56Z</time></trkpt><trkpt lat="43.52713248358533" lon="12.68912830234626"><ele>377.66666666666663</ele><time>2026-05-01T10:37:57Z</time></trkpt><trkpt lat="43.52725454465942" lon="12.68898255393224"><ele>379.3333333333333</ele><time>2026-05-01T10:37:58Z</time></trkpt><trkpt lat="43.5273426324191" lon="12.688815856177213"><ele>381.0</ele><time>2026-05-01T10:37:59Z</time></trkpt><trkpt lat="43.527433376455754" lon="12.688668368805327"><ele>380.75</ele><time>2026-05-01T10:38:00Z</time></trkpt><trkpt lat="43.52749718208801" lon="12.68852763797877"><ele>380.5</ele><time>2026-05-01T10:38:01Z</time></trkpt><trkpt lat="43.527538383388425" lon="12.68837830297194"><ele>380.25</ele><time>2026-05-01T10:38:02Z</time></trkpt><trkpt lat="43.527531513245044" lon="12.68822266007651"><ele>380.0</ele><time>2026-05-01T10:38:03Z</time></trkpt><trkpt lat="43.527489817376235" lon="12.688061402731348"><ele>380.0</ele><time>2026-05-01T10:38:04Z</time></trkpt><trkpt lat="43.52740580161913" lon="12.687899598690752"><ele>380.0</ele><time>2026-05-01T10:38:05Z</time></trkpt><trkpt lat="43.52728078170431" lon="12.687742575169917"><ele>380.0</ele><time>2026-05-01T10:38:06Z</time></trkpt><trkpt lat="43.527140493040235" lon="12.687574790387401"><ele>379.6666666666667</ele><time>2026-05-01T10:38:07Z</time></trkpt><trkpt lat="43.52700759270783" lon="12.687409395881392"><ele>379.3333333333333</ele><time>2026-05-01T10:38:08Z</time></trkpt><trkpt lat="43.52687987224766" lon="12.687229021461341"><ele>379.0</ele><time>2026-05-01T10:38:09Z</time></trkpt><trkpt lat="43.526766843457196" lon="12.687062668298285"><ele>374.66666666666663</ele><time>2026-05-01T10:38:10Z</time></trkpt><trkpt lat="43.52665431982627" lon="12.686889586667705"><ele>370.3333333333333</ele><time>2026-05-01T10:38:11Z</time></trkpt><trkpt lat="43.526543759760415" lon="12.686731378663797"><ele>366.0</ele><time>2026-05-01T10:38:12Z</time></trkpt><trkpt lat="43.5264961936213" lon="12.686523290133845"><ele>366.0</ele><time>2026-05-01T10:38:13Z</time></trkpt><trkpt lat="43.5264512024923" lon="12.68629923052148"><ele>366.0</ele><time>2026-05-01T10:38:14Z</time></trkpt><trkpt lat="43.52641083144147" lon="12.686065733822026"><ele>366.0</ele><time>2026-05-01T10:38:15Z</time></trkpt><trkpt lat="43.52635787017038" lon="12.685844958675759"><ele>364.5</ele><time>2026-05-01T10:38:16Z</time></trkpt><trkpt lat="43.526328424382164" lon="12.685637188018182"><ele>363.0</ele><time>2026-05-01T10:38:17Z</time></trkpt><trkpt lat="43.52632056458118" lon="12.685449376729274"><ele>361.5</ele><time>2026-05-01T10:38:18Z</time></trkpt><trkpt lat="43.526315965519345" lon="12.685291587744851"><ele>360.0</ele><time>2026-05-01T10:38:19Z</time></trkpt><trkpt lat="43.52635050732968" lon="12.685144168161571"><ele>359.6</ele><time>2026-05-01T10:38:20Z</time></trkpt><trkpt lat="43.526426630238085" lon="12.685034751940057"><ele>359.2</ele><time>2026-05-01T10:38:21Z</time></trkpt><trkpt lat="43.52651435710721" lon="12.684947738038064"><ele>358.79999999999995</ele><time>2026-05-01T10:38:22Z</time></trkpt><trkpt lat="43.52660913869085" lon="12.684873200327381"><ele>358.4</ele><time>2026-05-01T10:38:23Z</time></trkpt><trkpt lat="43.52671239211087" lon="12.684801370842948"><ele>358.0</ele><time>2026-05-01T10:38:24Z</time></trkpt><trkpt lat="43.52680713444034" lon="12.68473548595739"><ele>358.0</ele><time>2026-05-01T10:38:25Z</time></trkpt><trkpt lat="43.52689947598208" lon="12.68467302636732"><ele>358.0</ele><time>2026-05-01T10:38:26Z</time></trkpt><trkpt lat="43.526997014447666" lon="12.684609140820024"><ele>358.0</ele><time>2026-05-01T10:38:27Z</time></trkpt><trkpt lat="43.527105461047846" lon="12.684594592790972"><ele>358.0</ele><time>2026-05-01T10:38:28Z</time></trkpt><trkpt lat="43.52722929995121" lon="12.684625610497427"><ele>358.0</ele><time>2026-05-01T10:38:29Z</time></trkpt><trkpt lat="43.52735467522816" lon="12.684687792895776"><ele>359.5</ele><time>2026-05-01T10:38:30Z</time></trkpt><trkpt lat="43.52748159880764" lon="12.68474463985184"><ele>361.0</ele><time>2026-05-01T10:38:31Z</time></trkpt><trkpt lat="43.527576192264625" lon="12.684869139761142"><ele>362.5</ele><time>2026-05-01T10:38:32Z</time></trkpt><trkpt lat="43.527672712777374" lon="12.684997402932096"><ele>364.0</ele><time>2026-05-01T10:38:33Z</time></trkpt><trkpt lat="43.52771688587792" lon="12.685173584010057"><ele>362.0</ele><time>2026-05-01T10:38:34Z</time></trkpt><trkpt lat="43.52775524866528" lon="12.685354464755862"><ele>360.0</ele><time>2026-05-01T10:38:35Z</time></trkpt><trkpt lat="43.52779636577833" lon="12.685540281749722"><ele>358.0</ele><time>2026-05-01T10:38:35.999Z</time></trkpt><trkpt lat="43.52782695051505" lon="12.685730154174582"><ele>356.0</ele><time>2026-05-01T10:38:36.999Z</time></trkpt><trkpt lat="43.527872321792124" lon="12.685909801637195"><ele>357.5</ele><time>2026-05-01T10:38:37.999Z</time></trkpt><trkpt lat="43.52792874482771" lon="12.686062461024074"><ele>359.0</ele><time>2026-05-01T10:38:38.999Z</time></trkpt><trkpt lat="43.528005961568404" lon="12.686185976983793"><ele>360.5</ele><time>2026-05-01T10:38:39.999Z</time></trkpt><trkpt lat="43.528112161432915" lon="12.68627460157046"><ele>362.0</ele><time>2026-05-01T10:38:40.999Z</time></trkpt><trkpt lat="43.528239661026646" lon="12.6863317665265"><ele>362.0</ele><time>2026-05-01T10:38:41.999Z</time></trkpt><trkpt lat="43.528371907550124" lon="12.686385846022002"><ele>362.0</ele><time>2026-05-01T10:38:42.999Z</time></trkpt><trkpt lat="43.52849948562673" lon="12.68646680915027"><ele>362.0</ele><time>2026-05-01T10:38:43.999Z</time></trkpt><trkpt lat="43.52862071160115" lon="12.686578877441328"><ele>362.0</ele><time>2026-05-01T10:38:44.999Z</time></trkpt><trkpt lat="43.5287529477087" lon="12.686661589242238"><ele>362.5</ele><time>2026-05-01T10:38:45.999Z</time></trkpt><trkpt lat="43.52887381304184" lon="12.686762921269427"><ele>363.0</ele><time>2026-05-01T10:38:46.999Z</time></trkpt><trkpt lat="43.52897665807001" lon="12.686893920273347"><ele>363.5</ele><time>2026-05-01T10:38:47.999Z</time></trkpt><trkpt lat="43.529075052797374" lon="12.687025130917448"><ele>364.0</ele><time>2026-05-01T10:38:48.999Z</time></trkpt><trkpt lat="43.52917019766755" lon="12.687156002878476"><ele>364.0</ele><time>2026-05-01T10:38:49.999Z</time></trkpt><trkpt lat="43.52927797112832" lon="12.687257985892543"><ele>364.0</ele><time>2026-05-01T10:38:50.999Z</time></trkpt><trkpt lat="43.52934747609287" lon="12.687346175468901"><ele>364.0</ele><time>2026-05-01T10:38:51.999Z</time></trkpt><trkpt lat="43.529461496004245" lon="12.687440983363697"><ele>364.0</ele><time>2026-05-01T10:38:52.999Z</time></trkpt><trkpt lat="43.529581700580486" lon="12.68754000508619"><ele>365.5</ele><time>2026-05-01T10:38:53.999Z</time></trkpt><trkpt lat="43.52969954795992" lon="12.687636609255607"><ele>367.0</ele><time>2026-05-01T10:38:54.999Z</time></trkpt><trkpt lat="43.52981832092046" lon="12.687733972323496"><ele>368.5</ele><time>2026-05-01T10:38:55.999Z</time></trkpt><trkpt lat="43.52993563770105" lon="12.687830141705057"><ele>370.0</ele><time>2026-05-01T10:38:56.999Z</time></trkpt><trkpt lat="43.530056339582345" lon="12.687930226856288"><ele>370.0</ele><time>2026-05-01T10:38:57.999Z</time></trkpt><trkpt lat="43.530173398351714" lon="12.688027257531584"><ele>370.0</ele><time>2026-05-01T10:38:58.999Z</time></trkpt><trkpt lat="43.53029098212166" lon="12.68812472339838"><ele>370.0</ele><time>2026-05-01T10:38:59.999Z</time></trkpt><trkpt lat="43.53040898818289" lon="12.688222539313012"><ele>370.0</ele><time>2026-05-01T10:39:00.999Z</time></trkpt><trkpt lat="43.53052651970818" lon="12.688319961856692"><ele>370.75</ele><time>2026-05-01T10:39:02Z</time></trkpt><trkpt lat="43.53064330184729" lon="12.688402711606946"><ele>371.5</ele><time>2026-05-01T10:39:03Z</time></trkpt><trkpt lat="43.53075676908068" lon="12.688491409001442"><ele>372.25</ele><time>2026-05-01T10:39:04Z</time></trkpt><trkpt lat="43.530867216883145" lon="12.688578591047994"><ele>373.0</ele><time>2026-05-01T10:39:05Z</time></trkpt><trkpt lat="43.53098516555094" lon="12.688641222721136"><ele>373.0</ele><time>2026-05-01T10:39:06Z</time></trkpt><trkpt lat="43.53110678667726" lon="12.688671448404477"><ele>373.0</ele><time>2026-05-01T10:39:07Z</time></trkpt><trkpt lat="43.53123413800889" lon="12.688651503613931"><ele>373.0</ele><time>2026-05-01T10:39:08Z</time></trkpt><trkpt lat="43.53135998414811" lon="12.688585673832767"><ele>373.0</ele><time>2026-05-01T10:39:09Z</time></trkpt><trkpt lat="43.53148761897174" lon="12.688485677778743"><ele>373.0</ele><time>2026-05-01T10:39:10Z</time></trkpt><trkpt lat="43.53161128715317" lon="12.688380390788973"><ele>373.0</ele><time>2026-05-01T10:39:11Z</time></trkpt><trkpt lat="43.53173614706536" lon="12.688266442090642"><ele>373.0</ele><time>2026-05-01T10:39:12Z</time></trkpt><trkpt lat="43.5318686186203" lon="12.688156306899552"><ele>373.0</ele><time>2026-05-01T10:39:13Z</time></trkpt><trkpt lat="43.53200257771444" lon="12.688045645490378"><ele>373.0</ele><time>2026-05-01T10:39:14Z</time></trkpt><trkpt lat="43.532134903081875" lon="12.687937736985049"><ele>373.0</ele><time>2026-05-01T10:39:15Z</time></trkpt><trkpt lat="43.53228083881558" lon="12.68785693795049"><ele>374.66666666666663</ele><time>2026-05-01T10:39:16Z</time></trkpt><trkpt lat="43.53241782801667" lon="12.687745585353147"><ele>376.3333333333333</ele><time>2026-05-01T10:39:17Z</time></trkpt><trkpt lat="43.53255643942186" lon="12.687635107940105"><ele>378.0</ele><time>2026-05-01T10:39:18Z</time></trkpt><trkpt lat="43.53270171203312" lon="12.687518877394629"><ele>378.0</ele><time>2026-05-01T10:39:19Z</time></trkpt><trkpt lat="43.532847530561405" lon="12.687399930771763"><ele>378.0</ele><time>2026-05-01T10:39:20Z</time></trkpt><trkpt lat="43.53298641425243" lon="12.687253346078966"><ele>378.0</ele><time>2026-05-01T10:39:21Z</time></trkpt><trkpt lat="43.53313585598562" lon="12.687128030868273"><ele>378.0</ele><time>2026-05-01T10:39:22Z</time></trkpt><trkpt lat="43.53328613244347" lon="12.686992406872287"><ele>378.0</ele><time>2026-05-01T10:39:23Z</time></trkpt><trkpt lat="43.53343471152608" lon="12.686845250536768"><ele>378.0</ele><time>2026-05-01T10:39:24Z</time></trkpt><trkpt lat="43.53359950044885" lon="12.686713606873253"><ele>376.0</ele><time>2026-05-01T10:39:25Z</time></trkpt><trkpt lat="43.53375795181813" lon="12.68656008799772"><ele>374.0</ele><time>2026-05-01T10:39:26Z</time></trkpt><trkpt lat="43.5339194902507" lon="12.686403579311351"><ele>372.0</ele><time>2026-05-01T10:39:27Z</time></trkpt><trkpt lat="43.534085961125356" lon="12.686241391931208"><ele>372.0</ele><time>2026-05-01T10:39:28Z</time></trkpt><trkpt lat="43.534253527424426" lon="12.686078281001036"><ele>372.0</ele><time>2026-05-01T10:39:29Z</time></trkpt><trkpt lat="43.53441836526969" lon="12.685917827569765"><ele>372.0</ele><time>2026-05-01T10:39:30Z</time></trkpt><trkpt lat="43.534584738164305" lon="12.685757759770219"><ele>368.6666666666667</ele><time>2026-05-01T10:39:31Z</time></trkpt><trkpt lat="43.53474381932113" lon="12.685608603887502"><ele>365.33333333333337</ele><time>2026-05-01T10:39:32Z</time></trkpt><trkpt lat="43.53489760070385" lon="12.685463010746627"><ele>362.0</ele><time>2026-05-01T10:39:33Z</time></trkpt><trkpt lat="43.53503093824257" lon="12.685304877700863"><ele>363.0</ele><time>2026-05-01T10:39:34Z</time></trkpt><trkpt lat="43.53516442168314" lon="12.685163929796216"><ele>364.0</ele><time>2026-05-01T10:39:35Z</time></trkpt><trkpt lat="43.535282265564206" lon="12.684990140959947"><ele>365.0</ele><time>2026-05-01T10:39:36Z</time></trkpt><trkpt lat="43.53539022340861" lon="12.684783789767863"><ele>365.0</ele><time>2026-05-01T10:39:37Z</time></trkpt><trkpt lat="43.53548900447638" lon="12.684552013567677"><ele>365.0</ele><time>2026-05-01T10:39:38Z</time></trkpt><trkpt lat="43.53561080684936" lon="12.684316605537122"><ele>365.0</ele><time>2026-05-01T10:39:39Z</time></trkpt><trkpt lat="43.53572906009461" lon="12.684056743378578"><ele>363.0</ele><time>2026-05-01T10:39:40Z</time></trkpt><trkpt lat="43.5358456021428" lon="12.683800799572849"><ele>361.0</ele><time>2026-05-01T10:39:41Z</time></trkpt><trkpt lat="43.53594815327896" lon="12.683535006003439"><ele>359.0</ele><time>2026-05-01T10:39:42Z</time></trkpt><trkpt lat="43.536080998112915" lon="12.683284779919656"><ele>357.0</ele><time>2026-05-01T10:39:43Z</time></trkpt><trkpt lat="43.536186335925215" lon="12.68301325954311"><ele>355.0</ele><time>2026-05-01T10:39:44Z</time></trkpt><trkpt lat="43.53630300937423" lon="12.68275748644434"><ele>353.0</ele><time>2026-05-01T10:39:45Z</time></trkpt><trkpt lat="43.53641989774193" lon="12.682507945351565"><ele>351.0</ele><time>2026-05-01T10:39:46Z</time></trkpt><trkpt lat="43.53653458766297" lon="12.682266228115383"><ele>349.0</ele><time>2026-05-01T10:39:47Z</time></trkpt><trkpt lat="43.53664391878957" lon="12.682030006703041"><ele>347.0</ele><time>2026-05-01T10:39:48Z</time></trkpt><trkpt lat="43.53674801885856" lon="12.681792949166239"><ele>347.0</ele><time>2026-05-01T10:39:49Z</time></trkpt><trkpt lat="43.53684207210523" lon="12.681553654334676"><ele>347.0</ele><time>2026-05-01T10:39:50Z</time></trkpt><trkpt lat="43.53692333939098" lon="12.68131097652819"><ele>347.0</ele><time>2026-05-01T10:39:51Z</time></trkpt><trkpt lat="43.53699210238054" lon="12.681061012615343"><ele>346.6666666666667</ele><time>2026-05-01T10:39:52Z</time></trkpt><trkpt lat="43.537044808197216" lon="12.680802163879191"><ele>346.3333333333333</ele><time>2026-05-01T10:39:53Z</time></trkpt><trkpt lat="43.537086616025285" lon="12.680536959984986"><ele>346.0</ele><time>2026-05-01T10:39:54Z</time></trkpt><trkpt lat="43.53711787457552" lon="12.680271228194549"><ele>346.0</ele><time>2026-05-01T10:39:55Z</time></trkpt><trkpt lat="43.53717109340702" lon="12.680013393468887"><ele>346.0</ele><time>2026-05-01T10:39:56Z</time></trkpt><trkpt lat="43.5372094875386" lon="12.679752909902042"><ele>346.0</ele><time>2026-05-01T10:39:57Z</time></trkpt><trkpt lat="43.537245719722165" lon="12.679508594956793"><ele>346.3333333333333</ele><time>2026-05-01T10:39:58Z</time></trkpt><trkpt lat="43.5372836542948" lon="12.679276255883302"><ele>346.6666666666667</ele><time>2026-05-01T10:39:59Z</time></trkpt><trkpt lat="43.53733519240439" lon="12.679049552932206"><ele>347.0</ele><time>2026-05-01T10:40:00Z</time></trkpt><trkpt lat="43.53740818681335" lon="12.678834957126135"><ele>347.0</ele><time>2026-05-01T10:40:01Z</time></trkpt><trkpt lat="43.537502146363195" lon="12.678635927590964"><ele>347.0</ele><time>2026-05-01T10:40:02Z</time></trkpt><trkpt lat="43.537616357545964" lon="12.678458917577235"><ele>347.0</ele><time>2026-05-01T10:40:03Z</time></trkpt><trkpt lat="43.53775043123724" lon="12.678301599010712"><ele>346.33333333333337</ele><time>2026-05-01T10:40:04Z</time></trkpt><trkpt lat="43.53789944071599" lon="12.678162770396884"><ele>345.6666666666667</ele><time>2026-05-01T10:40:05Z</time></trkpt><trkpt lat="43.53805687077096" lon="12.678021656571104"><ele>345.0</ele><time>2026-05-01T10:40:06Z</time></trkpt><trkpt lat="43.538217766193654" lon="12.677878677853796"><ele>343.0</ele><time>2026-05-01T10:40:07Z</time></trkpt><trkpt lat="43.538383669319444" lon="12.677731283540002"><ele>341.0</ele><time>2026-05-01T10:40:08Z</time></trkpt><trkpt lat="43.538546417668464" lon="12.67756036943592"><ele>339.0</ele><time>2026-05-01T10:40:09Z</time></trkpt><trkpt lat="43.53872446229235" lon="12.677405500235926"><ele>337.6666666666667</ele><time>2026-05-01T10:40:10Z</time></trkpt><trkpt lat="43.53890678637851" lon="12.67724161873563"><ele>336.33333333333337</ele><time>2026-05-01T10:40:11Z</time></trkpt><trkpt lat="43.53908809597548" lon="12.677077501936028"><ele>335.0</ele><time>2026-05-01T10:40:12Z</time></trkpt><trkpt lat="43.539274508401455" lon="12.676940069965774"><ele>333.6666666666667</ele><time>2026-05-01T10:40:13Z</time></trkpt><trkpt lat="43.539444478094666" lon="12.6767919111967"><ele>332.3333333333333</ele><time>2026-05-01T10:40:14Z</time></trkpt><trkpt lat="43.53960970510576" lon="12.676648981806897"><ele>331.0</ele><time>2026-05-01T10:40:15Z</time></trkpt><trkpt lat="43.53977258035498" lon="12.67650808659681"><ele>328.66666666666663</ele><time>2026-05-01T10:40:16Z</time></trkpt><trkpt lat="43.53992674712841" lon="12.676368627995371"><ele>326.3333333333333</ele><time>2026-05-01T10:40:17Z</time></trkpt><trkpt lat="43.540078219214" lon="12.676296822562449"><ele>324.0</ele><time>2026-05-01T10:40:18Z</time></trkpt><trkpt lat="43.54020418684118" lon="12.676207079799852"><ele>323.75</ele><time>2026-05-01T10:40:19Z</time></trkpt><trkpt lat="43.5403604731492" lon="12.67605227445437"><ele>323.5</ele><time>2026-05-01T10:40:20Z</time></trkpt><trkpt lat="43.540455537779955" lon="12.676015864377424"><ele>323.25</ele><time>2026-05-01T10:40:22Z</time></trkpt><trkpt lat="43.54054067575884" lon="12.676006555561873"><ele>323.0</ele><time>2026-05-01T10:40:23Z</time></trkpt><trkpt lat="43.54061621838145" lon="12.676067555112862"><ele>322.33333333333337</ele><time>2026-05-01T10:40:24Z</time></trkpt><trkpt lat="43.5407054987817" lon="12.676076736169955"><ele>321.6666666666667</ele><time>2026-05-01T10:40:25Z</time></trkpt><trkpt lat="43.54078978379282" lon="12.676052097433358"><ele>321.0</ele><time>2026-05-01T10:40:26Z</time></trkpt><trkpt lat="43.540861601325695" lon="12.675990231854449"><ele>320.3333333333333</ele><time>2026-05-01T10:40:27Z</time></trkpt><trkpt lat="43.540911629234216" lon="12.675887264718513"><ele>319.66666666666663</ele><time>2026-05-01T10:40:28Z</time></trkpt><trkpt lat="43.54092224248197" lon="12.675760464394719"><ele>319.0</ele><time>2026-05-01T10:40:29Z</time></trkpt><trkpt lat="43.54089606372677" lon="12.675632337248018"><ele>319.0</ele><time>2026-05-01T10:40:30Z</time></trkpt><trkpt lat="43.54080994512591" lon="12.675551835466372"><ele>319.0</ele><time>2026-05-01T10:40:31Z</time></trkpt><trkpt lat="43.54076810700877" lon="12.675418624556492"><ele>319.0</ele><time>2026-05-01T10:40:32Z</time></trkpt><trkpt lat="43.540741041046466" lon="12.675278741965814"><ele>319.0</ele><time>2026-05-01T10:40:33Z</time></trkpt><trkpt lat="43.54074816237648" lon="12.675105712689387"><ele>319.0</ele><time>2026-05-01T10:40:34Z</time></trkpt><trkpt lat="43.54076574275969" lon="12.674919578909073"><ele>318.0</ele><time>2026-05-01T10:40:35Z</time></trkpt><trkpt lat="43.54078051359147" lon="12.67474135023562"><ele>317.0</ele><time>2026-05-01T10:40:36Z</time></trkpt><trkpt lat="43.540801930803326" lon="12.674559278626873"><ele>316.0</ele><time>2026-05-01T10:40:37Z</time></trkpt><trkpt lat="43.54081346383004" lon="12.674374793641514"><ele>315.0</ele><time>2026-05-01T10:40:38Z</time></trkpt><trkpt lat="43.54082424154573" lon="12.674191048201925"><ele>314.5</ele><time>2026-05-01T10:40:39Z</time></trkpt><trkpt lat="43.54084384376409" lon="12.67401276375837"><ele>314.0</ele><time>2026-05-01T10:40:40Z</time></trkpt><trkpt lat="43.54085763299921" lon="12.673823354144202"><ele>313.5</ele><time>2026-05-01T10:40:41Z</time></trkpt><trkpt lat="43.54087736607456" lon="12.673616221159657"><ele>313.0</ele><time>2026-05-01T10:40:41.999Z</time></trkpt><trkpt lat="43.54089459176335" lon="12.673400356158034"><ele>311.3333333333333</ele><time>2026-05-01T10:40:42.999Z</time></trkpt><trkpt lat="43.540913019545734" lon="12.673178294959666"><ele>309.6666666666667</ele><time>2026-05-01T10:40:43.999Z</time></trkpt><trkpt lat="43.54093271006927" lon="12.672957492500764"><ele>308.0</ele><time>2026-05-01T10:40:45Z</time></trkpt><trkpt lat="43.54095930154382" lon="12.672737535632578"><ele>306.0</ele><time>2026-05-01T10:40:46Z</time></trkpt><trkpt lat="43.5410150493869" lon="12.672521736341935"><ele>304.0</ele><time>2026-05-01T10:40:47Z</time></trkpt><trkpt lat="43.54107185631607" lon="12.672310661362948"><ele>302.0</ele><time>2026-05-01T10:40:48Z</time></trkpt><trkpt lat="43.541142214388636" lon="12.672101222876499"><ele>302.0</ele><time>2026-05-01T10:40:49Z</time></trkpt><trkpt lat="43.54122346694663" lon="12.671898069222243"><ele>302.0</ele><time>2026-05-01T10:40:50Z</time></trkpt><trkpt lat="43.54129608567137" lon="12.671680449928234"><ele>302.0</ele><time>2026-05-01T10:40:51Z</time></trkpt><trkpt lat="43.54137555401088" lon="12.671490291146435"><ele>302.0</ele><time>2026-05-01T10:40:52Z</time></trkpt><trkpt lat="43.54145179856896" lon="12.671303541547074"><ele>302.0</ele><time>2026-05-01T10:40:53Z</time></trkpt><trkpt lat="43.5415324405234" lon="12.671116333405235"><ele>302.0</ele><time>2026-05-01T10:40:54Z</time></trkpt><trkpt lat="43.541610724894845" lon="12.670933892257196"><ele>300.0</ele><time>2026-05-01T10:40:55Z</time></trkpt><trkpt lat="43.54170261888392" lon="12.67074751648921"><ele>298.0</ele><time>2026-05-01T10:40:56Z</time></trkpt><trkpt lat="43.54178319430599" lon="12.670556590860024"><ele>296.0</ele><time>2026-05-01T10:40:57Z</time></trkpt><trkpt lat="43.54186348752581" lon="12.670366334206557"><ele>296.0</ele><time>2026-05-01T10:40:58Z</time></trkpt><trkpt lat="43.541943972982054" lon="12.670174510736919"><ele>296.0</ele><time>2026-05-01T10:40:59Z</time></trkpt><trkpt lat="43.54202130416729" lon="12.669987290618895"><ele>296.0</ele><time>2026-05-01T10:41:00Z</time></trkpt><trkpt lat="43.542097830442835" lon="12.66980003590554"><ele>296.0</ele><time>2026-05-01T10:41:01Z</time></trkpt><trkpt lat="43.54217302070591" lon="12.669606658732667"><ele>296.0</ele><time>2026-05-01T10:41:02Z</time></trkpt><trkpt lat="43.542230975217635" lon="12.669404184769244"><ele>296.0</ele><time>2026-05-01T10:41:03Z</time></trkpt><trkpt lat="43.542302367590366" lon="12.669198878228118"><ele>298.6666666666667</ele><time>2026-05-01T10:41:04Z</time></trkpt><trkpt lat="43.542372758743745" lon="12.668998638160039"><ele>301.3333333333333</ele><time>2026-05-01T10:41:05Z</time></trkpt><trkpt lat="43.542455102731594" lon="12.668785607018656"><ele>304.0</ele><time>2026-05-01T10:41:06Z</time></trkpt><trkpt lat="43.54251897594604" lon="12.668570817320102"><ele>304.0</ele><time>2026-05-01T10:41:07Z</time></trkpt><trkpt lat="43.542582377543056" lon="12.66836286346594"><ele>304.0</ele><time>2026-05-01T10:41:08Z</time></trkpt><trkpt lat="43.54264932248775" lon="12.668153596605142"><ele>304.0</ele><time>2026-05-01T10:41:09Z</time></trkpt><trkpt lat="43.54269929920447" lon="12.667935049106223"><ele>304.3333333333333</ele><time>2026-05-01T10:41:10Z</time></trkpt><trkpt lat="43.542730114172834" lon="12.667707433018755"><ele>304.6666666666667</ele><time>2026-05-01T10:41:11Z</time></trkpt><trkpt lat="43.542749475787815" lon="12.667469909488434"><ele>305.0</ele><time>2026-05-01T10:41:12Z</time></trkpt><trkpt lat="43.54276486905327" lon="12.667234516769724"><ele>305.0</ele><time>2026-05-01T10:41:13Z</time></trkpt><trkpt lat="43.54278642486915" lon="12.667006800014494"><ele>305.0</ele><time>2026-05-01T10:41:14Z</time></trkpt><trkpt lat="43.54283684976415" lon="12.666784727872498"><ele>305.0</ele><time>2026-05-01T10:41:15Z</time></trkpt><trkpt lat="43.542921639637996" lon="12.666584903144589"><ele>303.6666666666667</ele><time>2026-05-01T10:41:16Z</time></trkpt><trkpt lat="43.54300003963952" lon="12.666374010554092"><ele>302.3333333333333</ele><time>2026-05-01T10:41:17Z</time></trkpt><trkpt lat="43.54308090537744" lon="12.666173573613776"><ele>301.0</ele><time>2026-05-01T10:41:18Z</time></trkpt><trkpt lat="43.54317038639907" lon="12.665970243544312"><ele>301.0</ele><time>2026-05-01T10:41:19Z</time></trkpt><trkpt lat="43.54324609367413" lon="12.665768977091387"><ele>301.0</ele><time>2026-05-01T10:41:20Z</time></trkpt><trkpt lat="43.54331946517845" lon="12.665562901170077"><ele>301.0</ele><time>2026-05-01T10:41:21Z</time></trkpt><trkpt lat="43.543385679332395" lon="12.66534766660384"><ele>301.0</ele><time>2026-05-01T10:41:22Z</time></trkpt><trkpt lat="43.543444755827906" lon="12.665134370789515"><ele>301.0</ele><time>2026-05-01T10:41:23Z</time></trkpt><trkpt lat="43.543515380865394" lon="12.664921341022627"><ele>301.0</ele><time>2026-05-01T10:41:24Z</time></trkpt><trkpt lat="43.54357052992544" lon="12.664684487229115"><ele>301.0</ele><time>2026-05-01T10:41:25Z</time></trkpt><trkpt lat="43.543642196541725" lon="12.66446867719985"><ele>301.0</ele><time>2026-05-01T10:41:26Z</time></trkpt><trkpt lat="43.54372178714867" lon="12.664258448381931"><ele>301.0</ele><time>2026-05-01T10:41:27Z</time></trkpt><trkpt lat="43.54380051004203" lon="12.664049460890064"><ele>298.66666666666663</ele><time>2026-05-01T10:41:28Z</time></trkpt><trkpt lat="43.54388041885842" lon="12.663839627951042"><ele>296.3333333333333</ele><time>2026-05-01T10:41:29Z</time></trkpt><trkpt lat="43.54396556531875" lon="12.663630576703873"><ele>294.0</ele><time>2026-05-01T10:41:30Z</time></trkpt><trkpt lat="43.54404778110704" lon="12.663420149588157"><ele>294.0</ele><time>2026-05-01T10:41:31Z</time></trkpt><trkpt lat="43.54413197087512" lon="12.663206935613438"><ele>294.0</ele><time>2026-05-01T10:41:32Z</time></trkpt><trkpt lat="43.5442097922553" lon="12.662991475868566"><ele>294.0</ele><time>2026-05-01T10:41:33Z</time></trkpt><trkpt lat="43.5442890628876" lon="12.66278268478042"><ele>294.3333333333333</ele><time>2026-05-01T10:41:34Z</time></trkpt><trkpt lat="43.544362537440996" lon="12.66258282261251"><ele>294.66666666666663</ele><time>2026-05-01T10:41:35Z</time></trkpt><trkpt lat="43.54443658827976" lon="12.662387625301092"><ele>295.0</ele><time>2026-05-01T10:41:36Z</time></trkpt><trkpt lat="43.54450680772125" lon="12.662197386426415"><ele>292.75</ele><time>2026-05-01T10:41:37Z</time></trkpt><trkpt lat="43.544582156802164" lon="12.662007693004464"><ele>290.5</ele><time>2026-05-01T10:41:38Z</time></trkpt><trkpt lat="43.54464825101862" lon="12.661827190790083"><ele>288.25</ele><time>2026-05-01T10:41:39Z</time></trkpt><trkpt lat="43.544728000718116" lon="12.661663267072587"><ele>286.0</ele><time>2026-05-01T10:41:40Z</time></trkpt><trkpt lat="43.54479113419675" lon="12.661501122451863"><ele>286.0</ele><time>2026-05-01T10:41:41Z</time></trkpt><trkpt lat="43.54485246688972" lon="12.661346276227729"><ele>286.0</ele><time>2026-05-01T10:41:42Z</time></trkpt><trkpt lat="43.54491362992086" lon="12.66120314407722"><ele>286.0</ele><time>2026-05-01T10:41:43Z</time></trkpt><trkpt lat="43.544976035710135" lon="12.661069185150948"><ele>286.0</ele><time>2026-05-01T10:41:44Z</time></trkpt><trkpt lat="43.545050979036866" lon="12.660937574518963"><ele>286.6</ele><time>2026-05-01T10:41:45Z</time></trkpt><trkpt lat="43.54511666126359" lon="12.660799784722862"><ele>287.20000000000005</ele><time>2026-05-01T10:41:46Z</time></trkpt><trkpt lat="43.54519915690552" lon="12.660692977133326"><ele>287.79999999999995</ele><time>2026-05-01T10:41:47Z</time></trkpt><trkpt lat="43.545281863998945" lon="12.660606147446039"><ele>288.4</ele><time>2026-05-01T10:41:48Z</time></trkpt><trkpt lat="43.54535948476012" lon="12.660522286623802"><ele>289.0</ele><time>2026-05-01T10:41:49Z</time></trkpt><trkpt lat="43.545436621382365" lon="12.660450703551026"><ele>288.0</ele><time>2026-05-01T10:41:50Z</time></trkpt><trkpt lat="43.54550921502816" lon="12.66039510410741"><ele>287.0</ele><time>2026-05-01T10:41:51Z</time></trkpt><trkpt lat="43.545568470815866" lon="12.660323463154873"><ele>286.0</ele><time>2026-05-01T10:41:52Z</time></trkpt><trkpt lat="43.54562636827988" lon="12.660260144941175"><ele>285.0</ele><time>2026-05-01T10:41:53Z</time></trkpt><trkpt lat="43.54567118795239" lon="12.660197490847647"><ele>284.0</ele><time>2026-05-01T10:41:54Z</time></trkpt><trkpt lat="43.54575768469301" lon="12.66009905110369"><ele>283.0</ele><time>2026-05-01T10:41:56Z</time></trkpt><trkpt lat="43.545869985276624" lon="12.660035915149837"><ele>283.0</ele><time>2026-05-01T10:41:58Z</time></trkpt><trkpt lat="43.545918893299984" lon="12.65997434895086"><ele>283.0</ele><time>2026-05-01T10:41:59Z</time></trkpt><trkpt lat="43.54596465987172" lon="12.659896987873575"><ele>283.0</ele><time>2026-05-01T10:42:00Z</time></trkpt><trkpt lat="43.54601197696568" lon="12.659811831950952"><ele>283.0</ele><time>2026-05-01T10:42:01Z</time></trkpt><trkpt lat="43.54606732332287" lon="12.6597070068415"><ele>283.0</ele><time>2026-05-01T10:42:02Z</time></trkpt><trkpt lat="43.54612425700873" lon="12.65958043147006"><ele>283.0</ele><time>2026-05-01T10:42:03Z</time></trkpt><trkpt lat="43.546180829227396" lon="12.659436095321647"><ele>281.75</ele><time>2026-05-01T10:42:04Z</time></trkpt><trkpt lat="43.54623644961754" lon="12.659296501246265"><ele>280.5</ele><time>2026-05-01T10:42:05Z</time></trkpt><trkpt lat="43.54628288500536" lon="12.65914461103239"><ele>279.25</ele><time>2026-05-01T10:42:06Z</time></trkpt><trkpt lat="43.546336329063884" lon="12.658990747058366"><ele>278.0</ele><time>2026-05-01T10:42:07Z</time></trkpt><trkpt lat="43.54639022075495" lon="12.658844623870332"><ele>278.0</ele><time>2026-05-01T10:42:08Z</time></trkpt><trkpt lat="43.54644150127097" lon="12.65869628657099"><ele>278.0</ele><time>2026-05-01T10:42:09Z</time></trkpt><trkpt lat="43.54649205519379" lon="12.6585495101942"><ele>278.0</ele><time>2026-05-01T10:42:10Z</time></trkpt><trkpt lat="43.5465437705069" lon="12.65840611434615"><ele>278.0</ele><time>2026-05-01T10:42:11Z</time></trkpt><trkpt lat="43.54660548118722" lon="12.658272148983507"><ele>279.0</ele><time>2026-05-01T10:42:12Z</time></trkpt><trkpt lat="43.546638199146024" lon="12.658125687787669"><ele>280.0</ele><time>2026-05-01T10:42:13Z</time></trkpt><trkpt lat="43.546691502391084" lon="12.657978986539456"><ele>281.0</ele><time>2026-05-01T10:42:14Z</time></trkpt><trkpt lat="43.546743645555225" lon="12.65783046561355"><ele>282.0</ele><time>2026-05-01T10:42:15Z</time></trkpt><trkpt lat="43.546797728791134" lon="12.657683180031999"><ele>282.0</ele><time>2026-05-01T10:42:16Z</time></trkpt><trkpt lat="43.54684858792257" lon="12.657531830126047"><ele>282.0</ele><time>2026-05-01T10:42:17Z</time></trkpt><trkpt lat="43.546898393117566" lon="12.657374018315208"><ele>282.0</ele><time>2026-05-01T10:42:18Z</time></trkpt><trkpt lat="43.546952846401126" lon="12.657222815612716"><ele>282.0</ele><time>2026-05-01T10:42:19Z</time></trkpt><trkpt lat="43.546977109888665" lon="12.657053121999429"><ele>281.75</ele><time>2026-05-01T10:42:20Z</time></trkpt><trkpt lat="43.54702255073509" lon="12.656889657915182"><ele>281.5</ele><time>2026-05-01T10:42:21Z</time></trkpt><trkpt lat="43.54704214275424" lon="12.656715015751073"><ele>281.25</ele><time>2026-05-01T10:42:22Z</time></trkpt><trkpt lat="43.547037661073105" lon="12.656538732401748"><ele>281.0</ele><time>2026-05-01T10:42:23Z</time></trkpt><trkpt lat="43.54703888787287" lon="12.656362435664208"><ele>281.0</ele><time>2026-05-01T10:42:24Z</time></trkpt><trkpt lat="43.547037868429804" lon="12.656179528904676"><ele>281.0</ele><time>2026-05-01T10:42:25Z</time></trkpt><trkpt lat="43.547017225452116" lon="12.656006686429969"><ele>281.0</ele><time>2026-05-01T10:42:26Z</time></trkpt><trkpt lat="43.546992288448" lon="12.655832021527882"><ele>281.0</ele><time>2026-05-01T10:42:27Z</time></trkpt><trkpt lat="43.546961642864865" lon="12.65566545848242"><ele>280.5</ele><time>2026-05-01T10:42:28Z</time></trkpt><trkpt lat="43.54691917631243" lon="12.65549235540885"><ele>280.0</ele><time>2026-05-01T10:42:29Z</time></trkpt><trkpt lat="43.54687133012424" lon="12.655327860319014"><ele>279.5</ele><time>2026-05-01T10:42:30Z</time></trkpt><trkpt lat="43.54681308967941" lon="12.655167043583418"><ele>279.0</ele><time>2026-05-01T10:42:31Z</time></trkpt><trkpt lat="43.54673592118459" lon="12.655020487051013"><ele>277.0</ele><time>2026-05-01T10:42:32Z</time></trkpt><trkpt lat="43.546658244108144" lon="12.654878245187986"><ele>275.0</ele><time>2026-05-01T10:42:33Z</time></trkpt><trkpt lat="43.546572639131774" lon="12.65474257329644"><ele>273.0</ele><time>2026-05-01T10:42:34Z</time></trkpt><trkpt lat="43.54648607936874" lon="12.654617111596597"><ele>271.0</ele><time>2026-05-01T10:42:35Z</time></trkpt><trkpt lat="43.5463922679637" lon="12.65449412077509"><ele>269.5</ele><time>2026-05-01T10:42:36Z</time></trkpt><trkpt lat="43.54630397107211" lon="12.654369174205753"><ele>268.0</ele><time>2026-05-01T10:42:37Z</time></trkpt><trkpt lat="43.546214917091746" lon="12.654239902107632"><ele>266.5</ele><time>2026-05-01T10:42:38Z</time></trkpt><trkpt lat="43.546126373691486" lon="12.654114517659659"><ele>265.0</ele><time>2026-05-01T10:42:39Z</time></trkpt><trkpt lat="43.54603547095419" lon="12.653987530735298"><ele>266.0</ele><time>2026-05-01T10:42:40Z</time></trkpt><trkpt lat="43.54594585851033" lon="12.653862315119753"><ele>267.0</ele><time>2026-05-01T10:42:41Z</time></trkpt><trkpt lat="43.545854199873745" lon="12.653735875680045"><ele>268.0</ele><time>2026-05-01T10:42:42Z</time></trkpt><trkpt lat="43.54576090261041" lon="12.653610361745333"><ele>269.0</ele><time>2026-05-01T10:42:43Z</time></trkpt><trkpt lat="43.54566756680957" lon="12.653486330426318"><ele>269.0</ele><time>2026-05-01T10:42:44Z</time></trkpt><trkpt lat="43.545590333471836" lon="12.653361191940338"><ele>269.0</ele><time>2026-05-01T10:42:45Z</time></trkpt><trkpt lat="43.54551251545862" lon="12.653254420935635"><ele>269.0</ele><time>2026-05-01T10:42:46Z</time></trkpt><trkpt lat="43.54543154500906" lon="12.65315030622425"><ele>269.0</ele><time>2026-05-01T10:42:47Z</time></trkpt><trkpt lat="43.5453720954558" lon="12.653020802067449"><ele>269.4</ele><time>2026-05-01T10:42:48Z</time></trkpt><trkpt lat="43.54534389011654" lon="12.65286929707181"><ele>269.79999999999995</ele><time>2026-05-01T10:42:49Z</time></trkpt><trkpt lat="43.54532184194816" lon="12.652726660706975"><ele>270.20000000000005</ele><time>2026-05-01T10:42:50Z</time></trkpt><trkpt lat="43.545316750458746" lon="12.65258031622062"><ele>270.6</ele><time>2026-05-01T10:42:51Z</time></trkpt><trkpt lat="43.545310683616385" lon="12.652428311515026"><ele>271.0</ele><time>2026-05-01T10:42:52Z</time></trkpt><trkpt lat="43.54534407554255" lon="12.652277925089068"><ele>267.75</ele><time>2026-05-01T10:42:53Z</time></trkpt><trkpt lat="43.54540329473411" lon="12.65214029075698"><ele>264.5</ele><time>2026-05-01T10:42:54Z</time></trkpt><trkpt lat="43.54545184541333" lon="12.651987608103795"><ele>261.25</ele><time>2026-05-01T10:42:55Z</time></trkpt><trkpt lat="43.54548641419657" lon="12.651830363792385"><ele>258.0</ele><time>2026-05-01T10:42:56Z</time></trkpt><trkpt lat="43.54555359323392" lon="12.651679483453016"><ele>257.5</ele><time>2026-05-01T10:42:57Z</time></trkpt><trkpt lat="43.54559044938863" lon="12.651510874664732"><ele>257.0</ele><time>2026-05-01T10:42:58Z</time></trkpt><trkpt lat="43.54564525283435" lon="12.651354605801467"><ele>256.5</ele><time>2026-05-01T10:42:59Z</time></trkpt><trkpt lat="43.54569722997323" lon="12.651198403066326"><ele>256.0</ele><time>2026-05-01T10:43:00Z</time></trkpt><trkpt lat="43.545745646609085" lon="12.65104862054766"><ele>255.99999999999997</ele><time>2026-05-01T10:43:01Z</time></trkpt><trkpt lat="43.545787034560476" lon="12.650922886107136"><ele>256.0</ele><time>2026-05-01T10:43:02Z</time></trkpt><trkpt lat="43.54582024879993" lon="12.650813900559253"><ele>256.0</ele><time>2026-05-01T10:43:03Z</time></trkpt><trkpt lat="43.54585065203758" lon="12.650719469802732"><ele>256.0</ele><time>2026-05-01T10:43:04Z</time></trkpt><trkpt lat="43.54589422284424" lon="12.650595583756509"><ele>255.99999999999997</ele><time>2026-05-01T10:43:06Z</time></trkpt><trkpt lat="43.545920590496365" lon="12.650503012751972"><ele>256.0</ele><time>2026-05-01T10:44:03Z</time></trkpt><trkpt lat="43.54596191974792" lon="12.650411312804197"><ele>258.0</ele><time>2026-05-01T10:44:05Z</time></trkpt><trkpt lat="43.545858305922415" lon="12.65027210740318"><ele>260.0</ele><time>2026-05-01T10:44:07Z</time></trkpt><trkpt lat="43.54579441226049" lon="12.650223730986554"><ele>262.0</ele><time>2026-05-01T10:44:08Z</time></trkpt><trkpt lat="43.54568613149665" lon="12.650158820293813"><ele>264.0</ele><time>2026-05-01T10:44:10Z</time></trkpt><trkpt lat="43.5456139906117" lon="12.650120721186836"><ele>266.0</ele><time>2026-05-01T10:44:11Z</time></trkpt><trkpt lat="43.54553480865837" lon="12.650076223956344"><ele>266.0</ele><time>2026-05-01T10:44:12Z</time></trkpt><trkpt lat="43.5454482032984" lon="12.650030184081992"><ele>266.0</ele><time>2026-05-01T10:44:13Z</time></trkpt><trkpt lat="43.5453556112507" lon="12.649979336627363"><ele>266.0</ele><time>2026-05-01T10:44:14Z</time></trkpt><trkpt lat="43.54526195073585" lon="12.64992934507716"><ele>266.0</ele><time>2026-05-01T10:44:15Z</time></trkpt><trkpt lat="43.545166958555384" lon="12.64988246180152"><ele>266.0</ele><time>2026-05-01T10:44:16Z</time></trkpt><trkpt lat="43.5450734846781" lon="12.64983416747926"><ele>266.8</ele><time>2026-05-01T10:44:17Z</time></trkpt><trkpt lat="43.54498690799314" lon="12.649770115027389"><ele>267.6</ele><time>2026-05-01T10:44:18Z</time></trkpt><trkpt lat="43.54491130216884" lon="12.64969513805442"><ele>268.4</ele><time>2026-05-01T10:44:19Z</time></trkpt><trkpt lat="43.54484532601755" lon="12.649611074163042"><ele>269.2</ele><time>2026-05-01T10:44:20Z</time></trkpt><trkpt lat="43.5447769923383" lon="12.649522590614671"><ele>270.0</ele><time>2026-05-01T10:44:21Z</time></trkpt><trkpt lat="43.5447025369101" lon="12.64945336600424"><ele>270.0</ele><time>2026-05-01T10:44:22Z</time></trkpt><trkpt lat="43.54462011940811" lon="12.6493953476093"><ele>270.0</ele><time>2026-05-01T10:44:23Z</time></trkpt><trkpt lat="43.544529111723264" lon="12.649359873348509"><ele>270.0</ele><time>2026-05-01T10:44:24Z</time></trkpt><trkpt lat="43.54443457760574" lon="12.649336288706865"><ele>270.0</ele><time>2026-05-01T10:44:25Z</time></trkpt><trkpt lat="43.544338773792035" lon="12.649323098619579"><ele>270.0</ele><time>2026-05-01T10:44:26Z</time></trkpt><trkpt lat="43.54424103027848" lon="12.649310225546973"><ele>269.8</ele><time>2026-05-01T10:44:27Z</time></trkpt><trkpt lat="43.54414536299039" lon="12.649295983524032"><ele>269.6</ele><time>2026-05-01T10:44:28Z</time></trkpt><trkpt lat="43.544051280597955" lon="12.649274367523073"><ele>269.4</ele><time>2026-05-01T10:44:29Z</time></trkpt><trkpt lat="43.543959269893634" lon="12.649251958578384"><ele>269.2</ele><time>2026-05-01T10:44:30Z</time></trkpt><trkpt lat="43.54386630841028" lon="12.649223287924926"><ele>269.0</ele><time>2026-05-01T10:44:31Z</time></trkpt><trkpt lat="43.54377313511708" lon="12.649187266555474"><ele>269.0</ele><time>2026-05-01T10:44:32Z</time></trkpt><trkpt lat="43.54368221137929" lon="12.649145608206325"><ele>269.0</ele><time>2026-05-01T10:44:33Z</time></trkpt><trkpt lat="43.54359010603537" lon="12.649104741656235"><ele>269.0</ele><time>2026-05-01T10:44:34Z</time></trkpt><trkpt lat="43.54350261538653" lon="12.649068549714542"><ele>269.0</ele><time>2026-05-01T10:44:35Z</time></trkpt><trkpt lat="43.54342270334284" lon="12.649040522193534"><ele>269.0</ele><time>2026-05-01T10:44:36Z</time></trkpt><trkpt lat="43.543359485717914" lon="12.64900548042737"><ele>269.0</ele><time>2026-05-01T10:44:37Z</time></trkpt><trkpt lat="43.543320579044" lon="12.648931559739847"><ele>269.0</ele><time>2026-05-01T10:44:38Z</time></trkpt><trkpt lat="43.543296507260344" lon="12.648847161706524"><ele>269.0</ele><time>2026-05-01T10:44:39Z</time></trkpt><trkpt lat="43.543298027459734" lon="12.648740687954444"><ele>269.0</ele><time>2026-05-01T10:44:40Z</time></trkpt><trkpt lat="43.54332011154289" lon="12.64863744571648"><ele>269.0</ele><time>2026-05-01T10:44:41Z</time></trkpt><trkpt lat="43.543351485347344" lon="12.648534064096294"><ele>269.0</ele><time>2026-05-01T10:44:42Z</time></trkpt><trkpt lat="43.54339061442579" lon="12.648436165948068"><ele>269.0</ele><time>2026-05-01T10:44:43Z</time></trkpt><trkpt lat="43.54342839755273" lon="12.648328232136496"><ele>269.8</ele><time>2026-05-01T10:44:44Z</time></trkpt><trkpt lat="43.54346416241654" lon="12.648185236973637"><ele>270.59999999999997</ele><time>2026-05-01T10:44:45Z</time></trkpt><trkpt lat="43.54350612535977" lon="12.648061767124737"><ele>271.4</ele><time>2026-05-01T10:44:46Z</time></trkpt><trkpt lat="43.543546675595636" lon="12.647941137395076"><ele>272.2</ele><time>2026-05-01T10:44:47Z</time></trkpt><trkpt lat="43.54358587521874" lon="12.647826661306084"><ele>273.0</ele><time>2026-05-01T10:44:48Z</time></trkpt><trkpt lat="43.54362063658652" lon="12.647717615448522"><ele>273.8333333333333</ele><time>2026-05-01T10:44:49Z</time></trkpt><trkpt lat="43.54366367323816" lon="12.647611967714482"><ele>274.6666666666667</ele><time>2026-05-01T10:44:50Z</time></trkpt><trkpt lat="43.543692918895104" lon="12.647492800976185"><ele>275.5</ele><time>2026-05-01T10:44:51Z</time></trkpt><trkpt lat="43.543726479506915" lon="12.647418515132184"><ele>276.33333333333337</ele><time>2026-05-01T10:44:52Z</time></trkpt><trkpt lat="43.5437713694141" lon="12.64734241763431"><ele>277.1666666666667</ele><time>2026-05-01T10:44:53Z</time></trkpt><trkpt lat="43.543790757472635" lon="12.647225588619504"><ele>278.0</ele><time>2026-05-01T10:44:54Z</time></trkpt><trkpt lat="43.54385975297384" lon="12.647192706886527"><ele>278.5</ele><time>2026-05-01T10:44:55Z</time></trkpt><trkpt lat="43.54392230382984" lon="12.647158477485133"><ele>279.0</ele><time>2026-05-01T10:44:56Z</time></trkpt><trkpt lat="43.54400065384038" lon="12.647135618184691"><ele>279.5</ele><time>2026-05-01T10:44:57Z</time></trkpt><trkpt lat="43.54408316095289" lon="12.647099344539683"><ele>280.0</ele><time>2026-05-01T10:44:58Z</time></trkpt><trkpt lat="43.54416273926033" lon="12.647051019110126"><ele>280.5</ele><time>2026-05-01T10:44:59Z</time></trkpt><trkpt lat="43.5442396307446" lon="12.647023562456658"><ele>281.0</ele><time>2026-05-01T10:45:00Z</time></trkpt><trkpt lat="43.54432283078105" lon="12.64698746792256"><ele>281.0</ele><time>2026-05-01T10:45:01Z</time></trkpt><trkpt lat="43.544402488304414" lon="12.64696602387956"><ele>281.0</ele><time>2026-05-01T10:45:02Z</time></trkpt><trkpt lat="43.54447336772759" lon="12.646941767060767"><ele>281.0</ele><time>2026-05-01T10:45:03Z</time></trkpt><trkpt lat="43.54454876840375" lon="12.64691318718153"><ele>281.0</ele><time>2026-05-01T10:45:04Z</time></trkpt><trkpt lat="43.54463794583879" lon="12.646876985030014"><ele>281.0</ele><time>2026-05-01T10:45:05Z</time></trkpt><trkpt lat="43.54471201335717" lon="12.646848822832556"><ele>281.0</ele><time>2026-05-01T10:45:06Z</time></trkpt><trkpt lat="43.54479985072563" lon="12.646819082727943"><ele>282.8</ele><time>2026-05-01T10:45:07Z</time></trkpt><trkpt lat="43.54489457787007" lon="12.646773456016236"><ele>284.6</ele><time>2026-05-01T10:45:08Z</time></trkpt><trkpt lat="43.544985710830645" lon="12.646734550343451"><ele>286.4</ele><time>2026-05-01T10:45:09Z</time></trkpt><trkpt lat="43.54506635030352" lon="12.646658895258215"><ele>288.2</ele><time>2026-05-01T10:45:10Z</time></trkpt><trkpt lat="43.54517395197734" lon="12.646634426067347"><ele>290.0</ele><time>2026-05-01T10:45:11Z</time></trkpt><trkpt lat="43.54526912133726" lon="12.646580161478843"><ele>290.0</ele><time>2026-05-01T10:45:12Z</time></trkpt><trkpt lat="43.545353600939585" lon="12.646533964719778"><ele>290.0</ele><time>2026-05-01T10:45:13Z</time></trkpt><trkpt lat="43.54543011001425" lon="12.646526079806712"><ele>290.0</ele><time>2026-05-01T10:45:14Z</time></trkpt><trkpt lat="43.54549935396074" lon="12.646508322263518"><ele>290.0</ele><time>2026-05-01T10:45:15Z</time></trkpt><trkpt lat="43.5455789291542" lon="12.646459606745081"><ele>290.0</ele><time>2026-05-01T10:45:17Z</time></trkpt><trkpt lat="43.54567107878369" lon="12.646419402378594"><ele>290.0</ele><time>2026-05-01T10:45:19Z</time></trkpt><trkpt lat="43.54576868116689" lon="12.646374720058384"><ele>288.4</ele><time>2026-05-01T10:45:21Z</time></trkpt><trkpt lat="43.5458621386082" lon="12.646335619028607"><ele>286.8</ele><time>2026-05-01T10:45:23Z</time></trkpt><trkpt lat="43.545928995389424" lon="12.646306246173157"><ele>285.2</ele><time>2026-05-01T10:45:25Z</time></trkpt><trkpt lat="43.54600150889887" lon="12.646260402671116"><ele>283.6</ele><time>2026-05-01T10:45:27Z</time></trkpt><trkpt lat="43.546031653362014" lon="12.646129701937708"><ele>282.0</ele><time>2026-05-01T10:45:29Z</time></trkpt><trkpt lat="43.546034910190194" lon="12.645963626917059"><ele>281.6666666666667</ele><time>2026-05-01T10:45:31Z</time></trkpt><trkpt lat="43.546027314933525" lon="12.645846737404806"><ele>281.3333333333333</ele><time>2026-05-01T10:45:32Z</time></trkpt><trkpt lat="43.546016244867694" lon="12.6457361770682"><ele>281.0</ele><time>2026-05-01T10:45:33Z</time></trkpt><trkpt lat="43.54602741927792" lon="12.645616992086392"><ele>280.66666666666663</ele><time>2026-05-01T10:45:34Z</time></trkpt><trkpt lat="43.546010557383745" lon="12.645505528285959"><ele>280.3333333333333</ele><time>2026-05-01T10:45:35Z</time></trkpt><trkpt lat="43.545985620823686" lon="12.64537339303321"><ele>280.0</ele><time>2026-05-01T10:45:36Z</time></trkpt><trkpt lat="43.54595520457297" lon="12.64523551635994"><ele>280.0</ele><time>2026-05-01T10:45:37Z</time></trkpt><trkpt lat="43.545877111702495" lon="12.644973968446298"><ele>280.0</ele><time>2026-05-01T10:45:39Z</time></trkpt><trkpt lat="43.54581445583589" lon="12.64485533080545"><ele>280.0</ele><time>2026-05-01T10:45:40Z</time></trkpt><trkpt lat="43.5457635628408" lon="12.644725986934684"><ele>280.0</ele><time>2026-05-01T10:45:41Z</time></trkpt><trkpt lat="43.545710942238884" lon="12.644587399236137"><ele>280.0</ele><time>2026-05-01T10:45:42Z</time></trkpt><trkpt lat="43.54562441355433" lon="12.644468344262767"><ele>280.0</ele><time>2026-05-01T10:45:43Z</time></trkpt><trkpt lat="43.545556045589116" lon="12.644342313501804"><ele>280.0</ele><time>2026-05-01T10:45:44Z</time></trkpt><trkpt lat="43.545482591638596" lon="12.644219463106463"><ele>280.0</ele><time>2026-05-01T10:45:45Z</time></trkpt><trkpt lat="43.54540121895221" lon="12.64409280016765"><ele>279.75</ele><time>2026-05-01T10:45:46Z</time></trkpt><trkpt lat="43.54532288581635" lon="12.643950387685313"><ele>279.5</ele><time>2026-05-01T10:45:47Z</time></trkpt><trkpt lat="43.545237113196954" lon="12.643821479243437"><ele>279.25</ele><time>2026-05-01T10:45:48Z</time></trkpt><trkpt lat="43.54515711528231" lon="12.643680190095363"><ele>279.0</ele><time>2026-05-01T10:45:49Z</time></trkpt><trkpt lat="43.54507257237275" lon="12.643547198537453"><ele>279.0</ele><time>2026-05-01T10:45:50Z</time></trkpt><trkpt lat="43.54499076358473" lon="12.643412866946035"><ele>279.0</ele><time>2026-05-01T10:45:51Z</time></trkpt><trkpt lat="43.54490923074241" lon="12.64328567821277"><ele>279.0</ele><time>2026-05-01T10:45:52Z</time></trkpt><trkpt lat="43.54482899417812" lon="12.643157099416579"><ele>279.0</ele><time>2026-05-01T10:45:53Z</time></trkpt><trkpt lat="43.54476398363402" lon="12.643017634461609"><ele>279.0</ele><time>2026-05-01T10:45:54Z</time></trkpt><trkpt lat="43.54468168465035" lon="12.64288118967774"><ele>279.0</ele><time>2026-05-01T10:45:55Z</time></trkpt><trkpt lat="43.54460387649678" lon="12.642752190036632"><ele>279.0</ele><time>2026-05-01T10:45:56Z</time></trkpt><trkpt lat="43.54452111424619" lon="12.642616882980217"><ele>279.0</ele><time>2026-05-01T10:45:57Z</time></trkpt><trkpt lat="43.54443916990636" lon="12.642483888645966"><ele>282.25</ele><time>2026-05-01T10:45:58Z</time></trkpt><trkpt lat="43.54435438878349" lon="12.642348525447696"><ele>285.5</ele><time>2026-05-01T10:45:59Z</time></trkpt><trkpt lat="43.5442730850574" lon="12.642221144869328"><ele>288.75</ele><time>2026-05-01T10:46:00Z</time></trkpt><trkpt lat="43.54419206013155" lon="12.642097025995648"><ele>292.0</ele><time>2026-05-01T10:46:01Z</time></trkpt><trkpt lat="43.544096305662634" lon="12.641983323668128"><ele>289.5</ele><time>2026-05-01T10:46:02Z</time></trkpt><trkpt lat="43.54401202867819" lon="12.641855847752359"><ele>287.0</ele><time>2026-05-01T10:46:03Z</time></trkpt><trkpt lat="43.54392840560266" lon="12.641723139933871"><ele>284.5</ele><time>2026-05-01T10:46:04Z</time></trkpt><trkpt lat="43.54384308919468" lon="12.641586747582007"><ele>282.0</ele><time>2026-05-01T10:46:05Z</time></trkpt><trkpt lat="43.54374996840818" lon="12.641450056416112"><ele>282.75</ele><time>2026-05-01T10:46:06Z</time></trkpt><trkpt lat="43.54365920325247" lon="12.64130947541731"><ele>283.5</ele><time>2026-05-01T10:46:07Z</time></trkpt><trkpt lat="43.543565958008685" lon="12.641165254542399"><ele>284.25</ele><time>2026-05-01T10:46:08Z</time></trkpt><trkpt lat="43.54346729075309" lon="12.641021364978693"><ele>285.0</ele><time>2026-05-01T10:46:09Z</time></trkpt><trkpt lat="43.543370166878596" lon="12.640894909734435"><ele>285.0</ele><time>2026-05-01T10:46:10Z</time></trkpt><trkpt lat="43.54327465154561" lon="12.640754974335142"><ele>285.0</ele><time>2026-05-01T10:46:11Z</time></trkpt><trkpt lat="43.54317126533338" lon="12.640619080040093"><ele>285.0</ele><time>2026-05-01T10:46:12Z</time></trkpt><trkpt lat="43.54306304467905" lon="12.640511818332895"><ele>285.0</ele><time>2026-05-01T10:46:13Z</time></trkpt><trkpt lat="43.542949115288586" lon="12.640415974753289"><ele>283.25</ele><time>2026-05-01T10:46:14Z</time></trkpt><trkpt lat="43.5428290818874" lon="12.640302445661591"><ele>281.5</ele><time>2026-05-01T10:46:15Z</time></trkpt><trkpt lat="43.542711672926146" lon="12.640198487629736"><ele>279.75</ele><time>2026-05-01T10:46:16Z</time></trkpt><trkpt lat="43.5425705263491" lon="12.640091131246841"><ele>278.0</ele><time>2026-05-01T10:46:17Z</time></trkpt><trkpt lat="43.542420019253626" lon="12.639977301853616"><ele>278.0</ele><time>2026-05-01T10:46:18Z</time></trkpt><trkpt lat="43.54225250805781" lon="12.639863303810143"><ele>278.0</ele><time>2026-05-01T10:46:19Z</time></trkpt><trkpt lat="43.542068216846495" lon="12.63974312629903"><ele>278.0</ele><time>2026-05-01T10:46:20Z</time></trkpt><trkpt lat="43.54186662636844" lon="12.639603981661704"><ele>278.0</ele><time>2026-05-01T10:46:21Z</time></trkpt><trkpt lat="43.54166096301591" lon="12.639461185215318"><ele>278.0</ele><time>2026-05-01T10:46:22Z</time></trkpt><trkpt lat="43.54146097072114" lon="12.63933275559568"><ele>278.0</ele><time>2026-05-01T10:46:23Z</time></trkpt><trkpt lat="43.54126223179217" lon="12.639202459025704"><ele>278.0</ele><time>2026-05-01T10:46:24Z</time></trkpt><trkpt lat="43.54106453714508" lon="12.639068712690179"><ele>278.0</ele><time>2026-05-01T10:46:25Z</time></trkpt><trkpt lat="43.54087083563778" lon="12.638938104412555"><ele>279.6666666666667</ele><time>2026-05-01T10:46:26Z</time></trkpt><trkpt lat="43.54068185578539" lon="12.638810706660266"><ele>281.3333333333333</ele><time>2026-05-01T10:46:27Z</time></trkpt><trkpt lat="43.540497141127645" lon="12.63868757853828"><ele>283.0</ele><time>2026-05-01T10:46:28Z</time></trkpt><trkpt lat="43.540317527111206" lon="12.638571700323011"><ele>283.0</ele><time>2026-05-01T10:46:29Z</time></trkpt><trkpt lat="43.54014795490998" lon="12.638468500180357"><ele>283.0</ele><time>2026-05-01T10:46:30Z</time></trkpt><trkpt lat="43.539985417218226" lon="12.63837132498032"><ele>283.0</ele><time>2026-05-01T10:46:31Z</time></trkpt><trkpt lat="43.53981880450056" lon="12.638293212938615"><ele>283.0</ele><time>2026-05-01T10:46:32Z</time></trkpt><trkpt lat="43.53963919893833" lon="12.638241062326767"><ele>283.0</ele><time>2026-05-01T10:46:33Z</time></trkpt><trkpt lat="43.53945117615332" lon="12.63822345140052"><ele>283.0</ele><time>2026-05-01T10:46:34Z</time></trkpt><trkpt lat="43.539273507021875" lon="12.638188425568918"><ele>288.0</ele><time>2026-05-01T10:46:35Z</time></trkpt><trkpt lat="43.53912106155835" lon="12.638135101292102"><ele>293.0</ele><time>2026-05-01T10:46:36Z</time></trkpt><trkpt lat="43.53898628968428" lon="12.638045919168526"><ele>298.0</ele><time>2026-05-01T10:46:37Z</time></trkpt><trkpt lat="43.53886989266739" lon="12.637930995010898"><ele>292.5</ele><time>2026-05-01T10:46:38Z</time></trkpt><trkpt lat="43.53876241416862" lon="12.637770956348776"><ele>287.0</ele><time>2026-05-01T10:46:39Z</time></trkpt><trkpt lat="43.53869023513572" lon="12.637611748396676"><ele>281.5</ele><time>2026-05-01T10:46:40Z</time></trkpt><trkpt lat="43.538644644666626" lon="12.637436110247066"><ele>276.0</ele><time>2026-05-01T10:46:41Z</time></trkpt><trkpt lat="43.53861617819311" lon="12.637247959432832"><ele>277.25</ele><time>2026-05-01T10:46:42Z</time></trkpt><trkpt lat="43.53861280049451" lon="12.637057384213987"><ele>278.5</ele><time>2026-05-01T10:46:43Z</time></trkpt><trkpt lat="43.5386365847572" lon="12.636857563484648"><ele>279.75</ele><time>2026-05-01T10:46:44Z</time></trkpt><trkpt lat="43.538690600892565" lon="12.636672399302475"><ele>281.0</ele><time>2026-05-01T10:46:45Z</time></trkpt><trkpt lat="43.538772936964534" lon="12.636496558830776"><ele>281.0</ele><time>2026-05-01T10:46:46Z</time></trkpt><trkpt lat="43.53887928191085" lon="12.636300815209827"><ele>281.0</ele><time>2026-05-01T10:46:47Z</time></trkpt><trkpt lat="43.53899759153529" lon="12.636088880365005"><ele>281.0</ele><time>2026-05-01T10:46:48Z</time></trkpt><trkpt lat="43.53911446324349" lon="12.635875835276671"><ele>286.6666666666667</ele><time>2026-05-01T10:46:49Z</time></trkpt><trkpt lat="43.53922679110909" lon="12.635642847141481"><ele>292.3333333333333</ele><time>2026-05-01T10:46:50Z</time></trkpt><trkpt lat="43.539329979095605" lon="12.63539587097444"><ele>298.0</ele><time>2026-05-01T10:46:51Z</time></trkpt><trkpt lat="43.53943086542694" lon="12.635127235621145"><ele>294.0</ele><time>2026-05-01T10:46:52Z</time></trkpt><trkpt lat="43.53953603971671" lon="12.634833647894721"><ele>290.0</ele><time>2026-05-01T10:46:53Z</time></trkpt><trkpt lat="43.53964905317163" lon="12.634529146984175"><ele>294.5</ele><time>2026-05-01T10:46:54Z</time></trkpt><trkpt lat="43.539774682107065" lon="12.634243486358418"><ele>299.0</ele><time>2026-05-01T10:46:55Z</time></trkpt><trkpt lat="43.5399169423864" lon="12.633980655282139"><ele>299.0</ele><time>2026-05-01T10:46:56Z</time></trkpt><trkpt lat="43.540059593621116" lon="12.633720327644886"><ele>299.0</ele><time>2026-05-01T10:46:57.001Z</time></trkpt><trkpt lat="43.54018212647436" lon="12.633461244330675"><ele>307.5</ele><time>2026-05-01T10:46:58.001Z</time></trkpt><trkpt lat="43.54026803683749" lon="12.633172678047641"><ele>316.0</ele><time>2026-05-01T10:46:59.001Z</time></trkpt><trkpt lat="43.54035767461657" lon="12.632857234054164"><ele>306.66666666666663</ele><time>2026-05-01T10:47:00Z</time></trkpt><trkpt lat="43.54042922513902" lon="12.632548922670152"><ele>297.3333333333333</ele><time>2026-05-01T10:47:01Z</time></trkpt><trkpt lat="43.540501970033276" lon="12.632276835071476"><ele>288.0</ele><time>2026-05-01T10:47:02Z</time></trkpt><trkpt lat="43.540572595534556" lon="12.632052166051555"><ele>292.6666666666667</ele><time>2026-05-01T10:47:03Z</time></trkpt><trkpt lat="43.54066949407317" lon="12.631885748657318"><ele>297.33333333333337</ele><time>2026-05-01T10:47:04Z</time></trkpt><trkpt lat="43.54078606880959" lon="12.631703586257293"><ele>302.0</ele><time>2026-05-01T10:47:05Z</time></trkpt><trkpt lat="43.540902901166156" lon="12.631528372492644"><ele>302.0</ele><time>2026-05-01T10:47:06Z</time></trkpt><trkpt lat="43.54100606599242" lon="12.631349618542767"><ele>302.0</ele><time>2026-05-01T10:47:07Z</time></trkpt><trkpt lat="43.54112013083052" lon="12.63118073184692"><ele>302.0</ele><time>2026-05-01T10:47:08Z</time></trkpt><trkpt lat="43.54122950819375" lon="12.630997529137693"><ele>304.6666666666667</ele><time>2026-05-01T10:47:09Z</time></trkpt><trkpt lat="43.541372836963625" lon="12.630768175063803"><ele>307.3333333333333</ele><time>2026-05-01T10:47:10Z</time></trkpt><trkpt lat="43.54149168449804" lon="12.630512006954957"><ele>310.0</ele><time>2026-05-01T10:47:11Z</time></trkpt><trkpt lat="43.541615209257664" lon="12.630218817872136"><ele>310.0</ele><time>2026-05-01T10:47:12Z</time></trkpt><trkpt lat="43.541746044418176" lon="12.629895465163866"><ele>310.0</ele><time>2026-05-01T10:47:13Z</time></trkpt><trkpt lat="43.541871244782165" lon="12.629579626490214"><ele>320.5</ele><time>2026-05-01T10:47:14Z</time></trkpt><trkpt lat="43.541993819658124" lon="12.629270411045265"><ele>331.0</ele><time>2026-05-01T10:47:15Z</time></trkpt><trkpt lat="43.54210228661192" lon="12.628983417216604"><ele>323.3333333333333</ele><time>2026-05-01T10:47:16Z</time></trkpt><trkpt lat="43.54220411229084" lon="12.628742778229526"><ele>315.6666666666667</ele><time>2026-05-01T10:47:17Z</time></trkpt><trkpt lat="43.54230926852221" lon="12.62854009495461"><ele>308.0</ele><time>2026-05-01T10:47:18Z</time></trkpt><trkpt lat="43.5424401266173" lon="12.628369633363885"><ele>308.0</ele><time>2026-05-01T10:47:19Z</time></trkpt><trkpt lat="43.54261051239544" lon="12.628217820984835"><ele>308.0</ele><time>2026-05-01T10:47:20Z</time></trkpt><trkpt lat="43.54283376435691" lon="12.628075553243393"><ele>308.0</ele><time>2026-05-01T10:47:21Z</time></trkpt><trkpt lat="43.543059120182086" lon="12.627940200326702"><ele>312.0</ele><time>2026-05-01T10:47:22Z</time></trkpt><trkpt lat="43.543255501347495" lon="12.627838640191849"><ele>316.0</ele><time>2026-05-01T10:47:23Z</time></trkpt><trkpt lat="43.54344904307179" lon="12.62778454954639"><ele>320.0</ele><time>2026-05-01T10:47:24Z</time></trkpt><trkpt lat="43.54363493082335" lon="12.627797393367338"><ele>307.6666666666667</ele><time>2026-05-01T10:47:25Z</time></trkpt><trkpt lat="43.54383187924945" lon="12.627840516638273"><ele>295.3333333333333</ele><time>2026-05-01T10:47:26Z</time></trkpt><trkpt lat="43.5440060654199" lon="12.627871894378213"><ele>283.0</ele><time>2026-05-01T10:47:27Z</time></trkpt><trkpt lat="43.54415554656792" lon="12.627879591311023"><ele>285.66666666666663</ele><time>2026-05-01T10:47:28Z</time></trkpt><trkpt lat="43.54429237087197" lon="12.627806816774886"><ele>288.3333333333333</ele><time>2026-05-01T10:47:29Z</time></trkpt><trkpt lat="43.54443684531242" lon="12.627685415433087"><ele>291.0</ele><time>2026-05-01T10:47:30Z</time></trkpt><trkpt lat="43.544583985033" lon="12.62749356528757"><ele>291.0</ele><time>2026-05-01T10:47:31Z</time></trkpt><trkpt lat="43.54475003251016" lon="12.627285058314792"><ele>291.0</ele><time>2026-05-01T10:47:32Z</time></trkpt><trkpt lat="43.544920616528245" lon="12.627055063583413"><ele>298.5</ele><time>2026-05-01T10:47:33Z</time></trkpt><trkpt lat="43.54511399125274" lon="12.626852297292368"><ele>306.0</ele><time>2026-05-01T10:47:34Z</time></trkpt><trkpt lat="43.545327188744146" lon="12.626671080058077"><ele>298.0</ele><time>2026-05-01T10:47:35Z</time></trkpt><trkpt lat="43.54555407380345" lon="12.626490801160303"><ele>290.0</ele><time>2026-05-01T10:47:36Z</time></trkpt><trkpt lat="43.54578155762631" lon="12.626312157747032"><ele>292.5</ele><time>2026-05-01T10:47:37Z</time></trkpt><trkpt lat="43.546009446939124" lon="12.626143794354642"><ele>295.0</ele><time>2026-05-01T10:47:38Z</time></trkpt><trkpt lat="43.54623873440817" lon="12.625989388451591"><ele>295.0</ele><time>2026-05-01T10:47:39Z</time></trkpt><trkpt lat="43.546471318346725" lon="12.62585140800293"><ele>295.0</ele><time>2026-05-01T10:47:40Z</time></trkpt><trkpt lat="43.54672008792992" lon="12.625736813205812"><ele>295.0</ele><time>2026-05-01T10:47:41Z</time></trkpt><trkpt lat="43.546981846797266" lon="12.625646287088893"><ele>295.0</ele><time>2026-05-01T10:47:42Z</time></trkpt><trkpt lat="43.547254877168356" lon="12.62557628774682"><ele>291.5</ele><time>2026-05-01T10:47:43Z</time></trkpt><trkpt lat="43.54753329342168" lon="12.625512900687902"><ele>288.0</ele><time>2026-05-01T10:47:44Z</time></trkpt><trkpt lat="43.547810209187446" lon="12.62544879001091"><ele>287.5</ele><time>2026-05-01T10:47:45Z</time></trkpt><trkpt lat="43.54807428363628" lon="12.625383504496764"><ele>287.0</ele><time>2026-05-01T10:47:46Z</time></trkpt><trkpt lat="43.54831629622115" lon="12.625322706368168"><ele>291.0</ele><time>2026-05-01T10:47:47Z</time></trkpt><trkpt lat="43.548544900537" lon="12.625263529686896"><ele>295.0</ele><time>2026-05-01T10:47:48Z</time></trkpt><trkpt lat="43.5487553349158" lon="12.62520905683151"><ele>299.0</ele><time>2026-05-01T10:47:49Z</time></trkpt><trkpt lat="43.54894387179648" lon="12.625143765121226"><ele>299.0</ele><time>2026-05-01T10:47:50Z</time></trkpt><trkpt lat="43.54911539885769" lon="12.62509300575311"><ele>299.0</ele><time>2026-05-01T10:47:51Z</time></trkpt><trkpt lat="43.549262857993824" lon="12.625010325445901"><ele>299.0</ele><time>2026-05-01T10:47:52Z</time></trkpt><trkpt lat="43.54939344022984" lon="12.624886616568313"><ele>299.0</ele><time>2026-05-01T10:47:53Z</time></trkpt><trkpt lat="43.549504697533706" lon="12.62470630776066"><ele>299.0</ele><time>2026-05-01T10:47:54Z</time></trkpt><trkpt lat="43.54959748356361" lon="12.624497706150981"><ele>299.0</ele><time>2026-05-01T10:47:55Z</time></trkpt><trkpt lat="43.54966295210257" lon="12.624281244558441"><ele>298.33333333333337</ele><time>2026-05-01T10:47:56Z</time></trkpt><trkpt lat="43.54967625239056" lon="12.624065502789412"><ele>297.6666666666667</ele><time>2026-05-01T10:47:57Z</time></trkpt><trkpt lat="43.549651975159435" lon="12.623832968380023"><ele>297.0</ele><time>2026-05-01T10:47:58Z</time></trkpt><trkpt lat="43.54959116327259" lon="12.6235981803782"><ele>304.3333333333333</ele><time>2026-05-01T10:47:59Z</time></trkpt><trkpt lat="43.54949738402091" lon="12.623364522438427"><ele>311.66666666666663</ele><time>2026-05-01T10:48:00Z</time></trkpt><trkpt lat="43.54938774556052" lon="12.623123589554261"><ele>319.0</ele><time>2026-05-01T10:48:01Z</time></trkpt><trkpt lat="43.54927638910368" lon="12.622861039442036"><ele>312.5</ele><time>2026-05-01T10:48:02Z</time></trkpt><trkpt lat="43.54916027310242" lon="12.622579454143695"><ele>306.0</ele><time>2026-05-01T10:48:03Z</time></trkpt><trkpt lat="43.54904990515134" lon="12.62230382584274"><ele>306.0</ele><time>2026-05-01T10:48:04Z</time></trkpt><trkpt lat="43.54894353798434" lon="12.622058628022774"><ele>306.0</ele><time>2026-05-01T10:48:05Z</time></trkpt><trkpt lat="43.54882868152323" lon="12.621838687520377"><ele>306.0</ele><time>2026-05-01T10:48:06Z</time></trkpt><trkpt lat="43.54867824074258" lon="12.62165258232161"><ele>308.0</ele><time>2026-05-01T10:48:07Z</time></trkpt><trkpt lat="43.548496790349716" lon="12.621489716751094"><ele>310.0</ele><time>2026-05-01T10:48:08Z</time></trkpt><trkpt lat="43.548302780534" lon="12.621338805302798"><ele>312.0</ele><time>2026-05-01T10:48:09Z</time></trkpt><trkpt lat="43.54812264004416" lon="12.621194012288568"><ele>306.6666666666667</ele><time>2026-05-01T10:48:10Z</time></trkpt><trkpt lat="43.547968783254625" lon="12.621044583847306"><ele>301.33333333333337</ele><time>2026-05-01T10:48:11Z</time></trkpt><trkpt lat="43.54785812603287" lon="12.620886293707327"><ele>296.0</ele><time>2026-05-01T10:48:12Z</time></trkpt><trkpt lat="43.54780049442258" lon="12.620691194850092"><ele>304.6666666666667</ele><time>2026-05-01T10:48:13Z</time></trkpt><trkpt lat="43.54777261162381" lon="12.620462395921075"><ele>313.3333333333333</ele><time>2026-05-01T10:48:14Z</time></trkpt><trkpt lat="43.54775704775774" lon="12.620214703797496"><ele>322.0</ele><time>2026-05-01T10:48:15Z</time></trkpt><trkpt lat="43.5477432136427" lon="12.619941949104396"><ele>322.0</ele><time>2026-05-01T10:48:16Z</time></trkpt><trkpt lat="43.54773111642022" lon="12.619653986731233"><ele>322.0</ele><time>2026-05-01T10:48:17Z</time></trkpt><trkpt lat="43.54772652400522" lon="12.619367820904468"><ele>322.0</ele><time>2026-05-01T10:48:18Z</time></trkpt><trkpt lat="43.547749900405975" lon="12.619095662821055"><ele>320.66666666666663</ele><time>2026-05-01T10:48:19Z</time></trkpt><trkpt lat="43.54778882680497" lon="12.618829668911799"><ele>319.3333333333333</ele><time>2026-05-01T10:48:20Z</time></trkpt><trkpt lat="43.54784401616579" lon="12.618574909272636"><ele>318.0</ele><time>2026-05-01T10:48:21Z</time></trkpt><trkpt lat="43.54790998070411" lon="12.61834986913687"><ele>312.3333333333333</ele><time>2026-05-01T10:48:22Z</time></trkpt><trkpt lat="43.548002602266976" lon="12.618159309907346"><ele>306.66666666666663</ele><time>2026-05-01T10:48:23Z</time></trkpt><trkpt lat="43.54812294967378" lon="12.61800001721167"><ele>301.0</ele><time>2026-05-01T10:48:24Z</time></trkpt><trkpt lat="43.548275503198035" lon="12.61787749267568"><ele>300.66666666666663</ele><time>2026-05-01T10:48:25Z</time></trkpt><trkpt lat="43.54844445555514" lon="12.617779987964862"><ele>300.3333333333333</ele><time>2026-05-01T10:48:26Z</time></trkpt><trkpt lat="43.548614830931946" lon="12.617684427282027"><ele>300.0</ele><time>2026-05-01T10:48:27Z</time></trkpt><trkpt lat="43.54877000525294" lon="12.617590911177263"><ele>300.0</ele><time>2026-05-01T10:48:28Z</time></trkpt><trkpt lat="43.548897389580446" lon="12.617489296222885"><ele>300.0</ele><time>2026-05-01T10:48:29Z</time></trkpt><trkpt lat="43.549006080140295" lon="12.61739300608495"><ele>300.0</ele><time>2026-05-01T10:48:30Z</time></trkpt><trkpt lat="43.54907482501166" lon="12.617302207728825"><ele>300.0</ele><time>2026-05-01T10:48:31Z</time></trkpt><trkpt lat="43.54912708184066" lon="12.61719859373862"><ele>300.0</ele><time>2026-05-01T10:48:32Z</time></trkpt><trkpt lat="43.54916156791439" lon="12.617101938089284"><ele>300.0</ele><time>2026-05-01T10:48:33Z</time></trkpt><trkpt lat="43.549198363396286" lon="12.61700131912185"><ele>300.0</ele><time>2026-05-01T10:48:34Z</time></trkpt><trkpt lat="43.54923860763684" lon="12.616894599831204"><ele>300.0</ele><time>2026-05-01T10:48:35Z</time></trkpt><trkpt lat="43.549285386822355" lon="12.616790014131192"><ele>300.0</ele><time>2026-05-01T10:48:36Z</time></trkpt><trkpt lat="43.54933490219737" lon="12.616677848673726"><ele>300.0</ele><time>2026-05-01T10:48:37Z</time></trkpt><trkpt lat="43.549389884670084" lon="12.616562020102885"><ele>300.5</ele><time>2026-05-01T10:48:38Z</time></trkpt><trkpt lat="43.549446194962435" lon="12.616436623532922"><ele>301.0</ele><time>2026-05-01T10:48:39Z</time></trkpt><trkpt lat="43.54950542042844" lon="12.616306240573167"><ele>301.5</ele><time>2026-05-01T10:48:40Z</time></trkpt><trkpt lat="43.54957071090462" lon="12.616168872414876"><ele>302.0</ele><time>2026-05-01T10:48:41Z</time></trkpt><trkpt lat="43.54963684620529" lon="12.616025918555444"><ele>302.0</ele><time>2026-05-01T10:48:42Z</time></trkpt><trkpt lat="43.54970724369769" lon="12.61588598209456"><ele>302.0</ele><time>2026-05-01T10:48:43Z</time></trkpt><trkpt lat="43.54976754884476" lon="12.615733838745847"><ele>302.0</ele><time>2026-05-01T10:48:44Z</time></trkpt><trkpt lat="43.549826269585694" lon="12.615606632076044"><ele>302.0</ele><time>2026-05-01T10:48:45Z</time></trkpt><trkpt lat="43.549874791307545" lon="12.615486101112275"><ele>302.0</ele><time>2026-05-01T10:48:46Z</time></trkpt><trkpt lat="43.54991052672845" lon="12.615367407499646"><ele>302.0</ele><time>2026-05-01T10:48:47Z</time></trkpt><trkpt lat="43.54993735407995" lon="12.615246091478749"><ele>302.0</ele><time>2026-05-01T10:48:48Z</time></trkpt><trkpt lat="43.549962613774305" lon="12.615122977619087"><ele>302.0</ele><time>2026-05-01T10:48:49Z</time></trkpt><trkpt lat="43.54998088232084" lon="12.61498791512149"><ele>302.0</ele><time>2026-05-01T10:48:50Z</time></trkpt><trkpt lat="43.54998617573713" lon="12.614846783335265"><ele>302.75</ele><time>2026-05-01T10:48:51Z</time></trkpt><trkpt lat="43.54997983028873" lon="12.614700004976163"><ele>303.5</ele><time>2026-05-01T10:48:52Z</time></trkpt><trkpt lat="43.549957139130335" lon="12.614548582761575"><ele>304.25</ele><time>2026-05-01T10:48:53Z</time></trkpt><trkpt lat="43.5499332466544" lon="12.614392509003418"><ele>305.0</ele><time>2026-05-01T10:48:54Z</time></trkpt><trkpt lat="43.549905857678276" lon="12.6142296369649"><ele>307.0</ele><time>2026-05-01T10:48:55Z</time></trkpt><trkpt lat="43.54987693751293" lon="12.614056370297238"><ele>309.0</ele><time>2026-05-01T10:48:56Z</time></trkpt><trkpt lat="43.54986387796104" lon="12.613858558652387"><ele>311.0</ele><time>2026-05-01T10:48:57Z</time></trkpt><trkpt lat="43.5498285306605" lon="12.61367088227569"><ele>313.0</ele><time>2026-05-01T10:48:58Z</time></trkpt><trkpt lat="43.54979697396558" lon="12.613481230049976"><ele>315.25</ele><time>2026-05-01T10:48:59Z</time></trkpt><trkpt lat="43.54976703149096" lon="12.613297237134173"><ele>317.5</ele><time>2026-05-01T10:49:00Z</time></trkpt><trkpt lat="43.54974044411052" lon="12.613117033903732"><ele>319.75</ele><time>2026-05-01T10:49:01Z</time></trkpt><trkpt lat="43.54971591443874" lon="12.61293146916407"><ele>322.0</ele><time>2026-05-01T10:49:02Z</time></trkpt><trkpt lat="43.549686244036025" lon="12.612742043630272"><ele>323.75</ele><time>2026-05-01T10:49:03Z</time></trkpt><trkpt lat="43.54965020186254" lon="12.612550657832175"><ele>325.5</ele><time>2026-05-01T10:49:04Z</time></trkpt><trkpt lat="43.54960405885185" lon="12.612361022768287"><ele>327.25</ele><time>2026-05-01T10:49:05Z</time></trkpt><trkpt lat="43.5495467609654" lon="12.612173036668693"><ele>329.0</ele><time>2026-05-01T10:49:06Z</time></trkpt><trkpt lat="43.54947816345316" lon="12.611991714325882"><ele>324.0</ele><time>2026-05-01T10:49:07Z</time></trkpt><trkpt lat="43.5493955332056" lon="12.611814412373606"><ele>319.0</ele><time>2026-05-01T10:49:08Z</time></trkpt><trkpt lat="43.54930974660709" lon="12.611639200720912"><ele>314.0</ele><time>2026-05-01T10:49:09Z</time></trkpt><trkpt lat="43.54922155908067" lon="12.611457491598012"><ele>314.0</ele><time>2026-05-01T10:49:10Z</time></trkpt><trkpt lat="43.54913367956807" lon="12.611264819057698"><ele>314.0</ele><time>2026-05-01T10:49:11Z</time></trkpt><trkpt lat="43.549042259625125" lon="12.611070079531222"><ele>314.0</ele><time>2026-05-01T10:49:12Z</time></trkpt><trkpt lat="43.54894384986751" lon="12.610874690030057"><ele>314.25</ele><time>2026-05-01T10:49:13Z</time></trkpt><trkpt lat="43.54886764909248" lon="12.610685813970642"><ele>314.5</ele><time>2026-05-01T10:49:14Z</time></trkpt><trkpt lat="43.54878602253104" lon="12.610513332209544"><ele>314.75</ele><time>2026-05-01T10:49:15Z</time></trkpt><trkpt lat="43.548710384297586" lon="12.610355115298546"><ele>315.0</ele><time>2026-05-01T10:49:16Z</time></trkpt><trkpt lat="43.548641321672854" lon="12.610211822783"><ele>315.0</ele><time>2026-05-01T10:49:17Z</time></trkpt><trkpt lat="43.54850727125268" lon="12.609948185496386"><ele>315.0</ele><time>2026-05-01T10:49:18Z</time></trkpt><trkpt lat="43.548433232810986" lon="12.609765997846601"><ele>315.0</ele><time>2026-05-01T10:49:19Z</time></trkpt><trkpt lat="43.548389085814335" lon="12.609570101411094"><ele>317.0</ele><time>2026-05-01T10:49:20Z</time></trkpt><trkpt lat="43.54834712479744" lon="12.609371911104674"><ele>319.0</ele><time>2026-05-01T10:49:21Z</time></trkpt><trkpt lat="43.54831117593093" lon="12.609164454907654"><ele>321.0</ele><time>2026-05-01T10:49:22Z</time></trkpt><trkpt lat="43.54828539668251" lon="12.608955421404726"><ele>321.0</ele><time>2026-05-01T10:49:23Z</time></trkpt><trkpt lat="43.54827269353366" lon="12.608744048502773"><ele>321.0</ele><time>2026-05-01T10:49:24Z</time></trkpt><trkpt lat="43.5482779931503" lon="12.608535183916645"><ele>321.0</ele><time>2026-05-01T10:49:25Z</time></trkpt><trkpt lat="43.548300248130595" lon="12.60832689511767"><ele>321.3333333333333</ele><time>2026-05-01T10:49:26Z</time></trkpt><trkpt lat="43.548339002021194" lon="12.608108315305806"><ele>321.66666666666663</ele><time>2026-05-01T10:49:27Z</time></trkpt><trkpt lat="43.548380286153154" lon="12.607891353535639"><ele>322.0</ele><time>2026-05-01T10:49:28Z</time></trkpt><trkpt lat="43.54842298414921" lon="12.60767310663909"><ele>322.0</ele><time>2026-05-01T10:49:29Z</time></trkpt><trkpt lat="43.54846530665031" lon="12.607458995082828"><ele>322.0</ele><time>2026-05-01T10:49:30Z</time></trkpt><trkpt lat="43.54850684978864" lon="12.607260075881577"><ele>322.0</ele><time>2026-05-01T10:49:31Z</time></trkpt><trkpt lat="43.54854467174453" lon="12.607080882553518"><ele>322.0</ele><time>2026-05-01T10:49:32Z</time></trkpt><trkpt lat="43.548579336409965" lon="12.606914922976182"><ele>321.40000000000003</ele><time>2026-05-01T10:49:33Z</time></trkpt><trkpt lat="43.548607197014434" lon="12.606766912593102"><ele>320.8</ele><time>2026-05-01T10:49:34Z</time></trkpt><trkpt lat="43.548614131022624" lon="12.606621743923112"><ele>320.2</ele><time>2026-05-01T10:49:35Z</time></trkpt><trkpt lat="43.548614776558054" lon="12.60649450301999"><ele>319.6</ele><time>2026-05-01T10:49:36Z</time></trkpt><trkpt lat="43.548577808233034" lon="12.606385170043765"><ele>319.0</ele><time>2026-05-01T10:49:37Z</time></trkpt><trkpt lat="43.54851179109102" lon="12.606293258386442"><ele>319.0</ele><time>2026-05-01T10:49:38Z</time></trkpt><trkpt lat="43.54843195309859" lon="12.606231391085863"><ele>319.0</ele><time>2026-05-01T10:49:39Z</time></trkpt><trkpt lat="43.54834751365257" lon="12.60620810950847"><ele>319.0</ele><time>2026-05-01T10:49:40Z</time></trkpt><trkpt lat="43.548290808504916" lon="12.606152690170225"><ele>319.0</ele><time>2026-05-01T10:49:41Z</time></trkpt><trkpt lat="43.54821788502477" lon="12.606105087223222"><ele>319.0</ele><time>2026-05-01T10:49:42Z</time></trkpt><trkpt lat="43.548148597458095" lon="12.606028182908357"><ele>319.0</ele><time>2026-05-01T10:49:43Z</time></trkpt><trkpt lat="43.54806840843187" lon="12.605940587278477"><ele>318.5</ele><time>2026-05-01T10:49:44Z</time></trkpt><trkpt lat="43.54796597333015" lon="12.605848157802708"><ele>318.0</ele><time>2026-05-01T10:49:45Z</time></trkpt><trkpt lat="43.54786373098225" lon="12.605751899191748"><ele>317.5</ele><time>2026-05-01T10:49:46Z</time></trkpt><trkpt lat="43.547770927593575" lon="12.60564710192346"><ele>317.0</ele><time>2026-05-01T10:49:47Z</time></trkpt><trkpt lat="43.54767274101256" lon="12.605553381755847"><ele>317.0</ele><time>2026-05-01T10:49:48Z</time></trkpt><trkpt lat="43.54756749322172" lon="12.60547773779427"><ele>317.0</ele><time>2026-05-01T10:49:49Z</time></trkpt><trkpt lat="43.54745831180438" lon="12.605410706841237"><ele>317.0</ele><time>2026-05-01T10:49:50Z</time></trkpt><trkpt lat="43.54734824429162" lon="12.605350122998376"><ele>317.0</ele><time>2026-05-01T10:49:51Z</time></trkpt><trkpt lat="43.547238435636466" lon="12.605291591316814"><ele>317.6</ele><time>2026-05-01T10:49:52Z</time></trkpt><trkpt lat="43.547132141416974" lon="12.605243131354165"><ele>318.2</ele><time>2026-05-01T10:49:53Z</time></trkpt><trkpt lat="43.54703449076413" lon="12.605210710814532"><ele>318.8</ele><time>2026-05-01T10:49:54Z</time></trkpt><trkpt lat="43.546942189937965" lon="12.605187250461077"><ele>319.4</ele><time>2026-05-01T10:49:55Z</time></trkpt><trkpt lat="43.54686126836518" lon="12.605165870210424"><ele>320.0</ele><time>2026-05-01T10:49:56Z</time></trkpt><trkpt lat="43.546779901565564" lon="12.605158878753837"><ele>320.0</ele><time>2026-05-01T10:49:57Z</time></trkpt><trkpt lat="43.5467061138629" lon="12.605158027152106"><ele>320.0</ele><time>2026-05-01T10:49:58Z</time></trkpt><trkpt lat="43.54663010162021" lon="12.605160136940507"><ele>320.0</ele><time>2026-05-01T10:49:59Z</time></trkpt><trkpt lat="43.54654206481112" lon="12.605160625784645"><ele>320.0</ele><time>2026-05-01T10:50:00Z</time></trkpt><trkpt lat="43.54644782479261" lon="12.605166206744217"><ele>320.0</ele><time>2026-05-01T10:50:01Z</time></trkpt><trkpt lat="43.54635295756482" lon="12.605176847732647"><ele>320.0</ele><time>2026-05-01T10:50:02Z</time></trkpt><trkpt lat="43.546268059135286" lon="12.605193078656681"><ele>320.33333333333337</ele><time>2026-05-01T10:50:03Z</time></trkpt><trkpt lat="43.54618865570037" lon="12.605206003308716"><ele>320.6666666666667</ele><time>2026-05-01T10:50:04Z</time></trkpt><trkpt lat="43.546113145713576" lon="12.605211812748314"><ele>321.0</ele><time>2026-05-01T10:50:05Z</time></trkpt><trkpt lat="43.54603248382642" lon="12.605224718211387"><ele>321.3333333333333</ele><time>2026-05-01T10:50:06Z</time></trkpt><trkpt lat="43.545949001205926" lon="12.605236972938373"><ele>321.66666666666663</ele><time>2026-05-01T10:50:07Z</time></trkpt><trkpt lat="43.545857762229915" lon="12.605232946545541"><ele>322.0</ele><time>2026-05-01T10:50:08Z</time></trkpt><trkpt lat="43.54575950820149" lon="12.605189425966632"><ele>322.0</ele><time>2026-05-01T10:50:09Z</time></trkpt><trkpt lat="43.54566177439104" lon="12.605163276072973"><ele>322.0</ele><time>2026-05-01T10:50:10Z</time></trkpt><trkpt lat="43.54556367669249" lon="12.605143148803238"><ele>322.0</ele><time>2026-05-01T10:50:11Z</time></trkpt><trkpt lat="43.54545945867684" lon="12.605151729555264"><ele>322.0</ele><time>2026-05-01T10:50:12Z</time></trkpt><trkpt lat="43.54536393501666" lon="12.605119070549986"><ele>322.0</ele><time>2026-05-01T10:50:13Z</time></trkpt><trkpt lat="43.54526323413619" lon="12.605084417366172"><ele>322.25</ele><time>2026-05-01T10:50:14Z</time></trkpt><trkpt lat="43.545165011341105" lon="12.60505338739727"><ele>322.5</ele><time>2026-05-01T10:50:15Z</time></trkpt><trkpt lat="43.54505836544796" lon="12.605005907697963"><ele>322.75</ele><time>2026-05-01T10:50:16Z</time></trkpt><trkpt lat="43.54494537591486" lon="12.604953031812189"><ele>323.0</ele><time>2026-05-01T10:50:17Z</time></trkpt><trkpt lat="43.54482562167467" lon="12.60489699024024"><ele>323.0</ele><time>2026-05-01T10:50:18Z</time></trkpt><trkpt lat="43.54471068372514" lon="12.60484479415726"><ele>323.0</ele><time>2026-05-01T10:50:19Z</time></trkpt><trkpt lat="43.54457499315027" lon="12.604783592477157"><ele>323.0</ele><time>2026-05-01T10:50:20Z</time></trkpt><trkpt lat="43.54444609437555" lon="12.604725454156151"><ele>323.0</ele><time>2026-05-01T10:50:21Z</time></trkpt><trkpt lat="43.544311525731985" lon="12.604664758506207"><ele>323.0</ele><time>2026-05-01T10:50:22Z</time></trkpt><trkpt lat="43.544166739395834" lon="12.604598967654454"><ele>323.0</ele><time>2026-05-01T10:50:23Z</time></trkpt><trkpt lat="43.54402590865338" lon="12.604542222945504"><ele>323.0</ele><time>2026-05-01T10:50:24Z</time></trkpt><trkpt lat="43.543884117284506" lon="12.604470887934662"><ele>324.25</ele><time>2026-05-01T10:50:25Z</time></trkpt><trkpt lat="43.54374976923594" lon="12.604399447289559"><ele>325.5</ele><time>2026-05-01T10:50:26Z</time></trkpt><trkpt lat="43.543624909332465" lon="12.604324484183467"><ele>326.75</ele><time>2026-05-01T10:50:27Z</time></trkpt><trkpt lat="43.54351664430335" lon="12.604230351396033"><ele>328.0</ele><time>2026-05-01T10:50:28Z</time></trkpt><trkpt lat="43.54342256615833" lon="12.604156472701954"><ele>328.0</ele><time>2026-05-01T10:50:29Z</time></trkpt><trkpt lat="43.543328574417934" lon="12.604098580076704"><ele>328.0</ele><time>2026-05-01T10:50:30Z</time></trkpt><trkpt lat="43.543239224298965" lon="12.604013004029586"><ele>328.0</ele><time>2026-05-01T10:50:31Z</time></trkpt><trkpt lat="43.543147300819825" lon="12.6039124120747"><ele>328.0</ele><time>2026-05-01T10:50:32Z</time></trkpt><trkpt lat="43.54304440861619" lon="12.603805262639238"><ele>328.0</ele><time>2026-05-01T10:50:33Z</time></trkpt><trkpt lat="43.54293143898452" lon="12.603690434527632"><ele>328.0</ele><time>2026-05-01T10:50:34Z</time></trkpt><trkpt lat="43.54281128440322" lon="12.60356693448298"><ele>328.0</ele><time>2026-05-01T10:50:35Z</time></trkpt><trkpt lat="43.54267781250807" lon="12.603427522734636"><ele>328.66666666666663</ele><time>2026-05-01T10:50:36Z</time></trkpt><trkpt lat="43.54253133015919" lon="12.603284750697489"><ele>329.3333333333333</ele><time>2026-05-01T10:50:37Z</time></trkpt><trkpt lat="43.54238300308754" lon="12.6031394532434"><ele>330.0</ele><time>2026-05-01T10:50:38Z</time></trkpt><trkpt lat="43.542242902366134" lon="12.602985797438702"><ele>330.0</ele><time>2026-05-01T10:50:39Z</time></trkpt><trkpt lat="43.5420910190218" lon="12.602839775568228"><ele>330.0</ele><time>2026-05-01T10:50:40Z</time></trkpt><trkpt lat="43.54193341860009" lon="12.602686560506008"><ele>330.0</ele><time>2026-05-01T10:50:41Z</time></trkpt><trkpt lat="43.54177481673904" lon="12.602529997610034"><ele>332.6666666666667</ele><time>2026-05-01T10:50:42Z</time></trkpt><trkpt lat="43.54161255001515" lon="12.602368698200895"><ele>335.33333333333337</ele><time>2026-05-01T10:50:43Z</time></trkpt><trkpt lat="43.541451271188436" lon="12.602207339462565"><ele>338.0</ele><time>2026-05-01T10:50:44Z</time></trkpt><trkpt lat="43.541289810795234" lon="12.6020457285756"><ele>340.33333333333337</ele><time>2026-05-01T10:50:45Z</time></trkpt><trkpt lat="43.54114133171476" lon="12.601890927182644"><ele>342.6666666666667</ele><time>2026-05-01T10:50:46Z</time></trkpt><trkpt lat="43.54100094701738" lon="12.601755413539054"><ele>345.0</ele><time>2026-05-01T10:50:47Z</time></trkpt><trkpt lat="43.54084485357151" lon="12.60165080729185"><ele>345.0</ele><time>2026-05-01T10:50:48Z</time></trkpt><trkpt lat="43.54067723221866" lon="12.601593408920067"><ele>345.0</ele><time>2026-05-01T10:50:49Z</time></trkpt><trkpt lat="43.54050542383691" lon="12.601585025749763"><ele>345.0</ele><time>2026-05-01T10:50:50Z</time></trkpt><trkpt lat="43.54033011233994" lon="12.601622281063369"><ele>338.0</ele><time>2026-05-01T10:50:51Z</time></trkpt><trkpt lat="43.54016432626909" lon="12.601636805222242"><ele>331.0</ele><time>2026-05-01T10:50:52Z</time></trkpt><trkpt lat="43.540016457610456" lon="12.601547421202946"><ele>324.0</ele><time>2026-05-01T10:50:53Z</time></trkpt><trkpt lat="43.539865049692125" lon="12.601423135770236"><ele>324.0</ele><time>2026-05-01T10:50:54Z</time></trkpt><trkpt lat="43.53970237569618" lon="12.601297329300676"><ele>324.0</ele><time>2026-05-01T10:50:55Z</time></trkpt><trkpt lat="43.539539817242336" lon="12.601142073374218"><ele>324.0</ele><time>2026-05-01T10:50:56Z</time></trkpt><trkpt lat="43.539369871833564" lon="12.601001808206881"><ele>325.6666666666667</ele><time>2026-05-01T10:50:57Z</time></trkpt><trkpt lat="43.539196574413694" lon="12.600861517283604"><ele>327.33333333333337</ele><time>2026-05-01T10:50:58Z</time></trkpt><trkpt lat="43.539025878712195" lon="12.600718996582705"><ele>329.0</ele><time>2026-05-01T10:50:59Z</time></trkpt><trkpt lat="43.538850155027326" lon="12.60059040404676"><ele>330.0</ele><time>2026-05-01T10:51:00Z</time></trkpt><trkpt lat="43.53868228346935" lon="12.600441243679104"><ele>331.0</ele><time>2026-05-01T10:51:01Z</time></trkpt><trkpt lat="43.53852224400478" lon="12.60028751200725"><ele>332.0</ele><time>2026-05-01T10:51:02Z</time></trkpt><trkpt lat="43.53839447709165" lon="12.600091157826752"><ele>333.6666666666667</ele><time>2026-05-01T10:51:03Z</time></trkpt><trkpt lat="43.53826150909937" lon="12.59988659653181"><ele>335.3333333333333</ele><time>2026-05-01T10:51:04Z</time></trkpt><trkpt lat="43.53812173920365" lon="12.59968128369881"><ele>337.0</ele><time>2026-05-01T10:51:05Z</time></trkpt><trkpt lat="43.53800077375047" lon="12.599446354574276"><ele>334.0</ele><time>2026-05-01T10:51:06Z</time></trkpt><trkpt lat="43.53787423481085" lon="12.5992099888563"><ele>331.0</ele><time>2026-05-01T10:51:07Z</time></trkpt><trkpt lat="43.53774850243544" lon="12.598977005128544"><ele>328.0</ele><time>2026-05-01T10:51:08Z</time></trkpt><trkpt lat="43.537619492142476" lon="12.598754764561209"><ele>330.66666666666663</ele><time>2026-05-01T10:51:09Z</time></trkpt><trkpt lat="43.537480952993775" lon="12.598544479544396"><ele>333.3333333333333</ele><time>2026-05-01T10:51:10Z</time></trkpt><trkpt lat="43.53731518316678" lon="12.598350308750977"><ele>336.0</ele><time>2026-05-01T10:51:11Z</time></trkpt><trkpt lat="43.5371227756453" lon="12.598168545233765"><ele>333.0</ele><time>2026-05-01T10:51:12Z</time></trkpt><trkpt lat="43.53691025664415" lon="12.597995665851847"><ele>330.0</ele><time>2026-05-01T10:51:13Z</time></trkpt><trkpt lat="43.53669780941045" lon="12.597819588567713"><ele>339.5</ele><time>2026-05-01T10:51:14Z</time></trkpt><trkpt lat="43.53651646716714" lon="12.597581136196165"><ele>349.0</ele><time>2026-05-01T10:51:15Z</time></trkpt><trkpt lat="43.536328341729565" lon="12.597331367012702"><ele>346.0</ele><time>2026-05-01T10:51:16Z</time></trkpt><trkpt lat="43.53613064931845" lon="12.597080879686052"><ele>343.0</ele><time>2026-05-01T10:51:17Z</time></trkpt><trkpt lat="43.53595358020574" lon="12.59683324301895"><ele>343.0</ele><time>2026-05-01T10:51:18Z</time></trkpt><trkpt lat="43.53578144773559" lon="12.596611155409"><ele>343.0</ele><time>2026-05-01T10:51:19Z</time></trkpt><trkpt lat="43.53561165892383" lon="12.596430185431299"><ele>343.0</ele><time>2026-05-01T10:51:20Z</time></trkpt><trkpt lat="43.535423253239856" lon="12.596281192107067"><ele>343.0</ele><time>2026-05-01T10:51:21Z</time></trkpt><trkpt lat="43.53519604635543" lon="12.596174200022801"><ele>349.5</ele><time>2026-05-01T10:51:22Z</time></trkpt><trkpt lat="43.53495954319761" lon="12.596065092958831"><ele>356.0</ele><time>2026-05-01T10:51:23Z</time></trkpt><trkpt lat="43.53471537638847" lon="12.595949055752406"><ele>348.0</ele><time>2026-05-01T10:51:24Z</time></trkpt><trkpt lat="43.53446780786575" lon="12.595813841661464"><ele>340.0</ele><time>2026-05-01T10:51:25Z</time></trkpt><trkpt lat="43.53424221258889" lon="12.595681134642454"><ele>340.0</ele><time>2026-05-01T10:51:26Z</time></trkpt><trkpt lat="43.53403595451538" lon="12.595559062858403"><ele>340.0</ele><time>2026-05-01T10:51:27Z</time></trkpt><trkpt lat="43.53384114142129" lon="12.595449868658536"><ele>340.0</ele><time>2026-05-01T10:51:28Z</time></trkpt><trkpt lat="43.533662825333465" lon="12.595360677836416"><ele>339.3333333333333</ele><time>2026-05-01T10:51:29Z</time></trkpt><trkpt lat="43.53349652635486" lon="12.595305762820422"><ele>338.6666666666667</ele><time>2026-05-01T10:51:30Z</time></trkpt><trkpt lat="43.53332631035719" lon="12.59529894012253"><ele>338.0</ele><time>2026-05-01T10:51:31Z</time></trkpt><trkpt lat="43.53313655157102" lon="12.595363852982956"><ele>338.0</ele><time>2026-05-01T10:51:32Z</time></trkpt><trkpt lat="43.53293230062554" lon="12.59549891185777"><ele>338.0</ele><time>2026-05-01T10:51:33Z</time></trkpt><trkpt lat="43.53271428522457" lon="12.595646803053558"><ele>340.6666666666667</ele><time>2026-05-01T10:51:34Z</time></trkpt><trkpt lat="43.53250601616089" lon="12.595773522444691"><ele>343.3333333333333</ele><time>2026-05-01T10:51:35Z</time></trkpt><trkpt lat="43.53231922540092" lon="12.59587363585867"><ele>346.0</ele><time>2026-05-01T10:51:36Z</time></trkpt><trkpt lat="43.53213277069005" lon="12.595955614472619"><ele>348.0</ele><time>2026-05-01T10:51:37Z</time></trkpt><trkpt lat="43.53193582697337" lon="12.596009233191632"><ele>350.0</ele><time>2026-05-01T10:51:38Z</time></trkpt><trkpt lat="43.53171485911848" lon="12.596034472333871"><ele>352.0</ele><time>2026-05-01T10:51:39Z</time></trkpt><trkpt lat="43.531481667152164" lon="12.596046507936974"><ele>352.0</ele><time>2026-05-01T10:51:40Z</time></trkpt><trkpt lat="43.53123401288832" lon="12.596053017462738"><ele>352.0</ele><time>2026-05-01T10:51:41Z</time></trkpt><trkpt lat="43.5309978345204" lon="12.596063079971634"><ele>353.3333333333333</ele><time>2026-05-01T10:51:42Z</time></trkpt><trkpt lat="43.530784522751894" lon="12.596065785876414"><ele>354.6666666666667</ele><time>2026-05-01T10:51:43Z</time></trkpt><trkpt lat="43.53059010539407" lon="12.596041988719422"><ele>356.0</ele><time>2026-05-01T10:51:44Z</time></trkpt><trkpt lat="43.53039421249072" lon="12.595986090118306"><ele>352.0</ele><time>2026-05-01T10:51:45Z</time></trkpt><trkpt lat="43.53019051841356" lon="12.595887518740899"><ele>348.0</ele><time>2026-05-01T10:51:46Z</time></trkpt><trkpt lat="43.52998715548058" lon="12.595742355051723"><ele>344.0</ele><time>2026-05-01T10:51:47Z</time></trkpt><trkpt lat="43.52979974268898" lon="12.595576543070617"><ele>344.0</ele><time>2026-05-01T10:51:48Z</time></trkpt><trkpt lat="43.529630390060454" lon="12.595400467391944"><ele>344.0</ele><time>2026-05-01T10:51:49Z</time></trkpt><trkpt lat="43.529481405095744" lon="12.595180242505403"><ele>344.0</ele><time>2026-05-01T10:51:50Z</time></trkpt><trkpt lat="43.529354135166344" lon="12.594912777941827"><ele>346.5</ele><time>2026-05-01T10:51:51Z</time></trkpt><trkpt lat="43.529227288106426" lon="12.594637260705086"><ele>349.0</ele><time>2026-05-01T10:51:52Z</time></trkpt><trkpt lat="43.529110132174694" lon="12.594365409489493"><ele>352.66666666666663</ele><time>2026-05-01T10:51:53Z</time></trkpt><trkpt lat="43.529014380791736" lon="12.594116822215488"><ele>356.3333333333333</ele><time>2026-05-01T10:51:54Z</time></trkpt><trkpt lat="43.528943493060616" lon="12.593874251649723"><ele>360.0</ele><time>2026-05-01T10:51:55Z</time></trkpt><trkpt lat="43.528878690553825" lon="12.593633175449488"><ele>363.3333333333333</ele><time>2026-05-01T10:51:56Z</time></trkpt><trkpt lat="43.52885458530182" lon="12.593370530861792"><ele>366.66666666666663</ele><time>2026-05-01T10:51:57Z</time></trkpt><trkpt lat="43.528876914021765" lon="12.59309381454357"><ele>370.0</ele><time>2026-05-01T10:51:58Z</time></trkpt><trkpt lat="43.528938162439765" lon="12.592810425310851"><ele>371.0</ele><time>2026-05-01T10:51:59Z</time></trkpt><trkpt lat="43.52902385497786" lon="12.592537997994931"><ele>372.0</ele><time>2026-05-01T10:52:00Z</time></trkpt><trkpt lat="43.52911982843776" lon="12.592294078628765"><ele>373.0</ele><time>2026-05-01T10:52:01Z</time></trkpt><trkpt lat="43.529199213441544" lon="12.592073445469229"><ele>369.0</ele><time>2026-05-01T10:52:02Z</time></trkpt><trkpt lat="43.52923532236917" lon="12.591857479732026"><ele>365.0</ele><time>2026-05-01T10:52:03Z</time></trkpt><trkpt lat="43.52920665049763" lon="12.591658439010393"><ele>361.0</ele><time>2026-05-01T10:52:04Z</time></trkpt><trkpt lat="43.52912818070105" lon="12.591461144155572"><ele>361.0</ele><time>2026-05-01T10:52:05Z</time></trkpt><trkpt lat="43.52900710529166" lon="12.591272023211026"><ele>361.0</ele><time>2026-05-01T10:52:06Z</time></trkpt><trkpt lat="43.528855891682355" lon="12.591141719855207"><ele>361.0</ele><time>2026-05-01T10:52:07Z</time></trkpt><trkpt lat="43.52868671204651" lon="12.591067007787828"><ele>358.5</ele><time>2026-05-01T10:52:08Z</time></trkpt><trkpt lat="43.528540244612174" lon="12.59108611568935"><ele>356.0</ele><time>2026-05-01T10:52:09Z</time></trkpt><trkpt lat="43.52846956192802" lon="12.591073496226619"><ele>353.5</ele><time>2026-05-01T10:52:10Z</time></trkpt><trkpt lat="43.52830929127863" lon="12.591060386485793"><ele>351.0</ele><time>2026-05-01T10:52:11Z</time></trkpt><trkpt lat="43.528120146570366" lon="12.591045946768837"><ele>351.0</ele><time>2026-05-01T10:52:12Z</time></trkpt><trkpt lat="43.52794308406008" lon="12.591026718384429"><ele>351.0</ele><time>2026-05-01T10:52:13Z</time></trkpt><trkpt lat="43.527774227884166" lon="12.590991596701285"><ele>351.0</ele><time>2026-05-01T10:52:14Z</time></trkpt><trkpt lat="43.52762030704953" lon="12.590905984704936"><ele>350.3333333333333</ele><time>2026-05-01T10:52:15Z</time></trkpt><trkpt lat="43.52746726550668" lon="12.59080262382855"><ele>349.66666666666663</ele><time>2026-05-01T10:52:16Z</time></trkpt><trkpt lat="43.527330759189134" lon="12.590654395800017"><ele>349.0</ele><time>2026-05-01T10:52:17Z</time></trkpt><trkpt lat="43.52722942874052" lon="12.590569324376853"><ele>349.0</ele><time>2026-05-01T10:52:18Z</time></trkpt><trkpt lat="43.52711516702279" lon="12.590400770381896"><ele>349.0</ele><time>2026-05-01T10:52:19Z</time></trkpt><trkpt lat="43.52701362835801" lon="12.590206119419365"><ele>349.0</ele><time>2026-05-01T10:52:20Z</time></trkpt><trkpt lat="43.526931569230555" lon="12.58999812504782"><ele>349.66666666666663</ele><time>2026-05-01T10:52:21Z</time></trkpt><trkpt lat="43.52687996692779" lon="12.589750868270263"><ele>350.3333333333333</ele><time>2026-05-01T10:52:22Z</time></trkpt><trkpt lat="43.52682920482331" lon="12.589479033272013"><ele>351.0</ele><time>2026-05-01T10:52:23Z</time></trkpt><trkpt lat="43.52677807343934" lon="12.589186974426115"><ele>354.5</ele><time>2026-05-01T10:52:24Z</time></trkpt><trkpt lat="43.526720354969086" lon="12.588879503894821"><ele>358.0</ele><time>2026-05-01T10:52:25Z</time></trkpt><trkpt lat="43.526660546481644" lon="12.588575638302137"><ele>361.3333333333333</ele><time>2026-05-01T10:52:26Z</time></trkpt><trkpt lat="43.52659724394936" lon="12.588286883528552"><ele>364.6666666666667</ele><time>2026-05-01T10:52:27Z</time></trkpt><trkpt lat="43.52652100831544" lon="12.588009531409218"><ele>368.0</ele><time>2026-05-01T10:52:28Z</time></trkpt><trkpt lat="43.52641403528481" lon="12.587749746364844"><ele>365.6666666666667</ele><time>2026-05-01T10:52:29Z</time></trkpt><trkpt lat="43.52629845714093" lon="12.587513081306149"><ele>363.3333333333333</ele><time>2026-05-01T10:52:30Z</time></trkpt><trkpt lat="43.52619505327885" lon="12.587291521631617"><ele>361.0</ele><time>2026-05-01T10:52:31Z</time></trkpt><trkpt lat="43.52610495183144" lon="12.587111849338141"><ele>359.75</ele><time>2026-05-01T10:52:32Z</time></trkpt><trkpt lat="43.52603829264785" lon="12.586954220866062"><ele>358.5</ele><time>2026-05-01T10:52:33Z</time></trkpt><trkpt lat="43.52600204523914" lon="12.586794668728118"><ele>357.25</ele><time>2026-05-01T10:52:34Z</time></trkpt><trkpt lat="43.52602515301016" lon="12.586628967705924"><ele>356.0</ele><time>2026-05-01T10:52:35Z</time></trkpt><trkpt lat="43.52611654790316" lon="12.586480121370652"><ele>358.6666666666667</ele><time>2026-05-01T10:52:36Z</time></trkpt><trkpt lat="43.52626028901058" lon="12.586360416096229"><ele>361.3333333333333</ele><time>2026-05-01T10:52:37Z</time></trkpt><trkpt lat="43.52641827356781" lon="12.586255843997327"><ele>364.0</ele><time>2026-05-01T10:52:38Z</time></trkpt><trkpt lat="43.52657464149628" lon="12.586136855133288"><ele>364.0</ele><time>2026-05-01T10:52:39Z</time></trkpt><trkpt lat="43.5267033019739" lon="12.5860106222714"><ele>364.0</ele><time>2026-05-01T10:52:40Z</time></trkpt><trkpt lat="43.52680396828355" lon="12.585879119753148"><ele>364.0</ele><time>2026-05-01T10:52:41Z</time></trkpt><trkpt lat="43.526824883193086" lon="12.585704769601275"><ele>364.0</ele><time>2026-05-01T10:52:42Z</time></trkpt><trkpt lat="43.52680527829589" lon="12.58550955687472"><ele>364.0</ele><time>2026-05-01T10:52:43Z</time></trkpt><trkpt lat="43.52675192967638" lon="12.585306015923804"><ele>364.0</ele><time>2026-05-01T10:52:44Z</time></trkpt><trkpt lat="43.52664950132289" lon="12.585104633109854"><ele>364.0</ele><time>2026-05-01T10:52:45Z</time></trkpt><trkpt lat="43.52654269195607" lon="12.58491093280301"><ele>364.0</ele><time>2026-05-01T10:52:46Z</time></trkpt><trkpt lat="43.526461304061826" lon="12.584754010580024"><ele>364.0</ele><time>2026-05-01T10:52:47Z</time></trkpt><trkpt lat="43.52640058713684" lon="12.584621716815414"><ele>364.0</ele><time>2026-05-01T10:52:48Z</time></trkpt><trkpt lat="43.526380078106094" lon="12.584480634495419"><ele>364.0</ele><time>2026-05-01T10:52:49Z</time></trkpt><trkpt lat="43.52642650856483" lon="12.584340129729158"><ele>362.75</ele><time>2026-05-01T10:52:50Z</time></trkpt><trkpt lat="43.52653739882108" lon="12.584247275911867"><ele>361.5</ele><time>2026-05-01T10:52:51Z</time></trkpt><trkpt lat="43.52668119467384" lon="12.584312309470722"><ele>360.25</ele><time>2026-05-01T10:52:52Z</time></trkpt><trkpt lat="43.52682700142234" lon="12.58430542788886"><ele>359.0</ele><time>2026-05-01T10:52:53Z</time></trkpt><trkpt lat="43.52697652565656" lon="12.584263143973182"><ele>367.0</ele><time>2026-05-01T10:52:54Z</time></trkpt><trkpt lat="43.527121471253885" lon="12.58419761890368"><ele>375.0</ele><time>2026-05-01T10:52:55Z</time></trkpt><trkpt lat="43.52723546834494" lon="12.584068251649743"><ele>383.0</ele><time>2026-05-01T10:52:56Z</time></trkpt><trkpt lat="43.527320661679646" lon="12.583919724964169"><ele>391.0</ele><time>2026-05-01T10:52:57Z</time></trkpt><trkpt lat="43.52736366816243" lon="12.583749893710294"><ele>386.75</ele><time>2026-05-01T10:52:58Z</time></trkpt><trkpt lat="43.52738268690916" lon="12.583579111050968"><ele>382.5</ele><time>2026-05-01T10:52:59Z</time></trkpt><trkpt lat="43.527380430974695" lon="12.583409451194205"><ele>378.25</ele><time>2026-05-01T10:53:00Z</time></trkpt><trkpt lat="43.52734826278683" lon="12.583232432782578"><ele>374.0</ele><time>2026-05-01T10:53:01Z</time></trkpt><trkpt lat="43.52729117226713" lon="12.583036803692927"><ele>376.6666666666667</ele><time>2026-05-01T10:53:02Z</time></trkpt><trkpt lat="43.527211850966374" lon="12.582831138790016"><ele>379.3333333333333</ele><time>2026-05-01T10:53:03Z</time></trkpt><trkpt lat="43.52713122484915" lon="12.582576107797331"><ele>382.0</ele><time>2026-05-01T10:53:04Z</time></trkpt><trkpt lat="43.52705711228566" lon="12.582298608859995"><ele>376.0</ele><time>2026-05-01T10:53:05Z</time></trkpt><trkpt lat="43.52694930679246" lon="12.582018189720676"><ele>370.0</ele><time>2026-05-01T10:53:06.001Z</time></trkpt><trkpt lat="43.5268713856275" lon="12.58171496207317"><ele>370.0</ele><time>2026-05-01T10:53:07.001Z</time></trkpt><trkpt lat="43.52677601016844" lon="12.58141315229875"><ele>370.0</ele><time>2026-05-01T10:53:08.001Z</time></trkpt><trkpt lat="43.52668211743839" lon="12.581113490615738"><ele>375.0</ele><time>2026-05-01T10:53:09.001Z</time></trkpt><trkpt lat="43.526578185746594" lon="12.580845282154208"><ele>380.0</ele><time>2026-05-01T10:53:10.001Z</time></trkpt><trkpt lat="43.526511131279754" lon="12.580587903744265"><ele>385.0</ele><time>2026-05-01T10:53:11.001Z</time></trkpt><trkpt lat="43.52641585375872" lon="12.580374135843842"><ele>382.25</ele><time>2026-05-01T10:53:12.001Z</time></trkpt><trkpt lat="43.52633540906019" lon="12.58019991191186"><ele>379.5</ele><time>2026-05-01T10:53:13.001Z</time></trkpt><trkpt lat="43.526246535346196" lon="12.580041004597726"><ele>376.75</ele><time>2026-05-01T10:53:14.001Z</time></trkpt><trkpt lat="43.52614263310573" lon="12.579911004170317"><ele>374.0</ele><time>2026-05-01T10:53:15.001Z</time></trkpt><trkpt lat="43.52600530918809" lon="12.579803411595414"><ele>374.0</ele><time>2026-05-01T10:53:16.001Z</time></trkpt><trkpt lat="43.525832874275395" lon="12.579721436831944"><ele>374.0</ele><time>2026-05-01T10:53:17.001Z</time></trkpt><trkpt lat="43.525656776972156" lon="12.579634838583914"><ele>374.0</ele><time>2026-05-01T10:53:18Z</time></trkpt><trkpt lat="43.52547793818467" lon="12.579541286868487"><ele>381.33333333333337</ele><time>2026-05-01T10:53:19Z</time></trkpt><trkpt lat="43.52530332214515" lon="12.579458312694483"><ele>388.6666666666667</ele><time>2026-05-01T10:53:20Z</time></trkpt><trkpt lat="43.52513866581509" lon="12.579432380441963"><ele>396.0</ele><time>2026-05-01T10:53:21Z</time></trkpt><trkpt lat="43.52499417337872" lon="12.5794165442726"><ele>396.0</ele><time>2026-05-01T10:53:22Z</time></trkpt><trkpt lat="43.524872995176885" lon="12.57940025546727"><ele>396.0</ele><time>2026-05-01T10:53:23Z</time></trkpt><trkpt lat="43.52474944974297" lon="12.579413807366935"><ele>396.0</ele><time>2026-05-01T10:53:24Z</time></trkpt><trkpt lat="43.52465588938749" lon="12.57936906069766"><ele>396.0</ele><time>2026-05-01T10:53:25Z</time></trkpt><trkpt lat="43.524583516251504" lon="12.579263526516497"><ele>387.0</ele><time>2026-05-01T10:53:26Z</time></trkpt><trkpt lat="43.52454114415896" lon="12.579088784643796"><ele>378.0</ele><time>2026-05-01T10:53:27Z</time></trkpt><trkpt lat="43.52446138275904" lon="12.578903103898403"><ele>369.0</ele><time>2026-05-01T10:53:28Z</time></trkpt><trkpt lat="43.524365826450904" lon="12.578706231026276"><ele>378.33333333333337</ele><time>2026-05-01T10:53:29Z</time></trkpt><trkpt lat="43.52423711658238" lon="12.578535260965017"><ele>387.6666666666667</ele><time>2026-05-01T10:53:30Z</time></trkpt><trkpt lat="43.5240956206262" lon="12.578396341232038"><ele>397.0</ele><time>2026-05-01T10:53:31Z</time></trkpt><trkpt lat="43.52396477645793" lon="12.57829122985333"><ele>397.0</ele><time>2026-05-01T10:53:32Z</time></trkpt><trkpt lat="43.52384938255174" lon="12.578188231121217"><ele>397.0</ele><time>2026-05-01T10:53:33Z</time></trkpt><trkpt lat="43.523754124913005" lon="12.578038572831352"><ele>397.0</ele><time>2026-05-01T10:53:34Z</time></trkpt><trkpt lat="43.52367678100655" lon="12.57785555981454"><ele>397.0</ele><time>2026-05-01T10:53:35Z</time></trkpt><trkpt lat="43.52360956030448" lon="12.577638496404168"><ele>392.33333333333337</ele><time>2026-05-01T10:53:36Z</time></trkpt><trkpt lat="43.52352967752663" lon="12.577392668652038"><ele>387.6666666666667</ele><time>2026-05-01T10:53:37Z</time></trkpt><trkpt lat="43.52347045326184" lon="12.57714075551632"><ele>383.0</ele><time>2026-05-01T10:53:38Z</time></trkpt><trkpt lat="43.523460214972935" lon="12.576879131059874"><ele>383.0</ele><time>2026-05-01T10:53:39Z</time></trkpt><trkpt lat="43.5234650607462" lon="12.576610867907181"><ele>383.0</ele><time>2026-05-01T10:53:40Z</time></trkpt><trkpt lat="43.52348349164828" lon="12.576316247134981"><ele>383.0</ele><time>2026-05-01T10:53:41Z</time></trkpt><trkpt lat="43.52351694950396" lon="12.576020458057826"><ele>383.33333333333337</ele><time>2026-05-01T10:53:42Z</time></trkpt><trkpt lat="43.5235635238212" lon="12.575720592374887"><ele>383.6666666666667</ele><time>2026-05-01T10:53:43Z</time></trkpt><trkpt lat="43.523622453710686" lon="12.575437680971469"><ele>384.0</ele><time>2026-05-01T10:53:44Z</time></trkpt><trkpt lat="43.52366953560335" lon="12.575190752336002"><ele>382.75</ele><time>2026-05-01T10:53:45Z</time></trkpt><trkpt lat="43.5237230722072" lon="12.574988262882739"><ele>381.5</ele><time>2026-05-01T10:53:46Z</time></trkpt><trkpt lat="43.52375811769067" lon="12.574798029573177"><ele>380.25</ele><time>2026-05-01T10:53:47Z</time></trkpt><trkpt lat="43.523751086506046" lon="12.574602444291749"><ele>379.0</ele><time>2026-05-01T10:53:48Z</time></trkpt><trkpt lat="43.52371460217975" lon="12.5743689985563"><ele>379.0</ele><time>2026-05-01T10:53:49Z</time></trkpt><trkpt lat="43.52364341952477" lon="12.574138849899168"><ele>379.0</ele><time>2026-05-01T10:53:50Z</time></trkpt><trkpt lat="43.5235688053864" lon="12.573912307434611"><ele>379.0</ele><time>2026-05-01T10:53:51Z</time></trkpt><trkpt lat="43.52348517455756" lon="12.57372448315691"><ele>389.3333333333333</ele><time>2026-05-01T10:53:52Z</time></trkpt><trkpt lat="43.52338720879336" lon="12.573569873625958"><ele>399.66666666666663</ele><time>2026-05-01T10:53:53Z</time></trkpt><trkpt lat="43.52324817376034" lon="12.573453818007236"><ele>410.0</ele><time>2026-05-01T10:53:54Z</time></trkpt><trkpt lat="43.523068096413375" lon="12.573393452074802"><ele>401.3333333333333</ele><time>2026-05-01T10:53:55Z</time></trkpt><trkpt lat="43.52287373983166" lon="12.573370212237931"><ele>392.66666666666663</ele><time>2026-05-01T10:53:56Z</time></trkpt><trkpt lat="43.522660268580864" lon="12.573373342442407"><ele>384.0</ele><time>2026-05-01T10:53:57Z</time></trkpt><trkpt lat="43.52243285506475" lon="12.573348091002314"><ele>384.0</ele><time>2026-05-01T10:53:58Z</time></trkpt><trkpt lat="43.52223267359398" lon="12.573330417454516"><ele>384.0</ele><time>2026-05-01T10:53:59Z</time></trkpt><trkpt lat="43.52205621901399" lon="12.573280907544438"><ele>384.0</ele><time>2026-05-01T10:54:00Z</time></trkpt><trkpt lat="43.52189949090227" lon="12.573195981081199"><ele>382.3333333333333</ele><time>2026-05-01T10:54:01Z</time></trkpt><trkpt lat="43.52176522961612" lon="12.573060662899788"><ele>380.66666666666663</ele><time>2026-05-01T10:54:02Z</time></trkpt><trkpt lat="43.521619365704936" lon="12.572941580583603"><ele>379.0</ele><time>2026-05-01T10:54:03Z</time></trkpt><trkpt lat="43.521496389328945" lon="12.572828532054126"><ele>379.66666666666663</ele><time>2026-05-01T10:54:04Z</time></trkpt><trkpt lat="43.52133881079223" lon="12.572795275682793"><ele>380.3333333333333</ele><time>2026-05-01T10:54:05Z</time></trkpt><trkpt lat="43.52114614441301" lon="12.572824135848286"><ele>381.0</ele><time>2026-05-01T10:54:06Z</time></trkpt><trkpt lat="43.520977234211735" lon="12.572870651491955"><ele>386.25</ele><time>2026-05-01T10:54:07Z</time></trkpt><trkpt lat="43.52083338925899" lon="12.572854285451417"><ele>391.5</ele><time>2026-05-01T10:54:08Z</time></trkpt><trkpt lat="43.52071012088212" lon="12.57278268843608"><ele>396.75</ele><time>2026-05-01T10:54:09Z</time></trkpt><trkpt lat="43.52056653634744" lon="12.572666404257983"><ele>402.0</ele><time>2026-05-01T10:54:10Z</time></trkpt><trkpt lat="43.520412833723746" lon="12.572509869905566"><ele>390.5</ele><time>2026-05-01T10:54:11Z</time></trkpt><trkpt lat="43.52023068908883" lon="12.57234774738474"><ele>379.0</ele><time>2026-05-01T10:54:12Z</time></trkpt><trkpt lat="43.52004045969291" lon="12.572161705518715"><ele>395.5</ele><time>2026-05-01T10:54:13Z</time></trkpt><trkpt lat="43.51982359653416" lon="12.572000674303835"><ele>412.0</ele><time>2026-05-01T10:54:14Z</time></trkpt><trkpt lat="43.519595108364776" lon="12.571853140783979"><ele>404.0</ele><time>2026-05-01T10:54:15Z</time></trkpt><trkpt lat="43.51938981413726" lon="12.57171511280397"><ele>396.0</ele><time>2026-05-01T10:54:16Z</time></trkpt><trkpt lat="43.51920526259721" lon="12.57159337093462"><ele>388.0</ele><time>2026-05-01T10:54:17Z</time></trkpt><trkpt lat="43.51904234257195" lon="12.571484174406026"><ele>388.0</ele><time>2026-05-01T10:54:18Z</time></trkpt><trkpt lat="43.51890117283837" lon="12.571385158299801"><ele>388.0</ele><time>2026-05-01T10:54:19Z</time></trkpt><trkpt lat="43.518773328948114" lon="12.571273561739012"><ele>388.0</ele><time>2026-05-01T10:54:20Z</time></trkpt><trkpt lat="43.51867758764271" lon="12.571106938225364"><ele>385.33333333333337</ele><time>2026-05-01T10:54:21Z</time></trkpt><trkpt lat="43.518588316028094" lon="12.57092161664297"><ele>382.6666666666667</ele><time>2026-05-01T10:54:22Z</time></trkpt><trkpt lat="43.51854206410913" lon="12.570703340335212"><ele>380.0</ele><time>2026-05-01T10:54:23Z</time></trkpt><trkpt lat="43.5185240176737" lon="12.570464027005816"><ele>382.0</ele><time>2026-05-01T10:54:24Z</time></trkpt><trkpt lat="43.5185242686369" lon="12.570212166730776"><ele>384.0</ele><time>2026-05-01T10:54:25Z</time></trkpt><trkpt lat="43.518518404543556" lon="12.569976454519669"><ele>386.0</ele><time>2026-05-01T10:54:26Z</time></trkpt><trkpt lat="43.518501734740894" lon="12.569773884765368"><ele>386.0</ele><time>2026-05-01T10:54:27Z</time></trkpt><trkpt lat="43.51844958733315" lon="12.56959086803623"><ele>386.0</ele><time>2026-05-01T10:54:28Z</time></trkpt><trkpt lat="43.518366499782374" lon="12.569441520978396"><ele>386.0</ele><time>2026-05-01T10:54:29Z</time></trkpt><trkpt lat="43.518261982435035" lon="12.569327671736298"><ele>386.0</ele><time>2026-05-01T10:54:30Z</time></trkpt><trkpt lat="43.51814558700913" lon="12.569231806077228"><ele>386.3333333333333</ele><time>2026-05-01T10:54:31Z</time></trkpt><trkpt lat="43.518005945012824" lon="12.569156049589246"><ele>386.66666666666663</ele><time>2026-05-01T10:54:32Z</time></trkpt><trkpt lat="43.517836244091896" lon="12.56910172219625"><ele>387.0</ele><time>2026-05-01T10:54:33Z</time></trkpt><trkpt lat="43.51765526069539" lon="12.569042955455334"><ele>387.0</ele><time>2026-05-01T10:54:34Z</time></trkpt><trkpt lat="43.517455155719155" lon="12.568982038572038"><ele>387.0</ele><time>2026-05-01T10:54:35Z</time></trkpt><trkpt lat="43.517277815842625" lon="12.568955397266459"><ele>387.0</ele><time>2026-05-01T10:54:36Z</time></trkpt><trkpt lat="43.517122185614376" lon="12.568941608854592"><ele>386.0</ele><time>2026-05-01T10:54:37Z</time></trkpt><trkpt lat="43.51698626290925" lon="12.568924443710605"><ele>385.0</ele><time>2026-05-01T10:54:38Z</time></trkpt><trkpt lat="43.51687723825285" lon="12.568832467924796"><ele>384.0</ele><time>2026-05-01T10:54:39Z</time></trkpt><trkpt lat="43.51680310758698" lon="12.568705572507113"><ele>383.0</ele><time>2026-05-01T10:54:40Z</time></trkpt><trkpt lat="43.51676197644192" lon="12.568519058522371"><ele>386.6666666666667</ele><time>2026-05-01T10:54:41Z</time></trkpt><trkpt lat="43.51669015221978" lon="12.568322542668524"><ele>390.33333333333337</ele><time>2026-05-01T10:54:42Z</time></trkpt><trkpt lat="43.51662653108363" lon="12.568109075081116"><ele>394.0</ele><time>2026-05-01T10:54:43Z</time></trkpt><trkpt lat="43.516499008161894" lon="12.567904841361546"><ele>391.33333333333337</ele><time>2026-05-01T10:54:44Z</time></trkpt><trkpt lat="43.51635679061669" lon="12.567736847069902"><ele>388.66666666666663</ele><time>2026-05-01T10:54:45Z</time></trkpt><trkpt lat="43.516212111274235" lon="12.567605285896033"><ele>386.0</ele><time>2026-05-01T10:54:46Z</time></trkpt><trkpt lat="43.51605497391271" lon="12.567505111740854"><ele>386.0</ele><time>2026-05-01T10:54:47Z</time></trkpt><trkpt lat="43.51587613954787" lon="12.567436002402435"><ele>386.0</ele><time>2026-05-01T10:54:48Z</time></trkpt><trkpt lat="43.51566477867149" lon="12.56740796011347"><ele>386.0</ele><time>2026-05-01T10:54:49Z</time></trkpt><trkpt lat="43.51543317427252" lon="12.567392781375021"><ele>385.0</ele><time>2026-05-01T10:54:50Z</time></trkpt><trkpt lat="43.51517112239737" lon="12.567377288365888"><ele>384.0</ele><time>2026-05-01T10:54:51Z</time></trkpt><trkpt lat="43.514922645231565" lon="12.567356475820556"><ele>384.0</ele><time>2026-05-01T10:54:52Z</time></trkpt><trkpt lat="43.514722892020544" lon="12.567330896415415"><ele>384.0</ele><time>2026-05-01T10:54:53Z</time></trkpt><trkpt lat="43.514566715376006" lon="12.567313994398164"><ele>384.0</ele><time>2026-05-01T10:54:54Z</time></trkpt><trkpt lat="43.51444342171853" lon="12.567284019490065"><ele>383.25</ele><time>2026-05-01T10:54:55Z</time></trkpt><trkpt lat="43.51435988798738" lon="12.567206516897848"><ele>382.5</ele><time>2026-05-01T10:54:56Z</time></trkpt><trkpt lat="43.514299222876474" lon="12.567073262875356"><ele>381.75</ele><time>2026-05-01T10:54:57Z</time></trkpt><trkpt lat="43.5142938938474" lon="12.56691906161688"><ele>381.0</ele><time>2026-05-01T10:54:58Z</time></trkpt><trkpt lat="43.51434006929292" lon="12.566745972035894"><ele>381.0</ele><time>2026-05-01T10:54:59Z</time></trkpt><trkpt lat="43.51437323142378" lon="12.566546999211516"><ele>381.0</ele><time>2026-05-01T10:55:00Z</time></trkpt><trkpt lat="43.51439147654261" lon="12.566342633355633"><ele>381.0</ele><time>2026-05-01T10:55:01Z</time></trkpt><trkpt lat="43.51443627760072" lon="12.566160070343397"><ele>381.0</ele><time>2026-05-01T10:55:02Z</time></trkpt><trkpt lat="43.514457617961334" lon="12.566011589008163"><ele>382.0</ele><time>2026-05-01T10:55:03Z</time></trkpt><trkpt lat="43.514462897955994" lon="12.56585164861331"><ele>383.0</ele><time>2026-05-01T10:55:04Z</time></trkpt><trkpt lat="43.5144733668606" lon="12.565707277078639"><ele>384.0</ele><time>2026-05-01T10:55:05Z</time></trkpt><trkpt lat="43.51444701801366" lon="12.565552821800814"><ele>385.0</ele><time>2026-05-01T10:55:06Z</time></trkpt><trkpt lat="43.51437581354214" lon="12.565397173086282"><ele>385.6666666666667</ele><time>2026-05-01T10:55:07Z</time></trkpt><trkpt lat="43.514268166817715" lon="12.565245515564946"><ele>386.33333333333337</ele><time>2026-05-01T10:55:08Z</time></trkpt><trkpt lat="43.514145791218" lon="12.56508607909325"><ele>387.0</ele><time>2026-05-01T10:55:09Z</time></trkpt><trkpt lat="43.51401871007953" lon="12.564916763062724"><ele>387.0</ele><time>2026-05-01T10:55:10Z</time></trkpt><trkpt lat="43.51390030578293" lon="12.56474699819913"><ele>387.0</ele><time>2026-05-01T10:55:11Z</time></trkpt><trkpt lat="43.51378048878513" lon="12.564578235477292"><ele>387.0</ele><time>2026-05-01T10:55:12Z</time></trkpt><trkpt lat="43.51366610694828" lon="12.564401433741624"><ele>388.33333333333337</ele><time>2026-05-01T10:55:13Z</time></trkpt><trkpt lat="43.51355020143878" lon="12.56423142132769"><ele>389.6666666666667</ele><time>2026-05-01T10:55:14Z</time></trkpt><trkpt lat="43.513441944242985" lon="12.564067313158679"><ele>391.0</ele><time>2026-05-01T10:55:15Z</time></trkpt><trkpt lat="43.51334740109329" lon="12.563914814240347"><ele>391.0</ele><time>2026-05-01T10:55:16Z</time></trkpt><trkpt lat="43.51326582408738" lon="12.563773447565437"><ele>391.0</ele><time>2026-05-01T10:55:17Z</time></trkpt><trkpt lat="43.51322630891467" lon="12.563608184334887"><ele>391.0</ele><time>2026-05-01T10:55:18.001Z</time></trkpt><trkpt lat="43.51320334734358" lon="12.563443980456578"><ele>391.0</ele><time>2026-05-01T10:55:19.001Z</time></trkpt><trkpt lat="43.51317810608492" lon="12.563256444660311"><ele>391.0</ele><time>2026-05-01T10:55:20.001Z</time></trkpt><trkpt lat="43.513144872137325" lon="12.5630781060262"><ele>391.0</ele><time>2026-05-01T10:55:21.001Z</time></trkpt><trkpt lat="43.51309449596893" lon="12.562908905600434"><ele>391.0</ele><time>2026-05-01T10:55:22.001Z</time></trkpt><trkpt lat="43.513026927997835" lon="12.562752623779566"><ele>391.0</ele><time>2026-05-01T10:55:23.001Z</time></trkpt><trkpt lat="43.51291094629821" lon="12.56264155767209"><ele>392.6666666666667</ele><time>2026-05-01T10:55:24Z</time></trkpt><trkpt lat="43.51270936778598" lon="12.562606447583953"><ele>394.33333333333337</ele><time>2026-05-01T10:55:25Z</time></trkpt><trkpt lat="43.512537233703426" lon="12.562497544858138"><ele>396.0</ele><time>2026-05-01T10:55:26Z</time></trkpt><trkpt lat="43.51238087587168" lon="12.5623322679258"><ele>396.0</ele><time>2026-05-01T10:55:27Z</time></trkpt><trkpt lat="43.512227109928965" lon="12.562106941102007"><ele>396.0</ele><time>2026-05-01T10:55:28Z</time></trkpt><trkpt lat="43.51210348420908" lon="12.561873400231827"><ele>396.0</ele><time>2026-05-01T10:55:29Z</time></trkpt><trkpt lat="43.511997739615026" lon="12.561665337324191"><ele>399.66666666666663</ele><time>2026-05-01T10:55:30Z</time></trkpt><trkpt lat="43.5119184300671" lon="12.561474116520674"><ele>403.3333333333333</ele><time>2026-05-01T10:55:31Z</time></trkpt><trkpt lat="43.51186749289528" lon="12.561276887012909"><ele>407.0</ele><time>2026-05-01T10:55:32Z</time></trkpt><trkpt lat="43.511851596205986" lon="12.56105601623356"><ele>407.0</ele><time>2026-05-01T10:55:33Z</time></trkpt><trkpt lat="43.51187020858739" lon="12.56082279810812"><ele>407.0</ele><time>2026-05-01T10:55:34Z</time></trkpt><trkpt lat="43.51191858511093" lon="12.560598047147781"><ele>407.0</ele><time>2026-05-01T10:55:35Z</time></trkpt><trkpt lat="43.51200235791485" lon="12.560354634705647"><ele>401.3333333333333</ele><time>2026-05-01T10:55:36Z</time></trkpt><trkpt lat="43.512083641766864" lon="12.560086708441913"><ele>395.66666666666663</ele><time>2026-05-01T10:55:37Z</time></trkpt><trkpt lat="43.51217794009093" lon="12.559836716414175"><ele>390.0</ele><time>2026-05-01T10:55:38Z</time></trkpt><trkpt lat="43.51225582123933" lon="12.559619259945062"><ele>392.66666666666663</ele><time>2026-05-01T10:55:39Z</time></trkpt><trkpt lat="43.51232129143017" lon="12.559414577568834"><ele>395.3333333333333</ele><time>2026-05-01T10:55:40Z</time></trkpt><trkpt lat="43.51238697152957" lon="12.559225129124625"><ele>398.0</ele><time>2026-05-01T10:55:41Z</time></trkpt><trkpt lat="43.51244927273055" lon="12.559051623135513"><ele>398.0</ele><time>2026-05-01T10:55:42Z</time></trkpt><trkpt lat="43.51250154621468" lon="12.55889292996803"><ele>398.0</ele><time>2026-05-01T10:55:43Z</time></trkpt><trkpt lat="43.512552747071496" lon="12.558740190416845"><ele>398.0</ele><time>2026-05-01T10:55:44Z</time></trkpt><trkpt lat="43.51260267770546" lon="12.55858792563488"><ele>398.0</ele><time>2026-05-01T10:55:45Z</time></trkpt><trkpt lat="43.51263519643375" lon="12.558429837354852"><ele>398.0</ele><time>2026-05-01T10:55:46Z</time></trkpt><trkpt lat="43.51263681902727" lon="12.558259309185349"><ele>398.0</ele><time>2026-05-01T10:55:47Z</time></trkpt><trkpt lat="43.512610440385416" lon="12.558078490632505"><ele>398.0</ele><time>2026-05-01T10:55:48Z</time></trkpt><trkpt lat="43.512576411902806" lon="12.5578917114203"><ele>398.0</ele><time>2026-05-01T10:55:49Z</time></trkpt><trkpt lat="43.51252231459017" lon="12.557695043676123"><ele>398.0</ele><time>2026-05-01T10:55:50Z</time></trkpt><trkpt lat="43.512468243336784" lon="12.557485990638762"><ele>398.0</ele><time>2026-05-01T10:55:51Z</time></trkpt><trkpt lat="43.512414889489165" lon="12.55727109725934"><ele>398.0</ele><time>2026-05-01T10:55:52Z</time></trkpt><trkpt lat="43.5123635692396" lon="12.557050514967287"><ele>397.66666666666663</ele><time>2026-05-01T10:55:53Z</time></trkpt><trkpt lat="43.51231015411259" lon="12.556841019424466"><ele>397.33333333333337</ele><time>2026-05-01T10:55:54Z</time></trkpt><trkpt lat="43.51225775395028" lon="12.556640353134705"><ele>397.0</ele><time>2026-05-01T10:55:55Z</time></trkpt><trkpt lat="43.512220182992245" lon="12.5564413180336"><ele>397.0</ele><time>2026-05-01T10:55:56Z</time></trkpt><trkpt lat="43.51221982714558" lon="12.55624510903066"><ele>397.0</ele><time>2026-05-01T10:55:57Z</time></trkpt><trkpt lat="43.51223245605631" lon="12.556058834627741"><ele>397.0</ele><time>2026-05-01T10:55:58Z</time></trkpt><trkpt lat="43.512258564889706" lon="12.555882474822178"><ele>397.0</ele><time>2026-05-01T10:55:59Z</time></trkpt><trkpt lat="43.512265368555425" lon="12.555718253113666"><ele>396.8</ele><time>2026-05-01T10:56:00Z</time></trkpt><trkpt lat="43.512293853642454" lon="12.555563737533472"><ele>396.6</ele><time>2026-05-01T10:56:01Z</time></trkpt><trkpt lat="43.512311081197865" lon="12.555420615178122"><ele>396.40000000000003</ele><time>2026-05-01T10:56:02Z</time></trkpt><trkpt lat="43.51232960953085" lon="12.555275651168037"><ele>396.20000000000005</ele><time>2026-05-01T10:56:03Z</time></trkpt><trkpt lat="43.51235204284706" lon="12.555134028288247"><ele>396.0</ele><time>2026-05-01T10:56:04Z</time></trkpt><trkpt lat="43.51237485334525" lon="12.554993607702576"><ele>395.8</ele><time>2026-05-01T10:56:05Z</time></trkpt><trkpt lat="43.512392090510914" lon="12.554852668809815"><ele>395.6</ele><time>2026-05-01T10:56:06Z</time></trkpt><trkpt lat="43.51240733539428" lon="12.554709594450244"><ele>395.4</ele><time>2026-05-01T10:56:07Z</time></trkpt><trkpt lat="43.51241639604271" lon="12.554571786500519"><ele>395.2</ele><time>2026-05-01T10:56:08Z</time></trkpt><trkpt lat="43.512404061069304" lon="12.554431520317674"><ele>395.0</ele><time>2026-05-01T10:56:09Z</time></trkpt><trkpt lat="43.51237843639758" lon="12.554290797997853"><ele>395.5</ele><time>2026-05-01T10:56:10Z</time></trkpt><trkpt lat="43.512332741326105" lon="12.554147506744291"><ele>396.0</ele><time>2026-05-01T10:56:11Z</time></trkpt><trkpt lat="43.51227615495257" lon="12.554013694418996"><ele>396.5</ele><time>2026-05-01T10:56:12Z</time></trkpt><trkpt lat="43.51221609675499" lon="12.553872473689058"><ele>397.0</ele><time>2026-05-01T10:56:13Z</time></trkpt><trkpt lat="43.51215724775571" lon="12.553725826187833"><ele>396.25</ele><time>2026-05-01T10:56:14Z</time></trkpt><trkpt lat="43.512092884088126" lon="12.553573750457582"><ele>395.5</ele><time>2026-05-01T10:56:15Z</time></trkpt><trkpt lat="43.512024818975874" lon="12.553414228995116"><ele>394.75</ele><time>2026-05-01T10:56:16Z</time></trkpt><trkpt lat="43.511958868613995" lon="12.553246368412413"><ele>394.0</ele><time>2026-05-01T10:56:17Z</time></trkpt><trkpt lat="43.511888551012945" lon="12.553073630580377"><ele>396.0</ele><time>2026-05-01T10:56:18Z</time></trkpt><trkpt lat="43.51181660977728" lon="12.552892433678464"><ele>398.0</ele><time>2026-05-01T10:56:19Z</time></trkpt><trkpt lat="43.511745317149106" lon="12.552708202106084"><ele>400.0</ele><time>2026-05-01T10:56:20Z</time></trkpt><trkpt lat="43.51166476512307" lon="12.552522218943603"><ele>400.0</ele><time>2026-05-01T10:56:21Z</time></trkpt><trkpt lat="43.51158812095486" lon="12.552329842862537"><ele>400.0</ele><time>2026-05-01T10:56:22Z</time></trkpt><trkpt lat="43.51150835719029" lon="12.55214666169858"><ele>400.0</ele><time>2026-05-01T10:56:23Z</time></trkpt><trkpt lat="43.511445461382465" lon="12.551994951364966"><ele>400.0</ele><time>2026-05-01T10:56:24Z</time></trkpt><trkpt lat="43.51137208752894" lon="12.551828276325754"><ele>398.75</ele><time>2026-05-01T10:56:25Z</time></trkpt><trkpt lat="43.5113022408787" lon="12.55169479765651"><ele>397.5</ele><time>2026-05-01T10:56:26Z</time></trkpt><trkpt lat="43.511231405516405" lon="12.551573676698712"><ele>396.25</ele><time>2026-05-01T10:56:27Z</time></trkpt><trkpt lat="43.51116361121198" lon="12.551452548884258"><ele>395.0</ele><time>2026-05-01T10:56:28Z</time></trkpt><trkpt lat="43.511096391025966" lon="12.551330371353773"><ele>396.5</ele><time>2026-05-01T10:56:29Z</time></trkpt><trkpt lat="43.51102467319335" lon="12.551207197413447"><ele>398.0</ele><time>2026-05-01T10:56:30Z</time></trkpt><trkpt lat="43.510951466271685" lon="12.551081233686567"><ele>399.5</ele><time>2026-05-01T10:56:31Z</time></trkpt><trkpt lat="43.510882761662565" lon="12.550946833075752"><ele>401.0</ele><time>2026-05-01T10:56:32Z</time></trkpt><trkpt lat="43.51084170306954" lon="12.550786072630572"><ele>401.0</ele><time>2026-05-01T10:56:33Z</time></trkpt><trkpt lat="43.51079190619282" lon="12.550623397495706"><ele>401.0</ele><time>2026-05-01T10:56:34Z</time></trkpt><trkpt lat="43.510739846525375" lon="12.550461072773157"><ele>401.0</ele><time>2026-05-01T10:56:35Z</time></trkpt><trkpt lat="43.51069426985175" lon="12.550284049331712"><ele>401.0</ele><time>2026-05-01T10:56:36Z</time></trkpt><trkpt lat="43.510645752629124" lon="12.550110786136006"><ele>400.75</ele><time>2026-05-01T10:56:37Z</time></trkpt><trkpt lat="43.51060536608297" lon="12.549923373228705"><ele>400.5</ele><time>2026-05-01T10:56:38Z</time></trkpt><trkpt lat="43.51056294882669" lon="12.549742216676322"><ele>400.25</ele><time>2026-05-01T10:56:39Z</time></trkpt><trkpt lat="43.510519379344736" lon="12.549555648029385"><ele>400.0</ele><time>2026-05-01T10:56:40Z</time></trkpt><trkpt lat="43.51046565882286" lon="12.549368686399573"><ele>402.25</ele><time>2026-05-01T10:56:41Z</time></trkpt><trkpt lat="43.51040624523736" lon="12.549183029023494"><ele>404.5</ele><time>2026-05-01T10:56:42Z</time></trkpt><trkpt lat="43.51036721456025" lon="12.54899587689131"><ele>406.75</ele><time>2026-05-01T10:56:43Z</time></trkpt><trkpt lat="43.51031471805437" lon="12.548788049992691"><ele>409.0</ele><time>2026-05-01T10:56:44Z</time></trkpt><trkpt lat="43.51026083730331" lon="12.54857510573285"><ele>409.0</ele><time>2026-05-01T10:56:45Z</time></trkpt><trkpt lat="43.510202103497235" lon="12.548353146460238"><ele>409.0</ele><time>2026-05-01T10:56:46Z</time></trkpt><trkpt lat="43.51014450658816" lon="12.548117576942177"><ele>409.0</ele><time>2026-05-01T10:56:47Z</time></trkpt><trkpt lat="43.51007155443577" lon="12.547861606001927"><ele>408.6666666666667</ele><time>2026-05-01T10:56:48Z</time></trkpt><trkpt lat="43.51001431915375" lon="12.547591373278207"><ele>408.33333333333337</ele><time>2026-05-01T10:56:49Z</time></trkpt><trkpt lat="43.50995099387327" lon="12.547322223741281"><ele>408.0</ele><time>2026-05-01T10:56:50Z</time></trkpt><trkpt lat="43.50990502899737" lon="12.547013449846004"><ele>406.0</ele><time>2026-05-01T10:56:51Z</time></trkpt><trkpt lat="43.50979694911199" lon="12.546702975809763"><ele>404.0</ele><time>2026-05-01T10:56:52Z</time></trkpt><trkpt lat="43.50971752149987" lon="12.54636321786488"><ele>404.0</ele><time>2026-05-01T10:56:53Z</time></trkpt><trkpt lat="43.50966279429439" lon="12.546118153715108"><ele>404.0</ele><time>2026-05-01T10:56:54Z</time></trkpt><trkpt lat="43.509616490809826" lon="12.545872948712635"><ele>404.0</ele><time>2026-05-01T10:56:55Z</time></trkpt><trkpt lat="43.509575061439264" lon="12.545626878719316"><ele>410.66666666666663</ele><time>2026-05-01T10:56:56Z</time></trkpt><trkpt lat="43.50951677952948" lon="12.545316437106669"><ele>417.33333333333337</ele><time>2026-05-01T10:56:57Z</time></trkpt><trkpt lat="43.509474347727554" lon="12.545082240302714"><ele>424.0</ele><time>2026-05-01T10:56:58Z</time></trkpt><trkpt lat="43.50940538194475" lon="12.544844137008878"><ele>424.0</ele><time>2026-05-01T10:56:59Z</time></trkpt><trkpt lat="43.50930533914908" lon="12.544616129922009"><ele>424.0</ele><time>2026-05-01T10:57:00Z</time></trkpt><trkpt lat="43.50919067529686" lon="12.544384450939702"><ele>424.0</ele><time>2026-05-01T10:57:01Z</time></trkpt><trkpt lat="43.50905016861893" lon="12.544161010422588"><ele>416.5</ele><time>2026-05-01T10:57:02Z</time></trkpt><trkpt lat="43.508908147889706" lon="12.54391804432196"><ele>409.0</ele><time>2026-05-01T10:57:03Z</time></trkpt><trkpt lat="43.50876797119695" lon="12.543661332958298"><ele>412.5</ele><time>2026-05-01T10:57:04Z</time></trkpt><trkpt lat="43.50862424955774" lon="12.543396805020615"><ele>416.0</ele><time>2026-05-01T10:57:05Z</time></trkpt><trkpt lat="43.508478086971145" lon="12.54311752528606"><ele>412.5</ele><time>2026-05-01T10:57:06Z</time></trkpt><trkpt lat="43.508325700688665" lon="12.542842589417639"><ele>409.0</ele><time>2026-05-01T10:57:07Z</time></trkpt><trkpt lat="43.50817955848744" lon="12.542562393059171"><ele>409.0</ele><time>2026-05-01T10:57:08Z</time></trkpt><trkpt lat="43.50803638517305" lon="12.542288551900803"><ele>409.0</ele><time>2026-05-01T10:57:09Z</time></trkpt><trkpt lat="43.507894043929106" lon="12.542012835257385"><ele>415.0</ele><time>2026-05-01T10:57:10Z</time></trkpt><trkpt lat="43.507755997407344" lon="12.541747600074062"><ele>421.0</ele><time>2026-05-01T10:57:11Z</time></trkpt><trkpt lat="43.507619083066025" lon="12.541484471782475"><ele>421.0</ele><time>2026-05-01T10:57:12Z</time></trkpt><trkpt lat="43.507480539717584" lon="12.541217869153776"><ele>421.0</ele><time>2026-05-01T10:57:13Z</time></trkpt><trkpt lat="43.50731964219218" lon="12.540958860379769"><ele>418.5</ele><time>2026-05-01T10:57:14Z</time></trkpt><trkpt lat="43.50714623084103" lon="12.54071676353996"><ele>416.0</ele><time>2026-05-01T10:57:15Z</time></trkpt><trkpt lat="43.506962837725915" lon="12.540473869431626"><ele>417.5</ele><time>2026-05-01T10:57:16Z</time></trkpt><trkpt lat="43.506782012369456" lon="12.540220863251882"><ele>419.0</ele><time>2026-05-01T10:57:17Z</time></trkpt><trkpt lat="43.50659470291037" lon="12.53996633090618"><ele>419.0</ele><time>2026-05-01T10:57:18Z</time></trkpt><trkpt lat="43.506430626756575" lon="12.539729206987678"><ele>419.0</ele><time>2026-05-01T10:57:19Z</time></trkpt><trkpt lat="43.50628143400733" lon="12.539505399339406"><ele>423.3333333333333</ele><time>2026-05-01T10:57:20Z</time></trkpt><trkpt lat="43.50617164021712" lon="12.539261701756654"><ele>427.66666666666663</ele><time>2026-05-01T10:57:21Z</time></trkpt><trkpt lat="43.50609439753701" lon="12.53899900013807"><ele>432.0</ele><time>2026-05-01T10:57:22Z</time></trkpt><trkpt lat="43.50604498526222" lon="12.538724029471775"><ele>430.66666666666663</ele><time>2026-05-01T10:57:23Z</time></trkpt><trkpt lat="43.50599896912944" lon="12.538447821729513"><ele>429.3333333333333</ele><time>2026-05-01T10:57:24Z</time></trkpt><trkpt lat="43.50594241801504" lon="12.538168078955394"><ele>428.0</ele><time>2026-05-01T10:57:25Z</time></trkpt><trkpt lat="43.50589960235994" lon="12.537872897167166"><ele>427.3333333333333</ele><time>2026-05-01T10:57:26Z</time></trkpt><trkpt lat="43.5058485836709" lon="12.537578840501592"><ele>426.66666666666663</ele><time>2026-05-01T10:57:27Z</time></trkpt><trkpt lat="43.50579630107161" lon="12.537292595367333"><ele>426.0</ele><time>2026-05-01T10:57:28Z</time></trkpt><trkpt lat="43.50574464830686" lon="12.537011518035602"><ele>426.0</ele><time>2026-05-01T10:57:29Z</time></trkpt><trkpt lat="43.50569588288641" lon="12.536743021286973"><ele>426.0</ele><time>2026-05-01T10:57:30Z</time></trkpt><trkpt lat="43.505649248374596" lon="12.536494436786112"><ele>426.0</ele><time>2026-05-01T10:57:31Z</time></trkpt><trkpt lat="43.505606477761035" lon="12.53626514099925"><ele>425.33333333333337</ele><time>2026-05-01T10:57:32Z</time></trkpt><trkpt lat="43.50556294375774" lon="12.536048131146948"><ele>424.6666666666667</ele><time>2026-05-01T10:57:33Z</time></trkpt><trkpt lat="43.505493777119575" lon="12.535850437683411"><ele>424.0</ele><time>2026-05-01T10:57:34Z</time></trkpt><trkpt lat="43.50539080610401" lon="12.535662575222082"><ele>425.33333333333337</ele><time>2026-05-01T10:57:35Z</time></trkpt><trkpt lat="43.505259926733686" lon="12.535474121008708"><ele>426.66666666666663</ele><time>2026-05-01T10:57:36Z</time></trkpt><trkpt lat="43.505107005915136" lon="12.535287380344675"><ele>428.0</ele><time>2026-05-01T10:57:37Z</time></trkpt><trkpt lat="43.504936855018684" lon="12.53509713905544"><ele>428.0</ele><time>2026-05-01T10:57:38Z</time></trkpt><trkpt lat="43.50476056387318" lon="12.534895974828363"><ele>428.0</ele><time>2026-05-01T10:57:39Z</time></trkpt><trkpt lat="43.50457820595227" lon="12.534672226804682"><ele>428.66666666666663</ele><time>2026-05-01T10:57:40Z</time></trkpt><trkpt lat="43.50441646782979" lon="12.534463876953037"><ele>429.33333333333337</ele><time>2026-05-01T10:57:41Z</time></trkpt><trkpt lat="43.504267141063984" lon="12.534280607686549"><ele>430.0</ele><time>2026-05-01T10:57:42Z</time></trkpt><trkpt lat="43.504128023113246" lon="12.534094324715449"><ele>430.0</ele><time>2026-05-01T10:57:43Z</time></trkpt><trkpt lat="43.50399210032068" lon="12.533889096154757"><ele>430.0</ele><time>2026-05-01T10:57:44Z</time></trkpt><trkpt lat="43.5038640542544" lon="12.533661105613511"><ele>430.0</ele><time>2026-05-01T10:57:45Z</time></trkpt><trkpt lat="43.50373627914694" lon="12.53341153692329"><ele>434.0</ele><time>2026-05-01T10:57:46Z</time></trkpt><trkpt lat="43.50359971204074" lon="12.53316113856454"><ele>438.0</ele><time>2026-05-01T10:57:47Z</time></trkpt><trkpt lat="43.50348433966034" lon="12.532930203046435"><ele>442.0</ele><time>2026-05-01T10:57:48Z</time></trkpt><trkpt lat="43.503358032266114" lon="12.532730000106207"><ele>442.0</ele><time>2026-05-01T10:57:49Z</time></trkpt><trkpt lat="43.5032784259334" lon="12.532510435427369"><ele>442.0</ele><time>2026-05-01T10:57:50Z</time></trkpt><trkpt lat="43.503246216812215" lon="12.532259844190593"><ele>442.0</ele><time>2026-05-01T10:57:51Z</time></trkpt><trkpt lat="43.50323201640028" lon="12.531988586601955"><ele>441.33333333333337</ele><time>2026-05-01T10:57:52Z</time></trkpt><trkpt lat="43.503230124216316" lon="12.531702186013852"><ele>440.66666666666663</ele><time>2026-05-01T10:57:53Z</time></trkpt><trkpt lat="43.503218356969604" lon="12.531429045716346"><ele>440.0</ele><time>2026-05-01T10:57:54Z</time></trkpt><trkpt lat="43.50320318711088" lon="12.53118543183442"><ele>440.0</ele><time>2026-05-01T10:57:55Z</time></trkpt><trkpt lat="43.503186628621776" lon="12.530966132821757"><ele>440.0</ele><time>2026-05-01T10:57:56Z</time></trkpt><trkpt lat="43.503153873096544" lon="12.5307683482935"><ele>440.0</ele><time>2026-05-01T10:57:57Z</time></trkpt><trkpt lat="43.50310391197469" lon="12.530585647496961"><ele>440.0</ele><time>2026-05-01T10:57:58Z</time></trkpt><trkpt lat="43.503016215862445" lon="12.530412053867325"><ele>445.0</ele><time>2026-05-01T10:57:59Z</time></trkpt><trkpt lat="43.502905225470336" lon="12.530228668589293"><ele>450.0</ele><time>2026-05-01T10:58:00Z</time></trkpt><trkpt lat="43.502754970436456" lon="12.530041361534574"><ele>455.0</ele><time>2026-05-01T10:58:01Z</time></trkpt><trkpt lat="43.50261593355857" lon="12.52984097050779"><ele>455.0</ele><time>2026-05-01T10:58:02Z</time></trkpt><trkpt lat="43.50248308591679" lon="12.52964876748185"><ele>455.0</ele><time>2026-05-01T10:58:03Z</time></trkpt><trkpt lat="43.502363927283334" lon="12.529476950024245"><ele>455.0</ele><time>2026-05-01T10:58:04Z</time></trkpt><trkpt lat="43.50225386669361" lon="12.529321342563989"><ele>453.25</ele><time>2026-05-01T10:58:05Z</time></trkpt><trkpt lat="43.50215783035579" lon="12.529164023539412"><ele>451.5</ele><time>2026-05-01T10:58:06Z</time></trkpt><trkpt lat="43.50209262861407" lon="12.528994683708548"><ele>449.75</ele><time>2026-05-01T10:58:07Z</time></trkpt><trkpt lat="43.502045534528854" lon="12.528802005386572"><ele>448.0</ele><time>2026-05-01T10:58:08Z</time></trkpt><trkpt lat="43.5020294113757" lon="12.528571101236313"><ele>455.0</ele><time>2026-05-01T10:58:09Z</time></trkpt><trkpt lat="43.502037418143" lon="12.528318327095471"><ele>462.0</ele><time>2026-05-01T10:58:10Z</time></trkpt><trkpt lat="43.50204272192541" lon="12.528053088960126"><ele>469.0</ele><time>2026-05-01T10:58:11Z</time></trkpt><trkpt lat="43.502045422339386" lon="12.527763885028627"><ele>471.0</ele><time>2026-05-01T10:58:12Z</time></trkpt><trkpt lat="43.50204902080641" lon="12.527452977791365"><ele>473.0</ele><time>2026-05-01T10:58:13Z</time></trkpt><trkpt lat="43.502052794960576" lon="12.527127125821966"><ele>473.5</ele><time>2026-05-01T10:58:14Z</time></trkpt><trkpt lat="43.50205125765734" lon="12.526805495332871"><ele>474.0</ele><time>2026-05-01T10:58:15Z</time></trkpt><trkpt lat="43.50205466415714" lon="12.526505094037642"><ele>474.0</ele><time>2026-05-01T10:58:16Z</time></trkpt><trkpt lat="43.50205335932416" lon="12.526238950983895"><ele>474.0</ele><time>2026-05-01T10:58:17Z</time></trkpt><trkpt lat="43.50204428600293" lon="12.525981933836604"><ele>474.0</ele><time>2026-05-01T10:58:18Z</time></trkpt><trkpt lat="43.50201720435396" lon="12.52574152187847"><ele>474.0</ele><time>2026-05-01T10:58:19Z</time></trkpt><trkpt lat="43.50197417497606" lon="12.525492255993036"><ele>474.0</ele><time>2026-05-01T10:58:20Z</time></trkpt><trkpt lat="43.501914199751646" lon="12.525227218366423"><ele>474.0</ele><time>2026-05-01T10:58:21Z</time></trkpt><trkpt lat="43.501852663150686" lon="12.524949387443002"><ele>474.0</ele><time>2026-05-01T10:58:22Z</time></trkpt><trkpt lat="43.50178575990996" lon="12.524648740744539"><ele>474.0</ele><time>2026-05-01T10:58:23Z</time></trkpt><trkpt lat="43.50172447292184" lon="12.524335198113272"><ele>467.5</ele><time>2026-05-01T10:58:24Z</time></trkpt><trkpt lat="43.5016433529543" lon="12.524030171428544"><ele>461.0</ele><time>2026-05-01T10:58:25Z</time></trkpt><trkpt lat="43.50159573002748" lon="12.52371446912361"><ele>459.5</ele><time>2026-05-01T10:58:26Z</time></trkpt><trkpt lat="43.50158454061042" lon="12.523388586871313"><ele>458.0</ele><time>2026-05-01T10:58:27Z</time></trkpt><trkpt lat="43.50155701926026" lon="12.52309365607085"><ele>457.66666666666663</ele><time>2026-05-01T10:58:28Z</time></trkpt><trkpt lat="43.50152700040849" lon="12.522833613006043"><ele>457.33333333333337</ele><time>2026-05-01T10:58:29Z</time></trkpt><trkpt lat="43.50153069875055" lon="12.522608116790495"><ele>457.0</ele><time>2026-05-01T10:58:30Z</time></trkpt><trkpt lat="43.501502864714276" lon="12.522368811321709"><ele>457.0</ele><time>2026-05-01T10:58:31Z</time></trkpt><trkpt lat="43.50145335814466" lon="12.52213862796025"><ele>457.0</ele><time>2026-05-01T10:58:32Z</time></trkpt><trkpt lat="43.50142002913094" lon="12.521903480905886"><ele>457.0</ele><time>2026-05-01T10:58:33Z</time></trkpt><trkpt lat="43.5013885846096" lon="12.52168478846128"><ele>458.33333333333337</ele><time>2026-05-01T10:58:34Z</time></trkpt><trkpt lat="43.5013415109972" lon="12.5214595165979"><ele>459.66666666666663</ele><time>2026-05-01T10:58:35Z</time></trkpt><trkpt lat="43.50130030404325" lon="12.521230874654506"><ele>461.0</ele><time>2026-05-01T10:58:36Z</time></trkpt><trkpt lat="43.501237845644766" lon="12.5210032000076"><ele>460.0</ele><time>2026-05-01T10:58:37Z</time></trkpt><trkpt lat="43.50116011073005" lon="12.520788445068828"><ele>459.0</ele><time>2026-05-01T10:58:38Z</time></trkpt><trkpt lat="43.50106911484844" lon="12.520564128332405"><ele>458.0</ele><time>2026-05-01T10:58:39Z</time></trkpt><trkpt lat="43.50097025202105" lon="12.52034082959642"><ele>458.0</ele><time>2026-05-01T10:58:40Z</time></trkpt><trkpt lat="43.500866836103235" lon="12.520119390098074"><ele>458.0</ele><time>2026-05-01T10:58:41Z</time></trkpt><trkpt lat="43.500767501716375" lon="12.519906207996753"><ele>458.0</ele><time>2026-05-01T10:58:42Z</time></trkpt><trkpt lat="43.500672520442365" lon="12.519699829217728"><ele>461.0</ele><time>2026-05-01T10:58:43Z</time></trkpt><trkpt lat="43.50057576281087" lon="12.519491597468134"><ele>464.0</ele><time>2026-05-01T10:58:44Z</time></trkpt><trkpt lat="43.500485908546274" lon="12.519271053101583"><ele>467.0</ele><time>2026-05-01T10:58:45Z</time></trkpt><trkpt lat="43.50038907701202" lon="12.519048361045423"><ele>467.0</ele><time>2026-05-01T10:58:46Z</time></trkpt><trkpt lat="43.50028711932748" lon="12.518814395229521"><ele>467.0</ele><time>2026-05-01T10:58:47Z</time></trkpt><trkpt lat="43.50019351080265" lon="12.518566403653626"><ele>467.0</ele><time>2026-05-01T10:58:48Z</time></trkpt><trkpt lat="43.5000931409865" lon="12.518330032239652"><ele>466.66666666666663</ele><time>2026-05-01T10:58:49Z</time></trkpt><trkpt lat="43.500011855993435" lon="12.518108704095438"><ele>466.33333333333337</ele><time>2026-05-01T10:58:50Z</time></trkpt><trkpt lat="43.499955340874514" lon="12.517880071360489"><ele>466.0</ele><time>2026-05-01T10:58:51Z</time></trkpt><trkpt lat="43.49992142901988" lon="12.517648455681941"><ele>468.6666666666667</ele><time>2026-05-01T10:58:52Z</time></trkpt><trkpt lat="43.499905473050774" lon="12.51741043902874"><ele>471.33333333333337</ele><time>2026-05-01T10:58:53Z</time></trkpt><trkpt lat="43.499916279614375" lon="12.517161136157222"><ele>474.0</ele><time>2026-05-01T10:58:54Z</time></trkpt><trkpt lat="43.49992350492273" lon="12.51690686551335"><ele>475.0</ele><time>2026-05-01T10:58:55Z</time></trkpt><trkpt lat="43.49991698638164" lon="12.516673169189325"><ele>476.0</ele><time>2026-05-01T10:58:56Z</time></trkpt><trkpt lat="43.49989801770169" lon="12.516473675874428"><ele>477.0</ele><time>2026-05-01T10:58:57Z</time></trkpt><trkpt lat="43.49985520174088" lon="12.516312190335325"><ele>478.0</ele><time>2026-05-01T10:58:58Z</time></trkpt><trkpt lat="43.49978455577459" lon="12.516170902244514"><ele>479.33333333333337</ele><time>2026-05-01T10:58:59Z</time></trkpt><trkpt lat="43.4996800769415" lon="12.516047050514366"><ele>480.66666666666663</ele><time>2026-05-01T10:59:00Z</time></trkpt><trkpt lat="43.49953362108664" lon="12.515949342322788"><ele>482.0</ele><time>2026-05-01T10:59:01Z</time></trkpt><trkpt lat="43.49936798423274" lon="12.515853888750506"><ele>478.66666666666663</ele><time>2026-05-01T10:59:02Z</time></trkpt><trkpt lat="43.499204356561776" lon="12.51573349644842"><ele>475.33333333333337</ele><time>2026-05-01T10:59:03Z</time></trkpt><trkpt lat="43.499036764129" lon="12.515580334023177"><ele>472.0</ele><time>2026-05-01T10:59:04Z</time></trkpt><trkpt lat="43.49885528283862" lon="12.515446962301656"><ele>472.33333333333337</ele><time>2026-05-01T10:59:05Z</time></trkpt><trkpt lat="43.49870111794347" lon="12.515327644224797"><ele>472.66666666666663</ele><time>2026-05-01T10:59:06Z</time></trkpt><trkpt lat="43.49857213800546" lon="12.515188337059042"><ele>473.0</ele><time>2026-05-01T10:59:07Z</time></trkpt><trkpt lat="43.49845678351714" lon="12.515024046536011"><ele>473.0</ele><time>2026-05-01T10:59:08Z</time></trkpt><trkpt lat="43.498342068027945" lon="12.51483040095785"><ele>473.0</ele><time>2026-05-01T10:59:09Z</time></trkpt><trkpt lat="43.498221139280275" lon="12.514625194485424"><ele>473.0</ele><time>2026-05-01T10:59:10Z</time></trkpt><trkpt lat="43.49811895830394" lon="12.51440163742659"><ele>474.0</ele><time>2026-05-01T10:59:11Z</time></trkpt><trkpt lat="43.49804693219954" lon="12.514183015466783"><ele>475.0</ele><time>2026-05-01T10:59:12Z</time></trkpt><trkpt lat="43.498010127956725" lon="12.513972489579709"><ele>476.0</ele><time>2026-05-01T10:59:13Z</time></trkpt><trkpt lat="43.49799396860057" lon="12.513733580556979"><ele>476.66666666666663</ele><time>2026-05-01T10:59:14Z</time></trkpt><trkpt lat="43.49798544102341" lon="12.513501810318646"><ele>477.33333333333337</ele><time>2026-05-01T10:59:15Z</time></trkpt><trkpt lat="43.497980372904244" lon="12.513290650993453"><ele>478.0</ele><time>2026-05-01T10:59:16Z</time></trkpt><trkpt lat="43.49797452701247" lon="12.513080848129842"><ele>478.75</ele><time>2026-05-01T10:59:17Z</time></trkpt><trkpt lat="43.4979703550215" lon="12.512880702856215"><ele>479.5</ele><time>2026-05-01T10:59:18Z</time></trkpt><trkpt lat="43.49796411283519" lon="12.512695150230046"><ele>480.25</ele><time>2026-05-01T10:59:19Z</time></trkpt><trkpt lat="43.49795739181544" lon="12.512505521474935"><ele>481.0</ele><time>2026-05-01T10:59:20Z</time></trkpt><trkpt lat="43.49795051701546" lon="12.512321035742804"><ele>481.0</ele><time>2026-05-01T10:59:21Z</time></trkpt><trkpt lat="43.49794466378273" lon="12.512149220269476"><ele>481.0</ele><time>2026-05-01T10:59:22Z</time></trkpt><trkpt lat="43.49793415462288" lon="12.511990594819414"><ele>481.0</ele><time>2026-05-01T10:59:23Z</time></trkpt><trkpt lat="43.497929897893016" lon="12.511822515185273"><ele>481.0</ele><time>2026-05-01T10:59:24Z</time></trkpt><trkpt lat="43.49792410245699" lon="12.511644460182636"><ele>478.25</ele><time>2026-05-01T10:59:25Z</time></trkpt><trkpt lat="43.497912348019646" lon="12.511464806599603"><ele>475.5</ele><time>2026-05-01T10:59:26Z</time></trkpt><trkpt lat="43.49790560409317" lon="12.511285279315153"><ele>472.75</ele><time>2026-05-01T10:59:27Z</time></trkpt><trkpt lat="43.49789989222693" lon="12.511100610009208"><ele>470.0</ele><time>2026-05-01T10:59:28Z</time></trkpt><trkpt lat="43.4978940290364" lon="12.51091728085565"><ele>470.0</ele><time>2026-05-01T10:59:29Z</time></trkpt><trkpt lat="43.49789917786778" lon="12.510721700932727"><ele>470.0</ele><time>2026-05-01T10:59:30Z</time></trkpt><trkpt lat="43.4978854833559" lon="12.51052521424802"><ele>470.0</ele><time>2026-05-01T10:59:31Z</time></trkpt><trkpt lat="43.49788467218215" lon="12.510337458142745"><ele>470.0</ele><time>2026-05-01T10:59:32Z</time></trkpt><trkpt lat="43.49786621620134" lon="12.510144132815073"><ele>470.0</ele><time>2026-05-01T10:59:33Z</time></trkpt><trkpt lat="43.49787130040066" lon="12.509948942557838"><ele>470.0</ele><time>2026-05-01T10:59:34Z</time></trkpt><trkpt lat="43.49786097637157" lon="12.509753527443051"><ele>470.0</ele><time>2026-05-01T10:59:35Z</time></trkpt><trkpt lat="43.4978491706177" lon="12.509552454778996"><ele>470.0</ele><time>2026-05-01T10:59:36Z</time></trkpt><trkpt lat="43.49783529312496" lon="12.509352452724254"><ele>470.66666666666663</ele><time>2026-05-01T10:59:37Z</time></trkpt><trkpt lat="43.49780531831054" lon="12.5091290318309"><ele>471.33333333333337</ele><time>2026-05-01T10:59:38Z</time></trkpt><trkpt lat="43.497751059389294" lon="12.508902450970615"><ele>472.0</ele><time>2026-05-01T10:59:39Z</time></trkpt><trkpt lat="43.49766982423383" lon="12.508663560483786"><ele>474.0</ele><time>2026-05-01T10:59:40Z</time></trkpt><trkpt lat="43.49757371005486" lon="12.508410328818325"><ele>476.0</ele><time>2026-05-01T10:59:41Z</time></trkpt><trkpt lat="43.49747205169666" lon="12.50814673927642"><ele>478.0</ele><time>2026-05-01T10:59:42Z</time></trkpt><trkpt lat="43.49737114180705" lon="12.507885090386567"><ele>474.6666666666667</ele><time>2026-05-01T10:59:43Z</time></trkpt><trkpt lat="43.49727024355758" lon="12.507623238187234"><ele>471.33333333333337</ele><time>2026-05-01T10:59:44Z</time></trkpt><trkpt lat="43.49717127749422" lon="12.507366136156499"><ele>468.0</ele><time>2026-05-01T10:59:45Z</time></trkpt><trkpt lat="43.49706324336579" lon="12.507087201726934"><ele>470.5</ele><time>2026-05-01T10:59:46Z</time></trkpt><trkpt lat="43.496951765164596" lon="12.506797014525782"><ele>473.0</ele><time>2026-05-01T10:59:47Z</time></trkpt><trkpt lat="43.496837170867295" lon="12.506511572783863"><ele>473.0</ele><time>2026-05-01T10:59:48Z</time></trkpt><trkpt lat="43.49673192808563" lon="12.506246984427296"><ele>473.0</ele><time>2026-05-01T10:59:49Z</time></trkpt><trkpt lat="43.49663500872277" lon="12.5060017224385"><ele>473.0</ele><time>2026-05-01T10:59:50Z</time></trkpt><trkpt lat="43.496563684722986" lon="12.505762801647696"><ele>474.3333333333333</ele><time>2026-05-01T10:59:51Z</time></trkpt><trkpt lat="43.496487732394975" lon="12.505525530963459"><ele>475.66666666666663</ele><time>2026-05-01T10:59:52Z</time></trkpt><trkpt lat="43.49645646981023" lon="12.505280300679713"><ele>477.0</ele><time>2026-05-01T10:59:53Z</time></trkpt><trkpt lat="43.49642464867386" lon="12.505005854923716"><ele>477.33333333333337</ele><time>2026-05-01T10:59:54Z</time></trkpt><trkpt lat="43.496392370840844" lon="12.504707035563733"><ele>477.6666666666667</ele><time>2026-05-01T10:59:55Z</time></trkpt><trkpt lat="43.49635854020514" lon="12.504393100681195"><ele>478.0</ele><time>2026-05-01T10:59:56Z</time></trkpt><trkpt lat="43.49632396215775" lon="12.50407472076513"><ele>478.5</ele><time>2026-05-01T10:59:57Z</time></trkpt><trkpt lat="43.49628879235751" lon="12.503738852356186"><ele>479.0</ele><time>2026-05-01T10:59:58Z</time></trkpt><trkpt lat="43.496251986651686" lon="12.503386161996033"><ele>481.5</ele><time>2026-05-01T10:59:59Z</time></trkpt><trkpt lat="43.49619670453622" lon="12.503015120932131"><ele>484.0</ele><time>2026-05-01T11:00:00Z</time></trkpt><trkpt lat="43.49615599848294" lon="12.50260786758193"><ele>484.5</ele><time>2026-05-01T11:00:01Z</time></trkpt><trkpt lat="43.49610834073048" lon="12.502172100866817"><ele>485.0</ele><time>2026-05-01T11:00:02Z</time></trkpt><trkpt lat="43.49606226298696" lon="12.501732827674937"><ele>486.5</ele><time>2026-05-01T11:00:03Z</time></trkpt><trkpt lat="43.496031069735025" lon="12.501294087064096"><ele>488.0</ele><time>2026-05-01T11:00:04Z</time></trkpt><trkpt lat="43.49598413291069" lon="12.50086307585792"><ele>488.0</ele><time>2026-05-01T11:00:05Z</time></trkpt><trkpt lat="43.49594250980232" lon="12.500468621144584"><ele>488.0</ele><time>2026-05-01T11:00:06Z</time></trkpt><trkpt lat="43.49590419669193" lon="12.500100452233932"><ele>486.5</ele><time>2026-05-01T11:00:07Z</time></trkpt><trkpt lat="43.4958597673467" lon="12.499736892012432"><ele>485.0</ele><time>2026-05-01T11:00:08Z</time></trkpt><trkpt lat="43.49582201486122" lon="12.499417321651174"><ele>485.0</ele><time>2026-05-01T11:00:09Z</time></trkpt><trkpt lat="43.49578441133642" lon="12.499088900974991"><ele>485.0</ele><time>2026-05-01T11:00:10Z</time></trkpt><trkpt lat="43.49573969079195" lon="12.49877389244133"><ele>487.0</ele><time>2026-05-01T11:00:11Z</time></trkpt><trkpt lat="43.495667670102065" lon="12.49844847226705"><ele>489.0</ele><time>2026-05-01T11:00:12Z</time></trkpt><trkpt lat="43.49556338953052" lon="12.498119533804132"><ele>489.5</ele><time>2026-05-01T11:00:13Z</time></trkpt><trkpt lat="43.49544397042361" lon="12.497774512782101"><ele>490.0</ele><time>2026-05-01T11:00:14Z</time></trkpt><trkpt lat="43.4953495634078" lon="12.497411517413191"><ele>492.5</ele><time>2026-05-01T11:00:15Z</time></trkpt><trkpt lat="43.49524197315519" lon="12.497056087089302"><ele>495.0</ele><time>2026-05-01T11:00:16Z</time></trkpt><trkpt lat="43.495119314854634" lon="12.49670928096738"><ele>495.0</ele><time>2026-05-01T11:00:17Z</time></trkpt><trkpt lat="43.49501913915298" lon="12.496375172030385"><ele>495.0</ele><time>2026-05-01T11:00:18Z</time></trkpt><trkpt lat="43.494925023771934" lon="12.496069501881857"><ele>498.0</ele><time>2026-05-01T11:00:19Z</time></trkpt><trkpt lat="43.49483953621069" lon="12.495772387120686"><ele>501.0</ele><time>2026-05-01T11:00:20Z</time></trkpt><trkpt lat="43.49474613491808" lon="12.49548410116405"><ele>498.5</ele><time>2026-05-01T11:00:21Z</time></trkpt><trkpt lat="43.4946522910053" lon="12.495182858439609"><ele>496.0</ele><time>2026-05-01T11:00:22Z</time></trkpt><trkpt lat="43.494555958474976" lon="12.49488561763092"><ele>496.0</ele><time>2026-05-01T11:00:23Z</time></trkpt><trkpt lat="43.49447195679567" lon="12.494600905235663"><ele>496.0</ele><time>2026-05-01T11:00:24Z</time></trkpt><trkpt lat="43.49438344960555" lon="12.494349169941957"><ele>496.0</ele><time>2026-05-01T11:00:25Z</time></trkpt><trkpt lat="43.49428660878114" lon="12.494110030539135"><ele>498.33333333333337</ele><time>2026-05-01T11:00:26Z</time></trkpt><trkpt lat="43.494169188322005" lon="12.493869311642229"><ele>500.66666666666663</ele><time>2026-05-01T11:00:27Z</time></trkpt><trkpt lat="43.494017801457275" lon="12.493637726178353"><ele>503.0</ele><time>2026-05-01T11:00:28Z</time></trkpt><trkpt lat="43.493844577663715" lon="12.49340102652239"><ele>502.0</ele><time>2026-05-01T11:00:29Z</time></trkpt><trkpt lat="43.49366180798478" lon="12.493153488744111"><ele>501.0</ele><time>2026-05-01T11:00:30Z</time></trkpt><trkpt lat="43.493486547832795" lon="12.492885902077617"><ele>510.5</ele><time>2026-05-01T11:00:31Z</time></trkpt><trkpt lat="43.493299639421174" lon="12.492618504632851"><ele>520.0</ele><time>2026-05-01T11:00:32Z</time></trkpt><trkpt lat="43.493101541852205" lon="12.492367153906965"><ele>515.5</ele><time>2026-05-01T11:00:33Z</time></trkpt><trkpt lat="43.49292026828955" lon="12.492104460269223"><ele>511.0</ele><time>2026-05-01T11:00:34Z</time></trkpt><trkpt lat="43.49274470712691" lon="12.491863852008233"><ele>511.0</ele><time>2026-05-01T11:00:35Z</time></trkpt><trkpt lat="43.49258770390872" lon="12.491642907169778"><ele>511.0</ele><time>2026-05-01T11:00:36Z</time></trkpt><trkpt lat="43.492442268430615" lon="12.491437626060039"><ele>511.0</ele><time>2026-05-01T11:00:37Z</time></trkpt><trkpt lat="43.492311205089216" lon="12.491244958277536"><ele>509.33333333333337</ele><time>2026-05-01T11:00:38Z</time></trkpt><trkpt lat="43.4922046103492" lon="12.491059048447857"><ele>507.66666666666663</ele><time>2026-05-01T11:00:39Z</time></trkpt><trkpt lat="43.49210466062375" lon="12.490874995079457"><ele>506.0</ele><time>2026-05-01T11:00:40Z</time></trkpt><trkpt lat="43.49201611151922" lon="12.490665600233116"><ele>506.0</ele><time>2026-05-01T11:00:41Z</time></trkpt><trkpt lat="43.49192457035335" lon="12.490440413007665"><ele>506.0</ele><time>2026-05-01T11:00:42Z</time></trkpt><trkpt lat="43.491825508545006" lon="12.490197771228306"><ele>506.0</ele><time>2026-05-01T11:00:43Z</time></trkpt><trkpt lat="43.49172781034928" lon="12.489963065878346"><ele>509.0</ele><time>2026-05-01T11:00:44Z</time></trkpt><trkpt lat="43.491640941254964" lon="12.489756188927963"><ele>512.0</ele><time>2026-05-01T11:00:45Z</time></trkpt><trkpt lat="43.49157445588087" lon="12.489552197932868"><ele>515.0</ele><time>2026-05-01T11:00:46Z</time></trkpt><trkpt lat="43.49154151985034" lon="12.489327542751823"><ele>517.6666666666666</ele><time>2026-05-01T11:00:47Z</time></trkpt><trkpt lat="43.491537100155924" lon="12.489064415064593"><ele>520.3333333333334</ele><time>2026-05-01T11:00:48Z</time></trkpt><trkpt lat="43.491538001665845" lon="12.488776078024381"><ele>523.0</ele><time>2026-05-01T11:00:49Z</time></trkpt><trkpt lat="43.491536067101514" lon="12.488472836923018"><ele>523.0</ele><time>2026-05-01T11:00:50Z</time></trkpt><trkpt lat="43.491530147180804" lon="12.488154553184614"><ele>523.0</ele><time>2026-05-01T11:00:51Z</time></trkpt><trkpt lat="43.49152291194311" lon="12.487814287083726"><ele>524.5</ele><time>2026-05-01T11:00:52Z</time></trkpt><trkpt lat="43.49151359997023" lon="12.487453088961793"><ele>526.0</ele><time>2026-05-01T11:00:53Z</time></trkpt><trkpt lat="43.49150349845148" lon="12.487093688513827"><ele>528.5</ele><time>2026-05-01T11:00:54Z</time></trkpt><trkpt lat="43.49149051966246" lon="12.486719048684947"><ele>531.0</ele><time>2026-05-01T11:00:55Z</time></trkpt><trkpt lat="43.49147799072337" lon="12.486346033189996"><ele>529.0</ele><time>2026-05-01T11:00:56Z</time></trkpt><trkpt lat="43.491468504665235" lon="12.485983692418241"><ele>527.0</ele><time>2026-05-01T11:00:57Z</time></trkpt><trkpt lat="43.491456017356896" lon="12.485648593555684"><ele>527.3333333333333</ele><time>2026-05-01T11:00:58Z</time></trkpt><trkpt lat="43.491448973733775" lon="12.485342120091078"><ele>527.6666666666666</ele><time>2026-05-01T11:00:59Z</time></trkpt><trkpt lat="43.49144565147138" lon="12.48504668307801"><ele>528.0</ele><time>2026-05-01T11:01:00Z</time></trkpt><trkpt lat="43.49146039362866" lon="12.48475555347"><ele>528.0</ele><time>2026-05-01T11:01:01Z</time></trkpt><trkpt lat="43.4914873061413" lon="12.484445867343863"><ele>528.0</ele><time>2026-05-01T11:01:02Z</time></trkpt><trkpt lat="43.491524847218145" lon="12.484128627663052"><ele>528.0</ele><time>2026-05-01T11:01:03Z</time></trkpt><trkpt lat="43.491558508920605" lon="12.483809706040196"><ele>528.0</ele><time>2026-05-01T11:01:04Z</time></trkpt><trkpt lat="43.49158428613792" lon="12.483492694127863"><ele>527.6666666666666</ele><time>2026-05-01T11:01:05Z</time></trkpt><trkpt lat="43.4916148548542" lon="12.483194386163804"><ele>527.3333333333333</ele><time>2026-05-01T11:01:06Z</time></trkpt><trkpt lat="43.49166727413725" lon="12.482908707097536"><ele>527.0</ele><time>2026-05-01T11:01:07Z</time></trkpt><trkpt lat="43.491741583782755" lon="12.482630657176369"><ele>528.6666666666666</ele><time>2026-05-01T11:01:08Z</time></trkpt><trkpt lat="43.491832359610875" lon="12.482354946776185"><ele>530.3333333333334</ele><time>2026-05-01T11:01:09Z</time></trkpt><trkpt lat="43.49191989748994" lon="12.482072393124371"><ele>532.0</ele><time>2026-05-01T11:01:10Z</time></trkpt><trkpt lat="43.49201075168376" lon="12.481784578796782"><ele>536.0</ele><time>2026-05-01T11:01:11Z</time></trkpt><trkpt lat="43.49209803937678" lon="12.48147442598596"><ele>540.0</ele><time>2026-05-01T11:01:12Z</time></trkpt><trkpt lat="43.492189093828685" lon="12.481157415397119"><ele>540.0</ele><time>2026-05-01T11:01:13Z</time></trkpt><trkpt lat="43.492283093402705" lon="12.480841122087467"><ele>540.0</ele><time>2026-05-01T11:01:14Z</time></trkpt><trkpt lat="43.4923803082477" lon="12.480509302237186"><ele>537.0</ele><time>2026-05-01T11:01:15Z</time></trkpt><trkpt lat="43.49247921707587" lon="12.480179757843215"><ele>534.0</ele><time>2026-05-01T11:01:16Z</time></trkpt><trkpt lat="43.49258086215799" lon="12.479842493275264"><ele>534.0</ele><time>2026-05-01T11:01:17Z</time></trkpt><trkpt lat="43.49268281071203" lon="12.479512547344276"><ele>534.0</ele><time>2026-05-01T11:01:18Z</time></trkpt><trkpt lat="43.49277789111486" lon="12.479193488152974"><ele>534.0</ele><time>2026-05-01T11:01:19Z</time></trkpt><trkpt lat="43.49286654767414" lon="12.47888997068689"><ele>534.0</ele><time>2026-05-01T11:01:20Z</time></trkpt><trkpt lat="43.49294831703551" lon="12.478614306950705"><ele>535.6666666666666</ele><time>2026-05-01T11:01:21Z</time></trkpt><trkpt lat="43.49302054453266" lon="12.478353458891764"><ele>537.3333333333333</ele><time>2026-05-01T11:01:22Z</time></trkpt><trkpt lat="43.49308362996958" lon="12.478113839966246"><ele>539.0</ele><time>2026-05-01T11:01:23Z</time></trkpt><trkpt lat="43.49312659748887" lon="12.477854865257756"><ele>539.0</ele><time>2026-05-01T11:01:24Z</time></trkpt><trkpt lat="43.493139644003" lon="12.477569955807535"><ele>539.0</ele><time>2026-05-01T11:01:25Z</time></trkpt><trkpt lat="43.49313898421197" lon="12.477265979667687"><ele>539.0</ele><time>2026-05-01T11:01:26Z</time></trkpt><trkpt lat="43.493136688311694" lon="12.476944889656098"><ele>540.0</ele><time>2026-05-01T11:01:27Z</time></trkpt><trkpt lat="43.493136087403236" lon="12.476616540689772"><ele>541.0</ele><time>2026-05-01T11:01:28Z</time></trkpt><trkpt lat="43.493144119930044" lon="12.476280722409628"><ele>542.3333333333334</ele><time>2026-05-01T11:01:29Z</time></trkpt><trkpt lat="43.49314453600433" lon="12.475949302932802"><ele>543.6666666666666</ele><time>2026-05-01T11:01:30Z</time></trkpt><trkpt lat="43.49314191561636" lon="12.475662372256922"><ele>545.0</ele><time>2026-05-01T11:01:31Z</time></trkpt><trkpt lat="43.49315200427098" lon="12.47541350054477"><ele>545.6</ele><time>2026-05-01T11:01:32Z</time></trkpt><trkpt lat="43.49315633637653" lon="12.475218479444521"><ele>546.2</ele><time>2026-05-01T11:01:33Z</time></trkpt><trkpt lat="43.49316034856263" lon="12.475058334069427"><ele>546.8</ele><time>2026-05-01T11:01:34Z</time></trkpt><trkpt lat="43.493161880798446" lon="12.474933268829144"><ele>547.4</ele><time>2026-05-01T11:01:35Z</time></trkpt><trkpt lat="43.493163975162965" lon="12.474831823373385"><ele>548.0</ele><time>2026-05-01T11:01:36Z</time></trkpt><trkpt lat="43.493228222582374" lon="12.474740521249588"><ele>548.0</ele><time>2026-05-01T11:01:38Z</time></trkpt><trkpt lat="43.49333277115641" lon="12.474778962055174"><ele>548.0</ele><time>2026-05-01T11:01:40Z</time></trkpt><trkpt lat="43.49342401832026" lon="12.474928306281791"><ele>548.0</ele><time>2026-05-01T11:01:42Z</time></trkpt><trkpt lat="43.493465858614975" lon="12.475053863783563"><ele>548.0</ele><time>2026-05-01T11:01:43Z</time></trkpt><trkpt lat="43.493496444305755" lon="12.475173184863735"><ele>548.0</ele><time>2026-05-01T11:01:44Z</time></trkpt><trkpt lat="43.493522452711034" lon="12.47528555971752"><ele>548.0</ele><time>2026-05-01T11:01:45Z</time></trkpt><trkpt lat="43.49355249307269" lon="12.47539329885347"><ele>548.0</ele><time>2026-05-01T11:01:46Z</time></trkpt><trkpt lat="43.49359074992956" lon="12.475501241069091"><ele>548.0</ele><time>2026-05-01T11:01:47Z</time></trkpt><trkpt lat="43.493628293290676" lon="12.475605610309541"><ele>548.0</ele><time>2026-05-01T11:01:48Z</time></trkpt><trkpt lat="43.493656177721334" lon="12.475703875724166"><ele>548.0</ele><time>2026-05-01T11:01:49Z</time></trkpt><trkpt lat="43.49368786657132" lon="12.475797878847924"><ele>548.0</ele><time>2026-05-01T11:01:50Z</time></trkpt><trkpt lat="43.49372315426124" lon="12.475891709791657"><ele>550.1999999999999</ele><time>2026-05-01T11:01:51Z</time></trkpt><trkpt lat="43.493770858944366" lon="12.475988400391788"><ele>552.4</ele><time>2026-05-01T11:01:52Z</time></trkpt><trkpt lat="43.49383152242287" lon="12.47607879234122"><ele>554.5999999999999</ele><time>2026-05-01T11:01:53Z</time></trkpt><trkpt lat="43.493894143561064" lon="12.476169168055446"><ele>556.8</ele><time>2026-05-01T11:01:54Z</time></trkpt><trkpt lat="43.493964593172024" lon="12.476266525076642"><ele>559.0</ele><time>2026-05-01T11:01:55Z</time></trkpt><trkpt lat="43.494039758936715" lon="12.47637153688085"><ele>559.0</ele><time>2026-05-01T11:01:56Z</time></trkpt><trkpt lat="43.49410762644099" lon="12.476489520527023"><ele>559.0</ele><time>2026-05-01T11:01:57Z</time></trkpt><trkpt lat="43.49416037954984" lon="12.476622669270375"><ele>559.0</ele><time>2026-05-01T11:01:58Z</time></trkpt><trkpt lat="43.49419467229285" lon="12.476748956227912"><ele>559.0</ele><time>2026-05-01T11:01:59Z</time></trkpt><trkpt lat="43.49422548023018" lon="12.476855854213902"><ele>559.0</ele><time>2026-05-01T11:02:00Z</time></trkpt><trkpt lat="43.49426017399996" lon="12.476944962419553"><ele>559.0</ele><time>2026-05-01T11:02:01Z</time></trkpt><trkpt lat="43.49430162686292" lon="12.477012363394637"><ele>559.0</ele><time>2026-05-01T11:02:02Z</time></trkpt><trkpt lat="43.49439492587832" lon="12.477063043858395"><ele>559.0</ele><time>2026-05-01T11:02:04Z</time></trkpt><trkpt lat="43.49450396311412" lon="12.476963535486744"><ele>559.0</ele><time>2026-05-01T11:02:06Z</time></trkpt><trkpt lat="43.494520508733366" lon="12.476860528777046"><ele>559.0</ele><time>2026-05-01T11:02:07Z</time></trkpt><trkpt lat="43.49450688042958" lon="12.476735293071961"><ele>559.0</ele><time>2026-05-01T11:02:08Z</time></trkpt><trkpt lat="43.49447457482828" lon="12.4766058474272"><ele>559.0</ele><time>2026-05-01T11:02:09Z</time></trkpt><trkpt lat="43.49444887609915" lon="12.476487230760505"><ele>559.0</ele><time>2026-05-01T11:02:10Z</time></trkpt><trkpt lat="43.4944291344348" lon="12.476382697630445"><ele>559.0</ele><time>2026-05-01T11:02:11Z</time></trkpt><trkpt lat="43.49442937320348" lon="12.476267962826583"><ele>559.0</ele><time>2026-05-01T11:02:12Z</time></trkpt><trkpt lat="43.49445656775208" lon="12.47612845300296"><ele>560.4</ele><time>2026-05-01T11:02:13Z</time></trkpt><trkpt lat="43.49449260089024" lon="12.4759940079581"><ele>561.8</ele><time>2026-05-01T11:02:14Z</time></trkpt><trkpt lat="43.49452925320699" lon="12.475856250089288"><ele>563.2</ele><time>2026-05-01T11:02:15Z</time></trkpt><trkpt lat="43.49455574519042" lon="12.475702628213902"><ele>564.6</ele><time>2026-05-01T11:02:16Z</time></trkpt><trkpt lat="43.49459170005107" lon="12.475558919883127"><ele>566.0</ele><time>2026-05-01T11:02:17Z</time></trkpt><trkpt lat="43.494618186369735" lon="12.475424946078043"><ele>571.8</ele><time>2026-05-01T11:02:18Z</time></trkpt><trkpt lat="43.49465286423143" lon="12.475279671160495"><ele>577.6</ele><time>2026-05-01T11:02:19Z</time></trkpt><trkpt lat="43.494694602759644" lon="12.475121901175761"><ele>583.4</ele><time>2026-05-01T11:02:20Z</time></trkpt><trkpt lat="43.494736798798755" lon="12.474978365949491"><ele>589.2</ele><time>2026-05-01T11:02:21Z</time></trkpt><trkpt lat="43.49477674806169" lon="12.474849696798717"><ele>595.0</ele><time>2026-05-01T11:02:22Z</time></trkpt><trkpt lat="43.49481872752413" lon="12.474730474398926"><ele>595.0</ele><time>2026-05-01T11:02:23Z</time></trkpt><trkpt lat="43.49487417523697" lon="12.474620607295298"><ele>595.0</ele><time>2026-05-01T11:02:24Z</time></trkpt><trkpt lat="43.49494710509329" lon="12.474531848850246"><ele>595.0</ele><time>2026-05-01T11:02:25Z</time></trkpt><trkpt lat="43.49502765218014" lon="12.474457940928025"><ele>595.0</ele><time>2026-05-01T11:02:26Z</time></trkpt><trkpt lat="43.49510949557954" lon="12.474391373064476"><ele>595.0</ele><time>2026-05-01T11:02:27Z</time></trkpt><trkpt lat="43.49519857810693" lon="12.474326717725306"><ele>595.6666666666667</ele><time>2026-05-01T11:02:28Z</time></trkpt><trkpt lat="43.49528105927439" lon="12.474282347253405"><ele>596.3333333333334</ele><time>2026-05-01T11:02:29Z</time></trkpt><trkpt lat="43.495361621553855" lon="12.474252916287755"><ele>597.0</ele><time>2026-05-01T11:02:30Z</time></trkpt><trkpt lat="43.49544156029031" lon="12.474239178244671"><ele>597.6666666666666</ele><time>2026-05-01T11:02:31Z</time></trkpt><trkpt lat="43.49552056038684" lon="12.474250467616972"><ele>598.3333333333333</ele><time>2026-05-01T11:02:32Z</time></trkpt><trkpt lat="43.49558359216193" lon="12.474265387360596"><ele>599.0</ele><time>2026-05-01T11:02:33Z</time></trkpt><trkpt lat="43.49565093365472" lon="12.474300131124515"><ele>599.0</ele><time>2026-05-01T11:02:34Z</time></trkpt><trkpt lat="43.49571229599789" lon="12.474347350245193"><ele>599.0</ele><time>2026-05-01T11:02:35Z</time></trkpt><trkpt lat="43.495833123781246" lon="12.474415288989675"><ele>599.0</ele><time>2026-05-01T11:02:37Z</time></trkpt><trkpt lat="43.495899882898215" lon="12.474427643219204"><ele>599.0</ele><time>2026-05-01T11:02:38Z</time></trkpt><trkpt lat="43.495982487473995" lon="12.47443528836355"><ele>599.0</ele><time>2026-05-01T11:02:40Z</time></trkpt><trkpt lat="43.49604867120751" lon="12.474464457606286"><ele>599.0</ele><time>2026-05-01T11:02:43Z</time></trkpt><trkpt lat="43.49601295320406" lon="12.474538404854002"><ele>599.0</ele><time>2026-05-01T11:03:02Z</time></trkpt><trkpt lat="43.49591423290583" lon="12.474535623618412"><ele>599.0</ele><time>2026-05-01T11:03:05Z</time></trkpt><trkpt lat="43.49582999210048" lon="12.47454483283614"><ele>599.0</ele><time>2026-05-01T11:03:07Z</time></trkpt><trkpt lat="43.495734216360155" lon="12.47450162055409"><ele>599.0</ele><time>2026-05-01T11:03:09Z</time></trkpt><trkpt lat="43.495662170179024" lon="12.474472863156102"><ele>599.0</ele><time>2026-05-01T11:03:10Z</time></trkpt><trkpt lat="43.495563393617395" lon="12.474477976842056"><ele>599.0</ele><time>2026-05-01T11:03:12Z</time></trkpt><trkpt lat="43.49542297397713" lon="12.474580143530158"><ele>599.0</ele><time>2026-05-01T11:03:14Z</time></trkpt><trkpt lat="43.49538353551349" lon="12.474667163397138"><ele>599.0</ele><time>2026-05-01T11:03:15Z</time></trkpt><trkpt lat="43.4953651316707" lon="12.474761333327091"><ele>599.0</ele><time>2026-05-01T11:03:16Z</time></trkpt><trkpt lat="43.495351525020226" lon="12.474855877775259"><ele>599.0</ele><time>2026-05-01T11:03:17Z</time></trkpt><trkpt lat="43.495337428625966" lon="12.474952347565038"><ele>599.0</ele><time>2026-05-01T11:03:18Z</time></trkpt><trkpt lat="43.495324039036966" lon="12.475045255757763"><ele>598.2</ele><time>2026-05-01T11:03:19Z</time></trkpt><trkpt lat="43.4953245050491" lon="12.475202094777305"><ele>597.4</ele><time>2026-05-01T11:03:21Z</time></trkpt><trkpt lat="43.49534965279618" lon="12.47532669685825"><ele>596.6</ele><time>2026-05-01T11:03:23Z</time></trkpt><trkpt lat="43.495360836137394" lon="12.47543769531268"><ele>595.8</ele><time>2026-05-01T11:03:25Z</time></trkpt><trkpt lat="43.495396170790734" lon="12.475564655384279"><ele>595.0</ele><time>2026-05-01T11:03:27Z</time></trkpt><trkpt lat="43.4954230717498" lon="12.475691044620328"><ele>600.0</ele><time>2026-05-01T11:03:29Z</time></trkpt><trkpt lat="43.49551208314863" lon="12.475753086787698"><ele>605.0</ele><time>2026-05-01T11:03:31Z</time></trkpt><trkpt lat="43.49562240968078" lon="12.475804175776638"><ele>610.0</ele><time>2026-05-01T11:03:33Z</time></trkpt><trkpt lat="43.49575353140119" lon="12.475826439089378"><ele>615.0</ele><time>2026-05-01T11:03:35Z</time></trkpt><trkpt lat="43.49581151467781" lon="12.475874755996593"><ele>620.0</ele><time>2026-05-01T11:03:36Z</time></trkpt><trkpt lat="43.49585653082371" lon="12.475946726074083"><ele>620.0</ele><time>2026-05-01T11:03:37Z</time></trkpt><trkpt lat="43.49589065034656" lon="12.47610819417193"><ele>620.0</ele><time>2026-05-01T11:03:39Z</time></trkpt><trkpt lat="43.49587166816042" lon="12.476219474026625"><ele>620.0</ele><time>2026-05-01T11:03:40Z</time></trkpt><trkpt lat="43.495845376246265" lon="12.4763212641566"><ele>620.0</ele><time>2026-05-01T11:03:41Z</time></trkpt><trkpt lat="43.495811521927706" lon="12.476434589300379"><ele>620.0</ele><time>2026-05-01T11:03:42Z</time></trkpt><trkpt lat="43.495774637279276" lon="12.476549468227212"><ele>619.2</ele><time>2026-05-01T11:03:43Z</time></trkpt><trkpt lat="43.495739311841376" lon="12.4766685466375"><ele>618.4</ele><time>2026-05-01T11:03:44Z</time></trkpt><trkpt lat="43.49570697241444" lon="12.476791950528966"><ele>617.6</ele><time>2026-05-01T11:03:45Z</time></trkpt><trkpt lat="43.495676670216525" lon="12.476916272316242"><ele>616.8</ele><time>2026-05-01T11:03:46Z</time></trkpt><trkpt lat="43.49563794034636" lon="12.477015813188434"><ele>616.0</ele><time>2026-05-01T11:03:47Z</time></trkpt><trkpt lat="43.49560788389262" lon="12.47712752952791"><ele>616.0</ele><time>2026-05-01T11:03:48Z</time></trkpt><trkpt lat="43.495585864358176" lon="12.477253107378258"><ele>616.0</ele><time>2026-05-01T11:03:49Z</time></trkpt><trkpt lat="43.495551640561295" lon="12.477376812529538"><ele>616.0</ele><time>2026-05-01T11:03:50Z</time></trkpt><trkpt lat="43.49553319311627" lon="12.477496724032472"><ele>616.0</ele><time>2026-05-01T11:03:51Z</time></trkpt><trkpt lat="43.495514587523196" lon="12.47762125899943"><ele>616.0</ele><time>2026-05-01T11:03:52Z</time></trkpt><trkpt lat="43.49550108257846" lon="12.47775249078744"><ele>616.0</ele><time>2026-05-01T11:03:53Z</time></trkpt><trkpt lat="43.49550542583196" lon="12.477897734395395"><ele>616.0</ele><time>2026-05-01T11:03:54Z</time></trkpt><trkpt lat="43.49552306643094" lon="12.478037254591799"><ele>616.0</ele><time>2026-05-01T11:03:55Z</time></trkpt><trkpt lat="43.495538664961146" lon="12.478165476601509"><ele>616.0</ele><time>2026-05-01T11:03:56Z</time></trkpt><trkpt lat="43.49555299236266" lon="12.478280608604255"><ele>616.0</ele><time>2026-05-01T11:03:57Z</time></trkpt><trkpt lat="43.49555163254302" lon="12.47838859710761"><ele>616.1666666666667</ele><time>2026-05-01T11:03:58Z</time></trkpt><trkpt lat="43.49552483684849" lon="12.478479522723354"><ele>616.3333333333334</ele><time>2026-05-01T11:03:59Z</time></trkpt><trkpt lat="43.49541340512312" lon="12.478542512165143"><ele>616.5</ele><time>2026-05-01T11:04:01Z</time></trkpt><trkpt lat="43.495350356103316" lon="12.47851321077378"><ele>616.6666666666666</ele><time>2026-05-01T11:04:02Z</time></trkpt><trkpt lat="43.495290575667916" lon="12.478473480996307"><ele>616.8333333333333</ele><time>2026-05-01T11:04:03Z</time></trkpt><trkpt lat="43.4952221113902" lon="12.478462076672766"><ele>617.0</ele><time>2026-05-01T11:04:04Z</time></trkpt><trkpt lat="43.49515169397205" lon="12.478481191344523"><ele>614.2</ele><time>2026-05-01T11:04:05Z</time></trkpt><trkpt lat="43.49508422321543" lon="12.478531273471296"><ele>611.4000000000001</ele><time>2026-05-01T11:04:06Z</time></trkpt><trkpt lat="43.49502541325593" lon="12.478601248379375"><ele>608.5999999999999</ele><time>2026-05-01T11:04:07Z</time></trkpt><trkpt lat="43.494954178434455" lon="12.478721231931399"><ele>605.8</ele><time>2026-05-01T11:04:09Z</time></trkpt><trkpt lat="43.49494250664768" lon="12.478877076302153"><ele>603.0</ele><time>2026-05-01T11:04:11Z</time></trkpt><trkpt lat="43.494954474328466" lon="12.478975595156648"><ele>603.0</ele><time>2026-05-01T11:04:12Z</time></trkpt><trkpt lat="43.49496445207749" lon="12.479091445941249"><ele>603.0</ele><time>2026-05-01T11:04:13Z</time></trkpt><trkpt lat="43.49496498333749" lon="12.479204304148622"><ele>603.0</ele><time>2026-05-01T11:04:14Z</time></trkpt><trkpt lat="43.49495515086389" lon="12.479310610318807"><ele>603.0</ele><time>2026-05-01T11:04:15Z</time></trkpt><trkpt lat="43.49493256023209" lon="12.479404844712334"><ele>603.0</ele><time>2026-05-01T11:04:16Z</time></trkpt><trkpt lat="43.49486752551533" lon="12.479506907265034"><ele>603.0</ele><time>2026-05-01T11:04:17Z</time></trkpt><trkpt lat="43.49478512036958" lon="12.47960475470819"><ele>604.75</ele><time>2026-05-01T11:04:18Z</time></trkpt><trkpt lat="43.49469536692265" lon="12.479695004384945"><ele>606.5</ele><time>2026-05-01T11:04:19Z</time></trkpt><trkpt lat="43.49460064090904" lon="12.479778354865841"><ele>608.25</ele><time>2026-05-01T11:04:20Z</time></trkpt><trkpt lat="43.49450406281942" lon="12.479871487795322"><ele>610.0</ele><time>2026-05-01T11:04:21Z</time></trkpt><trkpt lat="43.49440690677578" lon="12.479963533821726"><ele>604.0</ele><time>2026-05-01T11:04:22Z</time></trkpt><trkpt lat="43.49431339510844" lon="12.480052795840441"><ele>598.0</ele><time>2026-05-01T11:04:23Z</time></trkpt><trkpt lat="43.494218402021986" lon="12.480130102653618"><ele>592.0</ele><time>2026-05-01T11:04:24Z</time></trkpt><trkpt lat="43.49412274563139" lon="12.480203499625759"><ele>586.0</ele><time>2026-05-01T11:04:25Z</time></trkpt><trkpt lat="43.49403029229013" lon="12.480275063374325"><ele>580.0</ele><time>2026-05-01T11:04:26Z</time></trkpt><trkpt lat="43.493943846432835" lon="12.480341853544985"><ele>580.0</ele><time>2026-05-01T11:04:27Z</time></trkpt><trkpt lat="43.49385782766647" lon="12.480415431119933"><ele>580.0</ele><time>2026-05-01T11:04:28Z</time></trkpt><trkpt lat="43.49378339805812" lon="12.480500358032755"><ele>580.0</ele><time>2026-05-01T11:04:29Z</time></trkpt><trkpt lat="43.49371562592775" lon="12.480609686307506"><ele>580.0</ele><time>2026-05-01T11:04:30Z</time></trkpt><trkpt lat="43.493653227154375" lon="12.480733148220162"><ele>580.0</ele><time>2026-05-01T11:04:31Z</time></trkpt><trkpt lat="43.49359581615172" lon="12.480859986736316"><ele>578.6666666666667</ele><time>2026-05-01T11:04:32Z</time></trkpt><trkpt lat="43.493541926265" lon="12.48097542923503"><ele>577.3333333333334</ele><time>2026-05-01T11:04:33Z</time></trkpt><trkpt lat="43.49349405761357" lon="12.481082776127007"><ele>576.0</ele><time>2026-05-01T11:04:34Z</time></trkpt><trkpt lat="43.49345207995282" lon="12.481191302890762"><ele>574.6666666666666</ele><time>2026-05-01T11:04:35Z</time></trkpt><trkpt lat="43.493424616628204" lon="12.481301505916269"><ele>573.3333333333333</ele><time>2026-05-01T11:04:36Z</time></trkpt><trkpt lat="43.49340381306727" lon="12.481411886541647"><ele>572.0</ele><time>2026-05-01T11:04:37Z</time></trkpt><trkpt lat="43.493379743693175" lon="12.481519622983276"><ele>572.0</ele><time>2026-05-01T11:04:38Z</time></trkpt><trkpt lat="43.49334805854478" lon="12.481632488899546"><ele>572.0</ele><time>2026-05-01T11:04:39Z</time></trkpt><trkpt lat="43.49331535208489" lon="12.481745881900572"><ele>572.0</ele><time>2026-05-01T11:04:40Z</time></trkpt><trkpt lat="43.493278362069596" lon="12.481837401018698"><ele>572.0</ele><time>2026-05-01T11:04:41Z</time></trkpt><trkpt lat="43.49324467333865" lon="12.481932068598146"><ele>572.0</ele><time>2026-05-01T11:04:42Z</time></trkpt><trkpt lat="43.49321422648511" lon="12.482024567484657"><ele>572.0</ele><time>2026-05-01T11:04:43Z</time></trkpt><trkpt lat="43.493174821338116" lon="12.482111554293963"><ele>573.2</ele><time>2026-05-01T11:04:44Z</time></trkpt><trkpt lat="43.493129683652" lon="12.482200004763737"><ele>574.4000000000001</ele><time>2026-05-01T11:04:45Z</time></trkpt><trkpt lat="43.49307477008059" lon="12.482335105731684"><ele>575.5999999999999</ele><time>2026-05-01T11:04:47Z</time></trkpt><trkpt lat="43.49302218074767" lon="12.482453740558475"><ele>576.8</ele><time>2026-05-01T11:04:49Z</time></trkpt><trkpt lat="43.492981945765386" lon="12.482520521488235"><ele>578.0</ele><time>2026-05-01T11:04:50Z</time></trkpt><trkpt lat="43.49290177639706" lon="12.482642100604838"><ele>573.6</ele><time>2026-05-01T11:04:52Z</time></trkpt><trkpt lat="43.492847041298624" lon="12.48277804299004"><ele>569.1999999999999</ele><time>2026-05-01T11:04:54Z</time></trkpt><trkpt lat="43.492809033117375" lon="12.48292544611217"><ele>564.8</ele><time>2026-05-01T11:04:56Z</time></trkpt><trkpt lat="43.492777135326065" lon="12.48309216503312"><ele>560.4</ele><time>2026-05-01T11:04:58Z</time></trkpt><trkpt lat="43.49275767822159" lon="12.483175750959148"><ele>556.0</ele><time>2026-05-01T11:04:59Z</time></trkpt><trkpt lat="43.4927481117234" lon="12.48326181559178"><ele>555.6</ele><time>2026-05-01T11:05:00Z</time></trkpt><trkpt lat="43.49274908796105" lon="12.483349050122262"><ele>555.2</ele><time>2026-05-01T11:05:01Z</time></trkpt><trkpt lat="43.49277344707294" lon="12.483504038390121"><ele>554.8</ele><time>2026-05-01T11:05:03Z</time></trkpt><trkpt lat="43.492817088210174" lon="12.483663823625648"><ele>554.4</ele><time>2026-05-01T11:05:05Z</time></trkpt><trkpt lat="43.49285633182199" lon="12.483819156611315"><ele>554.0</ele><time>2026-05-01T11:05:07Z</time></trkpt><trkpt lat="43.492898927528486" lon="12.483965255856344"><ele>553.8333333333333</ele><time>2026-05-01T11:05:09Z</time></trkpt><trkpt lat="43.49293973886565" lon="12.484127153746535"><ele>553.6666666666666</ele><time>2026-05-01T11:05:11Z</time></trkpt><trkpt lat="43.49294843552571" lon="12.484213836779537"><ele>553.5</ele><time>2026-05-01T11:05:12Z</time></trkpt><trkpt lat="43.49293929308364" lon="12.484299790920874"><ele>553.3333333333334</ele><time>2026-05-01T11:05:13Z</time></trkpt><trkpt lat="43.4929214478847" lon="12.484388711483291"><ele>553.1666666666667</ele><time>2026-05-01T11:05:14Z</time></trkpt><trkpt lat="43.492897179214836" lon="12.484476505933918"><ele>553.0</ele><time>2026-05-01T11:05:15Z</time></trkpt><trkpt lat="43.49285139581171" lon="12.484551496940862"><ele>553.6666666666667</ele><time>2026-05-01T11:05:16Z</time></trkpt><trkpt lat="43.49280939384188" lon="12.484626798628613"><ele>554.3333333333334</ele><time>2026-05-01T11:05:17Z</time></trkpt><trkpt lat="43.492759140661704" lon="12.484702644338697"><ele>555.0</ele><time>2026-05-01T11:05:18Z</time></trkpt><trkpt lat="43.49271301154021" lon="12.484800894159367"><ele>555.6666666666666</ele><time>2026-05-01T11:05:19Z</time></trkpt><trkpt lat="43.49267010804455" lon="12.484916561690202"><ele>556.3333333333333</ele><time>2026-05-01T11:05:20Z</time></trkpt><trkpt lat="43.492635329246696" lon="12.485042609478143"><ele>557.0</ele><time>2026-05-01T11:05:21Z</time></trkpt><trkpt lat="43.49259772534903" lon="12.485173775892527"><ele>557.0</ele><time>2026-05-01T11:05:22Z</time></trkpt><trkpt lat="43.49255406304911" lon="12.485300987270456"><ele>557.0</ele><time>2026-05-01T11:05:23Z</time></trkpt><trkpt lat="43.49250251754629" lon="12.485426728244859"><ele>557.0</ele><time>2026-05-01T11:05:24Z</time></trkpt><trkpt lat="43.49244272061055" lon="12.485543432658623"><ele>557.0</ele><time>2026-05-01T11:05:25Z</time></trkpt><trkpt lat="43.49238256706719" lon="12.485655826853426"><ele>557.0</ele><time>2026-05-01T11:05:26Z</time></trkpt><trkpt lat="43.49231893443482" lon="12.48575921392595"><ele>558.4</ele><time>2026-05-01T11:05:27Z</time></trkpt><trkpt lat="43.49226347160279" lon="12.485858637522064"><ele>559.8000000000001</ele><time>2026-05-01T11:05:28Z</time></trkpt><trkpt lat="43.492208885667125" lon="12.485949811130928"><ele>561.2</ele><time>2026-05-01T11:05:29Z</time></trkpt><trkpt lat="43.49215601805412" lon="12.486046973414892"><ele>562.6</ele><time>2026-05-01T11:05:30Z</time></trkpt><trkpt lat="43.49211183553032" lon="12.486166034033289"><ele>564.0</ele><time>2026-05-01T11:05:31Z</time></trkpt><trkpt lat="43.49207768757329" lon="12.486291196424268"><ele>557.4</ele><time>2026-05-01T11:05:32Z</time></trkpt><trkpt lat="43.49203739599911" lon="12.486430116954056"><ele>550.8</ele><time>2026-05-01T11:05:33Z</time></trkpt><trkpt lat="43.49198415767758" lon="12.486573567630447"><ele>544.2</ele><time>2026-05-01T11:05:34Z</time></trkpt><trkpt lat="43.49194474878147" lon="12.486709490632894"><ele>537.6</ele><time>2026-05-01T11:05:35Z</time></trkpt><trkpt lat="43.491913658537456" lon="12.4868450720006"><ele>531.0</ele><time>2026-05-01T11:05:36Z</time></trkpt><trkpt lat="43.49189250963334" lon="12.486973261893384"><ele>531.0</ele><time>2026-05-01T11:05:37Z</time></trkpt><trkpt lat="43.49187437302293" lon="12.487093642463144"><ele>531.0</ele><time>2026-05-01T11:05:38Z</time></trkpt><trkpt lat="43.49186624785138" lon="12.487197738073569"><ele>531.0</ele><time>2026-05-01T11:05:39Z</time></trkpt><trkpt lat="43.49188136262215" lon="12.487283819348939"><ele>531.0</ele><time>2026-05-01T11:05:40Z</time></trkpt><trkpt lat="43.49191423830614" lon="12.487365618393627"><ele>531.0</ele><time>2026-05-01T11:05:41Z</time></trkpt><trkpt lat="43.49197838930277" lon="12.48743185442919"><ele>531.0</ele><time>2026-05-01T11:05:42Z</time></trkpt><trkpt lat="43.49206538889273" lon="12.487482103986137"><ele>534.4</ele><time>2026-05-01T11:05:43Z</time></trkpt><trkpt lat="43.49213269487623" lon="12.487550507284768"><ele>537.8</ele><time>2026-05-01T11:05:44Z</time></trkpt><trkpt lat="43.49218737792645" lon="12.487632772763984"><ele>541.1999999999999</ele><time>2026-05-01T11:05:45Z</time></trkpt><trkpt lat="43.492226402173856" lon="12.487744846991111"><ele>544.6</ele><time>2026-05-01T11:05:46Z</time></trkpt><trkpt lat="43.49222950130216" lon="12.487839858521296"><ele>548.0</ele><time>2026-05-01T11:05:47Z</time></trkpt><trkpt lat="43.49214219196035" lon="12.48799692679895"><ele>543.8333333333333</ele><time>2026-05-01T11:05:49Z</time></trkpt><trkpt lat="43.492058495995494" lon="12.48805459062228"><ele>539.6666666666666</ele><time>2026-05-01T11:05:50Z</time></trkpt><trkpt lat="43.49197999059165" lon="12.48812215778971"><ele>535.5</ele><time>2026-05-01T11:05:51Z</time></trkpt><trkpt lat="43.491904013687936" lon="12.488196828045716"><ele>531.3333333333334</ele><time>2026-05-01T11:05:52Z</time></trkpt><trkpt lat="43.49183466729044" lon="12.488273962529911"><ele>527.1666666666667</ele><time>2026-05-01T11:05:53Z</time></trkpt><trkpt lat="43.49178105672653" lon="12.488346918269329"><ele>523.0</ele><time>2026-05-01T11:05:54Z</time></trkpt><trkpt lat="43.49173134299398" lon="12.488415928285503"><ele>523.0</ele><time>2026-05-01T11:05:55Z</time></trkpt><trkpt lat="43.49170246918587" lon="12.488495455808305"><ele>523.0</ele><time>2026-05-01T11:05:56Z</time></trkpt><trkpt lat="43.491676646921704" lon="12.488575403061338"><ele>523.0</ele><time>2026-05-01T11:05:57Z</time></trkpt><trkpt lat="43.49162751114224" lon="12.488656169602294"><ele>523.0</ele><time>2026-05-01T11:05:58Z</time></trkpt><trkpt lat="43.491587415547656" lon="12.488795778743073"><ele>523.0</ele><time>2026-05-01T11:06:00Z</time></trkpt><trkpt lat="43.49155728104372" lon="12.488894066480398"><ele>523.0</ele><time>2026-05-01T11:06:02Z</time></trkpt><trkpt lat="43.49153930172615" lon="12.488984201484115"><ele>523.0</ele><time>2026-05-01T11:06:04Z</time></trkpt><trkpt lat="43.49151508029201" lon="12.489157313861167"><ele>523.0</ele><time>2026-05-01T11:06:06Z</time></trkpt><trkpt lat="43.49152103212732" lon="12.489280223616111"><ele>523.0</ele><time>2026-05-01T11:06:07Z</time></trkpt><trkpt lat="43.49153012021801" lon="12.489394800288746"><ele>523.0</ele><time>2026-05-01T11:06:08Z</time></trkpt><trkpt lat="43.491544357124305" lon="12.489515690454772"><ele>523.0</ele><time>2026-05-01T11:06:09Z</time></trkpt><trkpt lat="43.49157623484193" lon="12.489644336507055"><ele>521.4</ele><time>2026-05-01T11:06:10Z</time></trkpt><trkpt lat="43.49161568094382" lon="12.489768755959666"><ele>519.8</ele><time>2026-05-01T11:06:11Z</time></trkpt><trkpt lat="43.491667826619455" lon="12.489903182134414"><ele>518.2</ele><time>2026-05-01T11:06:12Z</time></trkpt><trkpt lat="43.4917232784278" lon="12.490030866871196"><ele>516.6</ele><time>2026-05-01T11:06:13Z</time></trkpt><trkpt lat="43.49178274898998" lon="12.490162892672082"><ele>515.0</ele><time>2026-05-01T11:06:14Z</time></trkpt><trkpt lat="43.491840278364265" lon="12.490297375612784"><ele>513.2</ele><time>2026-05-01T11:06:15Z</time></trkpt><trkpt lat="43.49189570118903" lon="12.490425155468856"><ele>511.4</ele><time>2026-05-01T11:06:16Z</time></trkpt><trkpt lat="43.4919461953809" lon="12.49053256817409"><ele>509.6</ele><time>2026-05-01T11:06:17Z</time></trkpt><trkpt lat="43.49198362055517" lon="12.490624187665526"><ele>507.8</ele><time>2026-05-01T11:06:18Z</time></trkpt><trkpt lat="43.49201264967058" lon="12.490704116978097"><ele>506.0</ele><time>2026-05-01T11:06:19Z</time></trkpt><trkpt lat="43.49207551915082" lon="12.490848085416829"><ele>506.8333333333333</ele><time>2026-05-01T11:06:21Z</time></trkpt><trkpt lat="43.49211960256403" lon="12.490926396355343"><ele>507.66666666666663</ele><time>2026-05-01T11:06:22Z</time></trkpt><trkpt lat="43.49216510603453" lon="12.491016327357853"><ele>508.5</ele><time>2026-05-01T11:06:23Z</time></trkpt><trkpt lat="43.49221736290917" lon="12.491111318754129"><ele>509.33333333333337</ele><time>2026-05-01T11:06:24Z</time></trkpt><trkpt lat="43.492273671800305" lon="12.491190950737582"><ele>510.1666666666667</ele><time>2026-05-01T11:06:25Z</time></trkpt><trkpt lat="43.4923256343199" lon="12.491272300191358"><ele>511.0</ele><time>2026-05-01T11:06:26Z</time></trkpt><trkpt lat="43.492376072229696" lon="12.491345156294075"><ele>511.00000000000006</ele><time>2026-05-01T11:06:27Z</time></trkpt><trkpt lat="43.49243046329405" lon="12.491446088162338"><ele>511.0</ele><time>2026-05-01T11:06:29Z</time></trkpt><trkpt lat="43.49240561724754" lon="12.491526736740953"><ele>511.0</ele><time>2026-05-01T11:06:31Z</time></trkpt><trkpt lat="43.49234772635218" lon="12.491583079428597"><ele>511.0</ele><time>2026-05-01T11:06:33Z</time></trkpt><trkpt lat="43.492258472107295" lon="12.491637731823634"><ele>511.00000000000006</ele><time>2026-05-01T11:06:35Z</time></trkpt><trkpt lat="43.49216751485616" lon="12.491702663012273"><ele>511.0</ele><time>2026-05-01T11:06:37Z</time></trkpt><trkpt lat="43.492072119004526" lon="12.491771500987475"><ele>509.6</ele><time>2026-05-01T11:06:39Z</time></trkpt><trkpt lat="43.491986617869074" lon="12.49182674292034"><ele>508.20000000000005</ele><time>2026-05-01T11:06:41Z</time></trkpt><trkpt lat="43.49191005502497" lon="12.491886783667498"><ele>506.79999999999995</ele><time>2026-05-01T11:06:43Z</time></trkpt><trkpt lat="43.491835614485964" lon="12.491877408078276"><ele>505.4</ele><time>2026-05-01T11:06:45Z</time></trkpt><trkpt lat="43.4917455867106" lon="12.491817560288395"><ele>504.0</ele><time>2026-05-01T11:06:47Z</time></trkpt><trkpt lat="43.491673141607414" lon="12.491710143135636"><ele>504.0</ele><time>2026-05-01T11:06:49Z</time></trkpt><trkpt lat="43.49160599927185" lon="12.491604486265885"><ele>504.0</ele><time>2026-05-01T11:06:51Z</time></trkpt><trkpt lat="43.49153290663909" lon="12.491526892619712"><ele>504.0</ele><time>2026-05-01T11:06:53Z</time></trkpt><trkpt lat="43.49143162561982" lon="12.491499290569031"><ele>504.0</ele><time>2026-05-01T11:06:55Z</time></trkpt><trkpt lat="43.49133282412073" lon="12.491473296209602"><ele>504.0</ele><time>2026-05-01T11:06:57Z</time></trkpt><trkpt lat="43.49124495208865" lon="12.491373390993683"><ele>504.5</ele><time>2026-05-01T11:06:59Z</time></trkpt><trkpt lat="43.49118674739886" lon="12.491313574794056"><ele>505.0</ele><time>2026-05-01T11:07:00Z</time></trkpt><trkpt lat="43.49111720492481" lon="12.491244310401536"><ele>505.5</ele><time>2026-05-01T11:07:01Z</time></trkpt><trkpt lat="43.49105143781485" lon="12.491181937788692"><ele>506.0</ele><time>2026-05-01T11:07:02Z</time></trkpt><trkpt lat="43.49098629102044" lon="12.491122359346802"><ele>506.5</ele><time>2026-05-01T11:07:03Z</time></trkpt><trkpt lat="43.490922311452564" lon="12.491063848405638"><ele>507.0</ele><time>2026-05-01T11:07:04Z</time></trkpt><trkpt lat="43.49086307657354" lon="12.49101021568517"><ele>507.0</ele><time>2026-05-01T11:07:05Z</time></trkpt><trkpt lat="43.4908020402786" lon="12.490957509776063"><ele>507.0</ele><time>2026-05-01T11:07:06Z</time></trkpt><trkpt lat="43.49073695311427" lon="12.4909110002198"><ele>507.0</ele><time>2026-05-01T11:07:07Z</time></trkpt><trkpt lat="43.49067452681603" lon="12.49086052406546"><ele>507.0</ele><time>2026-05-01T11:07:08Z</time></trkpt><trkpt lat="43.490613923700444" lon="12.49080823348639"><ele>507.0</ele><time>2026-05-01T11:07:09Z</time></trkpt><trkpt lat="43.49054883445094" lon="12.490756799257484"><ele>507.0</ele><time>2026-05-01T11:07:10Z</time></trkpt><trkpt lat="43.49048053901158" lon="12.490713407438554"><ele>507.0</ele><time>2026-05-01T11:07:11Z</time></trkpt><trkpt lat="43.49041205565159" lon="12.49068163523622"><ele>508.1666666666667</ele><time>2026-05-01T11:07:12Z</time></trkpt><trkpt lat="43.490338110373266" lon="12.490654461069726"><ele>509.33333333333337</ele><time>2026-05-01T11:07:13Z</time></trkpt><trkpt lat="43.49026138231026" lon="12.49063185094864"><ele>510.5</ele><time>2026-05-01T11:07:14Z</time></trkpt><trkpt lat="43.49018616463414" lon="12.490611835981664"><ele>511.6666666666667</ele><time>2026-05-01T11:07:15Z</time></trkpt><trkpt lat="43.49011068794082" lon="12.490588617096254"><ele>512.8333333333334</ele><time>2026-05-01T11:07:16Z</time></trkpt><trkpt lat="43.490042699186276" lon="12.490558338313814"><ele>514.0</ele><time>2026-05-01T11:07:17Z</time></trkpt><trkpt lat="43.48996956626507" lon="12.490569289877026"><ele>514.0</ele><time>2026-05-01T11:07:18Z</time></trkpt><trkpt lat="43.489901539677525" lon="12.49052789582673"><ele>514.0</ele><time>2026-05-01T11:07:19Z</time></trkpt><trkpt lat="43.48982702678012" lon="12.490516223351097"><ele>514.0</ele><time>2026-05-01T11:07:20Z</time></trkpt><trkpt lat="43.48976251081243" lon="12.490461123679477"><ele>514.0</ele><time>2026-05-01T11:07:21Z</time></trkpt><trkpt lat="43.48971768538923" lon="12.49038305120747"><ele>514.0</ele><time>2026-05-01T11:07:22Z</time></trkpt><trkpt lat="43.48966146181391" lon="12.490339744343832"><ele>514.0</ele><time>2026-05-01T11:07:23Z</time></trkpt><trkpt lat="43.48957444764713" lon="12.490248705194164"><ele>513.6666666666667</ele><time>2026-05-01T11:07:25Z</time></trkpt><trkpt lat="43.48947134771585" lon="12.490186500133461"><ele>513.3333333333334</ele><time>2026-05-01T11:07:27Z</time></trkpt><trkpt lat="43.48940503202416" lon="12.490194598315735"><ele>513.0</ele><time>2026-05-01T11:07:28Z</time></trkpt><trkpt lat="43.48933978115745" lon="12.490218400837307"><ele>512.6666666666666</ele><time>2026-05-01T11:07:29Z</time></trkpt><trkpt lat="43.4892729967596" lon="12.49026162568737"><ele>512.3333333333333</ele><time>2026-05-01T11:07:30Z</time></trkpt><trkpt lat="43.48920764132331" lon="12.490312564990761"><ele>512.0</ele><time>2026-05-01T11:07:31Z</time></trkpt><trkpt lat="43.48912991801723" lon="12.490361800399043"><ele>511.99999999999994</ele><time>2026-05-01T11:07:32Z</time></trkpt><trkpt lat="43.48904095055164" lon="12.490413734857079"><ele>512.0</ele><time>2026-05-01T11:07:33Z</time></trkpt><trkpt lat="43.4889536869432" lon="12.490457485954893"><ele>512.0</ele><time>2026-05-01T11:07:34Z</time></trkpt><trkpt lat="43.488882346386674" lon="12.49048671892191"><ele>512.0</ele><time>2026-05-01T11:07:35Z</time></trkpt><trkpt lat="43.48880940221278" lon="12.490515960397383"><ele>511.99999999999994</ele><time>2026-05-01T11:07:36Z</time></trkpt><trkpt lat="43.48874091562371" lon="12.49053577038076"><ele>512.0</ele><time>2026-05-01T11:07:37Z</time></trkpt><trkpt lat="43.48867007383143" lon="12.490539889887959"><ele>512.6666666666666</ele><time>2026-05-01T11:07:38Z</time></trkpt><trkpt lat="43.48859005683581" lon="12.490526057299325"><ele>513.3333333333333</ele><time>2026-05-01T11:07:39Z</time></trkpt><trkpt lat="43.48850615635579" lon="12.490490514433372"><ele>514.0</ele><time>2026-05-01T11:07:40Z</time></trkpt><trkpt lat="43.488430851772755" lon="12.490449925218693"><ele>514.6666666666666</ele><time>2026-05-01T11:07:41Z</time></trkpt><trkpt lat="43.48835849375717" lon="12.49040986402349"><ele>515.3333333333334</ele><time>2026-05-01T11:07:42Z</time></trkpt><trkpt lat="43.48828486397093" lon="12.490378484812183"><ele>516.0</ele><time>2026-05-01T11:07:43Z</time></trkpt><trkpt lat="43.488215749302015" lon="12.490320181211311"><ele>516.0</ele><time>2026-05-01T11:07:44Z</time></trkpt><trkpt lat="43.48813733669501" lon="12.490277475771386"><ele>516.0</ele><time>2026-05-01T11:07:45Z</time></trkpt><trkpt lat="43.488051907738146" lon="12.490244811030937"><ele>516.0</ele><time>2026-05-01T11:07:46Z</time></trkpt><trkpt lat="43.487972053337415" lon="12.490212670420547"><ele>516.0</ele><time>2026-05-01T11:07:47Z</time></trkpt><trkpt lat="43.48789734886477" lon="12.49018553883823"><ele>516.0</ele><time>2026-05-01T11:07:48Z</time></trkpt><trkpt lat="43.487811745396286" lon="12.490179294498166"><ele>516.0</ele><time>2026-05-01T11:07:49Z</time></trkpt><trkpt lat="43.48773015706337" lon="12.490174175687725"><ele>517.5</ele><time>2026-05-01T11:07:50Z</time></trkpt><trkpt lat="43.487644909264105" lon="12.490163922617604"><ele>519.0</ele><time>2026-05-01T11:07:51Z</time></trkpt><trkpt lat="43.487572702623176" lon="12.490155777816254"><ele>520.5</ele><time>2026-05-01T11:07:52Z</time></trkpt><trkpt lat="43.48749621010844" lon="12.490161188485184"><ele>522.0</ele><time>2026-05-01T11:07:53Z</time></trkpt><trkpt lat="43.48742030731355" lon="12.490178215838768"><ele>523.5</ele><time>2026-05-01T11:07:54Z</time></trkpt><trkpt lat="43.48734343910689" lon="12.490192981446075"><ele>525.0</ele><time>2026-05-01T11:07:55Z</time></trkpt><trkpt lat="43.487269185717246" lon="12.49022118550164"><ele>525.0</ele><time>2026-05-01T11:07:56Z</time></trkpt><trkpt lat="43.48719056977243" lon="12.49026056143706"><ele>525.0</ele><time>2026-05-01T11:07:57Z</time></trkpt><trkpt lat="43.48711593126069" lon="12.490304047646099"><ele>525.0</ele><time>2026-05-01T11:07:58Z</time></trkpt><trkpt lat="43.4870436051664" lon="12.490359866430163"><ele>525.0</ele><time>2026-05-01T11:07:59Z</time></trkpt><trkpt lat="43.48697277418202" lon="12.490423905790765"><ele>525.0</ele><time>2026-05-01T11:07:59.999Z</time></trkpt><trkpt lat="43.4868951587683" lon="12.490492050159665"><ele>525.0</ele><time>2026-05-01T11:08:00.999Z</time></trkpt><trkpt lat="43.486810667055856" lon="12.490562372952981"><ele>524.8333333333334</ele><time>2026-05-01T11:08:01.999Z</time></trkpt><trkpt lat="43.486725430412015" lon="12.49062783440885"><ele>524.6666666666666</ele><time>2026-05-01T11:08:02.999Z</time></trkpt><trkpt lat="43.48664760597864" lon="12.490676884938244"><ele>524.5</ele><time>2026-05-01T11:08:03.999Z</time></trkpt><trkpt lat="43.4865699072956" lon="12.490731899355772"><ele>524.3333333333333</ele><time>2026-05-01T11:08:04.999Z</time></trkpt><trkpt lat="43.48650306089736" lon="12.490788848752985"><ele>524.1666666666666</ele><time>2026-05-01T11:08:05.999Z</time></trkpt><trkpt lat="43.4864348268688" lon="12.490840124974566"><ele>524.0</ele><time>2026-05-01T11:08:06.999Z</time></trkpt><trkpt lat="43.48637368964641" lon="12.490879877825938"><ele>524.0</ele><time>2026-05-01T11:08:07.999Z</time></trkpt><trkpt lat="43.48631211380771" lon="12.490929919088124"><ele>524.0</ele><time>2026-05-01T11:08:08.999Z</time></trkpt><trkpt lat="43.48621013742065" lon="12.49104425691219"><ele>524.0</ele><time>2026-05-01T11:08:10.999Z</time></trkpt><trkpt lat="43.48615177621085" lon="12.491111909655835"><ele>524.0</ele><time>2026-05-01T11:08:11.999Z</time></trkpt><trkpt lat="43.486106205952204" lon="12.491202308007793"><ele>524.0</ele><time>2026-05-01T11:08:12.999Z</time></trkpt><trkpt lat="43.48605063548897" lon="12.49128520836829"><ele>524.0</ele><time>2026-05-01T11:08:13.999Z</time></trkpt><trkpt lat="43.48599612426499" lon="12.491377785207687"><ele>524.0</ele><time>2026-05-01T11:08:14.999Z</time></trkpt><trkpt lat="43.48593358853898" lon="12.491463241642283"><ele>524.0</ele><time>2026-05-01T11:08:15.999Z</time></trkpt><trkpt lat="43.485867278947595" lon="12.491530832692078"><ele>524.0</ele><time>2026-05-01T11:08:16.999Z</time></trkpt><trkpt lat="43.48580731211726" lon="12.491599534108126"><ele>524.0</ele><time>2026-05-01T11:08:18Z</time></trkpt><trkpt lat="43.48574373054314" lon="12.491653497676216"><ele>524.0</ele><time>2026-05-01T11:08:19Z</time></trkpt><trkpt lat="43.48565945240599" lon="12.49176211630481"><ele>524.0</ele><time>2026-05-01T11:08:21Z</time></trkpt><trkpt lat="43.4855897669455" lon="12.491792270824352"><ele>524.0</ele><time>2026-05-01T11:08:23Z</time></trkpt><trkpt lat="43.485579225887804" lon="12.491901612397927"><ele>524.0</ele><time>2026-05-01T11:08:25Z</time></trkpt><trkpt lat="43.48565275698967" lon="12.491999133497341"><ele>524.0</ele><time>2026-05-01T11:08:27Z</time></trkpt><trkpt lat="43.48576454101207" lon="12.492034828904808"><ele>524.0</ele><time>2026-05-01T11:08:29Z</time></trkpt><trkpt lat="43.4858503755766" lon="12.492059296197027"><ele>524.0</ele><time>2026-05-01T11:08:30Z</time></trkpt><trkpt lat="43.48596833275938" lon="12.492099625504295"><ele>527.0</ele><time>2026-05-01T11:08:31Z</time></trkpt><trkpt lat="43.48607424484776" lon="12.492140412174313"><ele>530.0</ele><time>2026-05-01T11:08:32Z</time></trkpt><trkpt lat="43.4861851532948" lon="12.492186020402118"><ele>533.0</ele><time>2026-05-01T11:08:33Z</time></trkpt><trkpt lat="43.48629936546237" lon="12.492221664208191"><ele>536.0</ele><time>2026-05-01T11:08:34Z</time></trkpt><trkpt lat="43.48638970809804" lon="12.49225881162753"><ele>539.0</ele><time>2026-05-01T11:08:35Z</time></trkpt><trkpt lat="43.4864708878761" lon="12.492294378718407"><ele>540.6666666666666</ele><time>2026-05-01T11:08:36Z</time></trkpt><trkpt lat="43.48654607335265" lon="12.492321310123257"><ele>542.3333333333333</ele><time>2026-05-01T11:08:37Z</time></trkpt><trkpt lat="43.48662692113764" lon="12.49232725256525"><ele>544.0</ele><time>2026-05-01T11:08:38Z</time></trkpt><trkpt lat="43.486709201365144" lon="12.492297568846405"><ele>545.6666666666666</ele><time>2026-05-01T11:08:39Z</time></trkpt><trkpt lat="43.48677709156788" lon="12.492235638578059"><ele>547.3333333333334</ele><time>2026-05-01T11:08:40Z</time></trkpt><trkpt lat="43.486851220807694" lon="12.492176528458103"><ele>549.0</ele><time>2026-05-01T11:08:41Z</time></trkpt><trkpt lat="43.48691273084861" lon="12.492118156647505"><ele>549.0</ele><time>2026-05-01T11:08:42Z</time></trkpt><trkpt lat="43.48699650016038" lon="12.492017080501347"><ele>549.0</ele><time>2026-05-01T11:08:44Z</time></trkpt><trkpt lat="43.48706329120141" lon="12.492003495711975"><ele>549.0</ele><time>2026-05-01T11:08:46Z</time></trkpt><trkpt lat="43.487045175763804" lon="12.492171482271749"><ele>549.0</ele><time>2026-05-01T11:08:50Z</time></trkpt><trkpt lat="43.48695668802898" lon="12.492290315409498"><ele>549.0</ele><time>2026-05-01T11:08:52Z</time></trkpt><trkpt lat="43.48690583770817" lon="12.492371801223351"><ele>549.0</ele><time>2026-05-01T11:08:53Z</time></trkpt><trkpt lat="43.48685197157477" lon="12.492479591199025"><ele>549.0</ele><time>2026-05-01T11:08:54Z</time></trkpt><trkpt lat="43.486780719238595" lon="12.492571612134903"><ele>549.0</ele><time>2026-05-01T11:08:55Z</time></trkpt><trkpt lat="43.486730461964754" lon="12.492677311835944"><ele>549.0</ele><time>2026-05-01T11:08:56Z</time></trkpt><trkpt lat="43.48667116431907" lon="12.49277025551215"><ele>549.0</ele><time>2026-05-01T11:08:57Z</time></trkpt><trkpt lat="43.48660677374799" lon="12.492858093422772"><ele>553.0</ele><time>2026-05-01T11:08:58Z</time></trkpt><trkpt lat="43.486550006235234" lon="12.492943834373486"><ele>557.0</ele><time>2026-05-01T11:08:59Z</time></trkpt><trkpt lat="43.48649601486235" lon="12.493029798180096"><ele>561.0</ele><time>2026-05-01T11:09:00Z</time></trkpt><trkpt lat="43.48644222174771" lon="12.493112337275754"><ele>565.0</ele><time>2026-05-01T11:09:01Z</time></trkpt><trkpt lat="43.48639271343406" lon="12.493195166574816"><ele>569.0</ele><time>2026-05-01T11:09:02Z</time></trkpt><trkpt lat="43.48632690892593" lon="12.493248669134765"><ele>573.0</ele><time>2026-05-01T11:09:03Z</time></trkpt><trkpt lat="43.48627938112436" lon="12.493314282603915"><ele>574.0</ele><time>2026-05-01T11:09:04Z</time></trkpt><trkpt lat="43.48624730544096" lon="12.49339717956813"><ele>575.0</ele><time>2026-05-01T11:09:05Z</time></trkpt><trkpt lat="43.486213372476406" lon="12.49347362165128"><ele>576.0</ele><time>2026-05-01T11:09:06Z</time></trkpt><trkpt lat="43.48616989482801" lon="12.493639709170601"><ele>577.0</ele><time>2026-05-01T11:09:08Z</time></trkpt><trkpt lat="43.4861664991366" lon="12.493746005282238"><ele>578.0</ele><time>2026-05-01T11:09:09Z</time></trkpt><trkpt lat="43.486171650198855" lon="12.493850353141607"><ele>579.0</ele><time>2026-05-01T11:09:10Z</time></trkpt><trkpt lat="43.4861408924035" lon="12.49399412556841"><ele>579.0</ele><time>2026-05-01T11:09:12Z</time></trkpt><trkpt lat="43.48608565668367" lon="12.494102746895889"><ele>579.0</ele><time>2026-05-01T11:09:14Z</time></trkpt><trkpt lat="43.48605534901913" lon="12.49419609997368"><ele>579.0</ele><time>2026-05-01T11:09:16Z</time></trkpt><trkpt lat="43.48600503872404" lon="12.494253419032454"><ele>579.0</ele><time>2026-05-01T11:09:18Z</time></trkpt><trkpt lat="43.48580061309156" lon="12.494149369457414"><ele>579.0</ele><time>2026-05-01T11:09:19Z</time></trkpt><trkpt lat="43.48573227053037" lon="12.494204578451257"><ele>579.0</ele><time>2026-05-01T11:09:21Z</time></trkpt><trkpt lat="43.485703304068316" lon="12.49429529740922"><ele>579.0</ele><time>2026-05-01T11:09:23Z</time></trkpt><trkpt lat="43.48575455304845" lon="12.49441668601239"><ele>579.0</ele><time>2026-05-01T11:09:26Z</time></trkpt><trkpt lat="43.48584853973354" lon="12.49441387675291"><ele>579.0</ele><time>2026-05-01T11:09:28Z</time></trkpt><trkpt lat="43.48593811202544" lon="12.494366290032763"><ele>579.0</ele><time>2026-05-01T11:09:30Z</time></trkpt><trkpt lat="43.485981486198504" lon="12.494430165473583"><ele>579.0</ele><time>2026-05-01T11:09:32Z</time></trkpt><trkpt lat="43.485964564714976" lon="12.494549476342737"><ele>579.0</ele><time>2026-05-01T11:09:34Z</time></trkpt><trkpt lat="43.485893720371855" lon="12.494684953836108"><ele>579.0</ele><time>2026-05-01T11:09:36Z</time></trkpt><trkpt lat="43.48584436488915" lon="12.494823761797074"><ele>579.0</ele><time>2026-05-01T11:09:38Z</time></trkpt><trkpt lat="43.485783681641685" lon="12.494917277164578"><ele>579.0</ele><time>2026-05-01T11:09:40Z</time></trkpt><trkpt lat="43.48568937988193" lon="12.494929844675928"><ele>584.2</ele><time>2026-05-01T11:09:42Z</time></trkpt><trkpt lat="43.48559719104237" lon="12.494894084466827"><ele>589.4</ele><time>2026-05-01T11:09:44Z</time></trkpt><trkpt lat="43.48549894020011" lon="12.494882036834483"><ele>594.6</ele><time>2026-05-01T11:09:46Z</time></trkpt><trkpt lat="43.48540386179056" lon="12.494881924036896"><ele>599.8</ele><time>2026-05-01T11:09:48Z</time></trkpt><trkpt lat="43.48530522636029" lon="12.49487647726595"><ele>605.0</ele><time>2026-05-01T11:09:50Z</time></trkpt><trkpt lat="43.48520231926587" lon="12.494866717505978"><ele>605.25</ele><time>2026-05-01T11:09:53Z</time></trkpt><trkpt lat="43.48510269199795" lon="12.494868665487218"><ele>605.5</ele><time>2026-05-01T11:09:56Z</time></trkpt><trkpt lat="43.48498676743227" lon="12.494887721752754"><ele>605.75</ele><time>2026-05-01T11:09:58Z</time></trkpt><trkpt lat="43.48489507402035" lon="12.494746492899782"><ele>606.0</ele><time>2026-05-01T11:10:00Z</time></trkpt><trkpt lat="43.48480033488466" lon="12.494831553835457"><ele>606.0</ele><time>2026-05-01T11:10:02Z</time></trkpt><trkpt lat="43.48467578196241" lon="12.494794869538147"><ele>606.0</ele><time>2026-05-01T11:10:04Z</time></trkpt><trkpt lat="43.484549904615704" lon="12.494805102099773"><ele>606.0</ele><time>2026-05-01T11:10:06Z</time></trkpt><trkpt lat="43.48448485219842" lon="12.494801957763594"><ele>606.0</ele><time>2026-05-01T11:10:07Z</time></trkpt><trkpt lat="43.484422390493265" lon="12.494779942458424"><ele>606.0</ele><time>2026-05-01T11:10:08Z</time></trkpt><trkpt lat="43.484354378016185" lon="12.494741822750303"><ele>605.3333333333334</ele><time>2026-05-01T11:10:09Z</time></trkpt><trkpt lat="43.48429039101055" lon="12.494713438435259"><ele>604.6666666666666</ele><time>2026-05-01T11:10:10Z</time></trkpt><trkpt lat="43.48416099411334" lon="12.494680732943412"><ele>604.0</ele><time>2026-05-01T11:10:12Z</time></trkpt><trkpt lat="43.48408694477541" lon="12.494705538231795"><ele>603.3333333333333</ele><time>2026-05-01T11:10:13Z</time></trkpt><trkpt lat="43.484021997012" lon="12.494729771582472"><ele>602.6666666666666</ele><time>2026-05-01T11:10:14Z</time></trkpt><trkpt lat="43.48395092595699" lon="12.494753179477588"><ele>602.0</ele><time>2026-05-01T11:10:15Z</time></trkpt><trkpt lat="43.48387628989135" lon="12.494780746310125"><ele>602.0</ele><time>2026-05-01T11:10:16Z</time></trkpt><trkpt lat="43.48380595781097" lon="12.494814206940843"><ele>602.0</ele><time>2026-05-01T11:10:17Z</time></trkpt><trkpt lat="43.483740481633546" lon="12.494872922743374"><ele>602.0</ele><time>2026-05-01T11:10:18Z</time></trkpt><trkpt lat="43.483663414727864" lon="12.494902866137732"><ele>602.0</ele><time>2026-05-01T11:10:19Z</time></trkpt><trkpt lat="43.48358613225864" lon="12.494956149687043"><ele>602.0</ele><time>2026-05-01T11:10:20Z</time></trkpt><trkpt lat="43.48349774346194" lon="12.495023703616388"><ele>602.0</ele><time>2026-05-01T11:10:21Z</time></trkpt><trkpt lat="43.483397139372386" lon="12.495057693867242"><ele>601.0</ele><time>2026-05-01T11:10:22Z</time></trkpt><trkpt lat="43.48331012803621" lon="12.495089379403039"><ele>600.0</ele><time>2026-05-01T11:10:23Z</time></trkpt><trkpt lat="43.48322903882179" lon="12.4951163392135"><ele>599.0</ele><time>2026-05-01T11:10:24Z</time></trkpt><trkpt lat="43.48316050511935" lon="12.495114847915644"><ele>598.0</ele><time>2026-05-01T11:10:25Z</time></trkpt><trkpt lat="43.48305748410439" lon="12.495150213076489"><ele>597.0</ele><time>2026-05-01T11:10:27Z</time></trkpt><trkpt lat="43.4829569145679" lon="12.495218964797283"><ele>597.8571428571429</ele><time>2026-05-01T11:10:29Z</time></trkpt><trkpt lat="43.48289860236644" lon="12.495270965577868"><ele>598.7142857142858</ele><time>2026-05-01T11:10:30Z</time></trkpt><trkpt lat="43.48283623066553" lon="12.495332628887416"><ele>599.5714285714287</ele><time>2026-05-01T11:10:31Z</time></trkpt><trkpt lat="43.48278707744221" lon="12.495412408914897"><ele>600.4285714285714</ele><time>2026-05-01T11:10:32Z</time></trkpt><trkpt lat="43.48272887005919" lon="12.495474557866299"><ele>601.2857142857142</ele><time>2026-05-01T11:10:33Z</time></trkpt><trkpt lat="43.48266276477082" lon="12.495523871092404"><ele>602.1428571428572</ele><time>2026-05-01T11:10:34Z</time></trkpt><trkpt lat="43.482609872242776" lon="12.495585373792482"><ele>603.0</ele><time>2026-05-01T11:10:35Z</time></trkpt><trkpt lat="43.48256209415173" lon="12.495657553859868"><ele>603.0</ele><time>2026-05-01T11:10:36Z</time></trkpt><trkpt lat="43.48251845029859" lon="12.495740998563114"><ele>603.0</ele><time>2026-05-01T11:10:37Z</time></trkpt><trkpt lat="43.48247362419595" lon="12.49583368800211"><ele>603.0</ele><time>2026-05-01T11:10:38Z</time></trkpt><trkpt lat="43.48242694594548" lon="12.495930207484383"><ele>603.0</ele><time>2026-05-01T11:10:39Z</time></trkpt><trkpt lat="43.482381383025434" lon="12.49601563474271"><ele>603.0</ele><time>2026-05-01T11:10:40Z</time></trkpt><trkpt lat="43.482326513632586" lon="12.496089583995309"><ele>603.0</ele><time>2026-05-01T11:10:41Z</time></trkpt><trkpt lat="43.48226637233048" lon="12.496129469794596"><ele>603.0</ele><time>2026-05-01T11:10:42Z</time></trkpt><trkpt lat="43.48221193780139" lon="12.496176189340668"><ele>603.0</ele><time>2026-05-01T11:10:43Z</time></trkpt><trkpt lat="43.48213779904385" lon="12.496277452432057"><ele>603.0</ele><time>2026-05-01T11:10:45Z</time></trkpt><trkpt lat="43.48207015789629" lon="12.496379917107676"><ele>603.0</ele><time>2026-05-01T11:10:47Z</time></trkpt><trkpt lat="43.48202458193142" lon="12.496530365642803"><ele>603.0</ele><time>2026-05-01T11:10:49Z</time></trkpt><trkpt lat="43.482010428939674" lon="12.496618912950524"><ele>603.6666666666666</ele><time>2026-05-01T11:10:50Z</time></trkpt><trkpt lat="43.482013837093604" lon="12.496721312604487"><ele>604.3333333333334</ele><time>2026-05-01T11:10:51Z</time></trkpt><trkpt lat="43.482026787467866" lon="12.496832464210923"><ele>605.0</ele><time>2026-05-01T11:10:52Z</time></trkpt><trkpt lat="43.48204401311533" lon="12.496946919558109"><ele>605.6666666666667</ele><time>2026-05-01T11:10:53Z</time></trkpt><trkpt lat="43.48206906412398" lon="12.497051286119511"><ele>606.3333333333334</ele><time>2026-05-01T11:10:54Z</time></trkpt><trkpt lat="43.48207301388985" lon="12.497165247166214"><ele>607.0</ele><time>2026-05-01T11:10:55Z</time></trkpt><trkpt lat="43.48208500134811" lon="12.497274566816957"><ele>609.1666666666667</ele><time>2026-05-01T11:10:56Z</time></trkpt><trkpt lat="43.482091831118844" lon="12.497375065119924"><ele>611.3333333333334</ele><time>2026-05-01T11:10:57Z</time></trkpt><trkpt lat="43.48208769827252" lon="12.497478111526508"><ele>613.5</ele><time>2026-05-01T11:10:58Z</time></trkpt><trkpt lat="43.482077054977424" lon="12.49758056121845"><ele>615.6666666666666</ele><time>2026-05-01T11:10:59Z</time></trkpt><trkpt lat="43.48207247471886" lon="12.497690886075157"><ele>617.8333333333333</ele><time>2026-05-01T11:11:00Z</time></trkpt><trkpt lat="43.482004855788354" lon="12.497777379985626"><ele>620.0</ele><time>2026-05-01T11:11:01Z</time></trkpt><trkpt lat="43.48196082663346" lon="12.497896771460994"><ele>623.2</ele><time>2026-05-01T11:11:02Z</time></trkpt><trkpt lat="43.48188193072985" lon="12.498015186122766"><ele>626.4</ele><time>2026-05-01T11:11:03Z</time></trkpt><trkpt lat="43.481809472470566" lon="12.49811571353567"><ele>629.6</ele><time>2026-05-01T11:11:04Z</time></trkpt><trkpt lat="43.48172718848752" lon="12.498202535506758"><ele>632.8</ele><time>2026-05-01T11:11:05Z</time></trkpt><trkpt lat="43.48165042168249" lon="12.498302344909844"><ele>636.0</ele><time>2026-05-01T11:11:06Z</time></trkpt><trkpt lat="43.48155992248469" lon="12.49839972044925"><ele>636.0</ele><time>2026-05-01T11:11:07Z</time></trkpt><trkpt lat="43.481474934220586" lon="12.498472228886131"><ele>636.0</ele><time>2026-05-01T11:11:08Z</time></trkpt><trkpt lat="43.481400781956346" lon="12.49852284940125"><ele>636.0</ele><time>2026-05-01T11:11:09Z</time></trkpt><trkpt lat="43.48133140044107" lon="12.498551835959253"><ele>636.0</ele><time>2026-05-01T11:11:10Z</time></trkpt><trkpt lat="43.48126200772512" lon="12.498569416884918"><ele>636.0</ele><time>2026-05-01T11:11:11Z</time></trkpt><trkpt lat="43.48119437188424" lon="12.498582109409192"><ele>636.0</ele><time>2026-05-01T11:11:12Z</time></trkpt><trkpt lat="43.48112203088506" lon="12.498598446308753"><ele>635.1666666666666</ele><time>2026-05-01T11:11:13Z</time></trkpt><trkpt lat="43.48105631494528" lon="12.498630995511519"><ele>634.3333333333334</ele><time>2026-05-01T11:11:14Z</time></trkpt><trkpt lat="43.4810040256029" lon="12.498697083958065"><ele>633.5</ele><time>2026-05-01T11:11:15Z</time></trkpt><trkpt lat="43.480937443957345" lon="12.498762588474074"><ele>632.6666666666667</ele><time>2026-05-01T11:11:16Z</time></trkpt><trkpt lat="43.48086815804777" lon="12.498796813021919"><ele>631.8333333333334</ele><time>2026-05-01T11:11:17Z</time></trkpt><trkpt lat="43.480793648145706" lon="12.498843193952565"><ele>631.0</ele><time>2026-05-01T11:11:18Z</time></trkpt><trkpt lat="43.48071189528701" lon="12.498891903143855"><ele>635.2</ele><time>2026-05-01T11:11:19Z</time></trkpt><trkpt lat="43.4806258504461" lon="12.498929732066115"><ele>639.4000000000001</ele><time>2026-05-01T11:11:20Z</time></trkpt><trkpt lat="43.48053491895792" lon="12.498962398825395"><ele>643.6</ele><time>2026-05-01T11:11:21Z</time></trkpt><trkpt lat="43.48044702737428" lon="12.499002562600475"><ele>647.8000000000001</ele><time>2026-05-01T11:11:22Z</time></trkpt><trkpt lat="43.48035963131772" lon="12.49907015117578"><ele>652.0</ele><time>2026-05-01T11:11:23Z</time></trkpt><trkpt lat="43.480280788540256" lon="12.499134919505433"><ele>652.0</ele><time>2026-05-01T11:11:24Z</time></trkpt><trkpt lat="43.480195945374945" lon="12.499185647119493"><ele>652.0</ele><time>2026-05-01T11:11:25Z</time></trkpt><trkpt lat="43.48011766223425" lon="12.499186413766965"><ele>652.0</ele><time>2026-05-01T11:11:26Z</time></trkpt><trkpt lat="43.48003711245014" lon="12.499176993110094"><ele>652.0</ele><time>2026-05-01T11:11:27Z</time></trkpt><trkpt lat="43.479950463958644" lon="12.499167458124708"><ele>652.0</ele><time>2026-05-01T11:11:28Z</time></trkpt><trkpt lat="43.47986626403372" lon="12.499155341017213"><ele>652.0</ele><time>2026-05-01T11:11:29Z</time></trkpt><trkpt lat="43.47978704412298" lon="12.499143940565554"><ele>652.0</ele><time>2026-05-01T11:11:30Z</time></trkpt><trkpt lat="43.47971808385355" lon="12.499134016564357"><ele>652.0</ele><time>2026-05-01T11:11:31Z</time></trkpt><trkpt lat="43.47962637214448" lon="12.499125070797339"><ele>652.0</ele><time>2026-05-01T11:11:33Z</time></trkpt><trkpt lat="43.479562801322515" lon="12.499140791802933"><ele>652.0</ele><time>2026-05-01T11:11:36Z</time></trkpt><trkpt lat="43.47980556031603" lon="12.499419785424047"><ele>652.0</ele><time>2026-05-01T11:11:51.001Z</time></trkpt><trkpt lat="43.47989087178967" lon="12.499476388069759"><ele>652.0</ele><time>2026-05-01T11:11:52.001Z</time></trkpt><trkpt lat="43.479969567379065" lon="12.499516728351674"><ele>652.0</ele><time>2026-05-01T11:11:53.001Z</time></trkpt><trkpt lat="43.4800482006229" lon="12.499561046943384"><ele>652.0</ele><time>2026-05-01T11:11:54.001Z</time></trkpt><trkpt lat="43.48013797935471" lon="12.4996101528067"><ele>652.0</ele><time>2026-05-01T11:11:55.001Z</time></trkpt><trkpt lat="43.480239172373395" lon="12.499640574713728"><ele>656.2</ele><time>2026-05-01T11:11:56.001Z</time></trkpt><trkpt lat="43.48034116362287" lon="12.499660944565669"><ele>660.4000000000001</ele><time>2026-05-01T11:11:57.001Z</time></trkpt><trkpt lat="43.480440494770356" lon="12.499664771608325"><ele>664.5999999999999</ele><time>2026-05-01T11:11:58.001Z</time></trkpt><trkpt lat="43.480533046094315" lon="12.499660360516616"><ele>668.8</ele><time>2026-05-01T11:11:59.001Z</time></trkpt><trkpt lat="43.480615399645025" lon="12.499659953388248"><ele>673.0</ele><time>2026-05-01T11:12:00.001Z</time></trkpt><trkpt lat="43.48068921918192" lon="12.49965540877052"><ele>673.3333333333334</ele><time>2026-05-01T11:12:01.001Z</time></trkpt><trkpt lat="43.480752241866504" lon="12.49965475021175"><ele>673.6666666666667</ele><time>2026-05-01T11:12:02.001Z</time></trkpt><trkpt lat="43.480833809216946" lon="12.49971181096279"><ele>674.0</ele><time>2026-05-01T11:12:04.001Z</time></trkpt><trkpt lat="43.48082064264686" lon="12.499863667858122"><ele>674.3333333333334</ele><time>2026-05-01T11:12:06.001Z</time></trkpt><trkpt lat="43.480750476984916" lon="12.499915937906623"><ele>674.6666666666666</ele><time>2026-05-01T11:12:07.001Z</time></trkpt><trkpt lat="43.480686022939175" lon="12.499987070836733"><ele>675.0</ele><time>2026-05-01T11:12:08.001Z</time></trkpt><trkpt lat="43.48060751839908" lon="12.500065554943962"><ele>675.0</ele><time>2026-05-01T11:12:09.001Z</time></trkpt><trkpt lat="43.48053657183493" lon="12.500161589625428"><ele>675.0</ele><time>2026-05-01T11:12:10.001Z</time></trkpt><trkpt lat="43.48045254750568" lon="12.500244626081559"><ele>675.0</ele><time>2026-05-01T11:12:11.001Z</time></trkpt><trkpt lat="43.48037869438671" lon="12.50031263329282"><ele>675.0</ele><time>2026-05-01T11:12:12Z</time></trkpt><trkpt lat="43.480300063246325" lon="12.50035782430312"><ele>675.0</ele><time>2026-05-01T11:12:13Z</time></trkpt><trkpt lat="43.480207520103804" lon="12.50035067913399"><ele>674.6</ele><time>2026-05-01T11:12:14Z</time></trkpt><trkpt lat="43.480120954567894" lon="12.500334898804905"><ele>674.2</ele><time>2026-05-01T11:12:15Z</time></trkpt><trkpt lat="43.48002870273259" lon="12.500304849350458"><ele>673.8</ele><time>2026-05-01T11:12:16Z</time></trkpt><trkpt lat="43.47993776169901" lon="12.500273255427945"><ele>673.4</ele><time>2026-05-01T11:12:17Z</time></trkpt><trkpt lat="43.47985702662752" lon="12.500259044688788"><ele>673.0</ele><time>2026-05-01T11:12:18Z</time></trkpt><trkpt lat="43.47975634032533" lon="12.50027366576072"><ele>676.4</ele><time>2026-05-01T11:12:20Z</time></trkpt><trkpt lat="43.47974492464496" lon="12.500432708648317"><ele>679.8</ele><time>2026-05-01T11:12:22Z</time></trkpt><trkpt lat="43.47983533194703" lon="12.500561318117851"><ele>683.2</ele><time>2026-05-01T11:12:24Z</time></trkpt><trkpt lat="43.47987215765606" lon="12.50063390853712"><ele>686.6</ele><time>2026-05-01T11:12:25Z</time></trkpt><trkpt lat="43.47992378161594" lon="12.500687315207093"><ele>690.0</ele><time>2026-05-01T11:12:26Z</time></trkpt><trkpt lat="43.47994893214921" lon="12.500819571314329"><ele>690.0</ele><time>2026-05-01T11:12:28Z</time></trkpt><trkpt lat="43.47992206496845" lon="12.500959766180353"><ele>690.0</ele><time>2026-05-01T11:12:30Z</time></trkpt><trkpt lat="43.479857761936124" lon="12.501067652729121"><ele>690.0</ele><time>2026-05-01T11:12:32Z</time></trkpt><trkpt lat="43.47979465101343" lon="12.501110437474747"><ele>690.0</ele><time>2026-05-01T11:12:37Z</time></trkpt><trkpt lat="43.47972089695821" lon="12.501089982505109"><ele>690.0</ele><time>2026-05-01T11:12:39Z</time></trkpt><trkpt lat="43.479628229301575" lon="12.501104241878643"><ele>690.0</ele><time>2026-05-01T11:12:41Z</time></trkpt><trkpt lat="43.47951416189604" lon="12.501113811153708"><ele>689.8</ele><time>2026-05-01T11:12:43Z</time></trkpt><trkpt lat="43.47940959270768" lon="12.50113651066867"><ele>689.6</ele><time>2026-05-01T11:12:45Z</time></trkpt><trkpt lat="43.479313635682125" lon="12.501172520820141"><ele>689.4000000000001</ele><time>2026-05-01T11:12:47Z</time></trkpt><trkpt lat="43.47922337377987" lon="12.501234727616406"><ele>689.2</ele><time>2026-05-01T11:12:49Z</time></trkpt><trkpt lat="43.479149940671675" lon="12.501334856282272"><ele>689.0</ele><time>2026-05-01T11:12:51Z</time></trkpt><trkpt lat="43.47907191787879" lon="12.501426942825601"><ele>689.0</ele><time>2026-05-01T11:12:53Z</time></trkpt><trkpt lat="43.47898927026957" lon="12.501535892737385"><ele>689.0</ele><time>2026-05-01T11:12:55Z</time></trkpt><trkpt lat="43.478891800954905" lon="12.501631636650801"><ele>689.0</ele><time>2026-05-01T11:12:57Z</time></trkpt><trkpt lat="43.47879871997603" lon="12.501746019129698"><ele>689.0</ele><time>2026-05-01T11:12:59Z</time></trkpt><trkpt lat="43.47873623937578" lon="12.501778150441162"><ele>689.0</ele><time>2026-05-01T11:13:00Z</time></trkpt><trkpt lat="43.478666557445386" lon="12.501801272057739"><ele>691.6666666666666</ele><time>2026-05-01T11:13:01Z</time></trkpt><trkpt lat="43.47859612473942" lon="12.501815690867522"><ele>694.3333333333333</ele><time>2026-05-01T11:13:02Z</time></trkpt><trkpt lat="43.4785218256264" lon="12.501827140165112"><ele>697.0</ele><time>2026-05-01T11:13:03Z</time></trkpt><trkpt lat="43.478447106470284" lon="12.501840091783079"><ele>699.6666666666666</ele><time>2026-05-01T11:13:04Z</time></trkpt><trkpt lat="43.47837143223331" lon="12.50186799610045"><ele>702.3333333333334</ele><time>2026-05-01T11:13:05Z</time></trkpt><trkpt lat="43.478298244567014" lon="12.501897797896236"><ele>705.0</ele><time>2026-05-01T11:13:06Z</time></trkpt><trkpt lat="43.47822822155522" lon="12.50193041588639"><ele>705.0</ele><time>2026-05-01T11:13:07Z</time></trkpt><trkpt lat="43.478162414440106" lon="12.50196947481742"><ele>705.0</ele><time>2026-05-01T11:13:08Z</time></trkpt><trkpt lat="43.478096067351984" lon="12.502008780214297"><ele>705.0</ele><time>2026-05-01T11:13:09Z</time></trkpt><trkpt lat="43.478034990603675" lon="12.502065915186932"><ele>705.0</ele><time>2026-05-01T11:13:10Z</time></trkpt><trkpt lat="43.477976020247915" lon="12.502107927974238"><ele>705.0</ele><time>2026-05-01T11:13:11Z</time></trkpt><trkpt lat="43.47787675389626" lon="12.502170664706512"><ele>705.0</ele><time>2026-05-01T11:13:13Z</time></trkpt><trkpt lat="43.477790334842375" lon="12.50221518707902"><ele>705.0</ele><time>2026-05-01T11:13:15Z</time></trkpt><trkpt lat="43.47776766296249" lon="12.502327470846428"><ele>705.0</ele><time>2026-05-01T11:13:18Z</time></trkpt><trkpt lat="43.47783153691123" lon="12.502345835640021"><ele>705.0</ele><time>2026-05-01T11:13:22Z</time></trkpt><trkpt lat="43.477841124470054" lon="12.502243568129812"><ele>705.0</ele><time>2026-05-01T11:13:24Z</time></trkpt><trkpt lat="43.477904641948506" lon="12.502142249752477"><ele>705.0</ele><time>2026-05-01T11:13:56.001Z</time></trkpt><trkpt lat="43.478011238682555" lon="12.502081636362044"><ele>705.0</ele><time>2026-05-01T11:13:58.001Z</time></trkpt><trkpt lat="43.47807477125059" lon="12.502047209483054"><ele>705.0</ele><time>2026-05-01T11:13:59.001Z</time></trkpt><trkpt lat="43.478143400811106" lon="12.50199906888636"><ele>705.0</ele><time>2026-05-01T11:14:00.001Z</time></trkpt><trkpt lat="43.47821045145038" lon="12.501954734074918"><ele>705.0</ele><time>2026-05-01T11:14:01.001Z</time></trkpt><trkpt lat="43.478284663747566" lon="12.501915682425048"><ele>705.0</ele><time>2026-05-01T11:14:02.001Z</time></trkpt><trkpt lat="43.47835589170394" lon="12.50188201969736"><ele>705.0</ele><time>2026-05-01T11:14:03.001Z</time></trkpt><trkpt lat="43.47843420858406" lon="12.501858450372913"><ele>705.0</ele><time>2026-05-01T11:14:04.001Z</time></trkpt><trkpt lat="43.478515480467095" lon="12.501841284378337"><ele>705.0</ele><time>2026-05-01T11:14:05.001Z</time></trkpt><trkpt lat="43.47860218779304" lon="12.50182983637757"><ele>705.0</ele><time>2026-05-01T11:14:06.001Z</time></trkpt><trkpt lat="43.47868236324303" lon="12.501819638231522"><ele>705.0</ele><time>2026-05-01T11:14:07.001Z</time></trkpt><trkpt lat="43.47876117064173" lon="12.501786496608213"><ele>705.0</ele><time>2026-05-01T11:14:08.001Z</time></trkpt><trkpt lat="43.47883449291169" lon="12.501735565893917"><ele>705.0</ele><time>2026-05-01T11:14:09.001Z</time></trkpt><trkpt lat="43.4789049427685" lon="12.501661889572752"><ele>705.0</ele><time>2026-05-01T11:14:10.001Z</time></trkpt><trkpt lat="43.47897116536714" lon="12.50157938185161"><ele>703.5</ele><time>2026-05-01T11:14:11.001Z</time></trkpt><trkpt lat="43.47903468666576" lon="12.501486067644937"><ele>702.0</ele><time>2026-05-01T11:14:12.001Z</time></trkpt><trkpt lat="43.47910002899171" lon="12.501402227771193"><ele>700.5</ele><time>2026-05-01T11:14:13.001Z</time></trkpt><trkpt lat="43.47916456529483" lon="12.501329507404668"><ele>699.0</ele><time>2026-05-01T11:14:14.001Z</time></trkpt><trkpt lat="43.47922877418425" lon="12.501264791663422"><ele>697.5</ele><time>2026-05-01T11:14:15.001Z</time></trkpt><trkpt lat="43.47929334465787" lon="12.501215924082045"><ele>696.0</ele><time>2026-05-01T11:14:16.001Z</time></trkpt><trkpt lat="43.479363822492324" lon="12.50118511481065"><ele>696.0</ele><time>2026-05-01T11:14:17.001Z</time></trkpt><trkpt lat="43.47943858182991" lon="12.501161508547106"><ele>696.0</ele><time>2026-05-01T11:14:18Z</time></trkpt><trkpt lat="43.479513132202584" lon="12.501143206539059"><ele>696.0</ele><time>2026-05-01T11:14:19Z</time></trkpt><trkpt lat="43.47958290087602" lon="12.501154591191112"><ele>696.0</ele><time>2026-05-01T11:14:20Z</time></trkpt><trkpt lat="43.47964780764437" lon="12.501131878586627"><ele>696.0</ele><time>2026-05-01T11:14:21Z</time></trkpt><trkpt lat="43.479758094184064" lon="12.501118426817948"><ele>696.0</ele><time>2026-05-01T11:14:23Z</time></trkpt><trkpt lat="43.47983222782973" lon="12.501105728970611"><ele>694.8</ele><time>2026-05-01T11:14:25Z</time></trkpt><trkpt lat="43.47991074309501" lon="12.501102632784743"><ele>693.5999999999999</ele><time>2026-05-01T11:14:40Z</time></trkpt><trkpt lat="43.479965829624554" lon="12.5010463583418"><ele>692.4</ele><time>2026-05-01T11:14:42Z</time></trkpt><trkpt lat="43.48004319235446" lon="12.501124431209366"><ele>691.2</ele><time>2026-05-01T11:14:43Z</time></trkpt><trkpt lat="43.48014983834905" lon="12.5011787719877"><ele>690.0</ele><time>2026-05-01T11:14:45Z</time></trkpt><trkpt lat="43.480255990509" lon="12.50127010694848"><ele>690.0</ele><time>2026-05-01T11:14:47Z</time></trkpt><trkpt lat="43.480364240946656" lon="12.50134733505294"><ele>690.0</ele><time>2026-05-01T11:14:49Z</time></trkpt><trkpt lat="43.48047691601271" lon="12.501386467638891"><ele>690.0</ele><time>2026-05-01T11:14:51Z</time></trkpt><trkpt lat="43.48059895190912" lon="12.501410587419219"><ele>690.0</ele><time>2026-05-01T11:14:53Z</time></trkpt><trkpt lat="43.48071323613517" lon="12.501391833643128"><ele>691.1666666666666</ele><time>2026-05-01T11:14:55Z</time></trkpt><trkpt lat="43.48080256655618" lon="12.50136818902234"><ele>692.3333333333334</ele><time>2026-05-01T11:14:57Z</time></trkpt><trkpt lat="43.48088984062102" lon="12.50133705337474"><ele>693.5</ele><time>2026-05-01T11:14:59Z</time></trkpt><trkpt lat="43.48097106570149" lon="12.501305452913442"><ele>694.6666666666667</ele><time>2026-05-01T11:15:01Z</time></trkpt><trkpt lat="43.48104428838487" lon="12.50128131214879"><ele>695.8333333333334</ele><time>2026-05-01T11:15:03Z</time></trkpt><trkpt lat="43.48112499151652" lon="12.501299978243999"><ele>697.0</ele><time>2026-05-01T11:15:05Z</time></trkpt><trkpt lat="43.48119244469539" lon="12.501332617028513"><ele>697.0</ele><time>2026-05-01T11:15:15Z</time></trkpt><trkpt lat="43.48111113540148" lon="12.50129986795344"><ele>697.0</ele><time>2026-05-01T11:15:46.001Z</time></trkpt><trkpt lat="43.481023722686146" lon="12.501271542738445"><ele>697.0</ele><time>2026-05-01T11:15:49.001Z</time></trkpt><trkpt lat="43.48093840938193" lon="12.501285721411746"><ele>697.0</ele><time>2026-05-01T11:15:52.001Z</time></trkpt><trkpt lat="43.48087247586105" lon="12.501310917211248"><ele>697.0</ele><time>2026-05-01T11:15:54.001Z</time></trkpt><trkpt lat="43.4807656182542" lon="12.50135277611074"><ele>697.0</ele><time>2026-05-01T11:15:56.001Z</time></trkpt><trkpt lat="43.480671742740256" lon="12.501375141768627"><ele>697.0</ele><time>2026-05-01T11:15:58.001Z</time></trkpt><trkpt lat="43.48058068225794" lon="12.501381753887298"><ele>697.0</ele><time>2026-05-01T11:16:00.001Z</time></trkpt><trkpt lat="43.48049330187268" lon="12.501373799263892"><ele>697.0</ele><time>2026-05-01T11:16:02.001Z</time></trkpt><trkpt lat="43.480412637951275" lon="12.501347318242127"><ele>697.0</ele><time>2026-05-01T11:16:04.001Z</time></trkpt><trkpt lat="43.48033711887416" lon="12.501311909433458"><ele>697.0</ele><time>2026-05-01T11:16:06.001Z</time></trkpt><trkpt lat="43.48026011447966" lon="12.501269293276703"><ele>697.0</ele><time>2026-05-01T11:16:08.001Z</time></trkpt><trkpt lat="43.480193341916845" lon="12.501213003686045"><ele>695.8333333333334</ele><time>2026-05-01T11:16:10.001Z</time></trkpt><trkpt lat="43.4801347489839" lon="12.501160346525525"><ele>694.6666666666667</ele><time>2026-05-01T11:16:12.001Z</time></trkpt><trkpt lat="43.480073286769944" lon="12.501127401312313"><ele>693.5</ele><time>2026-05-01T11:16:14.001Z</time></trkpt><trkpt lat="43.47999027335425" lon="12.5011162636971"><ele>692.3333333333334</ele><time>2026-05-01T11:16:17.001Z</time></trkpt><trkpt lat="43.47989717065665" lon="12.50109757584798"><ele>691.1666666666666</ele><time>2026-05-01T11:16:20.001Z</time></trkpt><trkpt lat="43.4799114312271" lon="12.500999732201276"><ele>690.0</ele><time>2026-05-01T11:25:29Z</time></trkpt><trkpt lat="43.47994887101735" lon="12.500898166346053"><ele>690.0</ele><time>2026-05-01T11:25:32Z</time></trkpt><trkpt lat="43.47995415073325" lon="12.500805374613842"><ele>690.0</ele><time>2026-05-01T11:25:34Z</time></trkpt><trkpt lat="43.47992767379154" lon="12.50069309501405"><ele>690.0</ele><time>2026-05-01T11:25:36Z</time></trkpt><trkpt lat="43.47986817932502" lon="12.500561420952097"><ele>690.0</ele><time>2026-05-01T11:25:38Z</time></trkpt><trkpt lat="43.47979176675783" lon="12.500472157514501"><ele>690.0</ele><time>2026-05-01T11:25:40Z</time></trkpt><trkpt lat="43.479759865087935" lon="12.50037886365352"><ele>690.0</ele><time>2026-05-01T11:25:42Z</time></trkpt><trkpt lat="43.479794989683015" lon="12.50028769296706"><ele>687.5714285714286</ele><time>2026-05-01T11:25:44Z</time></trkpt><trkpt lat="43.4798968237112" lon="12.500297286627438"><ele>685.1428571428571</ele><time>2026-05-01T11:25:46Z</time></trkpt><trkpt lat="43.47995705518902" lon="12.50032720380257"><ele>682.7142857142858</ele><time>2026-05-01T11:25:47Z</time></trkpt><trkpt lat="43.48001876084983" lon="12.500352058833789"><ele>680.2857142857142</ele><time>2026-05-01T11:25:48Z</time></trkpt><trkpt lat="43.480084195692434" lon="12.50036764098692"><ele>677.8571428571428</ele><time>2026-05-01T11:25:49Z</time></trkpt><trkpt lat="43.480149549220236" lon="12.500377588258319"><ele>675.4285714285714</ele><time>2026-05-01T11:25:50Z</time></trkpt><trkpt lat="43.48021421975158" lon="12.500375247869023"><ele>673.0</ele><time>2026-05-01T11:25:51Z</time></trkpt><trkpt lat="43.480283234062945" lon="12.500389511467484"><ele>673.0</ele><time>2026-05-01T11:25:52Z</time></trkpt><trkpt lat="43.48035456885362" lon="12.500358983794046"><ele>673.0</ele><time>2026-05-01T11:25:53Z</time></trkpt><trkpt lat="43.48042806680188" lon="12.500302864864766"><ele>673.0</ele><time>2026-05-01T11:25:54Z</time></trkpt><trkpt lat="43.480500301105955" lon="12.500236854399569"><ele>673.0</ele><time>2026-05-01T11:25:55Z</time></trkpt><trkpt lat="43.48056827837658" lon="12.500163933509993"><ele>673.0</ele><time>2026-05-01T11:25:56Z</time></trkpt><trkpt lat="43.48062894567262" lon="12.500073718941847"><ele>673.0</ele><time>2026-05-01T11:25:57Z</time></trkpt><trkpt lat="43.48069443885817" lon="12.500011891751944"><ele>673.4</ele><time>2026-05-01T11:25:58Z</time></trkpt><trkpt lat="43.48074909078108" lon="12.499955221816386"><ele>673.8</ele><time>2026-05-01T11:25:59Z</time></trkpt><trkpt lat="43.480846898488906" lon="12.499850868162333"><ele>674.2</ele><time>2026-05-01T11:26:01Z</time></trkpt><trkpt lat="43.48085736536142" lon="12.499761551730892"><ele>674.6</ele><time>2026-05-01T11:26:02Z</time></trkpt><trkpt lat="43.48081287801117" lon="12.499620826811666"><ele>675.0</ele><time>2026-05-01T11:26:04Z</time></trkpt><trkpt lat="43.480699910944274" lon="12.499615777593245"><ele>675.0</ele><time>2026-05-01T11:26:06Z</time></trkpt><trkpt lat="43.480623003404446" lon="12.499636269009192"><ele>675.0</ele><time>2026-05-01T11:26:07Z</time></trkpt><trkpt lat="43.48053630202158" lon="12.499620635023575"><ele>675.0</ele><time>2026-05-01T11:26:08Z</time></trkpt><trkpt lat="43.480442788626746" lon="12.499617329683682"><ele>675.0</ele><time>2026-05-01T11:26:09Z</time></trkpt><trkpt lat="43.480342584307664" lon="12.49960958479006"><ele>675.0</ele><time>2026-05-01T11:26:10Z</time></trkpt><trkpt lat="43.480243930120416" lon="12.499596505731528"><ele>670.4</ele><time>2026-05-01T11:26:11Z</time></trkpt><trkpt lat="43.48014892161865" lon="12.499567035191376"><ele>665.8</ele><time>2026-05-01T11:26:12Z</time></trkpt><trkpt lat="43.48005532017111" lon="12.499520633354567"><ele>661.2</ele><time>2026-05-01T11:26:13Z</time></trkpt><trkpt lat="43.479961537875354" lon="12.499460982038867"><ele>656.6</ele><time>2026-05-01T11:26:14Z</time></trkpt><trkpt lat="43.479878279426394" lon="12.499421912610172"><ele>652.0</ele><time>2026-05-01T11:26:15Z</time></trkpt><trkpt lat="43.47979495369712" lon="12.499352692730907"><ele>652.0</ele><time>2026-05-01T11:26:16Z</time></trkpt><trkpt lat="43.47970978664589" lon="12.499322681441885"><ele>652.0</ele><time>2026-05-01T11:26:17Z</time></trkpt><trkpt lat="43.47964023908558" lon="12.499267427458895"><ele>652.0</ele><time>2026-05-01T11:26:18Z</time></trkpt><trkpt lat="43.4795960652372" lon="12.499205027712604"><ele>652.0</ele><time>2026-05-01T11:26:20Z</time></trkpt><trkpt lat="43.47968619194326" lon="12.49925507358472"><ele>652.0</ele><time>2026-05-01T11:26:44Z</time></trkpt><trkpt lat="43.47978510527972" lon="12.499321357788988"><ele>652.0</ele><time>2026-05-01T11:26:46.001Z</time></trkpt><trkpt lat="43.479882175031044" lon="12.499383963013258"><ele>652.0</ele><time>2026-05-01T11:26:48.001Z</time></trkpt><trkpt lat="43.47999013097062" lon="12.499453439252392"><ele>652.0</ele><time>2026-05-01T11:26:50.001Z</time></trkpt><trkpt lat="43.48010383076348" lon="12.499520066225996"><ele>652.0</ele><time>2026-05-01T11:26:52.001Z</time></trkpt><trkpt lat="43.480225713140506" lon="12.499568638830661"><ele>652.0</ele><time>2026-05-01T11:26:53.999Z</time></trkpt><trkpt lat="43.48045569457689" lon="12.499029165105728"><ele>652.2857142857143</ele><time>2026-05-01T11:26:55.999Z</time></trkpt><trkpt lat="43.48056750820663" lon="12.498997892319306"><ele>652.5714285714286</ele><time>2026-05-01T11:26:57.999Z</time></trkpt><trkpt lat="43.48063162330534" lon="12.49897517083917"><ele>652.8571428571429</ele><time>2026-05-01T11:26:58.999Z</time></trkpt><trkpt lat="43.480693031390494" lon="12.498948234741812"><ele>653.1428571428571</ele><time>2026-05-01T11:26:59.999Z</time></trkpt><trkpt lat="43.48075639654061" lon="12.498916226500821"><ele>653.4285714285714</ele><time>2026-05-01T11:27:00.999Z</time></trkpt><trkpt lat="43.48081197641648" lon="12.49886760386612"><ele>653.7142857142857</ele><time>2026-05-01T11:27:01.999Z</time></trkpt><trkpt lat="43.480876494686306" lon="12.498841962732843"><ele>654.0</ele><time>2026-05-01T11:27:02.999Z</time></trkpt><trkpt lat="43.480977636757885" lon="12.498744548251048"><ele>650.4000000000001</ele><time>2026-05-01T11:27:04.999Z</time></trkpt><trkpt lat="43.48107458925915" lon="12.498658420455033"><ele>646.8000000000001</ele><time>2026-05-01T11:27:06.999Z</time></trkpt><trkpt lat="43.48113786182394" lon="12.498620305059355"><ele>643.2</ele><time>2026-05-01T11:27:07.999Z</time></trkpt><trkpt lat="43.48120576534621" lon="12.498626018672772"><ele>639.6</ele><time>2026-05-01T11:27:08.999Z</time></trkpt><trkpt lat="43.48132871857996" lon="12.498582003951999"><ele>636.0</ele><time>2026-05-01T11:27:10.999Z</time></trkpt><trkpt lat="43.48140163253147" lon="12.498564667946955"><ele>636.0</ele><time>2026-05-01T11:27:11.999Z</time></trkpt><trkpt lat="43.48146677212745" lon="12.498534603285544"><ele>636.0</ele><time>2026-05-01T11:27:12.999Z</time></trkpt><trkpt lat="43.48152498685777" lon="12.498486699570291"><ele>636.0</ele><time>2026-05-01T11:27:13.999Z</time></trkpt><trkpt lat="43.48157833992428" lon="12.498428116928118"><ele>636.0</ele><time>2026-05-01T11:27:14.999Z</time></trkpt><trkpt lat="43.48163505177706" lon="12.498375584330615"><ele>636.0</ele><time>2026-05-01T11:27:16Z</time></trkpt><trkpt lat="43.48168794863064" lon="12.49830630933446"><ele>636.0</ele><time>2026-05-01T11:27:17Z</time></trkpt><trkpt lat="43.481735606092194" lon="12.498246431819933"><ele>636.0</ele><time>2026-05-01T11:27:18Z</time></trkpt><trkpt lat="43.4817774128636" lon="12.498178675257494"><ele>636.0</ele><time>2026-05-01T11:27:19Z</time></trkpt><trkpt lat="43.48181840804195" lon="12.498109090213015"><ele>636.0</ele><time>2026-05-01T11:27:20Z</time></trkpt><trkpt lat="43.48187923516783" lon="12.498056546191398"><ele>636.0</ele><time>2026-05-01T11:27:21Z</time></trkpt><trkpt lat="43.48191956702671" lon="12.497971040975415"><ele>636.0</ele><time>2026-05-01T11:27:22Z</time></trkpt><trkpt lat="43.48196910753118" lon="12.497903860152029"><ele>636.0</ele><time>2026-05-01T11:27:23Z</time></trkpt><trkpt lat="43.482035064076456" lon="12.497758988199509"><ele>636.0</ele><time>2026-05-01T11:27:25Z</time></trkpt><trkpt lat="43.48208732571628" lon="12.497624067836545"><ele>635.4</ele><time>2026-05-01T11:27:27Z</time></trkpt><trkpt lat="43.482106552805" lon="12.49746098475068"><ele>634.8</ele><time>2026-05-01T11:27:29Z</time></trkpt><trkpt lat="43.482123349717455" lon="12.497311043587272"><ele>634.1999999999999</ele><time>2026-05-01T11:27:31Z</time></trkpt><trkpt lat="43.48210251143999" lon="12.497134740806992"><ele>633.6</ele><time>2026-05-01T11:27:33Z</time></trkpt><trkpt lat="43.48207344838944" lon="12.497045665547088"><ele>633.0</ele><time>2026-05-01T11:27:34Z</time></trkpt><trkpt lat="43.48205823595885" lon="12.496948275360726"><ele>629.4</ele><time>2026-05-01T11:27:35Z</time></trkpt><trkpt lat="43.48205564670524" lon="12.496858431269061"><ele>625.8</ele><time>2026-05-01T11:27:36Z</time></trkpt><trkpt lat="43.48203637278791" lon="12.496696494425063"><ele>622.2</ele><time>2026-05-01T11:27:38Z</time></trkpt><trkpt lat="43.482053615413086" lon="12.496534057453827"><ele>618.6</ele><time>2026-05-01T11:27:40Z</time></trkpt><trkpt lat="43.4820944931352" lon="12.496374159717742"><ele>615.0</ele><time>2026-05-01T11:27:42Z</time></trkpt><trkpt lat="43.48217700998835" lon="12.496257767968926"><ele>613.0</ele><time>2026-05-01T11:27:44Z</time></trkpt><trkpt lat="43.48223191074213" lon="12.496204520588488"><ele>611.0</ele><time>2026-05-01T11:27:45Z</time></trkpt><trkpt lat="43.48233723170195" lon="12.496105778138286"><ele>609.0</ele><time>2026-05-01T11:27:47Z</time></trkpt><trkpt lat="43.4823901906644" lon="12.496051353172867"><ele>607.0</ele><time>2026-05-01T11:27:48Z</time></trkpt><trkpt lat="43.48245020907962" lon="12.495965464705435"><ele>605.0</ele><time>2026-05-01T11:27:49Z</time></trkpt><trkpt lat="43.48248991798561" lon="12.495890591097671"><ele>603.0</ele><time>2026-05-01T11:27:50Z</time></trkpt><trkpt lat="43.48252590867999" lon="12.495806667314444"><ele>603.0</ele><time>2026-05-01T11:27:51Z</time></trkpt><trkpt lat="43.48255921664926" lon="12.495720450967179"><ele>603.0</ele><time>2026-05-01T11:27:52Z</time></trkpt><trkpt lat="43.482597316980375" lon="12.49564334682549"><ele>603.0</ele><time>2026-05-01T11:27:53Z</time></trkpt><trkpt lat="43.48266276245646" lon="12.49557923909215"><ele>603.0</ele><time>2026-05-01T11:27:54Z</time></trkpt><trkpt lat="43.48272528389993" lon="12.495512782189756"><ele>603.0</ele><time>2026-05-01T11:27:55Z</time></trkpt><trkpt lat="43.48278357653667" lon="12.495447383032289"><ele>603.0</ele><time>2026-05-01T11:27:56Z</time></trkpt><trkpt lat="43.482832557044006" lon="12.495364888425355"><ele>601.8</ele><time>2026-05-01T11:27:57Z</time></trkpt><trkpt lat="43.482935458953605" lon="12.495297833435128"><ele>600.5999999999999</ele><time>2026-05-01T11:27:59Z</time></trkpt><trkpt lat="43.483000429277595" lon="12.495217754961075"><ele>599.4000000000001</ele><time>2026-05-01T11:28:00Z</time></trkpt><trkpt lat="43.48306131437186" lon="12.495175702299992"><ele>598.2</ele><time>2026-05-01T11:28:01Z</time></trkpt><trkpt lat="43.48317959262883" lon="12.495138706832806"><ele>597.0</ele><time>2026-05-01T11:28:03Z</time></trkpt><trkpt lat="43.483270700494316" lon="12.495127495836341"><ele>597.0</ele><time>2026-05-01T11:28:04Z</time></trkpt><trkpt lat="43.48336419402168" lon="12.495097984442708"><ele>597.0</ele><time>2026-05-01T11:28:05Z</time></trkpt><trkpt lat="43.48345367142663" lon="12.495067200894304"><ele>597.0</ele><time>2026-05-01T11:28:06Z</time></trkpt><trkpt lat="43.483546564572336" lon="12.495029033820856"><ele>597.0</ele><time>2026-05-01T11:28:07Z</time></trkpt><trkpt lat="43.48362725479865" lon="12.494964174338095"><ele>597.0</ele><time>2026-05-01T11:28:08Z</time></trkpt><trkpt lat="43.48370970416415" lon="12.49491084047726"><ele>597.7142857142858</ele><time>2026-05-01T11:28:09Z</time></trkpt><trkpt lat="43.48378664691232" lon="12.494850363483721"><ele>598.4285714285714</ele><time>2026-05-01T11:28:10Z</time></trkpt><trkpt lat="43.483857654599845" lon="12.494813140286388"><ele>599.1428571428571</ele><time>2026-05-01T11:28:11Z</time></trkpt><trkpt lat="43.48392712830021" lon="12.49479572936195"><ele>599.8571428571429</ele><time>2026-05-01T11:28:12Z</time></trkpt><trkpt lat="43.48400385999202" lon="12.494782774189051"><ele>600.5714285714286</ele><time>2026-05-01T11:28:13Z</time></trkpt><trkpt lat="43.48406640916118" lon="12.494761014881945"><ele>601.2857142857143</ele><time>2026-05-01T11:28:14Z</time></trkpt><trkpt lat="43.484122387271015" lon="12.494717295192482"><ele>602.0</ele><time>2026-05-01T11:28:15Z</time></trkpt><trkpt lat="43.484191217333766" lon="12.494714120185458"><ele>602.0</ele><time>2026-05-01T11:28:16Z</time></trkpt><trkpt lat="43.48426309157678" lon="12.494725811277053"><ele>602.0</ele><time>2026-05-01T11:28:17Z</time></trkpt><trkpt lat="43.484329178900076" lon="12.49478018768502"><ele>602.0</ele><time>2026-05-01T11:28:18Z</time></trkpt><trkpt lat="43.48439933305112" lon="12.49480129558896"><ele>602.0</ele><time>2026-05-01T11:28:19Z</time></trkpt><trkpt lat="43.4844564427377" lon="12.494840468108814"><ele>602.0</ele><time>2026-05-01T11:28:20Z</time></trkpt><trkpt lat="43.48453748558594" lon="12.49484882581594"><ele>602.0</ele><time>2026-05-01T11:28:21Z</time></trkpt><trkpt lat="43.48460660789308" lon="12.49485004854302"><ele>602.0</ele><time>2026-05-01T11:28:22Z</time></trkpt><trkpt lat="43.484673273623144" lon="12.494847508001419"><ele>602.8000000000001</ele><time>2026-05-01T11:28:23Z</time></trkpt><trkpt lat="43.484738380969524" lon="12.494828206851238"><ele>603.6</ele><time>2026-05-01T11:28:24Z</time></trkpt><trkpt lat="43.48485209622896" lon="12.494774158518542"><ele>604.4000000000001</ele><time>2026-05-01T11:28:26Z</time></trkpt><trkpt lat="43.48495292450108" lon="12.494682046246488"><ele>605.2</ele><time>2026-05-01T11:28:28Z</time></trkpt><trkpt lat="43.48501179669669" lon="12.494642729170888"><ele>606.0</ele><time>2026-05-01T11:28:29Z</time></trkpt><trkpt lat="43.48512121003091" lon="12.494576957230938"><ele>606.0</ele><time>2026-05-01T11:28:31Z</time></trkpt><trkpt lat="43.48520578102974" lon="12.494541540095934"><ele>606.0</ele><time>2026-05-01T11:28:33Z</time></trkpt><trkpt lat="43.485327052993426" lon="12.494588903622535"><ele>606.0</ele><time>2026-05-01T11:28:36Z</time></trkpt><trkpt lat="43.48541971494975" lon="12.494674335409059"><ele>606.0</ele><time>2026-05-01T11:28:38Z</time></trkpt><trkpt lat="43.48549743750648" lon="12.494950725230074"><ele>605.8571428571429</ele><time>2026-05-01T11:28:40Z</time></trkpt><trkpt lat="43.4855778708734" lon="12.494960587669423"><ele>605.7142857142857</ele><time>2026-05-01T11:28:42Z</time></trkpt><trkpt lat="43.48564487550181" lon="12.494968803781724"><ele>605.5714285714286</ele><time>2026-05-01T11:28:44Z</time></trkpt><trkpt lat="43.48571260869368" lon="12.49497418138516"><ele>605.4285714285714</ele><time>2026-05-01T11:28:46Z</time></trkpt><trkpt lat="43.485800787535105" lon="12.494960208248113"><ele>605.2857142857143</ele><time>2026-05-01T11:28:48Z</time></trkpt><trkpt lat="43.48585909953936" lon="12.494897988803604"><ele>605.1428571428571</ele><time>2026-05-01T11:28:49Z</time></trkpt><trkpt lat="43.4858772355115" lon="12.49480509414129"><ele>605.0</ele><time>2026-05-01T11:28:50Z</time></trkpt><trkpt lat="43.48590671191783" lon="12.494726258155776"><ele>605.0</ele><time>2026-05-01T11:28:51Z</time></trkpt><trkpt lat="43.48593452326117" lon="12.494647805862376"><ele>605.0</ele><time>2026-05-01T11:28:53Z</time></trkpt><trkpt lat="43.48595214072769" lon="12.494561409337543"><ele>605.0</ele><time>2026-05-01T11:28:55.001Z</time></trkpt><trkpt lat="43.48599863770534" lon="12.494455372945033"><ele>605.0</ele><time>2026-05-01T11:28:58.001Z</time></trkpt><trkpt lat="43.48585389217034" lon="12.494383355941833"><ele>605.0</ele><time>2026-05-01T11:29:03.999Z</time></trkpt><trkpt lat="43.485783452557314" lon="12.494396523260486"><ele>605.0</ele><time>2026-05-01T11:29:05.999Z</time></trkpt><trkpt lat="43.485712185266465" lon="12.494337592850501"><ele>600.6666666666666</ele><time>2026-05-01T11:29:08.999Z</time></trkpt><trkpt lat="43.48572125060076" lon="12.494250902458901"><ele>596.3333333333333</ele><time>2026-05-01T11:29:10.999Z</time></trkpt><trkpt lat="43.48576657629292" lon="12.494172755631455"><ele>592.0</ele><time>2026-05-01T11:29:12.999Z</time></trkpt><trkpt lat="43.485836314084075" lon="12.494140903272916"><ele>587.6666666666666</ele><time>2026-05-01T11:29:14.999Z</time></trkpt><trkpt lat="43.48591550981991" lon="12.494134651339936"><ele>583.3333333333334</ele><time>2026-05-01T11:29:16.999Z</time></trkpt><trkpt lat="43.486003562897416" lon="12.49413338081606"><ele>579.0</ele><time>2026-05-01T11:29:18.999Z</time></trkpt><trkpt lat="43.486082800246685" lon="12.49411830297406"><ele>579.0</ele><time>2026-05-01T11:29:20.999Z</time></trkpt><trkpt lat="43.48614599511443" lon="12.494047087208545"><ele>579.0</ele><time>2026-05-01T11:29:22.999Z</time></trkpt><trkpt lat="43.48617451833277" lon="12.493913154882621"><ele>579.0</ele><time>2026-05-01T11:29:24.999Z</time></trkpt><trkpt lat="43.486193017452415" lon="12.49376714827372"><ele>579.0</ele><time>2026-05-01T11:29:26.999Z</time></trkpt><trkpt lat="43.4862024540638" lon="12.493634439093702"><ele>579.0</ele><time>2026-05-01T11:29:28.999Z</time></trkpt><trkpt lat="43.486235018335314" lon="12.49350504852415"><ele>578.0</ele><time>2026-05-01T11:29:31Z</time></trkpt><trkpt lat="43.48627776672583" lon="12.493394836975785"><ele>577.0</ele><time>2026-05-01T11:29:33Z</time></trkpt><trkpt lat="43.486346507878274" lon="12.49328645829814"><ele>576.0</ele><time>2026-05-01T11:29:35Z</time></trkpt><trkpt lat="43.48642853382768" lon="12.493183678571668"><ele>575.0</ele><time>2026-05-01T11:29:37Z</time></trkpt><trkpt lat="43.48647401911958" lon="12.493121693939784"><ele>574.0</ele><time>2026-05-01T11:29:38Z</time></trkpt><trkpt lat="43.48652210052964" lon="12.49304819101908"><ele>573.0</ele><time>2026-05-01T11:29:39Z</time></trkpt><trkpt lat="43.486553668615336" lon="12.492966156580742"><ele>569.0</ele><time>2026-05-01T11:29:40Z</time></trkpt><trkpt lat="43.48660591436578" lon="12.492887172825938"><ele>565.0</ele><time>2026-05-01T11:29:41Z</time></trkpt><trkpt lat="43.48666380190045" lon="12.492817394534944"><ele>561.0</ele><time>2026-05-01T11:29:42Z</time></trkpt><trkpt lat="43.486713947759725" lon="12.492738949625744"><ele>557.0</ele><time>2026-05-01T11:29:43Z</time></trkpt><trkpt lat="43.486768416621445" lon="12.492657482657775"><ele>553.0</ele><time>2026-05-01T11:29:44Z</time></trkpt><trkpt lat="43.486816675561336" lon="12.492570961012778"><ele>549.0</ele><time>2026-05-01T11:29:45Z</time></trkpt><trkpt lat="43.48686092437672" lon="12.492486653242043"><ele>549.0</ele><time>2026-05-01T11:29:46Z</time></trkpt><trkpt lat="43.48690628648391" lon="12.492418982825304"><ele>549.0</ele><time>2026-05-01T11:29:47Z</time></trkpt><trkpt lat="43.48694658121241" lon="12.492345684261553"><ele>549.0</ele><time>2026-05-01T11:29:48Z</time></trkpt><trkpt lat="43.487019506193676" lon="12.49222883644756"><ele>549.0</ele><time>2026-05-01T11:29:50Z</time></trkpt><trkpt lat="43.4870871673076" lon="12.492155072379077"><ele>549.0</ele><time>2026-05-01T11:29:52Z</time></trkpt><trkpt lat="43.487106148580956" lon="12.492072137258848"><ele>549.0</ele><time>2026-05-01T11:29:54Z</time></trkpt><trkpt lat="43.48701126424541" lon="12.49197350043446"><ele>549.0</ele><time>2026-05-01T11:29:57Z</time></trkpt><trkpt lat="43.48691328606827" lon="12.492062039724821"><ele>549.0</ele><time>2026-05-01T11:29:59Z</time></trkpt><trkpt lat="43.48685535756521" lon="12.49211701250446"><ele>549.0</ele><time>2026-05-01T11:30:00Z</time></trkpt><trkpt lat="43.486799236782915" lon="12.49217027004293"><ele>549.0</ele><time>2026-05-01T11:30:01Z</time></trkpt><trkpt lat="43.486739772006224" lon="12.492220983191164"><ele>549.0</ele><time>2026-05-01T11:30:02Z</time></trkpt><trkpt lat="43.48668006625525" lon="12.492261610490885"><ele>549.0</ele><time>2026-05-01T11:30:03Z</time></trkpt><trkpt lat="43.4865572644161" lon="12.492276583112906"><ele>549.0</ele><time>2026-05-01T11:30:05Z</time></trkpt><trkpt lat="43.486482790603354" lon="12.492260490795005"><ele>549.0</ele><time>2026-05-01T11:30:06Z</time></trkpt><trkpt lat="43.48639924033608" lon="12.492228924931663"><ele>549.0</ele><time>2026-05-01T11:30:07Z</time></trkpt><trkpt lat="43.48630771020897" lon="12.49219425939404"><ele>549.0</ele><time>2026-05-01T11:30:08Z</time></trkpt><trkpt lat="43.486216331466004" lon="12.492160558828768"><ele>549.0</ele><time>2026-05-01T11:30:09Z</time></trkpt><trkpt lat="43.486116528509235" lon="12.492124120791381"><ele>547.3333333333334</ele><time>2026-05-01T11:30:10Z</time></trkpt><trkpt lat="43.486020660710786" lon="12.49209016369549"><ele>545.6666666666666</ele><time>2026-05-01T11:30:11Z</time></trkpt><trkpt lat="43.48593042623136" lon="12.492058201971046"><ele>544.0</ele><time>2026-05-01T11:30:12Z</time></trkpt><trkpt lat="43.48585249585065" lon="12.492030598447851"><ele>542.3333333333333</ele><time>2026-05-01T11:30:13Z</time></trkpt><trkpt lat="43.48578411649149" lon="12.49200870525052"><ele>540.6666666666666</ele><time>2026-05-01T11:30:14Z</time></trkpt><trkpt lat="43.485685300915605" lon="12.491970213647717"><ele>539.0</ele><time>2026-05-01T11:30:16Z</time></trkpt><trkpt lat="43.48561484806492" lon="12.491909030326068"><ele>536.5</ele><time>2026-05-01T11:30:19Z</time></trkpt><trkpt lat="43.485639665778415" lon="12.491817014287623"><ele>534.0</ele><time>2026-05-01T11:30:22Z</time></trkpt><trkpt lat="43.485694124512044" lon="12.49176034713128"><ele>531.5</ele><time>2026-05-01T11:30:24Z</time></trkpt><trkpt lat="43.4857518133393" lon="12.49169088918589"><ele>529.0</ele><time>2026-05-01T11:30:26Z</time></trkpt><trkpt lat="43.48582328211026" lon="12.491612973896096"><ele>526.5</ele><time>2026-05-01T11:30:28Z</time></trkpt><trkpt lat="43.48591189540054" lon="12.49150881281877"><ele>524.0</ele><time>2026-05-01T11:30:30Z</time></trkpt><trkpt lat="43.48596405099008" lon="12.49144240212019"><ele>524.0</ele><time>2026-05-01T11:30:31Z</time></trkpt><trkpt lat="43.48601426496786" lon="12.491370792926775"><ele>524.0</ele><time>2026-05-01T11:30:32Z</time></trkpt><trkpt lat="43.4860637241556" lon="12.4912952127951"><ele>524.0</ele><time>2026-05-01T11:30:33Z</time></trkpt><trkpt lat="43.48610751089472" lon="12.491214671057849"><ele>524.0</ele><time>2026-05-01T11:30:34Z</time></trkpt><trkpt lat="43.48615991515938" lon="12.491134680915247"><ele>524.0</ele><time>2026-05-01T11:30:35Z</time></trkpt><trkpt lat="43.48621979433969" lon="12.491047982509906"><ele>524.0</ele><time>2026-05-01T11:30:36.001Z</time></trkpt><trkpt lat="43.486309864202305" lon="12.490978371770893"><ele>524.0</ele><time>2026-05-01T11:30:37.001Z</time></trkpt><trkpt lat="43.486400050045354" lon="12.490906291790928"><ele>524.0</ele><time>2026-05-01T11:30:38.001Z</time></trkpt><trkpt lat="43.48648056630688" lon="12.490828343552971"><ele>524.0</ele><time>2026-05-01T11:30:39.001Z</time></trkpt><trkpt lat="43.48656545698211" lon="12.490761465470628"><ele>524.0</ele><time>2026-05-01T11:30:40.001Z</time></trkpt><trkpt lat="43.48665044496686" lon="12.490690201229548"><ele>524.0</ele><time>2026-05-01T11:30:41.001Z</time></trkpt><trkpt lat="43.48674666625361" lon="12.49064199210369"><ele>524.0</ele><time>2026-05-01T11:30:42.001Z</time></trkpt><trkpt lat="43.48682861729603" lon="12.490568582818073"><ele>524.0</ele><time>2026-05-01T11:30:43.001Z</time></trkpt><trkpt lat="43.486901409049935" lon="12.490505360236373"><ele>524.0</ele><time>2026-05-01T11:30:44.001Z</time></trkpt><trkpt lat="43.486970084638" lon="12.490444798878238"><ele>524.0</ele><time>2026-05-01T11:30:45.001Z</time></trkpt><trkpt lat="43.4870384824002" lon="12.490390438902338"><ele>524.0</ele><time>2026-05-01T11:30:46.001Z</time></trkpt><trkpt lat="43.487104648176334" lon="12.490343958212902"><ele>524.0</ele><time>2026-05-01T11:30:47.001Z</time></trkpt><trkpt lat="43.487172902653754" lon="12.490294394667439"><ele>524.1428571428571</ele><time>2026-05-01T11:30:48.001Z</time></trkpt><trkpt lat="43.48723982637625" lon="12.49025077902718"><ele>524.2857142857143</ele><time>2026-05-01T11:30:49.001Z</time></trkpt><trkpt lat="43.487318144883076" lon="12.490217521168232"><ele>524.4285714285714</ele><time>2026-05-01T11:30:50.001Z</time></trkpt><trkpt lat="43.48738840393175" lon="12.490198429920985"><ele>524.5714285714286</ele><time>2026-05-01T11:30:51.001Z</time></trkpt><trkpt lat="43.48745715980403" lon="12.49020905666478"><ele>524.7142857142858</ele><time>2026-05-01T11:30:52.001Z</time></trkpt><trkpt lat="43.48752643435" lon="12.49020228137925"><ele>524.8571428571429</ele><time>2026-05-01T11:30:53.001Z</time></trkpt><trkpt lat="43.487601346094436" lon="12.49019889555605"><ele>525.0</ele><time>2026-05-01T11:30:54.001Z</time></trkpt><trkpt lat="43.487681734135776" lon="12.490185637399147"><ele>525.0</ele><time>2026-05-01T11:30:55.001Z</time></trkpt><trkpt lat="43.487758414580185" lon="12.490186121516798"><ele>525.0</ele><time>2026-05-01T11:30:56.001Z</time></trkpt><trkpt lat="43.487834493295246" lon="12.490196805369237"><ele>525.0</ele><time>2026-05-01T11:30:57.001Z</time></trkpt><trkpt lat="43.4879076099458" lon="12.49023610373542"><ele>525.0</ele><time>2026-05-01T11:30:58.001Z</time></trkpt><trkpt lat="43.48797898424825" lon="12.490260201439966"><ele>525.0</ele><time>2026-05-01T11:30:59.001Z</time></trkpt><trkpt lat="43.48804923454863" lon="12.490290144756711"><ele>525.0</ele><time>2026-05-01T11:31:00.001Z</time></trkpt><trkpt lat="43.48811973830978" lon="12.49032541308205"><ele>524.8333333333334</ele><time>2026-05-01T11:31:01.001Z</time></trkpt><trkpt lat="43.48819366010484" lon="12.490349465097088"><ele>524.6666666666666</ele><time>2026-05-01T11:31:02.001Z</time></trkpt><trkpt lat="43.48825892565517" lon="12.49038546889911"><ele>524.5</ele><time>2026-05-01T11:31:03.001Z</time></trkpt><trkpt lat="43.48832616467973" lon="12.490422877940116"><ele>524.3333333333333</ele><time>2026-05-01T11:31:04.001Z</time></trkpt><trkpt lat="43.488388351656496" lon="12.49046334430501"><ele>524.1666666666666</ele><time>2026-05-01T11:31:05.001Z</time></trkpt><trkpt lat="43.488448285653504" lon="12.4905003374176"><ele>524.0</ele><time>2026-05-01T11:31:05.999Z</time></trkpt><trkpt lat="43.48856811110447" lon="12.490554314492856"><ele>524.0</ele><time>2026-05-01T11:31:07.999Z</time></trkpt><trkpt lat="43.48863723060417" lon="12.490571281108894"><ele>524.0</ele><time>2026-05-01T11:31:08.999Z</time></trkpt><trkpt lat="43.488707362276685" lon="12.490581904149522"><ele>524.0</ele><time>2026-05-01T11:31:09.999Z</time></trkpt><trkpt lat="43.488775766785224" lon="12.490575961641602"><ele>524.0</ele><time>2026-05-01T11:31:10.999Z</time></trkpt><trkpt lat="43.48884373462066" lon="12.49055267274395"><ele>524.0</ele><time>2026-05-01T11:31:11.999Z</time></trkpt><trkpt lat="43.488918829096804" lon="12.490513972907037"><ele>524.0</ele><time>2026-05-01T11:31:12.999Z</time></trkpt><trkpt lat="43.48900144958119" lon="12.490463312963076"><ele>523.6</ele><time>2026-05-01T11:31:13.999Z</time></trkpt><trkpt lat="43.48909717301331" lon="12.49043093466512"><ele>523.2</ele><time>2026-05-01T11:31:14.999Z</time></trkpt><trkpt lat="43.48918172089851" lon="12.49037935158553"><ele>522.8000000000001</ele><time>2026-05-01T11:31:15.999Z</time></trkpt><trkpt lat="43.48924810411514" lon="12.490310527355721"><ele>522.4</ele><time>2026-05-01T11:31:16.999Z</time></trkpt><trkpt lat="43.48931643958769" lon="12.490283724018314"><ele>522.0</ele><time>2026-05-01T11:31:17.999Z</time></trkpt><trkpt lat="43.48944382127124" lon="12.49023398300608"><ele>520.8000000000001</ele><time>2026-05-01T11:31:20.999Z</time></trkpt><trkpt lat="43.48954087075487" lon="12.490225580735762"><ele>519.6</ele><time>2026-05-01T11:31:22.999Z</time></trkpt><trkpt lat="43.48961582087917" lon="12.49032370213048"><ele>518.4000000000001</ele><time>2026-05-01T11:31:24.999Z</time></trkpt><trkpt lat="43.48971574031194" lon="12.49042648257271"><ele>517.2</ele><time>2026-05-01T11:31:26.999Z</time></trkpt><trkpt lat="43.4898005734947" lon="12.490507898786493"><ele>516.0</ele><time>2026-05-01T11:31:28.999Z</time></trkpt><trkpt lat="43.48991436941179" lon="12.490568364527112"><ele>515.6666666666666</ele><time>2026-05-01T11:31:30.999Z</time></trkpt><trkpt lat="43.48998487398157" lon="12.49059078995532"><ele>515.3333333333334</ele><time>2026-05-01T11:31:31.999Z</time></trkpt><trkpt lat="43.490058401771634" lon="12.490599648387793"><ele>515.0</ele><time>2026-05-01T11:31:32.999Z</time></trkpt><trkpt lat="43.4901342998446" lon="12.490609034576158"><ele>514.6666666666667</ele><time>2026-05-01T11:31:33.999Z</time></trkpt><trkpt lat="43.4902135308074" lon="12.490655188626736"><ele>514.3333333333334</ele><time>2026-05-01T11:31:34.999Z</time></trkpt><trkpt lat="43.49029536430903" lon="12.49068260287832"><ele>514.0</ele><time>2026-05-01T11:31:35.999Z</time></trkpt><trkpt lat="43.490368412576125" lon="12.490684300828274"><ele>512.8333333333334</ele><time>2026-05-01T11:31:37Z</time></trkpt><trkpt lat="43.49047557631128" lon="12.490733341221294"><ele>511.6666666666667</ele><time>2026-05-01T11:31:39Z</time></trkpt><trkpt lat="43.49053721462287" lon="12.490777666322547"><ele>510.5</ele><time>2026-05-01T11:31:40Z</time></trkpt><trkpt lat="43.490596596977774" lon="12.490824907038258"><ele>509.33333333333337</ele><time>2026-05-01T11:31:41Z</time></trkpt><trkpt lat="43.490656728100184" lon="12.490887375544776"><ele>508.1666666666667</ele><time>2026-05-01T11:31:42Z</time></trkpt><trkpt lat="43.49074228931697" lon="12.490961780285874"><ele>507.0</ele><time>2026-05-01T11:31:43Z</time></trkpt><trkpt lat="43.49083566785185" lon="12.491040412158107"><ele>507.0</ele><time>2026-05-01T11:31:44Z</time></trkpt><trkpt lat="43.490921424180485" lon="12.491099645477268"><ele>507.0</ele><time>2026-05-01T11:31:45Z</time></trkpt><trkpt lat="43.490988601972376" lon="12.491161053717985"><ele>507.0</ele><time>2026-05-01T11:31:46Z</time></trkpt><trkpt lat="43.49104408133202" lon="12.491218441382475"><ele>507.0</ele><time>2026-05-01T11:31:47Z</time></trkpt><trkpt lat="43.49110670834732" lon="12.491270340734694"><ele>507.0</ele><time>2026-05-01T11:31:48Z</time></trkpt><trkpt lat="43.49119962721508" lon="12.491369377230809"><ele>507.0</ele><time>2026-05-01T11:31:50Z</time></trkpt><trkpt lat="43.49129547229803" lon="12.491442887389836"><ele>506.40000000000003</ele><time>2026-05-01T11:31:52Z</time></trkpt><trkpt lat="43.491403902756" lon="12.49148243469984"><ele>505.80000000000007</ele><time>2026-05-01T11:31:54Z</time></trkpt><trkpt lat="43.491510059326444" lon="12.491516791522747"><ele>505.2</ele><time>2026-05-01T11:31:56Z</time></trkpt><trkpt lat="43.491601938562276" lon="12.491570614740427"><ele>504.6</ele><time>2026-05-01T11:31:58Z</time></trkpt><trkpt lat="43.4916701061367" lon="12.491663863122014"><ele>504.0</ele><time>2026-05-01T11:32:00Z</time></trkpt><trkpt lat="43.4917473997848" lon="12.491776063521636"><ele>504.0</ele><time>2026-05-01T11:32:02Z</time></trkpt><trkpt lat="43.49182900812932" lon="12.491841935751452"><ele>504.0</ele><time>2026-05-01T11:32:04Z</time></trkpt><trkpt lat="43.49191833844628" lon="12.491857433484077"><ele>504.0</ele><time>2026-05-01T11:32:06Z</time></trkpt><trkpt lat="43.49203814541096" lon="12.491799790415405"><ele>504.0</ele><time>2026-05-01T11:32:08Z</time></trkpt><trkpt lat="43.492109420249726" lon="12.491740345801771"><ele>504.0</ele><time>2026-05-01T11:32:09Z</time></trkpt><trkpt lat="43.49217406068728" lon="12.491682700556655"><ele>505.0</ele><time>2026-05-01T11:32:10Z</time></trkpt><trkpt lat="43.492240897533065" lon="12.491642564431059"><ele>506.0</ele><time>2026-05-01T11:32:11Z</time></trkpt><trkpt lat="43.49229680486197" lon="12.491600122246455"><ele>507.0</ele><time>2026-05-01T11:32:12Z</time></trkpt><trkpt lat="43.49238060950182" lon="12.491541315764938"><ele>508.0</ele><time>2026-05-01T11:32:14Z</time></trkpt><trkpt lat="43.49244314237606" lon="12.491496068718684"><ele>509.0</ele><time>2026-05-01T11:32:17Z</time></trkpt><trkpt lat="43.492513968946604" lon="12.491487808479073"><ele>510.0</ele><time>2026-05-01T11:32:26.001Z</time></trkpt><trkpt lat="43.492521086742336" lon="12.49157497517485"><ele>511.0</ele><time>2026-05-01T11:32:27.001Z</time></trkpt><trkpt lat="43.49257865462928" lon="12.491659665444779"><ele>511.0</ele><time>2026-05-01T11:32:28.001Z</time></trkpt><trkpt lat="43.49263153541798" lon="12.491736304266963"><ele>511.0</ele><time>2026-05-01T11:32:29.001Z</time></trkpt><trkpt lat="43.49269735215249" lon="12.491830787944984"><ele>511.0</ele><time>2026-05-01T11:32:30.001Z</time></trkpt><trkpt lat="43.49278224226435" lon="12.491951174503084"><ele>511.0</ele><time>2026-05-01T11:32:31.001Z</time></trkpt><trkpt lat="43.492882843478036" lon="12.492060969413513"><ele>511.0</ele><time>2026-05-01T11:32:32.001Z</time></trkpt><trkpt lat="43.49297196147853" lon="12.492194895893139"><ele>514.0</ele><time>2026-05-01T11:32:33.001Z</time></trkpt><trkpt lat="43.4930713650221" lon="12.492336323985969"><ele>517.0</ele><time>2026-05-01T11:32:34.001Z</time></trkpt><trkpt lat="43.49318250606427" lon="12.492486805786422"><ele>520.0</ele><time>2026-05-01T11:32:35.001Z</time></trkpt><trkpt lat="43.493302631009904" lon="12.492659331255023"><ele>520.0</ele><time>2026-05-01T11:32:36.001Z</time></trkpt><trkpt lat="43.49341157596352" lon="12.492844993146608"><ele>520.0</ele><time>2026-05-01T11:32:37.001Z</time></trkpt><trkpt lat="43.493538162771834" lon="12.493025335689726"><ele>520.0</ele><time>2026-05-01T11:32:38.001Z</time></trkpt><trkpt lat="43.49368432225592" lon="12.49320248199164"><ele>521.3333333333334</ele><time>2026-05-01T11:32:39.001Z</time></trkpt><trkpt lat="43.4938189873747" lon="12.493400554974963"><ele>522.6666666666666</ele><time>2026-05-01T11:32:40.001Z</time></trkpt><trkpt lat="43.49395267074145" lon="12.493594292716388"><ele>524.0</ele><time>2026-05-01T11:32:41.001Z</time></trkpt><trkpt lat="43.49407726562655" lon="12.493808876021491"><ele>517.0</ele><time>2026-05-01T11:32:42.001Z</time></trkpt><trkpt lat="43.494190538666516" lon="12.494046592960144"><ele>510.0</ele><time>2026-05-01T11:32:43.001Z</time></trkpt><trkpt lat="43.49428058979328" lon="12.494303440473308"><ele>503.0</ele><time>2026-05-01T11:32:44.001Z</time></trkpt><trkpt lat="43.49437699745413" lon="12.49455546059895"><ele>500.66666666666663</ele><time>2026-05-01T11:32:45.001Z</time></trkpt><trkpt lat="43.494457026974246" lon="12.494805534868377"><ele>498.33333333333337</ele><time>2026-05-01T11:32:46.001Z</time></trkpt><trkpt lat="43.49453296258164" lon="12.495042816502906"><ele>496.0</ele><time>2026-05-01T11:32:47.001Z</time></trkpt><trkpt lat="43.49461248867367" lon="12.495291317680055"><ele>498.5</ele><time>2026-05-01T11:32:48.001Z</time></trkpt><trkpt lat="43.4946988128232" lon="12.495562800337952"><ele>501.0</ele><time>2026-05-01T11:32:49.001Z</time></trkpt><trkpt lat="43.49479595998264" lon="12.495871656049218"><ele>501.0</ele><time>2026-05-01T11:32:50.001Z</time></trkpt><trkpt lat="43.494929660844235" lon="12.496108865821185"><ele>501.0</ele><time>2026-05-01T11:32:52.001Z</time></trkpt><trkpt lat="43.49500217271621" lon="12.496353256388955"><ele>501.0</ele><time>2026-05-01T11:32:53.001Z</time></trkpt><trkpt lat="43.49506511403292" lon="12.496604851540345"><ele>499.0</ele><time>2026-05-01T11:32:54.001Z</time></trkpt><trkpt lat="43.49514793215385" lon="12.496845654400616"><ele>497.0</ele><time>2026-05-01T11:32:55.001Z</time></trkpt><trkpt lat="43.49522693068046" lon="12.497100332244687"><ele>495.0</ele><time>2026-05-01T11:32:56.001Z</time></trkpt><trkpt lat="43.495286835233536" lon="12.497293524209805"><ele>495.33333333333337</ele><time>2026-05-01T11:32:57.001Z</time></trkpt><trkpt lat="43.49536893535698" lon="12.497575362915432"><ele>495.6666666666667</ele><time>2026-05-01T11:32:58.001Z</time></trkpt><trkpt lat="43.495449259543065" lon="12.497848899070009"><ele>496.0</ele><time>2026-05-01T11:32:59.001Z</time></trkpt><trkpt lat="43.495531764361914" lon="12.498114873731327"><ele>493.6666666666667</ele><time>2026-05-01T11:33:00.001Z</time></trkpt><trkpt lat="43.495614618022366" lon="12.498381312902103"><ele>491.33333333333337</ele><time>2026-05-01T11:33:01.001Z</time></trkpt><trkpt lat="43.49569162820325" lon="12.498646194569774"><ele>489.0</ele><time>2026-05-01T11:33:02.001Z</time></trkpt><trkpt lat="43.49575202267887" lon="12.498917874972918"><ele>487.66666666666663</ele><time>2026-05-01T11:33:03.001Z</time></trkpt><trkpt lat="43.495771650464924" lon="12.499196491203389"><ele>486.3333333333333</ele><time>2026-05-01T11:33:04.001Z</time></trkpt><trkpt lat="43.49580208954027" lon="12.499479015505694"><ele>485.0</ele><time>2026-05-01T11:33:05.001Z</time></trkpt><trkpt lat="43.49584444673383" lon="12.499757854693343"><ele>484.66666666666663</ele><time>2026-05-01T11:33:06.001Z</time></trkpt><trkpt lat="43.495869775857365" lon="12.500044667773405"><ele>484.33333333333337</ele><time>2026-05-01T11:33:07.001Z</time></trkpt><trkpt lat="43.49590049937982" lon="12.500337867146998"><ele>484.0</ele><time>2026-05-01T11:33:08.001Z</time></trkpt><trkpt lat="43.49593315423287" lon="12.500627752874662"><ele>485.33333333333337</ele><time>2026-05-01T11:33:09.001Z</time></trkpt><trkpt lat="43.49596534767521" lon="12.50092082450706"><ele>486.66666666666663</ele><time>2026-05-01T11:33:10.001Z</time></trkpt><trkpt lat="43.49599795385397" lon="12.50121001041034"><ele>488.0</ele><time>2026-05-01T11:33:11.001Z</time></trkpt><trkpt lat="43.49603399496802" lon="12.50150175945599"><ele>488.0</ele><time>2026-05-01T11:33:11.999Z</time></trkpt><trkpt lat="43.496050670500296" lon="12.501779010701856"><ele>488.0</ele><time>2026-05-01T11:33:12.999Z</time></trkpt><trkpt lat="43.49608069225977" lon="12.502051023528239"><ele>488.0</ele><time>2026-05-01T11:33:13.999Z</time></trkpt><trkpt lat="43.496113880666286" lon="12.502318573660446"><ele>487.0</ele><time>2026-05-01T11:33:14.999Z</time></trkpt><trkpt lat="43.49613872522856" lon="12.502580572994463"><ele>486.0</ele><time>2026-05-01T11:33:15.999Z</time></trkpt><trkpt lat="43.49616428069055" lon="12.502840097577739"><ele>485.0</ele><time>2026-05-01T11:33:16.999Z</time></trkpt><trkpt lat="43.49619066098392" lon="12.503093640371858"><ele>484.66666666666663</ele><time>2026-05-01T11:33:17.999Z</time></trkpt><trkpt lat="43.49621702239627" lon="12.503341061479176"><ele>484.33333333333337</ele><time>2026-05-01T11:33:18.999Z</time></trkpt><trkpt lat="43.49624501684982" lon="12.503572650032993"><ele>484.0</ele><time>2026-05-01T11:33:19.999Z</time></trkpt><trkpt lat="43.496268534852646" lon="12.50381244096734"><ele>482.0</ele><time>2026-05-01T11:33:20.999Z</time></trkpt><trkpt lat="43.496292518487515" lon="12.504045060861774"><ele>480.0</ele><time>2026-05-01T11:33:21.999Z</time></trkpt><trkpt lat="43.49631484602513" lon="12.504273025807482"><ele>478.0</ele><time>2026-05-01T11:33:22.999Z</time></trkpt><trkpt lat="43.496335557423855" lon="12.504500785048522"><ele>478.0</ele><time>2026-05-01T11:33:23.999Z</time></trkpt><trkpt lat="43.496360459433504" lon="12.504728536997808"><ele>478.0</ele><time>2026-05-01T11:33:24.999Z</time></trkpt><trkpt lat="43.49638283563476" lon="12.504951089797169"><ele>478.0</ele><time>2026-05-01T11:33:25.999Z</time></trkpt><trkpt lat="43.4964047377958" lon="12.505172461766003"><ele>478.0</ele><time>2026-05-01T11:33:26.999Z</time></trkpt><trkpt lat="43.49643221514912" lon="12.505389091438246"><ele>478.0</ele><time>2026-05-01T11:33:27.999Z</time></trkpt><trkpt lat="43.49647367191586" lon="12.505605148377885"><ele>478.0</ele><time>2026-05-01T11:33:28.999Z</time></trkpt><trkpt lat="43.49653756360401" lon="12.505815357614146"><ele>477.6666666666667</ele><time>2026-05-01T11:33:29.999Z</time></trkpt><trkpt lat="43.496615378871816" lon="12.506022142538752"><ele>477.33333333333337</ele><time>2026-05-01T11:33:30.999Z</time></trkpt><trkpt lat="43.4966952080498" lon="12.506233240585367"><ele>477.0</ele><time>2026-05-01T11:33:31.999Z</time></trkpt><trkpt lat="43.49677955172839" lon="12.506444902704512"><ele>475.66666666666663</ele><time>2026-05-01T11:33:32.999Z</time></trkpt><trkpt lat="43.49686968421872" lon="12.506659336810305"><ele>474.3333333333333</ele><time>2026-05-01T11:33:34Z</time></trkpt><trkpt lat="43.49695472352991" lon="12.506878785157388"><ele>473.0</ele><time>2026-05-01T11:33:35Z</time></trkpt><trkpt lat="43.49703801587554" lon="12.50710318083659"><ele>479.0</ele><time>2026-05-01T11:33:36Z</time></trkpt><trkpt lat="43.49712596570196" lon="12.507326341878615"><ele>485.0</ele><time>2026-05-01T11:33:37Z</time></trkpt><trkpt lat="43.49721631189321" lon="12.507552114390306"><ele>491.0</ele><time>2026-05-01T11:33:38Z</time></trkpt><trkpt lat="43.49730672267781" lon="12.507788538815324"><ele>486.66666666666663</ele><time>2026-05-01T11:33:39Z</time></trkpt><trkpt lat="43.49739497752207" lon="12.508025401657102"><ele>482.33333333333337</ele><time>2026-05-01T11:33:40Z</time></trkpt><trkpt lat="43.49748328540681" lon="12.508257553963704"><ele>478.0</ele><time>2026-05-01T11:33:41Z</time></trkpt><trkpt lat="43.4975743078055" lon="12.50848748386727"><ele>478.0</ele><time>2026-05-01T11:33:42Z</time></trkpt><trkpt lat="43.49766007291948" lon="12.508719641142713"><ele>478.0</ele><time>2026-05-01T11:33:43Z</time></trkpt><trkpt lat="43.49774569000966" lon="12.508956645992958"><ele>478.0</ele><time>2026-05-01T11:33:44Z</time></trkpt><trkpt lat="43.49779014474138" lon="12.509226900204055"><ele>476.0</ele><time>2026-05-01T11:33:45Z</time></trkpt><trkpt lat="43.4978127619445" lon="12.509505299408943"><ele>474.0</ele><time>2026-05-01T11:33:46Z</time></trkpt><trkpt lat="43.49784404499044" lon="12.509799408580552"><ele>472.0</ele><time>2026-05-01T11:33:47Z</time></trkpt><trkpt lat="43.49785274063634" lon="12.510104980797038"><ele>471.0</ele><time>2026-05-01T11:33:48Z</time></trkpt><trkpt lat="43.4978634966752" lon="12.510410850541442"><ele>470.0</ele><time>2026-05-01T11:33:49Z</time></trkpt><trkpt lat="43.49786626564448" lon="12.510734188188522"><ele>470.0</ele><time>2026-05-01T11:33:50Z</time></trkpt><trkpt lat="43.49787736128517" lon="12.511060863697564"><ele>470.0</ele><time>2026-05-01T11:33:51Z</time></trkpt><trkpt lat="43.49788807799252" lon="12.511386449230113"><ele>468.5</ele><time>2026-05-01T11:33:52Z</time></trkpt><trkpt lat="43.497897604767466" lon="12.511691453430087"><ele>467.0</ele><time>2026-05-01T11:33:53Z</time></trkpt><trkpt lat="43.49790748005259" lon="12.512016744855499"><ele>467.0</ele><time>2026-05-01T11:33:54Z</time></trkpt><trkpt lat="43.49791745296486" lon="12.512328538763684"><ele>467.0</ele><time>2026-05-01T11:33:55Z</time></trkpt><trkpt lat="43.49792882630381" lon="12.512640218557351"><ele>470.66666666666663</ele><time>2026-05-01T11:33:56Z</time></trkpt><trkpt lat="43.49793840211503" lon="12.512949890783688"><ele>474.33333333333337</ele><time>2026-05-01T11:33:57Z</time></trkpt><trkpt lat="43.49794606788628" lon="12.513248150486861"><ele>478.0</ele><time>2026-05-01T11:33:58Z</time></trkpt><trkpt lat="43.497953130950705" lon="12.513528783786434"><ele>477.33333333333337</ele><time>2026-05-01T11:33:59Z</time></trkpt><trkpt lat="43.497962824298945" lon="12.513774431794497"><ele>476.66666666666663</ele><time>2026-05-01T11:34:00Z</time></trkpt><trkpt lat="43.49797731489214" lon="12.51397903890943"><ele>476.0</ele><time>2026-05-01T11:34:01Z</time></trkpt><trkpt lat="43.498021312379834" lon="12.514161502995517"><ele>476.0</ele><time>2026-05-01T11:34:02Z</time></trkpt><trkpt lat="43.498068749314974" lon="12.514342510764028"><ele>476.0</ele><time>2026-05-01T11:34:03Z</time></trkpt><trkpt lat="43.49813866129056" lon="12.51451406595918"><ele>476.0</ele><time>2026-05-01T11:34:04Z</time></trkpt><trkpt lat="43.49823126038668" lon="12.514697251726849"><ele>476.0</ele><time>2026-05-01T11:34:05Z</time></trkpt><trkpt lat="43.49834191378281" lon="12.514870619634944"><ele>475.0</ele><time>2026-05-01T11:34:06Z</time></trkpt><trkpt lat="43.498452332905536" lon="12.515051234259499"><ele>474.0</ele><time>2026-05-01T11:34:07Z</time></trkpt><trkpt lat="43.49856536124293" lon="12.515220662490853"><ele>473.0</ele><time>2026-05-01T11:34:08Z</time></trkpt><trkpt lat="43.4986901629692" lon="12.5153485039396"><ele>472.66666666666663</ele><time>2026-05-01T11:34:09Z</time></trkpt><trkpt lat="43.49883084094205" lon="12.515491883170919"><ele>472.33333333333337</ele><time>2026-05-01T11:34:10Z</time></trkpt><trkpt lat="43.49896022001706" lon="12.51566506956771"><ele>472.0</ele><time>2026-05-01T11:34:11Z</time></trkpt><trkpt lat="43.49909792272203" lon="12.51574481287285"><ele>472.0</ele><time>2026-05-01T11:34:12Z</time></trkpt><trkpt lat="43.499277513765755" lon="12.515884013491132"><ele>472.0</ele><time>2026-05-01T11:34:13Z</time></trkpt><trkpt lat="43.49943387860689" lon="12.516005211252313"><ele>472.0</ele><time>2026-05-01T11:34:14.001Z</time></trkpt><trkpt lat="43.499598757344074" lon="12.516128831658888"><ele>473.5</ele><time>2026-05-01T11:34:15.001Z</time></trkpt><trkpt lat="43.499726150962196" lon="12.516251135383955"><ele>475.0</ele><time>2026-05-01T11:34:16.001Z</time></trkpt><trkpt lat="43.499813875892535" lon="12.516392312839935"><ele>476.5</ele><time>2026-05-01T11:34:17.001Z</time></trkpt><trkpt lat="43.499869711100935" lon="12.51656630504132"><ele>478.0</ele><time>2026-05-01T11:34:18.001Z</time></trkpt><trkpt lat="43.49988710532839" lon="12.516773393531542"><ele>478.0</ele><time>2026-05-01T11:34:19.001Z</time></trkpt><trkpt lat="43.499877168587" lon="12.517011643311184"><ele>478.0</ele><time>2026-05-01T11:34:20.001Z</time></trkpt><trkpt lat="43.499860806488726" lon="12.517257022052705"><ele>478.0</ele><time>2026-05-01T11:34:21.001Z</time></trkpt><trkpt lat="43.49985325544074" lon="12.517480211400594"><ele>477.0</ele><time>2026-05-01T11:34:22.001Z</time></trkpt><trkpt lat="43.49985936579031" lon="12.517678550898232"><ele>476.0</ele><time>2026-05-01T11:34:23.001Z</time></trkpt><trkpt lat="43.499881396732704" lon="12.517873084532177"><ele>475.0</ele><time>2026-05-01T11:34:24.001Z</time></trkpt><trkpt lat="43.4999209398273" lon="12.518068328881187"><ele>474.0</ele><time>2026-05-01T11:34:25.001Z</time></trkpt><trkpt lat="43.49998468387386" lon="12.51826804637831"><ele>471.66666666666663</ele><time>2026-05-01T11:34:26.001Z</time></trkpt><trkpt lat="43.50007361006978" lon="12.51847550522272"><ele>469.3333333333333</ele><time>2026-05-01T11:34:27.001Z</time></trkpt><trkpt lat="43.50017594920859" lon="12.518699343496214"><ele>467.0</ele><time>2026-05-01T11:34:28.001Z</time></trkpt><trkpt lat="43.5002891787457" lon="12.51893755856214"><ele>467.0</ele><time>2026-05-01T11:34:29.001Z</time></trkpt><trkpt lat="43.50040843980269" lon="12.519184418267317"><ele>467.0</ele><time>2026-05-01T11:34:30.001Z</time></trkpt><trkpt lat="43.50051769016697" lon="12.519422253633437"><ele>467.0</ele><time>2026-05-01T11:34:31.001Z</time></trkpt><trkpt lat="43.50062902370494" lon="12.519662185386252"><ele>464.0</ele><time>2026-05-01T11:34:32.001Z</time></trkpt><trkpt lat="43.500731279890076" lon="12.519902364186272"><ele>461.0</ele><time>2026-05-01T11:34:33.001Z</time></trkpt><trkpt lat="43.500832965875205" lon="12.520131784194646"><ele>458.0</ele><time>2026-05-01T11:34:34.001Z</time></trkpt><trkpt lat="43.50093854595432" lon="12.520354261961243"><ele>463.66666666666663</ele><time>2026-05-01T11:34:35.001Z</time></trkpt><trkpt lat="43.50104160463297" lon="12.520566393198532"><ele>469.33333333333337</ele><time>2026-05-01T11:34:36.001Z</time></trkpt><trkpt lat="43.50112872047711" lon="12.520766958305213"><ele>475.0</ele><time>2026-05-01T11:34:37.001Z</time></trkpt><trkpt lat="43.50120795185198" lon="12.520973049801782"><ele>470.6666666666667</ele><time>2026-05-01T11:34:38.001Z</time></trkpt><trkpt lat="43.50127142097945" lon="12.52119978027177"><ele>466.33333333333337</ele><time>2026-05-01T11:34:39.001Z</time></trkpt><trkpt lat="43.50132924679687" lon="12.521442737091528"><ele>462.0</ele><time>2026-05-01T11:34:40.001Z</time></trkpt><trkpt lat="43.50137981695357" lon="12.52169512540792"><ele>461.66666666666663</ele><time>2026-05-01T11:34:41.001Z</time></trkpt><trkpt lat="43.50143014655838" lon="12.521951120891535"><ele>461.3333333333333</ele><time>2026-05-01T11:34:42.001Z</time></trkpt><trkpt lat="43.501445903446836" lon="12.522204689183912"><ele>461.0</ele><time>2026-05-01T11:34:43.001Z</time></trkpt><trkpt lat="43.50147346737688" lon="12.522494476664269"><ele>460.0</ele><time>2026-05-01T11:34:44.001Z</time></trkpt><trkpt lat="43.501516397420694" lon="12.522767399054793"><ele>459.0</ele><time>2026-05-01T11:34:45.001Z</time></trkpt><trkpt lat="43.50153350215027" lon="12.523050445218464"><ele>458.0</ele><time>2026-05-01T11:34:46.001Z</time></trkpt><trkpt lat="43.5015667843548" lon="12.52332391205548"><ele>458.0</ele><time>2026-05-01T11:34:47.001Z</time></trkpt><trkpt lat="43.50161381594651" lon="12.523608238264273"><ele>458.0</ele><time>2026-05-01T11:34:48.001Z</time></trkpt><trkpt lat="43.501640895383936" lon="12.523895633828396"><ele>458.0</ele><time>2026-05-01T11:34:49.001Z</time></trkpt><trkpt lat="43.50168214914474" lon="12.524174840237016"><ele>459.0</ele><time>2026-05-01T11:34:50.001Z</time></trkpt><trkpt lat="43.50172792688447" lon="12.52444765890306"><ele>460.0</ele><time>2026-05-01T11:34:51.001Z</time></trkpt><trkpt lat="43.50177824313265" lon="12.524711055165579"><ele>461.0</ele><time>2026-05-01T11:34:52.001Z</time></trkpt><trkpt lat="43.501830965647486" lon="12.524962428645898"><ele>465.3333333333333</ele><time>2026-05-01T11:34:53.001Z</time></trkpt><trkpt lat="43.50188122064448" lon="12.525197230294687"><ele>469.66666666666663</ele><time>2026-05-01T11:34:54.001Z</time></trkpt><trkpt lat="43.50193058085162" lon="12.525418428620544"><ele>474.0</ele><time>2026-05-01T11:34:55.001Z</time></trkpt><trkpt lat="43.50197609657032" lon="12.525628198655879"><ele>474.0</ele><time>2026-05-01T11:34:56.001Z</time></trkpt><trkpt lat="43.50201374647457" lon="12.525833796230172"><ele>474.0</ele><time>2026-05-01T11:34:57.001Z</time></trkpt><trkpt lat="43.502034492990084" lon="12.526043792856727"><ele>474.0</ele><time>2026-05-01T11:34:58.001Z</time></trkpt><trkpt lat="43.50203372688109" lon="12.526271521008207"><ele>474.0</ele><time>2026-05-01T11:34:59.001Z</time></trkpt><trkpt lat="43.50203186605807" lon="12.526523317798748"><ele>474.0</ele><time>2026-05-01T11:35:00.001Z</time></trkpt><trkpt lat="43.502032612269026" lon="12.526785214539943"><ele>474.0</ele><time>2026-05-01T11:35:01.001Z</time></trkpt><trkpt lat="43.50203338448501" lon="12.5270562367401"><ele>473.66666666666663</ele><time>2026-05-01T11:35:02.001Z</time></trkpt><trkpt lat="43.502034182219525" lon="12.527336216130207"><ele>473.3333333333333</ele><time>2026-05-01T11:35:03.001Z</time></trkpt><trkpt lat="43.50203502443849" lon="12.527610616034716"><ele>473.0</ele><time>2026-05-01T11:35:04.001Z</time></trkpt><trkpt lat="43.50203595995784" lon="12.527886003896455"><ele>471.66666666666663</ele><time>2026-05-01T11:35:05.001Z</time></trkpt><trkpt lat="43.50203581351113" lon="12.528145774237231"><ele>470.33333333333337</ele><time>2026-05-01T11:35:06.002Z</time></trkpt><trkpt lat="43.5020339430107" lon="12.528383624060469"><ele>469.0</ele><time>2026-05-01T11:35:07.002Z</time></trkpt><trkpt lat="43.50203608331514" lon="12.528596579442418"><ele>474.25</ele><time>2026-05-01T11:35:08.002Z</time></trkpt><trkpt lat="43.50204508654484" lon="12.528790018702878"><ele>479.5</ele><time>2026-05-01T11:35:09.002Z</time></trkpt><trkpt lat="43.50207674017462" lon="12.52898015061501"><ele>484.75</ele><time>2026-05-01T11:35:10.002Z</time></trkpt><trkpt lat="43.50214734311455" lon="12.529170304176724"><ele>490.0</ele><time>2026-05-01T11:35:11.002Z</time></trkpt><trkpt lat="43.50225147885526" lon="12.529345576138722"><ele>478.33333333333337</ele><time>2026-05-01T11:35:12.002Z</time></trkpt><trkpt lat="43.502371495028896" lon="12.529517284728659"><ele>466.66666666666663</ele><time>2026-05-01T11:35:13.002Z</time></trkpt><trkpt lat="43.50249610112125" lon="12.529699555017247"><ele>455.0</ele><time>2026-05-01T11:35:14.002Z</time></trkpt><trkpt lat="43.50263236734362" lon="12.529898881602499"><ele>455.0</ele><time>2026-05-01T11:35:15.002Z</time></trkpt><trkpt lat="43.502776246873324" lon="12.530107976076495"><ele>455.0</ele><time>2026-05-01T11:35:16.002Z</time></trkpt><trkpt lat="43.50290810125586" lon="12.53029933941875"><ele>455.0</ele><time>2026-05-01T11:35:17.002Z</time></trkpt><trkpt lat="43.50301205134564" lon="12.530477115709852"><ele>450.0</ele><time>2026-05-01T11:35:18Z</time></trkpt><trkpt lat="43.5030943152346" lon="12.530658246352623"><ele>445.0</ele><time>2026-05-01T11:35:19Z</time></trkpt><trkpt lat="43.503146246494545" lon="12.530843249254414"><ele>440.0</ele><time>2026-05-01T11:35:20Z</time></trkpt><trkpt lat="43.50317707785887" lon="12.531060993804415"><ele>439.66666666666663</ele><time>2026-05-01T11:35:21Z</time></trkpt><trkpt lat="43.503195443919466" lon="12.531307912789563"><ele>439.33333333333337</ele><time>2026-05-01T11:35:22Z</time></trkpt><trkpt lat="43.503209862136956" lon="12.531587552160127"><ele>439.0</ele><time>2026-05-01T11:35:23Z</time></trkpt><trkpt lat="43.50322521575257" lon="12.531842538739278"><ele>440.0</ele><time>2026-05-01T11:35:24Z</time></trkpt><trkpt lat="43.503241297067376" lon="12.532093394618604"><ele>441.0</ele><time>2026-05-01T11:35:25Z</time></trkpt><trkpt lat="43.503257944235344" lon="12.532315909815607"><ele>442.0</ele><time>2026-05-01T11:35:26Z</time></trkpt><trkpt lat="43.503298811327184" lon="12.532531604325625"><ele>442.0</ele><time>2026-05-01T11:35:27Z</time></trkpt><trkpt lat="43.50337171853902" lon="12.532746775114886"><ele>442.0</ele><time>2026-05-01T11:35:28Z</time></trkpt><trkpt lat="43.50346086049568" lon="12.53295553672382"><ele>442.0</ele><time>2026-05-01T11:35:29Z</time></trkpt><trkpt lat="43.50356718279886" lon="12.53313683226246"><ele>444.33333333333337</ele><time>2026-05-01T11:35:30Z</time></trkpt><trkpt lat="43.50368284407644" lon="12.533325466148682"><ele>446.66666666666663</ele><time>2026-05-01T11:35:31Z</time></trkpt><trkpt lat="43.503791217916444" lon="12.533540255925537"><ele>449.0</ele><time>2026-05-01T11:35:32Z</time></trkpt><trkpt lat="43.50390588342428" lon="12.533748803763393"><ele>442.66666666666663</ele><time>2026-05-01T11:35:33Z</time></trkpt><trkpt lat="43.504030818983196" lon="12.533960662861517"><ele>436.33333333333337</ele><time>2026-05-01T11:35:34Z</time></trkpt><trkpt lat="43.50415983092783" lon="12.534164066906728"><ele>430.0</ele><time>2026-05-01T11:35:35Z</time></trkpt><trkpt lat="43.50430764546346" lon="12.534370411699037"><ele>429.33333333333337</ele><time>2026-05-01T11:35:36Z</time></trkpt><trkpt lat="43.504465572645884" lon="12.534566747490398"><ele>428.66666666666663</ele><time>2026-05-01T11:35:37Z</time></trkpt><trkpt lat="43.5046414038557" lon="12.534779603646731"><ele>428.0</ele><time>2026-05-01T11:35:38Z</time></trkpt><trkpt lat="43.504826247325816" lon="12.535001062325534"><ele>428.0</ele><time>2026-05-01T11:35:39Z</time></trkpt><trkpt lat="43.50500866068002" lon="12.535225446943873"><ele>428.0</ele><time>2026-05-01T11:35:40Z</time></trkpt><trkpt lat="43.50517336086475" lon="12.535429348630517"><ele>426.66666666666663</ele><time>2026-05-01T11:35:41Z</time></trkpt><trkpt lat="43.50531645265207" lon="12.535611185400876"><ele>425.33333333333337</ele><time>2026-05-01T11:35:42Z</time></trkpt><trkpt lat="43.50543393058502" lon="12.535784858554843"><ele>424.0</ele><time>2026-05-01T11:35:43Z</time></trkpt><trkpt lat="43.505520462772004" lon="12.535989142630562"><ele>424.0</ele><time>2026-05-01T11:35:44Z</time></trkpt><trkpt lat="43.505573462821" lon="12.536213784268817"><ele>424.0</ele><time>2026-05-01T11:35:45Z</time></trkpt><trkpt lat="43.505618752774055" lon="12.53647537360123"><ele>424.0</ele><time>2026-05-01T11:35:46Z</time></trkpt><trkpt lat="43.5056716674452" lon="12.536755857400129"><ele>424.33333333333337</ele><time>2026-05-01T11:35:47Z</time></trkpt><trkpt lat="43.50572636077843" lon="12.537042041953017"><ele>424.66666666666663</ele><time>2026-05-01T11:35:48Z</time></trkpt><trkpt lat="43.50577857164925" lon="12.537333959327356"><ele>425.0</ele><time>2026-05-01T11:35:49Z</time></trkpt><trkpt lat="43.5058275228314" lon="12.537615037677693"><ele>426.0</ele><time>2026-05-01T11:35:50Z</time></trkpt><trkpt lat="43.50588375981459" lon="12.537886749492648"><ele>427.0</ele><time>2026-05-01T11:35:51Z</time></trkpt><trkpt lat="43.505932275588165" lon="12.538179155067661"><ele>428.0</ele><time>2026-05-01T11:35:52Z</time></trkpt><trkpt lat="43.50597861977214" lon="12.538473013752123"><ele>429.3333333333333</ele><time>2026-05-01T11:35:53Z</time></trkpt><trkpt lat="43.50601703791682" lon="12.53874034624701"><ele>430.66666666666663</ele><time>2026-05-01T11:35:54Z</time></trkpt><trkpt lat="43.50605808417971" lon="12.538973756138457"><ele>432.0</ele><time>2026-05-01T11:35:55Z</time></trkpt><trkpt lat="43.50610838850797" lon="12.539185158793277"><ele>432.0</ele><time>2026-05-01T11:35:56Z</time></trkpt><trkpt lat="43.50619213264351" lon="12.539397770598496"><ele>432.0</ele><time>2026-05-01T11:35:57Z</time></trkpt><trkpt lat="43.506306107103335" lon="12.539617039976335"><ele>432.0</ele><time>2026-05-01T11:35:58Z</time></trkpt><trkpt lat="43.506453212095096" lon="12.539831993488706"><ele>425.5</ele><time>2026-05-01T11:35:59Z</time></trkpt><trkpt lat="43.50662504858683" lon="12.540044189531514"><ele>419.0</ele><time>2026-05-01T11:36:00Z</time></trkpt><trkpt lat="43.506785221984245" lon="12.540291170655609"><ele>418.0</ele><time>2026-05-01T11:36:01Z</time></trkpt><trkpt lat="43.506948343325575" lon="12.540519320729045"><ele>417.0</ele><time>2026-05-01T11:36:02Z</time></trkpt><trkpt lat="43.50710013661998" lon="12.540729135061978"><ele>416.0</ele><time>2026-05-01T11:36:03Z</time></trkpt><trkpt lat="43.50723729409163" lon="12.540927009024076"><ele>416.0</ele><time>2026-05-01T11:36:04Z</time></trkpt><trkpt lat="43.50736904089616" lon="12.54112777437954"><ele>416.0</ele><time>2026-05-01T11:36:05.001Z</time></trkpt><trkpt lat="43.50750100726891" lon="12.541338507179114"><ele>416.0</ele><time>2026-05-01T11:36:06.001Z</time></trkpt><trkpt lat="43.50763450363198" lon="12.54157221392162"><ele>418.5</ele><time>2026-05-01T11:36:07.001Z</time></trkpt><trkpt lat="43.50777243653537" lon="12.541834231932446"><ele>421.0</ele><time>2026-05-01T11:36:08.001Z</time></trkpt><trkpt lat="43.507919069385345" lon="12.542114771192026"><ele>415.0</ele><time>2026-05-01T11:36:09.001Z</time></trkpt><trkpt lat="43.50807505235309" lon="12.542411981248941"><ele>409.0</ele><time>2026-05-01T11:36:10.001Z</time></trkpt><trkpt lat="43.50823767698681" lon="12.542721229717305"><ele>412.5</ele><time>2026-05-01T11:36:11.001Z</time></trkpt><trkpt lat="43.50839969101904" lon="12.5430290580337"><ele>416.0</ele><time>2026-05-01T11:36:12.001Z</time></trkpt><trkpt lat="43.50856097621041" lon="12.543336204895269"><ele>416.0</ele><time>2026-05-01T11:36:13.001Z</time></trkpt><trkpt lat="43.50871394969008" lon="12.543630706856671"><ele>416.0</ele><time>2026-05-01T11:36:14.001Z</time></trkpt><trkpt lat="43.50885518714546" lon="12.543903253331784"><ele>412.5</ele><time>2026-05-01T11:36:15.001Z</time></trkpt><trkpt lat="43.50899198489222" lon="12.544164304255611"><ele>409.0</ele><time>2026-05-01T11:36:16.001Z</time></trkpt><trkpt lat="43.50912226620766" lon="12.544407672774875"><ele>414.0</ele><time>2026-05-01T11:36:17.001Z</time></trkpt><trkpt lat="43.50924058143251" lon="12.544633864923917"><ele>419.0</ele><time>2026-05-01T11:36:18.001Z</time></trkpt><trkpt lat="43.509346158985736" lon="12.544867321913099"><ele>424.0</ele><time>2026-05-01T11:36:19.001Z</time></trkpt><trkpt lat="43.50943166700932" lon="12.545100010661388"><ele>424.0</ele><time>2026-05-01T11:36:20.001Z</time></trkpt><trkpt lat="43.50949309628407" lon="12.545356978379491"><ele>424.0</ele><time>2026-05-01T11:36:21.001Z</time></trkpt><trkpt lat="43.50954507002388" lon="12.545651913618254"><ele>424.0</ele><time>2026-05-01T11:36:22.001Z</time></trkpt><trkpt lat="43.509599592134386" lon="12.545967290315279"><ele>414.0</ele><time>2026-05-01T11:36:23.001Z</time></trkpt><trkpt lat="43.509680894696594" lon="12.546284598925753"><ele>404.0</ele><time>2026-05-01T11:36:24.001Z</time></trkpt><trkpt lat="43.5097565464667" lon="12.546610998062512"><ele>404.0</ele><time>2026-05-01T11:36:25.001Z</time></trkpt><trkpt lat="43.50984073844223" lon="12.546946855042236"><ele>404.0</ele><time>2026-05-01T11:36:26.001Z</time></trkpt><trkpt lat="43.509911756993695" lon="12.547297926330904"><ele>406.0</ele><time>2026-05-01T11:36:27.001Z</time></trkpt><trkpt lat="43.509999134695924" lon="12.547648098210939"><ele>408.0</ele><time>2026-05-01T11:36:28.001Z</time></trkpt><trkpt lat="43.51010494110942" lon="12.548002214874648"><ele>408.5</ele><time>2026-05-01T11:36:29.001Z</time></trkpt><trkpt lat="43.510182231627816" lon="12.548377542508671"><ele>409.0</ele><time>2026-05-01T11:36:30.001Z</time></trkpt><trkpt lat="43.51027415961309" lon="12.548740547710587"><ele>410.0</ele><time>2026-05-01T11:36:31.001Z</time></trkpt><trkpt lat="43.51036329817741" lon="12.54909253840405"><ele>411.0</ele><time>2026-05-01T11:36:32.001Z</time></trkpt><trkpt lat="43.5104479051607" lon="12.549430716779485"><ele>405.0</ele><time>2026-05-01T11:36:33.001Z</time></trkpt><trkpt lat="43.51052790375914" lon="12.549751008357239"><ele>399.0</ele><time>2026-05-01T11:36:34.001Z</time></trkpt><trkpt lat="43.51061881736342" lon="12.55004608676239"><ele>399.0</ele><time>2026-05-01T11:36:35.001Z</time></trkpt><trkpt lat="43.51068843449371" lon="12.550327524057122"><ele>399.0</ele><time>2026-05-01T11:36:36.001Z</time></trkpt><trkpt lat="43.51075472167253" lon="12.550586226427775"><ele>399.0</ele><time>2026-05-01T11:36:37.001Z</time></trkpt><trkpt lat="43.510835884592936" lon="12.550841737797667"><ele>399.66666666666663</ele><time>2026-05-01T11:36:38.001Z</time></trkpt><trkpt lat="43.51093416518844" lon="12.551072339995759"><ele>400.3333333333333</ele><time>2026-05-01T11:36:39.001Z</time></trkpt><trkpt lat="43.51104506218163" lon="12.551293840689558"><ele>401.0</ele><time>2026-05-01T11:36:40.001Z</time></trkpt><trkpt lat="43.511164804241645" lon="12.551496450217595"><ele>400.66666666666663</ele><time>2026-05-01T11:36:41.001Z</time></trkpt><trkpt lat="43.51126878729726" lon="12.551715174122647"><ele>400.33333333333337</ele><time>2026-05-01T11:36:42.001Z</time></trkpt><trkpt lat="43.51139196956175" lon="12.55191105505266"><ele>400.0</ele><time>2026-05-01T11:36:43.001Z</time></trkpt><trkpt lat="43.51147837653235" lon="12.552140445349124"><ele>400.0</ele><time>2026-05-01T11:36:44.001Z</time></trkpt><trkpt lat="43.511571727345014" lon="12.552359116434598"><ele>400.0</ele><time>2026-05-01T11:36:45.001Z</time></trkpt><trkpt lat="43.51166418520579" lon="12.552582533742097"><ele>400.0</ele><time>2026-05-01T11:36:46.001Z</time></trkpt><trkpt lat="43.51175670819696" lon="12.552811484597298"><ele>402.0</ele><time>2026-05-01T11:36:47.001Z</time></trkpt><trkpt lat="43.51184796864118" lon="12.553038648052208"><ele>404.0</ele><time>2026-05-01T11:36:48.001Z</time></trkpt><trkpt lat="43.51193484252441" lon="12.553256073849452"><ele>406.0</ele><time>2026-05-01T11:36:49.001Z</time></trkpt><trkpt lat="43.51201424833691" lon="12.553455263550688"><ele>403.75</ele><time>2026-05-01T11:36:50.001Z</time></trkpt><trkpt lat="43.51209065102586" lon="12.553639835714717"><ele>401.5</ele><time>2026-05-01T11:36:51.001Z</time></trkpt><trkpt lat="43.51216384857873" lon="12.55381752574588"><ele>399.25</ele><time>2026-05-01T11:36:52.001Z</time></trkpt><trkpt lat="43.51223258350293" lon="12.55399276703529"><ele>397.0</ele><time>2026-05-01T11:36:53.002Z</time></trkpt><trkpt lat="43.51229725831793" lon="12.554158352584473"><ele>397.0</ele><time>2026-05-01T11:36:54.002Z</time></trkpt><trkpt lat="43.51234824352044" lon="12.554308933932324"><ele>397.0</ele><time>2026-05-01T11:36:55.002Z</time></trkpt><trkpt lat="43.5123795016067" lon="12.554448594385086"><ele>397.0</ele><time>2026-05-01T11:36:56.002Z</time></trkpt><trkpt lat="43.51238839298005" lon="12.554588076656328"><ele>397.0</ele><time>2026-05-01T11:36:57.002Z</time></trkpt><trkpt lat="43.512382018198274" lon="12.554726622180224"><ele>397.0</ele><time>2026-05-01T11:36:58.002Z</time></trkpt><trkpt lat="43.51236366481396" lon="12.554856235280175"><ele>396.83333333333337</ele><time>2026-05-01T11:36:59.002Z</time></trkpt><trkpt lat="43.51234630226363" lon="12.554970996310152"><ele>396.6666666666667</ele><time>2026-05-01T11:37:00.002Z</time></trkpt><trkpt lat="43.51233168390888" lon="12.555072483646308"><ele>396.5</ele><time>2026-05-01T11:37:01.002Z</time></trkpt><trkpt lat="43.5123188124295" lon="12.555169382226397"><ele>396.33333333333337</ele><time>2026-05-01T11:37:02.002Z</time></trkpt><trkpt lat="43.51230581297336" lon="12.555266466820523"><ele>396.1666666666667</ele><time>2026-05-01T11:37:03.002Z</time></trkpt><trkpt lat="43.51229215516428" lon="12.555379333138125"><ele>396.0</ele><time>2026-05-01T11:37:04.002Z</time></trkpt><trkpt lat="43.5122784013669" lon="12.555509336306418"><ele>396.0</ele><time>2026-05-01T11:37:05.002Z</time></trkpt><trkpt lat="43.5122593038786" lon="12.555645985414165"><ele>396.0</ele><time>2026-05-01T11:37:06.002Z</time></trkpt><trkpt lat="43.51224740734594" lon="12.555786852182546"><ele>396.0</ele><time>2026-05-01T11:37:07.002Z</time></trkpt><trkpt lat="43.51222272761844" lon="12.555926679269456"><ele>396.0</ele><time>2026-05-01T11:37:08.002Z</time></trkpt><trkpt lat="43.512197622809595" lon="12.556067995087563"><ele>396.0</ele><time>2026-05-01T11:37:09.002Z</time></trkpt><trkpt lat="43.512185204484965" lon="12.556218595094583"><ele>396.20000000000005</ele><time>2026-05-01T11:37:10.002Z</time></trkpt><trkpt lat="43.512186871525294" lon="12.55636728972669"><ele>396.40000000000003</ele><time>2026-05-01T11:37:11.002Z</time></trkpt><trkpt lat="43.51220501508557" lon="12.556516651707689"><ele>396.6</ele><time>2026-05-01T11:37:12.002Z</time></trkpt><trkpt lat="43.51223817690518" lon="12.556662099446548"><ele>396.8</ele><time>2026-05-01T11:37:13.002Z</time></trkpt><trkpt lat="43.51227583249876" lon="12.556799966023318"><ele>397.0</ele><time>2026-05-01T11:37:14.002Z</time></trkpt><trkpt lat="43.512309631118555" lon="12.556938532834584"><ele>397.20000000000005</ele><time>2026-05-01T11:37:15.002Z</time></trkpt><trkpt lat="43.51234376479835" lon="12.557073966303465"><ele>397.4</ele><time>2026-05-01T11:37:16.002Z</time></trkpt><trkpt lat="43.51238634951338" lon="12.5572026513256"><ele>397.6</ele><time>2026-05-01T11:37:17.002Z</time></trkpt><trkpt lat="43.512403316464585" lon="12.5573429503407"><ele>397.79999999999995</ele><time>2026-05-01T11:37:18.002Z</time></trkpt><trkpt lat="43.512449629205776" lon="12.557467235748927"><ele>398.0</ele><time>2026-05-01T11:37:19.002Z</time></trkpt><trkpt lat="43.51248084935375" lon="12.557602705250149"><ele>398.0</ele><time>2026-05-01T11:37:20.002Z</time></trkpt><trkpt lat="43.512504030916624" lon="12.557739571434714"><ele>398.0</ele><time>2026-05-01T11:37:21.002Z</time></trkpt><trkpt lat="43.51253985231336" lon="12.557867302963341"><ele>398.0</ele><time>2026-05-01T11:37:22.002Z</time></trkpt><trkpt lat="43.51257258874233" lon="12.557988809468723"><ele>398.0</ele><time>2026-05-01T11:37:23.002Z</time></trkpt><trkpt lat="43.51259119632962" lon="12.558112218224842"><ele>398.0</ele><time>2026-05-01T11:37:24Z</time></trkpt><trkpt lat="43.5126065208451" lon="12.55824615369219"><ele>398.0</ele><time>2026-05-01T11:37:25Z</time></trkpt><trkpt lat="43.51260928562434" lon="12.558385562678694"><ele>398.0</ele><time>2026-05-01T11:37:26Z</time></trkpt><trkpt lat="43.51259421306081" lon="12.55853851724663"><ele>398.0</ele><time>2026-05-01T11:37:27Z</time></trkpt><trkpt lat="43.512541335646574" lon="12.558692116804664"><ele>398.0</ele><time>2026-05-01T11:37:28Z</time></trkpt><trkpt lat="43.51249721529894" lon="12.558866337294688"><ele>398.0</ele><time>2026-05-01T11:37:29Z</time></trkpt><trkpt lat="43.51242694107453" lon="12.559052182288902"><ele>398.0</ele><time>2026-05-01T11:37:30Z</time></trkpt><trkpt lat="43.512348480286306" lon="12.55926552186036"><ele>398.0</ele><time>2026-05-01T11:37:31Z</time></trkpt><trkpt lat="43.512266567562484" lon="12.559510648367846"><ele>400.0</ele><time>2026-05-01T11:37:32Z</time></trkpt><trkpt lat="43.51217946730727" lon="12.559767044061873"><ele>402.0</ele><time>2026-05-01T11:37:33Z</time></trkpt><trkpt lat="43.51209540330627" lon="12.5600146239493"><ele>404.0</ele><time>2026-05-01T11:37:34Z</time></trkpt><trkpt lat="43.51201211726902" lon="12.560240744626938"><ele>405.0</ele><time>2026-05-01T11:37:35Z</time></trkpt><trkpt lat="43.51193655860053" lon="12.560448222562288"><ele>406.0</ele><time>2026-05-01T11:37:36Z</time></trkpt><trkpt lat="43.51188166079369" lon="12.560639541713003"><ele>407.0</ele><time>2026-05-01T11:37:37Z</time></trkpt><trkpt lat="43.511839383692454" lon="12.56082519869238"><ele>407.0</ele><time>2026-05-01T11:37:38Z</time></trkpt><trkpt lat="43.51181743439898" lon="12.561026122032372"><ele>407.0</ele><time>2026-05-01T11:37:39Z</time></trkpt><trkpt lat="43.511829482100936" lon="12.561232649136194"><ele>407.0</ele><time>2026-05-01T11:37:40Z</time></trkpt><trkpt lat="43.51186757016304" lon="12.56143528849989"><ele>407.0</ele><time>2026-05-01T11:37:41Z</time></trkpt><trkpt lat="43.511937507673586" lon="12.561635127787637"><ele>410.66666666666663</ele><time>2026-05-01T11:37:42Z</time></trkpt><trkpt lat="43.51203938867786" lon="12.561832432286355"><ele>414.33333333333337</ele><time>2026-05-01T11:37:43Z</time></trkpt><trkpt lat="43.51215005921408" lon="12.562034994432297"><ele>418.0</ele><time>2026-05-01T11:37:44.001Z</time></trkpt><trkpt lat="43.512267780098405" lon="12.562227651178047"><ele>410.6666666666667</ele><time>2026-05-01T11:37:45.001Z</time></trkpt><trkpt lat="43.51239170701205" lon="12.562394823196"><ele>403.33333333333337</ele><time>2026-05-01T11:37:46.001Z</time></trkpt><trkpt lat="43.51252737339231" lon="12.562529518061014"><ele>396.0</ele><time>2026-05-01T11:37:47.001Z</time></trkpt><trkpt lat="43.51266945749475" lon="12.562627317553346"><ele>396.0</ele><time>2026-05-01T11:37:48.001Z</time></trkpt><trkpt lat="43.512811728668936" lon="12.562693775205512"><ele>396.0</ele><time>2026-05-01T11:37:49.001Z</time></trkpt><trkpt lat="43.51293726200516" lon="12.562759837514239"><ele>396.0</ele><time>2026-05-01T11:37:50.001Z</time></trkpt><trkpt lat="43.51302820436596" lon="12.562877257395161"><ele>396.0</ele><time>2026-05-01T11:37:51.001Z</time></trkpt><trkpt lat="43.51309685854165" lon="12.562991217822544"><ele>394.75</ele><time>2026-05-01T11:37:52.001Z</time></trkpt><trkpt lat="43.5131267576114" lon="12.56315246640869"><ele>393.5</ele><time>2026-05-01T11:37:53.001Z</time></trkpt><trkpt lat="43.5131560480288" lon="12.563344332429443"><ele>392.25</ele><time>2026-05-01T11:37:54.001Z</time></trkpt><trkpt lat="43.51318268714812" lon="12.563540137834407"><ele>391.0</ele><time>2026-05-01T11:37:55.001Z</time></trkpt><trkpt lat="43.513226636551224" lon="12.563700835844827"><ele>391.0</ele><time>2026-05-01T11:37:56.001Z</time></trkpt><trkpt lat="43.51328237638739" lon="12.563843497418771"><ele>391.0</ele><time>2026-05-01T11:37:57.001Z</time></trkpt><trkpt lat="43.513370636767064" lon="12.563981864023726"><ele>391.0</ele><time>2026-05-01T11:37:58.001Z</time></trkpt><trkpt lat="43.513481794992174" lon="12.564138725695603"><ele>391.0</ele><time>2026-05-01T11:37:59.001Z</time></trkpt><trkpt lat="43.51358354069661" lon="12.564326037297464"><ele>391.0</ele><time>2026-05-01T11:38:00.001Z</time></trkpt><trkpt lat="43.51369407403525" lon="12.564500693954436"><ele>391.0</ele><time>2026-05-01T11:38:01.001Z</time></trkpt><trkpt lat="43.513806452877255" lon="12.564678266761835"><ele>391.0</ele><time>2026-05-01T11:38:02.001Z</time></trkpt><trkpt lat="43.513926838709395" lon="12.564835468802713"><ele>389.6666666666667</ele><time>2026-05-01T11:38:03.001Z</time></trkpt><trkpt lat="43.51403823223693" lon="12.565015784675753"><ele>388.33333333333337</ele><time>2026-05-01T11:38:04.001Z</time></trkpt><trkpt lat="43.5141334586781" lon="12.565208654471345"><ele>387.0</ele><time>2026-05-01T11:38:05.001Z</time></trkpt><trkpt lat="43.51425080450676" lon="12.565320424601758"><ele>386.5</ele><time>2026-05-01T11:38:06.001Z</time></trkpt><trkpt lat="43.51433564412956" lon="12.565487811373522"><ele>386.0</ele><time>2026-05-01T11:38:07.001Z</time></trkpt><trkpt lat="43.5144071776617" lon="12.565630975405316"><ele>385.5</ele><time>2026-05-01T11:38:08.001Z</time></trkpt><trkpt lat="43.5144449929853" lon="12.565763800777747"><ele>385.0</ele><time>2026-05-01T11:38:09.001Z</time></trkpt><trkpt lat="43.5144391416662" lon="12.56590300859354"><ele>385.0</ele><time>2026-05-01T11:38:10.001Z</time></trkpt><trkpt lat="43.51441255196002" lon="12.566095350733654"><ele>385.0</ele><time>2026-05-01T11:38:11.001Z</time></trkpt><trkpt lat="43.51437490817917" lon="12.566327406839095"><ele>385.0</ele><time>2026-05-01T11:38:12.001Z</time></trkpt><trkpt lat="43.51433170701008" lon="12.566591170543907"><ele>384.0</ele><time>2026-05-01T11:38:13.001Z</time></trkpt><trkpt lat="43.51430875349084" lon="12.56681594224019"><ele>383.0</ele><time>2026-05-01T11:38:14.001Z</time></trkpt><trkpt lat="43.5142838578536" lon="12.566972217428278"><ele>382.0</ele><time>2026-05-01T11:38:15.001Z</time></trkpt><trkpt lat="43.51427293493414" lon="12.567101005668487"><ele>381.0</ele><time>2026-05-01T11:38:16.001Z</time></trkpt><trkpt lat="43.51429559551057" lon="12.567227630664599"><ele>380.25</ele><time>2026-05-01T11:38:17.001Z</time></trkpt><trkpt lat="43.51436428359438" lon="12.567330903795956"><ele>379.5</ele><time>2026-05-01T11:38:18.001Z</time></trkpt><trkpt lat="43.5144640394279" lon="12.567393297744255"><ele>378.75</ele><time>2026-05-01T11:38:19.001Z</time></trkpt><trkpt lat="43.514586840517374" lon="12.567410885396564"><ele>378.0</ele><time>2026-05-01T11:38:20.001Z</time></trkpt><trkpt lat="43.51473029804507" lon="12.567394534995197"><ele>380.0</ele><time>2026-05-01T11:38:21.001Z</time></trkpt><trkpt lat="43.514900741046716" lon="12.567385855730016"><ele>382.0</ele><time>2026-05-01T11:38:22.001Z</time></trkpt><trkpt lat="43.51509821129252" lon="12.567401561084068"><ele>384.0</ele><time>2026-05-01T11:38:23.001Z</time></trkpt><trkpt lat="43.51531590692871" lon="12.567423494040096"><ele>384.66666666666663</ele><time>2026-05-01T11:38:24.001Z</time></trkpt><trkpt lat="43.51554511296099" lon="12.567447238068551"><ele>385.3333333333333</ele><time>2026-05-01T11:38:25.001Z</time></trkpt><trkpt lat="43.51574796741544" lon="12.56748793756466"><ele>386.0</ele><time>2026-05-01T11:38:26.001Z</time></trkpt><trkpt lat="43.51593696285618" lon="12.56752096113942"><ele>386.0</ele><time>2026-05-01T11:38:27.001Z</time></trkpt><trkpt lat="43.51610578446319" lon="12.567593871284584"><ele>386.0</ele><time>2026-05-01T11:38:28.001Z</time></trkpt><trkpt lat="43.51626653635448" lon="12.567732506280434"><ele>386.0</ele><time>2026-05-01T11:38:29.001Z</time></trkpt><trkpt lat="43.51642136804199" lon="12.567902096719939"><ele>388.66666666666663</ele><time>2026-05-01T11:38:30.001Z</time></trkpt><trkpt lat="43.516562948064006" lon="12.568088255275354"><ele>391.33333333333337</ele><time>2026-05-01T11:38:31.001Z</time></trkpt><trkpt lat="43.51666098741025" lon="12.568297042988574"><ele>394.0</ele><time>2026-05-01T11:38:32.001Z</time></trkpt><trkpt lat="43.516724790731594" lon="12.568514323291506"><ele>391.25</ele><time>2026-05-01T11:38:33.001Z</time></trkpt><trkpt lat="43.516787254067594" lon="12.568700937992023"><ele>388.5</ele><time>2026-05-01T11:38:34.001Z</time></trkpt><trkpt lat="43.516839131014756" lon="12.568836200633049"><ele>385.75</ele><time>2026-05-01T11:38:35.001Z</time></trkpt><trkpt lat="43.51692488108895" lon="12.568943086287119"><ele>383.0</ele><time>2026-05-01T11:38:36.001Z</time></trkpt><trkpt lat="43.51705344188842" lon="12.56899521016332"><ele>384.33333333333337</ele><time>2026-05-01T11:38:37.001Z</time></trkpt><trkpt lat="43.5172095172092" lon="12.569003979654282"><ele>385.6666666666667</ele><time>2026-05-01T11:38:38.001Z</time></trkpt><trkpt lat="43.51738475991197" lon="12.56899355614538"><ele>387.0</ele><time>2026-05-01T11:38:39.001Z</time></trkpt><trkpt lat="43.51757278906878" lon="12.569069627396823"><ele>387.0</ele><time>2026-05-01T11:38:40.001Z</time></trkpt><trkpt lat="43.517767106015846" lon="12.569137900918895"><ele>387.0</ele><time>2026-05-01T11:38:41.001Z</time></trkpt><trkpt lat="43.51794371898115" lon="12.569200670494196"><ele>387.0</ele><time>2026-05-01T11:38:42.002Z</time></trkpt><trkpt lat="43.51810328765939" lon="12.569269076392995"><ele>386.75</ele><time>2026-05-01T11:38:43.002Z</time></trkpt><trkpt lat="43.51823576756913" lon="12.569356531204674"><ele>386.5</ele><time>2026-05-01T11:38:44.002Z</time></trkpt><trkpt lat="43.51833666283251" lon="12.569480037236199"><ele>386.25</ele><time>2026-05-01T11:38:45.002Z</time></trkpt><trkpt lat="43.518420583542515" lon="12.569642932871384"><ele>386.0</ele><time>2026-05-01T11:38:46.002Z</time></trkpt><trkpt lat="43.51847628496086" lon="12.569835979800771"><ele>386.0</ele><time>2026-05-01T11:38:47.002Z</time></trkpt><trkpt lat="43.518492567294956" lon="12.570051027393344"><ele>386.0</ele><time>2026-05-01T11:38:48.002Z</time></trkpt><trkpt lat="43.51850427112955" lon="12.570298868262844"><ele>386.0</ele><time>2026-05-01T11:38:49.002Z</time></trkpt><trkpt lat="43.518495381659825" lon="12.570546802209899"><ele>384.0</ele><time>2026-05-01T11:38:50.002Z</time></trkpt><trkpt lat="43.51850742473081" lon="12.570759906916802"><ele>382.0</ele><time>2026-05-01T11:38:51.002Z</time></trkpt><trkpt lat="43.518554172814994" lon="12.570951008309606"><ele>380.0</ele><time>2026-05-01T11:38:52.002Z</time></trkpt><trkpt lat="43.51863045059141" lon="12.57112958323505"><ele>382.6666666666667</ele><time>2026-05-01T11:38:53.002Z</time></trkpt><trkpt lat="43.518748428619496" lon="12.571288802424858"><ele>385.33333333333337</ele><time>2026-05-01T11:38:54.002Z</time></trkpt><trkpt lat="43.51890901556464" lon="12.571430864057598"><ele>388.0</ele><time>2026-05-01T11:38:55.002Z</time></trkpt><trkpt lat="43.5191000509889" lon="12.571559174418027"><ele>388.0</ele><time>2026-05-01T11:38:56.002Z</time></trkpt><trkpt lat="43.5193141333063" lon="12.57169443402033"><ele>388.0</ele><time>2026-05-01T11:38:57.002Z</time></trkpt><trkpt lat="43.51954317404073" lon="12.571866347543066"><ele>383.5</ele><time>2026-05-01T11:38:58.002Z</time></trkpt><trkpt lat="43.51977804597117" lon="12.57202690366139"><ele>379.0</ele><time>2026-05-01T11:38:59.002Z</time></trkpt><trkpt lat="43.52000700856111" lon="12.572186812664405"><ele>379.0</ele><time>2026-05-01T11:39:00.002Z</time></trkpt><trkpt lat="43.520201649678455" lon="12.572351277462635"><ele>379.0</ele><time>2026-05-01T11:39:01.002Z</time></trkpt><trkpt lat="43.52037000508027" lon="12.572522025985739"><ele>379.0</ele><time>2026-05-01T11:39:02.002Z</time></trkpt><trkpt lat="43.5205231082946" lon="12.572680258832218"><ele>379.66666666666663</ele><time>2026-05-01T11:39:03.002Z</time></trkpt><trkpt lat="43.52066837000457" lon="12.572799877288235"><ele>380.3333333333333</ele><time>2026-05-01T11:39:04.002Z</time></trkpt><trkpt lat="43.520818183340175" lon="12.572889389293106"><ele>381.0</ele><time>2026-05-01T11:39:05.002Z</time></trkpt><trkpt lat="43.520988208806266" lon="12.572919398461863"><ele>381.0</ele><time>2026-05-01T11:39:06.002Z</time></trkpt><trkpt lat="43.521190823990445" lon="12.57289283640396"><ele>381.0</ele><time>2026-05-01T11:39:07.002Z</time></trkpt><trkpt lat="43.52138424218088" lon="12.57283902446378"><ele>381.0</ele><time>2026-05-01T11:39:08.002Z</time></trkpt><trkpt lat="43.521546389528496" lon="12.572908815736985"><ele>380.5</ele><time>2026-05-01T11:39:09.002Z</time></trkpt><trkpt lat="43.52165314887167" lon="12.573001718349246"><ele>380.0</ele><time>2026-05-01T11:39:10.002Z</time></trkpt><trkpt lat="43.5217617654884" lon="12.573115044039573"><ele>379.5</ele><time>2026-05-01T11:39:11.002Z</time></trkpt><trkpt lat="43.52188381817219" lon="12.573230680499119"><ele>379.0</ele><time>2026-05-01T11:39:12.002Z</time></trkpt><trkpt lat="43.52202982226108" lon="12.573313054631889"><ele>380.66666666666663</ele><time>2026-05-01T11:39:13.002Z</time></trkpt><trkpt lat="43.522201582140276" lon="12.573374138703548"><ele>382.3333333333333</ele><time>2026-05-01T11:39:14.002Z</time></trkpt><trkpt lat="43.52239364169411" lon="12.573393370825752"><ele>384.0</ele><time>2026-05-01T11:39:15.002Z</time></trkpt><trkpt lat="43.522604402305994" lon="12.573398668456411"><ele>384.0</ele><time>2026-05-01T11:39:16.002Z</time></trkpt><trkpt lat="43.522817696077574" lon="12.573401891969134"><ele>384.0</ele><time>2026-05-01T11:39:17.002Z</time></trkpt><trkpt lat="43.522999789909214" lon="12.573440807250229"><ele>384.0</ele><time>2026-05-01T11:39:18.002Z</time></trkpt><trkpt lat="43.523160644843244" lon="12.573484225882321"><ele>382.75</ele><time>2026-05-01T11:39:19.002Z</time></trkpt><trkpt lat="43.52328762981076" lon="12.573562277953656"><ele>381.5</ele><time>2026-05-01T11:39:20.002Z</time></trkpt><trkpt lat="43.5233988604142" lon="12.573670625171397"><ele>380.25</ele><time>2026-05-01T11:39:21.002Z</time></trkpt><trkpt lat="43.52348872468263" lon="12.573826998780907"><ele>379.0</ele><time>2026-05-01T11:39:22.002Z</time></trkpt><trkpt lat="43.52356333796112" lon="12.574022785168726"><ele>379.0</ele><time>2026-05-01T11:39:23.002Z</time></trkpt><trkpt lat="43.5236291682237" lon="12.574255634893506"><ele>379.0</ele><time>2026-05-01T11:39:24.002Z</time></trkpt><trkpt lat="43.523705435117144" lon="12.574472941679794"><ele>379.0</ele><time>2026-05-01T11:39:25.002Z</time></trkpt><trkpt lat="43.52373972112347" lon="12.574682201324196"><ele>378.3333333333333</ele><time>2026-05-01T11:39:26.002Z</time></trkpt><trkpt lat="43.5237422348485" lon="12.574879934324116"><ele>377.6666666666667</ele><time>2026-05-01T11:39:27.002Z</time></trkpt><trkpt lat="43.523673290386924" lon="12.575101832763336"><ele>377.0</ele><time>2026-05-01T11:39:28.002Z</time></trkpt><trkpt lat="43.523616887241275" lon="12.575349994605753"><ele>379.33333333333337</ele><time>2026-05-01T11:39:29.002Z</time></trkpt><trkpt lat="43.523542066799756" lon="12.575610236129751"><ele>381.6666666666667</ele><time>2026-05-01T11:39:30.001Z</time></trkpt><trkpt lat="43.523489701370686" lon="12.575899045697236"><ele>384.0</ele><time>2026-05-01T11:39:31.001Z</time></trkpt><trkpt lat="43.52346151135462" lon="12.57618485731248"><ele>383.6666666666667</ele><time>2026-05-01T11:39:32.001Z</time></trkpt><trkpt lat="43.52344026291149" lon="12.576435496460421"><ele>383.33333333333337</ele><time>2026-05-01T11:39:33.001Z</time></trkpt><trkpt lat="43.5234229876808" lon="12.576674132247396"><ele>383.0</ele><time>2026-05-01T11:39:34.001Z</time></trkpt><trkpt lat="43.523426220361515" lon="12.576909443001009"><ele>380.6666666666667</ele><time>2026-05-01T11:39:35.001Z</time></trkpt><trkpt lat="43.52344824399593" lon="12.577147421729546"><ele>378.3333333333333</ele><time>2026-05-01T11:39:36.001Z</time></trkpt><trkpt lat="43.523498490276594" lon="12.577396113811586"><ele>376.0</ele><time>2026-05-01T11:39:37.001Z</time></trkpt><trkpt lat="43.52357181709871" lon="12.577646423209396"><ele>375.0</ele><time>2026-05-01T11:39:38.001Z</time></trkpt><trkpt lat="43.52364958739025" lon="12.577863361290696"><ele>374.0</ele><time>2026-05-01T11:39:39.001Z</time></trkpt><trkpt lat="43.523721311722404" lon="12.578049214921624"><ele>373.0</ele><time>2026-05-01T11:39:40.001Z</time></trkpt><trkpt lat="43.52380863874046" lon="12.578210725771337"><ele>381.0</ele><time>2026-05-01T11:39:41.001Z</time></trkpt><trkpt lat="43.52394139034986" lon="12.578357576960126"><ele>389.0</ele><time>2026-05-01T11:39:42.001Z</time></trkpt><trkpt lat="43.52411224452306" lon="12.578483304585104"><ele>397.0</ele><time>2026-05-01T11:39:43.001Z</time></trkpt><trkpt lat="43.524252536723075" lon="12.57862390963591"><ele>387.6666666666667</ele><time>2026-05-01T11:39:44.001Z</time></trkpt><trkpt lat="43.52438156352216" lon="12.578806443680655"><ele>378.33333333333337</ele><time>2026-05-01T11:39:45.001Z</time></trkpt><trkpt lat="43.52446342922341" lon="12.578993919166768"><ele>369.0</ele><time>2026-05-01T11:39:46.001Z</time></trkpt><trkpt lat="43.524536910615424" lon="12.579170945911267"><ele>375.75</ele><time>2026-05-01T11:39:47.001Z</time></trkpt><trkpt lat="43.52459397173274" lon="12.579318020443955"><ele>382.5</ele><time>2026-05-01T11:39:48.001Z</time></trkpt><trkpt lat="43.52466321445101" lon="12.57942418910988"><ele>389.25</ele><time>2026-05-01T11:39:49.001Z</time></trkpt><trkpt lat="43.52476859639344" lon="12.579464074492401"><ele>396.0</ele><time>2026-05-01T11:39:50.001Z</time></trkpt><trkpt lat="43.524892690582924" lon="12.579474206821313"><ele>396.0</ele><time>2026-05-01T11:39:51.001Z</time></trkpt><trkpt lat="43.52505929250991" lon="12.579493385098651"><ele>396.0</ele><time>2026-05-01T11:39:52.001Z</time></trkpt><trkpt lat="43.525219997211245" lon="12.57950922190804"><ele>396.0</ele><time>2026-05-01T11:39:53.001Z</time></trkpt><trkpt lat="43.52539746663121" lon="12.579555895794398"><ele>388.6666666666667</ele><time>2026-05-01T11:39:54.001Z</time></trkpt><trkpt lat="43.5255839465427" lon="12.579649310392735"><ele>381.33333333333337</ele><time>2026-05-01T11:39:55.001Z</time></trkpt><trkpt lat="43.52577505554695" lon="12.579751996406577"><ele>374.0</ele><time>2026-05-01T11:39:56.001Z</time></trkpt><trkpt lat="43.5259575776638" lon="12.57985542600894"><ele>374.0</ele><time>2026-05-01T11:39:57.001Z</time></trkpt><trkpt lat="43.526110079130476" lon="12.579952588099182"><ele>374.0</ele><time>2026-05-01T11:39:58.001Z</time></trkpt><trkpt lat="43.52622217936703" lon="12.580061590848585"><ele>374.0</ele><time>2026-05-01T11:39:59.001Z</time></trkpt><trkpt lat="43.52630791033453" lon="12.580212407369155"><ele>374.0</ele><time>2026-05-01T11:40:00.001Z</time></trkpt><trkpt lat="43.52639664863026" lon="12.580400154375011"><ele>377.6666666666667</ele><time>2026-05-01T11:40:01.001Z</time></trkpt><trkpt lat="43.52648337057497" lon="12.580611451672734"><ele>381.33333333333337</ele><time>2026-05-01T11:40:02.001Z</time></trkpt><trkpt lat="43.52655817388136" lon="12.580840228100637"><ele>385.0</ele><time>2026-05-01T11:40:03.001Z</time></trkpt><trkpt lat="43.52663984811274" lon="12.581094824915793"><ele>377.5</ele><time>2026-05-01T11:40:04.001Z</time></trkpt><trkpt lat="43.52673295971767" lon="12.581391469966182"><ele>370.0</ele><time>2026-05-01T11:40:05.001Z</time></trkpt><trkpt lat="43.526828973137235" lon="12.581695639545321"><ele>367.0</ele><time>2026-05-01T11:40:06.001Z</time></trkpt><trkpt lat="43.526938106477346" lon="12.582040855905458"><ele>364.0</ele><time>2026-05-01T11:40:07.001Z</time></trkpt><trkpt lat="43.52704437770397" lon="12.582372122212"><ele>369.0</ele><time>2026-05-01T11:40:08.001Z</time></trkpt><trkpt lat="43.52714440451977" lon="12.582684650485698"><ele>374.0</ele><time>2026-05-01T11:40:09.001Z</time></trkpt><trkpt lat="43.52724556147056" lon="12.582967915179482"><ele>374.0</ele><time>2026-05-01T11:40:10.001Z</time></trkpt><trkpt lat="43.52730301912944" lon="12.583200042656202"><ele>374.0</ele><time>2026-05-01T11:40:11.001Z</time></trkpt><trkpt lat="43.52735272256406" lon="12.583392952067024"><ele>374.0</ele><time>2026-05-01T11:40:12.001Z</time></trkpt><trkpt lat="43.52736044141447" lon="12.583592653911424"><ele>370.25</ele><time>2026-05-01T11:40:13.001Z</time></trkpt><trkpt lat="43.52732443610024" lon="12.583790644990668"><ele>366.5</ele><time>2026-05-01T11:40:14.001Z</time></trkpt><trkpt lat="43.52725804570453" lon="12.583983154502222"><ele>362.75</ele><time>2026-05-01T11:40:15.001Z</time></trkpt><trkpt lat="43.52715678947511" lon="12.584123864904122"><ele>359.0</ele><time>2026-05-01T11:40:16.001Z</time></trkpt><trkpt lat="43.52703070512504" lon="12.584241309349471"><ele>359.0</ele><time>2026-05-01T11:40:17.001Z</time></trkpt><trkpt lat="43.5268701730511" lon="12.584257842073407"><ele>359.0</ele><time>2026-05-01T11:40:18.001Z</time></trkpt><trkpt lat="43.52671234330356" lon="12.584281123037686"><ele>359.0</ele><time>2026-05-01T11:40:19.001Z</time></trkpt><trkpt lat="43.526590722003704" lon="12.584268856149198"><ele>359.0</ele><time>2026-05-01T11:40:20.001Z</time></trkpt><trkpt lat="43.52650781415691" lon="12.584272240215077"><ele>359.0</ele><time>2026-05-01T11:40:21.001Z</time></trkpt><trkpt lat="43.52643780962569" lon="12.584324868370555"><ele>359.0</ele><time>2026-05-01T11:40:22.001Z</time></trkpt><trkpt lat="43.52638066423972" lon="12.584440780764751"><ele>359.0</ele><time>2026-05-01T11:40:23.001Z</time></trkpt><trkpt lat="43.52636920361891" lon="12.584597364764159"><ele>359.0</ele><time>2026-05-01T11:40:24.001Z</time></trkpt><trkpt lat="43.52640640631929" lon="12.584759360751905"><ele>359.0</ele><time>2026-05-01T11:40:25.001Z</time></trkpt><trkpt lat="43.52649390966669" lon="12.584933770007822"><ele>360.6666666666667</ele><time>2026-05-01T11:40:26.001Z</time></trkpt><trkpt lat="43.52660221450978" lon="12.585115729715028"><ele>362.3333333333333</ele><time>2026-05-01T11:40:27.001Z</time></trkpt><trkpt lat="43.52670245142426" lon="12.585303095979453"><ele>364.0</ele><time>2026-05-01T11:40:28.001Z</time></trkpt><trkpt lat="43.52676032737407" lon="12.585480910517537"><ele>364.0</ele><time>2026-05-01T11:40:29.001Z</time></trkpt><trkpt lat="43.52679087597603" lon="12.585655237419429"><ele>364.0</ele><time>2026-05-01T11:40:30.001Z</time></trkpt><trkpt lat="43.52677458708696" lon="12.585817307239655"><ele>364.0</ele><time>2026-05-01T11:40:31.001Z</time></trkpt><trkpt lat="43.52673144747789" lon="12.585976071779802"><ele>364.0</ele><time>2026-05-01T11:40:32.001Z</time></trkpt><trkpt lat="43.526661483121956" lon="12.586120676209624"><ele>369.0</ele><time>2026-05-01T11:40:33.001Z</time></trkpt><trkpt lat="43.52653733467076" lon="12.58623042981893"><ele>374.0</ele><time>2026-05-01T11:40:34.001Z</time></trkpt><trkpt lat="43.526405848957744" lon="12.586349676439717"><ele>379.0</ele><time>2026-05-01T11:40:35.001Z</time></trkpt><trkpt lat="43.52626235585133" lon="12.586442795120048"><ele>375.4</ele><time>2026-05-01T11:40:36.001Z</time></trkpt><trkpt lat="43.5261474199224" lon="12.586541850276042"><ele>371.79999999999995</ele><time>2026-05-01T11:40:37.001Z</time></trkpt><trkpt lat="43.52607259402118" lon="12.586649899194382"><ele>368.20000000000005</ele><time>2026-05-01T11:40:38.001Z</time></trkpt><trkpt lat="43.52604737534601" lon="12.586769743432312"><ele>364.6</ele><time>2026-05-01T11:40:39.001Z</time></trkpt><trkpt lat="43.52604254809365" lon="12.586927305274111"><ele>361.0</ele><time>2026-05-01T11:40:40.001Z</time></trkpt><trkpt lat="43.52608652917436" lon="12.587104168745293"><ele>361.0</ele><time>2026-05-01T11:40:41.001Z</time></trkpt><trkpt lat="43.52618965292953" lon="12.58729300492762"><ele>361.0</ele><time>2026-05-01T11:40:42.001Z</time></trkpt><trkpt lat="43.526295421484434" lon="12.587560536114355"><ele>361.0</ele><time>2026-05-01T11:40:43.001Z</time></trkpt><trkpt lat="43.52641298930329" lon="12.587817509639205"><ele>364.5</ele><time>2026-05-01T11:40:44.001Z</time></trkpt><trkpt lat="43.526527434636954" lon="12.588076559143907"><ele>368.0</ele><time>2026-05-01T11:40:45.001Z</time></trkpt><trkpt lat="43.526625425548" lon="12.588365346901163"><ele>363.0</ele><time>2026-05-01T11:40:46.002Z</time></trkpt><trkpt lat="43.52669748571505" lon="12.588692586437759"><ele>358.0</ele><time>2026-05-01T11:40:47.002Z</time></trkpt><trkpt lat="43.526782097539304" lon="12.589037844790388"><ele>358.0</ele><time>2026-05-01T11:40:48.002Z</time></trkpt><trkpt lat="43.52683349268384" lon="12.589378454321979"><ele>358.0</ele><time>2026-05-01T11:40:49.002Z</time></trkpt><trkpt lat="43.52689377483468" lon="12.589680409038271"><ele>358.3333333333333</ele><time>2026-05-01T11:40:50.002Z</time></trkpt><trkpt lat="43.526947628448376" lon="12.58993261159735"><ele>358.6666666666667</ele><time>2026-05-01T11:40:51.002Z</time></trkpt><trkpt lat="43.527009349684754" lon="12.59014517020285"><ele>359.0</ele><time>2026-05-01T11:40:52.002Z</time></trkpt><trkpt lat="43.52707813685412" lon="12.590322212950355"><ele>356.5</ele><time>2026-05-01T11:40:53.002Z</time></trkpt><trkpt lat="43.5271533854752" lon="12.590473227454797"><ele>354.0</ele><time>2026-05-01T11:40:54.002Z</time></trkpt><trkpt lat="43.527239639619076" lon="12.590603960605002"><ele>351.5</ele><time>2026-05-01T11:40:55.002Z</time></trkpt><trkpt lat="43.52734824655573" lon="12.59072786548897"><ele>349.0</ele><time>2026-05-01T11:40:56.002Z</time></trkpt><trkpt lat="43.52747704396764" lon="12.590842409006695"><ele>349.0</ele><time>2026-05-01T11:40:57.002Z</time></trkpt><trkpt lat="43.52761218604377" lon="12.590927103191168"><ele>349.0</ele><time>2026-05-01T11:40:58.002Z</time></trkpt><trkpt lat="43.527776851979915" lon="12.59099910686387"><ele>349.0</ele><time>2026-05-01T11:40:59.002Z</time></trkpt><trkpt lat="43.52795260666014" lon="12.591029055251509"><ele>349.66666666666663</ele><time>2026-05-01T11:41:00.002Z</time></trkpt><trkpt lat="43.52815647119724" lon="12.591050650479332"><ele>350.3333333333333</ele><time>2026-05-01T11:41:01.002Z</time></trkpt><trkpt lat="43.52835559811028" lon="12.591058749605933"><ele>351.0</ele><time>2026-05-01T11:41:02.002Z</time></trkpt><trkpt lat="43.52856315225954" lon="12.591076510839416"><ele>354.3333333333333</ele><time>2026-05-01T11:41:03.002Z</time></trkpt><trkpt lat="43.528742977852744" lon="12.591106836088244"><ele>357.66666666666663</ele><time>2026-05-01T11:41:04.002Z</time></trkpt><trkpt lat="43.52888331501587" lon="12.591152543780861"><ele>361.0</ele><time>2026-05-01T11:41:05.002Z</time></trkpt><trkpt lat="43.529005192565855" lon="12.591270612631217"><ele>361.0</ele><time>2026-05-01T11:41:06.002Z</time></trkpt><trkpt lat="43.529101718667285" lon="12.591449664799208"><ele>361.0</ele><time>2026-05-01T11:41:07.002Z</time></trkpt><trkpt lat="43.529212886319186" lon="12.59153831850753"><ele>361.0</ele><time>2026-05-01T11:41:08.002Z</time></trkpt><trkpt lat="43.52923768714914" lon="12.591711190960943"><ele>361.0</ele><time>2026-05-01T11:41:09.002Z</time></trkpt><trkpt lat="43.52923070706579" lon="12.591896402213642"><ele>365.0</ele><time>2026-05-01T11:41:10.002Z</time></trkpt><trkpt lat="43.52918072621119" lon="12.592111230471419"><ele>369.0</ele><time>2026-05-01T11:41:11.002Z</time></trkpt><trkpt lat="43.529092386076364" lon="12.592358283874974"><ele>373.0</ele><time>2026-05-01T11:41:12.002Z</time></trkpt><trkpt lat="43.52898499100844" lon="12.592652162590719"><ele>372.0</ele><time>2026-05-01T11:41:13.002Z</time></trkpt><trkpt lat="43.52891953864114" lon="12.592879215919682"><ele>371.0</ele><time>2026-05-01T11:41:14.002Z</time></trkpt><trkpt lat="43.528871324338894" lon="12.59310697499057"><ele>370.0</ele><time>2026-05-01T11:41:15.002Z</time></trkpt><trkpt lat="43.52886887958004" lon="12.593349522019794"><ele>370.0</ele><time>2026-05-01T11:41:16.002Z</time></trkpt><trkpt lat="43.528864418956886" lon="12.593588056598877"><ele>370.0</ele><time>2026-05-01T11:41:17.002Z</time></trkpt><trkpt lat="43.52890316170876" lon="12.593853345699026"><ele>370.0</ele><time>2026-05-01T11:41:18.002Z</time></trkpt><trkpt lat="43.52895550134238" lon="12.594103219187353"><ele>365.0</ele><time>2026-05-01T11:41:19.002Z</time></trkpt><trkpt lat="43.52906034247312" lon="12.594381110981798"><ele>360.0</ele><time>2026-05-01T11:41:20.002Z</time></trkpt><trkpt lat="43.52919561450729" lon="12.594671320576158"><ele>354.5</ele><time>2026-05-01T11:41:21.002Z</time></trkpt><trkpt lat="43.529335691252406" lon="12.594951468615902"><ele>349.0</ele><time>2026-05-01T11:41:22.002Z</time></trkpt><trkpt lat="43.529464441013936" lon="12.595208240984768"><ele>347.3333333333333</ele><time>2026-05-01T11:41:23.002Z</time></trkpt><trkpt lat="43.52957765946469" lon="12.595426424495688"><ele>345.6666666666667</ele><time>2026-05-01T11:41:24.002Z</time></trkpt><trkpt lat="43.529722778029004" lon="12.595596337299705"><ele>344.0</ele><time>2026-05-01T11:41:25.002Z</time></trkpt><trkpt lat="43.52990694149229" lon="12.595778260772226"><ele>344.0</ele><time>2026-05-01T11:41:26.002Z</time></trkpt><trkpt lat="43.53011337260393" lon="12.595926188383014"><ele>344.0</ele><time>2026-05-01T11:41:27.002Z</time></trkpt><trkpt lat="43.5303052038428" lon="12.596044060295068"><ele>344.0</ele><time>2026-05-01T11:41:28.002Z</time></trkpt><trkpt lat="43.530497636902666" lon="12.596101965436599"><ele>350.0</ele><time>2026-05-01T11:41:29.002Z</time></trkpt><trkpt lat="43.530712086110704" lon="12.596144768706086"><ele>356.0</ele><time>2026-05-01T11:41:30.002Z</time></trkpt><trkpt lat="43.53102077260296" lon="12.596110645961929"><ele>354.0</ele><time>2026-05-01T11:41:31.002Z</time></trkpt><trkpt lat="43.53126845714919" lon="12.596088990468331"><ele>352.0</ele><time>2026-05-01T11:41:32.002Z</time></trkpt><trkpt lat="43.531513879429376" lon="12.596077515983591"><ele>352.0</ele><time>2026-05-01T11:41:33.002Z</time></trkpt><trkpt lat="43.53174156930188" lon="12.596067436414366"><ele>352.0</ele><time>2026-05-01T11:41:34.002Z</time></trkpt><trkpt lat="43.53194871361887" lon="12.596041549795665"><ele>352.0</ele><time>2026-05-01T11:41:35.002Z</time></trkpt><trkpt lat="43.53215597373652" lon="12.595994375888136"><ele>349.0</ele><time>2026-05-01T11:41:36.001Z</time></trkpt><trkpt lat="43.532371941162886" lon="12.595895035009377"><ele>346.0</ele><time>2026-05-01T11:41:37.001Z</time></trkpt><trkpt lat="43.5325944074057" lon="12.595770015632844"><ele>346.0</ele><time>2026-05-01T11:41:38.001Z</time></trkpt><trkpt lat="43.53281410053219" lon="12.595623524138219"><ele>346.0</ele><time>2026-05-01T11:41:39.001Z</time></trkpt><trkpt lat="43.533034894448946" lon="12.595495751557548"><ele>343.3333333333333</ele><time>2026-05-01T11:41:40.001Z</time></trkpt><trkpt lat="43.53323693233381" lon="12.595390830408347"><ele>340.6666666666667</ele><time>2026-05-01T11:41:41.001Z</time></trkpt><trkpt lat="43.53343130975873" lon="12.595325276214837"><ele>338.0</ele><time>2026-05-01T11:41:42.001Z</time></trkpt><trkpt lat="43.53362715635276" lon="12.59532457759803"><ele>339.0</ele><time>2026-05-01T11:41:43.001Z</time></trkpt><trkpt lat="43.533837185107345" lon="12.5954065370295"><ele>340.0</ele><time>2026-05-01T11:41:44.001Z</time></trkpt><trkpt lat="43.53405303428531" lon="12.595549514789553"><ele>340.0</ele><time>2026-05-01T11:41:45.001Z</time></trkpt><trkpt lat="43.53426934357131" lon="12.595702577894162"><ele>340.0</ele><time>2026-05-01T11:41:46.001Z</time></trkpt><trkpt lat="43.53451220657415" lon="12.595841070670915"><ele>348.0</ele><time>2026-05-01T11:41:47.001Z</time></trkpt><trkpt lat="43.5347685212911" lon="12.595969458796286"><ele>356.0</ele><time>2026-05-01T11:41:48.001Z</time></trkpt><trkpt lat="43.53503302367315" lon="12.596103165554712"><ele>349.5</ele><time>2026-05-01T11:41:49.001Z</time></trkpt><trkpt lat="43.53528589685108" lon="12.596244056283286"><ele>343.0</ele><time>2026-05-01T11:41:50.001Z</time></trkpt><trkpt lat="43.53552747533849" lon="12.596381119925242"><ele>343.0</ele><time>2026-05-01T11:41:51.001Z</time></trkpt><trkpt lat="43.535743065501" lon="12.596539163352693"><ele>343.0</ele><time>2026-05-01T11:41:52.001Z</time></trkpt><trkpt lat="43.53592620125223" lon="12.59676853227516"><ele>346.0</ele><time>2026-05-01T11:41:53.001Z</time></trkpt><trkpt lat="43.53610480333714" lon="12.597040822026141"><ele>349.0</ele><time>2026-05-01T11:41:54.001Z</time></trkpt><trkpt lat="43.53627896935789" lon="12.597319001122159"><ele>349.0</ele><time>2026-05-01T11:41:55.001Z</time></trkpt><trkpt lat="43.53646966555442" lon="12.59757100953243"><ele>349.0</ele><time>2026-05-01T11:41:56.001Z</time></trkpt><trkpt lat="43.536660833824264" lon="12.597791037258723"><ele>339.5</ele><time>2026-05-01T11:41:57.001Z</time></trkpt><trkpt lat="43.536840906066836" lon="12.597978654466647"><ele>330.0</ele><time>2026-05-01T11:41:58.001Z</time></trkpt><trkpt lat="43.537027880913726" lon="12.59815280201056"><ele>332.0</ele><time>2026-05-01T11:41:59.001Z</time></trkpt><trkpt lat="43.537213188842195" lon="12.598285414687078"><ele>334.0</ele><time>2026-05-01T11:42:00.001Z</time></trkpt><trkpt lat="43.53737994286548" lon="12.59844559041589"><ele>336.0</ele><time>2026-05-01T11:42:01.001Z</time></trkpt><trkpt lat="43.53754190338505" lon="12.598644247261785"><ele>333.3333333333333</ele><time>2026-05-01T11:42:02.001Z</time></trkpt><trkpt lat="43.537663151663224" lon="12.598887402809462"><ele>330.66666666666663</ele><time>2026-05-01T11:42:03.001Z</time></trkpt><trkpt lat="43.537782871630846" lon="12.599104652690057"><ele>328.0</ele><time>2026-05-01T11:42:04.001Z</time></trkpt><trkpt lat="43.537888381965146" lon="12.599300286588148"><ele>331.0</ele><time>2026-05-01T11:42:05.001Z</time></trkpt><trkpt lat="43.537998893874466" lon="12.599465891717102"><ele>334.0</ele><time>2026-05-01T11:42:06.001Z</time></trkpt><trkpt lat="43.538084883904894" lon="12.599633431778376"><ele>337.0</ele><time>2026-05-01T11:42:07.001Z</time></trkpt><trkpt lat="43.53817236551263" lon="12.599784929812943"><ele>337.0</ele><time>2026-05-01T11:42:08.001Z</time></trkpt><trkpt lat="43.53825567273273" lon="12.59991695100188"><ele>337.0</ele><time>2026-05-01T11:42:09.001Z</time></trkpt><trkpt lat="43.538326854448805" lon="12.600039538486685"><ele>337.0</ele><time>2026-05-01T11:42:10.001Z</time></trkpt><trkpt lat="43.53839765118416" lon="12.600140943378406"><ele>337.0</ele><time>2026-05-01T11:42:11.001Z</time></trkpt><trkpt lat="43.53847541249118" lon="12.600263472392825"><ele>335.3333333333333</ele><time>2026-05-01T11:42:12.001Z</time></trkpt><trkpt lat="43.53860905304839" lon="12.600412212602782"><ele>333.6666666666667</ele><time>2026-05-01T11:42:13.001Z</time></trkpt><trkpt lat="43.53876726513669" lon="12.60055814824944"><ele>332.0</ele><time>2026-05-01T11:42:14.001Z</time></trkpt><trkpt lat="43.538938771354935" lon="12.600689306785467"><ele>331.0</ele><time>2026-05-01T11:42:15.001Z</time></trkpt><trkpt lat="43.53909010592606" lon="12.600821828787266"><ele>330.0</ele><time>2026-05-01T11:42:16.001Z</time></trkpt><trkpt lat="43.539243345471526" lon="12.600942147529672"><ele>329.0</ele><time>2026-05-01T11:42:17.001Z</time></trkpt><trkpt lat="43.53939736197138" lon="12.6010591651103"><ele>328.6666666666667</ele><time>2026-05-01T11:42:18.001Z</time></trkpt><trkpt lat="43.539531477527326" lon="12.601197321192"><ele>328.3333333333333</ele><time>2026-05-01T11:42:19.001Z</time></trkpt><trkpt lat="43.539679889693566" lon="12.601307446754706"><ele>328.0</ele><time>2026-05-01T11:42:20.001Z</time></trkpt><trkpt lat="43.53982962434533" lon="12.601437047912503"><ele>326.66666666666663</ele><time>2026-05-01T11:42:21.001Z</time></trkpt><trkpt lat="43.53996070765769" lon="12.601546071439332"><ele>325.3333333333333</ele><time>2026-05-01T11:42:22.001Z</time></trkpt><trkpt lat="43.54009645029278" lon="12.601636926560351"><ele>324.0</ele><time>2026-05-01T11:42:23.001Z</time></trkpt><trkpt lat="43.540261656107326" lon="12.601687156650133"><ele>331.0</ele><time>2026-05-01T11:42:24.001Z</time></trkpt><trkpt lat="43.54045145639854" lon="12.601706596572162"><ele>338.0</ele><time>2026-05-01T11:42:25.001Z</time></trkpt><trkpt lat="43.54063448523226" lon="12.6016698068626"><ele>345.0</ele><time>2026-05-01T11:42:26.001Z</time></trkpt><trkpt lat="43.54080072019991" lon="12.601694407000078"><ele>345.0</ele><time>2026-05-01T11:42:27.001Z</time></trkpt><trkpt lat="43.54097979432464" lon="12.60179817093527"><ele>345.0</ele><time>2026-05-01T11:42:28.001Z</time></trkpt><trkpt lat="43.54116847276376" lon="12.601971418123346"><ele>345.0</ele><time>2026-05-01T11:42:29.001Z</time></trkpt><trkpt lat="43.541367844825736" lon="12.602173182287345"><ele>341.5</ele><time>2026-05-01T11:42:30.001Z</time></trkpt><trkpt lat="43.54157282500363" lon="12.602361971556881"><ele>338.0</ele><time>2026-05-01T11:42:31.001Z</time></trkpt><trkpt lat="43.541756788793236" lon="12.602536984439023"><ele>338.0</ele><time>2026-05-01T11:42:32.001Z</time></trkpt><trkpt lat="43.54191932879195" lon="12.60269569695187"><ele>338.0</ele><time>2026-05-01T11:42:33.001Z</time></trkpt><trkpt lat="43.54207024648758" lon="12.602852276018986"><ele>338.0</ele><time>2026-05-01T11:42:34.001Z</time></trkpt><trkpt lat="43.54222420763966" lon="12.603004881612161"><ele>335.33333333333337</ele><time>2026-05-01T11:42:35.001Z</time></trkpt><trkpt lat="43.542377175751334" lon="12.603152558923773"><ele>332.6666666666667</ele><time>2026-05-01T11:42:36.001Z</time></trkpt><trkpt lat="43.542520159220935" lon="12.603318024356259"><ele>330.0</ele><time>2026-05-01T11:42:37.001Z</time></trkpt><trkpt lat="43.54267923690388" lon="12.603451145506885"><ele>330.0</ele><time>2026-05-01T11:42:38.001Z</time></trkpt><trkpt lat="43.54282459830172" lon="12.603600992736174"><ele>330.0</ele><time>2026-05-01T11:42:39.001Z</time></trkpt><trkpt lat="43.54294581898814" lon="12.603747439838138"><ele>330.0</ele><time>2026-05-01T11:42:40.001Z</time></trkpt><trkpt lat="43.54308336086601" lon="12.60386497074048"><ele>329.5</ele><time>2026-05-01T11:42:41.001Z</time></trkpt><trkpt lat="43.54320718799078" lon="12.603990622683583"><ele>329.0</ele><time>2026-05-01T11:42:42.001Z</time></trkpt><trkpt lat="43.54330776452042" lon="12.604108511393404"><ele>328.5</ele><time>2026-05-01T11:42:43.001Z</time></trkpt><trkpt lat="43.5434073054882" lon="12.604197259454521"><ele>328.0</ele><time>2026-05-01T11:42:44.001Z</time></trkpt><trkpt lat="43.54350775597645" lon="12.604275674517009"><ele>328.0</ele><time>2026-05-01T11:42:45.001Z</time></trkpt><trkpt lat="43.543621519602915" lon="12.60433253893604"><ele>328.0</ele><time>2026-05-01T11:42:46.001Z</time></trkpt><trkpt lat="43.54373846813852" lon="12.604408114617963"><ele>328.0</ele><time>2026-05-01T11:42:47.001Z</time></trkpt><trkpt lat="43.54386684625679" lon="12.604490490307828"><ele>328.0</ele><time>2026-05-01T11:42:48.001Z</time></trkpt><trkpt lat="43.54401192804169" lon="12.604564229020726"><ele>326.3333333333333</ele><time>2026-05-01T11:42:49.001Z</time></trkpt><trkpt lat="43.54415971778048" lon="12.604635289920374"><ele>324.6666666666667</ele><time>2026-05-01T11:42:50.001Z</time></trkpt><trkpt lat="43.544302071929835" lon="12.604710757952425"><ele>323.0</ele><time>2026-05-01T11:42:51.001Z</time></trkpt><trkpt lat="43.544441477788155" lon="12.604764454403792"><ele>323.0</ele><time>2026-05-01T11:42:52.001Z</time></trkpt><trkpt lat="43.54457114419123" lon="12.604822149206914"><ele>323.0</ele><time>2026-05-01T11:42:53.001Z</time></trkpt><trkpt lat="43.54469088955876" lon="12.604875137624177"><ele>323.0</ele><time>2026-05-01T11:42:54.001Z</time></trkpt><trkpt lat="43.544801853018896" lon="12.604924520855484"><ele>323.0</ele><time>2026-05-01T11:42:55.001Z</time></trkpt><trkpt lat="43.54491179243177" lon="12.60496784981561"><ele>323.0</ele><time>2026-05-01T11:42:56.001Z</time></trkpt><trkpt lat="43.54502023824142" lon="12.60501525531315"><ele>323.0</ele><time>2026-05-01T11:42:57.001Z</time></trkpt><trkpt lat="43.54510680126958" lon="12.605057571865329"><ele>323.0</ele><time>2026-05-01T11:42:58.001Z</time></trkpt><trkpt lat="43.545200585928185" lon="12.605111466589019"><ele>323.0</ele><time>2026-05-01T11:42:59.001Z</time></trkpt><trkpt lat="43.54530152133767" lon="12.605125073889926"><ele>323.0</ele><time>2026-05-01T11:43:00.001Z</time></trkpt><trkpt lat="43.54538273471376" lon="12.605145452828388"><ele>322.79999999999995</ele><time>2026-05-01T11:43:01.001Z</time></trkpt><trkpt lat="43.54545195495022" lon="12.605174122498449"><ele>322.6</ele><time>2026-05-01T11:43:02.001Z</time></trkpt><trkpt lat="43.545526522380996" lon="12.60518525232186"><ele>322.4</ele><time>2026-05-01T11:43:03.001Z</time></trkpt><trkpt lat="43.545624847304204" lon="12.605201311795385"><ele>322.20000000000005</ele><time>2026-05-01T11:43:04.001Z</time></trkpt><trkpt lat="43.54571663677388" lon="12.605217393316368"><ele>322.0</ele><time>2026-05-01T11:43:05.001Z</time></trkpt><trkpt lat="43.545837245243035" lon="12.60525454016529"><ele>322.0</ele><time>2026-05-01T11:43:06.001Z</time></trkpt><trkpt lat="43.54594926304491" lon="12.605247000985166"><ele>322.0</ele><time>2026-05-01T11:43:07.001Z</time></trkpt><trkpt lat="43.54605708041469" lon="12.605261789104462"><ele>322.0</ele><time>2026-05-01T11:43:08.001Z</time></trkpt><trkpt lat="43.54617341334852" lon="12.605242173817187"><ele>322.0</ele><time>2026-05-01T11:43:09.001Z</time></trkpt><trkpt lat="43.54628385692614" lon="12.605229354920755"><ele>322.0</ele><time>2026-05-01T11:43:10.001Z</time></trkpt><trkpt lat="43.54639262042646" lon="12.605218465116383"><ele>321.6</ele><time>2026-05-01T11:43:11.001Z</time></trkpt><trkpt lat="43.54649973419411" lon="12.605208169196066"><ele>321.20000000000005</ele><time>2026-05-01T11:43:12.002Z</time></trkpt><trkpt lat="43.546602222989435" lon="12.605200537797543"><ele>320.8</ele><time>2026-05-01T11:43:13.002Z</time></trkpt><trkpt lat="43.54668680312428" lon="12.605196878691366"><ele>320.4</ele><time>2026-05-01T11:43:14.002Z</time></trkpt><trkpt lat="43.546768258141626" lon="12.605197961327253"><ele>320.0</ele><time>2026-05-01T11:43:15.002Z</time></trkpt><trkpt lat="43.54684674241866" lon="12.605209046066443"><ele>320.0</ele><time>2026-05-01T11:43:16.002Z</time></trkpt><trkpt lat="43.54693337984635" lon="12.605227890948111"><ele>320.0</ele><time>2026-05-01T11:43:17.002Z</time></trkpt><trkpt lat="43.547021521129196" lon="12.60525487282181"><ele>320.0</ele><time>2026-05-01T11:43:18.002Z</time></trkpt><trkpt lat="43.547117163260744" lon="12.605288758609813"><ele>320.0</ele><time>2026-05-01T11:43:19.002Z</time></trkpt><trkpt lat="43.54721747022137" lon="12.60532884367793"><ele>320.0</ele><time>2026-05-01T11:43:20.002Z</time></trkpt><trkpt lat="43.547321575914694" lon="12.60537727137242"><ele>319.25</ele><time>2026-05-01T11:43:21.002Z</time></trkpt><trkpt lat="43.54742783414633" lon="12.605433646812305"><ele>318.5</ele><time>2026-05-01T11:43:22.002Z</time></trkpt><trkpt lat="43.5475363466483" lon="12.605478214810333"><ele>317.75</ele><time>2026-05-01T11:43:23.002Z</time></trkpt><trkpt lat="43.54764196865128" lon="12.60555510419216"><ele>317.0</ele><time>2026-05-01T11:43:24.002Z</time></trkpt><trkpt lat="43.5477472767553" lon="12.60564975549694"><ele>317.0</ele><time>2026-05-01T11:43:25.002Z</time></trkpt><trkpt lat="43.54785243103789" lon="12.605752193667652"><ele>317.0</ele><time>2026-05-01T11:43:26.002Z</time></trkpt><trkpt lat="43.54796047479464" lon="12.605857371717399"><ele>317.0</ele><time>2026-05-01T11:43:27.002Z</time></trkpt><trkpt lat="43.54806448336601" lon="12.605965307346917"><ele>317.0</ele><time>2026-05-01T11:43:28.002Z</time></trkpt><trkpt lat="43.548162905680904" lon="12.606064526602458"><ele>317.4</ele><time>2026-05-01T11:43:29.002Z</time></trkpt><trkpt lat="43.54824867409252" lon="12.606155403939177"><ele>317.79999999999995</ele><time>2026-05-01T11:43:30.002Z</time></trkpt><trkpt lat="43.54832493097317" lon="12.606227285180355"><ele>318.2</ele><time>2026-05-01T11:43:31.002Z</time></trkpt><trkpt lat="43.54839971042677" lon="12.606300685704815"><ele>318.59999999999997</ele><time>2026-05-01T11:43:32.002Z</time></trkpt><trkpt lat="43.548470881884576" lon="12.606379265640994"><ele>319.0</ele><time>2026-05-01T11:43:33.002Z</time></trkpt><trkpt lat="43.54853303776152" lon="12.606460309222676"><ele>319.0</ele><time>2026-05-01T11:43:34.002Z</time></trkpt><trkpt lat="43.54858454163923" lon="12.606561836695198"><ele>319.0</ele><time>2026-05-01T11:43:35.002Z</time></trkpt><trkpt lat="43.54859100239319" lon="12.606686614642486"><ele>319.0</ele><time>2026-05-01T11:43:36.002Z</time></trkpt><trkpt lat="43.548568544164766" lon="12.606832243315973"><ele>319.0</ele><time>2026-05-01T11:43:37.002Z</time></trkpt><trkpt lat="43.54852446599231" lon="12.606993552299956"><ele>319.0</ele><time>2026-05-01T11:43:38.002Z</time></trkpt><trkpt lat="43.54848076955658" lon="12.607175892192721"><ele>320.0</ele><time>2026-05-01T11:43:39.002Z</time></trkpt><trkpt lat="43.548432064611326" lon="12.60737907906192"><ele>321.0</ele><time>2026-05-01T11:43:40.002Z</time></trkpt><trkpt lat="43.5483821402059" lon="12.607604048131348"><ele>322.0</ele><time>2026-05-01T11:43:41.002Z</time></trkpt><trkpt lat="43.54833617546263" lon="12.60781713102776"><ele>322.3333333333333</ele><time>2026-05-01T11:43:42Z</time></trkpt><trkpt lat="43.54829788915181" lon="12.608040021742976"><ele>322.6666666666667</ele><time>2026-05-01T11:43:43Z</time></trkpt><trkpt lat="43.54826129353066" lon="12.60825706961125"><ele>323.0</ele><time>2026-05-01T11:43:44Z</time></trkpt><trkpt lat="43.54823257521243" lon="12.608482315453152"><ele>322.33333333333337</ele><time>2026-05-01T11:43:45Z</time></trkpt><trkpt lat="43.548228909590016" lon="12.608710595240085"><ele>321.6666666666667</ele><time>2026-05-01T11:43:46Z</time></trkpt><trkpt lat="43.5482419510469" lon="12.608948002952296"><ele>321.0</ele><time>2026-05-01T11:43:47Z</time></trkpt><trkpt lat="43.54827229274313" lon="12.609193188137153"><ele>321.0</ele><time>2026-05-01T11:43:48Z</time></trkpt><trkpt lat="43.54831961786851" lon="12.609446125315323"><ele>321.0</ele><time>2026-05-01T11:43:49Z</time></trkpt><trkpt lat="43.54838548759504" lon="12.60970594806333"><ele>321.0</ele><time>2026-05-01T11:43:50Z</time></trkpt><trkpt lat="43.54847732404043" lon="12.609965805362483"><ele>323.5</ele><time>2026-05-01T11:43:51Z</time></trkpt><trkpt lat="43.54860014222119" lon="12.610231828856746"><ele>326.0</ele><time>2026-05-01T11:43:52Z</time></trkpt><trkpt lat="43.54874248013939" lon="12.610514023826706"><ele>326.0</ele><time>2026-05-01T11:43:53Z</time></trkpt><trkpt lat="43.54889879060862" lon="12.610807767788101"><ele>326.0</ele><time>2026-05-01T11:43:54Z</time></trkpt><trkpt lat="43.54904651491801" lon="12.611122363883903"><ele>320.0</ele><time>2026-05-01T11:43:55Z</time></trkpt><trkpt lat="43.549160206455326" lon="12.611416522056006"><ele>314.0</ele><time>2026-05-01T11:43:56Z</time></trkpt><trkpt lat="43.54929911014264" lon="12.611693262299395"><ele>314.0</ele><time>2026-05-01T11:43:57Z</time></trkpt><trkpt lat="43.54942771761337" lon="12.61195532193815"><ele>314.0</ele><time>2026-05-01T11:43:58Z</time></trkpt><trkpt lat="43.54954302187698" lon="12.612205354149868"><ele>314.0</ele><time>2026-05-01T11:43:59Z</time></trkpt><trkpt lat="43.54960551798131" lon="12.612472783127709"><ele>316.6666666666667</ele><time>2026-05-01T11:44:00Z</time></trkpt><trkpt lat="43.549658729663165" lon="12.612741189215305"><ele>319.3333333333333</ele><time>2026-05-01T11:44:01Z</time></trkpt><trkpt lat="43.54970603832643" lon="12.6130423742278"><ele>322.0</ele><time>2026-05-01T11:44:02Z</time></trkpt><trkpt lat="43.54975559835786" lon="12.61336158176953"><ele>317.5</ele><time>2026-05-01T11:44:03Z</time></trkpt><trkpt lat="43.549804240868006" lon="12.613687015148452"><ele>313.0</ele><time>2026-05-01T11:44:04Z</time></trkpt><trkpt lat="43.54986228458517" lon="12.613976695780813"><ele>313.0</ele><time>2026-05-01T11:44:05Z</time></trkpt><trkpt lat="43.549899720780516" lon="12.614243046335622"><ele>313.0</ele><time>2026-05-01T11:44:06Z</time></trkpt><trkpt lat="43.54993058059376" lon="12.614480086148317"><ele>313.0</ele><time>2026-05-01T11:44:07Z</time></trkpt><trkpt lat="43.5499570902322" lon="12.614702431932436"><ele>311.0</ele><time>2026-05-01T11:44:08Z</time></trkpt><trkpt lat="43.54997995831509" lon="12.614894361731498"><ele>309.0</ele><time>2026-05-01T11:44:09Z</time></trkpt><trkpt lat="43.549985445928606" lon="12.615084462002262"><ele>307.0</ele><time>2026-05-01T11:44:10Z</time></trkpt><trkpt lat="43.54993907144612" lon="12.61525105921815"><ele>305.0</ele><time>2026-05-01T11:44:11Z</time></trkpt><trkpt lat="43.54989228704475" lon="12.615395504916803"><ele>304.4</ele><time>2026-05-01T11:44:12Z</time></trkpt><trkpt lat="43.54985259281723" lon="12.615504316577919"><ele>303.8</ele><time>2026-05-01T11:44:13Z</time></trkpt><trkpt lat="43.54980440325606" lon="12.61562550530587"><ele>303.2</ele><time>2026-05-01T11:44:15.001Z</time></trkpt><trkpt lat="43.549922648717846" lon="12.615787746394947"><ele>302.6</ele><time>2026-05-01T11:44:18.001Z</time></trkpt><trkpt lat="43.55000784752566" lon="12.615805796259833"><ele>302.0</ele><time>2026-05-01T11:44:19.001Z</time></trkpt><trkpt lat="43.550085492594306" lon="12.61583321255263"><ele>302.0</ele><time>2026-05-01T11:44:20.001Z</time></trkpt><trkpt lat="43.55017243787741" lon="12.615861379158376"><ele>302.0</ele><time>2026-05-01T11:44:21.001Z</time></trkpt><trkpt lat="43.55026677579186" lon="12.61589236097175"><ele>302.0</ele><time>2026-05-01T11:44:22.001Z</time></trkpt><trkpt lat="43.55036167580547" lon="12.615916965589129"><ele>302.0</ele><time>2026-05-01T11:44:23.001Z</time></trkpt><trkpt lat="43.55043386395031" lon="12.615937059790232"><ele>302.0</ele><time>2026-05-01T11:44:24.001Z</time></trkpt><trkpt lat="43.55049964631572" lon="12.615950839969322"><ele>302.0</ele><time>2026-05-01T11:44:25.001Z</time></trkpt><trkpt lat="43.550586604954226" lon="12.616041727919468"><ele>304.6666666666667</ele><time>2026-05-01T11:44:27.001Z</time></trkpt><trkpt lat="43.55060373563705" lon="12.616163543193"><ele>307.33333333333337</ele><time>2026-05-01T11:44:29.001Z</time></trkpt><trkpt lat="43.55060401346367" lon="12.616329954738767"><ele>310.0</ele><time>2026-05-01T11:44:31.001Z</time></trkpt><trkpt lat="43.550591134475496" lon="12.61643458808699"><ele>312.6666666666667</ele><time>2026-05-01T11:44:32.001Z</time></trkpt><trkpt lat="43.550567257597415" lon="12.616540345164202"><ele>315.3333333333333</ele><time>2026-05-01T11:44:33.001Z</time></trkpt><trkpt lat="43.550526368832045" lon="12.616635225001813"><ele>318.0</ele><time>2026-05-01T11:44:34.001Z</time></trkpt><trkpt lat="43.55049261107792" lon="12.616727502714312"><ele>318.0</ele><time>2026-05-01T11:44:35.001Z</time></trkpt><trkpt lat="43.550478409855536" lon="12.616814533974487"><ele>318.0</ele><time>2026-05-01T11:44:36.001Z</time></trkpt><trkpt lat="43.55045724965475" lon="12.616917522240781"><ele>318.0</ele><time>2026-05-01T11:44:38.001Z</time></trkpt><trkpt lat="43.55053690168218" lon="12.616969556737502"><ele>318.0</ele><time>2026-05-01T11:44:40.001Z</time></trkpt><trkpt lat="43.55058950216949" lon="12.61691182283936"><ele>318.0</ele><time>2026-05-01T11:44:41.001Z</time></trkpt><trkpt lat="43.55059886023801" lon="12.616811211012749"><ele>318.0</ele><time>2026-05-01T11:44:42.001Z</time></trkpt><trkpt lat="43.55064941503741" lon="12.616671253743219"><ele>318.0</ele><time>2026-05-01T11:44:44.001Z</time></trkpt><trkpt lat="43.55071184354156" lon="12.616548990640258"><ele>318.0</ele><time>2026-05-01T11:44:46.001Z</time></trkpt><trkpt lat="43.5507730941079" lon="12.616435871792508"><ele>318.0</ele><time>2026-05-01T11:44:48.001Z</time></trkpt><trkpt lat="43.550861784506004" lon="12.616377223526195"><ele>318.0</ele><time>2026-05-01T11:44:50.001Z</time></trkpt><trkpt lat="43.55097074281342" lon="12.616376013963407"><ele>318.0</ele><time>2026-05-01T11:44:52.001Z</time></trkpt><trkpt lat="43.55103105378791" lon="12.616415790968471"><ele>318.0</ele><time>2026-05-01T11:44:53.001Z</time></trkpt><trkpt lat="43.551137919079025" lon="12.616398605073275"><ele>318.0</ele><time>2026-05-01T11:44:55.001Z</time></trkpt><trkpt lat="43.55117892702323" lon="12.616326733656999"><ele>318.0</ele><time>2026-05-01T11:44:56.001Z</time></trkpt><trkpt lat="43.55123704125844" lon="12.61622645907577"><ele>318.0</ele><time>2026-05-01T11:44:58.001Z</time></trkpt><trkpt lat="43.55129959707614" lon="12.6161441920893"><ele>318.0</ele><time>2026-05-01T11:45:00.001Z</time></trkpt><trkpt lat="43.55137362695492" lon="12.61606239372224"><ele>318.0</ele><time>2026-05-01T11:45:02.001Z</time></trkpt><trkpt lat="43.55146051512429" lon="12.616000196618751"><ele>320.0</ele><time>2026-05-01T11:45:04.001Z</time></trkpt><trkpt lat="43.55157120738103" lon="12.61593164996459"><ele>322.0</ele><time>2026-05-01T11:45:06.001Z</time></trkpt><trkpt lat="43.55167214069094" lon="12.615874523458736"><ele>324.0</ele><time>2026-05-01T11:45:08.001Z</time></trkpt><trkpt lat="43.55178114034885" lon="12.615811335992637"><ele>326.0</ele><time>2026-05-01T11:45:10.001Z</time></trkpt><trkpt lat="43.551836468696656" lon="12.615749184336293"><ele>328.0</ele><time>2026-05-01T11:45:11.001Z</time></trkpt><trkpt lat="43.5519055237722" lon="12.615706346660902"><ele>328.0</ele><time>2026-05-01T11:45:12.001Z</time></trkpt><trkpt lat="43.55197640704019" lon="12.61569503555555"><ele>328.0</ele><time>2026-05-01T11:45:13.001Z</time></trkpt><trkpt lat="43.55205450296279" lon="12.615702327672748"><ele>328.0</ele><time>2026-05-01T11:45:14.001Z</time></trkpt><trkpt lat="43.5521148075984" lon="12.615734034667648"><ele>328.0</ele><time>2026-05-01T11:45:15.001Z</time></trkpt><trkpt lat="43.55217907407845" lon="12.615765242169795"><ele>328.0</ele><time>2026-05-01T11:45:16.001Z</time></trkpt><trkpt lat="43.552255437170125" lon="12.615794153187732"><ele>328.0</ele><time>2026-05-01T11:45:17.001Z</time></trkpt><trkpt lat="43.552341591556754" lon="12.615821023157288"><ele>329.79999999999995</ele><time>2026-05-01T11:45:18.001Z</time></trkpt><trkpt lat="43.55243226270319" lon="12.615830965495531"><ele>331.6</ele><time>2026-05-01T11:45:19.001Z</time></trkpt><trkpt lat="43.55253413248756" lon="12.615857792717394"><ele>333.4</ele><time>2026-05-01T11:45:20.001Z</time></trkpt><trkpt lat="43.55263419699892" lon="12.615844414297595"><ele>335.20000000000005</ele><time>2026-05-01T11:45:21.001Z</time></trkpt><trkpt lat="43.55274009106401" lon="12.615810346836554"><ele>337.0</ele><time>2026-05-01T11:45:22.001Z</time></trkpt><trkpt lat="43.55283409886668" lon="12.615763538339476"><ele>337.20000000000005</ele><time>2026-05-01T11:45:23.001Z</time></trkpt><trkpt lat="43.55291609775505" lon="12.615714697974676"><ele>337.4</ele><time>2026-05-01T11:45:24.001Z</time></trkpt><trkpt lat="43.55300837374107" lon="12.615653183779102"><ele>337.6</ele><time>2026-05-01T11:45:25.001Z</time></trkpt><trkpt lat="43.55309509002731" lon="12.615571413395672"><ele>337.79999999999995</ele><time>2026-05-01T11:45:26.002Z</time></trkpt><trkpt lat="43.55317905117092" lon="12.615443512276466"><ele>338.0</ele><time>2026-05-01T11:45:27.002Z</time></trkpt><trkpt lat="43.55325996743958" lon="12.615284821721273"><ele>338.0</ele><time>2026-05-01T11:45:28.002Z</time></trkpt><trkpt lat="43.5533603980314" lon="12.615138919204698"><ele>338.0</ele><time>2026-05-01T11:45:29.002Z</time></trkpt><trkpt lat="43.55347116851903" lon="12.61502822997391"><ele>338.0</ele><time>2026-05-01T11:45:30.002Z</time></trkpt><trkpt lat="43.55356312651258" lon="12.614934429016715"><ele>338.0</ele><time>2026-05-01T11:45:31.002Z</time></trkpt><trkpt lat="43.553641634211154" lon="12.61485733089938"><ele>338.79999999999995</ele><time>2026-05-01T11:45:32.002Z</time></trkpt><trkpt lat="43.55372172922485" lon="12.614774780656838"><ele>339.6</ele><time>2026-05-01T11:45:33.002Z</time></trkpt><trkpt lat="43.55378457696779" lon="12.614674127788357"><ele>340.4</ele><time>2026-05-01T11:45:34.002Z</time></trkpt><trkpt lat="43.553866623871485" lon="12.614615062352646"><ele>341.20000000000005</ele><time>2026-05-01T11:45:35.002Z</time></trkpt><trkpt lat="43.553953132030934" lon="12.614545057280777"><ele>342.0</ele><time>2026-05-01T11:45:36.002Z</time></trkpt><trkpt lat="43.554038419075916" lon="12.614478898175983"><ele>342.0</ele><time>2026-05-01T11:45:37.002Z</time></trkpt><trkpt lat="43.55410601316806" lon="12.614426463848902"><ele>342.0</ele><time>2026-05-01T11:45:38.002Z</time></trkpt><trkpt lat="43.55420732461105" lon="12.614357436084811"><ele>342.0</ele><time>2026-05-01T11:45:40.002Z</time></trkpt><trkpt lat="43.554313265018344" lon="12.614381931447227"><ele>342.0</ele><time>2026-05-01T11:45:42.002Z</time></trkpt><trkpt lat="43.55439170832456" lon="12.614374392675574"><ele>342.0</ele><time>2026-05-01T11:45:44.002Z</time></trkpt><trkpt lat="43.554459926125524" lon="12.614298032732462"><ele>342.0</ele><time>2026-05-01T11:45:46.002Z</time></trkpt><trkpt lat="43.554463576293735" lon="12.614145854579876"><ele>342.0</ele><time>2026-05-01T11:45:48Z</time></trkpt><trkpt lat="43.55447371448109" lon="12.614044655434903"><ele>342.0</ele><time>2026-05-01T11:45:49Z</time></trkpt><trkpt lat="43.5544765317263" lon="12.613951975894546"><ele>342.0</ele><time>2026-05-01T11:45:50Z</time></trkpt><trkpt lat="43.554467386575055" lon="12.613865802573264"><ele>342.0</ele><time>2026-05-01T11:45:51Z</time></trkpt><trkpt lat="43.554510247312386" lon="12.613699859536643"><ele>342.0</ele><time>2026-05-01T11:45:53Z</time></trkpt><trkpt lat="43.55452537277267" lon="12.613609563183676"><ele>345.0</ele><time>2026-05-01T11:45:54Z</time></trkpt><trkpt lat="43.55457481248163" lon="12.613540006426653"><ele>348.0</ele><time>2026-05-01T11:45:55Z</time></trkpt><trkpt lat="43.5546049266688" lon="12.613441135311332"><ele>351.0</ele><time>2026-05-01T11:45:56Z</time></trkpt><trkpt lat="43.55465870921144" lon="12.613367352103852"><ele>354.0</ele><time>2026-05-01T11:45:57Z</time></trkpt><trkpt lat="43.55469006233547" lon="12.613265120629206"><ele>357.0</ele><time>2026-05-01T11:45:58Z</time></trkpt><trkpt lat="43.55474548472853" lon="12.613168250517313"><ele>360.0</ele><time>2026-05-01T11:45:59Z</time></trkpt><trkpt lat="43.55480715361347" lon="12.613113936848455"><ele>360.0</ele><time>2026-05-01T11:46:00Z</time></trkpt><trkpt lat="43.554857145909416" lon="12.613056865929707"><ele>360.0</ele><time>2026-05-01T11:46:01Z</time></trkpt><trkpt lat="43.55489675947089" lon="12.612986403707145"><ele>360.0</ele><time>2026-05-01T11:46:02Z</time></trkpt><trkpt lat="43.55500958696455" lon="12.612927599714359"><ele>360.0</ele><time>2026-05-01T11:46:04Z</time></trkpt><trkpt lat="43.55505990560003" lon="12.612870426076183"><ele>360.0</ele><time>2026-05-01T11:46:05Z</time></trkpt><trkpt lat="43.55515874371995" lon="12.612781543317979"><ele>360.0</ele><time>2026-05-01T11:46:07Z</time></trkpt><trkpt lat="43.555232074440625" lon="12.612657824083598"><ele>358.4</ele><time>2026-05-01T11:46:09Z</time></trkpt><trkpt lat="43.55527878032231" lon="12.61250893655465"><ele>356.8</ele><time>2026-05-01T11:46:11Z</time></trkpt><trkpt lat="43.55527215021435" lon="12.612408978221715"><ele>355.20000000000005</ele><time>2026-05-01T11:46:12Z</time></trkpt><trkpt lat="43.55526904678288" lon="12.612268087599455"><ele>353.6</ele><time>2026-05-01T11:46:14Z</time></trkpt><trkpt lat="43.55529178806263" lon="12.612158878755226"><ele>352.0</ele><time>2026-05-01T11:46:16Z</time></trkpt><trkpt lat="43.55540210072551" lon="12.612112676816896"><ele>355.40000000000003</ele><time>2026-05-01T11:46:18Z</time></trkpt><trkpt lat="43.5554762933049" lon="12.612078615345979"><ele>358.8</ele><time>2026-05-01T11:46:19Z</time></trkpt><trkpt lat="43.55557388812866" lon="12.612038281342047"><ele>362.2</ele><time>2026-05-01T11:46:20Z</time></trkpt><trkpt lat="43.55568771205281" lon="12.61198207191625"><ele>365.6</ele><time>2026-05-01T11:46:21Z</time></trkpt><trkpt lat="43.55579022901535" lon="12.611905347029492"><ele>369.0</ele><time>2026-05-01T11:46:22Z</time></trkpt><trkpt lat="43.55588359762967" lon="12.611796017132145"><ele>369.0</ele><time>2026-05-01T11:46:23Z</time></trkpt><trkpt lat="43.55598247936667" lon="12.611730132626887"><ele>369.0</ele><time>2026-05-01T11:46:24Z</time></trkpt><trkpt lat="43.5560493892235" lon="12.611672737393011"><ele>369.0</ele><time>2026-05-01T11:46:25Z</time></trkpt><trkpt lat="43.55611347686102" lon="12.611630678214677"><ele>369.0</ele><time>2026-05-01T11:46:26Z</time></trkpt><trkpt lat="43.556179568930425" lon="12.611619661795881"><ele>369.0</ele><time>2026-05-01T11:46:27Z</time></trkpt><trkpt lat="43.5562726867878" lon="12.61161301454264"><ele>369.0</ele><time>2026-05-01T11:46:28Z</time></trkpt><trkpt lat="43.55637536366931" lon="12.61156471914374"><ele>370.79999999999995</ele><time>2026-05-01T11:46:29Z</time></trkpt><trkpt lat="43.556472701860166" lon="12.611513494648069"><ele>372.59999999999997</ele><time>2026-05-01T11:46:30Z</time></trkpt><trkpt lat="43.55655559108768" lon="12.611479808083681"><ele>374.4</ele><time>2026-05-01T11:46:31Z</time></trkpt><trkpt lat="43.55663514344336" lon="12.611454702004417"><ele>376.2</ele><time>2026-05-01T11:46:32Z</time></trkpt><trkpt lat="43.55671072056434" lon="12.611439355617806"><ele>378.0</ele><time>2026-05-01T11:46:33Z</time></trkpt><trkpt lat="43.55682108750989" lon="12.611444165149804"><ele>378.0</ele><time>2026-05-01T11:46:35.001Z</time></trkpt><trkpt lat="43.556913780336366" lon="12.611511921964004"><ele>378.0</ele><time>2026-05-01T11:46:37.001Z</time></trkpt><trkpt lat="43.556968341615864" lon="12.611565457960976"><ele>378.0</ele><time>2026-05-01T11:46:38.001Z</time></trkpt><trkpt lat="43.55703960283028" lon="12.611614956782821"><ele>378.0</ele><time>2026-05-01T11:46:39.001Z</time></trkpt><trkpt lat="43.55712415979536" lon="12.611659643022591"><ele>378.0</ele><time>2026-05-01T11:46:40.001Z</time></trkpt><trkpt lat="43.55720898923348" lon="12.611691777288119"><ele>378.0</ele><time>2026-05-01T11:46:41.001Z</time></trkpt><trkpt lat="43.55729337097058" lon="12.611715194314652"><ele>378.59999999999997</ele><time>2026-05-01T11:46:42.001Z</time></trkpt><trkpt lat="43.55738186810927" lon="12.611735479658499"><ele>379.2</ele><time>2026-05-01T11:46:43.001Z</time></trkpt><trkpt lat="43.557476209962296" lon="12.611754483458768"><ele>379.8</ele><time>2026-05-01T11:46:44.001Z</time></trkpt><trkpt lat="43.557569119500535" lon="12.61174856020792"><ele>380.4</ele><time>2026-05-01T11:46:45.001Z</time></trkpt><trkpt lat="43.557659474042104" lon="12.611763631899455"><ele>381.0</ele><time>2026-05-01T11:46:46.001Z</time></trkpt><trkpt lat="43.557767177618246" lon="12.61176417484523"><ele>382.75</ele><time>2026-05-01T11:46:47.001Z</time></trkpt><trkpt lat="43.557904817242616" lon="12.61176560313972"><ele>384.5</ele><time>2026-05-01T11:46:48.001Z</time></trkpt><trkpt lat="43.558058720910935" lon="12.611750686764918"><ele>386.25</ele><time>2026-05-01T11:46:49.001Z</time></trkpt><trkpt lat="43.558214008034675" lon="12.61174460187207"><ele>388.0</ele><time>2026-05-01T11:46:50.001Z</time></trkpt><trkpt lat="43.55834987969709" lon="12.61175191429806"><ele>388.0</ele><time>2026-05-01T11:46:51.001Z</time></trkpt><trkpt lat="43.55846564701745" lon="12.611754987128135"><ele>388.0</ele><time>2026-05-01T11:46:52.001Z</time></trkpt><trkpt lat="43.558583182928736" lon="12.61175100364125"><ele>388.0</ele><time>2026-05-01T11:46:53.001Z</time></trkpt><trkpt lat="43.55870910702098" lon="12.611738318906701"><ele>388.0</ele><time>2026-05-01T11:46:54.001Z</time></trkpt><trkpt lat="43.55884258778781" lon="12.611710074103819"><ele>390.25</ele><time>2026-05-01T11:46:55.001Z</time></trkpt><trkpt lat="43.558982892340474" lon="12.611694601432907"><ele>392.5</ele><time>2026-05-01T11:46:56.001Z</time></trkpt><trkpt lat="43.55912067377164" lon="12.611616934655233"><ele>394.75</ele><time>2026-05-01T11:46:57.001Z</time></trkpt><trkpt lat="43.55927137137875" lon="12.611555342755624"><ele>397.0</ele><time>2026-05-01T11:46:58.001Z</time></trkpt><trkpt lat="43.55942686815372" lon="12.611485353973086"><ele>401.0</ele><time>2026-05-01T11:46:59.001Z</time></trkpt><trkpt lat="43.55956201971377" lon="12.61142184581582"><ele>405.0</ele><time>2026-05-01T11:47:00.001Z</time></trkpt><trkpt lat="43.55968498605197" lon="12.611386252505573"><ele>409.0</ele><time>2026-05-01T11:47:01.001Z</time></trkpt><trkpt lat="43.55979773875666" lon="12.611333655906803"><ele>413.0</ele><time>2026-05-01T11:47:02.001Z</time></trkpt><trkpt lat="43.55991651271936" lon="12.611265340686305"><ele>413.0</ele><time>2026-05-01T11:47:03.001Z</time></trkpt><trkpt lat="43.560054822465496" lon="12.611220694193909"><ele>413.0</ele><time>2026-05-01T11:47:04.001Z</time></trkpt><trkpt lat="43.56020435614967" lon="12.611208131455713"><ele>413.0</ele><time>2026-05-01T11:47:05.001Z</time></trkpt><trkpt lat="43.56036380441195" lon="12.611163978432257"><ele>409.3333333333333</ele><time>2026-05-01T11:47:06.001Z</time></trkpt><trkpt lat="43.5605257462785" lon="12.61109023522022"><ele>405.66666666666663</ele><time>2026-05-01T11:47:07.001Z</time></trkpt><trkpt lat="43.56069776463415" lon="12.611035952469173"><ele>402.0</ele><time>2026-05-01T11:47:08.001Z</time></trkpt><trkpt lat="43.56085391964994" lon="12.61097678656311"><ele>402.0</ele><time>2026-05-01T11:47:09.001Z</time></trkpt><trkpt lat="43.560990946552025" lon="12.61092174146953"><ele>402.0</ele><time>2026-05-01T11:47:10.001Z</time></trkpt><trkpt lat="43.561103418024466" lon="12.610875521656695"><ele>402.0</ele><time>2026-05-01T11:47:11.001Z</time></trkpt><trkpt lat="43.56120478873884" lon="12.610851245051796"><ele>402.0</ele><time>2026-05-01T11:47:12.001Z</time></trkpt><trkpt lat="43.561288613435984" lon="12.610815669414915"><ele>403.0</ele><time>2026-05-01T11:47:13.001Z</time></trkpt><trkpt lat="43.561361295607554" lon="12.610786920709286"><ele>404.0</ele><time>2026-05-01T11:47:14.001Z</time></trkpt><trkpt lat="43.561428002435065" lon="12.610762165303035"><ele>405.0</ele><time>2026-05-01T11:47:15.001Z</time></trkpt><trkpt lat="43.56150970223307" lon="12.610746196063808"><ele>406.0</ele><time>2026-05-01T11:47:17.001Z</time></trkpt><trkpt lat="43.56158162912441" lon="12.610768923702166"><ele>407.0</ele><time>2026-05-01T11:47:19.001Z</time></trkpt><trkpt lat="43.56163815896434" lon="12.610857242620328"><ele>408.0</ele><time>2026-05-01T11:47:21.001Z</time></trkpt><trkpt lat="43.56168813521053" lon="12.61096380515588"><ele>408.0</ele><time>2026-05-01T11:47:23.001Z</time></trkpt><trkpt lat="43.56172601808374" lon="12.611041415923092"><ele>408.0</ele><time>2026-05-01T11:47:24.001Z</time></trkpt><trkpt lat="43.5617685587851" lon="12.611111725379063"><ele>408.0</ele><time>2026-05-01T11:47:25.001Z</time></trkpt><trkpt lat="43.56182534587758" lon="12.611165863652388"><ele>408.0</ele><time>2026-05-01T11:47:26.001Z</time></trkpt><trkpt lat="43.56188764755157" lon="12.611187810238034"><ele>408.0</ele><time>2026-05-01T11:47:27.001Z</time></trkpt><trkpt lat="43.56195521917182" lon="12.61124897022671"><ele>408.0</ele><time>2026-05-01T11:47:28.001Z</time></trkpt><trkpt lat="43.5620330461632" lon="12.611296915085521"><ele>408.0</ele><time>2026-05-01T11:47:29.001Z</time></trkpt><trkpt lat="43.56212799335334" lon="12.611350407573413"><ele>409.59999999999997</ele><time>2026-05-01T11:47:30.001Z</time></trkpt><trkpt lat="43.562232723566325" lon="12.611387666047166"><ele>411.2</ele><time>2026-05-01T11:47:31.001Z</time></trkpt><trkpt lat="43.56232604775881" lon="12.611462981813679"><ele>412.8</ele><time>2026-05-01T11:47:32.001Z</time></trkpt><trkpt lat="43.562423408655526" lon="12.61153427818867"><ele>414.4</ele><time>2026-05-01T11:47:33.001Z</time></trkpt><trkpt lat="43.56250666727631" lon="12.611626296530126"><ele>416.0</ele><time>2026-05-01T11:47:34.001Z</time></trkpt><trkpt lat="43.56260495376661" lon="12.611691303352803"><ele>415.99999999999994</ele><time>2026-05-01T11:47:35.001Z</time></trkpt><trkpt lat="43.562677277066626" lon="12.611781300554693"><ele>416.0</ele><time>2026-05-01T11:47:36.001Z</time></trkpt><trkpt lat="43.56275858170028" lon="12.61184512883701"><ele>416.0</ele><time>2026-05-01T11:47:37.001Z</time></trkpt><trkpt lat="43.56282068136885" lon="12.611887223363562"><ele>416.0</ele><time>2026-05-01T11:47:38.001Z</time></trkpt><trkpt lat="43.56289175580057" lon="12.611899744812666"><ele>415.99999999999994</ele><time>2026-05-01T11:47:39.001Z</time></trkpt><trkpt lat="43.56295519802789" lon="12.611889290071254"><ele>416.0</ele><time>2026-05-01T11:47:40.001Z</time></trkpt><trkpt lat="43.56301767196586" lon="12.611866890302107"><ele>418.0</ele><time>2026-05-01T11:47:41.001Z</time></trkpt><trkpt lat="43.563093659208775" lon="12.611850268385718"><ele>420.0</ele><time>2026-05-01T11:47:42.001Z</time></trkpt><trkpt lat="43.56317683116669" lon="12.611751814182787"><ele>422.0</ele><time>2026-05-01T11:47:43.001Z</time></trkpt><trkpt lat="43.56325991315131" lon="12.611685650964295"><ele>424.0</ele><time>2026-05-01T11:47:44.001Z</time></trkpt><trkpt lat="43.56332560736264" lon="12.611645655257583"><ele>426.0</ele><time>2026-05-01T11:47:45.001Z</time></trkpt><trkpt lat="43.56344596735637" lon="12.611673117652018"><ele>426.0</ele><time>2026-05-01T11:47:47.001Z</time></trkpt><trkpt lat="43.56352611081817" lon="12.611672562086559"><ele>426.0</ele><time>2026-05-01T11:47:48.001Z</time></trkpt><trkpt lat="43.563622260242376" lon="12.611697611600114"><ele>426.0</ele><time>2026-05-01T11:47:49.002Z</time></trkpt><trkpt lat="43.56375084045774" lon="12.611750051072844"><ele>426.0</ele><time>2026-05-01T11:47:50.002Z</time></trkpt><trkpt lat="43.563871885780515" lon="12.611777441120351"><ele>426.0</ele><time>2026-05-01T11:47:51.002Z</time></trkpt><trkpt lat="43.563965465347415" lon="12.611798726011891"><ele>427.0</ele><time>2026-05-01T11:47:52.002Z</time></trkpt><trkpt lat="43.56404475481271" lon="12.611843377698804"><ele>428.0</ele><time>2026-05-01T11:47:53.002Z</time></trkpt><trkpt lat="43.56411804364585" lon="12.611857278034822"><ele>429.0</ele><time>2026-05-01T11:47:54Z</time></trkpt><trkpt lat="43.56421403800422" lon="12.611839784395434"><ele>430.0</ele><time>2026-05-01T11:47:56Z</time></trkpt><trkpt lat="43.56427241918267" lon="12.611743195038143"><ele>431.0</ele><time>2026-05-01T11:47:58Z</time></trkpt><trkpt lat="43.56429457300437" lon="12.611630573831468"><ele>432.0</ele><time>2026-05-01T11:48:00Z</time></trkpt><trkpt lat="43.56414340221891" lon="12.61145454715128"><ele>432.0</ele><time>2026-05-01T11:48:02Z</time></trkpt><trkpt lat="43.564090249167386" lon="12.611399141446272"><ele>432.0</ele><time>2026-05-01T11:48:03Z</time></trkpt><trkpt lat="43.564052708278645" lon="12.611321639409287"><ele>432.0</ele><time>2026-05-01T11:48:04Z</time></trkpt><trkpt lat="43.56401287643893" lon="12.611146571790538"><ele>432.0</ele><time>2026-05-01T11:48:06Z</time></trkpt><trkpt lat="43.56401074904853" lon="12.611057860761877"><ele>432.0</ele><time>2026-05-01T11:48:07Z</time></trkpt><trkpt lat="43.56400996433041" lon="12.61096003990285"><ele>432.0</ele><time>2026-05-01T11:48:08Z</time></trkpt><trkpt lat="43.56402579843025" lon="12.610858607950721"><ele>432.1666666666667</ele><time>2026-05-01T11:48:09Z</time></trkpt><trkpt lat="43.56405067011339" lon="12.610751713322616"><ele>432.33333333333337</ele><time>2026-05-01T11:48:10Z</time></trkpt><trkpt lat="43.564085847626714" lon="12.610662841082995"><ele>432.5</ele><time>2026-05-01T11:48:11Z</time></trkpt><trkpt lat="43.564130856825365" lon="12.61060041906586"><ele>432.6666666666667</ele><time>2026-05-01T11:48:12Z</time></trkpt><trkpt lat="43.564230934558125" lon="12.610489335437647"><ele>432.83333333333337</ele><time>2026-05-01T11:48:14Z</time></trkpt><trkpt lat="43.56428137564455" lon="12.61042999255524"><ele>433.0</ele><time>2026-05-01T11:48:15Z</time></trkpt><trkpt lat="43.56433624311124" lon="12.610371268558156"><ele>431.79999999999995</ele><time>2026-05-01T11:48:16Z</time></trkpt><trkpt lat="43.564395715707796" lon="12.610309215467277"><ele>430.59999999999997</ele><time>2026-05-01T11:48:17Z</time></trkpt><trkpt lat="43.564456863622354" lon="12.610236687632792"><ele>429.40000000000003</ele><time>2026-05-01T11:48:18Z</time></trkpt><trkpt lat="43.56452905481079" lon="12.610149433878698"><ele>428.20000000000005</ele><time>2026-05-01T11:48:19Z</time></trkpt><trkpt lat="43.56461840013601" lon="12.610039848033173"><ele>427.0</ele><time>2026-05-01T11:48:20Z</time></trkpt><trkpt lat="43.56472054904892" lon="12.60991554545837"><ele>432.25</ele><time>2026-05-01T11:48:21Z</time></trkpt><trkpt lat="43.564812757422644" lon="12.609806975180858"><ele>437.5</ele><time>2026-05-01T11:48:22Z</time></trkpt><trkpt lat="43.5649005280298" lon="12.609705096783314"><ele>442.75</ele><time>2026-05-01T11:48:23Z</time></trkpt><trkpt lat="43.56499045651271" lon="12.609619371627108"><ele>448.0</ele><time>2026-05-01T11:48:24Z</time></trkpt><trkpt lat="43.56508646746737" lon="12.609525792078777"><ele>449.59999999999997</ele><time>2026-05-01T11:48:25Z</time></trkpt><trkpt lat="43.56518783229041" lon="12.609431911913601"><ele>451.19999999999993</ele><time>2026-05-01T11:48:26Z</time></trkpt><trkpt lat="43.56527892660064" lon="12.609347537178172"><ele>452.8</ele><time>2026-05-01T11:48:27Z</time></trkpt><trkpt lat="43.56535317575643" lon="12.609267126343052"><ele>454.4</ele><time>2026-05-01T11:48:28Z</time></trkpt><trkpt lat="43.56541215526771" lon="12.60920177212068"><ele>456.0</ele><time>2026-05-01T11:48:29Z</time></trkpt><trkpt lat="43.56549946919533" lon="12.609125269526796"><ele>456.0</ele><time>2026-05-01T11:48:31Z</time></trkpt><trkpt lat="43.56559325383345" lon="12.609041395035888"><ele>456.0</ele><time>2026-05-01T11:48:33Z</time></trkpt><trkpt lat="43.56565481190624" lon="12.608982432291874"><ele>456.0</ele><time>2026-05-01T11:48:34Z</time></trkpt><trkpt lat="43.565734023337676" lon="12.608913024705902"><ele>456.0</ele><time>2026-05-01T11:48:35Z</time></trkpt><trkpt lat="43.56580738980751" lon="12.608842821954944"><ele>456.0</ele><time>2026-05-01T11:48:36Z</time></trkpt><trkpt lat="43.565882173176334" lon="12.608764224742774"><ele>456.0</ele><time>2026-05-01T11:48:37Z</time></trkpt><trkpt lat="43.565941515600244" lon="12.6086936528796"><ele>456.0</ele><time>2026-05-01T11:48:38Z</time></trkpt><trkpt lat="43.56599522954163" lon="12.608626065174134"><ele>456.0</ele><time>2026-05-01T11:48:39Z</time></trkpt><trkpt lat="43.56603478310456" lon="12.608554444927424"><ele>456.0</ele><time>2026-05-01T11:48:40Z</time></trkpt><trkpt lat="43.56608712755338" lon="12.608450662390927"><ele>456.0</ele><time>2026-05-01T11:48:41Z</time></trkpt><trkpt lat="43.56614938445746" lon="12.608345927646276"><ele>456.0</ele><time>2026-05-01T11:48:42Z</time></trkpt><trkpt lat="43.56619522464326" lon="12.608274663349556"><ele>460.0</ele><time>2026-05-01T11:48:43Z</time></trkpt><trkpt lat="43.56625062252516" lon="12.608210377647726"><ele>464.0</ele><time>2026-05-01T11:48:44Z</time></trkpt><trkpt lat="43.56631151015493" lon="12.608142052988775"><ele>468.0</ele><time>2026-05-01T11:48:45Z</time></trkpt><trkpt lat="43.56638838763931" lon="12.608086241974831"><ele>472.0</ele><time>2026-05-01T11:48:46Z</time></trkpt><trkpt lat="43.56647346083902" lon="12.608010161507208"><ele>476.0</ele><time>2026-05-01T11:48:47Z</time></trkpt><trkpt lat="43.56656997343459" lon="12.607927826186332"><ele>475.99999999999994</ele><time>2026-05-01T11:48:48Z</time></trkpt><trkpt lat="43.5666499450329" lon="12.607865243504575"><ele>476.0</ele><time>2026-05-01T11:48:49Z</time></trkpt><trkpt lat="43.5667037302868" lon="12.607808137699884"><ele>476.0</ele><time>2026-05-01T11:48:50Z</time></trkpt><trkpt lat="43.56677149198525" lon="12.6077503814864"><ele>476.0</ele><time>2026-05-01T11:48:51Z</time></trkpt><trkpt lat="43.56683607995698" lon="12.607693594170835"><ele>475.99999999999994</ele><time>2026-05-01T11:48:52Z</time></trkpt><trkpt lat="43.56689535041826" lon="12.607635374678166"><ele>476.0</ele><time>2026-05-01T11:48:53Z</time></trkpt><trkpt lat="43.56698054113315" lon="12.607517861281034"><ele>474.0</ele><time>2026-05-01T11:48:55.001Z</time></trkpt><trkpt lat="43.567017216420666" lon="12.607329307916135"><ele>472.0</ele><time>2026-05-01T11:48:57.001Z</time></trkpt><trkpt lat="43.567040504139264" lon="12.607222665702931"><ele>470.0</ele><time>2026-05-01T11:48:58.001Z</time></trkpt><trkpt lat="43.567072805025425" lon="12.60710447156631"><ele>468.0</ele><time>2026-05-01T11:48:59.001Z</time></trkpt><trkpt lat="43.56712288240721" lon="12.606973519902013"><ele>466.0</ele><time>2026-05-01T11:49:00.001Z</time></trkpt><trkpt lat="43.56718425245434" lon="12.606841149453235"><ele>470.50000000000006</ele><time>2026-05-01T11:49:01.001Z</time></trkpt><trkpt lat="43.567239854445006" lon="12.60672493516645"><ele>475.0</ele><time>2026-05-01T11:49:02.001Z</time></trkpt><trkpt lat="43.56730055322566" lon="12.606622754597268"><ele>479.5</ele><time>2026-05-01T11:49:03.001Z</time></trkpt><trkpt lat="43.56736021822849" lon="12.606523782245207"><ele>484.0</ele><time>2026-05-01T11:49:04.001Z</time></trkpt><trkpt lat="43.5674125700341" lon="12.60644078092251"><ele>488.50000000000006</ele><time>2026-05-01T11:49:05.001Z</time></trkpt><trkpt lat="43.56746073598349" lon="12.606363370534915"><ele>493.0</ele><time>2026-05-01T11:49:06.001Z</time></trkpt><trkpt lat="43.56750696723994" lon="12.60629558866952"><ele>493.00000000000006</ele><time>2026-05-01T11:49:07.001Z</time></trkpt><trkpt lat="43.567552276822276" lon="12.606226951838302"><ele>493.0</ele><time>2026-05-01T11:49:08.001Z</time></trkpt><trkpt lat="43.567602862212325" lon="12.60616270282066"><ele>493.0</ele><time>2026-05-01T11:49:09.001Z</time></trkpt><trkpt lat="43.56766114265218" lon="12.606103738929912"><ele>493.0</ele><time>2026-05-01T11:49:10.001Z</time></trkpt><trkpt lat="43.5677192505329" lon="12.606028674106938"><ele>493.00000000000006</ele><time>2026-05-01T11:49:11.001Z</time></trkpt><trkpt lat="43.56778908363184" lon="12.605910705583602"><ele>493.0</ele><time>2026-05-01T11:49:12.001Z</time></trkpt><trkpt lat="43.56789977182123" lon="12.605846031886552"><ele>498.0</ele><time>2026-05-01T11:49:13.001Z</time></trkpt><trkpt lat="43.568020157964924" lon="12.605739841438917"><ele>503.0</ele><time>2026-05-01T11:49:14.001Z</time></trkpt><trkpt lat="43.56812199524224" lon="12.605641886001802"><ele>508.0</ele><time>2026-05-01T11:49:15.001Z</time></trkpt><trkpt lat="43.56821215612053" lon="12.60554415849772"><ele>513.0</ele><time>2026-05-01T11:49:16.001Z</time></trkpt><trkpt lat="43.56830841295647" lon="12.605420562927774"><ele>509.79999999999995</ele><time>2026-05-01T11:49:17.001Z</time></trkpt><trkpt lat="43.56840477055531" lon="12.605288108543007"><ele>506.59999999999997</ele><time>2026-05-01T11:49:18.001Z</time></trkpt><trkpt lat="43.568486825991904" lon="12.605178025300685"><ele>503.40000000000003</ele><time>2026-05-01T11:49:19.001Z</time></trkpt><trkpt lat="43.56854998673923" lon="12.60509062722653"><ele>500.20000000000005</ele><time>2026-05-01T11:49:20.001Z</time></trkpt><trkpt lat="43.56863135147914" lon="12.605075681572453"><ele>497.0</ele><time>2026-05-01T11:49:21.001Z</time></trkpt><trkpt lat="43.568698911135506" lon="12.605028180535834"><ele>502.8</ele><time>2026-05-01T11:49:22.001Z</time></trkpt><trkpt lat="43.568755035706594" lon="12.604978630694358"><ele>508.6</ele><time>2026-05-01T11:49:23.001Z</time></trkpt><trkpt lat="43.568819494111686" lon="12.604864850893131"><ele>514.4000000000001</ele><time>2026-05-01T11:49:25.001Z</time></trkpt><trkpt lat="43.56880620959135" lon="12.60471370737301"><ele>520.2</ele><time>2026-05-01T11:49:27.001Z</time></trkpt><trkpt lat="43.5688103592603" lon="12.604568843411228"><ele>526.0</ele><time>2026-05-01T11:49:29.001Z</time></trkpt><trkpt lat="43.568798844621334" lon="12.604461987178865"><ele>526.0</ele><time>2026-05-01T11:49:30.001Z</time></trkpt><trkpt lat="43.568786232987016" lon="12.604346905980755"><ele>526.0</ele><time>2026-05-01T11:49:31.001Z</time></trkpt><trkpt lat="43.56876566651711" lon="12.60422699194131"><ele>526.0</ele><time>2026-05-01T11:49:32.001Z</time></trkpt><trkpt lat="43.56874848711623" lon="12.604119941349607"><ele>526.0</ele><time>2026-05-01T11:49:33.001Z</time></trkpt><trkpt lat="43.56876820868461" lon="12.603946307306392"><ele>526.0</ele><time>2026-05-01T11:49:35.001Z</time></trkpt><trkpt lat="43.568770958693975" lon="12.603849777702342"><ele>526.0</ele><time>2026-05-01T11:49:36.001Z</time></trkpt><trkpt lat="43.5688280385429" lon="12.603771572615456"><ele>526.0</ele><time>2026-05-01T11:49:37.001Z</time></trkpt><trkpt lat="43.56885809150776" lon="12.603654734618946"><ele>526.0</ele><time>2026-05-01T11:49:38.001Z</time></trkpt><trkpt lat="43.56886272153359" lon="12.603506439557135"><ele>526.0</ele><time>2026-05-01T11:49:39.001Z</time></trkpt><trkpt lat="43.568897942880874" lon="12.603369217443694"><ele>526.0</ele><time>2026-05-01T11:49:40.001Z</time></trkpt><trkpt lat="43.568919421669904" lon="12.60322815997269"><ele>525.5</ele><time>2026-05-01T11:49:41.001Z</time></trkpt><trkpt lat="43.56892602282442" lon="12.603096428786321"><ele>525.0</ele><time>2026-05-01T11:49:42.001Z</time></trkpt><trkpt lat="43.568951640540845" lon="12.602966488710125"><ele>524.5</ele><time>2026-05-01T11:49:43.001Z</time></trkpt><trkpt lat="43.568970688183505" lon="12.602851538062042"><ele>524.0</ele><time>2026-05-01T11:49:44.001Z</time></trkpt><trkpt lat="43.56899540832872" lon="12.602737006581853"><ele>523.5</ele><time>2026-05-01T11:49:45.001Z</time></trkpt><trkpt lat="43.56902425166089" lon="12.602628916684695"><ele>523.0</ele><time>2026-05-01T11:49:46.001Z</time></trkpt><trkpt lat="43.56905660917892" lon="12.60251426417424"><ele>522.4</ele><time>2026-05-01T11:49:47.001Z</time></trkpt><trkpt lat="43.569081710786875" lon="12.602398597346674"><ele>521.8</ele><time>2026-05-01T11:49:48.001Z</time></trkpt><trkpt lat="43.56913903698086" lon="12.60228231413445"><ele>521.2</ele><time>2026-05-01T11:49:49.001Z</time></trkpt><trkpt lat="43.5691790066167" lon="12.602157679608965"><ele>520.6</ele><time>2026-05-01T11:49:50.001Z</time></trkpt><trkpt lat="43.569209422502844" lon="12.602032238835639"><ele>520.0</ele><time>2026-05-01T11:49:51.001Z</time></trkpt><trkpt lat="43.56923557683006" lon="12.601918838668238"><ele>520.0</ele><time>2026-05-01T11:49:52.001Z</time></trkpt><trkpt lat="43.569275894779615" lon="12.601818690406137"><ele>520.0</ele><time>2026-05-01T11:49:53.001Z</time></trkpt><trkpt lat="43.56928161635255" lon="12.601692876622808"><ele>520.0</ele><time>2026-05-01T11:49:54.001Z</time></trkpt><trkpt lat="43.56930062354952" lon="12.601587499500594"><ele>520.0</ele><time>2026-05-01T11:49:55.001Z</time></trkpt><trkpt lat="43.56932895408712" lon="12.601462997781576"><ele>520.0</ele><time>2026-05-01T11:49:56.001Z</time></trkpt><trkpt lat="43.56935532431053" lon="12.601348816035543"><ele>520.0</ele><time>2026-05-01T11:49:57.001Z</time></trkpt><trkpt lat="43.569384659859594" lon="12.601224549581032"><ele>520.6666666666667</ele><time>2026-05-01T11:49:58.001Z</time></trkpt><trkpt lat="43.56941064212944" lon="12.601118429372864"><ele>521.3333333333334</ele><time>2026-05-01T11:49:59.001Z</time></trkpt><trkpt lat="43.56944574200567" lon="12.601013963325665"><ele>522.0</ele><time>2026-05-01T11:49:59.999Z</time></trkpt><trkpt lat="43.569475843772715" lon="12.600904745431748"><ele>522.6666666666666</ele><time>2026-05-01T11:50:00.999Z</time></trkpt><trkpt lat="43.569518148671776" lon="12.600836844718106"><ele>523.3333333333333</ele><time>2026-05-01T11:50:01.999Z</time></trkpt><trkpt lat="43.56957805918456" lon="12.600706347440074"><ele>524.0</ele><time>2026-05-01T11:50:02.999Z</time></trkpt><trkpt lat="43.56963181202752" lon="12.60060414632269"><ele>527.25</ele><time>2026-05-01T11:50:03.999Z</time></trkpt><trkpt lat="43.56968729603619" lon="12.600501501116915"><ele>530.5</ele><time>2026-05-01T11:50:04.999Z</time></trkpt><trkpt lat="43.56975794011337" lon="12.600351550104842"><ele>533.75</ele><time>2026-05-01T11:50:05.999Z</time></trkpt><trkpt lat="43.56984588219819" lon="12.600205964245307"><ele>537.0</ele><time>2026-05-01T11:50:06.999Z</time></trkpt><trkpt lat="43.56994733851849" lon="12.600075794405592"><ele>537.0</ele><time>2026-05-01T11:50:07.999Z</time></trkpt><trkpt lat="43.57001577538401" lon="12.59997823830043"><ele>537.0</ele><time>2026-05-01T11:50:08.999Z</time></trkpt><trkpt lat="43.57006605530265" lon="12.59988000141848"><ele>537.0</ele><time>2026-05-01T11:50:09.999Z</time></trkpt><trkpt lat="43.57012347673519" lon="12.599768939572428"><ele>537.0</ele><time>2026-05-01T11:50:10.999Z</time></trkpt><trkpt lat="43.57019377434409" lon="12.59967835265021"><ele>537.0</ele><time>2026-05-01T11:50:11.999Z</time></trkpt><trkpt lat="43.57025604961421" lon="12.599616629649496"><ele>536.8000000000001</ele><time>2026-05-01T11:50:12.999Z</time></trkpt><trkpt lat="43.57036227558929" lon="12.59948703920291"><ele>536.6</ele><time>2026-05-01T11:50:14.999Z</time></trkpt><trkpt lat="43.570437231301796" lon="12.599415094072748"><ele>536.4000000000001</ele><time>2026-05-01T11:50:15.999Z</time></trkpt><trkpt lat="43.570522712828755" lon="12.59934168987743"><ele>536.2</ele><time>2026-05-01T11:50:16.999Z</time></trkpt><trkpt lat="43.57060382470826" lon="12.599267126148266"><ele>536.0</ele><time>2026-05-01T11:50:17.999Z</time></trkpt><trkpt lat="43.57068511623984" lon="12.599222256700166"><ele>536.0</ele><time>2026-05-01T11:50:18.999Z</time></trkpt><trkpt lat="43.570767106467244" lon="12.599195941907624"><ele>536.0</ele><time>2026-05-01T11:50:19.999Z</time></trkpt><trkpt lat="43.57084821059624" lon="12.599173894574667"><ele>536.0</ele><time>2026-05-01T11:50:20.999Z</time></trkpt><trkpt lat="43.57092362471831" lon="12.5991597626257"><ele>536.0</ele><time>2026-05-01T11:50:21.999Z</time></trkpt><trkpt lat="43.57102611077538" lon="12.599117591660319"><ele>536.0</ele><time>2026-05-01T11:50:24Z</time></trkpt><trkpt lat="43.571073855756715" lon="12.599030768147674"><ele>536.0</ele><time>2026-05-01T11:50:26Z</time></trkpt><trkpt lat="43.571093462996345" lon="12.59892165238641"><ele>536.0</ele><time>2026-05-01T11:50:28Z</time></trkpt><trkpt lat="43.571107583735525" lon="12.598741571458026"><ele>536.0</ele><time>2026-05-01T11:50:30Z</time></trkpt><trkpt lat="43.571111634573924" lon="12.598598071401625"><ele>536.0</ele><time>2026-05-01T11:50:31Z</time></trkpt><trkpt lat="43.571137890416665" lon="12.598452231538094"><ele>536.0</ele><time>2026-05-01T11:50:32Z</time></trkpt><trkpt lat="43.57116055214516" lon="12.598320556506804"><ele>536.0</ele><time>2026-05-01T11:50:33Z</time></trkpt><trkpt lat="43.57119300619588" lon="12.59815665138124"><ele>535.5</ele><time>2026-05-01T11:50:34Z</time></trkpt><trkpt lat="43.571225016000845" lon="12.598002925293876"><ele>535.0</ele><time>2026-05-01T11:50:35Z</time></trkpt><trkpt lat="43.57125525263625" lon="12.597848871608091"><ele>534.5</ele><time>2026-05-01T11:50:36Z</time></trkpt><trkpt lat="43.57127203339743" lon="12.597696392804828"><ele>534.0</ele><time>2026-05-01T11:50:37Z</time></trkpt><trkpt lat="43.57130949141835" lon="12.597555411841515"><ele>534.0</ele><time>2026-05-01T11:50:38Z</time></trkpt><trkpt lat="43.571349624571475" lon="12.597419145286025"><ele>534.0</ele><time>2026-05-01T11:50:39Z</time></trkpt><trkpt lat="43.57139197556325" lon="12.597293953793084"><ele>534.0</ele><time>2026-05-01T11:50:40Z</time></trkpt><trkpt lat="43.57142018113628" lon="12.597166973836277"><ele>534.0</ele><time>2026-05-01T11:50:41Z</time></trkpt><trkpt lat="43.57144962027704" lon="12.597041316710225"><ele>534.0</ele><time>2026-05-01T11:50:42Z</time></trkpt><trkpt lat="43.5714925006825" lon="12.59691920983218"><ele>535.8</ele><time>2026-05-01T11:50:43Z</time></trkpt><trkpt lat="43.5715172395373" lon="12.596783092478306"><ele>537.5999999999999</ele><time>2026-05-01T11:50:44Z</time></trkpt><trkpt lat="43.57158227722451" lon="12.596663830620097"><ele>539.4</ele><time>2026-05-01T11:50:45Z</time></trkpt><trkpt lat="43.57163073958417" lon="12.59652397813287"><ele>541.1999999999999</ele><time>2026-05-01T11:50:46Z</time></trkpt><trkpt lat="43.571698891184106" lon="12.596401337043487"><ele>543.0</ele><time>2026-05-01T11:50:47Z</time></trkpt><trkpt lat="43.571764415834885" lon="12.596280802168163"><ele>543.0</ele><time>2026-05-01T11:50:48Z</time></trkpt><trkpt lat="43.5718127803637" lon="12.596177214512503"><ele>543.0</ele><time>2026-05-01T11:50:49Z</time></trkpt><trkpt lat="43.571860995394516" lon="12.596080010271763"><ele>543.0</ele><time>2026-05-01T11:50:50Z</time></trkpt><trkpt lat="43.571893707982596" lon="12.595973022997292"><ele>543.0</ele><time>2026-05-01T11:50:51Z</time></trkpt><trkpt lat="43.57192757167889" lon="12.595861143274822"><ele>543.0</ele><time>2026-05-01T11:50:52Z</time></trkpt><trkpt lat="43.571948016977785" lon="12.59574220667092"><ele>543.0</ele><time>2026-05-01T11:50:53Z</time></trkpt><trkpt lat="43.57196497825455" lon="12.595620375234445"><ele>544.6</ele><time>2026-05-01T11:50:54Z</time></trkpt><trkpt lat="43.572001381999726" lon="12.595487639843734"><ele>546.1999999999999</ele><time>2026-05-01T11:50:55Z</time></trkpt><trkpt lat="43.57202443020354" lon="12.595363553565713"><ele>547.8</ele><time>2026-05-01T11:50:56Z</time></trkpt><trkpt lat="43.572033540039214" lon="12.595235163946016"><ele>549.4</ele><time>2026-05-01T11:50:57Z</time></trkpt><trkpt lat="43.57207372884712" lon="12.595127615207542"><ele>551.0</ele><time>2026-05-01T11:50:58Z</time></trkpt><trkpt lat="43.57208563186647" lon="12.595009179920323"><ele>547.0</ele><time>2026-05-01T11:50:59Z</time></trkpt><trkpt lat="43.57212116331029" lon="12.594895587094292"><ele>543.0</ele><time>2026-05-01T11:51:00Z</time></trkpt><trkpt lat="43.5721559808732" lon="12.594779415007533"><ele>539.0</ele><time>2026-05-01T11:51:01Z</time></trkpt><trkpt lat="43.5722027370908" lon="12.594683313671261"><ele>535.0</ele><time>2026-05-01T11:51:02Z</time></trkpt><trkpt lat="43.5722477364909" lon="12.59456521575885"><ele>531.0</ele><time>2026-05-01T11:51:03Z</time></trkpt><trkpt lat="43.57229541934264" lon="12.594458048580115"><ele>531.0</ele><time>2026-05-01T11:51:04Z</time></trkpt><trkpt lat="43.57234689675729" lon="12.594362849819614"><ele>531.0</ele><time>2026-05-01T11:51:05Z</time></trkpt><trkpt lat="43.57240159903644" lon="12.594299682617658"><ele>531.0</ele><time>2026-05-01T11:51:06.001Z</time></trkpt><trkpt lat="43.572476798936364" lon="12.59417197541846"><ele>531.0</ele><time>2026-05-01T11:51:07.001Z</time></trkpt><trkpt lat="43.572544688489884" lon="12.594068372762948"><ele>531.0</ele><time>2026-05-01T11:51:08.001Z</time></trkpt><trkpt lat="43.5726083069846" lon="12.593970612298882"><ele>531.0</ele><time>2026-05-01T11:51:09.001Z</time></trkpt><trkpt lat="43.57267380694557" lon="12.593895736853035"><ele>531.0</ele><time>2026-05-01T11:51:10.001Z</time></trkpt><trkpt lat="43.57274453100188" lon="12.593842300367445"><ele>531.0</ele><time>2026-05-01T11:51:11.001Z</time></trkpt><trkpt lat="43.572835534410466" lon="12.593833592918438"><ele>531.0</ele><time>2026-05-01T11:51:12.001Z</time></trkpt><trkpt lat="43.57292337091262" lon="12.593824545630838"><ele>531.0</ele><time>2026-05-01T11:51:13.001Z</time></trkpt><trkpt lat="43.57301454314315" lon="12.593819904601162"><ele>531.0</ele><time>2026-05-01T11:51:14.001Z</time></trkpt><trkpt lat="43.57310459675773" lon="12.593830356641316"><ele>530.6666666666666</ele><time>2026-05-01T11:51:15.001Z</time></trkpt><trkpt lat="43.57317737674434" lon="12.593831057941806"><ele>530.3333333333334</ele><time>2026-05-01T11:51:16.001Z</time></trkpt><trkpt lat="43.57324085880688" lon="12.593812549843683"><ele>530.0</ele><time>2026-05-01T11:51:17.001Z</time></trkpt><trkpt lat="43.57330590054557" lon="12.593777287027402"><ele>529.6666666666667</ele><time>2026-05-01T11:51:18.001Z</time></trkpt><trkpt lat="43.57336505534641" lon="12.593725689201953"><ele>529.3333333333334</ele><time>2026-05-01T11:51:19.001Z</time></trkpt><trkpt lat="43.57347448860467" lon="12.593651874955064"><ele>529.0</ele><time>2026-05-01T11:51:21.001Z</time></trkpt><trkpt lat="43.57349091077804" lon="12.593546676635189"><ele>529.0</ele><time>2026-05-01T11:51:22.001Z</time></trkpt><trkpt lat="43.573512933276575" lon="12.593456325987177"><ele>529.0</ele><time>2026-05-01T11:51:23.001Z</time></trkpt><trkpt lat="43.57353050223379" lon="12.593363960297124"><ele>529.0</ele><time>2026-05-01T11:51:24.001Z</time></trkpt><trkpt lat="43.573545494282996" lon="12.593273972985127"><ele>529.0</ele><time>2026-05-01T11:51:25.001Z</time></trkpt><trkpt lat="43.573559272270536" lon="12.593189104056624"><ele>529.0</ele><time>2026-05-01T11:51:26.001Z</time></trkpt><trkpt lat="43.573604821849656" lon="12.593071360013099"><ele>529.0</ele><time>2026-05-01T11:51:28.001Z</time></trkpt><trkpt lat="43.5737003043368" lon="12.593010195151741"><ele>527.6666666666667</ele><time>2026-05-01T11:51:30.001Z</time></trkpt><trkpt lat="43.57377080406089" lon="12.592997526409995"><ele>526.3333333333334</ele><time>2026-05-01T11:51:31.001Z</time></trkpt><trkpt lat="43.57385177620108" lon="12.593008794829474"><ele>525.0</ele><time>2026-05-01T11:51:32.001Z</time></trkpt><trkpt lat="43.57393512985891" lon="12.593010678562585"><ele>523.6666666666666</ele><time>2026-05-01T11:51:33.001Z</time></trkpt><trkpt lat="43.574034324416424" lon="12.593017263593936"><ele>522.3333333333333</ele><time>2026-05-01T11:51:34.001Z</time></trkpt><trkpt lat="43.57412634142487" lon="12.593039902328941"><ele>521.0</ele><time>2026-05-01T11:51:35.001Z</time></trkpt><trkpt lat="43.57422343325022" lon="12.593055140817173"><ele>521.0</ele><time>2026-05-01T11:51:36.001Z</time></trkpt><trkpt lat="43.574313920686954" lon="12.593069901276001"><ele>521.0</ele><time>2026-05-01T11:51:37.001Z</time></trkpt><trkpt lat="43.574393998790626" lon="12.593075403729006"><ele>521.0</ele><time>2026-05-01T11:51:38.001Z</time></trkpt><trkpt lat="43.57447320572964" lon="12.593064417736082"><ele>521.0</ele><time>2026-05-01T11:51:39.001Z</time></trkpt><trkpt lat="43.57455175129733" lon="12.59304786281979"><ele>521.0</ele><time>2026-05-01T11:51:40.001Z</time></trkpt><trkpt lat="43.5746296156274" lon="12.593045261973566"><ele>521.0</ele><time>2026-05-01T11:51:41.001Z</time></trkpt><trkpt lat="43.57470029228298" lon="12.593068198481145"><ele>523.5</ele><time>2026-05-01T11:51:42.001Z</time></trkpt><trkpt lat="43.574764300902835" lon="12.593103731900918"><ele>526.0</ele><time>2026-05-01T11:51:43.001Z</time></trkpt><trkpt lat="43.574826690310985" lon="12.593158563845837"><ele>528.5</ele><time>2026-05-01T11:51:44.001Z</time></trkpt><trkpt lat="43.57487681123477" lon="12.593246743465478"><ele>531.0</ele><time>2026-05-01T11:51:45.001Z</time></trkpt><trkpt lat="43.57492222268014" lon="12.593324706402225"><ele>533.5</ele><time>2026-05-01T11:51:46.001Z</time></trkpt><trkpt lat="43.57493232969562" lon="12.593424612770162"><ele>536.0</ele><time>2026-05-01T11:51:47.001Z</time></trkpt><trkpt lat="43.57494877960372" lon="12.593539380603707"><ele>536.0</ele><time>2026-05-01T11:51:48.001Z</time></trkpt><trkpt lat="43.57497596070866" lon="12.593648436393861"><ele>536.0</ele><time>2026-05-01T11:51:49.001Z</time></trkpt><trkpt lat="43.574979879886236" lon="12.593765682204237"><ele>536.0</ele><time>2026-05-01T11:51:50.001Z</time></trkpt><trkpt lat="43.57499153561568" lon="12.593879678291538"><ele>536.0</ele><time>2026-05-01T11:51:51.001Z</time></trkpt><trkpt lat="43.57500882125238" lon="12.593978401945636"><ele>536.0</ele><time>2026-05-01T11:51:52.001Z</time></trkpt><trkpt lat="43.57502609552407" lon="12.594063090184031"><ele>536.0</ele><time>2026-05-01T11:51:53.001Z</time></trkpt><trkpt lat="43.57507390424562" lon="12.594215527958442"><ele>536.8</ele><time>2026-05-01T11:51:55.001Z</time></trkpt><trkpt lat="43.57516451547302" lon="12.594323865769278"><ele>537.6</ele><time>2026-05-01T11:51:57.001Z</time></trkpt><trkpt lat="43.575230402607346" lon="12.594346565538274"><ele>538.4</ele><time>2026-05-01T11:51:58.001Z</time></trkpt><trkpt lat="43.57530676177035" lon="12.59434135034648"><ele>539.2</ele><time>2026-05-01T11:51:59.001Z</time></trkpt><trkpt lat="43.57536761059562" lon="12.594388300195027"><ele>540.0</ele><time>2026-05-01T11:52:00.001Z</time></trkpt><trkpt lat="43.57546632302101" lon="12.594289712841032"><ele>540.0</ele><time>2026-05-01T11:52:01.001Z</time></trkpt><trkpt lat="43.57554702106384" lon="12.594278190120251"><ele>540.0</ele><time>2026-05-01T11:52:02.002Z</time></trkpt><trkpt lat="43.57563070662043" lon="12.594283839483454"><ele>540.0</ele><time>2026-05-01T11:52:03.002Z</time></trkpt><trkpt lat="43.57571849981519" lon="12.594319679705194"><ele>540.0</ele><time>2026-05-01T11:52:04.002Z</time></trkpt><trkpt lat="43.575803172664315" lon="12.59435859914372"><ele>540.0</ele><time>2026-05-01T11:52:05.002Z</time></trkpt><trkpt lat="43.575893376525286" lon="12.594408634321054"><ele>540.0</ele><time>2026-05-01T11:52:05.999Z</time></trkpt><trkpt lat="43.57598233043609" lon="12.594446627667844"><ele>540.0</ele><time>2026-05-01T11:52:06.999Z</time></trkpt><trkpt lat="43.576048348917354" lon="12.594486405626936"><ele>540.0</ele><time>2026-05-01T11:52:07.999Z</time></trkpt><trkpt lat="43.57616497639879" lon="12.59453031437871"><ele>540.0</ele><time>2026-05-01T11:52:09.999Z</time></trkpt><trkpt lat="43.576242964196936" lon="12.594576952240777"><ele>540.0</ele><time>2026-05-01T11:52:10.999Z</time></trkpt><trkpt lat="43.576329136133324" lon="12.594622487369692"><ele>540.0</ele><time>2026-05-01T11:52:11.999Z</time></trkpt><trkpt lat="43.57641863416051" lon="12.59467047896782"><ele>535.6</ele><time>2026-05-01T11:52:12.999Z</time></trkpt><trkpt lat="43.57651325957984" lon="12.594705246583533"><ele>531.2</ele><time>2026-05-01T11:52:13.999Z</time></trkpt><trkpt lat="43.57661106462206" lon="12.594743413415236"><ele>526.8</ele><time>2026-05-01T11:52:14.999Z</time></trkpt><trkpt lat="43.57670873936321" lon="12.594775600212321"><ele>522.4</ele><time>2026-05-01T11:52:15.999Z</time></trkpt><trkpt lat="43.57680358847462" lon="12.594804729398252"><ele>518.0</ele><time>2026-05-01T11:52:16.999Z</time></trkpt><trkpt lat="43.57689871587472" lon="12.594827269963977"><ele>518.0</ele><time>2026-05-01T11:52:17.999Z</time></trkpt><trkpt lat="43.57697341523169" lon="12.594835812039827"><ele>518.0</ele><time>2026-05-01T11:52:18.999Z</time></trkpt><trkpt lat="43.57704892484945" lon="12.594854566709175"><ele>518.0</ele><time>2026-05-01T11:52:19.999Z</time></trkpt><trkpt lat="43.577123453712126" lon="12.594861000567953"><ele>518.0</ele><time>2026-05-01T11:52:20.999Z</time></trkpt><trkpt lat="43.57725285778796" lon="12.594882232316547"><ele>518.0</ele><time>2026-05-01T11:52:22.999Z</time></trkpt><trkpt lat="43.577331138442105" lon="12.594892726983431"><ele>518.0</ele><time>2026-05-01T11:52:23.999Z</time></trkpt><trkpt lat="43.57741494694901" lon="12.594876485680505"><ele>518.1666666666666</ele><time>2026-05-01T11:52:25Z</time></trkpt><trkpt lat="43.577488062622244" lon="12.594865066891929"><ele>518.3333333333333</ele><time>2026-05-01T11:52:26Z</time></trkpt><trkpt lat="43.57757977201338" lon="12.594841454002715"><ele>518.5</ele><time>2026-05-01T11:52:27Z</time></trkpt><trkpt lat="43.57766165043018" lon="12.594784152662392"><ele>518.6666666666666</ele><time>2026-05-01T11:52:28Z</time></trkpt><trkpt lat="43.57775601788171" lon="12.59475438295757"><ele>518.8333333333334</ele><time>2026-05-01T11:52:29Z</time></trkpt><trkpt lat="43.57784575515269" lon="12.594718127134085"><ele>519.0</ele><time>2026-05-01T11:52:30Z</time></trkpt><trkpt lat="43.57793038019971" lon="12.594697014065463"><ele>516.1666666666666</ele><time>2026-05-01T11:52:31Z</time></trkpt><trkpt lat="43.57801438315326" lon="12.594664088623869"><ele>513.3333333333334</ele><time>2026-05-01T11:52:32Z</time></trkpt><trkpt lat="43.57809442633292" lon="12.594630967788829"><ele>510.5</ele><time>2026-05-01T11:52:33Z</time></trkpt><trkpt lat="43.578178274871114" lon="12.594593962950801"><ele>507.6666666666667</ele><time>2026-05-01T11:52:34Z</time></trkpt><trkpt lat="43.57826121723799" lon="12.594546085793763"><ele>504.83333333333337</ele><time>2026-05-01T11:52:35Z</time></trkpt><trkpt lat="43.578348866882905" lon="12.594486656826007"><ele>502.0</ele><time>2026-05-01T11:52:36Z</time></trkpt><trkpt lat="43.57843456280284" lon="12.59441231489622"><ele>503.5</ele><time>2026-05-01T11:52:37Z</time></trkpt><trkpt lat="43.57854686714109" lon="12.59433443441332"><ele>505.0</ele><time>2026-05-01T11:52:38Z</time></trkpt><trkpt lat="43.57866203138204" lon="12.59426749858873"><ele>506.5</ele><time>2026-05-01T11:52:39Z</time></trkpt><trkpt lat="43.57876174789111" lon="12.594217374503463"><ele>508.0</ele><time>2026-05-01T11:52:40Z</time></trkpt><trkpt lat="43.578850143710156" lon="12.59416235467889"><ele>508.00000000000006</ele><time>2026-05-01T11:52:41Z</time></trkpt><trkpt lat="43.578921859015644" lon="12.5941172099896"><ele>508.0</ele><time>2026-05-01T11:52:42Z</time></trkpt><trkpt lat="43.57898431570918" lon="12.594083817356813"><ele>508.0</ele><time>2026-05-01T11:52:43Z</time></trkpt><trkpt lat="43.57904611710784" lon="12.594066358587877"><ele>508.0</ele><time>2026-05-01T11:52:44Z</time></trkpt><trkpt lat="43.57909907123243" lon="12.594016084147963"><ele>508.00000000000006</ele><time>2026-05-01T11:52:45Z</time></trkpt><trkpt lat="43.57917345757203" lon="12.593876272856825"><ele>508.0</ele><time>2026-05-01T11:52:47Z</time></trkpt><trkpt lat="43.57919174580543" lon="12.593784485341295"><ele>508.00000000000006</ele><time>2026-05-01T11:52:48Z</time></trkpt><trkpt lat="43.57920334365871" lon="12.593673439457174"><ele>508.0</ele><time>2026-05-01T11:52:49Z</time></trkpt><trkpt lat="43.57921183927351" lon="12.59354845096284"><ele>508.0</ele><time>2026-05-01T11:52:50Z</time></trkpt><trkpt lat="43.579217626522926" lon="12.593422785001502"><ele>508.0</ele><time>2026-05-01T11:52:51Z</time></trkpt><trkpt lat="43.5792080293496" lon="12.593296261644525"><ele>508.00000000000006</ele><time>2026-05-01T11:52:52Z</time></trkpt><trkpt lat="43.57922465195526" lon="12.593185637435981"><ele>508.0</ele><time>2026-05-01T11:52:53Z</time></trkpt><trkpt lat="43.57923782333553" lon="12.593089422648012"><ele>510.83333333333337</ele><time>2026-05-01T11:52:54Z</time></trkpt><trkpt lat="43.57923602661972" lon="12.592992859119873"><ele>513.6666666666667</ele><time>2026-05-01T11:52:55Z</time></trkpt><trkpt lat="43.57924650507744" lon="12.592897402058151"><ele>516.5</ele><time>2026-05-01T11:52:56Z</time></trkpt><trkpt lat="43.579223483923876" lon="12.592811554901104"><ele>519.3333333333334</ele><time>2026-05-01T11:52:57Z</time></trkpt><trkpt lat="43.57920876677758" lon="12.592726948992695"><ele>522.1666666666666</ele><time>2026-05-01T11:52:58Z</time></trkpt><trkpt lat="43.57918963538553" lon="12.592562676941862"><ele>525.0</ele><time>2026-05-01T11:53:00Z</time></trkpt><trkpt lat="43.57921043134332" lon="12.59245176784677"><ele>526.6666666666666</ele><time>2026-05-01T11:53:02Z</time></trkpt><trkpt lat="43.579274341170056" lon="12.592387520778228"><ele>528.3333333333334</ele><time>2026-05-01T11:53:05Z</time></trkpt><trkpt lat="43.57934603841464" lon="12.592363390726105"><ele>530.0</ele><time>2026-05-01T11:53:08.001Z</time></trkpt><trkpt lat="43.57943158072014" lon="12.592393701931256"><ele>531.6666666666667</ele><time>2026-05-01T11:53:10.001Z</time></trkpt><trkpt lat="43.57953985525689" lon="12.592407750568205"><ele>533.3333333333334</ele><time>2026-05-01T11:53:12.001Z</time></trkpt><trkpt lat="43.579606539868834" lon="12.592395103092667"><ele>535.0</ele><time>2026-05-01T11:53:13.001Z</time></trkpt><trkpt lat="43.57972034971635" lon="12.592395469689812"><ele>535.0</ele><time>2026-05-01T11:53:15.001Z</time></trkpt><trkpt lat="43.57982765395281" lon="12.592406035386425"><ele>535.0</ele><time>2026-05-01T11:53:17.001Z</time></trkpt><trkpt lat="43.57994129228097" lon="12.592435144173038"><ele>535.0</ele><time>2026-05-01T11:53:19.001Z</time></trkpt><trkpt lat="43.58003279128672" lon="12.592490592445516"><ele>535.0</ele><time>2026-05-01T11:53:21.001Z</time></trkpt><trkpt lat="43.5801241523816" lon="12.592555573530774"><ele>535.0</ele><time>2026-05-01T11:53:23.001Z</time></trkpt><trkpt lat="43.58021563205114" lon="12.592649494407185"><ele>535.0</ele><time>2026-05-01T11:53:25.001Z</time></trkpt><trkpt lat="43.5802898069383" lon="12.592752439889672"><ele>535.0</ele><time>2026-05-01T11:53:27.001Z</time></trkpt><trkpt lat="43.580341875555696" lon="12.592847556929854"><ele>535.0</ele><time>2026-05-01T11:53:29.001Z</time></trkpt><trkpt lat="43.58040890564089" lon="12.59290411286192"><ele>535.0</ele><time>2026-05-01T11:53:31.001Z</time></trkpt><trkpt lat="43.58049199383485" lon="12.592908591105042"><ele>535.0</ele><time>2026-05-01T11:53:33.001Z</time></trkpt><trkpt lat="43.58060063543381" lon="12.592921384361517"><ele>531.0</ele><time>2026-05-01T11:53:35.001Z</time></trkpt><trkpt lat="43.58069188272962" lon="12.592957229446428"><ele>527.0</ele><time>2026-05-01T11:53:37.001Z</time></trkpt><trkpt lat="43.580783736758505" lon="12.592995711301302"><ele>523.0</ele><time>2026-05-01T11:53:39.001Z</time></trkpt><trkpt lat="43.580885154611565" lon="12.593057499548463"><ele>519.0</ele><time>2026-05-01T11:53:41.001Z</time></trkpt><trkpt lat="43.58096981951185" lon="12.593166898910987"><ele>515.0</ele><time>2026-05-01T11:53:43.001Z</time></trkpt><trkpt lat="43.581009495464365" lon="12.59323780333857"><ele>515.0</ele><time>2026-05-01T11:53:44.001Z</time></trkpt><trkpt lat="43.58107280464629" lon="12.593359804013527"><ele>515.0</ele><time>2026-05-01T11:53:46.001Z</time></trkpt><trkpt lat="43.58113244182712" lon="12.593462974939046"><ele>515.0</ele><time>2026-05-01T11:53:48.001Z</time></trkpt><trkpt lat="43.581200877602136" lon="12.593546968640329"><ele>515.0</ele><time>2026-05-01T11:53:50.001Z</time></trkpt><trkpt lat="43.58129446657197" lon="12.593584615469156"><ele>515.0</ele><time>2026-05-01T11:53:52.001Z</time></trkpt><trkpt lat="43.58140921357648" lon="12.593604391018024"><ele>514.5</ele><time>2026-05-01T11:53:54.001Z</time></trkpt><trkpt lat="43.581524974145374" lon="12.593550692798816"><ele>514.0</ele><time>2026-05-01T11:53:56.001Z</time></trkpt><trkpt lat="43.581615511921875" lon="12.593523477796392"><ele>513.5</ele><time>2026-05-01T11:53:58.002Z</time></trkpt><trkpt lat="43.58167594930368" lon="12.593491754683301"><ele>513.0</ele><time>2026-05-01T11:53:59.002Z</time></trkpt><trkpt lat="43.58176330697643" lon="12.593473385070094"><ele>512.5</ele><time>2026-05-01T11:54:00.002Z</time></trkpt><trkpt lat="43.58182006639353" lon="12.593423351077442"><ele>512.0</ele><time>2026-05-01T11:54:01.002Z</time></trkpt><trkpt lat="43.58188960655487" lon="12.593364023027345"><ele>512.0</ele><time>2026-05-01T11:54:02.002Z</time></trkpt><trkpt lat="43.58199746197653" lon="12.5932999870905"><ele>512.0</ele><time>2026-05-01T11:54:04.002Z</time></trkpt><trkpt lat="43.582100729242676" lon="12.593210351895962"><ele>512.0</ele><time>2026-05-01T11:54:06.002Z</time></trkpt><trkpt lat="43.582208026385466" lon="12.59313302620616"><ele>512.0</ele><time>2026-05-01T11:54:08.002Z</time></trkpt><trkpt lat="43.58226625485967" lon="12.59308038220466"><ele>512.0</ele><time>2026-05-01T11:54:09.002Z</time></trkpt><trkpt lat="43.582367382067105" lon="12.59297911087772"><ele>515.2</ele><time>2026-05-01T11:54:11.002Z</time></trkpt><trkpt lat="43.58242266241543" lon="12.592937146858379"><ele>518.4000000000001</ele><time>2026-05-01T11:54:12Z</time></trkpt><trkpt lat="43.58251207193205" lon="12.5928965361392"><ele>521.5999999999999</ele><time>2026-05-01T11:54:14Z</time></trkpt><trkpt lat="43.58260333834957" lon="12.592820257480644"><ele>524.8</ele><time>2026-05-01T11:54:16Z</time></trkpt><trkpt lat="43.58271721924117" lon="12.592847259990899"><ele>528.0</ele><time>2026-05-01T11:54:18Z</time></trkpt><trkpt lat="43.582845170430375" lon="12.592925189079416"><ele>523.0</ele><time>2026-05-01T11:54:20Z</time></trkpt><trkpt lat="43.58295578134457" lon="12.593028074935217"><ele>518.0</ele><time>2026-05-01T11:54:22Z</time></trkpt><trkpt lat="43.58305833282084" lon="12.593105335895848"><ele>513.0</ele><time>2026-05-01T11:54:24Z</time></trkpt><trkpt lat="43.583168516852844" lon="12.593162131851837"><ele>508.0</ele><time>2026-05-01T11:54:26Z</time></trkpt><trkpt lat="43.58327396731077" lon="12.593232096370748"><ele>508.0</ele><time>2026-05-01T11:54:28Z</time></trkpt><trkpt lat="43.583371818683055" lon="12.593334203728613"><ele>507.99999999999994</ele><time>2026-05-01T11:54:30Z</time></trkpt><trkpt lat="43.58340812365805" lon="12.593418573563119"><ele>507.99999999999994</ele><time>2026-05-01T11:54:31Z</time></trkpt><trkpt lat="43.583393682685355" lon="12.593528569941544"><ele>508.0</ele><time>2026-05-01T11:54:32Z</time></trkpt><trkpt lat="43.5834003088783" lon="12.593695660563197"><ele>508.0</ele><time>2026-05-01T11:54:34Z</time></trkpt><trkpt lat="43.5833924535644" lon="12.593783434178937"><ele>504.57142857142856</ele><time>2026-05-01T11:54:35Z</time></trkpt><trkpt lat="43.58338890746258" lon="12.593874585379623"><ele>501.1428571428571</ele><time>2026-05-01T11:54:36Z</time></trkpt><trkpt lat="43.583392663488716" lon="12.593965347649352"><ele>497.71428571428567</ele><time>2026-05-01T11:54:37Z</time></trkpt><trkpt lat="43.583404396021955" lon="12.594057757085249"><ele>494.2857142857143</ele><time>2026-05-01T11:54:38Z</time></trkpt><trkpt lat="43.58341965060611" lon="12.594147540455282"><ele>490.8571428571428</ele><time>2026-05-01T11:54:39Z</time></trkpt><trkpt lat="43.58343736074309" lon="12.594237056599836"><ele>487.4285714285714</ele><time>2026-05-01T11:54:40Z</time></trkpt><trkpt lat="43.58346191796034" lon="12.594363424719129"><ele>484.0</ele><time>2026-05-01T11:54:42Z</time></trkpt><trkpt lat="43.5834657329853" lon="12.594460410369676"><ele>485.6666666666667</ele><time>2026-05-01T11:54:44Z</time></trkpt><trkpt lat="43.58351085865938" lon="12.594540079204942"><ele>487.33333333333337</ele><time>2026-05-01T12:00:02.002Z</time></trkpt><trkpt lat="43.58358629911514" lon="12.594567359194672"><ele>489.0</ele><time>2026-05-01T12:00:05.002Z</time></trkpt><trkpt lat="43.58366316431658" lon="12.594535507256419"><ele>490.66666666666663</ele><time>2026-05-01T12:00:07.002Z</time></trkpt><trkpt lat="43.58375923646296" lon="12.594492162911386"><ele>492.3333333333333</ele><time>2026-05-01T12:00:09.002Z</time></trkpt><trkpt lat="43.58384637825697" lon="12.594453425979145"><ele>494.0</ele><time>2026-05-01T12:00:11.002Z</time></trkpt><trkpt lat="43.583939794050096" lon="12.594404407364475"><ele>493.99999999999994</ele><time>2026-05-01T12:00:13.002Z</time></trkpt><trkpt lat="43.58404475113372" lon="12.594372124951379"><ele>494.0</ele><time>2026-05-01T12:00:15.002Z</time></trkpt><trkpt lat="43.58409974060134" lon="12.594319065016437"><ele>494.0</ele><time>2026-05-01T12:00:16.002Z</time></trkpt><trkpt lat="43.5841653673175" lon="12.594336267821967"><ele>494.0</ele><time>2026-05-01T12:00:17.002Z</time></trkpt><trkpt lat="43.58427942432401" lon="12.594371772212188"><ele>493.99999999999994</ele><time>2026-05-01T12:00:19.002Z</time></trkpt><trkpt lat="43.58435228626706" lon="12.594367891913198"><ele>494.0</ele><time>2026-05-01T12:00:20.002Z</time></trkpt><trkpt lat="43.58441740893435" lon="12.594382164861857"><ele>493.99999999999994</ele><time>2026-05-01T12:00:21.002Z</time></trkpt><trkpt lat="43.58448764165773" lon="12.594384868285237"><ele>494.0</ele><time>2026-05-01T12:00:22.002Z</time></trkpt><trkpt lat="43.584608762624065" lon="12.594407035950768"><ele>494.0</ele><time>2026-05-01T12:00:24.002Z</time></trkpt><trkpt lat="43.58468094457183" lon="12.594389611055172"><ele>494.0</ele><time>2026-05-01T12:00:25.002Z</time></trkpt><trkpt lat="43.58474536338401" lon="12.594371062130115"><ele>493.99999999999994</ele><time>2026-05-01T12:00:26.002Z</time></trkpt><trkpt lat="43.58480732718033" lon="12.594341778202983"><ele>494.0</ele><time>2026-05-01T12:00:27.002Z</time></trkpt><trkpt lat="43.58492111804904" lon="12.594252670122154"><ele>490.2</ele><time>2026-05-01T12:00:29.002Z</time></trkpt><trkpt lat="43.58502160966876" lon="12.59419542992578"><ele>486.4</ele><time>2026-05-01T12:00:31Z</time></trkpt><trkpt lat="43.58511589618182" lon="12.59419945061492"><ele>482.6</ele><time>2026-05-01T12:00:33Z</time></trkpt><trkpt lat="43.5851880800002" lon="12.594304027148302"><ele>478.8</ele><time>2026-05-01T12:00:35Z</time></trkpt><trkpt lat="43.58524381418429" lon="12.594446014523385"><ele>475.0</ele><time>2026-05-01T12:00:37Z</time></trkpt><trkpt lat="43.585271097947874" lon="12.59460779763958"><ele>473.1666666666667</ele><time>2026-05-01T12:00:39Z</time></trkpt><trkpt lat="43.58527466752257" lon="12.594699445214347"><ele>471.33333333333337</ele><time>2026-05-01T12:00:40Z</time></trkpt><trkpt lat="43.58527340239434" lon="12.59479325066306"><ele>469.5</ele><time>2026-05-01T12:00:41Z</time></trkpt><trkpt lat="43.58526117100411" lon="12.594910162694196"><ele>467.66666666666663</ele><time>2026-05-01T12:00:42Z</time></trkpt><trkpt lat="43.58523851872363" lon="12.595099478009452"><ele>465.8333333333333</ele><time>2026-05-01T12:00:44Z</time></trkpt><trkpt lat="43.58523024957747" lon="12.595220093695149"><ele>464.0</ele><time>2026-05-01T12:00:45Z</time></trkpt><trkpt lat="43.585226522067344" lon="12.595331918839015"><ele>462.8333333333333</ele><time>2026-05-01T12:00:46Z</time></trkpt><trkpt lat="43.585239843770566" lon="12.595446201124199"><ele>461.66666666666663</ele><time>2026-05-01T12:00:47Z</time></trkpt><trkpt lat="43.585228816448904" lon="12.595541138959566"><ele>460.5</ele><time>2026-05-01T12:00:48Z</time></trkpt><trkpt lat="43.58524415506987" lon="12.595651116193308"><ele>459.33333333333337</ele><time>2026-05-01T12:00:49Z</time></trkpt><trkpt lat="43.58523893674805" lon="12.595754026752724"><ele>458.1666666666667</ele><time>2026-05-01T12:00:50Z</time></trkpt><trkpt lat="43.585260565584214" lon="12.59586444246755"><ele>457.0</ele><time>2026-05-01T12:00:51Z</time></trkpt><trkpt lat="43.58526040516642" lon="12.595980707074876"><ele>457.00000000000006</ele><time>2026-05-01T12:00:52Z</time></trkpt><trkpt lat="43.585263912434094" lon="12.596080256479366"><ele>457.0</ele><time>2026-05-01T12:00:53Z</time></trkpt><trkpt lat="43.58526302634679" lon="12.596187936491601"><ele>457.0</ele><time>2026-05-01T12:00:54Z</time></trkpt><trkpt lat="43.58525318473282" lon="12.59629730031443"><ele>457.0</ele><time>2026-05-01T12:00:55Z</time></trkpt><trkpt lat="43.58523654385086" lon="12.596400175135972"><ele>457.00000000000006</ele><time>2026-05-01T12:00:56Z</time></trkpt><trkpt lat="43.58521823258385" lon="12.596498466721577"><ele>457.0</ele><time>2026-05-01T12:00:57Z</time></trkpt><trkpt lat="43.585199648904634" lon="12.596591166540094"><ele>456.50000000000006</ele><time>2026-05-01T12:00:58Z</time></trkpt><trkpt lat="43.58520642043674" lon="12.596688040636234"><ele>456.0</ele><time>2026-05-01T12:00:59Z</time></trkpt><trkpt lat="43.585249653728205" lon="12.596773670046153"><ele>455.5</ele><time>2026-05-01T12:01:00Z</time></trkpt><trkpt lat="43.5852847129344" lon="12.596855888358911"><ele>455.0</ele><time>2026-05-01T12:01:01Z</time></trkpt><trkpt lat="43.585332009021" lon="12.596927414140659"><ele>454.50000000000006</ele><time>2026-05-01T12:01:02Z</time></trkpt><trkpt lat="43.58539069177737" lon="12.59697713714549"><ele>454.0</ele><time>2026-05-01T12:01:03Z</time></trkpt><trkpt lat="43.58550936240119" lon="12.597028719682314"><ele>452.33333333333337</ele><time>2026-05-01T12:01:05.001Z</time></trkpt><trkpt lat="43.585572842645526" lon="12.597005514726515"><ele>450.6666666666667</ele><time>2026-05-01T12:01:06.001Z</time></trkpt><trkpt lat="43.585641560556624" lon="12.596993550604886"><ele>449.0</ele><time>2026-05-01T12:01:07.001Z</time></trkpt><trkpt lat="43.58572001377837" lon="12.5969751536272"><ele>447.33333333333337</ele><time>2026-05-01T12:01:08.001Z</time></trkpt><trkpt lat="43.585784490052426" lon="12.596946209614178"><ele>445.6666666666667</ele><time>2026-05-01T12:01:09.001Z</time></trkpt><trkpt lat="43.58586867647538" lon="12.59695226345121"><ele>444.0</ele><time>2026-05-01T12:01:10.001Z</time></trkpt><trkpt lat="43.58595422611569" lon="12.596948778095339"><ele>445.1666666666667</ele><time>2026-05-01T12:01:11.001Z</time></trkpt><trkpt lat="43.58604064666718" lon="12.596934219093356"><ele>446.33333333333337</ele><time>2026-05-01T12:01:12.001Z</time></trkpt><trkpt lat="43.586126803062776" lon="12.596958922986206"><ele>447.5</ele><time>2026-05-01T12:01:13.001Z</time></trkpt><trkpt lat="43.5862162764847" lon="12.596976526550444"><ele>448.6666666666667</ele><time>2026-05-01T12:01:14.001Z</time></trkpt><trkpt lat="43.58630666768309" lon="12.597001666935862"><ele>449.83333333333337</ele><time>2026-05-01T12:01:15.001Z</time></trkpt><trkpt lat="43.58639070791477" lon="12.597029595470852"><ele>451.0</ele><time>2026-05-01T12:01:16.001Z</time></trkpt><trkpt lat="43.58646633486195" lon="12.597042239227713"><ele>451.00000000000006</ele><time>2026-05-01T12:01:17.001Z</time></trkpt><trkpt lat="43.58655830984473" lon="12.597084050051848"><ele>451.0</ele><time>2026-05-01T12:01:18.001Z</time></trkpt><trkpt lat="43.58664089814049" lon="12.59713121421758"><ele>451.0</ele><time>2026-05-01T12:01:19.001Z</time></trkpt><trkpt lat="43.58672252094525" lon="12.597169566431699"><ele>451.0</ele><time>2026-05-01T12:01:20.001Z</time></trkpt><trkpt lat="43.58679286648861" lon="12.59721141481534"><ele>451.00000000000006</ele><time>2026-05-01T12:01:21.001Z</time></trkpt><trkpt lat="43.58686472291425" lon="12.597242842366516"><ele>451.0</ele><time>2026-05-01T12:01:22.001Z</time></trkpt><trkpt lat="43.58692785817421" lon="12.59727606013564"><ele>452.20000000000005</ele><time>2026-05-01T12:01:23.001Z</time></trkpt><trkpt lat="43.58702887387608" lon="12.597339458027072"><ele>453.40000000000003</ele><time>2026-05-01T12:01:25.001Z</time></trkpt><trkpt lat="43.587116087472324" lon="12.597419540555082"><ele>454.6</ele><time>2026-05-01T12:01:27.001Z</time></trkpt><trkpt lat="43.587155693189295" lon="12.59749023218841"><ele>455.8</ele><time>2026-05-01T12:01:29.001Z</time></trkpt><trkpt lat="43.587179436314685" lon="12.59760458891535"><ele>457.0</ele><time>2026-05-01T12:01:31.001Z</time></trkpt><trkpt lat="43.587191651471706" lon="12.59776419870575"><ele>456.6</ele><time>2026-05-01T12:01:33.001Z</time></trkpt><trkpt lat="43.58719441608222" lon="12.597923875158985"><ele>456.20000000000005</ele><time>2026-05-01T12:01:35.001Z</time></trkpt><trkpt lat="43.58719947480334" lon="12.598010980264052"><ele>455.8</ele><time>2026-05-01T12:01:36.001Z</time></trkpt><trkpt lat="43.58718820078114" lon="12.598176563176706"><ele>455.4</ele><time>2026-05-01T12:01:38.001Z</time></trkpt><trkpt lat="43.58717072342796" lon="12.598331459137558"><ele>455.0</ele><time>2026-05-01T12:01:40.001Z</time></trkpt><trkpt lat="43.58715149844432" lon="12.598484044240198"><ele>454.99999999999994</ele><time>2026-05-01T12:01:42.001Z</time></trkpt><trkpt lat="43.5871505997673" lon="12.598607759129047"><ele>455.0</ele><time>2026-05-01T12:01:44.001Z</time></trkpt><trkpt lat="43.587159323935055" lon="12.598698235391646"><ele>455.0</ele><time>2026-05-01T12:01:46.001Z</time></trkpt><trkpt lat="43.587230829502026" lon="12.598736197237324"><ele>455.0</ele><time>2026-05-01T12:01:48.001Z</time></trkpt><trkpt lat="43.587316231938324" lon="12.598713856069383"><ele>454.99999999999994</ele><time>2026-05-01T12:01:50.001Z</time></trkpt><trkpt lat="43.587406934704724" lon="12.59870504089355"><ele>455.0</ele><time>2026-05-01T12:01:52.001Z</time></trkpt><trkpt lat="43.58751261937166" lon="12.598708076705378"><ele>454.99999999999994</ele><time>2026-05-01T12:01:54.001Z</time></trkpt><trkpt lat="43.5876126872627" lon="12.59868906447061"><ele>455.0</ele><time>2026-05-01T12:01:56.001Z</time></trkpt><trkpt lat="43.587690385026576" lon="12.59867321257665"><ele>455.0</ele><time>2026-05-01T12:01:57.001Z</time></trkpt><trkpt lat="43.58776741019348" lon="12.598657497814504"><ele>455.0</ele><time>2026-05-01T12:01:58.001Z</time></trkpt><trkpt lat="43.587836234005934" lon="12.598620499127598"><ele>454.99999999999994</ele><time>2026-05-01T12:01:59.001Z</time></trkpt><trkpt lat="43.58790173385931" lon="12.598617467293655"><ele>455.0</ele><time>2026-05-01T12:02:00.001Z</time></trkpt><trkpt lat="43.588025526377024" lon="12.598572776069934"><ele>452.99999999999994</ele><time>2026-05-01T12:02:02.001Z</time></trkpt><trkpt lat="43.58809119964697" lon="12.598567102997553"><ele>451.0</ele><time>2026-05-01T12:02:03.001Z</time></trkpt><trkpt lat="43.588159258685465" lon="12.5985578290136"><ele>449.0</ele><time>2026-05-01T12:02:04.001Z</time></trkpt><trkpt lat="43.588263067940936" lon="12.598609271110771"><ele>447.0</ele><time>2026-05-01T12:02:06.001Z</time></trkpt><trkpt lat="43.58835762960501" lon="12.598687369569545"><ele>444.99999999999994</ele><time>2026-05-01T12:02:08.002Z</time></trkpt><trkpt lat="43.58842351382164" lon="12.598746065865107"><ele>443.0</ele><time>2026-05-01T12:02:10.002Z</time></trkpt><trkpt lat="43.58849557501496" lon="12.598773346256083"><ele>443.0</ele><time>2026-05-01T12:02:12.002Z</time></trkpt><trkpt lat="43.58856454002569" lon="12.598780805856038"><ele>442.99999999999994</ele><time>2026-05-01T12:02:14.002Z</time></trkpt><trkpt lat="43.58859854843403" lon="12.598653930153763"><ele>442.99999999999994</ele><time>2026-05-01T12:02:16.002Z</time></trkpt><trkpt lat="43.58861005158185" lon="12.598516864306207"><ele>443.0</ele><time>2026-05-01T12:02:18.002Z</time></trkpt><trkpt lat="43.58859052379213" lon="12.598355175175804"><ele>443.0</ele><time>2026-05-01T12:02:20.002Z</time></trkpt><trkpt lat="43.588554213082" lon="12.598195837159446"><ele>443.0</ele><time>2026-05-01T12:02:22.002Z</time></trkpt><trkpt lat="43.58854007869356" lon="12.598041350588309"><ele>442.99999999999994</ele><time>2026-05-01T12:02:24.002Z</time></trkpt><trkpt lat="43.588530385523825" lon="12.59792026325246"><ele>442.99999999999994</ele><time>2026-05-01T12:02:26.002Z</time></trkpt><trkpt lat="43.58853962772984" lon="12.597819082330576"><ele>443.0</ele><time>2026-05-01T12:02:28.002Z</time></trkpt><trkpt lat="43.58855771595426" lon="12.597704661129951"><ele>443.0</ele><time>2026-05-01T12:02:30.002Z</time></trkpt><trkpt lat="43.5885859100241" lon="12.597583206380694"><ele>442.99999999999994</ele><time>2026-05-01T12:02:32.002Z</time></trkpt><trkpt lat="43.588610595297844" lon="12.59746467951613"><ele>443.0</ele><time>2026-05-01T12:02:34.002Z</time></trkpt><trkpt lat="43.58864206854413" lon="12.597350109214844"><ele>443.0</ele><time>2026-05-01T12:02:35.999Z</time></trkpt><trkpt lat="43.588652163490245" lon="12.59723693877664"><ele>443.0</ele><time>2026-05-01T12:02:37.999Z</time></trkpt><trkpt lat="43.58866812856769" lon="12.59713877611104"><ele>442.99999999999994</ele><time>2026-05-01T12:02:39.999Z</time></trkpt><trkpt lat="43.58869174268826" lon="12.597033179145544"><ele>443.0</ele><time>2026-05-01T12:02:41.999Z</time></trkpt><trkpt lat="43.58872091318916" lon="12.596927787115037"><ele>436.66666666666663</ele><time>2026-05-01T12:02:43.999Z</time></trkpt><trkpt lat="43.588751708639705" lon="12.596820871045265"><ele>430.3333333333333</ele><time>2026-05-01T12:02:45.999Z</time></trkpt><trkpt lat="43.58877532889155" lon="12.596732051725574"><ele>424.0</ele><time>2026-05-01T12:02:47.999Z</time></trkpt><trkpt lat="43.588801824053526" lon="12.596631438034718"><ele>417.66666666666663</ele><time>2026-05-01T12:02:49.999Z</time></trkpt><trkpt lat="43.58883684008301" lon="12.596537390607219"><ele>411.3333333333333</ele><time>2026-05-01T12:02:51.999Z</time></trkpt><trkpt lat="43.588865858365565" lon="12.596440849502068"><ele>405.0</ele><time>2026-05-01T12:02:53.999Z</time></trkpt><trkpt lat="43.58887813417455" lon="12.5963443872783"><ele>405.0</ele><time>2026-05-01T12:02:56Z</time></trkpt><trkpt lat="43.588893744604775" lon="12.596241042805449"><ele>405.0</ele><time>2026-05-01T12:02:58Z</time></trkpt><trkpt lat="43.58890178152916" lon="12.596135050484772"><ele>405.0</ele><time>2026-05-01T12:03:00Z</time></trkpt><trkpt lat="43.58890622493955" lon="12.596021908881534"><ele>405.0</ele><time>2026-05-01T12:03:02Z</time></trkpt><trkpt lat="43.588896746135326" lon="12.595917489149539"><ele>405.0</ele><time>2026-05-01T12:03:04Z</time></trkpt><trkpt lat="43.588873705935754" lon="12.595811925704577"><ele>405.0</ele><time>2026-05-01T12:03:06Z</time></trkpt><trkpt lat="43.588863157467955" lon="12.59570731258925"><ele>405.0</ele><time>2026-05-01T12:03:08Z</time></trkpt><trkpt lat="43.58888419691289" lon="12.5955943012464"><ele>405.0</ele><time>2026-05-01T12:03:10Z</time></trkpt><trkpt lat="43.58893080288457" lon="12.595513176224022"><ele>405.0</ele><time>2026-05-01T12:03:12Z</time></trkpt><trkpt lat="43.58899704463519" lon="12.59545106037408"><ele>405.0</ele><time>2026-05-01T12:03:14Z</time></trkpt><trkpt lat="43.58906284092499" lon="12.595401105660079"><ele>405.0</ele><time>2026-05-01T12:03:16Z</time></trkpt><trkpt lat="43.58912470838286" lon="12.595346149524838"><ele>405.0</ele><time>2026-05-01T12:03:18Z</time></trkpt><trkpt lat="43.58919374174989" lon="12.595314988932833"><ele>405.2</ele><time>2026-05-01T12:03:20Z</time></trkpt><trkpt lat="43.589267119691854" lon="12.59526624776714"><ele>405.4</ele><time>2026-05-01T12:03:22Z</time></trkpt><trkpt lat="43.589335911532935" lon="12.59520294159627"><ele>405.6</ele><time>2026-05-01T12:03:24Z</time></trkpt><trkpt lat="43.58941440446023" lon="12.595126906400694"><ele>405.8</ele><time>2026-05-01T12:03:26Z</time></trkpt><trkpt lat="43.58950262891014" lon="12.595057424314316"><ele>406.0</ele><time>2026-05-01T12:03:28Z</time></trkpt><trkpt lat="43.589589583063365" lon="12.594984266072506"><ele>402.0</ele><time>2026-05-01T12:03:30Z</time></trkpt><trkpt lat="43.58967264058851" lon="12.594908141287968"><ele>398.0</ele><time>2026-05-01T12:03:32.001Z</time></trkpt><trkpt lat="43.58975529392746" lon="12.59482729915462"><ele>394.0</ele><time>2026-05-01T12:03:34.001Z</time></trkpt><trkpt lat="43.58983337341527" lon="12.594732606101001"><ele>390.0</ele><time>2026-05-01T12:03:36.001Z</time></trkpt><trkpt lat="43.58990367423345" lon="12.594624732825178"><ele>386.0</ele><time>2026-05-01T12:03:38.001Z</time></trkpt><trkpt lat="43.589960178972106" lon="12.594519974505213"><ele>385.66666666666663</ele><time>2026-05-01T12:03:40.001Z</time></trkpt><trkpt lat="43.59000180569533" lon="12.594397217049808"><ele>385.3333333333333</ele><time>2026-05-01T12:03:42.001Z</time></trkpt><trkpt lat="43.590025784733186" lon="12.594271590625553"><ele>385.0</ele><time>2026-05-01T12:03:44.001Z</time></trkpt><trkpt lat="43.590033691901326" lon="12.594157682641015"><ele>384.66666666666663</ele><time>2026-05-01T12:03:46.001Z</time></trkpt><trkpt lat="43.59008536079041" lon="12.594053328605469"><ele>384.3333333333333</ele><time>2026-05-01T12:03:49.001Z</time></trkpt><trkpt lat="43.59015197007931" lon="12.594032680068185"><ele>384.0</ele><time>2026-05-01T12:03:51.001Z</time></trkpt><trkpt lat="43.59022425518456" lon="12.594094556560071"><ele>383.99999999999994</ele><time>2026-05-01T12:03:54.001Z</time></trkpt><trkpt lat="43.59024722436227" lon="12.594185575765675"><ele>384.0</ele><time>2026-05-01T12:03:57.001Z</time></trkpt><trkpt lat="43.590241642866715" lon="12.594274593012418"><ele>384.0</ele><time>2026-05-01T12:03:59.001Z</time></trkpt><trkpt lat="43.59022687601946" lon="12.594375063169032"><ele>384.0</ele><time>2026-05-01T12:04:01.001Z</time></trkpt><trkpt lat="43.59019864921696" lon="12.59447863720355"><ele>384.0</ele><time>2026-05-01T12:04:03.001Z</time></trkpt><trkpt lat="43.59016427460878" lon="12.594584365347579"><ele>383.99999999999994</ele><time>2026-05-01T12:04:05.001Z</time></trkpt><trkpt lat="43.59012922818067" lon="12.59467338657696"><ele>384.0</ele><time>2026-05-01T12:04:07.001Z</time></trkpt><trkpt lat="43.59009969887432" lon="12.594773389373582"><ele>384.3333333333333</ele><time>2026-05-01T12:04:09.001Z</time></trkpt><trkpt lat="43.590095462741495" lon="12.594863200153892"><ele>384.66666666666663</ele><time>2026-05-01T12:04:11.001Z</time></trkpt><trkpt lat="43.5901421366765" lon="12.59496197372735"><ele>385.0</ele><time>2026-05-01T12:04:13.001Z</time></trkpt><trkpt lat="43.59021485121166" lon="12.594955234947255"><ele>385.3333333333333</ele><time>2026-05-01T12:04:15.001Z</time></trkpt><trkpt lat="43.59027296738092" lon="12.594900007279042"><ele>385.66666666666663</ele><time>2026-05-01T12:04:17.001Z</time></trkpt><trkpt lat="43.590317155439415" lon="12.594814298662506"><ele>386.0</ele><time>2026-05-01T12:04:19.001Z</time></trkpt><trkpt lat="43.590358388944956" lon="12.59472053934102"><ele>381.4</ele><time>2026-05-01T12:04:21.002Z</time></trkpt><trkpt lat="43.59041740508839" lon="12.594626502622118"><ele>376.8</ele><time>2026-05-01T12:04:23.002Z</time></trkpt><trkpt lat="43.59047531055618" lon="12.594526857168171"><ele>372.2</ele><time>2026-05-01T12:04:25.002Z</time></trkpt><trkpt lat="43.59054784239294" lon="12.594410603739261"><ele>367.59999999999997</ele><time>2026-05-01T12:04:27.002Z</time></trkpt><trkpt lat="43.59062506998988" lon="12.594291306615114"><ele>363.0</ele><time>2026-05-01T12:04:29.002Z</time></trkpt><trkpt lat="43.59070539610898" lon="12.594170961474696"><ele>362.99999999999994</ele><time>2026-05-01T12:04:31.002Z</time></trkpt><trkpt lat="43.59075253036893" lon="12.594113342455815"><ele>363.0</ele><time>2026-05-01T12:04:32.002Z</time></trkpt><trkpt lat="43.59080866876482" lon="12.59405843889859"><ele>363.0</ele><time>2026-05-01T12:04:33.002Z</time></trkpt><trkpt lat="43.59086759524592" lon="12.594007376996904"><ele>363.0</ele><time>2026-05-01T12:04:34.002Z</time></trkpt><trkpt lat="43.59093128194694" lon="12.593954259065127"><ele>363.0</ele><time>2026-05-01T12:04:35.002Z</time></trkpt><trkpt lat="43.59099496395869" lon="12.593905038545833"><ele>362.99999999999994</ele><time>2026-05-01T12:04:36.002Z</time></trkpt><trkpt lat="43.59105504121249" lon="12.593864160268154"><ele>363.0</ele><time>2026-05-01T12:04:37.002Z</time></trkpt><trkpt lat="43.59111801447046" lon="12.593816764431896"><ele>361.2857142857143</ele><time>2026-05-01T12:04:38.002Z</time></trkpt><trkpt lat="43.59118600165077" lon="12.59378715413816"><ele>359.57142857142856</ele><time>2026-05-01T12:04:39.002Z</time></trkpt><trkpt lat="43.591246001200304" lon="12.593741295990124"><ele>357.8571428571429</ele><time>2026-05-01T12:04:40.002Z</time></trkpt><trkpt lat="43.59130394007631" lon="12.593689204695526"><ele>356.1428571428571</ele><time>2026-05-01T12:04:41.002Z</time></trkpt><trkpt lat="43.59135484780862" lon="12.593625210893851"><ele>354.42857142857144</ele><time>2026-05-01T12:04:41.999Z</time></trkpt><trkpt lat="43.5913879234708" lon="12.59353229876513"><ele>352.7142857142857</ele><time>2026-05-01T12:04:42.999Z</time></trkpt><trkpt lat="43.59143154235735" lon="12.593454554667925"><ele>351.0</ele><time>2026-05-01T12:04:43.999Z</time></trkpt><trkpt lat="43.59147107675918" lon="12.593369239687595"><ele>351.00000000000006</ele><time>2026-05-01T12:04:44.999Z</time></trkpt><trkpt lat="43.59150849711307" lon="12.593291284375049"><ele>351.0</ele><time>2026-05-01T12:04:45.999Z</time></trkpt><trkpt lat="43.59154331731729" lon="12.593214137698807"><ele>351.0</ele><time>2026-05-01T12:04:46.999Z</time></trkpt><trkpt lat="43.591576975552044" lon="12.59313576159082"><ele>351.0</ele><time>2026-05-01T12:04:47.999Z</time></trkpt><trkpt lat="43.59160997325444" lon="12.593055158348893"><ele>351.0</ele><time>2026-05-01T12:04:48.999Z</time></trkpt><trkpt lat="43.59164347679461" lon="12.592978584461594"><ele>351.00000000000006</ele><time>2026-05-01T12:04:49.999Z</time></trkpt><trkpt lat="43.591708634521886" lon="12.59284960583237"><ele>351.0</ele><time>2026-05-01T12:04:51.999Z</time></trkpt><trkpt lat="43.59173292637409" lon="12.592767442743254"><ele>351.8</ele><time>2026-05-01T12:04:53.999Z</time></trkpt><trkpt lat="43.59169745485048" lon="12.592636686770069"><ele>352.6</ele><time>2026-05-01T12:04:55.999Z</time></trkpt><trkpt lat="43.59159787967435" lon="12.59263008142648"><ele>353.4</ele><time>2026-05-01T12:04:57.999Z</time></trkpt><trkpt lat="43.591506303566014" lon="12.59269523343819"><ele>354.2</ele><time>2026-05-01T12:05:00Z</time></trkpt><trkpt lat="43.591409781579" lon="12.592780189813928"><ele>355.0</ele><time>2026-05-01T12:05:02Z</time></trkpt><trkpt lat="43.59135607344645" lon="12.592831279363025"><ele>354.3333333333333</ele><time>2026-05-01T12:05:03Z</time></trkpt><trkpt lat="43.591300661703805" lon="12.592876468015257"><ele>353.66666666666663</ele><time>2026-05-01T12:05:04Z</time></trkpt><trkpt lat="43.59123491988743" lon="12.592915388376369"><ele>353.0</ele><time>2026-05-01T12:05:05Z</time></trkpt><trkpt lat="43.5911340849839" lon="12.592945057618502"><ele>352.3333333333333</ele><time>2026-05-01T12:05:07Z</time></trkpt><trkpt lat="43.59104543188789" lon="12.592935699759359"><ele>351.6666666666667</ele><time>2026-05-01T12:05:09Z</time></trkpt><trkpt lat="43.590990804831364" lon="12.592842513306623"><ele>351.0</ele><time>2026-05-01T12:05:12Z</time></trkpt><trkpt lat="43.591046254757174" lon="12.592750681331"><ele>351.6666666666667</ele><time>2026-05-01T12:05:14Z</time></trkpt><trkpt lat="43.591124636082114" lon="12.59270446527989"><ele>352.3333333333333</ele><time>2026-05-01T12:05:16Z</time></trkpt><trkpt lat="43.591208402126824" lon="12.592668234929869"><ele>353.0</ele><time>2026-05-01T12:05:18Z</time></trkpt><trkpt lat="43.59128451917662" lon="12.592609743733142"><ele>353.66666666666663</ele><time>2026-05-01T12:05:20Z</time></trkpt><trkpt lat="43.59136106136314" lon="12.592515785834339"><ele>354.3333333333333</ele><time>2026-05-01T12:05:22Z</time></trkpt><trkpt lat="43.59138811806704" lon="12.592433825865175"><ele>355.0</ele><time>2026-05-01T12:05:23Z</time></trkpt><trkpt lat="43.59141482731174" lon="12.592347476980908"><ele>355.0</ele><time>2026-05-01T12:05:24Z</time></trkpt><trkpt lat="43.59143691874757" lon="12.592257083082302"><ele>355.0</ele><time>2026-05-01T12:05:25Z</time></trkpt><trkpt lat="43.59145792043756" lon="12.592161830644342"><ele>355.0</ele><time>2026-05-01T12:05:26Z</time></trkpt><trkpt lat="43.59148315868267" lon="12.592063252478694"><ele>355.0</ele><time>2026-05-01T12:05:27Z</time></trkpt><trkpt lat="43.59150333398962" lon="12.591968934281594"><ele>355.0</ele><time>2026-05-01T12:05:28Z</time></trkpt><trkpt lat="43.59152851106426" lon="12.591880564442386"><ele>355.0</ele><time>2026-05-01T12:05:29Z</time></trkpt><trkpt lat="43.59155650228336" lon="12.591786741963396"><ele>355.0</ele><time>2026-05-01T12:05:30Z</time></trkpt><trkpt lat="43.59158365301461" lon="12.591692760147"><ele>354.2857142857143</ele><time>2026-05-01T12:05:31Z</time></trkpt><trkpt lat="43.591610893474666" lon="12.591599700469171"><ele>353.57142857142856</ele><time>2026-05-01T12:05:32Z</time></trkpt><trkpt lat="43.59164090234014" lon="12.591506224411178"><ele>352.8571428571429</ele><time>2026-05-01T12:05:33.001Z</time></trkpt><trkpt lat="43.5916697096473" lon="12.591412871707952"><ele>352.1428571428571</ele><time>2026-05-01T12:05:34.001Z</time></trkpt><trkpt lat="43.5917016154007" lon="12.591322311012421"><ele>351.42857142857144</ele><time>2026-05-01T12:05:35.001Z</time></trkpt><trkpt lat="43.5917384144068" lon="12.591230765288199"><ele>350.7142857142857</ele><time>2026-05-01T12:05:36.001Z</time></trkpt><trkpt lat="43.591778564459744" lon="12.591144694151494"><ele>350.0</ele><time>2026-05-01T12:05:37.001Z</time></trkpt><trkpt lat="43.59182285523334" lon="12.59106210722678"><ele>348.6666666666667</ele><time>2026-05-01T12:05:38.001Z</time></trkpt><trkpt lat="43.59187256906584" lon="12.5909802546134"><ele>347.33333333333337</ele><time>2026-05-01T12:05:39.001Z</time></trkpt><trkpt lat="43.59192772979283" lon="12.590909256557529"><ele>346.0</ele><time>2026-05-01T12:05:40.001Z</time></trkpt><trkpt lat="43.591983695885304" lon="12.590850426403456"><ele>344.6666666666667</ele><time>2026-05-01T12:05:41.001Z</time></trkpt><trkpt lat="43.59204704905857" lon="12.590793315120449"><ele>343.3333333333333</ele><time>2026-05-01T12:05:42.001Z</time></trkpt><trkpt lat="43.5921082214515" lon="12.590719414344756"><ele>342.0</ele><time>2026-05-01T12:05:43.001Z</time></trkpt><trkpt lat="43.59217586860842" lon="12.59064876603822"><ele>342.0</ele><time>2026-05-01T12:05:44.001Z</time></trkpt><trkpt lat="43.59225122250803" lon="12.590583498688606"><ele>342.0</ele><time>2026-05-01T12:05:45.001Z</time></trkpt><trkpt lat="43.592323761688235" lon="12.590498424453058"><ele>342.0</ele><time>2026-05-01T12:05:46.001Z</time></trkpt><trkpt lat="43.59240822813385" lon="12.590431050872967"><ele>342.0</ele><time>2026-05-01T12:05:47.001Z</time></trkpt><trkpt lat="43.592486907568144" lon="12.59037311817747"><ele>342.0</ele><time>2026-05-01T12:05:48.001Z</time></trkpt><trkpt lat="43.59255971825291" lon="12.590308673292931"><ele>338.5</ele><time>2026-05-01T12:05:49.001Z</time></trkpt><trkpt lat="43.59263018097105" lon="12.590243433754544"><ele>335.0</ele><time>2026-05-01T12:05:50.001Z</time></trkpt><trkpt lat="43.592699826388895" lon="12.590184496200882"><ele>331.5</ele><time>2026-05-01T12:05:51.001Z</time></trkpt><trkpt lat="43.59276728215643" lon="12.590133119301882"><ele>328.0</ele><time>2026-05-01T12:05:52.001Z</time></trkpt><trkpt lat="43.592839232655265" lon="12.590082729237"><ele>324.5</ele><time>2026-05-01T12:05:53.001Z</time></trkpt><trkpt lat="43.592918339258446" lon="12.590012624111116"><ele>321.0</ele><time>2026-05-01T12:05:54.001Z</time></trkpt><trkpt lat="43.593003087774385" lon="12.589943602667136"><ele>321.0</ele><time>2026-05-01T12:05:55.001Z</time></trkpt><trkpt lat="43.593081771565444" lon="12.589877626723348"><ele>321.0</ele><time>2026-05-01T12:05:56.001Z</time></trkpt><trkpt lat="43.59315904107841" lon="12.589818043195791"><ele>321.0</ele><time>2026-05-01T12:05:57.001Z</time></trkpt><trkpt lat="43.593237949166586" lon="12.589754715372807"><ele>321.0</ele><time>2026-05-01T12:05:58.001Z</time></trkpt><trkpt lat="43.593313845475066" lon="12.589691429208505"><ele>321.0</ele><time>2026-05-01T12:05:59.001Z</time></trkpt><trkpt lat="43.59338652977815" lon="12.589630142660582"><ele>321.0</ele><time>2026-05-01T12:06:00.001Z</time></trkpt><trkpt lat="43.593458358725194" lon="12.58957520380516"><ele>321.0</ele><time>2026-05-01T12:06:01.001Z</time></trkpt><trkpt lat="43.59353169649139" lon="12.589522817622406"><ele>321.0</ele><time>2026-05-01T12:06:02.001Z</time></trkpt><trkpt lat="43.59359656441234" lon="12.589464986569224"><ele>321.0</ele><time>2026-05-01T12:06:03.001Z</time></trkpt><trkpt lat="43.59365956604136" lon="12.589404527473032"><ele>321.0</ele><time>2026-05-01T12:06:04.001Z</time></trkpt><trkpt lat="43.593726323758794" lon="12.589344895181746"><ele>321.0</ele><time>2026-05-01T12:06:05.001Z</time></trkpt><trkpt lat="43.593793626839805" lon="12.589286289966298"><ele>321.0</ele><time>2026-05-01T12:06:06.001Z</time></trkpt><trkpt lat="43.593846546917355" lon="12.589201893829205"><ele>318.5</ele><time>2026-05-01T12:06:07.001Z</time></trkpt><trkpt lat="43.5939070471692" lon="12.589125662058319"><ele>316.0</ele><time>2026-05-01T12:06:08.001Z</time></trkpt><trkpt lat="43.5939649935711" lon="12.58904443962885"><ele>313.5</ele><time>2026-05-01T12:06:09.001Z</time></trkpt><trkpt lat="43.59401938107917" lon="12.588973268917444"><ele>311.0</ele><time>2026-05-01T12:06:10.001Z</time></trkpt><trkpt lat="43.594078213501646" lon="12.58890381754021"><ele>308.5</ele><time>2026-05-01T12:06:11.001Z</time></trkpt><trkpt lat="43.594136692042184" lon="12.588839300672245"><ele>306.0</ele><time>2026-05-01T12:06:12.001Z</time></trkpt><trkpt lat="43.59420141947449" lon="12.58878731920462"><ele>306.0</ele><time>2026-05-01T12:06:13.001Z</time></trkpt><trkpt lat="43.594278485221515" lon="12.588760160855976"><ele>306.0</ele><time>2026-05-01T12:06:14.001Z</time></trkpt><trkpt lat="43.59436886455439" lon="12.58874447874544"><ele>306.0</ele><time>2026-05-01T12:06:15.001Z</time></trkpt><trkpt lat="43.59446868627389" lon="12.588730147886514"><ele>306.0</ele><time>2026-05-01T12:06:16.001Z</time></trkpt><trkpt lat="43.59457034643079" lon="12.588721815299174"><ele>306.0</ele><time>2026-05-01T12:06:17.001Z</time></trkpt><trkpt lat="43.59467047921467" lon="12.588715870818215"><ele>303.40000000000003</ele><time>2026-05-01T12:06:18.002Z</time></trkpt><trkpt lat="43.59477300986053" lon="12.588712773240399"><ele>300.8</ele><time>2026-05-01T12:06:19.002Z</time></trkpt><trkpt lat="43.59486687257059" lon="12.588694263782727"><ele>298.20000000000005</ele><time>2026-05-01T12:06:20.002Z</time></trkpt><trkpt lat="43.59497267257347" lon="12.588695787901768"><ele>295.6</ele><time>2026-05-01T12:06:21.002Z</time></trkpt><trkpt lat="43.59506826740145" lon="12.588687311918234"><ele>293.0</ele><time>2026-05-01T12:06:22.002Z</time></trkpt><trkpt lat="43.59516907540455" lon="12.588675300991866"><ele>292.5</ele><time>2026-05-01T12:06:23.002Z</time></trkpt><trkpt lat="43.59526359561893" lon="12.588660511310469"><ele>292.0</ele><time>2026-05-01T12:06:24.002Z</time></trkpt><trkpt lat="43.59534927593995" lon="12.588651532706663"><ele>291.5</ele><time>2026-05-01T12:06:25.002Z</time></trkpt><trkpt lat="43.59543202364784" lon="12.588634971516031"><ele>291.0</ele><time>2026-05-01T12:06:26.002Z</time></trkpt><trkpt lat="43.59551038543064" lon="12.58860824375104"><ele>290.5</ele><time>2026-05-01T12:06:27.002Z</time></trkpt><trkpt lat="43.59558857544218" lon="12.588569692462542"><ele>290.0</ele><time>2026-05-01T12:06:28.002Z</time></trkpt><trkpt lat="43.595670641545766" lon="12.588523312645048"><ele>289.1666666666667</ele><time>2026-05-01T12:06:29.002Z</time></trkpt><trkpt lat="43.595751401807604" lon="12.588477708008375"><ele>288.33333333333337</ele><time>2026-05-01T12:06:30.002Z</time></trkpt><trkpt lat="43.595827140935626" lon="12.588411248839167"><ele>287.5</ele><time>2026-05-01T12:06:31.002Z</time></trkpt><trkpt lat="43.5958958823317" lon="12.588341083767489"><ele>286.6666666666667</ele><time>2026-05-01T12:06:32.002Z</time></trkpt><trkpt lat="43.595965822364505" lon="12.588271882727577"><ele>285.8333333333333</ele><time>2026-05-01T12:06:33.002Z</time></trkpt><trkpt lat="43.596032380648545" lon="12.588185692159023"><ele>285.0</ele><time>2026-05-01T12:06:34.002Z</time></trkpt><trkpt lat="43.59610283853771" lon="12.588094721585323"><ele>283.75</ele><time>2026-05-01T12:06:35.002Z</time></trkpt><trkpt lat="43.59618108904478" lon="12.587995233561365"><ele>282.5</ele><time>2026-05-01T12:06:36.002Z</time></trkpt><trkpt lat="43.596268503836335" lon="12.587886808581151"><ele>281.25</ele><time>2026-05-01T12:06:37.002Z</time></trkpt><trkpt lat="43.59635835504207" lon="12.58777429918835"><ele>280.0</ele><time>2026-05-01T12:06:38.002Z</time></trkpt><trkpt lat="43.59643857686856" lon="12.58767449542008"><ele>279.8333333333333</ele><time>2026-05-01T12:06:39.002Z</time></trkpt><trkpt lat="43.596506684039134" lon="12.58758279778473"><ele>279.66666666666663</ele><time>2026-05-01T12:06:40.002Z</time></trkpt><trkpt lat="43.59657050534711" lon="12.587506692820112"><ele>279.5</ele><time>2026-05-01T12:06:41.002Z</time></trkpt><trkpt lat="43.59663325314429" lon="12.587453093434895"><ele>279.3333333333333</ele><time>2026-05-01T12:06:42.002Z</time></trkpt><trkpt lat="43.59672318535083" lon="12.587364667571121"><ele>279.1666666666667</ele><time>2026-05-01T12:06:44.002Z</time></trkpt><trkpt lat="43.59680045490183" lon="12.587358852903224"><ele>279.0</ele><time>2026-05-01T12:06:46.002Z</time></trkpt><trkpt lat="43.59689318004226" lon="12.58740347882096"><ele>279.0</ele><time>2026-05-01T12:06:48Z</time></trkpt><trkpt lat="43.59696085322491" lon="12.587495206966008"><ele>279.0</ele><time>2026-05-01T12:06:50Z</time></trkpt><trkpt lat="43.597016568193304" lon="12.587604717144536"><ele>279.0</ele><time>2026-05-01T12:06:52Z</time></trkpt><trkpt lat="43.5970831660299" lon="12.587714036099188"><ele>279.0</ele><time>2026-05-01T12:06:54Z</time></trkpt><trkpt lat="43.597156023159606" lon="12.587829289911335"><ele>279.0</ele><time>2026-05-01T12:06:56Z</time></trkpt><trkpt lat="43.597237981951004" lon="12.587960400709498"><ele>278.57142857142856</ele><time>2026-05-01T12:06:58Z</time></trkpt><trkpt lat="43.59728690617678" lon="12.58802950308682"><ele>278.1428571428571</ele><time>2026-05-01T12:06:59Z</time></trkpt><trkpt lat="43.5973364210097" lon="12.58809482852299"><ele>277.7142857142857</ele><time>2026-05-01T12:07:00Z</time></trkpt><trkpt lat="43.59738671058447" lon="12.588155995034471"><ele>277.2857142857143</ele><time>2026-05-01T12:07:01Z</time></trkpt><trkpt lat="43.59744103912441" lon="12.588224150553833"><ele>276.8571428571429</ele><time>2026-05-01T12:07:02Z</time></trkpt><trkpt lat="43.597497049691256" lon="12.588288233715591"><ele>276.42857142857144</ele><time>2026-05-01T12:07:03Z</time></trkpt><trkpt lat="43.59755732221539" lon="12.588349170027794"><ele>276.0</ele><time>2026-05-01T12:07:04Z</time></trkpt><trkpt lat="43.59762225628438" lon="12.58841644244548"><ele>276.0</ele><time>2026-05-01T12:07:05Z</time></trkpt><trkpt lat="43.59768854151318" lon="12.588481744677523"><ele>276.0</ele><time>2026-05-01T12:07:05.999Z</time></trkpt><trkpt lat="43.59775365413056" lon="12.588540796767898"><ele>276.0</ele><time>2026-05-01T12:07:06.999Z</time></trkpt><trkpt lat="43.59781820817751" lon="12.588599070411812"><ele>276.0</ele><time>2026-05-01T12:07:07.999Z</time></trkpt><trkpt lat="43.59787886900147" lon="12.588649747906699"><ele>276.0</ele><time>2026-05-01T12:07:08.999Z</time></trkpt><trkpt lat="43.597941080731324" lon="12.588692930633126"><ele>276.0</ele><time>2026-05-01T12:07:09.999Z</time></trkpt><trkpt lat="43.59800386203338" lon="12.588724021458388"><ele>276.0</ele><time>2026-05-01T12:07:10.999Z</time></trkpt><trkpt lat="43.59806868329309" lon="12.588735416875068"><ele>275.6666666666667</ele><time>2026-05-01T12:07:11.999Z</time></trkpt><trkpt lat="43.59813366867062" lon="12.588739119029873"><ele>275.3333333333333</ele><time>2026-05-01T12:07:12.999Z</time></trkpt><trkpt lat="43.598199879564454" lon="12.588742087807427"><ele>275.0</ele><time>2026-05-01T12:07:13.999Z</time></trkpt><trkpt lat="43.59827972306525" lon="12.58873549055233"><ele>274.66666666666663</ele><time>2026-05-01T12:07:14.999Z</time></trkpt><trkpt lat="43.59836035959227" lon="12.588734530887"><ele>274.3333333333333</ele><time>2026-05-01T12:07:15.999Z</time></trkpt><trkpt lat="43.598448279874994" lon="12.58874225552834"><ele>274.0</ele><time>2026-05-01T12:07:16.999Z</time></trkpt><trkpt lat="43.59853626101727" lon="12.588761268658402"><ele>274.0</ele><time>2026-05-01T12:07:17.999Z</time></trkpt><trkpt lat="43.598615738648476" lon="12.588802076331064"><ele>274.0</ele><time>2026-05-01T12:07:18.999Z</time></trkpt><trkpt lat="43.598696498661354" lon="12.588856033937649"><ele>274.0</ele><time>2026-05-01T12:07:19.999Z</time></trkpt><trkpt lat="43.598780778906374" lon="12.588923285929198"><ele>274.0</ele><time>2026-05-01T12:07:20.999Z</time></trkpt><trkpt lat="43.59886520324155" lon="12.588987287122649"><ele>274.0</ele><time>2026-05-01T12:07:21.999Z</time></trkpt><trkpt lat="43.59894198780331" lon="12.589042792576377"><ele>273.8571428571429</ele><time>2026-05-01T12:07:22.999Z</time></trkpt><trkpt lat="43.59901089969427" lon="12.589093077131798"><ele>273.7142857142857</ele><time>2026-05-01T12:07:23.999Z</time></trkpt><trkpt lat="43.59908154203517" lon="12.589145386489767"><ele>273.57142857142856</ele><time>2026-05-01T12:07:24.999Z</time></trkpt><trkpt lat="43.599141982415404" lon="12.589190933232938"><ele>273.42857142857144</ele><time>2026-05-01T12:07:25.999Z</time></trkpt><trkpt lat="43.5991988703165" lon="12.589245824929922"><ele>273.2857142857143</ele><time>2026-05-01T12:07:26.999Z</time></trkpt><trkpt lat="43.59925650027218" lon="12.589311021422397"><ele>273.14285714285717</ele><time>2026-05-01T12:07:27.999Z</time></trkpt><trkpt lat="43.5993056651404" lon="12.589383655379834"><ele>273.0</ele><time>2026-05-01T12:07:28.999Z</time></trkpt><trkpt lat="43.59934270746465" lon="12.589459090614278"><ele>273.5</ele><time>2026-05-01T12:07:29.999Z</time></trkpt><trkpt lat="43.59939140878899" lon="12.589543699048123"><ele>274.0</ele><time>2026-05-01T12:07:30.999Z</time></trkpt><trkpt lat="43.59942853743191" lon="12.589626813368069"><ele>274.5</ele><time>2026-05-01T12:07:31.999Z</time></trkpt><trkpt lat="43.59946026002263" lon="12.589779455075082"><ele>275.0</ele><time>2026-05-01T12:07:33.999Z</time></trkpt><trkpt lat="43.599492297499694" lon="12.589857088643242"><ele>275.5</ele><time>2026-05-01T12:07:34.999Z</time></trkpt><trkpt lat="43.599527718761365" lon="12.589999692235091"><ele>276.0</ele><time>2026-05-01T12:07:36.999Z</time></trkpt><trkpt lat="43.59959384091839" lon="12.590114374522976"><ele>276.0</ele><time>2026-05-01T12:07:39.999Z</time></trkpt><trkpt lat="43.599636369010845" lon="12.590180191144531"><ele>276.0</ele><time>2026-05-01T12:07:42.999Z</time></trkpt><trkpt lat="43.59969502555628" lon="12.590212123142567"><ele>276.0</ele><time>2026-05-01T12:07:45Z</time></trkpt><trkpt lat="43.59977104490796" lon="12.59022693807534"><ele>276.0</ele><time>2026-05-01T12:07:47Z</time></trkpt><trkpt lat="43.59983034224842" lon="12.59026386369353"><ele>276.0</ele><time>2026-05-01T12:08:01Z</time></trkpt><trkpt lat="43.599937525580465" lon="12.590270740699122"><ele>276.0</ele><time>2026-05-01T12:08:04Z</time></trkpt><trkpt lat="43.60005581260727" lon="12.590220395718186"><ele>276.0</ele><time>2026-05-01T12:08:06Z</time></trkpt><trkpt lat="43.60012532169351" lon="12.590170278315124"><ele>276.0</ele><time>2026-05-01T12:08:07Z</time></trkpt><trkpt lat="43.600207417453994" lon="12.590120892668596"><ele>276.0</ele><time>2026-05-01T12:08:08Z</time></trkpt><trkpt lat="43.60029317425504" lon="12.590082645280107"><ele>276.0</ele><time>2026-05-01T12:08:09Z</time></trkpt><trkpt lat="43.60038077768503" lon="12.590053428194933"><ele>276.0</ele><time>2026-05-01T12:08:10Z</time></trkpt><trkpt lat="43.60046705751712" lon="12.590016394428572"><ele>276.0</ele><time>2026-05-01T12:08:11Z</time></trkpt><trkpt lat="43.6005524240788" lon="12.589963077171346"><ele>276.6</ele><time>2026-05-01T12:08:12Z</time></trkpt><trkpt lat="43.600636092701606" lon="12.58989862366994"><ele>277.20000000000005</ele><time>2026-05-01T12:08:13Z</time></trkpt><trkpt lat="43.600721770980385" lon="12.589826916540286"><ele>277.79999999999995</ele><time>2026-05-01T12:08:14Z</time></trkpt><trkpt lat="43.600810173797804" lon="12.589761910002233"><ele>278.4</ele><time>2026-05-01T12:08:15Z</time></trkpt><trkpt lat="43.60090160491518" lon="12.58970002273294"><ele>279.0</ele><time>2026-05-01T12:08:16Z</time></trkpt><trkpt lat="43.60099736162291" lon="12.58965964596267"><ele>279.0</ele><time>2026-05-01T12:08:17Z</time></trkpt><trkpt lat="43.601093002933915" lon="12.589634126871626"><ele>279.0</ele><time>2026-05-01T12:08:18Z</time></trkpt><trkpt lat="43.601195355556186" lon="12.589615750571657"><ele>279.0</ele><time>2026-05-01T12:08:19Z</time></trkpt><trkpt lat="43.60129612864189" lon="12.589598196430424"><ele>279.0</ele><time>2026-05-01T12:08:20Z</time></trkpt><trkpt lat="43.601397432445495" lon="12.589576186266443"><ele>279.0</ele><time>2026-05-01T12:08:21Z</time></trkpt><trkpt lat="43.60149741620547" lon="12.589556018895427"><ele>279.1666666666667</ele><time>2026-05-01T12:08:22Z</time></trkpt><trkpt lat="43.601587722099524" lon="12.58952815717302"><ele>279.3333333333333</ele><time>2026-05-01T12:08:23Z</time></trkpt><trkpt lat="43.60168462009092" lon="12.58950066495999"><ele>279.5</ele><time>2026-05-01T12:08:24Z</time></trkpt><trkpt lat="43.60177026008439" lon="12.589456295093884"><ele>279.66666666666663</ele><time>2026-05-01T12:08:25Z</time></trkpt><trkpt lat="43.60184787435927" lon="12.589414974057803"><ele>279.8333333333333</ele><time>2026-05-01T12:08:26Z</time></trkpt><trkpt lat="43.60192556571254" lon="12.589380351922795"><ele>280.0</ele><time>2026-05-01T12:08:27Z</time></trkpt><trkpt lat="43.60200000338395" lon="12.589356455994697"><ele>277.4</ele><time>2026-05-01T12:08:28Z</time></trkpt><trkpt lat="43.6020715855657" lon="12.589353743892152"><ele>274.8</ele><time>2026-05-01T12:08:29Z</time></trkpt><trkpt lat="43.60214000330029" lon="12.589352187535336"><ele>272.2</ele><time>2026-05-01T12:08:30Z</time></trkpt><trkpt lat="43.6022658458935" lon="12.5893751707927"><ele>269.6</ele><time>2026-05-01T12:08:32.001Z</time></trkpt><trkpt lat="43.60237508655284" lon="12.58942710957844"><ele>267.0</ele><time>2026-05-01T12:08:34.001Z</time></trkpt><trkpt lat="43.60245245740555" lon="12.589546952399388"><ele>267.0</ele><time>2026-05-01T12:08:36.001Z</time></trkpt><trkpt lat="43.602514705894805" lon="12.589680964216685"><ele>267.0</ele><time>2026-05-01T12:08:38.001Z</time></trkpt><trkpt lat="43.60254458121522" lon="12.58976271426848"><ele>267.0</ele><time>2026-05-01T12:08:40.001Z</time></trkpt><trkpt lat="43.60261570793701" lon="12.589780810422111"><ele>267.0</ele><time>2026-05-01T12:09:02.999Z</time></trkpt><trkpt lat="43.602629725200735" lon="12.589663692130841"><ele>267.0</ele><time>2026-05-01T12:09:06.999Z</time></trkpt><trkpt lat="43.602570605982955" lon="12.589547236284249"><ele>267.0</ele><time>2026-05-01T12:09:08.999Z</time></trkpt><trkpt lat="43.6025066127427" lon="12.58938762442524"><ele>264.2</ele><time>2026-05-01T12:09:10.999Z</time></trkpt><trkpt lat="43.60246800798091" lon="12.589296307310805"><ele>261.4</ele><time>2026-05-01T12:09:12Z</time></trkpt><trkpt lat="43.60239205844434" lon="12.589112999883799"><ele>258.6</ele><time>2026-05-01T12:09:13Z</time></trkpt><trkpt lat="43.602333482007545" lon="12.58898808357615"><ele>255.8</ele><time>2026-05-01T12:09:14Z</time></trkpt><trkpt lat="43.602282253315536" lon="12.588872395696791"><ele>253.0</ele><time>2026-05-01T12:09:15Z</time></trkpt><trkpt lat="43.60223206051002" lon="12.588750598274629"><ele>252.4</ele><time>2026-05-01T12:09:16Z</time></trkpt><trkpt lat="43.60218572755797" lon="12.588628367716366"><ele>251.8</ele><time>2026-05-01T12:09:17Z</time></trkpt><trkpt lat="43.60214076932835" lon="12.588512343739902"><ele>251.2</ele><time>2026-05-01T12:09:18Z</time></trkpt><trkpt lat="43.602099730974025" lon="12.588404114462433"><ele>250.6</ele><time>2026-05-01T12:09:19Z</time></trkpt><trkpt lat="43.60206100385844" lon="12.588297132835267"><ele>250.0</ele><time>2026-05-01T12:09:20Z</time></trkpt><trkpt lat="43.602025802730616" lon="12.588186175006433"><ele>254.4</ele><time>2026-05-01T12:09:21Z</time></trkpt><trkpt lat="43.60199811380562" lon="12.588067659449061"><ele>258.8</ele><time>2026-05-01T12:09:22Z</time></trkpt><trkpt lat="43.60197668006526" lon="12.587939877322288"><ele>263.2</ele><time>2026-05-01T12:09:23Z</time></trkpt><trkpt lat="43.60196166453677" lon="12.587805677652476"><ele>267.6</ele><time>2026-05-01T12:09:24Z</time></trkpt><trkpt lat="43.6019536830038" lon="12.58766055084194"><ele>272.0</ele><time>2026-05-01T12:09:25Z</time></trkpt><trkpt lat="43.601952312840844" lon="12.587509467950659"><ele>273.25</ele><time>2026-05-01T12:09:26Z</time></trkpt><trkpt lat="43.60194403721359" lon="12.58735074822705"><ele>274.5</ele><time>2026-05-01T12:09:27Z</time></trkpt><trkpt lat="43.60192374443856" lon="12.587187693463362"><ele>275.75</ele><time>2026-05-01T12:09:28Z</time></trkpt><trkpt lat="43.60188958298722" lon="12.587023637875914"><ele>277.0</ele><time>2026-05-01T12:09:29Z</time></trkpt><trkpt lat="43.601846108209166" lon="12.58686140412431"><ele>273.75</ele><time>2026-05-01T12:09:30Z</time></trkpt><trkpt lat="43.601790124611874" lon="12.586702507313161"><ele>270.5</ele><time>2026-05-01T12:09:31Z</time></trkpt><trkpt lat="43.601720658833756" lon="12.586554991367313"><ele>267.25</ele><time>2026-05-01T12:09:32Z</time></trkpt><trkpt lat="43.601650665429524" lon="12.586421477816828"><ele>264.0</ele><time>2026-05-01T12:09:33Z</time></trkpt><trkpt lat="43.60158693082883" lon="12.586306192900478"><ele>264.0</ele><time>2026-05-01T12:09:34Z</time></trkpt><trkpt lat="43.60152341029651" lon="12.586202499148326"><ele>264.0</ele><time>2026-05-01T12:09:35Z</time></trkpt><trkpt lat="43.60147411638869" lon="12.586106546062297"><ele>264.0</ele><time>2026-05-01T12:09:36.001Z</time></trkpt><trkpt lat="43.60144876768015" lon="12.58601180977724"><ele>264.0</ele><time>2026-05-01T12:09:37.001Z</time></trkpt><trkpt lat="43.60143536012389" lon="12.5859135359036"><ele>264.0</ele><time>2026-05-01T12:09:38.001Z</time></trkpt><trkpt lat="43.60145931907816" lon="12.585808874343961"><ele>264.0</ele><time>2026-05-01T12:09:39.001Z</time></trkpt><trkpt lat="43.60149328590494" lon="12.585703360343283"><ele>263.0</ele><time>2026-05-01T12:09:40.001Z</time></trkpt><trkpt lat="43.60153110696314" lon="12.585597133970674"><ele>262.0</ele><time>2026-05-01T12:09:41.001Z</time></trkpt><trkpt lat="43.6015797594625" lon="12.585489500708452"><ele>261.0</ele><time>2026-05-01T12:09:42.001Z</time></trkpt><trkpt lat="43.601633050071015" lon="12.58537481391615"><ele>260.0</ele><time>2026-05-01T12:09:43.001Z</time></trkpt><trkpt lat="43.601686910026146" lon="12.585249380476347"><ele>259.0</ele><time>2026-05-01T12:09:44.001Z</time></trkpt><trkpt lat="43.60174234462783" lon="12.585115038291248"><ele>258.25</ele><time>2026-05-01T12:09:45.001Z</time></trkpt><trkpt lat="43.60180759068532" lon="12.584971198114177"><ele>257.5</ele><time>2026-05-01T12:09:46.001Z</time></trkpt><trkpt lat="43.60187722781936" lon="12.584811042052579"><ele>256.75</ele><time>2026-05-01T12:09:47.001Z</time></trkpt><trkpt lat="43.60195712702149" lon="12.58463842468723"><ele>256.0</ele><time>2026-05-01T12:09:48.001Z</time></trkpt><trkpt lat="43.60204112210151" lon="12.584447374058954"><ele>262.0</ele><time>2026-05-01T12:09:49.001Z</time></trkpt><trkpt lat="43.60211597829491" lon="12.584261962873375"><ele>268.0</ele><time>2026-05-01T12:09:50.001Z</time></trkpt><trkpt lat="43.602190340880576" lon="12.584078409328068"><ele>274.0</ele><time>2026-05-01T12:09:51.001Z</time></trkpt><trkpt lat="43.602268410761184" lon="12.583895310084381"><ele>274.0</ele><time>2026-05-01T12:09:52.001Z</time></trkpt><trkpt lat="43.602347568508634" lon="12.583715607942713"><ele>274.0</ele><time>2026-05-01T12:09:53.001Z</time></trkpt><trkpt lat="43.60242716794203" lon="12.583536359695335"><ele>274.0</ele><time>2026-05-01T12:09:54.001Z</time></trkpt><trkpt lat="43.602504177556014" lon="12.58335641458476"><ele>270.5</ele><time>2026-05-01T12:09:55.001Z</time></trkpt><trkpt lat="43.60257769126364" lon="12.58317677509482"><ele>267.0</ele><time>2026-05-01T12:09:56.001Z</time></trkpt><trkpt lat="43.60265520413023" lon="12.582999933742597"><ele>263.5</ele><time>2026-05-01T12:09:57.001Z</time></trkpt><trkpt lat="43.60273578409123" lon="12.582825459845179"><ele>260.0</ele><time>2026-05-01T12:09:58.001Z</time></trkpt><trkpt lat="43.602814988004155" lon="12.582654844109006"><ele>266.0</ele><time>2026-05-01T12:09:59.001Z</time></trkpt><trkpt lat="43.6028868656085" lon="12.582491721634835"><ele>272.0</ele><time>2026-05-01T12:10:00.001Z</time></trkpt><trkpt lat="43.60296068375861" lon="12.582334647668796"><ele>278.0</ele><time>2026-05-01T12:10:01.001Z</time></trkpt><trkpt lat="43.60303366836824" lon="12.582176734469666"><ele>284.0</ele><time>2026-05-01T12:10:02.001Z</time></trkpt><trkpt lat="43.60311092819179" lon="12.582024989407511"><ele>280.0</ele><time>2026-05-01T12:10:03.001Z</time></trkpt><trkpt lat="43.60319208829002" lon="12.581875637017149"><ele>276.0</ele><time>2026-05-01T12:10:04.001Z</time></trkpt><trkpt lat="43.603283496613734" lon="12.581730308277786"><ele>272.0</ele><time>2026-05-01T12:10:05.001Z</time></trkpt><trkpt lat="43.60337829010101" lon="12.581577658260494"><ele>268.0</ele><time>2026-05-01T12:10:06.001Z</time></trkpt><trkpt lat="43.6034773863278" lon="12.581421939595401"><ele>268.0</ele><time>2026-05-01T12:10:07.001Z</time></trkpt><trkpt lat="43.60357464572013" lon="12.581261219545894"><ele>268.0</ele><time>2026-05-01T12:10:08.001Z</time></trkpt><trkpt lat="43.60366307033156" lon="12.581117751212846"><ele>268.0</ele><time>2026-05-01T12:10:09.001Z</time></trkpt><trkpt lat="43.60374675789086" lon="12.58098582909704"><ele>268.0</ele><time>2026-05-01T12:10:10.001Z</time></trkpt><trkpt lat="43.60382450967805" lon="12.58086631067766"><ele>267.5</ele><time>2026-05-01T12:10:11.001Z</time></trkpt><trkpt lat="43.603903424434534" lon="12.580751358286681"><ele>267.0</ele><time>2026-05-01T12:10:12.001Z</time></trkpt><trkpt lat="43.60397642754632" lon="12.580631470912557"><ele>266.5</ele><time>2026-05-01T12:10:13.001Z</time></trkpt><trkpt lat="43.60405278842592" lon="12.580510945218736"><ele>266.0</ele><time>2026-05-01T12:10:14.001Z</time></trkpt><trkpt lat="43.60413189047854" lon="12.580387226897969"><ele>266.75</ele><time>2026-05-01T12:10:15.002Z</time></trkpt><trkpt lat="43.604214995132956" lon="12.58026909764456"><ele>267.5</ele><time>2026-05-01T12:10:16.002Z</time></trkpt><trkpt lat="43.60430220258455" lon="12.580154566649771"><ele>268.25</ele><time>2026-05-01T12:10:17.002Z</time></trkpt><trkpt lat="43.60439509665594" lon="12.580048204085974"><ele>269.0</ele><time>2026-05-01T12:10:18.002Z</time></trkpt><trkpt lat="43.60449671782301" lon="12.579948903900682"><ele>267.5</ele><time>2026-05-01T12:10:19.002Z</time></trkpt><trkpt lat="43.604601876812424" lon="12.579856220765212"><ele>266.0</ele><time>2026-05-01T12:10:20.002Z</time></trkpt><trkpt lat="43.604713080400664" lon="12.579768520244414"><ele>264.5</ele><time>2026-05-01T12:10:21.002Z</time></trkpt><trkpt lat="43.60482768403866" lon="12.579691697469634"><ele>263.0</ele><time>2026-05-01T12:10:22.002Z</time></trkpt><trkpt lat="43.60494458995916" lon="12.57962656468445"><ele>263.0</ele><time>2026-05-01T12:10:23.002Z</time></trkpt><trkpt lat="43.60506475191736" lon="12.579574019366047"><ele>263.0</ele><time>2026-05-01T12:10:24.002Z</time></trkpt><trkpt lat="43.60519147646131" lon="12.579547497622164"><ele>263.0</ele><time>2026-05-01T12:10:25.002Z</time></trkpt><trkpt lat="43.60532920883379" lon="12.579529868393166"><ele>263.0</ele><time>2026-05-01T12:10:26.002Z</time></trkpt><trkpt lat="43.60546628597783" lon="12.57951097469763"><ele>266.25</ele><time>2026-05-01T12:10:27.002Z</time></trkpt><trkpt lat="43.60560797522264" lon="12.57949400242278"><ele>269.5</ele><time>2026-05-01T12:10:28.002Z</time></trkpt><trkpt lat="43.60575337282226" lon="12.579479826138977"><ele>272.75</ele><time>2026-05-01T12:10:29.002Z</time></trkpt><trkpt lat="43.60589975244002" lon="12.579463860800624"><ele>276.0</ele><time>2026-05-01T12:10:30.002Z</time></trkpt><trkpt lat="43.6060492937557" lon="12.579447610967243"><ele>276.3333333333333</ele><time>2026-05-01T12:10:31.002Z</time></trkpt><trkpt lat="43.60620387750095" lon="12.579431212364556"><ele>276.66666666666663</ele><time>2026-05-01T12:10:32.002Z</time></trkpt><trkpt lat="43.606363120176454" lon="12.579416438264222"><ele>277.0</ele><time>2026-05-01T12:10:33.002Z</time></trkpt><trkpt lat="43.60652234774036" lon="12.579399125675906"><ele>277.0</ele><time>2026-05-01T12:10:34.002Z</time></trkpt><trkpt lat="43.60668531117278" lon="12.579378629730266"><ele>277.0</ele><time>2026-05-01T12:10:35.002Z</time></trkpt><trkpt lat="43.60684954491937" lon="12.579358519706972"><ele>277.0</ele><time>2026-05-01T12:10:36.002Z</time></trkpt><trkpt lat="43.60701576004274" lon="12.579337389108668"><ele>275.66666666666663</ele><time>2026-05-01T12:10:37.002Z</time></trkpt><trkpt lat="43.60719071976265" lon="12.579322767546152"><ele>274.3333333333333</ele><time>2026-05-01T12:10:38.002Z</time></trkpt><trkpt lat="43.60736595556431" lon="12.57930973829452"><ele>273.0</ele><time>2026-05-01T12:10:39.002Z</time></trkpt><trkpt lat="43.60754223034788" lon="12.579292411306179"><ele>273.0</ele><time>2026-05-01T12:10:40.002Z</time></trkpt><trkpt lat="43.60772135787291" lon="12.57927536476415"><ele>273.0</ele><time>2026-05-01T12:10:41.002Z</time></trkpt><trkpt lat="43.60790295159837" lon="12.579253990952152"><ele>273.0</ele><time>2026-05-01T12:10:42.002Z</time></trkpt><trkpt lat="43.60808358786231" lon="12.5792239364599"><ele>273.6666666666667</ele><time>2026-05-01T12:10:43.002Z</time></trkpt><trkpt lat="43.608263174462394" lon="12.579200315697177"><ele>274.33333333333337</ele><time>2026-05-01T12:10:44.002Z</time></trkpt><trkpt lat="43.608446241788755" lon="12.579170878843877"><ele>275.0</ele><time>2026-05-01T12:10:45.002Z</time></trkpt><trkpt lat="43.60863969371543" lon="12.579101808066273"><ele>276.6666666666667</ele><time>2026-05-01T12:10:46.002Z</time></trkpt><trkpt lat="43.60883416245421" lon="12.579005052963801"><ele>278.3333333333333</ele><time>2026-05-01T12:10:47.002Z</time></trkpt><trkpt lat="43.60899950312812" lon="12.57889526679172"><ele>280.0</ele><time>2026-05-01T12:10:48.002Z</time></trkpt><trkpt lat="43.60914446646411" lon="12.578771637652814"><ele>280.3333333333333</ele><time>2026-05-01T12:10:49.002Z</time></trkpt><trkpt lat="43.60928194914337" lon="12.578610792794583"><ele>280.6666666666667</ele><time>2026-05-01T12:10:50.002Z</time></trkpt><trkpt lat="43.60940794080069" lon="12.578415096554224"><ele>281.0</ele><time>2026-05-01T12:10:51.002Z</time></trkpt><trkpt lat="43.609527604924295" lon="12.578187500369417"><ele>278.0</ele><time>2026-05-01T12:10:52.002Z</time></trkpt><trkpt lat="43.60963677470207" lon="12.577915797227357"><ele>275.0</ele><time>2026-05-01T12:10:53.002Z</time></trkpt><trkpt lat="43.60974498407902" lon="12.577605777892707"><ele>274.5</ele><time>2026-05-01T12:10:54.002Z</time></trkpt><trkpt lat="43.60985171655474" lon="12.57728793490191"><ele>274.0</ele><time>2026-05-01T12:10:55.002Z</time></trkpt><trkpt lat="43.60995167734319" lon="12.576995830376207"><ele>275.0</ele><time>2026-05-01T12:10:56.002Z</time></trkpt><trkpt lat="43.61004430852013" lon="12.576724709166681"><ele>276.0</ele><time>2026-05-01T12:10:57.002Z</time></trkpt><trkpt lat="43.61012441616399" lon="12.576463667718972"><ele>277.0</ele><time>2026-05-01T12:10:58.003Z</time></trkpt><trkpt lat="43.61018849421684" lon="12.576212884785997"><ele>277.66666666666663</ele><time>2026-05-01T12:10:59.003Z</time></trkpt><trkpt lat="43.61023629045253" lon="12.57594706043195"><ele>278.3333333333333</ele><time>2026-05-01T12:11:00Z</time></trkpt><trkpt lat="43.61025788791166" lon="12.57565749588836"><ele>279.0</ele><time>2026-05-01T12:11:01Z</time></trkpt><trkpt lat="43.610264665586435" lon="12.575351536158765"><ele>282.0</ele><time>2026-05-01T12:11:02Z</time></trkpt><trkpt lat="43.6102514008382" lon="12.575022134933976"><ele>285.0</ele><time>2026-05-01T12:11:03Z</time></trkpt><trkpt lat="43.61022362520944" lon="12.574664374260063"><ele>285.0</ele><time>2026-05-01T12:11:04Z</time></trkpt><trkpt lat="43.61019656168541" lon="12.574291440754461"><ele>285.0</ele><time>2026-05-01T12:11:05Z</time></trkpt><trkpt lat="43.6101701741515" lon="12.5738963580013"><ele>283.0</ele><time>2026-05-01T12:11:06Z</time></trkpt><trkpt lat="43.610145767984946" lon="12.573503523611457"><ele>281.0</ele><time>2026-05-01T12:11:07Z</time></trkpt><trkpt lat="43.61011870387722" lon="12.573151227925424"><ele>280.5</ele><time>2026-05-01T12:11:08Z</time></trkpt><trkpt lat="43.61009653372244" lon="12.572822300487626"><ele>280.0</ele><time>2026-05-01T12:11:09Z</time></trkpt><trkpt lat="43.61007496862274" lon="12.572506282694665"><ele>280.0</ele><time>2026-05-01T12:11:10Z</time></trkpt><trkpt lat="43.61005206279725" lon="12.572197173013755"><ele>280.0</ele><time>2026-05-01T12:11:11Z</time></trkpt><trkpt lat="43.6100229256635" lon="12.571892460658106"><ele>280.0</ele><time>2026-05-01T12:11:12Z</time></trkpt><trkpt lat="43.610006751196366" lon="12.57157823239146"><ele>280.5</ele><time>2026-05-01T12:11:13Z</time></trkpt><trkpt lat="43.609997119776274" lon="12.571264455774724"><ele>281.0</ele><time>2026-05-01T12:11:14Z</time></trkpt><trkpt lat="43.6100274779618" lon="12.570952457850957"><ele>281.0</ele><time>2026-05-01T12:11:15Z</time></trkpt><trkpt lat="43.61007962476088" lon="12.570668264921919"><ele>281.0</ele><time>2026-05-01T12:11:16Z</time></trkpt><trkpt lat="43.610153044442306" lon="12.57039558643827"><ele>281.0</ele><time>2026-05-01T12:11:17Z</time></trkpt><trkpt lat="43.61024944503269" lon="12.570127476555676"><ele>281.6666666666667</ele><time>2026-05-01T12:11:18Z</time></trkpt><trkpt lat="43.610369106975845" lon="12.569869837288753"><ele>282.3333333333333</ele><time>2026-05-01T12:11:19Z</time></trkpt><trkpt lat="43.61049804285851" lon="12.569616317345117"><ele>283.0</ele><time>2026-05-01T12:11:20Z</time></trkpt><trkpt lat="43.610596410257436" lon="12.569386306099453"><ele>283.0</ele><time>2026-05-01T12:11:21Z</time></trkpt><trkpt lat="43.61066545994854" lon="12.569165145680383"><ele>283.0</ele><time>2026-05-01T12:11:22Z</time></trkpt><trkpt lat="43.61070126876732" lon="12.5689490744656"><ele>283.0</ele><time>2026-05-01T12:11:23Z</time></trkpt><trkpt lat="43.61073985749471" lon="12.568739782057435"><ele>286.0</ele><time>2026-05-01T12:11:24Z</time></trkpt><trkpt lat="43.60936797355676" lon="12.568628790156605"><ele>286.0</ele><time>2026-05-01T12:11:25Z</time></trkpt><trkpt lat="43.60919377582841" lon="12.568369811122222"><ele>286.0</ele><time>2026-05-01T12:11:26Z</time></trkpt><trkpt lat="43.60902262674091" lon="12.568055101559077"><ele>283.5</ele><time>2026-05-01T12:11:27Z</time></trkpt><trkpt lat="43.60884333410321" lon="12.567706629091875"><ele>281.0</ele><time>2026-05-01T12:11:28Z</time></trkpt><trkpt lat="43.608659701050016" lon="12.567379196992219"><ele>285.0</ele><time>2026-05-01T12:11:29Z</time></trkpt><trkpt lat="43.6084681971971" lon="12.567056027182518"><ele>289.0</ele><time>2026-05-01T12:11:30Z</time></trkpt><trkpt lat="43.60829550621352" lon="12.566768427373399"><ele>289.0</ele><time>2026-05-01T12:11:31Z</time></trkpt><trkpt lat="43.608142434571654" lon="12.566494520086593"><ele>289.0</ele><time>2026-05-01T12:11:32Z</time></trkpt><trkpt lat="43.608000182269194" lon="12.566223558099145"><ele>286.0</ele><time>2026-05-01T12:11:33Z</time></trkpt><trkpt lat="43.60787405315111" lon="12.565933175169993"><ele>283.0</ele><time>2026-05-01T12:11:34Z</time></trkpt><trkpt lat="43.607762437432406" lon="12.56561670882011"><ele>288.0</ele><time>2026-05-01T12:11:35Z</time></trkpt><trkpt lat="43.60766463086858" lon="12.565283385335986"><ele>293.0</ele><time>2026-05-01T12:11:36Z</time></trkpt><trkpt lat="43.607569184276855" lon="12.564940312332599"><ele>293.0</ele><time>2026-05-01T12:11:37Z</time></trkpt><trkpt lat="43.60746186176251" lon="12.564585736932175"><ele>293.0</ele><time>2026-05-01T12:11:38Z</time></trkpt><trkpt lat="43.607341518062604" lon="12.564222557941859"><ele>291.0</ele><time>2026-05-01T12:11:39.001Z</time></trkpt><trkpt lat="43.60722082968849" lon="12.563832142563625"><ele>289.0</ele><time>2026-05-01T12:11:40.001Z</time></trkpt><trkpt lat="43.60709928973701" lon="12.563417461641988"><ele>291.0</ele><time>2026-05-01T12:11:41.001Z</time></trkpt><trkpt lat="43.60696914787972" lon="12.562993734147232"><ele>293.0</ele><time>2026-05-01T12:11:42.001Z</time></trkpt><trkpt lat="43.60684227386131" lon="12.56258510383739"><ele>293.0</ele><time>2026-05-01T12:11:43.001Z</time></trkpt><trkpt lat="43.60671492942573" lon="12.562162535203402"><ele>293.0</ele><time>2026-05-01T12:11:44.001Z</time></trkpt><trkpt lat="43.60659724788053" lon="12.56177246728494"><ele>291.5</ele><time>2026-05-01T12:11:45.001Z</time></trkpt><trkpt lat="43.60648928286131" lon="12.561406702381284"><ele>290.0</ele><time>2026-05-01T12:11:46.001Z</time></trkpt><trkpt lat="43.60638625964198" lon="12.561062217808175"><ele>289.0</ele><time>2026-05-01T12:11:47.001Z</time></trkpt><trkpt lat="43.606287141957566" lon="12.560742507267765"><ele>288.0</ele><time>2026-05-01T12:11:48.001Z</time></trkpt><trkpt lat="43.606197361580875" lon="12.560449166259742"><ele>289.5</ele><time>2026-05-01T12:11:49.001Z</time></trkpt><trkpt lat="43.60609920926301" lon="12.560163400865797"><ele>291.0</ele><time>2026-05-01T12:11:50.001Z</time></trkpt><trkpt lat="43.605969349012824" lon="12.559893236232954"><ele>291.0</ele><time>2026-05-01T12:11:51.001Z</time></trkpt><trkpt lat="43.605825581536756" lon="12.559627683800219"><ele>291.0</ele><time>2026-05-01T12:11:52.001Z</time></trkpt><trkpt lat="43.60567741109134" lon="12.55936642009778"><ele>289.5</ele><time>2026-05-01T12:11:53.001Z</time></trkpt><trkpt lat="43.60553459881239" lon="12.55909887977873"><ele>288.0</ele><time>2026-05-01T12:11:54.001Z</time></trkpt><trkpt lat="43.60540208592871" lon="12.558826866443438"><ele>283.5</ele><time>2026-05-01T12:11:55.001Z</time></trkpt><trkpt lat="43.605270154233736" lon="12.558560131152547"><ele>279.0</ele><time>2026-05-01T12:11:56.001Z</time></trkpt><trkpt lat="43.605140425027805" lon="12.558299945338096"><ele>279.0</ele><time>2026-05-01T12:11:57.001Z</time></trkpt><trkpt lat="43.60501591082115" lon="12.558058678503288"><ele>279.0</ele><time>2026-05-01T12:11:58.001Z</time></trkpt><trkpt lat="43.60488730077695" lon="12.55783944095464"><ele>279.0</ele><time>2026-05-01T12:11:59.001Z</time></trkpt><trkpt lat="43.60473679511087" lon="12.55766026007899"><ele>282.0</ele><time>2026-05-01T12:12:00.001Z</time></trkpt><trkpt lat="43.604565893466805" lon="12.557490817379446"><ele>285.0</ele><time>2026-05-01T12:12:01.001Z</time></trkpt><trkpt lat="43.60437025336061" lon="12.557351064975377"><ele>288.0</ele><time>2026-05-01T12:12:02.001Z</time></trkpt><trkpt lat="43.60415624275132" lon="12.557242864722593"><ele>288.0</ele><time>2026-05-01T12:12:03.001Z</time></trkpt><trkpt lat="43.60392971956883" lon="12.557152382904466"><ele>288.0</ele><time>2026-05-01T12:12:04.001Z</time></trkpt><trkpt lat="43.60371014562002" lon="12.557044023659783"><ele>289.0</ele><time>2026-05-01T12:12:05.001Z</time></trkpt><trkpt lat="43.6034953184745" lon="12.556905618805507"><ele>290.0</ele><time>2026-05-01T12:12:06.001Z</time></trkpt><trkpt lat="43.603289906259114" lon="12.556741254882347"><ele>290.0</ele><time>2026-05-01T12:12:07.001Z</time></trkpt><trkpt lat="43.603097432252284" lon="12.556549243278358"><ele>290.0</ele><time>2026-05-01T12:12:08.001Z</time></trkpt><trkpt lat="43.60291956701839" lon="12.556337024647114"><ele>289.5</ele><time>2026-05-01T12:12:09.001Z</time></trkpt><trkpt lat="43.60273733746112" lon="12.556130095296643"><ele>289.0</ele><time>2026-05-01T12:12:10.001Z</time></trkpt><trkpt lat="43.60255450709952" lon="12.555929386491757"><ele>289.0</ele><time>2026-05-01T12:12:11.001Z</time></trkpt><trkpt lat="43.6023718945723" lon="12.555729883965048"><ele>289.0</ele><time>2026-05-01T12:12:12.001Z</time></trkpt><trkpt lat="43.60219375579864" lon="12.55553091237737"><ele>288.0</ele><time>2026-05-01T12:12:13.001Z</time></trkpt><trkpt lat="43.602019994297194" lon="12.555324170166168"><ele>287.0</ele><time>2026-05-01T12:12:14.001Z</time></trkpt><trkpt lat="43.6018415434902" lon="12.555123707112019"><ele>287.0</ele><time>2026-05-01T12:12:15.001Z</time></trkpt><trkpt lat="43.601658370091975" lon="12.55493268101245"><ele>287.0</ele><time>2026-05-01T12:12:16.001Z</time></trkpt><trkpt lat="43.601472949369956" lon="12.554752471647763"><ele>287.0</ele><time>2026-05-01T12:12:17.001Z</time></trkpt><trkpt lat="43.601289171551464" lon="12.554579163341145"><ele>287.0</ele><time>2026-05-01T12:12:18.001Z</time></trkpt><trkpt lat="43.60110623741787" lon="12.554409643196148"><ele>287.0</ele><time>2026-05-01T12:12:19.001Z</time></trkpt><trkpt lat="43.60092345586501" lon="12.554239800262197"><ele>288.5</ele><time>2026-05-01T12:12:20.002Z</time></trkpt><trkpt lat="43.600738101846" lon="12.554069738665914"><ele>290.0</ele><time>2026-05-01T12:12:21.002Z</time></trkpt><trkpt lat="43.6005503492054" lon="12.553890967067662"><ele>290.0</ele><time>2026-05-01T12:12:22.002Z</time></trkpt><trkpt lat="43.60036052922422" lon="12.553706577588915"><ele>290.0</ele><time>2026-05-01T12:12:23.002Z</time></trkpt><trkpt lat="43.60017707820448" lon="12.553527164226853"><ele>295.0</ele><time>2026-05-01T12:12:24.002Z</time></trkpt><trkpt lat="43.6000017190489" lon="12.55333749595117"><ele>300.0</ele><time>2026-05-01T12:12:25.002Z</time></trkpt><trkpt lat="43.599848773201785" lon="12.553089197749616"><ele>311.0</ele><time>2026-05-01T12:12:26.002Z</time></trkpt><trkpt lat="43.59968624569961" lon="12.552823739208527"><ele>322.0</ele><time>2026-05-01T12:12:27.002Z</time></trkpt><trkpt lat="43.59954412993426" lon="12.55249318183276"><ele>316.5</ele><time>2026-05-01T12:12:28.002Z</time></trkpt><trkpt lat="43.59940843332673" lon="12.552145436580632"><ele>311.0</ele><time>2026-05-01T12:12:29.002Z</time></trkpt><trkpt lat="43.59928366162724" lon="12.55181802034051"><ele>311.0</ele><time>2026-05-01T12:12:30.002Z</time></trkpt><trkpt lat="43.599163783325174" lon="12.55152121075921"><ele>311.0</ele><time>2026-05-01T12:12:31.002Z</time></trkpt><trkpt lat="43.599050158861836" lon="12.551251012299476"><ele>316.0</ele><time>2026-05-01T12:12:32.002Z</time></trkpt><trkpt lat="43.598935803052576" lon="12.551006222760824"><ele>321.0</ele><time>2026-05-01T12:12:33.002Z</time></trkpt><trkpt lat="43.59882393228898" lon="12.550816302950357"><ele>326.0</ele><time>2026-05-01T12:12:34.002Z</time></trkpt><trkpt lat="43.59868918023404" lon="12.550649616145026"><ele>326.6666666666667</ele><time>2026-05-01T12:12:35.002Z</time></trkpt><trkpt lat="43.59851555707572" lon="12.5505220293434"><ele>327.3333333333333</ele><time>2026-05-01T12:12:36.002Z</time></trkpt><trkpt lat="43.598312106613065" lon="12.550412992022"><ele>328.0</ele><time>2026-05-01T12:12:37.002Z</time></trkpt><trkpt lat="43.59809242259727" lon="12.550342428454538"><ele>328.0</ele><time>2026-05-01T12:12:38.002Z</time></trkpt><trkpt lat="43.59785957464926" lon="12.550287282924703"><ele>328.0</ele><time>2026-05-01T12:12:39.002Z</time></trkpt><trkpt lat="43.59764494497909" lon="12.550196117914748"><ele>322.5</ele><time>2026-05-01T12:12:40.002Z</time></trkpt><trkpt lat="43.59743947389738" lon="12.550131790009468"><ele>317.0</ele><time>2026-05-01T12:12:41.002Z</time></trkpt><trkpt lat="43.59721274372067" lon="12.550259127131481"><ele>317.0</ele><time>2026-05-01T12:12:42.002Z</time></trkpt><trkpt lat="43.59701601255594" lon="12.550299035255236"><ele>317.0</ele><time>2026-05-01T12:12:43.002Z</time></trkpt><trkpt lat="43.59683326420578" lon="12.550304115055683"><ele>317.0</ele><time>2026-05-01T12:12:44.002Z</time></trkpt><trkpt lat="43.596683953077054" lon="12.550238013424448"><ele>315.0</ele><time>2026-05-01T12:12:45.002Z</time></trkpt><trkpt lat="43.59654072433726" lon="12.550157737592016"><ele>313.0</ele><time>2026-05-01T12:12:46.002Z</time></trkpt><trkpt lat="43.59639696925381" lon="12.550024633541762"><ele>311.0</ele><time>2026-05-01T12:12:47.002Z</time></trkpt><trkpt lat="43.59624478287058" lon="12.549845269860615"><ele>307.6666666666667</ele><time>2026-05-01T12:12:48.002Z</time></trkpt><trkpt lat="43.596080560889824" lon="12.549644375755694"><ele>304.3333333333333</ele><time>2026-05-01T12:12:49.002Z</time></trkpt><trkpt lat="43.59591222273251" lon="12.549430092913465"><ele>301.0</ele><time>2026-05-01T12:12:50.002Z</time></trkpt><trkpt lat="43.59574863955861" lon="12.549185285769239"><ele>312.0</ele><time>2026-05-01T12:12:51.002Z</time></trkpt><trkpt lat="43.595594094340534" lon="12.548894820658347"><ele>323.0</ele><time>2026-05-01T12:12:52.002Z</time></trkpt><trkpt lat="43.59543728456731" lon="12.548591026631113"><ele>315.5</ele><time>2026-05-01T12:12:53.002Z</time></trkpt><trkpt lat="43.595305306940595" lon="12.548323173469612"><ele>308.0</ele><time>2026-05-01T12:12:54.002Z</time></trkpt><trkpt lat="43.5951913484908" lon="12.548046932469216"><ele>313.5</ele><time>2026-05-01T12:12:55.002Z</time></trkpt><trkpt lat="43.59509434046857" lon="12.547758671866514"><ele>319.0</ele><time>2026-05-01T12:12:56.002Z</time></trkpt><trkpt lat="43.595015099483874" lon="12.547456448610287"><ele>319.0</ele><time>2026-05-01T12:12:57.002Z</time></trkpt><trkpt lat="43.594938859997264" lon="12.547167903712134"><ele>319.0</ele><time>2026-05-01T12:12:58.002Z</time></trkpt><trkpt lat="43.594862618635645" lon="12.546914878632428"><ele>319.0</ele><time>2026-05-01T12:12:59.002Z</time></trkpt><trkpt lat="43.594782515152566" lon="12.54667613250784"><ele>316.0</ele><time>2026-05-01T12:13:00.002Z</time></trkpt><trkpt lat="43.59467628732082" lon="12.546432640018036"><ele>313.0</ele><time>2026-05-01T12:13:01.002Z</time></trkpt><trkpt lat="43.59453317770203" lon="12.54618860761917"><ele>310.0</ele><time>2026-05-01T12:13:02.003Z</time></trkpt><trkpt lat="43.59436255810583" lon="12.545940213955122"><ele>310.0</ele><time>2026-05-01T12:13:03.003Z</time></trkpt><trkpt lat="43.59418409133024" lon="12.545664900030289"><ele>310.0</ele><time>2026-05-01T12:13:04.003Z</time></trkpt><trkpt lat="43.593995032838855" lon="12.545369704727156"><ele>308.5</ele><time>2026-05-01T12:13:05.003Z</time></trkpt><trkpt lat="43.593795468501426" lon="12.545062221281063"><ele>307.0</ele><time>2026-05-01T12:13:06Z</time></trkpt><trkpt lat="43.59358681787172" lon="12.544749509612597"><ele>308.0</ele><time>2026-05-01T12:13:07Z</time></trkpt><trkpt lat="43.59338990706541" lon="12.54445004324742"><ele>309.0</ele><time>2026-05-01T12:13:08Z</time></trkpt><trkpt lat="43.59320214176348" lon="12.544176288806097"><ele>309.0</ele><time>2026-05-01T12:13:09Z</time></trkpt><trkpt lat="43.59302969527121" lon="12.543908347938519"><ele>309.0</ele><time>2026-05-01T12:13:10Z</time></trkpt><trkpt lat="43.59286771242802" lon="12.543653043494528"><ele>309.0</ele><time>2026-05-01T12:13:11Z</time></trkpt><trkpt lat="43.59271505496489" lon="12.543405193100698"><ele>309.0</ele><time>2026-05-01T12:13:12Z</time></trkpt><trkpt lat="43.592583595960186" lon="12.54316308558179"><ele>309.0</ele><time>2026-05-01T12:13:13Z</time></trkpt><trkpt lat="43.592474390925695" lon="12.542892160795496"><ele>309.0</ele><time>2026-05-01T12:13:14Z</time></trkpt><trkpt lat="43.592381643851205" lon="12.542585545320486"><ele>309.5</ele><time>2026-05-01T12:13:15Z</time></trkpt><trkpt lat="43.592316296597296" lon="12.542265792491055"><ele>310.0</ele><time>2026-05-01T12:13:16Z</time></trkpt><trkpt lat="43.59228503728329" lon="12.541947528011761"><ele>310.0</ele><time>2026-05-01T12:13:17Z</time></trkpt><trkpt lat="43.592277594354655" lon="12.541613770615731"><ele>310.0</ele><time>2026-05-01T12:13:18Z</time></trkpt><trkpt lat="43.59229965853918" lon="12.541264245414508"><ele>313.0</ele><time>2026-05-01T12:13:19Z</time></trkpt><trkpt lat="43.59232284231941" lon="12.540897160122675"><ele>316.0</ele><time>2026-05-01T12:13:20Z</time></trkpt><trkpt lat="43.59234614556819" lon="12.540515154613283"><ele>318.0</ele><time>2026-05-01T12:13:21Z</time></trkpt><trkpt lat="43.592367178446" lon="12.540110175413007"><ele>320.0</ele><time>2026-05-01T12:13:22Z</time></trkpt><trkpt lat="43.59238768957519" lon="12.53968985102797"><ele>315.5</ele><time>2026-05-01T12:13:23Z</time></trkpt><trkpt lat="43.592406410807875" lon="12.539281369464385"><ele>311.0</ele><time>2026-05-01T12:13:24Z</time></trkpt><trkpt lat="43.59242786196099" lon="12.53890976167065"><ele>312.0</ele><time>2026-05-01T12:13:25Z</time></trkpt><trkpt lat="43.592445329487816" lon="12.538566852150923"><ele>313.0</ele><time>2026-05-01T12:13:26Z</time></trkpt><trkpt lat="43.59245602035891" lon="12.538232224100579"><ele>313.0</ele><time>2026-05-01T12:13:27Z</time></trkpt><trkpt lat="43.59245909963175" lon="12.537887575209261"><ele>313.0</ele><time>2026-05-01T12:13:28Z</time></trkpt><trkpt lat="43.59244475886913" lon="12.53753284723054"><ele>316.5</ele><time>2026-05-01T12:13:29Z</time></trkpt><trkpt lat="43.59241582341091" lon="12.537182867497581"><ele>320.0</ele><time>2026-05-01T12:13:30Z</time></trkpt><trkpt lat="43.592388254079474" lon="12.536808588161806"><ele>320.0</ele><time>2026-05-01T12:13:31Z</time></trkpt><trkpt lat="43.5923729427045" lon="12.536461282039978"><ele>320.0</ele><time>2026-05-01T12:13:32.001Z</time></trkpt><trkpt lat="43.59235028471614" lon="12.53614774857958"><ele>320.0</ele><time>2026-05-01T12:13:33.001Z</time></trkpt><trkpt lat="43.59231509423048" lon="12.53584931368214"><ele>320.0</ele><time>2026-05-01T12:13:34.001Z</time></trkpt><trkpt lat="43.59225966937534" lon="12.535570358593114"><ele>320.0</ele><time>2026-05-01T12:13:35.001Z</time></trkpt><trkpt lat="43.59217395370683" lon="12.535327182521375"><ele>323.33333333333337</ele><time>2026-05-01T12:13:36.001Z</time></trkpt><trkpt lat="43.5920660010135" lon="12.53511315901088"><ele>326.6666666666667</ele><time>2026-05-01T12:13:37.001Z</time></trkpt><trkpt lat="43.59193001160747" lon="12.534912616093935"><ele>330.0</ele><time>2026-05-01T12:13:38.001Z</time></trkpt><trkpt lat="43.591760292176346" lon="12.534728167074284"><ele>330.0</ele><time>2026-05-01T12:13:39.001Z</time></trkpt><trkpt lat="43.59158974855569" lon="12.534569949783165"><ele>330.0</ele><time>2026-05-01T12:13:40.001Z</time></trkpt><trkpt lat="43.59139150204835" lon="12.534444897457552"><ele>330.0</ele><time>2026-05-01T12:13:41.001Z</time></trkpt><trkpt lat="43.59117178873401" lon="12.53438583060077"><ele>329.0</ele><time>2026-05-01T12:13:42.001Z</time></trkpt><trkpt lat="43.59094328861417" lon="12.53430498871158"><ele>328.0</ele><time>2026-05-01T12:13:43.001Z</time></trkpt><trkpt lat="43.59075869967883" lon="12.534213588250893"><ele>327.0</ele><time>2026-05-01T12:13:44.001Z</time></trkpt><trkpt lat="43.59059086466609" lon="12.534084214035797"><ele>327.0</ele><time>2026-05-01T12:13:45.001Z</time></trkpt><trkpt lat="43.59044340630965" lon="12.533911618091079"><ele>327.0</ele><time>2026-05-01T12:13:46.001Z</time></trkpt><trkpt lat="43.590302056711096" lon="12.533684315296384"><ele>327.0</ele><time>2026-05-01T12:13:47.001Z</time></trkpt><trkpt lat="43.59021057596038" lon="12.533412149855781"><ele>329.0</ele><time>2026-05-01T12:13:48.001Z</time></trkpt><trkpt lat="43.59012683777364" lon="12.533112285664668"><ele>331.0</ele><time>2026-05-01T12:13:49.001Z</time></trkpt><trkpt lat="43.590048805825845" lon="12.532846057483045"><ele>333.0</ele><time>2026-05-01T12:13:50.001Z</time></trkpt><trkpt lat="43.589953729934024" lon="12.532611413060593"><ele>328.6666666666667</ele><time>2026-05-01T12:13:51.001Z</time></trkpt><trkpt lat="43.589831372019795" lon="12.532398326532508"><ele>324.33333333333337</ele><time>2026-05-01T12:13:52.001Z</time></trkpt><trkpt lat="43.58968085710037" lon="12.532217816152102"><ele>320.0</ele><time>2026-05-01T12:13:53.001Z</time></trkpt><trkpt lat="43.589485741321035" lon="12.53206176258052"><ele>328.0</ele><time>2026-05-01T12:13:54.001Z</time></trkpt><trkpt lat="43.589272482603185" lon="12.531959663244331"><ele>336.0</ele><time>2026-05-01T12:13:55.001Z</time></trkpt><trkpt lat="43.5890531123176" lon="12.531896768440658"><ele>336.0</ele><time>2026-05-01T12:13:56.001Z</time></trkpt><trkpt lat="43.58883556892515" lon="12.531841515125505"><ele>336.0</ele><time>2026-05-01T12:13:57.001Z</time></trkpt><trkpt lat="43.588647258682734" lon="12.53176884051267"><ele>336.0</ele><time>2026-05-01T12:13:58.001Z</time></trkpt><trkpt lat="43.588482121608855" lon="12.531684291403277"><ele>335.3333333333333</ele><time>2026-05-01T12:13:59.001Z</time></trkpt><trkpt lat="43.58832886555303" lon="12.531583196966588"><ele>334.66666666666663</ele><time>2026-05-01T12:14:00.001Z</time></trkpt><trkpt lat="43.58819893000515" lon="12.531453003562685"><ele>334.0</ele><time>2026-05-01T12:14:01.001Z</time></trkpt><trkpt lat="43.588084328104316" lon="12.531285497973544"><ele>332.3333333333333</ele><time>2026-05-01T12:14:02.001Z</time></trkpt><trkpt lat="43.587979360343425" lon="12.531114583139725"><ele>330.6666666666667</ele><time>2026-05-01T12:14:03.001Z</time></trkpt><trkpt lat="43.58788451048131" lon="12.53094363636465"><ele>329.0</ele><time>2026-05-01T12:14:04.001Z</time></trkpt><trkpt lat="43.58778431712822" lon="12.530782857319872"><ele>330.0</ele><time>2026-05-01T12:14:05.001Z</time></trkpt><trkpt lat="43.58768116213879" lon="12.530638845825582"><ele>331.0</ele><time>2026-05-01T12:14:06.001Z</time></trkpt><trkpt lat="43.5875692296614" lon="12.530516584071288"><ele>332.0</ele><time>2026-05-01T12:14:07.001Z</time></trkpt><trkpt lat="43.58744745163397" lon="12.530406659769147"><ele>333.0</ele><time>2026-05-01T12:14:08.001Z</time></trkpt><trkpt lat="43.58731253425215" lon="12.530310019837218"><ele>333.0</ele><time>2026-05-01T12:14:09.001Z</time></trkpt><trkpt lat="43.587165166475486" lon="12.53020840992304"><ele>333.0</ele><time>2026-05-01T12:14:10.001Z</time></trkpt><trkpt lat="43.587016048707746" lon="12.530093709701621"><ele>333.0</ele><time>2026-05-01T12:14:11.001Z</time></trkpt><trkpt lat="43.586847117389944" lon="12.529987039335728"><ele>330.0</ele><time>2026-05-01T12:14:12.001Z</time></trkpt><trkpt lat="43.586675942732676" lon="12.529875188889148"><ele>327.0</ele><time>2026-05-01T12:14:13.001Z</time></trkpt><trkpt lat="43.58649725565155" lon="12.529757295622794"><ele>324.0</ele><time>2026-05-01T12:14:14.001Z</time></trkpt><trkpt lat="43.5863190483311" lon="12.529623204572726"><ele>324.6666666666667</ele><time>2026-05-01T12:14:15.001Z</time></trkpt><trkpt lat="43.58615965996622" lon="12.529453501474066"><ele>325.33333333333337</ele><time>2026-05-01T12:14:16.002Z</time></trkpt><trkpt lat="43.58602724975095" lon="12.52924635039747"><ele>326.0</ele><time>2026-05-01T12:14:17.002Z</time></trkpt><trkpt lat="43.58591705171817" lon="12.529017232465254"><ele>326.0</ele><time>2026-05-01T12:14:18.002Z</time></trkpt><trkpt lat="43.5858245667754" lon="12.528776641735607"><ele>326.0</ele><time>2026-05-01T12:14:19.002Z</time></trkpt><trkpt lat="43.58575346258913" lon="12.528505189437519"><ele>326.0</ele><time>2026-05-01T12:14:20.002Z</time></trkpt><trkpt lat="43.585705272211364" lon="12.528210319665622"><ele>327.5</ele><time>2026-05-01T12:14:21.002Z</time></trkpt><trkpt lat="43.5856767863871" lon="12.527884306865348"><ele>329.0</ele><time>2026-05-01T12:14:22.002Z</time></trkpt><trkpt lat="43.58565504003997" lon="12.527540024618542"><ele>329.0</ele><time>2026-05-01T12:14:23.002Z</time></trkpt><trkpt lat="43.5856257267403" lon="12.527184348469804"><ele>329.0</ele><time>2026-05-01T12:14:24.002Z</time></trkpt><trkpt lat="43.58559207525143" lon="12.526805412134618"><ele>329.5</ele><time>2026-05-01T12:14:25.002Z</time></trkpt><trkpt lat="43.58556445049078" lon="12.526435603652232"><ele>330.0</ele><time>2026-05-01T12:14:26.002Z</time></trkpt><trkpt lat="43.58553827742567" lon="12.526102492764128"><ele>329.0</ele><time>2026-05-01T12:14:27.002Z</time></trkpt><trkpt lat="43.585521481391446" lon="12.525773543022659"><ele>328.0</ele><time>2026-05-01T12:14:28.002Z</time></trkpt><trkpt lat="43.58541737163507" lon="12.525487914206993"><ele>333.3333333333333</ele><time>2026-05-01T12:14:29.002Z</time></trkpt><trkpt lat="43.585340646830936" lon="12.525227502605164"><ele>338.6666666666667</ele><time>2026-05-01T12:14:30.002Z</time></trkpt><trkpt lat="43.58524120470348" lon="12.524981066386864"><ele>344.0</ele><time>2026-05-01T12:14:31.002Z</time></trkpt><trkpt lat="43.58511210658402" lon="12.524761154283759"><ele>338.5</ele><time>2026-05-01T12:14:32.002Z</time></trkpt><trkpt lat="43.58493002452694" lon="12.524558231247704"><ele>333.0</ele><time>2026-05-01T12:14:33.002Z</time></trkpt><trkpt lat="43.584745925272344" lon="12.524353123261614"><ele>333.0</ele><time>2026-05-01T12:14:34.002Z</time></trkpt><trkpt lat="43.58458213200339" lon="12.524140797851983"><ele>333.0</ele><time>2026-05-01T12:14:35.002Z</time></trkpt><trkpt lat="43.5844488108431" lon="12.5239277299002"><ele>333.0</ele><time>2026-05-01T12:14:36.002Z</time></trkpt><trkpt lat="43.58437471014279" lon="12.523666092359996"><ele>342.0</ele><time>2026-05-01T12:14:37.002Z</time></trkpt><trkpt lat="43.58430180346125" lon="12.52337944620042"><ele>351.0</ele><time>2026-05-01T12:14:38.002Z</time></trkpt><trkpt lat="43.58422464518372" lon="12.523077703024356"><ele>347.5</ele><time>2026-05-01T12:14:39.002Z</time></trkpt><trkpt lat="43.58414629313738" lon="12.522768273887426"><ele>344.0</ele><time>2026-05-01T12:14:40.002Z</time></trkpt><trkpt lat="43.58406603872092" lon="12.522459969700503"><ele>344.0</ele><time>2026-05-01T12:14:41.002Z</time></trkpt><trkpt lat="43.583993874740344" lon="12.522167186916844"><ele>344.0</ele><time>2026-05-01T12:14:42.002Z</time></trkpt><trkpt lat="43.58395253035683" lon="12.521916625145897"><ele>344.0</ele><time>2026-05-01T12:14:43.002Z</time></trkpt><trkpt lat="43.58394608688688" lon="12.52170425714048"><ele>343.6666666666667</ele><time>2026-05-01T12:14:44.002Z</time></trkpt><trkpt lat="43.58396148783054" lon="12.521482209661672"><ele>343.3333333333333</ele><time>2026-05-01T12:14:45.002Z</time></trkpt><trkpt lat="43.58397528013885" lon="12.521244384975498"><ele>343.0</ele><time>2026-05-01T12:14:46.002Z</time></trkpt><trkpt lat="43.58399128693792" lon="12.520969727097789"><ele>343.0</ele><time>2026-05-01T12:14:47.002Z</time></trkpt><trkpt lat="43.584007473762114" lon="12.520684787183901"><ele>343.0</ele><time>2026-05-01T12:14:48.002Z</time></trkpt><trkpt lat="43.58402440779607" lon="12.520397727857109"><ele>343.0</ele><time>2026-05-01T12:14:49.002Z</time></trkpt><trkpt lat="43.58406528845922" lon="12.520143596464036"><ele>343.66666666666663</ele><time>2026-05-01T12:14:50.002Z</time></trkpt><trkpt lat="43.58413893771619" lon="12.519890760431137"><ele>344.3333333333333</ele><time>2026-05-01T12:14:51.002Z</time></trkpt><trkpt lat="43.584208135634995" lon="12.519628073192225"><ele>345.0</ele><time>2026-05-01T12:14:52.002Z</time></trkpt><trkpt lat="43.58429950370094" lon="12.519368813462021"><ele>351.0</ele><time>2026-05-01T12:14:53.002Z</time></trkpt><trkpt lat="43.58439453177591" lon="12.519089118955035"><ele>357.0</ele><time>2026-05-01T12:14:54.002Z</time></trkpt><trkpt lat="43.58448728295948" lon="12.5187982605301"><ele>347.5</ele><time>2026-05-01T12:14:55.002Z</time></trkpt><trkpt lat="43.58458047419565" lon="12.518510328860648"><ele>338.0</ele><time>2026-05-01T12:14:56.002Z</time></trkpt><trkpt lat="43.5846780114668" lon="12.518228856772815"><ele>338.0</ele><time>2026-05-01T12:14:57.002Z</time></trkpt><trkpt lat="43.58477527096927" lon="12.517975499136819"><ele>338.0</ele><time>2026-05-01T12:14:58.003Z</time></trkpt><trkpt lat="43.58486585875546" lon="12.517737284135436"><ele>338.0</ele><time>2026-05-01T12:14:59.003Z</time></trkpt><trkpt lat="43.58494175338678" lon="12.517512383611702"><ele>340.33333333333337</ele><time>2026-05-01T12:15:00.003Z</time></trkpt><trkpt lat="43.584997678398246" lon="12.517278657291664"><ele>342.6666666666667</ele><time>2026-05-01T12:15:01.003Z</time></trkpt><trkpt lat="43.58501928283499" lon="12.517029954286764"><ele>345.0</ele><time>2026-05-01T12:15:02.003Z</time></trkpt><trkpt lat="43.585014369175745" lon="12.516761968797741"><ele>345.0</ele><time>2026-05-01T12:15:03.003Z</time></trkpt><trkpt lat="43.58499753543549" lon="12.516481131592442"><ele>345.0</ele><time>2026-05-01T12:15:04.003Z</time></trkpt><trkpt lat="43.584991520028865" lon="12.516193166578852"><ele>345.0</ele><time>2026-05-01T12:15:05.003Z</time></trkpt><trkpt lat="43.58498877833169" lon="12.515904393845986"><ele>343.6666666666667</ele><time>2026-05-01T12:15:06.003Z</time></trkpt><trkpt lat="43.58499606565472" lon="12.515626590981947"><ele>342.33333333333337</ele><time>2026-05-01T12:15:07.003Z</time></trkpt><trkpt lat="43.58501798340919" lon="12.515364269013174"><ele>341.0</ele><time>2026-05-01T12:15:08.003Z</time></trkpt><trkpt lat="43.58505721922702" lon="12.51512697365386"><ele>343.6666666666667</ele><time>2026-05-01T12:15:09.003Z</time></trkpt><trkpt lat="43.585115591958186" lon="12.51490659916656"><ele>346.3333333333333</ele><time>2026-05-01T12:15:10.003Z</time></trkpt><trkpt lat="43.58519452269857" lon="12.514707157079743"><ele>349.0</ele><time>2026-05-01T12:15:11.003Z</time></trkpt><trkpt lat="43.58528182009842" lon="12.514528909512855"><ele>348.0</ele><time>2026-05-01T12:15:12.001Z</time></trkpt><trkpt lat="43.58536915931685" lon="12.514372901445057"><ele>347.0</ele><time>2026-05-01T12:15:13.001Z</time></trkpt><trkpt lat="43.585463656917" lon="12.514247136301675"><ele>346.0</ele><time>2026-05-01T12:15:14.001Z</time></trkpt><trkpt lat="43.58555500048468" lon="12.51414495642362"><ele>345.0</ele><time>2026-05-01T12:15:15.001Z</time></trkpt><trkpt lat="43.58564465117798" lon="12.51405224617215"><ele>345.0</ele><time>2026-05-01T12:15:16.001Z</time></trkpt><trkpt lat="43.5857263074369" lon="12.513960829697348"><ele>345.0</ele><time>2026-05-01T12:15:17.001Z</time></trkpt><trkpt lat="43.58580730735848" lon="12.513884231045001"><ele>345.0</ele><time>2026-05-01T12:15:18.001Z</time></trkpt><trkpt lat="43.58588740104336" lon="12.51380560391051"><ele>345.0</ele><time>2026-05-01T12:15:19.001Z</time></trkpt><trkpt lat="43.58596661183578" lon="12.513720393058382"><ele>345.0</ele><time>2026-05-01T12:15:20.001Z</time></trkpt><trkpt lat="43.58604620561831" lon="12.513637531059052"><ele>344.2</ele><time>2026-05-01T12:15:21.001Z</time></trkpt><trkpt lat="43.586128836072795" lon="12.513553402193198"><ele>343.4</ele><time>2026-05-01T12:15:22.001Z</time></trkpt><trkpt lat="43.58620965131226" lon="12.513469828342501"><ele>342.6</ele><time>2026-05-01T12:15:23.001Z</time></trkpt><trkpt lat="43.58629145823802" lon="12.513394950666992"><ele>341.8</ele><time>2026-05-01T12:15:24.001Z</time></trkpt><trkpt lat="43.58637344508772" lon="12.5133225422112"><ele>341.0</ele><time>2026-05-01T12:15:25.001Z</time></trkpt><trkpt lat="43.5864533056373" lon="12.51324787166892"><ele>341.0</ele><time>2026-05-01T12:15:26.001Z</time></trkpt><trkpt lat="43.58652975509485" lon="12.513168179250865"><ele>341.0</ele><time>2026-05-01T12:15:27.001Z</time></trkpt><trkpt lat="43.58660602392806" lon="12.513090815886741"><ele>341.0</ele><time>2026-05-01T12:15:28.001Z</time></trkpt><trkpt lat="43.58668207328284" lon="12.513017297765957"><ele>341.0</ele><time>2026-05-01T12:15:29.001Z</time></trkpt><trkpt lat="43.58675690446566" lon="12.512944006330379"><ele>341.0</ele><time>2026-05-01T12:15:30.001Z</time></trkpt><trkpt lat="43.586831471099295" lon="12.512866312680103"><ele>341.4</ele><time>2026-05-01T12:15:31.001Z</time></trkpt><trkpt lat="43.58690918026063" lon="12.512785059576391"><ele>341.8</ele><time>2026-05-01T12:15:32.001Z</time></trkpt><trkpt lat="43.58699455758745" lon="12.512703734832252"><ele>342.2</ele><time>2026-05-01T12:15:33.001Z</time></trkpt><trkpt lat="43.58708587003528" lon="12.512616676288456"><ele>342.59999999999997</ele><time>2026-05-01T12:15:34.001Z</time></trkpt><trkpt lat="43.58717885932781" lon="12.512522349061447"><ele>343.0</ele><time>2026-05-01T12:15:35.001Z</time></trkpt><trkpt lat="43.58726748252427" lon="12.512422867176932"><ele>343.0</ele><time>2026-05-01T12:15:36.001Z</time></trkpt><trkpt lat="43.587359853171584" lon="12.512329046262987"><ele>343.0</ele><time>2026-05-01T12:15:37.001Z</time></trkpt><trkpt lat="43.58745077164017" lon="12.512237899108893"><ele>343.0</ele><time>2026-05-01T12:15:38.001Z</time></trkpt><trkpt lat="43.5875429544091" lon="12.512153566637394"><ele>343.0</ele><time>2026-05-01T12:15:39.001Z</time></trkpt><trkpt lat="43.58763065381718" lon="12.512066359430323"><ele>343.0</ele><time>2026-05-01T12:15:40.001Z</time></trkpt><trkpt lat="43.58771855230841" lon="12.511976176848512"><ele>342.79999999999995</ele><time>2026-05-01T12:15:41.001Z</time></trkpt><trkpt lat="43.58779718352254" lon="12.511875381524248"><ele>342.6</ele><time>2026-05-01T12:15:42.001Z</time></trkpt><trkpt lat="43.5878842623197" lon="12.511792707161318"><ele>342.4</ele><time>2026-05-01T12:15:43.001Z</time></trkpt><trkpt lat="43.5879670597577" lon="12.511710941223074"><ele>342.20000000000005</ele><time>2026-05-01T12:15:44.001Z</time></trkpt><trkpt lat="43.58805450607214" lon="12.511632537100077"><ele>342.0</ele><time>2026-05-01T12:15:45.001Z</time></trkpt><trkpt lat="43.588139862110374" lon="12.51155794628552"><ele>341.8</ele><time>2026-05-01T12:15:46.001Z</time></trkpt><trkpt lat="43.5882191415791" lon="12.51147493004859"><ele>341.6</ele><time>2026-05-01T12:15:47.001Z</time></trkpt><trkpt lat="43.588298146277836" lon="12.511392025610721"><ele>341.40000000000003</ele><time>2026-05-01T12:15:48.001Z</time></trkpt><trkpt lat="43.58837946563318" lon="12.51131932512339"><ele>341.20000000000005</ele><time>2026-05-01T12:15:49.001Z</time></trkpt><trkpt lat="43.588457376097566" lon="12.511243530555431"><ele>341.0</ele><time>2026-05-01T12:15:50.001Z</time></trkpt><trkpt lat="43.58853336722521" lon="12.511166003828702"><ele>340.6</ele><time>2026-05-01T12:15:51.001Z</time></trkpt><trkpt lat="43.588608314575175" lon="12.511092518350384"><ele>340.20000000000005</ele><time>2026-05-01T12:15:52.001Z</time></trkpt><trkpt lat="43.5886846570385" lon="12.511015632112723"><ele>339.79999999999995</ele><time>2026-05-01T12:15:53.001Z</time></trkpt><trkpt lat="43.58875305162605" lon="12.51092943320725"><ele>339.4</ele><time>2026-05-01T12:15:54.001Z</time></trkpt><trkpt lat="43.58882199484185" lon="12.51084796979587"><ele>339.0</ele><time>2026-05-01T12:15:55.001Z</time></trkpt><trkpt lat="43.58888818535959" lon="12.510760404768723"><ele>338.5</ele><time>2026-05-01T12:15:56.001Z</time></trkpt><trkpt lat="43.58894550750412" lon="12.510661104684246"><ele>338.0</ele><time>2026-05-01T12:15:57.001Z</time></trkpt><trkpt lat="43.58900036235694" lon="12.51056069505116"><ele>337.5</ele><time>2026-05-01T12:15:58.001Z</time></trkpt><trkpt lat="43.58904873381874" lon="12.51046148120905"><ele>337.0</ele><time>2026-05-01T12:15:59.001Z</time></trkpt><trkpt lat="43.58909359273795" lon="12.51035869977577"><ele>336.5</ele><time>2026-05-01T12:16:00.001Z</time></trkpt><trkpt lat="43.58913861798996" lon="12.5102631786886"><ele>336.0</ele><time>2026-05-01T12:16:01.001Z</time></trkpt><trkpt lat="43.589178687162786" lon="12.510168193565509"><ele>335.8333333333333</ele><time>2026-05-01T12:16:02.001Z</time></trkpt><trkpt lat="43.58922131191215" lon="12.510074241516403"><ele>335.6666666666667</ele><time>2026-05-01T12:16:03.001Z</time></trkpt><trkpt lat="43.5892657919322" lon="12.509985379270182"><ele>335.5</ele><time>2026-05-01T12:16:04.001Z</time></trkpt><trkpt lat="43.5893033610932" lon="12.50990501110786"><ele>335.33333333333337</ele><time>2026-05-01T12:16:05.001Z</time></trkpt><trkpt lat="43.589338783382395" lon="12.509828864678061"><ele>335.1666666666667</ele><time>2026-05-01T12:16:06.001Z</time></trkpt><trkpt lat="43.58937823642686" lon="12.50967974466061"><ele>335.0</ele><time>2026-05-01T12:16:08.001Z</time></trkpt><trkpt lat="43.58935915208203" lon="12.509537743039905"><ele>335.6666666666667</ele><time>2026-05-01T12:16:10.001Z</time></trkpt><trkpt lat="43.58930392268091" lon="12.50943365478703"><ele>336.33333333333337</ele><time>2026-05-01T12:16:12.001Z</time></trkpt><trkpt lat="43.5892330507967" lon="12.5093695708416"><ele>337.0</ele><time>2026-05-01T12:16:14.001Z</time></trkpt><trkpt lat="43.589138881547214" lon="12.509343570938396"><ele>337.6666666666667</ele><time>2026-05-01T12:16:16.001Z</time></trkpt><trkpt lat="43.589067833428416" lon="12.509314674161455"><ele>338.3333333333333</ele><time>2026-05-01T12:16:18.002Z</time></trkpt><trkpt lat="43.588982733378586" lon="12.509246504107365"><ele>339.0</ele><time>2026-05-01T12:16:20.002Z</time></trkpt><trkpt lat="43.58891876760544" lon="12.509209302144145"><ele>339.0</ele><time>2026-05-01T12:16:21.002Z</time></trkpt><trkpt lat="43.58885787943901" lon="12.509173890078847"><ele>339.0</ele><time>2026-05-01T12:16:22.002Z</time></trkpt><trkpt lat="43.588795364862605" lon="12.509137532114355"><ele>339.0</ele><time>2026-05-01T12:16:23.002Z</time></trkpt><trkpt lat="43.588729870045775" lon="12.50909944086936"><ele>339.0</ele><time>2026-05-01T12:16:24.002Z</time></trkpt><trkpt lat="43.58865106548943" lon="12.509053608782187"><ele>339.0</ele><time>2026-05-01T12:16:25.002Z</time></trkpt><trkpt lat="43.588578545572126" lon="12.50901119953141"><ele>339.0</ele><time>2026-05-01T12:16:26.002Z</time></trkpt><trkpt lat="43.58850074321279" lon="12.508965424555019"><ele>338.79999999999995</ele><time>2026-05-01T12:16:27.002Z</time></trkpt><trkpt lat="43.58841737962272" lon="12.508916377626317"><ele>338.59999999999997</ele><time>2026-05-01T12:16:28.002Z</time></trkpt><trkpt lat="43.58833171256121" lon="12.508865553612155"><ele>338.4</ele><time>2026-05-01T12:16:29.002Z</time></trkpt><trkpt lat="43.58824575545326" lon="12.508813458399894"><ele>338.2</ele><time>2026-05-01T12:16:30.002Z</time></trkpt><trkpt lat="43.5881635850211" lon="12.508763675962275"><ele>338.0</ele><time>2026-05-01T12:16:31.002Z</time></trkpt><trkpt lat="43.58807849057787" lon="12.50871219214915"><ele>338.59999999999997</ele><time>2026-05-01T12:16:32.002Z</time></trkpt><trkpt lat="43.58799028327091" lon="12.508658824988926"><ele>339.2</ele><time>2026-05-01T12:16:33.002Z</time></trkpt><trkpt lat="43.587905813878564" lon="12.508607719343482"><ele>339.8</ele><time>2026-05-01T12:16:34.002Z</time></trkpt><trkpt lat="43.58781842197434" lon="12.508556874191953"><ele>340.4</ele><time>2026-05-01T12:16:35.002Z</time></trkpt><trkpt lat="43.5877269556853" lon="12.508499506613465"><ele>341.0</ele><time>2026-05-01T12:16:36.002Z</time></trkpt><trkpt lat="43.58764469715202" lon="12.508449738585549"><ele>341.0</ele><time>2026-05-01T12:16:37.002Z</time></trkpt><trkpt lat="43.58755691513363" lon="12.508396628741622"><ele>341.0</ele><time>2026-05-01T12:16:38.002Z</time></trkpt><trkpt lat="43.587463703820895" lon="12.508340234065225"><ele>341.0</ele><time>2026-05-01T12:16:39.002Z</time></trkpt><trkpt lat="43.58737638795527" lon="12.508287406252785"><ele>341.0</ele><time>2026-05-01T12:16:40.002Z</time></trkpt><trkpt lat="43.58728601885822" lon="12.508255129416392"><ele>341.0</ele><time>2026-05-01T12:16:41.002Z</time></trkpt><trkpt lat="43.587201432774535" lon="12.508196002252193"><ele>341.0</ele><time>2026-05-01T12:16:42.002Z</time></trkpt><trkpt lat="43.58712408706267" lon="12.50813716310448"><ele>341.0</ele><time>2026-05-01T12:16:43.002Z</time></trkpt><trkpt lat="43.587042435167625" lon="12.508097489160452"><ele>341.0</ele><time>2026-05-01T12:16:44.002Z</time></trkpt><trkpt lat="43.586963981800594" lon="12.508052226142379"><ele>341.0</ele><time>2026-05-01T12:16:45.002Z</time></trkpt><trkpt lat="43.58688609879845" lon="12.508010279152385"><ele>341.0</ele><time>2026-05-01T12:16:46.002Z</time></trkpt><trkpt lat="43.5868202652767" lon="12.507976149688151"><ele>341.0</ele><time>2026-05-01T12:16:47.002Z</time></trkpt><trkpt lat="43.586725509010485" lon="12.507895827491827"><ele>341.0</ele><time>2026-05-01T12:16:49.002Z</time></trkpt><trkpt lat="43.58666044102157" lon="12.507948843479957"><ele>341.0</ele><time>2026-05-01T12:16:50.002Z</time></trkpt><trkpt lat="43.58658833456129" lon="12.507989662087459"><ele>341.0</ele><time>2026-05-01T12:16:52.002Z</time></trkpt><trkpt lat="43.58652598604567" lon="12.50801078184012"><ele>341.0</ele><time>2026-05-01T12:16:55.002Z</time></trkpt><trkpt lat="43.58645623615691" lon="12.50801203599418"><ele>341.0</ele><time>2026-05-01T12:18:24.001Z</time></trkpt><trkpt lat="43.586387295822696" lon="12.508001945827539"><ele>341.0</ele><time>2026-05-01T12:20:28.001Z</time></trkpt><trkpt lat="43.586468266767326" lon="12.507740703483405"><ele>346.0</ele><time>2026-05-01T12:20:49.002Z</time></trkpt><trkpt lat="43.58653491540118" lon="12.507759074608947"><ele>346.0</ele><time>2026-05-01T12:24:32.001Z</time></trkpt><trkpt lat="43.586607364918464" lon="12.507851025123335"><ele>346.0</ele><time>2026-05-01T12:26:04.501Z</time></trkpt><trkpt lat="43.5866693581519" lon="12.507871093419231"><ele>346.0</ele><time>2026-05-01T12:26:16.415Z</time></trkpt></trkseg></trk></gpx>